<?xml version='1.0' encoding='UTF-8'?><gpx version="1.1" creator="JPX - https://github.com/jenetics/jpx" xmlns="http://www.topografix.com/GPX/1/1"><trk><trkseg><trkpt lat="42.6941739" lon="-8.5054961"><ele>257.0</ele><time>2026-04-17T06:01:46.836Z</time></trkpt><trkpt lat="42.6942206" lon="-8.5055545"><ele>257.0</ele><time>2026-04-17T06:01:52.836Z</time></trkpt><trkpt lat="42.694255" lon="-8.5056336"><ele>257.0</ele><time>2026-04-17T06:02:01.836Z</time></trkpt><trkpt lat="42.6942217" lon="-8.5055558"><ele>257.0</ele><time>2026-04-17T06:03:34.837Z</time></trkpt><trkpt lat="42.6941604" lon="-8.505502"><ele>257.0</ele><time>2026-04-17T06:03:41.836Z</time></trkpt><trkpt lat="42.6942217" lon="-8.5055558"><ele>257.0</ele><time>2026-04-17T06:03:34.837Z</time></trkpt><trkpt lat="42.6941604" lon="-8.505502"><ele>257.0</ele><time>2026-04-17T06:03:41.836Z</time></trkpt><trkpt lat="42.6941142" lon="-8.5054262"><ele>257.0</ele><time>2026-04-17T06:08:43.838Z</time></trkpt><trkpt lat="42.6940805" lon="-8.5053459"><ele>257.0</ele><time>2026-04-17T06:08:46.837Z</time></trkpt><trkpt lat="42.6940815" lon="-8.5052056"><ele>257.0</ele><time>2026-04-17T06:13:20.839Z</time></trkpt><trkpt lat="42.6940083" lon="-8.5052933"><ele>257.0</ele><time>2026-04-17T06:21:08.84Z</time></trkpt><trkpt lat="42.6939717" lon="-8.5053667"><ele>257.0</ele><time>2026-04-17T06:21:13.84Z</time></trkpt><trkpt lat="42.693825" lon="-8.5054183"><ele>257.0</ele><time>2026-04-17T06:22:02.841Z</time></trkpt><trkpt lat="42.6937217" lon="-8.5054383"><ele>257.0</ele><time>2026-04-17T06:22:04.841Z</time></trkpt><trkpt lat="42.6936033" lon="-8.5053783"><ele>257.0</ele><time>2026-04-17T06:22:06.841Z</time></trkpt><trkpt lat="42.6935533" lon="-8.5053133"><ele>257.0</ele><time>2026-04-17T06:22:07.84Z</time></trkpt><trkpt lat="42.693515" lon="-8.50522"><ele>257.0</ele><time>2026-04-17T06:22:08.84Z</time></trkpt><trkpt lat="42.6934733" lon="-8.5051083"><ele>257.8</ele><time>2026-04-17T06:22:09.841Z</time></trkpt><trkpt lat="42.6934383" lon="-8.504985"><ele>258.6</ele><time>2026-04-17T06:22:10.841Z</time></trkpt><trkpt lat="42.6934117" lon="-8.504865"><ele>259.40000000000003</ele><time>2026-04-17T06:22:11.84Z</time></trkpt><trkpt lat="42.69339" lon="-8.504735"><ele>260.2</ele><time>2026-04-17T06:22:12.841Z</time></trkpt><trkpt lat="42.6933817" lon="-8.5045983"><ele>261.0</ele><time>2026-04-17T06:22:13.84Z</time></trkpt><trkpt lat="42.6933767" lon="-8.50446"><ele>261.0</ele><time>2026-04-17T06:22:14.84Z</time></trkpt><trkpt lat="42.6933683" lon="-8.504335"><ele>261.0</ele><time>2026-04-17T06:22:15.84Z</time></trkpt><trkpt lat="42.6933683" lon="-8.504205"><ele>261.0</ele><time>2026-04-17T06:22:16.84Z</time></trkpt><trkpt lat="42.6933683" lon="-8.50409"><ele>261.0</ele><time>2026-04-17T06:22:17.84Z</time></trkpt><trkpt lat="42.6933667" lon="-8.5039833"><ele>261.0</ele><time>2026-04-17T06:22:18.841Z</time></trkpt><trkpt lat="42.6933633" lon="-8.5038833"><ele>261.0</ele><time>2026-04-17T06:22:19.84Z</time></trkpt><trkpt lat="42.6933617" lon="-8.5037917"><ele>260.6</ele><time>2026-04-17T06:22:20.84Z</time></trkpt><trkpt lat="42.6933417" lon="-8.5036317"><ele>260.20000000000005</ele><time>2026-04-17T06:22:22.84Z</time></trkpt><trkpt lat="42.6932683" lon="-8.5034967"><ele>259.79999999999995</ele><time>2026-04-17T06:22:24.84Z</time></trkpt><trkpt lat="42.6932033" lon="-8.5034533"><ele>259.4</ele><time>2026-04-17T06:22:25.841Z</time></trkpt><trkpt lat="42.6931283" lon="-8.50343"><ele>259.0</ele><time>2026-04-17T06:22:26.841Z</time></trkpt><trkpt lat="42.693045" lon="-8.503405"><ele>259.0</ele><time>2026-04-17T06:22:27.841Z</time></trkpt><trkpt lat="42.6929617" lon="-8.5033817"><ele>259.0</ele><time>2026-04-17T06:22:28.84Z</time></trkpt><trkpt lat="42.692875" lon="-8.50336"><ele>259.0</ele><time>2026-04-17T06:22:29.84Z</time></trkpt><trkpt lat="42.6927833" lon="-8.5033283"><ele>259.0</ele><time>2026-04-17T06:22:30.841Z</time></trkpt><trkpt lat="42.6926967" lon="-8.5033"><ele>259.0</ele><time>2026-04-17T06:22:31.84Z</time></trkpt><trkpt lat="42.6926083" lon="-8.5032667"><ele>259.0</ele><time>2026-04-17T06:22:32.84Z</time></trkpt><trkpt lat="42.6925233" lon="-8.5032433"><ele>259.4</ele><time>2026-04-17T06:22:33.84Z</time></trkpt><trkpt lat="42.692455" lon="-8.5032283"><ele>259.79999999999995</ele><time>2026-04-17T06:22:34.84Z</time></trkpt><trkpt lat="42.6923167" lon="-8.5032467"><ele>260.20000000000005</ele><time>2026-04-17T06:22:36.841Z</time></trkpt><trkpt lat="42.6922183" lon="-8.503195"><ele>260.6</ele><time>2026-04-17T06:22:38.841Z</time></trkpt><trkpt lat="42.6921683" lon="-8.5030417"><ele>261.0</ele><time>2026-04-17T06:22:40.84Z</time></trkpt><trkpt lat="42.69218" lon="-8.50293"><ele>260.2</ele><time>2026-04-17T06:22:41.84Z</time></trkpt><trkpt lat="42.692195" lon="-8.5028017"><ele>259.40000000000003</ele><time>2026-04-17T06:22:42.841Z</time></trkpt><trkpt lat="42.6922067" lon="-8.50267"><ele>258.6</ele><time>2026-04-17T06:22:43.841Z</time></trkpt><trkpt lat="42.6922183" lon="-8.5025383"><ele>257.8</ele><time>2026-04-17T06:22:44.841Z</time></trkpt><trkpt lat="42.6922217" lon="-8.50242"><ele>257.0</ele><time>2026-04-17T06:22:45.841Z</time></trkpt><trkpt lat="42.6922233" lon="-8.5023067"><ele>257.0</ele><time>2026-04-17T06:22:46.841Z</time></trkpt><trkpt lat="42.6922283" lon="-8.5021933"><ele>257.0</ele><time>2026-04-17T06:22:47.842Z</time></trkpt><trkpt lat="42.6922283" lon="-8.5020817"><ele>257.0</ele><time>2026-04-17T06:22:48.842Z</time></trkpt><trkpt lat="42.6922267" lon="-8.5019617"><ele>257.0</ele><time>2026-04-17T06:22:49.842Z</time></trkpt><trkpt lat="42.6922317" lon="-8.50184"><ele>257.0</ele><time>2026-04-17T06:22:50.842Z</time></trkpt><trkpt lat="42.692235" lon="-8.5017183"><ele>257.0</ele><time>2026-04-17T06:22:51.841Z</time></trkpt><trkpt lat="42.6922383" lon="-8.50159"><ele>256.83333333333337</ele><time>2026-04-17T06:22:52.841Z</time></trkpt><trkpt lat="42.69224" lon="-8.50147"><ele>256.6666666666667</ele><time>2026-04-17T06:22:53.842Z</time></trkpt><trkpt lat="42.692245" lon="-8.5013467"><ele>256.5</ele><time>2026-04-17T06:22:54.842Z</time></trkpt><trkpt lat="42.6922483" lon="-8.5012333"><ele>256.3333333333333</ele><time>2026-04-17T06:22:55.841Z</time></trkpt><trkpt lat="42.6922583" lon="-8.50111"><ele>256.16666666666663</ele><time>2026-04-17T06:22:56.841Z</time></trkpt><trkpt lat="42.6922583" lon="-8.50098"><ele>256.0</ele><time>2026-04-17T06:22:57.841Z</time></trkpt><trkpt lat="42.69226" lon="-8.50086"><ele>255.99999999999997</ele><time>2026-04-17T06:22:58.841Z</time></trkpt><trkpt lat="42.6922583" lon="-8.5007433"><ele>256.0</ele><time>2026-04-17T06:22:59.842Z</time></trkpt><trkpt lat="42.692265" lon="-8.5006333"><ele>256.0</ele><time>2026-04-17T06:23:00.841Z</time></trkpt><trkpt lat="42.6922717" lon="-8.500525"><ele>256.0</ele><time>2026-04-17T06:23:01.842Z</time></trkpt><trkpt lat="42.69227" lon="-8.5004167"><ele>255.99999999999997</ele><time>2026-04-17T06:23:02.842Z</time></trkpt><trkpt lat="42.692275" lon="-8.5003017"><ele>256.0</ele><time>2026-04-17T06:23:03.841Z</time></trkpt><trkpt lat="42.6922833" lon="-8.5001783"><ele>256.8333333333333</ele><time>2026-04-17T06:23:04.842Z</time></trkpt><trkpt lat="42.69229" lon="-8.5000567"><ele>257.66666666666663</ele><time>2026-04-17T06:23:05.841Z</time></trkpt><trkpt lat="42.69229" lon="-8.499935"><ele>258.5</ele><time>2026-04-17T06:23:06.841Z</time></trkpt><trkpt lat="42.69229" lon="-8.49981"><ele>259.3333333333333</ele><time>2026-04-17T06:23:07.841Z</time></trkpt><trkpt lat="42.6922967" lon="-8.4996933"><ele>260.1666666666667</ele><time>2026-04-17T06:23:08.841Z</time></trkpt><trkpt lat="42.692295" lon="-8.4995733"><ele>261.0</ele><time>2026-04-17T06:23:09.841Z</time></trkpt><trkpt lat="42.6923" lon="-8.499455"><ele>261.8333333333333</ele><time>2026-04-17T06:23:10.841Z</time></trkpt><trkpt lat="42.6922967" lon="-8.49935"><ele>262.6666666666667</ele><time>2026-04-17T06:23:11.841Z</time></trkpt><trkpt lat="42.692275" lon="-8.4992567"><ele>263.5</ele><time>2026-04-17T06:23:12.842Z</time></trkpt><trkpt lat="42.6922483" lon="-8.4991733"><ele>264.33333333333337</ele><time>2026-04-17T06:23:13.841Z</time></trkpt><trkpt lat="42.6922067" lon="-8.49903"><ele>265.1666666666667</ele><time>2026-04-17T06:23:15.841Z</time></trkpt><trkpt lat="42.692225" lon="-8.498895"><ele>266.0</ele><time>2026-04-17T06:23:17.842Z</time></trkpt><trkpt lat="42.6922767" lon="-8.4988267"><ele>266.0</ele><time>2026-04-17T06:23:19.842Z</time></trkpt><trkpt lat="42.6923917" lon="-8.4988217"><ele>266.0</ele><time>2026-04-17T06:23:21.841Z</time></trkpt><trkpt lat="42.6924767" lon="-8.4988417"><ele>266.0</ele><time>2026-04-17T06:23:22.842Z</time></trkpt><trkpt lat="42.692555" lon="-8.4988467"><ele>266.0</ele><time>2026-04-17T06:23:23.842Z</time></trkpt><trkpt lat="42.6926333" lon="-8.4988333"><ele>266.0</ele><time>2026-04-17T06:23:24.841Z</time></trkpt><trkpt lat="42.692715" lon="-8.4988167"><ele>266.0</ele><time>2026-04-17T06:23:25.842Z</time></trkpt><trkpt lat="42.6927883" lon="-8.498795"><ele>264.1666666666667</ele><time>2026-04-17T06:23:26.842Z</time></trkpt><trkpt lat="42.6928617" lon="-8.4987717"><ele>262.33333333333337</ele><time>2026-04-17T06:23:27.842Z</time></trkpt><trkpt lat="42.6929433" lon="-8.49875"><ele>260.5</ele><time>2026-04-17T06:23:28.842Z</time></trkpt><trkpt lat="42.6930283" lon="-8.4987267"><ele>258.6666666666667</ele><time>2026-04-17T06:23:29.841Z</time></trkpt><trkpt lat="42.69312" lon="-8.4987067"><ele>256.8333333333333</ele><time>2026-04-17T06:23:30.841Z</time></trkpt><trkpt lat="42.6932067" lon="-8.4986783"><ele>255.0</ele><time>2026-04-17T06:23:31.842Z</time></trkpt><trkpt lat="42.6932983" lon="-8.4986467"><ele>255.0</ele><time>2026-04-17T06:23:32.841Z</time></trkpt><trkpt lat="42.6933983" lon="-8.498615"><ele>255.0</ele><time>2026-04-17T06:23:33.842Z</time></trkpt><trkpt lat="42.6935" lon="-8.4985983"><ele>255.0</ele><time>2026-04-17T06:23:34.841Z</time></trkpt><trkpt lat="42.6936" lon="-8.4985767"><ele>255.0</ele><time>2026-04-17T06:23:35.842Z</time></trkpt><trkpt lat="42.6936983" lon="-8.4985617"><ele>255.0</ele><time>2026-04-17T06:23:36.841Z</time></trkpt><trkpt lat="42.6937883" lon="-8.498535"><ele>254.5</ele><time>2026-04-17T06:23:37.841Z</time></trkpt><trkpt lat="42.6938683" lon="-8.4985133"><ele>254.0</ele><time>2026-04-17T06:23:38.841Z</time></trkpt><trkpt lat="42.6939567" lon="-8.4984833"><ele>253.5</ele><time>2026-04-17T06:23:39.842Z</time></trkpt><trkpt lat="42.6940433" lon="-8.4984483"><ele>253.0</ele><time>2026-04-17T06:23:40.841Z</time></trkpt><trkpt lat="42.6941333" lon="-8.49842"><ele>252.5</ele><time>2026-04-17T06:23:41.842Z</time></trkpt><trkpt lat="42.69422" lon="-8.4983883"><ele>252.0</ele><time>2026-04-17T06:23:42.842Z</time></trkpt><trkpt lat="42.69431" lon="-8.4983533"><ele>252.0</ele><time>2026-04-17T06:23:43.842Z</time></trkpt><trkpt lat="42.6944117" lon="-8.4983283"><ele>252.0</ele><time>2026-04-17T06:23:44.842Z</time></trkpt><trkpt lat="42.6944983" lon="-8.4983033"><ele>252.0</ele><time>2026-04-17T06:23:45.842Z</time></trkpt><trkpt lat="42.69458" lon="-8.4982733"><ele>252.0</ele><time>2026-04-17T06:23:46.842Z</time></trkpt><trkpt lat="42.6946533" lon="-8.4982367"><ele>252.0</ele><time>2026-04-17T06:23:47.841Z</time></trkpt><trkpt lat="42.6947467" lon="-8.4982267"><ele>252.0</ele><time>2026-04-17T06:23:48.841Z</time></trkpt><trkpt lat="42.6948383" lon="-8.4982167"><ele>251.83333333333334</ele><time>2026-04-17T06:23:49.841Z</time></trkpt><trkpt lat="42.69492" lon="-8.4981983"><ele>251.66666666666669</ele><time>2026-04-17T06:23:50.841Z</time></trkpt><trkpt lat="42.6949983" lon="-8.49817"><ele>251.5</ele><time>2026-04-17T06:23:51.842Z</time></trkpt><trkpt lat="42.6950783" lon="-8.4981417"><ele>251.33333333333334</ele><time>2026-04-17T06:23:52.842Z</time></trkpt><trkpt lat="42.6951667" lon="-8.49812"><ele>251.16666666666669</ele><time>2026-04-17T06:23:53.841Z</time></trkpt><trkpt lat="42.695255" lon="-8.4980917"><ele>251.0</ele><time>2026-04-17T06:23:54.841Z</time></trkpt><trkpt lat="42.6953417" lon="-8.4980633"><ele>251.00000000000003</ele><time>2026-04-17T06:23:55.842Z</time></trkpt><trkpt lat="42.6954267" lon="-8.4980333"><ele>251.0</ele><time>2026-04-17T06:23:56.842Z</time></trkpt><trkpt lat="42.695495" lon="-8.498005"><ele>251.0</ele><time>2026-04-17T06:23:57.841Z</time></trkpt><trkpt lat="42.6955517" lon="-8.49795"><ele>251.0</ele><time>2026-04-17T06:23:58.842Z</time></trkpt><trkpt lat="42.6956383" lon="-8.49787"><ele>251.00000000000003</ele><time>2026-04-17T06:24:00.841Z</time></trkpt><trkpt lat="42.6957317" lon="-8.4978717"><ele>251.0</ele><time>2026-04-17T06:24:02.841Z</time></trkpt><trkpt lat="42.6958267" lon="-8.49797"><ele>251.0</ele><time>2026-04-17T06:24:04.842Z</time></trkpt><trkpt lat="42.6958883" lon="-8.4980733"><ele>251.00000000000003</ele><time>2026-04-17T06:24:05.842Z</time></trkpt><trkpt lat="42.695955" lon="-8.4981983"><ele>251.00000000000003</ele><time>2026-04-17T06:24:06.841Z</time></trkpt><trkpt lat="42.696025" lon="-8.4983067"><ele>251.0</ele><time>2026-04-17T06:24:07.841Z</time></trkpt><trkpt lat="42.69609" lon="-8.4984133"><ele>251.0</ele><time>2026-04-17T06:24:08.842Z</time></trkpt><trkpt lat="42.6961633" lon="-8.498515"><ele>250.8</ele><time>2026-04-17T06:24:09.841Z</time></trkpt><trkpt lat="42.696235" lon="-8.4986133"><ele>250.60000000000002</ele><time>2026-04-17T06:24:10.841Z</time></trkpt><trkpt lat="42.6963083" lon="-8.49871"><ele>250.4</ele><time>2026-04-17T06:24:11.841Z</time></trkpt><trkpt lat="42.696385" lon="-8.4988017"><ele>250.2</ele><time>2026-04-17T06:24:12.841Z</time></trkpt><trkpt lat="42.696455" lon="-8.4988933"><ele>250.0</ele><time>2026-04-17T06:24:13.842Z</time></trkpt><trkpt lat="42.6965217" lon="-8.4989717"><ele>249.4</ele><time>2026-04-17T06:24:14.841Z</time></trkpt><trkpt lat="42.6965867" lon="-8.4990417"><ele>248.8</ele><time>2026-04-17T06:24:15.842Z</time></trkpt><trkpt lat="42.6966633" lon="-8.49911"><ele>248.2</ele><time>2026-04-17T06:24:16.842Z</time></trkpt><trkpt lat="42.6967483" lon="-8.4991867"><ele>247.6</ele><time>2026-04-17T06:24:17.842Z</time></trkpt><trkpt lat="42.6968417" lon="-8.4992567"><ele>247.0</ele><time>2026-04-17T06:24:18.842Z</time></trkpt><trkpt lat="42.6969267" lon="-8.499315"><ele>245.25</ele><time>2026-04-17T06:24:19.841Z</time></trkpt><trkpt lat="42.6970267" lon="-8.499375"><ele>243.5</ele><time>2026-04-17T06:24:20.841Z</time></trkpt><trkpt lat="42.6971433" lon="-8.4994167"><ele>241.75</ele><time>2026-04-17T06:24:21.842Z</time></trkpt><trkpt lat="42.6972517" lon="-8.499475"><ele>240.0</ele><time>2026-04-17T06:24:22.842Z</time></trkpt><trkpt lat="42.6973717" lon="-8.4995283"><ele>240.0</ele><time>2026-04-17T06:24:23.841Z</time></trkpt><trkpt lat="42.69749" lon="-8.4995767"><ele>240.0</ele><time>2026-04-17T06:24:24.842Z</time></trkpt><trkpt lat="42.6976233" lon="-8.4996383"><ele>240.0</ele><time>2026-04-17T06:24:25.841Z</time></trkpt><trkpt lat="42.6977617" lon="-8.4996817"><ele>240.0</ele><time>2026-04-17T06:24:26.842Z</time></trkpt><trkpt lat="42.6978917" lon="-8.4997317"><ele>237.5</ele><time>2026-04-17T06:24:27.842Z</time></trkpt><trkpt lat="42.6980283" lon="-8.4997783"><ele>235.0</ele><time>2026-04-17T06:24:28.842Z</time></trkpt><trkpt lat="42.698165" lon="-8.499835"><ele>232.5</ele><time>2026-04-17T06:24:29.841Z</time></trkpt><trkpt lat="42.6983033" lon="-8.499895"><ele>230.0</ele><time>2026-04-17T06:24:30.842Z</time></trkpt><trkpt lat="42.6984333" lon="-8.4999517"><ele>230.0</ele><time>2026-04-17T06:24:31.842Z</time></trkpt><trkpt lat="42.6985733" lon="-8.50001"><ele>230.0</ele><time>2026-04-17T06:24:32.841Z</time></trkpt><trkpt lat="42.69871" lon="-8.5000783"><ele>230.0</ele><time>2026-04-17T06:24:33.841Z</time></trkpt><trkpt lat="42.6988333" lon="-8.5001483"><ele>230.0</ele><time>2026-04-17T06:24:34.842Z</time></trkpt><trkpt lat="42.69896" lon="-8.5002383"><ele>229.75</ele><time>2026-04-17T06:24:35.841Z</time></trkpt><trkpt lat="42.6990817" lon="-8.5003483"><ele>229.5</ele><time>2026-04-17T06:24:36.841Z</time></trkpt><trkpt lat="42.6991967" lon="-8.5004767"><ele>229.25</ele><time>2026-04-17T06:24:37.841Z</time></trkpt><trkpt lat="42.699315" lon="-8.5006083"><ele>229.0</ele><time>2026-04-17T06:24:38.841Z</time></trkpt><trkpt lat="42.6994283" lon="-8.5007467"><ele>227.5</ele><time>2026-04-17T06:24:39.842Z</time></trkpt><trkpt lat="42.6995367" lon="-8.5008633"><ele>226.0</ele><time>2026-04-17T06:24:40.841Z</time></trkpt><trkpt lat="42.6996583" lon="-8.500975"><ele>224.5</ele><time>2026-04-17T06:24:41.841Z</time></trkpt><trkpt lat="42.69978" lon="-8.5010633"><ele>223.0</ele><time>2026-04-17T06:24:42.841Z</time></trkpt><trkpt lat="42.699905" lon="-8.5011383"><ele>223.0</ele><time>2026-04-17T06:24:43.842Z</time></trkpt><trkpt lat="42.7000383" lon="-8.501205"><ele>223.0</ele><time>2026-04-17T06:24:44.842Z</time></trkpt><trkpt lat="42.7001767" lon="-8.50125"><ele>223.0</ele><time>2026-04-17T06:24:45.841Z</time></trkpt><trkpt lat="42.7003167" lon="-8.5012783"><ele>223.0</ele><time>2026-04-17T06:24:46.841Z</time></trkpt><trkpt lat="42.70046" lon="-8.501295"><ele>223.5</ele><time>2026-04-17T06:24:47.842Z</time></trkpt><trkpt lat="42.7005983" lon="-8.5012933"><ele>224.0</ele><time>2026-04-17T06:24:48.842Z</time></trkpt><trkpt lat="42.700745" lon="-8.501285"><ele>224.5</ele><time>2026-04-17T06:24:49.842Z</time></trkpt><trkpt lat="42.7008933" lon="-8.5012667"><ele>225.0</ele><time>2026-04-17T06:24:50.842Z</time></trkpt><trkpt lat="42.70104" lon="-8.5012433"><ele>225.0</ele><time>2026-04-17T06:24:51.841Z</time></trkpt><trkpt lat="42.701195" lon="-8.5012217"><ele>225.0</ele><time>2026-04-17T06:24:52.841Z</time></trkpt><trkpt lat="42.7013467" lon="-8.5012017"><ele>225.0</ele><time>2026-04-17T06:24:53.842Z</time></trkpt><trkpt lat="42.7014933" lon="-8.5011817"><ele>225.0</ele><time>2026-04-17T06:24:54.841Z</time></trkpt><trkpt lat="42.7016417" lon="-8.5011633"><ele>225.0</ele><time>2026-04-17T06:24:55.842Z</time></trkpt><trkpt lat="42.7017967" lon="-8.5011567"><ele>225.0</ele><time>2026-04-17T06:24:56.842Z</time></trkpt><trkpt lat="42.7019417" lon="-8.5011433"><ele>225.0</ele><time>2026-04-17T06:24:57.842Z</time></trkpt><trkpt lat="42.702065" lon="-8.5011383"><ele>226.33333333333331</ele><time>2026-04-17T06:24:58.841Z</time></trkpt><trkpt lat="42.7022167" lon="-8.5011083"><ele>227.66666666666666</ele><time>2026-04-17T06:24:59.842Z</time></trkpt><trkpt lat="42.702365" lon="-8.501075"><ele>229.0</ele><time>2026-04-17T06:25:00.842Z</time></trkpt><trkpt lat="42.7025133" lon="-8.5010433"><ele>229.0</ele><time>2026-04-17T06:25:01.842Z</time></trkpt><trkpt lat="42.702665" lon="-8.5010233"><ele>229.0</ele><time>2026-04-17T06:25:02.841Z</time></trkpt><trkpt lat="42.7028217" lon="-8.5010033"><ele>229.0</ele><time>2026-04-17T06:25:03.842Z</time></trkpt><trkpt lat="42.7029817" lon="-8.5009967"><ele>230.66666666666666</ele><time>2026-04-17T06:25:04.841Z</time></trkpt><trkpt lat="42.7031433" lon="-8.501005"><ele>232.33333333333331</ele><time>2026-04-17T06:25:05.841Z</time></trkpt><trkpt lat="42.7033" lon="-8.5010417"><ele>234.0</ele><time>2026-04-17T06:25:06.842Z</time></trkpt><trkpt lat="42.7034517" lon="-8.5011033"><ele>233.66666666666669</ele><time>2026-04-17T06:25:07.842Z</time></trkpt><trkpt lat="42.7036017" lon="-8.5011983"><ele>233.33333333333334</ele><time>2026-04-17T06:25:08.842Z</time></trkpt><trkpt lat="42.7037383" lon="-8.5013083"><ele>233.0</ele><time>2026-04-17T06:25:09.841Z</time></trkpt><trkpt lat="42.70388" lon="-8.5014167"><ele>232.66666666666669</ele><time>2026-04-17T06:25:10.841Z</time></trkpt><trkpt lat="42.7040167" lon="-8.5015233"><ele>232.33333333333331</ele><time>2026-04-17T06:25:11.841Z</time></trkpt><trkpt lat="42.7041683" lon="-8.5016333"><ele>232.0</ele><time>2026-04-17T06:25:12.842Z</time></trkpt><trkpt lat="42.7043117" lon="-8.50173"><ele>231.66666666666666</ele><time>2026-04-17T06:25:13.842Z</time></trkpt><trkpt lat="42.70446" lon="-8.5018383"><ele>231.33333333333331</ele><time>2026-04-17T06:25:14.841Z</time></trkpt><trkpt lat="42.7045917" lon="-8.5019433"><ele>231.0</ele><time>2026-04-17T06:25:15.841Z</time></trkpt><trkpt lat="42.7047267" lon="-8.5020433"><ele>231.0</ele><time>2026-04-17T06:25:16.841Z</time></trkpt><trkpt lat="42.7048633" lon="-8.502145"><ele>231.0</ele><time>2026-04-17T06:25:17.841Z</time></trkpt><trkpt lat="42.7049983" lon="-8.5022533"><ele>231.0</ele><time>2026-04-17T06:25:18.841Z</time></trkpt><trkpt lat="42.7051383" lon="-8.5023583"><ele>229.66666666666669</ele><time>2026-04-17T06:25:19.841Z</time></trkpt><trkpt lat="42.7052767" lon="-8.5024667"><ele>228.33333333333334</ele><time>2026-04-17T06:25:20.842Z</time></trkpt><trkpt lat="42.7054167" lon="-8.5025717"><ele>227.0</ele><time>2026-04-17T06:25:21.841Z</time></trkpt><trkpt lat="42.7055617" lon="-8.5026833"><ele>227.0</ele><time>2026-04-17T06:25:22.841Z</time></trkpt><trkpt lat="42.7056983" lon="-8.502795"><ele>227.0</ele><time>2026-04-17T06:25:23.842Z</time></trkpt><trkpt lat="42.705835" lon="-8.5029067"><ele>227.0</ele><time>2026-04-17T06:25:24.841Z</time></trkpt><trkpt lat="42.70598" lon="-8.5030317"><ele>227.33333333333334</ele><time>2026-04-17T06:25:25.842Z</time></trkpt><trkpt lat="42.7061217" lon="-8.50314"><ele>227.66666666666669</ele><time>2026-04-17T06:25:26.841Z</time></trkpt><trkpt lat="42.70626" lon="-8.5032517"><ele>228.0</ele><time>2026-04-17T06:25:27.841Z</time></trkpt><trkpt lat="42.7063917" lon="-8.503355"><ele>228.0</ele><time>2026-04-17T06:25:28.842Z</time></trkpt><trkpt lat="42.7065283" lon="-8.5034617"><ele>228.0</ele><time>2026-04-17T06:25:29.842Z</time></trkpt><trkpt lat="42.706665" lon="-8.5035617"><ele>228.0</ele><time>2026-04-17T06:25:30.842Z</time></trkpt><trkpt lat="42.7068017" lon="-8.503665"><ele>224.66666666666669</ele><time>2026-04-17T06:25:31.841Z</time></trkpt><trkpt lat="42.7069417" lon="-8.5037717"><ele>221.33333333333334</ele><time>2026-04-17T06:25:32.841Z</time></trkpt><trkpt lat="42.7070817" lon="-8.50388"><ele>218.0</ele><time>2026-04-17T06:25:33.842Z</time></trkpt><trkpt lat="42.7072267" lon="-8.5039933"><ele>218.0</ele><time>2026-04-17T06:25:34.842Z</time></trkpt><trkpt lat="42.70738" lon="-8.5041117"><ele>218.0</ele><time>2026-04-17T06:25:35.842Z</time></trkpt><trkpt lat="42.707535" lon="-8.5042217"><ele>218.0</ele><time>2026-04-17T06:25:36.841Z</time></trkpt><trkpt lat="42.7076933" lon="-8.504335"><ele>216.33333333333334</ele><time>2026-04-17T06:25:37.841Z</time></trkpt><trkpt lat="42.7078567" lon="-8.5044517"><ele>214.66666666666669</ele><time>2026-04-17T06:25:38.842Z</time></trkpt><trkpt lat="42.708015" lon="-8.50457"><ele>213.0</ele><time>2026-04-17T06:25:39.841Z</time></trkpt><trkpt lat="42.7081783" lon="-8.504695"><ele>213.0</ele><time>2026-04-17T06:25:40.842Z</time></trkpt><trkpt lat="42.708345" lon="-8.5048233"><ele>213.0</ele><time>2026-04-17T06:25:41.841Z</time></trkpt><trkpt lat="42.7085" lon="-8.50494"><ele>213.0</ele><time>2026-04-17T06:25:42.842Z</time></trkpt><trkpt lat="42.7086567" lon="-8.5050383"><ele>212.33333333333331</ele><time>2026-04-17T06:25:43.841Z</time></trkpt><trkpt lat="42.7088117" lon="-8.5051433"><ele>211.66666666666666</ele><time>2026-04-17T06:25:44.842Z</time></trkpt><trkpt lat="42.7089667" lon="-8.5052633"><ele>211.0</ele><time>2026-04-17T06:25:45.841Z</time></trkpt><trkpt lat="42.7091133" lon="-8.50537"><ele>211.66666666666666</ele><time>2026-04-17T06:25:46.841Z</time></trkpt><trkpt lat="42.709265" lon="-8.5054783"><ele>212.33333333333331</ele><time>2026-04-17T06:25:47.841Z</time></trkpt><trkpt lat="42.7094083" lon="-8.5055833"><ele>213.0</ele><time>2026-04-17T06:25:48.842Z</time></trkpt><trkpt lat="42.7095517" lon="-8.505695"><ele>213.66666666666669</ele><time>2026-04-17T06:25:49.841Z</time></trkpt><trkpt lat="42.7096917" lon="-8.5058017"><ele>214.33333333333334</ele><time>2026-04-17T06:25:50.841Z</time></trkpt><trkpt lat="42.7098333" lon="-8.505905"><ele>215.0</ele><time>2026-04-17T06:25:51.841Z</time></trkpt><trkpt lat="42.7099767" lon="-8.5060033"><ele>215.0</ele><time>2026-04-17T06:25:52.842Z</time></trkpt><trkpt lat="42.7101283" lon="-8.5061033"><ele>215.0</ele><time>2026-04-17T06:25:53.842Z</time></trkpt><trkpt lat="42.7102717" lon="-8.5062117"><ele>215.0</ele><time>2026-04-17T06:25:54.842Z</time></trkpt><trkpt lat="42.7104267" lon="-8.5063133"><ele>217.33333333333334</ele><time>2026-04-17T06:25:55.842Z</time></trkpt><trkpt lat="42.7105783" lon="-8.5064067"><ele>219.66666666666669</ele><time>2026-04-17T06:25:56.841Z</time></trkpt><trkpt lat="42.7107267" lon="-8.5064933"><ele>222.0</ele><time>2026-04-17T06:25:57.841Z</time></trkpt><trkpt lat="42.7108767" lon="-8.506565"><ele>222.0</ele><time>2026-04-17T06:25:58.842Z</time></trkpt><trkpt lat="42.7110367" lon="-8.5066283"><ele>222.0</ele><time>2026-04-17T06:25:59.841Z</time></trkpt><trkpt lat="42.7111983" lon="-8.50669"><ele>222.0</ele><time>2026-04-17T06:26:00.842Z</time></trkpt><trkpt lat="42.7113667" lon="-8.506775"><ele>224.66666666666669</ele><time>2026-04-17T06:26:01.841Z</time></trkpt><trkpt lat="42.7115167" lon="-8.5068533"><ele>227.33333333333334</ele><time>2026-04-17T06:26:02.841Z</time></trkpt><trkpt lat="42.7116667" lon="-8.5069517"><ele>230.0</ele><time>2026-04-17T06:26:03.841Z</time></trkpt><trkpt lat="42.7118017" lon="-8.5070717"><ele>232.0</ele><time>2026-04-17T06:26:04.842Z</time></trkpt><trkpt lat="42.7119367" lon="-8.5072017"><ele>234.0</ele><time>2026-04-17T06:26:05.842Z</time></trkpt><trkpt lat="42.712065" lon="-8.5073517"><ele>236.0</ele><time>2026-04-17T06:26:06.842Z</time></trkpt><trkpt lat="42.71219" lon="-8.5075117"><ele>236.0</ele><time>2026-04-17T06:26:07.842Z</time></trkpt><trkpt lat="42.71231" lon="-8.5076867"><ele>236.0</ele><time>2026-04-17T06:26:08.842Z</time></trkpt><trkpt lat="42.71241" lon="-8.5078733"><ele>236.0</ele><time>2026-04-17T06:26:09.842Z</time></trkpt><trkpt lat="42.71251" lon="-8.50807"><ele>235.33333333333334</ele><time>2026-04-17T06:26:10.841Z</time></trkpt><trkpt lat="42.712595" lon="-8.5082767"><ele>234.66666666666669</ele><time>2026-04-17T06:26:11.842Z</time></trkpt><trkpt lat="42.7126867" lon="-8.508485"><ele>234.0</ele><time>2026-04-17T06:26:12.841Z</time></trkpt><trkpt lat="42.71277" lon="-8.5086967"><ele>235.33333333333331</ele><time>2026-04-17T06:26:13.842Z</time></trkpt><trkpt lat="42.712855" lon="-8.5089267"><ele>236.66666666666666</ele><time>2026-04-17T06:26:14.842Z</time></trkpt><trkpt lat="42.7129283" lon="-8.50914"><ele>238.0</ele><time>2026-04-17T06:26:15.842Z</time></trkpt><trkpt lat="42.7130067" lon="-8.5093333"><ele>238.0</ele><time>2026-04-17T06:26:16.842Z</time></trkpt><trkpt lat="42.713095" lon="-8.5095283"><ele>238.0</ele><time>2026-04-17T06:26:17.841Z</time></trkpt><trkpt lat="42.713185" lon="-8.509705"><ele>238.0</ele><time>2026-04-17T06:26:18.842Z</time></trkpt><trkpt lat="42.7132583" lon="-8.50989"><ele>238.25</ele><time>2026-04-17T06:26:19.842Z</time></trkpt><trkpt lat="42.7133233" lon="-8.5100533"><ele>238.5</ele><time>2026-04-17T06:26:20.841Z</time></trkpt><trkpt lat="42.7134033" lon="-8.5102117"><ele>238.75</ele><time>2026-04-17T06:26:21.841Z</time></trkpt><trkpt lat="42.7134733" lon="-8.51036"><ele>239.0</ele><time>2026-04-17T06:26:22.842Z</time></trkpt><trkpt lat="42.7135567" lon="-8.5105383"><ele>240.25</ele><time>2026-04-17T06:26:23.842Z</time></trkpt><trkpt lat="42.7136417" lon="-8.5107033"><ele>241.5</ele><time>2026-04-17T06:26:24.841Z</time></trkpt><trkpt lat="42.7137233" lon="-8.5108617"><ele>242.75</ele><time>2026-04-17T06:26:25.842Z</time></trkpt><trkpt lat="42.7138067" lon="-8.5110167"><ele>244.0</ele><time>2026-04-17T06:26:26.842Z</time></trkpt><trkpt lat="42.7138967" lon="-8.5111767"><ele>244.0</ele><time>2026-04-17T06:26:27.842Z</time></trkpt><trkpt lat="42.713985" lon="-8.5113583"><ele>244.0</ele><time>2026-04-17T06:26:28.841Z</time></trkpt><trkpt lat="42.7140833" lon="-8.5115483"><ele>244.0</ele><time>2026-04-17T06:26:29.841Z</time></trkpt><trkpt lat="42.7141833" lon="-8.5117533"><ele>244.0</ele><time>2026-04-17T06:26:30.841Z</time></trkpt><trkpt lat="42.7142783" lon="-8.51195"><ele>244.0</ele><time>2026-04-17T06:26:31.842Z</time></trkpt><trkpt lat="42.7143667" lon="-8.512155"><ele>244.0</ele><time>2026-04-17T06:26:32.842Z</time></trkpt><trkpt lat="42.7144567" lon="-8.5123417"><ele>245.66666666666666</ele><time>2026-04-17T06:26:33.843Z</time></trkpt><trkpt lat="42.7145633" lon="-8.5125167"><ele>247.33333333333331</ele><time>2026-04-17T06:26:34.843Z</time></trkpt><trkpt lat="42.7146633" lon="-8.512695"><ele>249.0</ele><time>2026-04-17T06:26:35.843Z</time></trkpt><trkpt lat="42.7147733" lon="-8.5128767"><ele>248.66666666666669</ele><time>2026-04-17T06:26:36.843Z</time></trkpt><trkpt lat="42.7148667" lon="-8.5130617"><ele>248.33333333333334</ele><time>2026-04-17T06:26:37.843Z</time></trkpt><trkpt lat="42.7149617" lon="-8.5132317"><ele>248.0</ele><time>2026-04-17T06:26:38.842Z</time></trkpt><trkpt lat="42.7150617" lon="-8.5134183"><ele>248.0</ele><time>2026-04-17T06:26:39.843Z</time></trkpt><trkpt lat="42.7151717" lon="-8.513615"><ele>248.0</ele><time>2026-04-17T06:26:40.843Z</time></trkpt><trkpt lat="42.7152633" lon="-8.513805"><ele>248.0</ele><time>2026-04-17T06:26:41.843Z</time></trkpt><trkpt lat="42.7153567" lon="-8.5139967"><ele>247.66666666666669</ele><time>2026-04-17T06:26:42.843Z</time></trkpt><trkpt lat="42.7154533" lon="-8.5141917"><ele>247.33333333333331</ele><time>2026-04-17T06:26:43.842Z</time></trkpt><trkpt lat="42.7155467" lon="-8.5143833"><ele>247.0</ele><time>2026-04-17T06:26:44.843Z</time></trkpt><trkpt lat="42.71565" lon="-8.51458"><ele>246.0</ele><time>2026-04-17T06:26:45.842Z</time></trkpt><trkpt lat="42.71576" lon="-8.514785"><ele>245.0</ele><time>2026-04-17T06:26:46.843Z</time></trkpt><trkpt lat="42.7158733" lon="-8.51499"><ele>244.0</ele><time>2026-04-17T06:26:47.843Z</time></trkpt><trkpt lat="42.71599" lon="-8.515185"><ele>243.33333333333331</ele><time>2026-04-17T06:26:48.842Z</time></trkpt><trkpt lat="42.7161017" lon="-8.5153917"><ele>242.66666666666669</ele><time>2026-04-17T06:26:49.842Z</time></trkpt><trkpt lat="42.7162183" lon="-8.515595"><ele>242.0</ele><time>2026-04-17T06:26:50.842Z</time></trkpt><trkpt lat="42.71632" lon="-8.5157917"><ele>240.66666666666669</ele><time>2026-04-17T06:26:51.843Z</time></trkpt><trkpt lat="42.7164333" lon="-8.5159733"><ele>239.33333333333331</ele><time>2026-04-17T06:26:52.842Z</time></trkpt><trkpt lat="42.71655" lon="-8.51615"><ele>238.0</ele><time>2026-04-17T06:26:53.842Z</time></trkpt><trkpt lat="42.7166717" lon="-8.5163183"><ele>236.66666666666666</ele><time>2026-04-17T06:26:54.842Z</time></trkpt><trkpt lat="42.71681" lon="-8.516475"><ele>235.33333333333331</ele><time>2026-04-17T06:26:55.843Z</time></trkpt><trkpt lat="42.7169483" lon="-8.516625"><ele>234.0</ele><time>2026-04-17T06:26:56.842Z</time></trkpt><trkpt lat="42.71709" lon="-8.5167733"><ele>234.66666666666669</ele><time>2026-04-17T06:26:57.842Z</time></trkpt><trkpt lat="42.71724" lon="-8.516905"><ele>235.33333333333334</ele><time>2026-04-17T06:26:58.842Z</time></trkpt><trkpt lat="42.7173933" lon="-8.5170167"><ele>236.0</ele><time>2026-04-17T06:26:59.843Z</time></trkpt><trkpt lat="42.7175467" lon="-8.5171283"><ele>236.0</ele><time>2026-04-17T06:27:00.843Z</time></trkpt><trkpt lat="42.7177083" lon="-8.5172467"><ele>236.0</ele><time>2026-04-17T06:27:01.842Z</time></trkpt><trkpt lat="42.717865" lon="-8.5173583"><ele>236.0</ele><time>2026-04-17T06:27:02.843Z</time></trkpt><trkpt lat="42.7180233" lon="-8.5174767"><ele>233.0</ele><time>2026-04-17T06:27:03.843Z</time></trkpt><trkpt lat="42.718175" lon="-8.517585"><ele>230.0</ele><time>2026-04-17T06:27:04.842Z</time></trkpt><trkpt lat="42.7183333" lon="-8.5177"><ele>227.0</ele><time>2026-04-17T06:27:05.843Z</time></trkpt><trkpt lat="42.71849" lon="-8.5178367"><ele>225.0</ele><time>2026-04-17T06:27:06.842Z</time></trkpt><trkpt lat="42.7186383" lon="-8.5179633"><ele>223.0</ele><time>2026-04-17T06:27:07.843Z</time></trkpt><trkpt lat="42.7187967" lon="-8.51809"><ele>221.0</ele><time>2026-04-17T06:27:08.842Z</time></trkpt><trkpt lat="42.71895" lon="-8.5182283"><ele>221.0</ele><time>2026-04-17T06:27:09.842Z</time></trkpt><trkpt lat="42.7190967" lon="-8.518365"><ele>221.0</ele><time>2026-04-17T06:27:10.842Z</time></trkpt><trkpt lat="42.7192433" lon="-8.518505"><ele>221.0</ele><time>2026-04-17T06:27:11.843Z</time></trkpt><trkpt lat="42.719385" lon="-8.5186533"><ele>218.66666666666669</ele><time>2026-04-17T06:27:12.843Z</time></trkpt><trkpt lat="42.71953" lon="-8.518815"><ele>216.33333333333331</ele><time>2026-04-17T06:27:13.843Z</time></trkpt><trkpt lat="42.7196683" lon="-8.5189717"><ele>214.0</ele><time>2026-04-17T06:27:14.842Z</time></trkpt><trkpt lat="42.7198117" lon="-8.5191383"><ele>214.0</ele><time>2026-04-17T06:27:15.842Z</time></trkpt><trkpt lat="42.71995" lon="-8.51929"><ele>214.0</ele><time>2026-04-17T06:27:16.842Z</time></trkpt><trkpt lat="42.7200967" lon="-8.5194433"><ele>214.0</ele><time>2026-04-17T06:27:17.843Z</time></trkpt><trkpt lat="42.7202433" lon="-8.5195967"><ele>210.0</ele><time>2026-04-17T06:27:18.843Z</time></trkpt><trkpt lat="42.7203883" lon="-8.5197583"><ele>206.0</ele><time>2026-04-17T06:27:19.843Z</time></trkpt><trkpt lat="42.7205367" lon="-8.5198967"><ele>202.0</ele><time>2026-04-17T06:27:20.842Z</time></trkpt><trkpt lat="42.720685" lon="-8.5200483"><ele>202.0</ele><time>2026-04-17T06:27:21.842Z</time></trkpt><trkpt lat="42.720855" lon="-8.5201717"><ele>202.0</ele><time>2026-04-17T06:27:22.843Z</time></trkpt><trkpt lat="42.72102" lon="-8.5202617"><ele>202.0</ele><time>2026-04-17T06:27:23.843Z</time></trkpt><trkpt lat="42.721195" lon="-8.5203317"><ele>201.0</ele><time>2026-04-17T06:27:24.843Z</time></trkpt><trkpt lat="42.7213717" lon="-8.520395"><ele>200.0</ele><time>2026-04-17T06:27:25.843Z</time></trkpt><trkpt lat="42.7215483" lon="-8.5204483"><ele>199.0</ele><time>2026-04-17T06:27:26.843Z</time></trkpt><trkpt lat="42.7217233" lon="-8.5204767"><ele>193.0</ele><time>2026-04-17T06:27:27.843Z</time></trkpt><trkpt lat="42.721905" lon="-8.5204933"><ele>187.0</ele><time>2026-04-17T06:27:28.843Z</time></trkpt><trkpt lat="42.72209" lon="-8.5205033"><ele>181.0</ele><time>2026-04-17T06:27:29.842Z</time></trkpt><trkpt lat="42.722245" lon="-8.52049"><ele>181.0</ele><time>2026-04-17T06:27:30.842Z</time></trkpt><trkpt lat="42.722435" lon="-8.52048"><ele>181.0</ele><time>2026-04-17T06:27:31.843Z</time></trkpt><trkpt lat="42.7226183" lon="-8.52048"><ele>181.0</ele><time>2026-04-17T06:27:32.842Z</time></trkpt><trkpt lat="42.7227967" lon="-8.520485"><ele>178.33333333333334</ele><time>2026-04-17T06:27:33.842Z</time></trkpt><trkpt lat="42.72297" lon="-8.52051"><ele>175.66666666666666</ele><time>2026-04-17T06:27:34.843Z</time></trkpt><trkpt lat="42.7231533" lon="-8.5205583"><ele>173.0</ele><time>2026-04-17T06:27:35.843Z</time></trkpt><trkpt lat="42.72333" lon="-8.52061"><ele>173.0</ele><time>2026-04-17T06:27:36.842Z</time></trkpt><trkpt lat="42.7235067" lon="-8.5206833"><ele>173.0</ele><time>2026-04-17T06:27:37.842Z</time></trkpt><trkpt lat="42.7236767" lon="-8.52077"><ele>173.0</ele><time>2026-04-17T06:27:38.843Z</time></trkpt><trkpt lat="42.7238383" lon="-8.520875"><ele>171.66666666666666</ele><time>2026-04-17T06:27:39.842Z</time></trkpt><trkpt lat="42.7239917" lon="-8.5210117"><ele>170.33333333333334</ele><time>2026-04-17T06:27:40.843Z</time></trkpt><trkpt lat="42.7241417" lon="-8.521155"><ele>169.0</ele><time>2026-04-17T06:27:41.842Z</time></trkpt><trkpt lat="42.724295" lon="-8.5212933"><ele>163.33333333333334</ele><time>2026-04-17T06:27:42.843Z</time></trkpt><trkpt lat="42.7244417" lon="-8.5214383"><ele>157.66666666666666</ele><time>2026-04-17T06:27:43.843Z</time></trkpt><trkpt lat="42.7245883" lon="-8.521605"><ele>152.0</ele><time>2026-04-17T06:27:44.842Z</time></trkpt><trkpt lat="42.72474" lon="-8.521765"><ele>152.0</ele><time>2026-04-17T06:27:45.842Z</time></trkpt><trkpt lat="42.7248833" lon="-8.5219017"><ele>152.0</ele><time>2026-04-17T06:27:46.842Z</time></trkpt><trkpt lat="42.72502" lon="-8.5220283"><ele>152.0</ele><time>2026-04-17T06:27:47.842Z</time></trkpt><trkpt lat="42.7251567" lon="-8.522175"><ele>149.33333333333331</ele><time>2026-04-17T06:27:48.842Z</time></trkpt><trkpt lat="42.7252967" lon="-8.522325"><ele>146.66666666666666</ele><time>2026-04-17T06:27:49.842Z</time></trkpt><trkpt lat="42.72544" lon="-8.5224683"><ele>144.0</ele><time>2026-04-17T06:27:50.842Z</time></trkpt><trkpt lat="42.7255883" lon="-8.5226183"><ele>144.0</ele><time>2026-04-17T06:27:51.843Z</time></trkpt><trkpt lat="42.7257283" lon="-8.522775"><ele>144.0</ele><time>2026-04-17T06:27:52.842Z</time></trkpt><trkpt lat="42.72587" lon="-8.5229267"><ele>144.0</ele><time>2026-04-17T06:27:53.843Z</time></trkpt><trkpt lat="42.7260217" lon="-8.5230733"><ele>142.33333333333334</ele><time>2026-04-17T06:27:54.842Z</time></trkpt><trkpt lat="42.7261717" lon="-8.5232333"><ele>140.66666666666669</ele><time>2026-04-17T06:27:55.842Z</time></trkpt><trkpt lat="42.7263217" lon="-8.5233917"><ele>139.0</ele><time>2026-04-17T06:27:56.842Z</time></trkpt><trkpt lat="42.7264683" lon="-8.52356"><ele>139.0</ele><time>2026-04-17T06:27:57.842Z</time></trkpt><trkpt lat="42.726605" lon="-8.5237133"><ele>139.0</ele><time>2026-04-17T06:27:58.842Z</time></trkpt><trkpt lat="42.7267533" lon="-8.523855"><ele>139.0</ele><time>2026-04-17T06:27:59.843Z</time></trkpt><trkpt lat="42.7269" lon="-8.5240017"><ele>137.0</ele><time>2026-04-17T06:28:00.842Z</time></trkpt><trkpt lat="42.7270433" lon="-8.5241433"><ele>135.0</ele><time>2026-04-17T06:28:01.843Z</time></trkpt><trkpt lat="42.727185" lon="-8.52429"><ele>133.0</ele><time>2026-04-17T06:28:02.843Z</time></trkpt><trkpt lat="42.727325" lon="-8.52443"><ele>134.66666666666669</ele><time>2026-04-17T06:28:03.842Z</time></trkpt><trkpt lat="42.7274633" lon="-8.5245683"><ele>136.33333333333334</ele><time>2026-04-17T06:28:04.842Z</time></trkpt><trkpt lat="42.7276067" lon="-8.52471"><ele>138.0</ele><time>2026-04-17T06:28:05.842Z</time></trkpt><trkpt lat="42.7277467" lon="-8.524855"><ele>134.66666666666666</ele><time>2026-04-17T06:28:06.843Z</time></trkpt><trkpt lat="42.7278883" lon="-8.5250033"><ele>131.33333333333331</ele><time>2026-04-17T06:28:07.842Z</time></trkpt><trkpt lat="42.72803" lon="-8.5251517"><ele>128.0</ele><time>2026-04-17T06:28:08.842Z</time></trkpt><trkpt lat="42.7281733" lon="-8.5253"><ele>128.33333333333331</ele><time>2026-04-17T06:28:09.843Z</time></trkpt><trkpt lat="42.728315" lon="-8.5254383"><ele>128.66666666666666</ele><time>2026-04-17T06:28:10.843Z</time></trkpt><trkpt lat="42.728455" lon="-8.525575"><ele>129.0</ele><time>2026-04-17T06:28:11.843Z</time></trkpt><trkpt lat="42.7286" lon="-8.52571"><ele>127.33333333333334</ele><time>2026-04-17T06:28:12.843Z</time></trkpt><trkpt lat="42.7287467" lon="-8.5258583"><ele>125.66666666666667</ele><time>2026-04-17T06:28:13.842Z</time></trkpt><trkpt lat="42.7289" lon="-8.5260067"><ele>124.0</ele><time>2026-04-17T06:28:14.842Z</time></trkpt><trkpt lat="42.7290467" lon="-8.5261533"><ele>125.33333333333334</ele><time>2026-04-17T06:28:15.843Z</time></trkpt><trkpt lat="42.7291983" lon="-8.5263167"><ele>126.66666666666666</ele><time>2026-04-17T06:28:16.843Z</time></trkpt><trkpt lat="42.7293483" lon="-8.52647"><ele>128.0</ele><time>2026-04-17T06:28:17.843Z</time></trkpt><trkpt lat="42.7294983" lon="-8.5266233"><ele>124.66666666666666</ele><time>2026-04-17T06:28:18.843Z</time></trkpt><trkpt lat="42.7296467" lon="-8.5267767"><ele>121.33333333333334</ele><time>2026-04-17T06:28:19.843Z</time></trkpt><trkpt lat="42.729795" lon="-8.5269283"><ele>118.0</ele><time>2026-04-17T06:28:20.843Z</time></trkpt><trkpt lat="42.7299367" lon="-8.52709"><ele>118.0</ele><time>2026-04-17T06:28:21.843Z</time></trkpt><trkpt lat="42.73009" lon="-8.5272317"><ele>118.0</ele><time>2026-04-17T06:28:22.843Z</time></trkpt><trkpt lat="42.7302467" lon="-8.5273683"><ele>118.0</ele><time>2026-04-17T06:28:23.842Z</time></trkpt><trkpt lat="42.7303983" lon="-8.5274933"><ele>115.33333333333334</ele><time>2026-04-17T06:28:24.843Z</time></trkpt><trkpt lat="42.7305567" lon="-8.52759"><ele>112.66666666666666</ele><time>2026-04-17T06:28:25.843Z</time></trkpt><trkpt lat="42.730715" lon="-8.5276533"><ele>110.0</ele><time>2026-04-17T06:28:26.842Z</time></trkpt><trkpt lat="42.7308783" lon="-8.5276817"><ele>110.0</ele><time>2026-04-17T06:28:27.843Z</time></trkpt><trkpt lat="42.73105" lon="-8.527705"><ele>110.0</ele><time>2026-04-17T06:28:28.842Z</time></trkpt><trkpt lat="42.7312233" lon="-8.527705"><ele>110.0</ele><time>2026-04-17T06:28:29.842Z</time></trkpt><trkpt lat="42.7313983" lon="-8.52772"><ele>108.66666666666666</ele><time>2026-04-17T06:28:30.842Z</time></trkpt><trkpt lat="42.7315617" lon="-8.5277417"><ele>107.33333333333334</ele><time>2026-04-17T06:28:31.843Z</time></trkpt><trkpt lat="42.7317167" lon="-8.527765"><ele>106.0</ele><time>2026-04-17T06:28:32.843Z</time></trkpt><trkpt lat="42.7318733" lon="-8.5278067"><ele>105.0</ele><time>2026-04-17T06:28:33.843Z</time></trkpt><trkpt lat="42.732025" lon="-8.527865"><ele>104.0</ele><time>2026-04-17T06:28:34.842Z</time></trkpt><trkpt lat="42.73217" lon="-8.5279417"><ele>103.0</ele><time>2026-04-17T06:28:35.842Z</time></trkpt><trkpt lat="42.7323117" lon="-8.5280233"><ele>103.0</ele><time>2026-04-17T06:28:36.843Z</time></trkpt><trkpt lat="42.732455" lon="-8.5281233"><ele>103.0</ele><time>2026-04-17T06:28:37.843Z</time></trkpt><trkpt lat="42.7325983" lon="-8.528225"><ele>103.0</ele><time>2026-04-17T06:28:38.842Z</time></trkpt><trkpt lat="42.7327433" lon="-8.528335"><ele>100.33333333333334</ele><time>2026-04-17T06:28:39.842Z</time></trkpt><trkpt lat="42.7328867" lon="-8.5284433"><ele>97.66666666666667</ele><time>2026-04-17T06:28:40.842Z</time></trkpt><trkpt lat="42.7330333" lon="-8.5285517"><ele>95.0</ele><time>2026-04-17T06:28:41.843Z</time></trkpt><trkpt lat="42.7331783" lon="-8.52867"><ele>95.66666666666667</ele><time>2026-04-17T06:28:42.842Z</time></trkpt><trkpt lat="42.7333217" lon="-8.5287817"><ele>96.33333333333334</ele><time>2026-04-17T06:28:43.842Z</time></trkpt><trkpt lat="42.7334733" lon="-8.5288967"><ele>97.0</ele><time>2026-04-17T06:28:44.843Z</time></trkpt><trkpt lat="42.7336283" lon="-8.5290083"><ele>94.66666666666667</ele><time>2026-04-17T06:28:45.842Z</time></trkpt><trkpt lat="42.7337783" lon="-8.52912"><ele>92.33333333333334</ele><time>2026-04-17T06:28:46.843Z</time></trkpt><trkpt lat="42.733925" lon="-8.5292283"><ele>90.0</ele><time>2026-04-17T06:28:47.842Z</time></trkpt><trkpt lat="42.7340733" lon="-8.529335"><ele>90.0</ele><time>2026-04-17T06:28:48.842Z</time></trkpt><trkpt lat="42.73422" lon="-8.5294417"><ele>90.0</ele><time>2026-04-17T06:28:49.842Z</time></trkpt><trkpt lat="42.7343583" lon="-8.5295417"><ele>90.0</ele><time>2026-04-17T06:28:50.842Z</time></trkpt><trkpt lat="42.734495" lon="-8.5296683"><ele>87.33333333333333</ele><time>2026-04-17T06:28:51.842Z</time></trkpt><trkpt lat="42.7346183" lon="-8.5298117"><ele>84.66666666666666</ele><time>2026-04-17T06:28:52.842Z</time></trkpt><trkpt lat="42.73473" lon="-8.52998"><ele>82.0</ele><time>2026-04-17T06:28:53.842Z</time></trkpt><trkpt lat="42.734835" lon="-8.5301567"><ele>82.0</ele><time>2026-04-17T06:28:54.842Z</time></trkpt><trkpt lat="42.7349333" lon="-8.53034"><ele>82.0</ele><time>2026-04-17T06:28:55.842Z</time></trkpt><trkpt lat="42.73502" lon="-8.53053"><ele>82.0</ele><time>2026-04-17T06:28:56.842Z</time></trkpt><trkpt lat="42.7350967" lon="-8.5307233"><ele>80.66666666666666</ele><time>2026-04-17T06:28:57.842Z</time></trkpt><trkpt lat="42.7351633" lon="-8.5309233"><ele>79.33333333333333</ele><time>2026-04-17T06:28:58.843Z</time></trkpt><trkpt lat="42.73522" lon="-8.5311317"><ele>78.0</ele><time>2026-04-17T06:28:59.842Z</time></trkpt><trkpt lat="42.7352717" lon="-8.5313433"><ele>76.0</ele><time>2026-04-17T06:29:00.842Z</time></trkpt><trkpt lat="42.7353183" lon="-8.5315567"><ele>74.0</ele><time>2026-04-17T06:29:01.842Z</time></trkpt><trkpt lat="42.735365" lon="-8.5317767"><ele>72.0</ele><time>2026-04-17T06:29:02.842Z</time></trkpt><trkpt lat="42.7353983" lon="-8.5320017"><ele>71.0</ele><time>2026-04-17T06:29:03.842Z</time></trkpt><trkpt lat="42.735445" lon="-8.5322317"><ele>70.0</ele><time>2026-04-17T06:29:04.843Z</time></trkpt><trkpt lat="42.735495" lon="-8.5324567"><ele>69.0</ele><time>2026-04-17T06:29:05.842Z</time></trkpt><trkpt lat="42.7355417" lon="-8.5326783"><ele>69.33333333333333</ele><time>2026-04-17T06:29:06.842Z</time></trkpt><trkpt lat="42.735575" lon="-8.5329167"><ele>69.66666666666666</ele><time>2026-04-17T06:29:07.842Z</time></trkpt><trkpt lat="42.7356033" lon="-8.5331533"><ele>70.0</ele><time>2026-04-17T06:29:08.842Z</time></trkpt><trkpt lat="42.73562" lon="-8.53338"><ele>70.0</ele><time>2026-04-17T06:29:09.843Z</time></trkpt><trkpt lat="42.735625" lon="-8.5336033"><ele>70.0</ele><time>2026-04-17T06:29:10.843Z</time></trkpt><trkpt lat="42.7356367" lon="-8.5338333"><ele>70.0</ele><time>2026-04-17T06:29:11.843Z</time></trkpt><trkpt lat="42.7356517" lon="-8.53407"><ele>68.66666666666666</ele><time>2026-04-17T06:29:12.842Z</time></trkpt><trkpt lat="42.73567" lon="-8.5342967"><ele>67.33333333333333</ele><time>2026-04-17T06:29:13.842Z</time></trkpt><trkpt lat="42.735685" lon="-8.5345167"><ele>66.0</ele><time>2026-04-17T06:29:14.842Z</time></trkpt><trkpt lat="42.7357067" lon="-8.5347267"><ele>64.66666666666667</ele><time>2026-04-17T06:29:15.842Z</time></trkpt><trkpt lat="42.7357367" lon="-8.534945"><ele>63.333333333333336</ele><time>2026-04-17T06:29:16.842Z</time></trkpt><trkpt lat="42.73577" lon="-8.5351683"><ele>62.0</ele><time>2026-04-17T06:29:17.843Z</time></trkpt><trkpt lat="42.7358217" lon="-8.53537"><ele>61.0</ele><time>2026-04-17T06:29:18.843Z</time></trkpt><trkpt lat="42.7358983" lon="-8.5355683"><ele>60.0</ele><time>2026-04-17T06:29:19.843Z</time></trkpt><trkpt lat="42.7359667" lon="-8.5357617"><ele>59.0</ele><time>2026-04-17T06:29:20.842Z</time></trkpt><trkpt lat="42.7360583" lon="-8.5359283"><ele>58.66666666666667</ele><time>2026-04-17T06:29:21.842Z</time></trkpt><trkpt lat="42.73617" lon="-8.5360867"><ele>58.33333333333333</ele><time>2026-04-17T06:29:22.842Z</time></trkpt><trkpt lat="42.7362833" lon="-8.5362583"><ele>58.0</ele><time>2026-04-17T06:29:23.843Z</time></trkpt><trkpt lat="42.736395" lon="-8.53643"><ele>58.0</ele><time>2026-04-17T06:29:24.842Z</time></trkpt><trkpt lat="42.7364983" lon="-8.5365983"><ele>58.0</ele><time>2026-04-17T06:29:25.843Z</time></trkpt><trkpt lat="42.7366033" lon="-8.5367717"><ele>58.0</ele><time>2026-04-17T06:29:26.843Z</time></trkpt><trkpt lat="42.7367117" lon="-8.5369367"><ele>58.0</ele><time>2026-04-17T06:29:27.842Z</time></trkpt><trkpt lat="42.7368233" lon="-8.5371067"><ele>58.0</ele><time>2026-04-17T06:29:28.843Z</time></trkpt><trkpt lat="42.736935" lon="-8.5372767"><ele>58.0</ele><time>2026-04-17T06:29:29.843Z</time></trkpt><trkpt lat="42.7370517" lon="-8.53744"><ele>58.0</ele><time>2026-04-17T06:29:30.843Z</time></trkpt><trkpt lat="42.7371733" lon="-8.5376017"><ele>58.0</ele><time>2026-04-17T06:29:31.843Z</time></trkpt><trkpt lat="42.7372967" lon="-8.5377583"><ele>58.0</ele><time>2026-04-17T06:29:32.842Z</time></trkpt><trkpt lat="42.7374283" lon="-8.5379167"><ele>58.33333333333333</ele><time>2026-04-17T06:29:33.843Z</time></trkpt><trkpt lat="42.73756" lon="-8.538065"><ele>58.66666666666667</ele><time>2026-04-17T06:29:34.842Z</time></trkpt><trkpt lat="42.737695" lon="-8.5382183"><ele>59.0</ele><time>2026-04-17T06:29:35.842Z</time></trkpt><trkpt lat="42.7378183" lon="-8.5383683"><ele>59.333333333333336</ele><time>2026-04-17T06:29:36.843Z</time></trkpt><trkpt lat="42.7379533" lon="-8.538515"><ele>59.66666666666667</ele><time>2026-04-17T06:29:37.843Z</time></trkpt><trkpt lat="42.7380867" lon="-8.5386283"><ele>60.0</ele><time>2026-04-17T06:29:38.843Z</time></trkpt><trkpt lat="42.7382383" lon="-8.5387483"><ele>62.66666666666667</ele><time>2026-04-17T06:29:39.842Z</time></trkpt><trkpt lat="42.7383933" lon="-8.538845"><ele>65.33333333333334</ele><time>2026-04-17T06:29:40.842Z</time></trkpt><trkpt lat="42.738555" lon="-8.5389383"><ele>68.0</ele><time>2026-04-17T06:29:41.843Z</time></trkpt><trkpt lat="42.7387267" lon="-8.5390383"><ele>70.33333333333334</ele><time>2026-04-17T06:29:42.843Z</time></trkpt><trkpt lat="42.738905" lon="-8.5391417"><ele>72.66666666666667</ele><time>2026-04-17T06:29:43.842Z</time></trkpt><trkpt lat="42.7390717" lon="-8.5392433"><ele>75.0</ele><time>2026-04-17T06:29:44.843Z</time></trkpt><trkpt lat="42.739235" lon="-8.5393633"><ele>75.0</ele><time>2026-04-17T06:29:45.842Z</time></trkpt><trkpt lat="42.739395" lon="-8.539505"><ele>75.0</ele><time>2026-04-17T06:29:46.842Z</time></trkpt><trkpt lat="42.7395517" lon="-8.5396633"><ele>75.0</ele><time>2026-04-17T06:29:47.842Z</time></trkpt><trkpt lat="42.7396983" lon="-8.5398217"><ele>76.33333333333333</ele><time>2026-04-17T06:29:48.843Z</time></trkpt><trkpt lat="42.7398417" lon="-8.539995"><ele>77.66666666666666</ele><time>2026-04-17T06:29:49.843Z</time></trkpt><trkpt lat="42.7399717" lon="-8.54016"><ele>79.0</ele><time>2026-04-17T06:29:50.842Z</time></trkpt><trkpt lat="42.740095" lon="-8.5403283"><ele>78.66666666666666</ele><time>2026-04-17T06:29:51.842Z</time></trkpt><trkpt lat="42.7402167" lon="-8.54051"><ele>78.33333333333333</ele><time>2026-04-17T06:29:52.843Z</time></trkpt><trkpt lat="42.7403517" lon="-8.5407"><ele>78.0</ele><time>2026-04-17T06:29:53.843Z</time></trkpt><trkpt lat="42.7404667" lon="-8.54089"><ele>78.0</ele><time>2026-04-17T06:29:54.842Z</time></trkpt><trkpt lat="42.7406" lon="-8.5410783"><ele>78.0</ele><time>2026-04-17T06:29:55.842Z</time></trkpt><trkpt lat="42.7407333" lon="-8.5412733"><ele>78.0</ele><time>2026-04-17T06:29:56.843Z</time></trkpt><trkpt lat="42.74087" lon="-8.5414717"><ele>77.33333333333333</ele><time>2026-04-17T06:29:57.843Z</time></trkpt><trkpt lat="42.7410117" lon="-8.5416733"><ele>76.66666666666666</ele><time>2026-04-17T06:29:58.842Z</time></trkpt><trkpt lat="42.7411533" lon="-8.541865"><ele>76.0</ele><time>2026-04-17T06:29:59.842Z</time></trkpt><trkpt lat="42.7412883" lon="-8.5420583"><ele>74.66666666666666</ele><time>2026-04-17T06:30:00.843Z</time></trkpt><trkpt lat="42.7414217" lon="-8.542245"><ele>73.33333333333333</ele><time>2026-04-17T06:30:01.842Z</time></trkpt><trkpt lat="42.7415583" lon="-8.542445"><ele>72.0</ele><time>2026-04-17T06:30:02.842Z</time></trkpt><trkpt lat="42.7416867" lon="-8.542625"><ele>72.0</ele><time>2026-04-17T06:30:03.842Z</time></trkpt><trkpt lat="42.7418133" lon="-8.5428017"><ele>72.0</ele><time>2026-04-17T06:30:04.843Z</time></trkpt><trkpt lat="42.741955" lon="-8.5429717"><ele>72.0</ele><time>2026-04-17T06:30:05.842Z</time></trkpt><trkpt lat="42.7420967" lon="-8.5431167"><ele>74.0</ele><time>2026-04-17T06:30:06.842Z</time></trkpt><trkpt lat="42.7422433" lon="-8.543255"><ele>76.0</ele><time>2026-04-17T06:30:07.842Z</time></trkpt><trkpt lat="42.7424" lon="-8.543375"><ele>78.0</ele><time>2026-04-17T06:30:08.842Z</time></trkpt><trkpt lat="42.74257" lon="-8.5434983"><ele>77.66666666666667</ele><time>2026-04-17T06:30:09.842Z</time></trkpt><trkpt lat="42.74273" lon="-8.5435933"><ele>77.33333333333334</ele><time>2026-04-17T06:30:10.843Z</time></trkpt><trkpt lat="42.7428933" lon="-8.5436833"><ele>77.0</ele><time>2026-04-17T06:30:11.842Z</time></trkpt><trkpt lat="42.743055" lon="-8.543765"><ele>77.0</ele><time>2026-04-17T06:30:12.843Z</time></trkpt><trkpt lat="42.7432233" lon="-8.54384"><ele>77.0</ele><time>2026-04-17T06:30:13.843Z</time></trkpt><trkpt lat="42.74339" lon="-8.5439183"><ele>77.0</ele><time>2026-04-17T06:30:14.843Z</time></trkpt><trkpt lat="42.743565" lon="-8.54397"><ele>77.0</ele><time>2026-04-17T06:30:15.842Z</time></trkpt><trkpt lat="42.7437433" lon="-8.5440083"><ele>77.0</ele><time>2026-04-17T06:30:16.842Z</time></trkpt><trkpt lat="42.74391" lon="-8.5440367"><ele>77.0</ele><time>2026-04-17T06:30:17.842Z</time></trkpt><trkpt lat="42.7440883" lon="-8.5440567"><ele>77.0</ele><time>2026-04-17T06:30:18.843Z</time></trkpt><trkpt lat="42.744265" lon="-8.5440783"><ele>77.0</ele><time>2026-04-17T06:30:19.843Z</time></trkpt><trkpt lat="42.7444417" lon="-8.5440967"><ele>77.0</ele><time>2026-04-17T06:30:20.843Z</time></trkpt><trkpt lat="42.7446267" lon="-8.5441133"><ele>76.0</ele><time>2026-04-17T06:30:21.842Z</time></trkpt><trkpt lat="42.7448067" lon="-8.544135"><ele>75.0</ele><time>2026-04-17T06:30:22.842Z</time></trkpt><trkpt lat="42.7449783" lon="-8.5441517"><ele>74.0</ele><time>2026-04-17T06:30:23.844Z</time></trkpt><trkpt lat="42.7451417" lon="-8.5441733"><ele>74.33333333333334</ele><time>2026-04-17T06:30:24.843Z</time></trkpt><trkpt lat="42.745305" lon="-8.544185"><ele>74.66666666666667</ele><time>2026-04-17T06:30:25.843Z</time></trkpt><trkpt lat="42.7454783" lon="-8.54422"><ele>75.0</ele><time>2026-04-17T06:30:26.843Z</time></trkpt><trkpt lat="42.7456333" lon="-8.5442517"><ele>75.0</ele><time>2026-04-17T06:30:27.843Z</time></trkpt><trkpt lat="42.74578" lon="-8.5442717"><ele>75.0</ele><time>2026-04-17T06:30:28.844Z</time></trkpt><trkpt lat="42.74592" lon="-8.54429"><ele>75.0</ele><time>2026-04-17T06:30:29.844Z</time></trkpt><trkpt lat="42.7460617" lon="-8.544305"><ele>75.0</ele><time>2026-04-17T06:30:30.843Z</time></trkpt><trkpt lat="42.746205" lon="-8.544325"><ele>74.5</ele><time>2026-04-17T06:30:31.843Z</time></trkpt><trkpt lat="42.7463417" lon="-8.5443617"><ele>74.0</ele><time>2026-04-17T06:30:32.843Z</time></trkpt><trkpt lat="42.7464767" lon="-8.5443867"><ele>73.5</ele><time>2026-04-17T06:30:33.844Z</time></trkpt><trkpt lat="42.7465967" lon="-8.5443983"><ele>73.0</ele><time>2026-04-17T06:30:34.843Z</time></trkpt><trkpt lat="42.7467283" lon="-8.5444117"><ele>73.0</ele><time>2026-04-17T06:30:35.843Z</time></trkpt><trkpt lat="42.74687" lon="-8.5444217"><ele>73.0</ele><time>2026-04-17T06:30:36.843Z</time></trkpt><trkpt lat="42.7470117" lon="-8.5444333"><ele>73.0</ele><time>2026-04-17T06:30:37.844Z</time></trkpt><trkpt lat="42.74717" lon="-8.5444717"><ele>73.0</ele><time>2026-04-17T06:30:38.844Z</time></trkpt><trkpt lat="42.7473267" lon="-8.544515"><ele>73.66666666666666</ele><time>2026-04-17T06:30:39.844Z</time></trkpt><trkpt lat="42.7474883" lon="-8.5445633"><ele>74.33333333333333</ele><time>2026-04-17T06:30:40.844Z</time></trkpt><trkpt lat="42.7476483" lon="-8.5446183"><ele>75.0</ele><time>2026-04-17T06:30:41.844Z</time></trkpt><trkpt lat="42.74781" lon="-8.5446883"><ele>73.33333333333333</ele><time>2026-04-17T06:30:42.843Z</time></trkpt><trkpt lat="42.7479683" lon="-8.544775"><ele>71.66666666666666</ele><time>2026-04-17T06:30:43.843Z</time></trkpt><trkpt lat="42.74814" lon="-8.5448817"><ele>70.0</ele><time>2026-04-17T06:30:44.843Z</time></trkpt><trkpt lat="42.7483067" lon="-8.5449967"><ele>70.0</ele><time>2026-04-17T06:30:45.843Z</time></trkpt><trkpt lat="42.7484617" lon="-8.5450883"><ele>70.0</ele><time>2026-04-17T06:30:46.844Z</time></trkpt><trkpt lat="42.748615" lon="-8.545205"><ele>70.0</ele><time>2026-04-17T06:30:47.843Z</time></trkpt><trkpt lat="42.7487633" lon="-8.5453367"><ele>69.33333333333333</ele><time>2026-04-17T06:30:48.844Z</time></trkpt><trkpt lat="42.7488967" lon="-8.5454617"><ele>68.66666666666667</ele><time>2026-04-17T06:30:49.844Z</time></trkpt><trkpt lat="42.7490267" lon="-8.545615"><ele>68.0</ele><time>2026-04-17T06:30:50.844Z</time></trkpt><trkpt lat="42.74916" lon="-8.5457733"><ele>68.0</ele><time>2026-04-17T06:30:51.844Z</time></trkpt><trkpt lat="42.7492833" lon="-8.5459317"><ele>68.0</ele><time>2026-04-17T06:30:52.844Z</time></trkpt><trkpt lat="42.749405" lon="-8.5460983"><ele>68.0</ele><time>2026-04-17T06:30:53.844Z</time></trkpt><trkpt lat="42.7495217" lon="-8.54628"><ele>67.0</ele><time>2026-04-17T06:30:54.843Z</time></trkpt><trkpt lat="42.7496333" lon="-8.5464583"><ele>66.0</ele><time>2026-04-17T06:30:55.844Z</time></trkpt><trkpt lat="42.7497617" lon="-8.5466367"><ele>65.0</ele><time>2026-04-17T06:30:56.844Z</time></trkpt><trkpt lat="42.749895" lon="-8.546815"><ele>65.0</ele><time>2026-04-17T06:30:57.844Z</time></trkpt><trkpt lat="42.7500167" lon="-8.54699"><ele>65.0</ele><time>2026-04-17T06:30:58.844Z</time></trkpt><trkpt lat="42.75013" lon="-8.5471633"><ele>65.0</ele><time>2026-04-17T06:30:59.843Z</time></trkpt><trkpt lat="42.7502417" lon="-8.54734"><ele>60.66666666666667</ele><time>2026-04-17T06:31:00.843Z</time></trkpt><trkpt lat="42.7503517" lon="-8.5475183"><ele>56.33333333333333</ele><time>2026-04-17T06:31:01.844Z</time></trkpt><trkpt lat="42.7504567" lon="-8.5476933"><ele>52.0</ele><time>2026-04-17T06:31:02.843Z</time></trkpt><trkpt lat="42.7505617" lon="-8.5478667"><ele>52.666666666666664</ele><time>2026-04-17T06:31:03.843Z</time></trkpt><trkpt lat="42.7506583" lon="-8.5480417"><ele>53.33333333333333</ele><time>2026-04-17T06:31:04.843Z</time></trkpt><trkpt lat="42.7507567" lon="-8.5482067"><ele>54.0</ele><time>2026-04-17T06:31:05.844Z</time></trkpt><trkpt lat="42.7508617" lon="-8.548365"><ele>54.0</ele><time>2026-04-17T06:31:06.844Z</time></trkpt><trkpt lat="42.7509633" lon="-8.5485067"><ele>54.0</ele><time>2026-04-17T06:31:07.843Z</time></trkpt><trkpt lat="42.75107" lon="-8.5486717"><ele>54.0</ele><time>2026-04-17T06:31:08.843Z</time></trkpt><trkpt lat="42.75118" lon="-8.5488367"><ele>53.66666666666667</ele><time>2026-04-17T06:31:09.844Z</time></trkpt><trkpt lat="42.7512933" lon="-8.5490083"><ele>53.333333333333336</ele><time>2026-04-17T06:31:10.843Z</time></trkpt><trkpt lat="42.751405" lon="-8.54917"><ele>53.0</ele><time>2026-04-17T06:31:11.843Z</time></trkpt><trkpt lat="42.751515" lon="-8.54933"><ele>53.0</ele><time>2026-04-17T06:31:12.844Z</time></trkpt><trkpt lat="42.751625" lon="-8.5494933"><ele>53.0</ele><time>2026-04-17T06:31:13.844Z</time></trkpt><trkpt lat="42.7517383" lon="-8.5496567"><ele>53.0</ele><time>2026-04-17T06:31:14.843Z</time></trkpt><trkpt lat="42.751855" lon="-8.5498183"><ele>50.66666666666667</ele><time>2026-04-17T06:31:15.843Z</time></trkpt><trkpt lat="42.75198" lon="-8.54997"><ele>48.333333333333336</ele><time>2026-04-17T06:31:16.843Z</time></trkpt><trkpt lat="42.7521133" lon="-8.5501133"><ele>46.0</ele><time>2026-04-17T06:31:17.843Z</time></trkpt><trkpt lat="42.75225" lon="-8.5502467"><ele>49.66666666666667</ele><time>2026-04-17T06:31:18.844Z</time></trkpt><trkpt lat="42.7523883" lon="-8.550375"><ele>53.333333333333336</ele><time>2026-04-17T06:31:19.843Z</time></trkpt><trkpt lat="42.7525317" lon="-8.5504933"><ele>57.0</ele><time>2026-04-17T06:31:20.843Z</time></trkpt><trkpt lat="42.752675" lon="-8.5506033"><ele>54.33333333333333</ele><time>2026-04-17T06:31:21.844Z</time></trkpt><trkpt lat="42.7528167" lon="-8.550705"><ele>51.666666666666664</ele><time>2026-04-17T06:31:22.843Z</time></trkpt><trkpt lat="42.7529583" lon="-8.5507967"><ele>49.0</ele><time>2026-04-17T06:31:23.844Z</time></trkpt><trkpt lat="42.753115" lon="-8.5508767"><ele>49.0</ele><time>2026-04-17T06:31:24.844Z</time></trkpt><trkpt lat="42.75328" lon="-8.5509533"><ele>49.0</ele><time>2026-04-17T06:31:25.844Z</time></trkpt><trkpt lat="42.7534333" lon="-8.551005"><ele>49.0</ele><time>2026-04-17T06:31:26.844Z</time></trkpt><trkpt lat="42.753585" lon="-8.5510467"><ele>47.0</ele><time>2026-04-17T06:31:27.843Z</time></trkpt><trkpt lat="42.7537383" lon="-8.5510817"><ele>45.0</ele><time>2026-04-17T06:31:28.843Z</time></trkpt><trkpt lat="42.75389" lon="-8.551105"><ele>43.0</ele><time>2026-04-17T06:31:29.844Z</time></trkpt><trkpt lat="42.7540467" lon="-8.5511267"><ele>43.0</ele><time>2026-04-17T06:31:30.843Z</time></trkpt><trkpt lat="42.7542033" lon="-8.5511367"><ele>43.0</ele><time>2026-04-17T06:31:31.844Z</time></trkpt><trkpt lat="42.7543583" lon="-8.5511433"><ele>43.0</ele><time>2026-04-17T06:31:32.844Z</time></trkpt><trkpt lat="42.7545067" lon="-8.5511567"><ele>43.25</ele><time>2026-04-17T06:31:33.843Z</time></trkpt><trkpt lat="42.7546517" lon="-8.5511667"><ele>43.5</ele><time>2026-04-17T06:31:34.843Z</time></trkpt><trkpt lat="42.7547867" lon="-8.55118"><ele>43.75</ele><time>2026-04-17T06:31:35.843Z</time></trkpt><trkpt lat="42.754925" lon="-8.5512033"><ele>44.0</ele><time>2026-04-17T06:31:36.843Z</time></trkpt><trkpt lat="42.75507" lon="-8.5512217"><ele>46.5</ele><time>2026-04-17T06:31:37.844Z</time></trkpt><trkpt lat="42.7552083" lon="-8.551235"><ele>49.0</ele><time>2026-04-17T06:31:38.844Z</time></trkpt><trkpt lat="42.7553483" lon="-8.5512467"><ele>51.5</ele><time>2026-04-17T06:31:39.843Z</time></trkpt><trkpt lat="42.7554983" lon="-8.5512467"><ele>54.0</ele><time>2026-04-17T06:31:40.843Z</time></trkpt><trkpt lat="42.755655" lon="-8.551245"><ele>54.0</ele><time>2026-04-17T06:31:41.844Z</time></trkpt><trkpt lat="42.7558083" lon="-8.551235"><ele>54.0</ele><time>2026-04-17T06:31:42.844Z</time></trkpt><trkpt lat="42.7559717" lon="-8.5512117"><ele>54.0</ele><time>2026-04-17T06:31:43.843Z</time></trkpt><trkpt lat="42.7561367" lon="-8.5511867"><ele>48.333333333333336</ele><time>2026-04-17T06:31:44.843Z</time></trkpt><trkpt lat="42.756305" lon="-8.5511483"><ele>42.66666666666667</ele><time>2026-04-17T06:31:45.844Z</time></trkpt><trkpt lat="42.7564667" lon="-8.55111"><ele>37.0</ele><time>2026-04-17T06:31:46.843Z</time></trkpt><trkpt lat="42.7566317" lon="-8.5510533"><ele>37.0</ele><time>2026-04-17T06:31:47.844Z</time></trkpt><trkpt lat="42.7567867" lon="-8.550975"><ele>37.0</ele><time>2026-04-17T06:31:48.844Z</time></trkpt><trkpt lat="42.7569467" lon="-8.5509017"><ele>37.0</ele><time>2026-04-17T06:31:49.843Z</time></trkpt><trkpt lat="42.757105" lon="-8.5508217"><ele>37.0</ele><time>2026-04-17T06:31:50.843Z</time></trkpt><trkpt lat="42.757255" lon="-8.5507217"><ele>37.0</ele><time>2026-04-17T06:31:51.843Z</time></trkpt><trkpt lat="42.7573967" lon="-8.55062"><ele>37.0</ele><time>2026-04-17T06:31:52.844Z</time></trkpt><trkpt lat="42.75754" lon="-8.5505133"><ele>37.0</ele><time>2026-04-17T06:31:53.844Z</time></trkpt><trkpt lat="42.7576767" lon="-8.5504017"><ele>37.0</ele><time>2026-04-17T06:31:54.843Z</time></trkpt><trkpt lat="42.7578033" lon="-8.55028"><ele>37.0</ele><time>2026-04-17T06:31:55.844Z</time></trkpt><trkpt lat="42.7579333" lon="-8.550145"><ele>35.66666666666667</ele><time>2026-04-17T06:31:56.844Z</time></trkpt><trkpt lat="42.758045" lon="-8.5500033"><ele>34.333333333333336</ele><time>2026-04-17T06:31:57.843Z</time></trkpt><trkpt lat="42.7581583" lon="-8.54986"><ele>33.0</ele><time>2026-04-17T06:31:58.843Z</time></trkpt><trkpt lat="42.758275" lon="-8.549725"><ele>33.0</ele><time>2026-04-17T06:31:59.843Z</time></trkpt><trkpt lat="42.758375" lon="-8.5495883"><ele>33.0</ele><time>2026-04-17T06:32:00.844Z</time></trkpt><trkpt lat="42.7584533" lon="-8.5494483"><ele>33.0</ele><time>2026-04-17T06:32:01.844Z</time></trkpt><trkpt lat="42.75854" lon="-8.5492983"><ele>33.0</ele><time>2026-04-17T06:32:02.844Z</time></trkpt><trkpt lat="42.7586217" lon="-8.54915"><ele>31.75</ele><time>2026-04-17T06:32:03.844Z</time></trkpt><trkpt lat="42.7587083" lon="-8.5489883"><ele>30.5</ele><time>2026-04-17T06:32:04.844Z</time></trkpt><trkpt lat="42.75879" lon="-8.5488217"><ele>29.25</ele><time>2026-04-17T06:32:05.844Z</time></trkpt><trkpt lat="42.75887" lon="-8.5486617"><ele>28.0</ele><time>2026-04-17T06:32:06.843Z</time></trkpt><trkpt lat="42.75895" lon="-8.5485117"><ele>27.75</ele><time>2026-04-17T06:32:07.843Z</time></trkpt><trkpt lat="42.7590267" lon="-8.5483733"><ele>27.5</ele><time>2026-04-17T06:32:08.843Z</time></trkpt><trkpt lat="42.759095" lon="-8.5482317"><ele>27.25</ele><time>2026-04-17T06:32:09.843Z</time></trkpt><trkpt lat="42.7591633" lon="-8.548075"><ele>27.0</ele><time>2026-04-17T06:32:10.843Z</time></trkpt><trkpt lat="42.7592383" lon="-8.54793"><ele>27.0</ele><time>2026-04-17T06:32:11.844Z</time></trkpt><trkpt lat="42.759325" lon="-8.5478083"><ele>27.0</ele><time>2026-04-17T06:32:12.844Z</time></trkpt><trkpt lat="42.7594167" lon="-8.5477133"><ele>27.0</ele><time>2026-04-17T06:32:13.843Z</time></trkpt><trkpt lat="42.7595133" lon="-8.5476067"><ele>27.0</ele><time>2026-04-17T06:32:14.844Z</time></trkpt><trkpt lat="42.7596167" lon="-8.5475033"><ele>27.0</ele><time>2026-04-17T06:32:15.843Z</time></trkpt><trkpt lat="42.7597217" lon="-8.5474217"><ele>27.0</ele><time>2026-04-17T06:32:16.844Z</time></trkpt><trkpt lat="42.7598317" lon="-8.54735"><ele>27.0</ele><time>2026-04-17T06:32:17.843Z</time></trkpt><trkpt lat="42.7599433" lon="-8.547285"><ele>27.0</ele><time>2026-04-17T06:32:18.843Z</time></trkpt><trkpt lat="42.760055" lon="-8.5472283"><ele>27.0</ele><time>2026-04-17T06:32:19.843Z</time></trkpt><trkpt lat="42.7601667" lon="-8.5471883"><ele>27.0</ele><time>2026-04-17T06:32:20.843Z</time></trkpt><trkpt lat="42.76028" lon="-8.5471583"><ele>27.0</ele><time>2026-04-17T06:32:21.843Z</time></trkpt><trkpt lat="42.7603967" lon="-8.5471317"><ele>27.0</ele><time>2026-04-17T06:32:22.844Z</time></trkpt><trkpt lat="42.76051" lon="-8.54711"><ele>27.400000000000002</ele><time>2026-04-17T06:32:23.843Z</time></trkpt><trkpt lat="42.7606233" lon="-8.54709"><ele>27.800000000000004</ele><time>2026-04-17T06:32:24.844Z</time></trkpt><trkpt lat="42.7607317" lon="-8.5470733"><ele>28.2</ele><time>2026-04-17T06:32:25.844Z</time></trkpt><trkpt lat="42.7608417" lon="-8.5470533"><ele>28.6</ele><time>2026-04-17T06:32:26.844Z</time></trkpt><trkpt lat="42.7609517" lon="-8.5470317"><ele>29.0</ele><time>2026-04-17T06:32:27.844Z</time></trkpt><trkpt lat="42.76106" lon="-8.5470133"><ele>30.2</ele><time>2026-04-17T06:32:28.844Z</time></trkpt><trkpt lat="42.7611517" lon="-8.5470083"><ele>31.4</ele><time>2026-04-17T06:32:29.843Z</time></trkpt><trkpt lat="42.7612533" lon="-8.546995"><ele>32.6</ele><time>2026-04-17T06:32:30.843Z</time></trkpt><trkpt lat="42.7613467" lon="-8.5469717"><ele>33.8</ele><time>2026-04-17T06:32:31.844Z</time></trkpt><trkpt lat="42.7614333" lon="-8.5469567"><ele>35.0</ele><time>2026-04-17T06:32:32.843Z</time></trkpt><trkpt lat="42.7615117" lon="-8.5469417"><ele>35.0</ele><time>2026-04-17T06:32:33.844Z</time></trkpt><trkpt lat="42.7615833" lon="-8.54693"><ele>35.0</ele><time>2026-04-17T06:32:34.843Z</time></trkpt><trkpt lat="42.7616983" lon="-8.54691"><ele>35.0</ele><time>2026-04-17T06:32:36.843Z</time></trkpt><trkpt lat="42.761785" lon="-8.5469017"><ele>35.0</ele><time>2026-04-17T06:32:38.844Z</time></trkpt><trkpt lat="42.7618517" lon="-8.54688"><ele>35.0</ele><time>2026-04-17T06:32:40.843Z</time></trkpt><trkpt lat="42.76192" lon="-8.5468733"><ele>35.0</ele><time>2026-04-17T06:32:43.843Z</time></trkpt><trkpt lat="42.76198" lon="-8.546905"><ele>35.8</ele><time>2026-04-17T06:32:48.844Z</time></trkpt><trkpt lat="42.7619767" lon="-8.5470633"><ele>36.6</ele><time>2026-04-17T06:32:50.843Z</time></trkpt><trkpt lat="42.761975" lon="-8.5471883"><ele>37.4</ele><time>2026-04-17T06:32:51.843Z</time></trkpt><trkpt lat="42.7619733" lon="-8.5473183"><ele>38.2</ele><time>2026-04-17T06:32:52.843Z</time></trkpt><trkpt lat="42.7619733" lon="-8.547465"><ele>39.0</ele><time>2026-04-17T06:32:53.843Z</time></trkpt><trkpt lat="42.7619783" lon="-8.5476167"><ele>39.0</ele><time>2026-04-17T06:32:54.844Z</time></trkpt><trkpt lat="42.7619867" lon="-8.547795"><ele>39.0</ele><time>2026-04-17T06:32:55.843Z</time></trkpt><trkpt lat="42.7619817" lon="-8.5479417"><ele>39.0</ele><time>2026-04-17T06:32:56.843Z</time></trkpt><trkpt lat="42.761975" lon="-8.5480883"><ele>39.0</ele><time>2026-04-17T06:32:57.844Z</time></trkpt><trkpt lat="42.76197" lon="-8.5482433"><ele>39.0</ele><time>2026-04-17T06:32:58.843Z</time></trkpt><trkpt lat="42.7619633" lon="-8.5484117"><ele>39.0</ele><time>2026-04-17T06:32:59.844Z</time></trkpt><trkpt lat="42.7619633" lon="-8.5485783"><ele>39.0</ele><time>2026-04-17T06:33:00.844Z</time></trkpt><trkpt lat="42.761965" lon="-8.5487533"><ele>39.0</ele><time>2026-04-17T06:33:01.844Z</time></trkpt><trkpt lat="42.76197" lon="-8.548915"><ele>40.0</ele><time>2026-04-17T06:33:02.844Z</time></trkpt><trkpt lat="42.7619683" lon="-8.5490733"><ele>41.0</ele><time>2026-04-17T06:33:03.844Z</time></trkpt><trkpt lat="42.7619817" lon="-8.549225"><ele>42.0</ele><time>2026-04-17T06:33:04.843Z</time></trkpt><trkpt lat="42.7619983" lon="-8.54939"><ele>43.0</ele><time>2026-04-17T06:33:05.844Z</time></trkpt><trkpt lat="42.7620167" lon="-8.5495483"><ele>44.0</ele><time>2026-04-17T06:33:06.844Z</time></trkpt><trkpt lat="42.7620467" lon="-8.5497017"><ele>45.0</ele><time>2026-04-17T06:33:07.843Z</time></trkpt><trkpt lat="42.76207" lon="-8.5498533"><ele>46.0</ele><time>2026-04-17T06:33:08.843Z</time></trkpt><trkpt lat="42.7620917" lon="-8.5500067"><ele>47.0</ele><time>2026-04-17T06:33:09.844Z</time></trkpt><trkpt lat="42.7621067" lon="-8.5501733"><ele>47.0</ele><time>2026-04-17T06:33:10.843Z</time></trkpt><trkpt lat="42.7621267" lon="-8.5503417"><ele>47.0</ele><time>2026-04-17T06:33:11.843Z</time></trkpt><trkpt lat="42.7621317" lon="-8.550515"><ele>47.0</ele><time>2026-04-17T06:33:12.843Z</time></trkpt><trkpt lat="42.7621417" lon="-8.5507017"><ele>47.0</ele><time>2026-04-17T06:33:13.844Z</time></trkpt><trkpt lat="42.7621517" lon="-8.5508933"><ele>47.0</ele><time>2026-04-17T06:33:14.844Z</time></trkpt><trkpt lat="42.7621767" lon="-8.5511117"><ele>47.0</ele><time>2026-04-17T06:33:15.843Z</time></trkpt><trkpt lat="42.7621867" lon="-8.5513133"><ele>47.0</ele><time>2026-04-17T06:33:16.843Z</time></trkpt><trkpt lat="42.762205" lon="-8.551535"><ele>46.0</ele><time>2026-04-17T06:33:17.844Z</time></trkpt><trkpt lat="42.762215" lon="-8.551745"><ele>45.0</ele><time>2026-04-17T06:33:18.843Z</time></trkpt><trkpt lat="42.76223" lon="-8.55193"><ele>44.0</ele><time>2026-04-17T06:33:19.844Z</time></trkpt><trkpt lat="42.7622433" lon="-8.5521017"><ele>43.0</ele><time>2026-04-17T06:33:20.844Z</time></trkpt><trkpt lat="42.7622567" lon="-8.5522567"><ele>41.5</ele><time>2026-04-17T06:33:21.843Z</time></trkpt><trkpt lat="42.7622733" lon="-8.5524083"><ele>40.0</ele><time>2026-04-17T06:33:22.843Z</time></trkpt><trkpt lat="42.7622983" lon="-8.5525567"><ele>38.5</ele><time>2026-04-17T06:33:23.843Z</time></trkpt><trkpt lat="42.7623183" lon="-8.55271"><ele>37.0</ele><time>2026-04-17T06:33:24.843Z</time></trkpt><trkpt lat="42.7623417" lon="-8.5528733"><ele>34.75</ele><time>2026-04-17T06:33:25.843Z</time></trkpt><trkpt lat="42.762385" lon="-8.5530467"><ele>32.5</ele><time>2026-04-17T06:33:26.843Z</time></trkpt><trkpt lat="42.7624283" lon="-8.55321"><ele>30.25</ele><time>2026-04-17T06:33:27.843Z</time></trkpt><trkpt lat="42.7624633" lon="-8.5533733"><ele>28.0</ele><time>2026-04-17T06:33:28.844Z</time></trkpt><trkpt lat="42.7624917" lon="-8.553535"><ele>28.0</ele><time>2026-04-17T06:33:29.843Z</time></trkpt><trkpt lat="42.7624833" lon="-8.5536933"><ele>28.0</ele><time>2026-04-17T06:33:30.843Z</time></trkpt><trkpt lat="42.7624533" lon="-8.5538533"><ele>28.0</ele><time>2026-04-17T06:33:31.844Z</time></trkpt><trkpt lat="42.7623933" lon="-8.554015"><ele>28.0</ele><time>2026-04-17T06:33:32.843Z</time></trkpt><trkpt lat="42.7623433" lon="-8.5541967"><ele>27.5</ele><time>2026-04-17T06:33:33.843Z</time></trkpt><trkpt lat="42.76231" lon="-8.5543733"><ele>27.0</ele><time>2026-04-17T06:33:34.844Z</time></trkpt><trkpt lat="42.7623017" lon="-8.554535"><ele>26.5</ele><time>2026-04-17T06:33:35.843Z</time></trkpt><trkpt lat="42.7623167" lon="-8.5547017"><ele>26.0</ele><time>2026-04-17T06:33:36.844Z</time></trkpt><trkpt lat="42.76234" lon="-8.554865"><ele>26.0</ele><time>2026-04-17T06:33:37.844Z</time></trkpt><trkpt lat="42.7623667" lon="-8.5550267"><ele>26.0</ele><time>2026-04-17T06:33:38.844Z</time></trkpt><trkpt lat="42.7623933" lon="-8.5551933"><ele>26.0</ele><time>2026-04-17T06:33:39.843Z</time></trkpt><trkpt lat="42.7624283" lon="-8.55536"><ele>26.0</ele><time>2026-04-17T06:33:40.844Z</time></trkpt><trkpt lat="42.7624583" lon="-8.5555283"><ele>26.6</ele><time>2026-04-17T06:33:41.844Z</time></trkpt><trkpt lat="42.762485" lon="-8.5556967"><ele>27.200000000000003</ele><time>2026-04-17T06:33:42.843Z</time></trkpt><trkpt lat="42.762515" lon="-8.5558617"><ele>27.799999999999997</ele><time>2026-04-17T06:33:43.844Z</time></trkpt><trkpt lat="42.762545" lon="-8.5560017"><ele>28.4</ele><time>2026-04-17T06:33:44.844Z</time></trkpt><trkpt lat="42.7625633" lon="-8.5561133"><ele>29.0</ele><time>2026-04-17T06:33:45.844Z</time></trkpt><trkpt lat="42.7625483" lon="-8.556275"><ele>29.799999999999997</ele><time>2026-04-17T06:33:47.843Z</time></trkpt><trkpt lat="42.7625017" lon="-8.5563567"><ele>30.599999999999998</ele><time>2026-04-17T06:33:48.843Z</time></trkpt><trkpt lat="42.7624283" lon="-8.556435"><ele>31.4</ele><time>2026-04-17T06:33:49.843Z</time></trkpt><trkpt lat="42.762325" lon="-8.55652"><ele>32.199999999999996</ele><time>2026-04-17T06:33:50.843Z</time></trkpt><trkpt lat="42.762215" lon="-8.5566217"><ele>33.0</ele><time>2026-04-17T06:33:51.843Z</time></trkpt><trkpt lat="42.76209" lon="-8.5567383"><ele>33.0</ele><time>2026-04-17T06:33:52.844Z</time></trkpt><trkpt lat="42.7619567" lon="-8.55685"><ele>33.0</ele><time>2026-04-17T06:33:53.844Z</time></trkpt><trkpt lat="42.761825" lon="-8.5569717"><ele>33.0</ele><time>2026-04-17T06:33:54.844Z</time></trkpt><trkpt lat="42.7617" lon="-8.5570933"><ele>33.0</ele><time>2026-04-17T06:33:55.843Z</time></trkpt><trkpt lat="42.7615617" lon="-8.557215"><ele>33.0</ele><time>2026-04-17T06:33:56.844Z</time></trkpt><trkpt lat="42.7614333" lon="-8.5573367"><ele>33.0</ele><time>2026-04-17T06:33:57.843Z</time></trkpt><trkpt lat="42.7612883" lon="-8.557455"><ele>33.0</ele><time>2026-04-17T06:33:58.844Z</time></trkpt><trkpt lat="42.7611667" lon="-8.5575933"><ele>33.0</ele><time>2026-04-17T06:33:59.844Z</time></trkpt><trkpt lat="42.7610517" lon="-8.5577383"><ele>33.0</ele><time>2026-04-17T06:34:00.844Z</time></trkpt><trkpt lat="42.76096" lon="-8.5579017"><ele>31.666666666666664</ele><time>2026-04-17T06:34:01.843Z</time></trkpt><trkpt lat="42.760855" lon="-8.5580733"><ele>30.333333333333332</ele><time>2026-04-17T06:34:02.843Z</time></trkpt><trkpt lat="42.760755" lon="-8.558245"><ele>29.0</ele><time>2026-04-17T06:34:03.843Z</time></trkpt><trkpt lat="42.7606583" lon="-8.5583967"><ele>29.0</ele><time>2026-04-17T06:34:04.844Z</time></trkpt><trkpt lat="42.7605733" lon="-8.5585517"><ele>29.0</ele><time>2026-04-17T06:34:05.843Z</time></trkpt><trkpt lat="42.760475" lon="-8.5586917"><ele>29.0</ele><time>2026-04-17T06:34:06.844Z</time></trkpt><trkpt lat="42.760385" lon="-8.55882"><ele>29.0</ele><time>2026-04-17T06:34:07.844Z</time></trkpt><trkpt lat="42.7602817" lon="-8.55892"><ele>30.75</ele><time>2026-04-17T06:34:08.844Z</time></trkpt><trkpt lat="42.7601633" lon="-8.55899"><ele>32.5</ele><time>2026-04-17T06:34:09.844Z</time></trkpt><trkpt lat="42.760035" lon="-8.559015"><ele>34.25</ele><time>2026-04-17T06:34:10.843Z</time></trkpt><trkpt lat="42.759895" lon="-8.5590067"><ele>36.0</ele><time>2026-04-17T06:34:11.843Z</time></trkpt><trkpt lat="42.7597567" lon="-8.5589767"><ele>36.0</ele><time>2026-04-17T06:34:12.845Z</time></trkpt><trkpt lat="42.759625" lon="-8.5589617"><ele>36.0</ele><time>2026-04-17T06:34:13.844Z</time></trkpt><trkpt lat="42.759485" lon="-8.558955"><ele>36.0</ele><time>2026-04-17T06:34:14.844Z</time></trkpt><trkpt lat="42.7593283" lon="-8.5589717"><ele>36.0</ele><time>2026-04-17T06:34:15.844Z</time></trkpt><trkpt lat="42.7591867" lon="-8.5589867"><ele>35.5</ele><time>2026-04-17T06:34:16.845Z</time></trkpt><trkpt lat="42.7590467" lon="-8.5590267"><ele>35.0</ele><time>2026-04-17T06:34:17.845Z</time></trkpt><trkpt lat="42.7589217" lon="-8.5590833"><ele>34.5</ele><time>2026-04-17T06:34:18.844Z</time></trkpt><trkpt lat="42.75883" lon="-8.5591667"><ele>34.0</ele><time>2026-04-17T06:34:19.844Z</time></trkpt><trkpt lat="42.7587917" lon="-8.55932"><ele>34.0</ele><time>2026-04-17T06:34:20.844Z</time></trkpt><trkpt lat="42.7587383" lon="-8.55949"><ele>34.0</ele><time>2026-04-17T06:34:21.844Z</time></trkpt><trkpt lat="42.7586767" lon="-8.5596583"><ele>34.0</ele><time>2026-04-17T06:34:22.844Z</time></trkpt><trkpt lat="42.758615" lon="-8.5597983"><ele>34.0</ele><time>2026-04-17T06:34:23.844Z</time></trkpt><trkpt lat="42.7585083" lon="-8.5599033"><ele>34.0</ele><time>2026-04-17T06:34:24.845Z</time></trkpt><trkpt lat="42.75838" lon="-8.5599783"><ele>34.0</ele><time>2026-04-17T06:34:25.845Z</time></trkpt><trkpt lat="42.7582333" lon="-8.56004"><ele>34.0</ele><time>2026-04-17T06:34:26.844Z</time></trkpt><trkpt lat="42.758085" lon="-8.5600933"><ele>34.0</ele><time>2026-04-17T06:34:27.844Z</time></trkpt><trkpt lat="42.7579417" lon="-8.5601517"><ele>34.0</ele><time>2026-04-17T06:34:28.844Z</time></trkpt><trkpt lat="42.7578017" lon="-8.56022"><ele>34.0</ele><time>2026-04-17T06:34:29.845Z</time></trkpt><trkpt lat="42.7576667" lon="-8.5602883"><ele>34.0</ele><time>2026-04-17T06:34:30.844Z</time></trkpt><trkpt lat="42.7575133" lon="-8.5603917"><ele>37.0</ele><time>2026-04-17T06:34:31.845Z</time></trkpt><trkpt lat="42.75737" lon="-8.5604983"><ele>40.0</ele><time>2026-04-17T06:34:32.845Z</time></trkpt><trkpt lat="42.757225" lon="-8.5606117"><ele>43.0</ele><time>2026-04-17T06:34:33.845Z</time></trkpt><trkpt lat="42.7570667" lon="-8.56072"><ele>43.0</ele><time>2026-04-17T06:34:34.844Z</time></trkpt><trkpt lat="42.7569083" lon="-8.5608333"><ele>43.0</ele><time>2026-04-17T06:34:35.845Z</time></trkpt><trkpt lat="42.756755" lon="-8.5609383"><ele>43.0</ele><time>2026-04-17T06:34:36.844Z</time></trkpt><trkpt lat="42.7566033" lon="-8.56104"><ele>43.66666666666667</ele><time>2026-04-17T06:34:37.844Z</time></trkpt><trkpt lat="42.75646" lon="-8.56112"><ele>44.333333333333336</ele><time>2026-04-17T06:34:38.845Z</time></trkpt><trkpt lat="42.7563133" lon="-8.5611883"><ele>45.0</ele><time>2026-04-17T06:34:39.845Z</time></trkpt><trkpt lat="42.7561667" lon="-8.56123"><ele>46.0</ele><time>2026-04-17T06:34:40.845Z</time></trkpt><trkpt lat="42.7560233" lon="-8.5612367"><ele>47.0</ele><time>2026-04-17T06:34:41.845Z</time></trkpt><trkpt lat="42.7558683" lon="-8.561225"><ele>48.0</ele><time>2026-04-17T06:34:42.845Z</time></trkpt><trkpt lat="42.755705" lon="-8.5611917"><ele>42.666666666666664</ele><time>2026-04-17T06:34:43.845Z</time></trkpt><trkpt lat="42.7555367" lon="-8.5611567"><ele>37.33333333333333</ele><time>2026-04-17T06:34:44.844Z</time></trkpt><trkpt lat="42.7553817" lon="-8.5611317"><ele>32.0</ele><time>2026-04-17T06:34:45.844Z</time></trkpt><trkpt lat="42.7552167" lon="-8.5611083"><ele>35.0</ele><time>2026-04-17T06:34:46.844Z</time></trkpt><trkpt lat="42.755055" lon="-8.5610633"><ele>38.0</ele><time>2026-04-17T06:34:47.845Z</time></trkpt><trkpt lat="42.7549017" lon="-8.5609817"><ele>41.0</ele><time>2026-04-17T06:34:48.844Z</time></trkpt><trkpt lat="42.7547567" lon="-8.56088"><ele>41.0</ele><time>2026-04-17T06:34:49.845Z</time></trkpt><trkpt lat="42.7546483" lon="-8.5607483"><ele>41.0</ele><time>2026-04-17T06:34:50.845Z</time></trkpt><trkpt lat="42.7545067" lon="-8.560625"><ele>41.0</ele><time>2026-04-17T06:34:51.844Z</time></trkpt><trkpt lat="42.7543583" lon="-8.5605217"><ele>39.666666666666664</ele><time>2026-04-17T06:34:52.845Z</time></trkpt><trkpt lat="42.7542033" lon="-8.560435"><ele>38.333333333333336</ele><time>2026-04-17T06:34:53.845Z</time></trkpt><trkpt lat="42.7540433" lon="-8.560355"><ele>37.0</ele><time>2026-04-17T06:34:54.845Z</time></trkpt><trkpt lat="42.7538733" lon="-8.5602817"><ele>37.0</ele><time>2026-04-17T06:34:55.845Z</time></trkpt><trkpt lat="42.7537117" lon="-8.56021"><ele>37.0</ele><time>2026-04-17T06:34:56.845Z</time></trkpt><trkpt lat="42.753545" lon="-8.560145"><ele>37.0</ele><time>2026-04-17T06:34:57.844Z</time></trkpt><trkpt lat="42.7533983" lon="-8.5600817"><ele>41.0</ele><time>2026-04-17T06:34:58.845Z</time></trkpt><trkpt lat="42.7532367" lon="-8.560005"><ele>45.0</ele><time>2026-04-17T06:34:59.845Z</time></trkpt><trkpt lat="42.7530733" lon="-8.559955"><ele>49.0</ele><time>2026-04-17T06:35:00.845Z</time></trkpt><trkpt lat="42.7529233" lon="-8.5598967"><ele>49.0</ele><time>2026-04-17T06:35:01.845Z</time></trkpt><trkpt lat="42.7527567" lon="-8.5598483"><ele>49.0</ele><time>2026-04-17T06:35:02.844Z</time></trkpt><trkpt lat="42.7525933" lon="-8.559805"><ele>49.0</ele><time>2026-04-17T06:35:03.844Z</time></trkpt><trkpt lat="42.75243" lon="-8.55979"><ele>50.5</ele><time>2026-04-17T06:35:04.844Z</time></trkpt><trkpt lat="42.7522683" lon="-8.55982"><ele>52.0</ele><time>2026-04-17T06:35:05.845Z</time></trkpt><trkpt lat="42.7521483" lon="-8.559865"><ele>53.5</ele><time>2026-04-17T06:35:06.844Z</time></trkpt><trkpt lat="42.7520167" lon="-8.5599583"><ele>55.0</ele><time>2026-04-17T06:35:07.844Z</time></trkpt><trkpt lat="42.751885" lon="-8.5600867"><ele>54.33333333333333</ele><time>2026-04-17T06:35:08.844Z</time></trkpt><trkpt lat="42.751765" lon="-8.5602417"><ele>53.66666666666667</ele><time>2026-04-17T06:35:09.844Z</time></trkpt><trkpt lat="42.7516283" lon="-8.5604167"><ele>53.0</ele><time>2026-04-17T06:35:10.845Z</time></trkpt><trkpt lat="42.7514783" lon="-8.5606017"><ele>54.333333333333336</ele><time>2026-04-17T06:35:11.844Z</time></trkpt><trkpt lat="42.7513367" lon="-8.5607583"><ele>55.66666666666667</ele><time>2026-04-17T06:35:12.845Z</time></trkpt><trkpt lat="42.7511717" lon="-8.56089"><ele>57.0</ele><time>2026-04-17T06:35:13.845Z</time></trkpt><trkpt lat="42.7510267" lon="-8.5609883"><ele>57.0</ele><time>2026-04-17T06:35:14.844Z</time></trkpt><trkpt lat="42.75088" lon="-8.5611167"><ele>57.0</ele><time>2026-04-17T06:35:15.845Z</time></trkpt><trkpt lat="42.7507483" lon="-8.56124"><ele>57.0</ele><time>2026-04-17T06:35:16.845Z</time></trkpt><trkpt lat="42.7506317" lon="-8.5613917"><ele>61.0</ele><time>2026-04-17T06:35:17.845Z</time></trkpt><trkpt lat="42.7505167" lon="-8.5615667"><ele>65.0</ele><time>2026-04-17T06:35:18.845Z</time></trkpt><trkpt lat="42.7504117" lon="-8.5617417"><ele>69.0</ele><time>2026-04-17T06:35:19.845Z</time></trkpt><trkpt lat="42.7503017" lon="-8.561915"><ele>67.0</ele><time>2026-04-17T06:35:20.844Z</time></trkpt><trkpt lat="42.7501933" lon="-8.5620867"><ele>65.0</ele><time>2026-04-17T06:35:21.844Z</time></trkpt><trkpt lat="42.7500967" lon="-8.5622617"><ele>63.0</ele><time>2026-04-17T06:35:22.844Z</time></trkpt><trkpt lat="42.7499817" lon="-8.56244"><ele>63.0</ele><time>2026-04-17T06:35:23.844Z</time></trkpt><trkpt lat="42.7498767" lon="-8.562625"><ele>63.0</ele><time>2026-04-17T06:35:24.845Z</time></trkpt><trkpt lat="42.7497833" lon="-8.5628033"><ele>63.0</ele><time>2026-04-17T06:35:25.844Z</time></trkpt><trkpt lat="42.74968" lon="-8.562975"><ele>64.0</ele><time>2026-04-17T06:35:26.845Z</time></trkpt><trkpt lat="42.7495667" lon="-8.563145"><ele>65.0</ele><time>2026-04-17T06:35:27.844Z</time></trkpt><trkpt lat="42.7494567" lon="-8.56332"><ele>66.0</ele><time>2026-04-17T06:35:28.844Z</time></trkpt><trkpt lat="42.7493333" lon="-8.5634933"><ele>66.0</ele><time>2026-04-17T06:35:29.845Z</time></trkpt><trkpt lat="42.7492217" lon="-8.56365"><ele>66.0</ele><time>2026-04-17T06:35:30.845Z</time></trkpt><trkpt lat="42.74912" lon="-8.5637983"><ele>66.0</ele><time>2026-04-17T06:35:31.845Z</time></trkpt><trkpt lat="42.74901" lon="-8.5639567"><ele>68.33333333333333</ele><time>2026-04-17T06:35:32.845Z</time></trkpt><trkpt lat="42.7489017" lon="-8.564125"><ele>70.66666666666666</ele><time>2026-04-17T06:35:33.844Z</time></trkpt><trkpt lat="42.7488183" lon="-8.5643067"><ele>73.0</ele><time>2026-04-17T06:35:34.845Z</time></trkpt><trkpt lat="42.748715" lon="-8.5644667"><ele>73.66666666666666</ele><time>2026-04-17T06:35:35.845Z</time></trkpt><trkpt lat="42.748605" lon="-8.56463"><ele>74.33333333333333</ele><time>2026-04-17T06:35:36.845Z</time></trkpt><trkpt lat="42.748495" lon="-8.5647867"><ele>75.0</ele><time>2026-04-17T06:35:37.844Z</time></trkpt><trkpt lat="42.7483883" lon="-8.5649467"><ele>75.0</ele><time>2026-04-17T06:35:38.844Z</time></trkpt><trkpt lat="42.7482767" lon="-8.5651067"><ele>75.0</ele><time>2026-04-17T06:35:39.845Z</time></trkpt><trkpt lat="42.7481733" lon="-8.5652783"><ele>75.0</ele><time>2026-04-17T06:35:40.844Z</time></trkpt><trkpt lat="42.7480617" lon="-8.5654333"><ele>77.66666666666667</ele><time>2026-04-17T06:35:41.844Z</time></trkpt><trkpt lat="42.7479467" lon="-8.565605"><ele>80.33333333333334</ele><time>2026-04-17T06:35:42.845Z</time></trkpt><trkpt lat="42.7478233" lon="-8.5657767"><ele>83.0</ele><time>2026-04-17T06:35:43.844Z</time></trkpt><trkpt lat="42.747715" lon="-8.5659533"><ele>83.0</ele><time>2026-04-17T06:35:44.845Z</time></trkpt><trkpt lat="42.74762" lon="-8.566125"><ele>83.0</ele><time>2026-04-17T06:35:45.844Z</time></trkpt><trkpt lat="42.7475167" lon="-8.5663033"><ele>83.0</ele><time>2026-04-17T06:35:46.844Z</time></trkpt><trkpt lat="42.747405" lon="-8.5664733"><ele>84.33333333333334</ele><time>2026-04-17T06:35:47.844Z</time></trkpt><trkpt lat="42.74729" lon="-8.5666467"><ele>85.66666666666667</ele><time>2026-04-17T06:35:48.845Z</time></trkpt><trkpt lat="42.747175" lon="-8.566805"><ele>87.0</ele><time>2026-04-17T06:35:49.845Z</time></trkpt><trkpt lat="42.74704" lon="-8.5669817"><ele>88.0</ele><time>2026-04-17T06:35:50.844Z</time></trkpt><trkpt lat="42.7469183" lon="-8.567155"><ele>89.0</ele><time>2026-04-17T06:35:51.845Z</time></trkpt><trkpt lat="42.7468167" lon="-8.5673383"><ele>90.0</ele><time>2026-04-17T06:35:52.845Z</time></trkpt><trkpt lat="42.746705" lon="-8.5675317"><ele>90.0</ele><time>2026-04-17T06:35:53.845Z</time></trkpt><trkpt lat="42.74661" lon="-8.567725"><ele>90.0</ele><time>2026-04-17T06:35:54.845Z</time></trkpt><trkpt lat="42.74651" lon="-8.5679383"><ele>90.0</ele><time>2026-04-17T06:35:55.844Z</time></trkpt><trkpt lat="42.7464183" lon="-8.56815"><ele>92.33333333333334</ele><time>2026-04-17T06:35:56.845Z</time></trkpt><trkpt lat="42.7463333" lon="-8.5683567"><ele>94.66666666666667</ele><time>2026-04-17T06:35:57.844Z</time></trkpt><trkpt lat="42.7462567" lon="-8.5685733"><ele>97.0</ele><time>2026-04-17T06:35:58.845Z</time></trkpt><trkpt lat="42.746165" lon="-8.56878"><ele>96.0</ele><time>2026-04-17T06:35:59.844Z</time></trkpt><trkpt lat="42.7460733" lon="-8.5689817"><ele>95.0</ele><time>2026-04-17T06:36:00.845Z</time></trkpt><trkpt lat="42.7459817" lon="-8.5691783"><ele>94.0</ele><time>2026-04-17T06:36:01.845Z</time></trkpt><trkpt lat="42.7458933" lon="-8.5693817"><ele>98.0</ele><time>2026-04-17T06:36:02.844Z</time></trkpt><trkpt lat="42.7458017" lon="-8.5695833"><ele>102.0</ele><time>2026-04-17T06:36:03.844Z</time></trkpt><trkpt lat="42.7456983" lon="-8.5697733"><ele>106.0</ele><time>2026-04-17T06:36:04.845Z</time></trkpt><trkpt lat="42.7455733" lon="-8.5699517"><ele>106.0</ele><time>2026-04-17T06:36:05.845Z</time></trkpt><trkpt lat="42.7454483" lon="-8.5701167"><ele>106.0</ele><time>2026-04-17T06:36:06.844Z</time></trkpt><trkpt lat="42.7453317" lon="-8.5702917"><ele>106.0</ele><time>2026-04-17T06:36:07.844Z</time></trkpt><trkpt lat="42.7452" lon="-8.570455"><ele>104.0</ele><time>2026-04-17T06:36:08.844Z</time></trkpt><trkpt lat="42.7450833" lon="-8.570635"><ele>102.0</ele><time>2026-04-17T06:36:09.844Z</time></trkpt><trkpt lat="42.74497" lon="-8.5707983"><ele>100.0</ele><time>2026-04-17T06:36:10.845Z</time></trkpt><trkpt lat="42.74486" lon="-8.57094"><ele>100.0</ele><time>2026-04-17T06:36:11.844Z</time></trkpt><trkpt lat="42.7447717" lon="-8.571085"><ele>100.0</ele><time>2026-04-17T06:36:12.845Z</time></trkpt><trkpt lat="42.7447167" lon="-8.5712317"><ele>100.0</ele><time>2026-04-17T06:36:13.844Z</time></trkpt><trkpt lat="42.7446917" lon="-8.5713967"><ele>100.0</ele><time>2026-04-17T06:36:14.845Z</time></trkpt><trkpt lat="42.744695" lon="-8.5715867"><ele>100.0</ele><time>2026-04-17T06:36:15.844Z</time></trkpt><trkpt lat="42.7447167" lon="-8.5717633"><ele>100.0</ele><time>2026-04-17T06:36:16.845Z</time></trkpt><trkpt lat="42.7447583" lon="-8.5719667"><ele>100.0</ele><time>2026-04-17T06:36:17.844Z</time></trkpt><trkpt lat="42.7447983" lon="-8.57221"><ele>100.0</ele><time>2026-04-17T06:36:18.845Z</time></trkpt><trkpt lat="42.744815" lon="-8.5724783"><ele>100.0</ele><time>2026-04-17T06:36:19.844Z</time></trkpt><trkpt lat="42.7448183" lon="-8.5727567"><ele>100.0</ele><time>2026-04-17T06:36:20.844Z</time></trkpt><trkpt lat="42.7448167" lon="-8.5730167"><ele>99.0</ele><time>2026-04-17T06:36:21.844Z</time></trkpt><trkpt lat="42.744815" lon="-8.57325"><ele>98.0</ele><time>2026-04-17T06:36:22.845Z</time></trkpt><trkpt lat="42.7448167" lon="-8.5734717"><ele>97.0</ele><time>2026-04-17T06:36:23.844Z</time></trkpt><trkpt lat="42.744835" lon="-8.57365"><ele>94.25</ele><time>2026-04-17T06:36:24.845Z</time></trkpt><trkpt lat="42.74486" lon="-8.573825"><ele>91.5</ele><time>2026-04-17T06:36:25.844Z</time></trkpt><trkpt lat="42.74493" lon="-8.573985"><ele>88.75</ele><time>2026-04-17T06:36:26.845Z</time></trkpt><trkpt lat="42.745025" lon="-8.5741117"><ele>86.0</ele><time>2026-04-17T06:36:27.845Z</time></trkpt><trkpt lat="42.74514" lon="-8.5742467"><ele>85.75</ele><time>2026-04-17T06:36:28.845Z</time></trkpt><trkpt lat="42.7452683" lon="-8.574375"><ele>85.5</ele><time>2026-04-17T06:36:29.844Z</time></trkpt><trkpt lat="42.7453783" lon="-8.57451"><ele>85.25</ele><time>2026-04-17T06:36:30.844Z</time></trkpt><trkpt lat="42.7454817" lon="-8.5746367"><ele>85.0</ele><time>2026-04-17T06:36:31.844Z</time></trkpt><trkpt lat="42.7455883" lon="-8.574755"><ele>85.0</ele><time>2026-04-17T06:36:32.845Z</time></trkpt><trkpt lat="42.7457083" lon="-8.5748067"><ele>85.0</ele><time>2026-04-17T06:36:33.844Z</time></trkpt><trkpt lat="42.7458667" lon="-8.5748533"><ele>85.0</ele><time>2026-04-17T06:36:34.845Z</time></trkpt><trkpt lat="42.7460183" lon="-8.5749017"><ele>85.0</ele><time>2026-04-17T06:36:35.844Z</time></trkpt><trkpt lat="42.7461533" lon="-8.5749467"><ele>85.5</ele><time>2026-04-17T06:36:36.845Z</time></trkpt><trkpt lat="42.7462767" lon="-8.5750167"><ele>86.0</ele><time>2026-04-17T06:36:37.844Z</time></trkpt><trkpt lat="42.7463517" lon="-8.5751367"><ele>86.5</ele><time>2026-04-17T06:36:38.845Z</time></trkpt><trkpt lat="42.746415" lon="-8.5752883"><ele>87.0</ele><time>2026-04-17T06:36:39.845Z</time></trkpt><trkpt lat="42.746455" lon="-8.5754767"><ele>87.0</ele><time>2026-04-17T06:36:40.845Z</time></trkpt><trkpt lat="42.74643" lon="-8.5756867"><ele>87.0</ele><time>2026-04-17T06:36:41.844Z</time></trkpt><trkpt lat="42.7464333" lon="-8.575915"><ele>87.0</ele><time>2026-04-17T06:36:42.844Z</time></trkpt><trkpt lat="42.7464717" lon="-8.5761433"><ele>84.66666666666667</ele><time>2026-04-17T06:36:43.845Z</time></trkpt><trkpt lat="42.746525" lon="-8.57637"><ele>82.33333333333334</ele><time>2026-04-17T06:36:44.845Z</time></trkpt><trkpt lat="42.7465917" lon="-8.5765967"><ele>80.0</ele><time>2026-04-17T06:36:45.844Z</time></trkpt><trkpt lat="42.7466617" lon="-8.5768283"><ele>79.33333333333334</ele><time>2026-04-17T06:36:46.845Z</time></trkpt><trkpt lat="42.7467367" lon="-8.5770433"><ele>78.66666666666667</ele><time>2026-04-17T06:36:47.844Z</time></trkpt><trkpt lat="42.746795" lon="-8.5772567"><ele>78.0</ele><time>2026-04-17T06:36:48.844Z</time></trkpt><trkpt lat="42.7468533" lon="-8.5774433"><ele>78.25</ele><time>2026-04-17T06:36:49.844Z</time></trkpt><trkpt lat="42.7469133" lon="-8.577625"><ele>78.5</ele><time>2026-04-17T06:36:50.844Z</time></trkpt><trkpt lat="42.74699" lon="-8.5777817"><ele>78.75</ele><time>2026-04-17T06:36:51.845Z</time></trkpt><trkpt lat="42.7470817" lon="-8.5779317"><ele>79.0</ele><time>2026-04-17T06:36:52.844Z</time></trkpt><trkpt lat="42.7471817" lon="-8.57805"><ele>79.0</ele><time>2026-04-17T06:36:53.845Z</time></trkpt><trkpt lat="42.7472883" lon="-8.578155"><ele>79.0</ele><time>2026-04-17T06:36:54.845Z</time></trkpt><trkpt lat="42.7473917" lon="-8.5782517"><ele>79.0</ele><time>2026-04-17T06:36:55.845Z</time></trkpt><trkpt lat="42.7474667" lon="-8.57835"><ele>79.0</ele><time>2026-04-17T06:36:56.844Z</time></trkpt><trkpt lat="42.7475083" lon="-8.578465"><ele>79.0</ele><time>2026-04-17T06:36:57.845Z</time></trkpt><trkpt lat="42.7475" lon="-8.5785817"><ele>79.0</ele><time>2026-04-17T06:36:58.844Z</time></trkpt><trkpt lat="42.7474633" lon="-8.578685"><ele>79.0</ele><time>2026-04-17T06:36:59.844Z</time></trkpt><trkpt lat="42.7474033" lon="-8.5787817"><ele>79.0</ele><time>2026-04-17T06:37:00.844Z</time></trkpt><trkpt lat="42.7473167" lon="-8.57886"><ele>79.0</ele><time>2026-04-17T06:37:01.844Z</time></trkpt><trkpt lat="42.7472067" lon="-8.5789517"><ele>79.5</ele><time>2026-04-17T06:37:02.844Z</time></trkpt><trkpt lat="42.74711" lon="-8.5790733"><ele>80.0</ele><time>2026-04-17T06:37:03.845Z</time></trkpt><trkpt lat="42.7470233" lon="-8.5792233"><ele>80.5</ele><time>2026-04-17T06:37:04.844Z</time></trkpt><trkpt lat="42.746955" lon="-8.5794"><ele>81.0</ele><time>2026-04-17T06:37:05.845Z</time></trkpt><trkpt lat="42.74687" lon="-8.57959"><ele>81.66666666666667</ele><time>2026-04-17T06:37:06.844Z</time></trkpt><trkpt lat="42.7467767" lon="-8.57977"><ele>82.33333333333334</ele><time>2026-04-17T06:37:07.845Z</time></trkpt><trkpt lat="42.7466933" lon="-8.57995"><ele>83.0</ele><time>2026-04-17T06:37:08.844Z</time></trkpt><trkpt lat="42.746625" lon="-8.58012"><ele>83.0</ele><time>2026-04-17T06:37:09.845Z</time></trkpt><trkpt lat="42.7465683" lon="-8.5803183"><ele>83.0</ele><time>2026-04-17T06:37:10.845Z</time></trkpt><trkpt lat="42.746545" lon="-8.58051"><ele>83.0</ele><time>2026-04-17T06:37:11.845Z</time></trkpt><trkpt lat="42.7465383" lon="-8.58067"><ele>83.0</ele><time>2026-04-17T06:37:12.844Z</time></trkpt><trkpt lat="42.7465367" lon="-8.5808383"><ele>82.2</ele><time>2026-04-17T06:37:13.844Z</time></trkpt><trkpt lat="42.7465583" lon="-8.580975"><ele>81.4</ele><time>2026-04-17T06:37:14.845Z</time></trkpt><trkpt lat="42.7465933" lon="-8.5810767"><ele>80.60000000000001</ele><time>2026-04-17T06:37:15.845Z</time></trkpt><trkpt lat="42.7466167" lon="-8.58119"><ele>79.80000000000001</ele><time>2026-04-17T06:37:16.844Z</time></trkpt><trkpt lat="42.746675" lon="-8.5812967"><ele>79.0</ele><time>2026-04-17T06:37:17.844Z</time></trkpt><trkpt lat="42.7467933" lon="-8.5813783"><ele>76.0</ele><time>2026-04-17T06:37:18.845Z</time></trkpt><trkpt lat="42.7470717" lon="-8.5814033"><ele>73.0</ele><time>2026-04-17T06:37:19.844Z</time></trkpt><trkpt lat="42.7474583" lon="-8.5813883"><ele>73.0</ele><time>2026-04-17T06:37:20.845Z</time></trkpt><trkpt lat="42.7476733" lon="-8.5814267"><ele>73.0</ele><time>2026-04-17T06:37:21.844Z</time></trkpt><trkpt lat="42.7479017" lon="-8.5814783"><ele>73.0</ele><time>2026-04-17T06:37:22.844Z</time></trkpt><trkpt lat="42.74811" lon="-8.5815283"><ele>72.0</ele><time>2026-04-17T06:37:23.844Z</time></trkpt><trkpt lat="42.7483017" lon="-8.5815733"><ele>71.0</ele><time>2026-04-17T06:37:24.844Z</time></trkpt><trkpt lat="42.7484783" lon="-8.5816317"><ele>70.0</ele><time>2026-04-17T06:37:25.844Z</time></trkpt><trkpt lat="42.7486433" lon="-8.5816867"><ele>67.33333333333333</ele><time>2026-04-17T06:37:26.844Z</time></trkpt><trkpt lat="42.74881" lon="-8.5817317"><ele>64.66666666666667</ele><time>2026-04-17T06:37:27.845Z</time></trkpt><trkpt lat="42.7489633" lon="-8.5818217"><ele>62.0</ele><time>2026-04-17T06:37:28.845Z</time></trkpt><trkpt lat="42.7490983" lon="-8.581955"><ele>61.66666666666667</ele><time>2026-04-17T06:37:29.844Z</time></trkpt><trkpt lat="42.749215" lon="-8.582125"><ele>61.33333333333333</ele><time>2026-04-17T06:37:30.845Z</time></trkpt><trkpt lat="42.7493183" lon="-8.5823017"><ele>61.0</ele><time>2026-04-17T06:37:31.845Z</time></trkpt><trkpt lat="42.7494" lon="-8.5824833"><ele>62.0</ele><time>2026-04-17T06:37:32.845Z</time></trkpt><trkpt lat="42.74944" lon="-8.5826767"><ele>63.0</ele><time>2026-04-17T06:37:33.844Z</time></trkpt><trkpt lat="42.7494583" lon="-8.582855"><ele>64.0</ele><time>2026-04-17T06:37:34.844Z</time></trkpt><trkpt lat="42.7494633" lon="-8.5830517"><ele>65.0</ele><time>2026-04-17T06:37:35.845Z</time></trkpt><trkpt lat="42.7494717" lon="-8.5832317"><ele>66.25</ele><time>2026-04-17T06:37:36.844Z</time></trkpt><trkpt lat="42.749505" lon="-8.583415"><ele>67.5</ele><time>2026-04-17T06:37:37.844Z</time></trkpt><trkpt lat="42.7495667" lon="-8.583575"><ele>68.75</ele><time>2026-04-17T06:37:38.845Z</time></trkpt><trkpt lat="42.7496083" lon="-8.5837133"><ele>70.0</ele><time>2026-04-17T06:37:39.844Z</time></trkpt><trkpt lat="42.7496183" lon="-8.58386"><ele>69.0</ele><time>2026-04-17T06:37:40.844Z</time></trkpt><trkpt lat="42.7495917" lon="-8.5840117"><ele>68.0</ele><time>2026-04-17T06:37:41.845Z</time></trkpt><trkpt lat="42.7495233" lon="-8.58417"><ele>67.0</ele><time>2026-04-17T06:37:42.845Z</time></trkpt><trkpt lat="42.7494233" lon="-8.584315"><ele>66.0</ele><time>2026-04-17T06:37:43.844Z</time></trkpt><trkpt lat="42.7492933" lon="-8.5844467"><ele>72.33333333333333</ele><time>2026-04-17T06:37:44.844Z</time></trkpt><trkpt lat="42.7491567" lon="-8.5845883"><ele>78.66666666666666</ele><time>2026-04-17T06:37:45.844Z</time></trkpt><trkpt lat="42.749025" lon="-8.5847383"><ele>85.0</ele><time>2026-04-17T06:37:46.844Z</time></trkpt><trkpt lat="42.748895" lon="-8.5848917"><ele>85.0</ele><time>2026-04-17T06:37:47.844Z</time></trkpt><trkpt lat="42.74877" lon="-8.585035"><ele>85.0</ele><time>2026-04-17T06:37:48.845Z</time></trkpt><trkpt lat="42.7486467" lon="-8.5851767"><ele>85.0</ele><time>2026-04-17T06:37:49.845Z</time></trkpt><trkpt lat="42.7485533" lon="-8.585305"><ele>84.5</ele><time>2026-04-17T06:37:50.845Z</time></trkpt><trkpt lat="42.7484583" lon="-8.585425"><ele>84.0</ele><time>2026-04-17T06:37:51.844Z</time></trkpt><trkpt lat="42.74836" lon="-8.5855467"><ele>83.5</ele><time>2026-04-17T06:37:52.844Z</time></trkpt><trkpt lat="42.7482717" lon="-8.5856633"><ele>83.0</ele><time>2026-04-17T06:37:53.845Z</time></trkpt><trkpt lat="42.7481733" lon="-8.58576"><ele>83.0</ele><time>2026-04-17T06:37:54.844Z</time></trkpt><trkpt lat="42.7480783" lon="-8.585865"><ele>83.0</ele><time>2026-04-17T06:37:55.845Z</time></trkpt><trkpt lat="42.7479833" lon="-8.5859833"><ele>83.0</ele><time>2026-04-17T06:37:56.844Z</time></trkpt><trkpt lat="42.7478833" lon="-8.5861083"><ele>83.0</ele><time>2026-04-17T06:37:57.844Z</time></trkpt><trkpt lat="42.7477883" lon="-8.5862517"><ele>81.25</ele><time>2026-04-17T06:37:58.844Z</time></trkpt><trkpt lat="42.7477083" lon="-8.5864017"><ele>79.5</ele><time>2026-04-17T06:37:59.845Z</time></trkpt><trkpt lat="42.7476283" lon="-8.5865633"><ele>77.75</ele><time>2026-04-17T06:38:00.845Z</time></trkpt><trkpt lat="42.7475583" lon="-8.5867267"><ele>76.0</ele><time>2026-04-17T06:38:01.846Z</time></trkpt><trkpt lat="42.7474917" lon="-8.5869033"><ele>76.5</ele><time>2026-04-17T06:38:02.846Z</time></trkpt><trkpt lat="42.7474267" lon="-8.58707"><ele>77.0</ele><time>2026-04-17T06:38:03.846Z</time></trkpt><trkpt lat="42.7473467" lon="-8.5872433"><ele>77.5</ele><time>2026-04-17T06:38:04.846Z</time></trkpt><trkpt lat="42.7472583" lon="-8.587425"><ele>78.0</ele><time>2026-04-17T06:38:05.845Z</time></trkpt><trkpt lat="42.747175" lon="-8.5876067"><ele>78.0</ele><time>2026-04-17T06:38:06.845Z</time></trkpt><trkpt lat="42.747085" lon="-8.58778"><ele>78.0</ele><time>2026-04-17T06:38:07.845Z</time></trkpt><trkpt lat="42.7470083" lon="-8.5879467"><ele>78.0</ele><time>2026-04-17T06:38:08.845Z</time></trkpt><trkpt lat="42.7469283" lon="-8.5880967"><ele>78.0</ele><time>2026-04-17T06:38:09.845Z</time></trkpt><trkpt lat="42.746855" lon="-8.5882433"><ele>76.6</ele><time>2026-04-17T06:38:10.846Z</time></trkpt><trkpt lat="42.7467867" lon="-8.5883717"><ele>75.19999999999999</ele><time>2026-04-17T06:38:11.845Z</time></trkpt><trkpt lat="42.7467333" lon="-8.5885017"><ele>73.8</ele><time>2026-04-17T06:38:12.845Z</time></trkpt><trkpt lat="42.74668" lon="-8.5886133"><ele>72.39999999999999</ele><time>2026-04-17T06:38:13.845Z</time></trkpt><trkpt lat="42.7466367" lon="-8.5887267"><ele>71.0</ele><time>2026-04-17T06:38:14.845Z</time></trkpt><trkpt lat="42.746605" lon="-8.5888367"><ele>71.0</ele><time>2026-04-17T06:38:15.845Z</time></trkpt><trkpt lat="42.7465983" lon="-8.5889467"><ele>71.0</ele><time>2026-04-17T06:38:16.846Z</time></trkpt><trkpt lat="42.74663" lon="-8.589055"><ele>71.0</ele><time>2026-04-17T06:38:17.846Z</time></trkpt><trkpt lat="42.746675" lon="-8.58917"><ele>71.0</ele><time>2026-04-17T06:38:18.845Z</time></trkpt><trkpt lat="42.7467433" lon="-8.589265"><ele>71.0</ele><time>2026-04-17T06:38:19.845Z</time></trkpt><trkpt lat="42.7468433" lon="-8.5893467"><ele>71.0</ele><time>2026-04-17T06:38:20.845Z</time></trkpt><trkpt lat="42.747005" lon="-8.5894083"><ele>71.0</ele><time>2026-04-17T06:38:21.845Z</time></trkpt><trkpt lat="42.7471767" lon="-8.5894917"><ele>71.0</ele><time>2026-04-17T06:38:22.845Z</time></trkpt><trkpt lat="42.7473517" lon="-8.5896117"><ele>68.66666666666667</ele><time>2026-04-17T06:38:23.846Z</time></trkpt><trkpt lat="42.747515" lon="-8.5897083"><ele>66.33333333333333</ele><time>2026-04-17T06:38:24.845Z</time></trkpt><trkpt lat="42.74767" lon="-8.5897833"><ele>64.0</ele><time>2026-04-17T06:38:25.846Z</time></trkpt><trkpt lat="42.7478117" lon="-8.5898433"><ele>63.0</ele><time>2026-04-17T06:38:26.846Z</time></trkpt><trkpt lat="42.7479467" lon="-8.5898817"><ele>62.0</ele><time>2026-04-17T06:38:27.845Z</time></trkpt><trkpt lat="42.7480717" lon="-8.5898917"><ele>61.0</ele><time>2026-04-17T06:38:28.845Z</time></trkpt><trkpt lat="42.748195" lon="-8.5898717"><ele>60.0</ele><time>2026-04-17T06:38:29.846Z</time></trkpt><trkpt lat="42.7483183" lon="-8.5898417"><ele>60.0</ele><time>2026-04-17T06:38:30.845Z</time></trkpt><trkpt lat="42.7484433" lon="-8.5898233"><ele>60.0</ele><time>2026-04-17T06:38:31.846Z</time></trkpt><trkpt lat="42.74856" lon="-8.5898217"><ele>60.0</ele><time>2026-04-17T06:38:32.845Z</time></trkpt><trkpt lat="42.7486867" lon="-8.5898267"><ele>60.0</ele><time>2026-04-17T06:38:33.846Z</time></trkpt><trkpt lat="42.74882" lon="-8.5898567"><ele>58.25</ele><time>2026-04-17T06:38:34.846Z</time></trkpt><trkpt lat="42.748955" lon="-8.5899133"><ele>56.5</ele><time>2026-04-17T06:38:35.845Z</time></trkpt><trkpt lat="42.7490783" lon="-8.590015"><ele>54.75</ele><time>2026-04-17T06:38:36.846Z</time></trkpt><trkpt lat="42.749195" lon="-8.59016"><ele>53.0</ele><time>2026-04-17T06:38:37.846Z</time></trkpt><trkpt lat="42.7493117" lon="-8.5903183"><ele>54.0</ele><time>2026-04-17T06:38:38.845Z</time></trkpt><trkpt lat="42.74942" lon="-8.5904717"><ele>55.0</ele><time>2026-04-17T06:38:39.845Z</time></trkpt><trkpt lat="42.7495217" lon="-8.5906117"><ele>56.0</ele><time>2026-04-17T06:38:40.845Z</time></trkpt><trkpt lat="42.7496083" lon="-8.5907333"><ele>57.0</ele><time>2026-04-17T06:38:41.845Z</time></trkpt><trkpt lat="42.7496567" lon="-8.5908667"><ele>57.0</ele><time>2026-04-17T06:38:42.845Z</time></trkpt><trkpt lat="42.7496783" lon="-8.59104"><ele>57.0</ele><time>2026-04-17T06:38:43.845Z</time></trkpt><trkpt lat="42.749665" lon="-8.591225"><ele>57.0</ele><time>2026-04-17T06:38:44.846Z</time></trkpt><trkpt lat="42.74962" lon="-8.5914133"><ele>57.0</ele><time>2026-04-17T06:38:45.845Z</time></trkpt><trkpt lat="42.749565" lon="-8.59162"><ele>60.33333333333333</ele><time>2026-04-17T06:38:46.846Z</time></trkpt><trkpt lat="42.7495167" lon="-8.591825"><ele>63.666666666666664</ele><time>2026-04-17T06:38:47.846Z</time></trkpt><trkpt lat="42.7494883" lon="-8.5920483"><ele>67.0</ele><time>2026-04-17T06:38:48.846Z</time></trkpt><trkpt lat="42.74949" lon="-8.592245"><ele>67.66666666666666</ele><time>2026-04-17T06:38:49.846Z</time></trkpt><trkpt lat="42.7495" lon="-8.5924733"><ele>68.33333333333333</ele><time>2026-04-17T06:38:50.845Z</time></trkpt><trkpt lat="42.7494967" lon="-8.59271"><ele>69.0</ele><time>2026-04-17T06:38:51.846Z</time></trkpt><trkpt lat="42.7494783" lon="-8.59291"><ele>69.25</ele><time>2026-04-17T06:38:52.845Z</time></trkpt><trkpt lat="42.7494683" lon="-8.5930933"><ele>69.5</ele><time>2026-04-17T06:38:53.845Z</time></trkpt><trkpt lat="42.74949" lon="-8.5932617"><ele>69.75</ele><time>2026-04-17T06:38:54.845Z</time></trkpt><trkpt lat="42.7495433" lon="-8.5934283"><ele>70.0</ele><time>2026-04-17T06:38:55.846Z</time></trkpt><trkpt lat="42.749625" lon="-8.5935817"><ele>70.0</ele><time>2026-04-17T06:38:56.845Z</time></trkpt><trkpt lat="42.74974" lon="-8.5937317"><ele>70.0</ele><time>2026-04-17T06:38:57.845Z</time></trkpt><trkpt lat="42.74984" lon="-8.5938983"><ele>70.0</ele><time>2026-04-17T06:38:58.846Z</time></trkpt><trkpt lat="42.749935" lon="-8.5940767"><ele>70.0</ele><time>2026-04-17T06:38:59.846Z</time></trkpt><trkpt lat="42.7500133" lon="-8.5942683"><ele>70.0</ele><time>2026-04-17T06:39:00.845Z</time></trkpt><trkpt lat="42.75009" lon="-8.5944817"><ele>70.0</ele><time>2026-04-17T06:39:01.845Z</time></trkpt><trkpt lat="42.7501233" lon="-8.5946983"><ele>71.0</ele><time>2026-04-17T06:39:02.846Z</time></trkpt><trkpt lat="42.7501133" lon="-8.5949183"><ele>72.0</ele><time>2026-04-17T06:39:03.846Z</time></trkpt><trkpt lat="42.7500733" lon="-8.5951483"><ele>73.0</ele><time>2026-04-17T06:39:04.845Z</time></trkpt><trkpt lat="42.75001" lon="-8.5953517"><ele>74.0</ele><time>2026-04-17T06:39:05.846Z</time></trkpt><trkpt lat="42.7499617" lon="-8.595535"><ele>75.0</ele><time>2026-04-17T06:39:06.845Z</time></trkpt><trkpt lat="42.749955" lon="-8.5957283"><ele>76.0</ele><time>2026-04-17T06:39:07.845Z</time></trkpt><trkpt lat="42.7499767" lon="-8.59589"><ele>77.0</ele><time>2026-04-17T06:39:08.846Z</time></trkpt><trkpt lat="42.75003" lon="-8.5960517"><ele>79.33333333333334</ele><time>2026-04-17T06:39:09.846Z</time></trkpt><trkpt lat="42.75012" lon="-8.5962133"><ele>81.66666666666667</ele><time>2026-04-17T06:39:10.845Z</time></trkpt><trkpt lat="42.7502117" lon="-8.5963867"><ele>84.0</ele><time>2026-04-17T06:39:11.846Z</time></trkpt><trkpt lat="42.750305" lon="-8.5965817"><ele>85.0</ele><time>2026-04-17T06:39:12.846Z</time></trkpt><trkpt lat="42.7503933" lon="-8.5967817"><ele>86.0</ele><time>2026-04-17T06:39:13.846Z</time></trkpt><trkpt lat="42.750495" lon="-8.5969833"><ele>87.0</ele><time>2026-04-17T06:39:14.846Z</time></trkpt><trkpt lat="42.7506" lon="-8.5971833"><ele>85.0</ele><time>2026-04-17T06:39:15.846Z</time></trkpt><trkpt lat="42.7507067" lon="-8.5973717"><ele>83.0</ele><time>2026-04-17T06:39:16.846Z</time></trkpt><trkpt lat="42.7508133" lon="-8.5975433"><ele>81.0</ele><time>2026-04-17T06:39:17.846Z</time></trkpt><trkpt lat="42.75091" lon="-8.5976867"><ele>80.5</ele><time>2026-04-17T06:39:18.846Z</time></trkpt><trkpt lat="42.751" lon="-8.5978483"><ele>80.0</ele><time>2026-04-17T06:39:19.845Z</time></trkpt><trkpt lat="42.7510883" lon="-8.5980067"><ele>79.5</ele><time>2026-04-17T06:39:20.846Z</time></trkpt><trkpt lat="42.7511683" lon="-8.598155"><ele>79.0</ele><time>2026-04-17T06:39:21.845Z</time></trkpt><trkpt lat="42.7512317" lon="-8.5983033"><ele>79.0</ele><time>2026-04-17T06:39:22.845Z</time></trkpt><trkpt lat="42.7512733" lon="-8.598465"><ele>79.0</ele><time>2026-04-17T06:39:23.846Z</time></trkpt><trkpt lat="42.7513033" lon="-8.59863"><ele>79.0</ele><time>2026-04-17T06:39:24.845Z</time></trkpt><trkpt lat="42.751325" lon="-8.5988"><ele>79.0</ele><time>2026-04-17T06:39:25.845Z</time></trkpt><trkpt lat="42.751345" lon="-8.5989667"><ele>78.0</ele><time>2026-04-17T06:39:26.845Z</time></trkpt><trkpt lat="42.7513633" lon="-8.599125"><ele>77.0</ele><time>2026-04-17T06:39:27.845Z</time></trkpt><trkpt lat="42.75138" lon="-8.599285"><ele>76.0</ele><time>2026-04-17T06:39:28.846Z</time></trkpt><trkpt lat="42.7513983" lon="-8.59944"><ele>75.0</ele><time>2026-04-17T06:39:29.846Z</time></trkpt><trkpt lat="42.7514133" lon="-8.59959"><ele>73.8</ele><time>2026-04-17T06:39:30.846Z</time></trkpt><trkpt lat="42.7514283" lon="-8.599735"><ele>72.6</ele><time>2026-04-17T06:39:31.845Z</time></trkpt><trkpt lat="42.7514417" lon="-8.5998833"><ele>71.4</ele><time>2026-04-17T06:39:32.845Z</time></trkpt><trkpt lat="42.75145" lon="-8.6000183"><ele>70.2</ele><time>2026-04-17T06:39:33.846Z</time></trkpt><trkpt lat="42.7514517" lon="-8.6001467"><ele>69.0</ele><time>2026-04-17T06:39:34.845Z</time></trkpt><trkpt lat="42.7514483" lon="-8.6002867"><ele>67.60000000000001</ele><time>2026-04-17T06:39:35.846Z</time></trkpt><trkpt lat="42.7514467" lon="-8.6004233"><ele>66.2</ele><time>2026-04-17T06:39:36.845Z</time></trkpt><trkpt lat="42.75144" lon="-8.600555"><ele>64.80000000000001</ele><time>2026-04-17T06:39:37.845Z</time></trkpt><trkpt lat="42.7514317" lon="-8.6006767"><ele>63.400000000000006</ele><time>2026-04-17T06:39:38.846Z</time></trkpt><trkpt lat="42.7514167" lon="-8.6008017"><ele>62.0</ele><time>2026-04-17T06:39:39.845Z</time></trkpt><trkpt lat="42.75139" lon="-8.6009433"><ele>62.0</ele><time>2026-04-17T06:39:40.846Z</time></trkpt><trkpt lat="42.7513683" lon="-8.6010983"><ele>62.0</ele><time>2026-04-17T06:39:41.846Z</time></trkpt><trkpt lat="42.7513417" lon="-8.6012783"><ele>62.0</ele><time>2026-04-17T06:39:42.845Z</time></trkpt><trkpt lat="42.7513167" lon="-8.601465"><ele>62.0</ele><time>2026-04-17T06:39:43.846Z</time></trkpt><trkpt lat="42.751285" lon="-8.6016533"><ele>61.0</ele><time>2026-04-17T06:39:44.846Z</time></trkpt><trkpt lat="42.7512567" lon="-8.6018533"><ele>60.0</ele><time>2026-04-17T06:39:45.845Z</time></trkpt><trkpt lat="42.7512217" lon="-8.6020433"><ele>59.0</ele><time>2026-04-17T06:39:46.845Z</time></trkpt><trkpt lat="42.7511917" lon="-8.6022333"><ele>58.0</ele><time>2026-04-17T06:39:47.846Z</time></trkpt><trkpt lat="42.75117" lon="-8.60243"><ele>57.5</ele><time>2026-04-17T06:39:48.845Z</time></trkpt><trkpt lat="42.751135" lon="-8.60263"><ele>57.0</ele><time>2026-04-17T06:39:49.846Z</time></trkpt><trkpt lat="42.7511083" lon="-8.602815"><ele>56.5</ele><time>2026-04-17T06:39:50.845Z</time></trkpt><trkpt lat="42.751085" lon="-8.6029933"><ele>56.0</ele><time>2026-04-17T06:39:51.846Z</time></trkpt><trkpt lat="42.75107" lon="-8.6031833"><ele>54.333333333333336</ele><time>2026-04-17T06:39:52.845Z</time></trkpt><trkpt lat="42.7510367" lon="-8.6033967"><ele>52.66666666666667</ele><time>2026-04-17T06:39:53.845Z</time></trkpt><trkpt lat="42.7510017" lon="-8.6036167"><ele>51.0</ele><time>2026-04-17T06:39:54.845Z</time></trkpt><trkpt lat="42.7509633" lon="-8.6038433"><ele>51.0</ele><time>2026-04-17T06:39:55.845Z</time></trkpt><trkpt lat="42.75093" lon="-8.6040817"><ele>51.0</ele><time>2026-04-17T06:39:56.845Z</time></trkpt><trkpt lat="42.7509017" lon="-8.6043233"><ele>51.0</ele><time>2026-04-17T06:39:57.845Z</time></trkpt><trkpt lat="42.75086" lon="-8.6045683"><ele>50.33333333333333</ele><time>2026-04-17T06:39:58.845Z</time></trkpt><trkpt lat="42.7508167" lon="-8.6048217"><ele>49.666666666666664</ele><time>2026-04-17T06:39:59.845Z</time></trkpt><trkpt lat="42.75078" lon="-8.605075"><ele>49.0</ele><time>2026-04-17T06:40:00.845Z</time></trkpt><trkpt lat="42.7507517" lon="-8.6053283"><ele>49.33333333333333</ele><time>2026-04-17T06:40:01.845Z</time></trkpt><trkpt lat="42.75072" lon="-8.60557"><ele>49.66666666666667</ele><time>2026-04-17T06:40:02.845Z</time></trkpt><trkpt lat="42.7506883" lon="-8.6058017"><ele>50.0</ele><time>2026-04-17T06:40:03.845Z</time></trkpt><trkpt lat="42.7506617" lon="-8.6060217"><ele>49.66666666666667</ele><time>2026-04-17T06:40:04.845Z</time></trkpt><trkpt lat="42.7506283" lon="-8.60627"><ele>49.33333333333333</ele><time>2026-04-17T06:40:05.845Z</time></trkpt><trkpt lat="42.7505917" lon="-8.6064717"><ele>49.0</ele><time>2026-04-17T06:40:06.846Z</time></trkpt><trkpt lat="42.75056" lon="-8.6066867"><ele>49.0</ele><time>2026-04-17T06:40:07.845Z</time></trkpt><trkpt lat="42.7505317" lon="-8.6069033"><ele>49.0</ele><time>2026-04-17T06:40:08.845Z</time></trkpt><trkpt lat="42.7505117" lon="-8.607115"><ele>49.0</ele><time>2026-04-17T06:40:09.846Z</time></trkpt><trkpt lat="42.7504767" lon="-8.6073017"><ele>49.0</ele><time>2026-04-17T06:40:10.845Z</time></trkpt><trkpt lat="42.7504433" lon="-8.6074983"><ele>49.0</ele><time>2026-04-17T06:40:11.845Z</time></trkpt><trkpt lat="42.750415" lon="-8.6076967"><ele>49.0</ele><time>2026-04-17T06:40:12.846Z</time></trkpt><trkpt lat="42.75039" lon="-8.6078817"><ele>49.0</ele><time>2026-04-17T06:40:13.845Z</time></trkpt><trkpt lat="42.7503583" lon="-8.60805"><ele>49.666666666666664</ele><time>2026-04-17T06:40:14.846Z</time></trkpt><trkpt lat="42.7503083" lon="-8.6082533"><ele>50.33333333333333</ele><time>2026-04-17T06:40:15.846Z</time></trkpt><trkpt lat="42.7502783" lon="-8.608465"><ele>51.0</ele><time>2026-04-17T06:40:16.846Z</time></trkpt><trkpt lat="42.7502417" lon="-8.608675"><ele>50.0</ele><time>2026-04-17T06:40:17.846Z</time></trkpt><trkpt lat="42.7502217" lon="-8.60889"><ele>49.0</ele><time>2026-04-17T06:40:18.845Z</time></trkpt><trkpt lat="42.7502033" lon="-8.6090833"><ele>48.0</ele><time>2026-04-17T06:40:19.846Z</time></trkpt><trkpt lat="42.7501817" lon="-8.60927"><ele>47.0</ele><time>2026-04-17T06:40:20.845Z</time></trkpt><trkpt lat="42.7501533" lon="-8.6094533"><ele>45.33333333333333</ele><time>2026-04-17T06:40:21.846Z</time></trkpt><trkpt lat="42.750125" lon="-8.6096467"><ele>43.666666666666664</ele><time>2026-04-17T06:40:22.846Z</time></trkpt><trkpt lat="42.7500917" lon="-8.6098483"><ele>42.0</ele><time>2026-04-17T06:40:23.845Z</time></trkpt><trkpt lat="42.7500517" lon="-8.6100567"><ele>42.0</ele><time>2026-04-17T06:40:24.846Z</time></trkpt><trkpt lat="42.75002" lon="-8.61026"><ele>42.0</ele><time>2026-04-17T06:40:25.846Z</time></trkpt><trkpt lat="42.749985" lon="-8.6104667"><ele>42.0</ele><time>2026-04-17T06:40:26.845Z</time></trkpt><trkpt lat="42.74995" lon="-8.61068"><ele>42.0</ele><time>2026-04-17T06:40:27.845Z</time></trkpt><trkpt lat="42.7499083" lon="-8.6108883"><ele>42.0</ele><time>2026-04-17T06:40:28.845Z</time></trkpt><trkpt lat="42.7498733" lon="-8.611105"><ele>42.0</ele><time>2026-04-17T06:40:29.845Z</time></trkpt><trkpt lat="42.749845" lon="-8.611305"><ele>42.0</ele><time>2026-04-17T06:40:30.845Z</time></trkpt><trkpt lat="42.7498183" lon="-8.611505"><ele>42.0</ele><time>2026-04-17T06:40:31.846Z</time></trkpt><trkpt lat="42.7497967" lon="-8.6117183"><ele>42.0</ele><time>2026-04-17T06:40:32.846Z</time></trkpt><trkpt lat="42.7497767" lon="-8.61192"><ele>43.0</ele><time>2026-04-17T06:40:33.845Z</time></trkpt><trkpt lat="42.7497517" lon="-8.61214"><ele>44.0</ele><time>2026-04-17T06:40:34.846Z</time></trkpt><trkpt lat="42.7497267" lon="-8.6123733"><ele>45.0</ele><time>2026-04-17T06:40:35.845Z</time></trkpt><trkpt lat="42.74969" lon="-8.6126067"><ele>46.0</ele><time>2026-04-17T06:40:36.845Z</time></trkpt><trkpt lat="42.7496467" lon="-8.6128517"><ele>47.0</ele><time>2026-04-17T06:40:37.845Z</time></trkpt><trkpt lat="42.7496067" lon="-8.6130917"><ele>48.0</ele><time>2026-04-17T06:40:38.845Z</time></trkpt><trkpt lat="42.7495683" lon="-8.613325"><ele>48.0</ele><time>2026-04-17T06:40:39.846Z</time></trkpt><trkpt lat="42.74953" lon="-8.61357"><ele>48.0</ele><time>2026-04-17T06:40:40.845Z</time></trkpt><trkpt lat="42.7494833" lon="-8.6138083"><ele>48.0</ele><time>2026-04-17T06:40:41.846Z</time></trkpt><trkpt lat="42.7494317" lon="-8.614045"><ele>47.333333333333336</ele><time>2026-04-17T06:40:42.845Z</time></trkpt><trkpt lat="42.7493733" lon="-8.6142783"><ele>46.66666666666667</ele><time>2026-04-17T06:40:43.846Z</time></trkpt><trkpt lat="42.7493217" lon="-8.614525"><ele>46.0</ele><time>2026-04-17T06:40:44.846Z</time></trkpt><trkpt lat="42.7492733" lon="-8.61475"><ele>48.0</ele><time>2026-04-17T06:40:45.845Z</time></trkpt><trkpt lat="42.7492417" lon="-8.6149567"><ele>50.0</ele><time>2026-04-17T06:40:46.846Z</time></trkpt><trkpt lat="42.74922" lon="-8.61515"><ele>52.0</ele><time>2026-04-17T06:40:47.846Z</time></trkpt><trkpt lat="42.7492" lon="-8.61534"><ele>54.0</ele><time>2026-04-17T06:40:48.845Z</time></trkpt><trkpt lat="42.7491667" lon="-8.61551"><ele>57.75</ele><time>2026-04-17T06:40:49.846Z</time></trkpt><trkpt lat="42.7491167" lon="-8.6156183"><ele>61.5</ele><time>2026-04-17T06:40:50.845Z</time></trkpt><trkpt lat="42.7490417" lon="-8.615735"><ele>65.25</ele><time>2026-04-17T06:40:51.845Z</time></trkpt><trkpt lat="42.7489383" lon="-8.615825"><ele>69.0</ele><time>2026-04-17T06:40:52.846Z</time></trkpt><trkpt lat="42.7488083" lon="-8.6158567"><ele>69.0</ele><time>2026-04-17T06:40:53.845Z</time></trkpt><trkpt lat="42.74868" lon="-8.615905"><ele>69.0</ele><time>2026-04-17T06:40:54.846Z</time></trkpt><trkpt lat="42.74853" lon="-8.6159667"><ele>69.0</ele><time>2026-04-17T06:40:55.845Z</time></trkpt><trkpt lat="42.7483783" lon="-8.61605"><ele>68.0</ele><time>2026-04-17T06:40:56.845Z</time></trkpt><trkpt lat="42.74829" lon="-8.6161067"><ele>67.0</ele><time>2026-04-17T06:40:57.845Z</time></trkpt><trkpt lat="42.7481517" lon="-8.6161683"><ele>66.0</ele><time>2026-04-17T06:40:58.845Z</time></trkpt><trkpt lat="42.7480083" lon="-8.61619"><ele>65.0</ele><time>2026-04-17T06:40:59.845Z</time></trkpt><trkpt lat="42.7478583" lon="-8.6161933"><ele>65.5</ele><time>2026-04-17T06:41:00.845Z</time></trkpt><trkpt lat="42.7476967" lon="-8.616125"><ele>66.0</ele><time>2026-04-17T06:41:01.846Z</time></trkpt><trkpt lat="42.7475767" lon="-8.61601"><ele>66.5</ele><time>2026-04-17T06:41:02.845Z</time></trkpt><trkpt lat="42.7474833" lon="-8.6158867"><ele>67.0</ele><time>2026-04-17T06:41:03.845Z</time></trkpt><trkpt lat="42.7473833" lon="-8.6157633"><ele>67.0</ele><time>2026-04-17T06:41:04.845Z</time></trkpt><trkpt lat="42.7473083" lon="-8.6156617"><ele>67.0</ele><time>2026-04-17T06:41:05.846Z</time></trkpt><trkpt lat="42.747225" lon="-8.6155717"><ele>67.0</ele><time>2026-04-17T06:41:06.845Z</time></trkpt><trkpt lat="42.747135" lon="-8.6155167"><ele>67.0</ele><time>2026-04-17T06:41:07.845Z</time></trkpt><trkpt lat="42.747035" lon="-8.6154883"><ele>67.0</ele><time>2026-04-17T06:41:08.845Z</time></trkpt><trkpt lat="42.7469383" lon="-8.6154767"><ele>65.8</ele><time>2026-04-17T06:41:09.845Z</time></trkpt><trkpt lat="42.74685" lon="-8.615495"><ele>64.6</ele><time>2026-04-17T06:41:10.845Z</time></trkpt><trkpt lat="42.7467667" lon="-8.6155433"><ele>63.39999999999999</ele><time>2026-04-17T06:41:11.846Z</time></trkpt><trkpt lat="42.7467" lon="-8.6156333"><ele>62.199999999999996</ele><time>2026-04-17T06:41:12.846Z</time></trkpt><trkpt lat="42.7466217" lon="-8.6157817"><ele>61.0</ele><time>2026-04-17T06:41:13.846Z</time></trkpt><trkpt lat="42.7465367" lon="-8.6159467"><ele>61.0</ele><time>2026-04-17T06:41:14.845Z</time></trkpt><trkpt lat="42.7464533" lon="-8.6161167"><ele>61.0</ele><time>2026-04-17T06:41:15.846Z</time></trkpt><trkpt lat="42.7463883" lon="-8.6162883"><ele>61.0</ele><time>2026-04-17T06:41:16.845Z</time></trkpt><trkpt lat="42.7463233" lon="-8.6164533"><ele>61.0</ele><time>2026-04-17T06:41:17.845Z</time></trkpt><trkpt lat="42.74627" lon="-8.6166"><ele>63.0</ele><time>2026-04-17T06:41:18.846Z</time></trkpt><trkpt lat="42.7462333" lon="-8.6167533"><ele>65.0</ele><time>2026-04-17T06:41:19.846Z</time></trkpt><trkpt lat="42.7462117" lon="-8.6169067"><ele>67.0</ele><time>2026-04-17T06:41:20.845Z</time></trkpt><trkpt lat="42.7462" lon="-8.6170617"><ele>69.0</ele><time>2026-04-17T06:41:21.846Z</time></trkpt><trkpt lat="42.746195" lon="-8.6172317"><ele>70.0</ele><time>2026-04-17T06:41:22.845Z</time></trkpt><trkpt lat="42.746185" lon="-8.6173967"><ele>71.0</ele><time>2026-04-17T06:41:23.845Z</time></trkpt><trkpt lat="42.7461683" lon="-8.617565"><ele>72.0</ele><time>2026-04-17T06:41:24.845Z</time></trkpt><trkpt lat="42.7461783" lon="-8.6177233"><ele>73.0</ele><time>2026-04-17T06:41:25.846Z</time></trkpt><trkpt lat="42.7461867" lon="-8.6178617"><ele>73.6</ele><time>2026-04-17T06:41:26.846Z</time></trkpt><trkpt lat="42.7461883" lon="-8.618"><ele>74.19999999999999</ele><time>2026-04-17T06:41:27.845Z</time></trkpt><trkpt lat="42.746195" lon="-8.61815"><ele>74.8</ele><time>2026-04-17T06:41:28.845Z</time></trkpt><trkpt lat="42.7462117" lon="-8.6182967"><ele>75.39999999999999</ele><time>2026-04-17T06:41:29.846Z</time></trkpt><trkpt lat="42.74622" lon="-8.6184483"><ele>76.0</ele><time>2026-04-17T06:41:30.845Z</time></trkpt><trkpt lat="42.746225" lon="-8.618595"><ele>76.39999999999999</ele><time>2026-04-17T06:41:31.846Z</time></trkpt><trkpt lat="42.7462417" lon="-8.61874"><ele>76.8</ele><time>2026-04-17T06:41:32.845Z</time></trkpt><trkpt lat="42.746265" lon="-8.6188783"><ele>77.19999999999999</ele><time>2026-04-17T06:41:33.845Z</time></trkpt><trkpt lat="42.7463083" lon="-8.6190183"><ele>77.6</ele><time>2026-04-17T06:41:34.845Z</time></trkpt><trkpt lat="42.746345" lon="-8.61916"><ele>78.0</ele><time>2026-04-17T06:41:35.845Z</time></trkpt><trkpt lat="42.74637" lon="-8.6193017"><ele>78.0</ele><time>2026-04-17T06:41:36.846Z</time></trkpt><trkpt lat="42.7463833" lon="-8.6194433"><ele>78.0</ele><time>2026-04-17T06:41:37.846Z</time></trkpt><trkpt lat="42.7463817" lon="-8.6195683"><ele>78.0</ele><time>2026-04-17T06:41:38.845Z</time></trkpt><trkpt lat="42.7463717" lon="-8.6196883"><ele>78.0</ele><time>2026-04-17T06:41:39.845Z</time></trkpt><trkpt lat="42.746375" lon="-8.619805"><ele>78.0</ele><time>2026-04-17T06:41:40.845Z</time></trkpt><trkpt lat="42.7463667" lon="-8.6199267"><ele>78.33333333333333</ele><time>2026-04-17T06:41:41.845Z</time></trkpt><trkpt lat="42.7463517" lon="-8.6200267"><ele>78.66666666666667</ele><time>2026-04-17T06:41:42.846Z</time></trkpt><trkpt lat="42.74634" lon="-8.6201133"><ele>79.0</ele><time>2026-04-17T06:41:43.846Z</time></trkpt><trkpt lat="42.7463" lon="-8.6202617"><ele>79.33333333333334</ele><time>2026-04-17T06:41:45.845Z</time></trkpt><trkpt lat="42.746265" lon="-8.6203333"><ele>79.66666666666667</ele><time>2026-04-17T06:41:46.846Z</time></trkpt><trkpt lat="42.74616" lon="-8.6203833"><ele>80.0</ele><time>2026-04-17T06:41:48.847Z</time></trkpt><trkpt lat="42.7459583" lon="-8.6204267"><ele>80.0</ele><time>2026-04-17T06:41:50.846Z</time></trkpt><trkpt lat="42.74586" lon="-8.6204283"><ele>80.0</ele><time>2026-04-17T06:41:51.846Z</time></trkpt><trkpt lat="42.745765" lon="-8.6204217"><ele>80.0</ele><time>2026-04-17T06:41:52.846Z</time></trkpt><trkpt lat="42.7456667" lon="-8.6204183"><ele>80.0</ele><time>2026-04-17T06:41:53.847Z</time></trkpt><trkpt lat="42.7455783" lon="-8.6204317"><ele>80.0</ele><time>2026-04-17T06:41:54.847Z</time></trkpt><trkpt lat="42.7455" lon="-8.6204617"><ele>80.0</ele><time>2026-04-17T06:41:55.847Z</time></trkpt><trkpt lat="42.7454183" lon="-8.6205633"><ele>80.0</ele><time>2026-04-17T06:41:57.846Z</time></trkpt><trkpt lat="42.7453983" lon="-8.6206467"><ele>80.0</ele><time>2026-04-17T06:41:58.846Z</time></trkpt><trkpt lat="42.7453833" lon="-8.6207333"><ele>80.0</ele><time>2026-04-17T06:41:59.847Z</time></trkpt><trkpt lat="42.7453717" lon="-8.6208367"><ele>80.0</ele><time>2026-04-17T06:42:00.846Z</time></trkpt><trkpt lat="42.74536" lon="-8.6209583"><ele>80.0</ele><time>2026-04-17T06:42:01.847Z</time></trkpt><trkpt lat="42.74533" lon="-8.6211333"><ele>77.0</ele><time>2026-04-17T06:42:02.847Z</time></trkpt><trkpt lat="42.7452767" lon="-8.6213467"><ele>74.0</ele><time>2026-04-17T06:42:03.846Z</time></trkpt><trkpt lat="42.7452017" lon="-8.62158"><ele>71.0</ele><time>2026-04-17T06:42:04.846Z</time></trkpt><trkpt lat="42.7451033" lon="-8.6217783"><ele>71.0</ele><time>2026-04-17T06:42:05.846Z</time></trkpt><trkpt lat="42.744995" lon="-8.621965"><ele>71.0</ele><time>2026-04-17T06:42:06.847Z</time></trkpt><trkpt lat="42.7448667" lon="-8.6221367"><ele>71.0</ele><time>2026-04-17T06:42:07.847Z</time></trkpt><trkpt lat="42.7447217" lon="-8.62229"><ele>74.0</ele><time>2026-04-17T06:42:08.847Z</time></trkpt><trkpt lat="42.7445383" lon="-8.6224017"><ele>77.0</ele><time>2026-04-17T06:42:09.846Z</time></trkpt><trkpt lat="42.7443333" lon="-8.6225017"><ele>80.0</ele><time>2026-04-17T06:42:10.846Z</time></trkpt><trkpt lat="42.744135" lon="-8.6225917"><ele>80.0</ele><time>2026-04-17T06:42:11.847Z</time></trkpt><trkpt lat="42.74394" lon="-8.6227317"><ele>80.0</ele><time>2026-04-17T06:42:12.846Z</time></trkpt><trkpt lat="42.7437517" lon="-8.6228867"><ele>80.0</ele><time>2026-04-17T06:42:13.846Z</time></trkpt><trkpt lat="42.7435783" lon="-8.6230467"><ele>83.0</ele><time>2026-04-17T06:42:14.846Z</time></trkpt><trkpt lat="42.7434067" lon="-8.6232033"><ele>86.0</ele><time>2026-04-17T06:42:15.846Z</time></trkpt><trkpt lat="42.7432583" lon="-8.6233583"><ele>89.0</ele><time>2026-04-17T06:42:16.847Z</time></trkpt><trkpt lat="42.7431" lon="-8.62352"><ele>90.66666666666667</ele><time>2026-04-17T06:42:17.847Z</time></trkpt><trkpt lat="42.7429483" lon="-8.6237"><ele>92.33333333333333</ele><time>2026-04-17T06:42:18.846Z</time></trkpt><trkpt lat="42.7428033" lon="-8.62389"><ele>94.0</ele><time>2026-04-17T06:42:19.846Z</time></trkpt><trkpt lat="42.7426567" lon="-8.624085"><ele>94.0</ele><time>2026-04-17T06:42:20.847Z</time></trkpt><trkpt lat="42.74252" lon="-8.6242683"><ele>94.0</ele><time>2026-04-17T06:42:21.847Z</time></trkpt><trkpt lat="42.74239" lon="-8.6244417"><ele>94.0</ele><time>2026-04-17T06:42:22.846Z</time></trkpt><trkpt lat="42.74226" lon="-8.6246083"><ele>99.33333333333333</ele><time>2026-04-17T06:42:23.846Z</time></trkpt><trkpt lat="42.7421433" lon="-8.6247733"><ele>104.66666666666666</ele><time>2026-04-17T06:42:24.847Z</time></trkpt><trkpt lat="42.742055" lon="-8.62493"><ele>110.0</ele><time>2026-04-17T06:42:25.847Z</time></trkpt><trkpt lat="42.7419967" lon="-8.6251117"><ele>110.0</ele><time>2026-04-17T06:42:26.846Z</time></trkpt><trkpt lat="42.7419583" lon="-8.6253017"><ele>110.0</ele><time>2026-04-17T06:42:27.846Z</time></trkpt><trkpt lat="42.7419667" lon="-8.6254683"><ele>110.0</ele><time>2026-04-17T06:42:28.847Z</time></trkpt><trkpt lat="42.7419517" lon="-8.6256217"><ele>110.0</ele><time>2026-04-17T06:42:29.846Z</time></trkpt><trkpt lat="42.7418883" lon="-8.625755"><ele>108.75</ele><time>2026-04-17T06:42:30.847Z</time></trkpt><trkpt lat="42.7417967" lon="-8.6258367"><ele>107.5</ele><time>2026-04-17T06:42:31.847Z</time></trkpt><trkpt lat="42.741685" lon="-8.6258983"><ele>106.25</ele><time>2026-04-17T06:42:32.846Z</time></trkpt><trkpt lat="42.74156" lon="-8.62592"><ele>105.0</ele><time>2026-04-17T06:42:33.846Z</time></trkpt><trkpt lat="42.7414133" lon="-8.62594"><ele>105.0</ele><time>2026-04-17T06:42:34.846Z</time></trkpt><trkpt lat="42.7412617" lon="-8.6259633"><ele>105.0</ele><time>2026-04-17T06:42:35.846Z</time></trkpt><trkpt lat="42.7411033" lon="-8.6259833"><ele>105.0</ele><time>2026-04-17T06:42:36.846Z</time></trkpt><trkpt lat="42.74093" lon="-8.62602"><ele>100.66666666666667</ele><time>2026-04-17T06:42:37.847Z</time></trkpt><trkpt lat="42.7407533" lon="-8.6260467"><ele>96.33333333333334</ele><time>2026-04-17T06:42:38.846Z</time></trkpt><trkpt lat="42.7405733" lon="-8.62608"><ele>92.0</ele><time>2026-04-17T06:42:39.846Z</time></trkpt><trkpt lat="42.74039" lon="-8.6261183"><ele>99.66666666666667</ele><time>2026-04-17T06:42:40.846Z</time></trkpt><trkpt lat="42.740205" lon="-8.626155"><ele>107.33333333333334</ele><time>2026-04-17T06:42:41.846Z</time></trkpt><trkpt lat="42.7400233" lon="-8.6261967"><ele>115.0</ele><time>2026-04-17T06:42:42.847Z</time></trkpt><trkpt lat="42.7398433" lon="-8.62622"><ele>115.0</ele><time>2026-04-17T06:42:43.847Z</time></trkpt><trkpt lat="42.73968" lon="-8.6262167"><ele>115.0</ele><time>2026-04-17T06:42:44.847Z</time></trkpt><trkpt lat="42.73952" lon="-8.6262033"><ele>115.0</ele><time>2026-04-17T06:42:45.847Z</time></trkpt><trkpt lat="42.7393633" lon="-8.626205"><ele>113.33333333333334</ele><time>2026-04-17T06:42:46.847Z</time></trkpt><trkpt lat="42.7391967" lon="-8.6262367"><ele>111.66666666666666</ele><time>2026-04-17T06:42:47.846Z</time></trkpt><trkpt lat="42.7390367" lon="-8.6262917"><ele>110.0</ele><time>2026-04-17T06:42:48.847Z</time></trkpt><trkpt lat="42.73886" lon="-8.6263533"><ele>110.0</ele><time>2026-04-17T06:42:49.846Z</time></trkpt><trkpt lat="42.7386783" lon="-8.62641"><ele>110.0</ele><time>2026-04-17T06:42:50.847Z</time></trkpt><trkpt lat="42.7384967" lon="-8.6264583"><ele>110.0</ele><time>2026-04-17T06:42:51.847Z</time></trkpt><trkpt lat="42.7383083" lon="-8.6265033"><ele>107.0</ele><time>2026-04-17T06:42:52.847Z</time></trkpt><trkpt lat="42.73813" lon="-8.626565"><ele>104.0</ele><time>2026-04-17T06:42:53.846Z</time></trkpt><trkpt lat="42.7379633" lon="-8.626635"><ele>101.0</ele><time>2026-04-17T06:42:54.847Z</time></trkpt><trkpt lat="42.7378167" lon="-8.626715"><ele>99.5</ele><time>2026-04-17T06:42:55.847Z</time></trkpt><trkpt lat="42.7376833" lon="-8.626825"><ele>98.0</ele><time>2026-04-17T06:42:56.846Z</time></trkpt><trkpt lat="42.7375817" lon="-8.6269717"><ele>96.5</ele><time>2026-04-17T06:42:57.846Z</time></trkpt><trkpt lat="42.73751" lon="-8.62713"><ele>95.0</ele><time>2026-04-17T06:42:58.846Z</time></trkpt><trkpt lat="42.7374633" lon="-8.627285"><ele>95.0</ele><time>2026-04-17T06:42:59.847Z</time></trkpt><trkpt lat="42.7374467" lon="-8.627435"><ele>95.0</ele><time>2026-04-17T06:43:00.846Z</time></trkpt><trkpt lat="42.73746" lon="-8.6275633"><ele>95.0</ele><time>2026-04-17T06:43:01.846Z</time></trkpt><trkpt lat="42.73752" lon="-8.62768"><ele>95.0</ele><time>2026-04-17T06:43:02.846Z</time></trkpt><trkpt lat="42.737625" lon="-8.6277883"><ele>95.0</ele><time>2026-04-17T06:43:03.846Z</time></trkpt><trkpt lat="42.737765" lon="-8.62789"><ele>93.33333333333334</ele><time>2026-04-17T06:43:04.846Z</time></trkpt><trkpt lat="42.7379117" lon="-8.628"><ele>91.66666666666667</ele><time>2026-04-17T06:43:05.846Z</time></trkpt><trkpt lat="42.7380533" lon="-8.6281267"><ele>90.0</ele><time>2026-04-17T06:43:06.847Z</time></trkpt><trkpt lat="42.738185" lon="-8.62828"><ele>90.0</ele><time>2026-04-17T06:43:07.846Z</time></trkpt><trkpt lat="42.738325" lon="-8.6284367"><ele>90.0</ele><time>2026-04-17T06:43:08.846Z</time></trkpt><trkpt lat="42.738445" lon="-8.628595"><ele>90.0</ele><time>2026-04-17T06:43:09.846Z</time></trkpt><trkpt lat="42.7385667" lon="-8.6287633"><ele>89.66666666666667</ele><time>2026-04-17T06:43:10.847Z</time></trkpt><trkpt lat="42.7386767" lon="-8.6289317"><ele>89.33333333333334</ele><time>2026-04-17T06:43:11.847Z</time></trkpt><trkpt lat="42.7387783" lon="-8.6290983"><ele>89.0</ele><time>2026-04-17T06:43:12.847Z</time></trkpt><trkpt lat="42.73888" lon="-8.6292667"><ele>89.0</ele><time>2026-04-17T06:43:13.847Z</time></trkpt><trkpt lat="42.7389683" lon="-8.6294283"><ele>89.0</ele><time>2026-04-17T06:43:14.846Z</time></trkpt><trkpt lat="42.739045" lon="-8.6296083"><ele>89.0</ele><time>2026-04-17T06:43:15.846Z</time></trkpt><trkpt lat="42.7391067" lon="-8.6298067"><ele>86.33333333333334</ele><time>2026-04-17T06:43:16.846Z</time></trkpt><trkpt lat="42.7391483" lon="-8.6300283"><ele>83.66666666666667</ele><time>2026-04-17T06:43:17.846Z</time></trkpt><trkpt lat="42.7391817" lon="-8.6302533"><ele>81.0</ele><time>2026-04-17T06:43:18.846Z</time></trkpt><trkpt lat="42.7392133" lon="-8.6304733"><ele>80.66666666666667</ele><time>2026-04-17T06:43:19.846Z</time></trkpt><trkpt lat="42.7392633" lon="-8.6306817"><ele>80.33333333333334</ele><time>2026-04-17T06:43:20.847Z</time></trkpt><trkpt lat="42.73932" lon="-8.6308833"><ele>80.0</ele><time>2026-04-17T06:43:21.846Z</time></trkpt><trkpt lat="42.7394083" lon="-8.631045"><ele>77.75</ele><time>2026-04-17T06:43:22.847Z</time></trkpt><trkpt lat="42.7395183" lon="-8.6311817"><ele>75.5</ele><time>2026-04-17T06:43:23.847Z</time></trkpt><trkpt lat="42.7396317" lon="-8.6313033"><ele>73.25</ele><time>2026-04-17T06:43:24.847Z</time></trkpt><trkpt lat="42.739765" lon="-8.6313967"><ele>71.0</ele><time>2026-04-17T06:43:25.847Z</time></trkpt><trkpt lat="42.7398933" lon="-8.6314733"><ele>71.0</ele><time>2026-04-17T06:43:26.846Z</time></trkpt><trkpt lat="42.7400033" lon="-8.6315483"><ele>71.0</ele><time>2026-04-17T06:43:27.847Z</time></trkpt><trkpt lat="42.7401017" lon="-8.63165"><ele>71.0</ele><time>2026-04-17T06:43:28.847Z</time></trkpt><trkpt lat="42.740175" lon="-8.6317867"><ele>71.0</ele><time>2026-04-17T06:43:29.847Z</time></trkpt><trkpt lat="42.7402083" lon="-8.6319583"><ele>70.75</ele><time>2026-04-17T06:43:30.846Z</time></trkpt><trkpt lat="42.7402033" lon="-8.6321367"><ele>70.5</ele><time>2026-04-17T06:43:31.846Z</time></trkpt><trkpt lat="42.7401483" lon="-8.6323083"><ele>70.25</ele><time>2026-04-17T06:43:32.846Z</time></trkpt><trkpt lat="42.7400583" lon="-8.6324433"><ele>70.0</ele><time>2026-04-17T06:43:33.846Z</time></trkpt><trkpt lat="42.73996" lon="-8.632555"><ele>70.0</ele><time>2026-04-17T06:43:34.846Z</time></trkpt><trkpt lat="42.7398233" lon="-8.6326217"><ele>70.0</ele><time>2026-04-17T06:43:35.846Z</time></trkpt><trkpt lat="42.7396817" lon="-8.6326667"><ele>70.0</ele><time>2026-04-17T06:43:36.847Z</time></trkpt><trkpt lat="42.7395317" lon="-8.6327233"><ele>70.0</ele><time>2026-04-17T06:43:37.847Z</time></trkpt><trkpt lat="42.73939" lon="-8.6328033"><ele>66.0</ele><time>2026-04-17T06:43:38.846Z</time></trkpt><trkpt lat="42.73925" lon="-8.6329183"><ele>62.0</ele><time>2026-04-17T06:43:39.847Z</time></trkpt><trkpt lat="42.7391317" lon="-8.6330667"><ele>58.0</ele><time>2026-04-17T06:43:40.847Z</time></trkpt><trkpt lat="42.7390267" lon="-8.6332417"><ele>58.0</ele><time>2026-04-17T06:43:41.846Z</time></trkpt><trkpt lat="42.738955" lon="-8.6334333"><ele>58.0</ele><time>2026-04-17T06:43:42.846Z</time></trkpt><trkpt lat="42.73889" lon="-8.6336417"><ele>58.0</ele><time>2026-04-17T06:43:43.846Z</time></trkpt><trkpt lat="42.738835" lon="-8.6338583"><ele>57.666666666666664</ele><time>2026-04-17T06:43:44.846Z</time></trkpt><trkpt lat="42.7387733" lon="-8.6340817"><ele>57.33333333333333</ele><time>2026-04-17T06:43:45.847Z</time></trkpt><trkpt lat="42.738705" lon="-8.6343083"><ele>57.0</ele><time>2026-04-17T06:43:46.846Z</time></trkpt><trkpt lat="42.738635" lon="-8.63453"><ele>56.0</ele><time>2026-04-17T06:43:47.846Z</time></trkpt><trkpt lat="42.7385633" lon="-8.634755"><ele>55.0</ele><time>2026-04-17T06:43:48.847Z</time></trkpt><trkpt lat="42.7385" lon="-8.6349983"><ele>54.0</ele><time>2026-04-17T06:43:49.846Z</time></trkpt><trkpt lat="42.7384267" lon="-8.6352233"><ele>50.666666666666664</ele><time>2026-04-17T06:43:50.846Z</time></trkpt><trkpt lat="42.7383567" lon="-8.6354567"><ele>47.33333333333333</ele><time>2026-04-17T06:43:51.847Z</time></trkpt><trkpt lat="42.7382867" lon="-8.63569"><ele>44.0</ele><time>2026-04-17T06:43:52.846Z</time></trkpt><trkpt lat="42.7382317" lon="-8.6359283"><ele>43.666666666666664</ele><time>2026-04-17T06:43:53.846Z</time></trkpt><trkpt lat="42.73816" lon="-8.6361733"><ele>43.333333333333336</ele><time>2026-04-17T06:43:54.847Z</time></trkpt><trkpt lat="42.7380933" lon="-8.636405"><ele>43.0</ele><time>2026-04-17T06:43:55.847Z</time></trkpt><trkpt lat="42.7380333" lon="-8.6366283"><ele>43.0</ele><time>2026-04-17T06:43:56.846Z</time></trkpt><trkpt lat="42.737975" lon="-8.63686"><ele>43.0</ele><time>2026-04-17T06:43:57.847Z</time></trkpt><trkpt lat="42.737915" lon="-8.637095"><ele>43.0</ele><time>2026-04-17T06:43:58.846Z</time></trkpt><trkpt lat="42.737845" lon="-8.6373267"><ele>43.333333333333336</ele><time>2026-04-17T06:43:59.846Z</time></trkpt><trkpt lat="42.737785" lon="-8.6375617"><ele>43.666666666666664</ele><time>2026-04-17T06:44:00.846Z</time></trkpt><trkpt lat="42.737725" lon="-8.6377983"><ele>44.0</ele><time>2026-04-17T06:44:01.847Z</time></trkpt><trkpt lat="42.7376683" lon="-8.6380283"><ele>44.0</ele><time>2026-04-17T06:44:02.846Z</time></trkpt><trkpt lat="42.7375967" lon="-8.6382683"><ele>44.0</ele><time>2026-04-17T06:44:03.846Z</time></trkpt><trkpt lat="42.73752" lon="-8.6385067"><ele>44.0</ele><time>2026-04-17T06:44:04.846Z</time></trkpt><trkpt lat="42.7374533" lon="-8.6387317"><ele>44.33333333333333</ele><time>2026-04-17T06:44:05.846Z</time></trkpt><trkpt lat="42.737385" lon="-8.6389683"><ele>44.666666666666664</ele><time>2026-04-17T06:44:06.847Z</time></trkpt><trkpt lat="42.737315" lon="-8.63919"><ele>45.0</ele><time>2026-04-17T06:44:07.847Z</time></trkpt><trkpt lat="42.737225" lon="-8.639415"><ele>45.0</ele><time>2026-04-17T06:44:08.846Z</time></trkpt><trkpt lat="42.7371667" lon="-8.6396517"><ele>45.0</ele><time>2026-04-17T06:44:09.846Z</time></trkpt><trkpt lat="42.7371017" lon="-8.6398883"><ele>45.0</ele><time>2026-04-17T06:44:10.847Z</time></trkpt><trkpt lat="42.7370517" lon="-8.640125"><ele>46.0</ele><time>2026-04-17T06:44:11.846Z</time></trkpt><trkpt lat="42.7369883" lon="-8.6403667"><ele>47.0</ele><time>2026-04-17T06:44:12.847Z</time></trkpt><trkpt lat="42.7369267" lon="-8.6406117"><ele>48.0</ele><time>2026-04-17T06:44:13.847Z</time></trkpt><trkpt lat="42.7368617" lon="-8.6408567"><ele>48.33333333333333</ele><time>2026-04-17T06:44:14.846Z</time></trkpt><trkpt lat="42.7367967" lon="-8.64111"><ele>48.666666666666664</ele><time>2026-04-17T06:44:15.846Z</time></trkpt><trkpt lat="42.7367383" lon="-8.64135"><ele>49.0</ele><time>2026-04-17T06:44:16.847Z</time></trkpt><trkpt lat="42.7366733" lon="-8.641575"><ele>49.0</ele><time>2026-04-17T06:44:17.846Z</time></trkpt><trkpt lat="42.7366133" lon="-8.6418033"><ele>49.0</ele><time>2026-04-17T06:44:18.846Z</time></trkpt><trkpt lat="42.7365417" lon="-8.6420133"><ele>49.0</ele><time>2026-04-17T06:44:19.847Z</time></trkpt><trkpt lat="42.7364583" lon="-8.6422083"><ele>49.33333333333333</ele><time>2026-04-17T06:44:20.846Z</time></trkpt><trkpt lat="42.7363767" lon="-8.642435"><ele>49.66666666666667</ele><time>2026-04-17T06:44:21.846Z</time></trkpt><trkpt lat="42.736305" lon="-8.64267"><ele>50.0</ele><time>2026-04-17T06:44:22.847Z</time></trkpt><trkpt lat="42.7362433" lon="-8.642915"><ele>50.333333333333336</ele><time>2026-04-17T06:44:23.846Z</time></trkpt><trkpt lat="42.7362033" lon="-8.6431333"><ele>50.66666666666667</ele><time>2026-04-17T06:44:24.846Z</time></trkpt><trkpt lat="42.7361633" lon="-8.64335"><ele>51.0</ele><time>2026-04-17T06:44:25.846Z</time></trkpt><trkpt lat="42.7361267" lon="-8.6435633"><ele>50.66666666666667</ele><time>2026-04-17T06:44:26.847Z</time></trkpt><trkpt lat="42.736085" lon="-8.64377"><ele>50.333333333333336</ele><time>2026-04-17T06:44:27.847Z</time></trkpt><trkpt lat="42.73604" lon="-8.64398"><ele>50.0</ele><time>2026-04-17T06:44:28.846Z</time></trkpt><trkpt lat="42.7359867" lon="-8.6441867"><ele>47.333333333333336</ele><time>2026-04-17T06:44:29.846Z</time></trkpt><trkpt lat="42.735955" lon="-8.6443817"><ele>44.66666666666667</ele><time>2026-04-17T06:44:30.846Z</time></trkpt><trkpt lat="42.7359033" lon="-8.6445883"><ele>42.0</ele><time>2026-04-17T06:44:31.846Z</time></trkpt><trkpt lat="42.7358483" lon="-8.6447817"><ele>41.5</ele><time>2026-04-17T06:44:32.847Z</time></trkpt><trkpt lat="42.7358017" lon="-8.644965"><ele>41.0</ele><time>2026-04-17T06:44:33.847Z</time></trkpt><trkpt lat="42.7357467" lon="-8.6451467"><ele>40.5</ele><time>2026-04-17T06:44:34.846Z</time></trkpt><trkpt lat="42.7357" lon="-8.6453117"><ele>40.0</ele><time>2026-04-17T06:44:35.847Z</time></trkpt><trkpt lat="42.7356433" lon="-8.6454683"><ele>40.0</ele><time>2026-04-17T06:44:36.847Z</time></trkpt><trkpt lat="42.7355883" lon="-8.64561"><ele>40.0</ele><time>2026-04-17T06:44:37.847Z</time></trkpt><trkpt lat="42.7355433" lon="-8.645755"><ele>40.0</ele><time>2026-04-17T06:44:38.846Z</time></trkpt><trkpt lat="42.7354983" lon="-8.6459033"><ele>40.0</ele><time>2026-04-17T06:44:39.846Z</time></trkpt><trkpt lat="42.7354633" lon="-8.6460483"><ele>40.16666666666667</ele><time>2026-04-17T06:44:40.846Z</time></trkpt><trkpt lat="42.73543" lon="-8.6462"><ele>40.333333333333336</ele><time>2026-04-17T06:44:41.846Z</time></trkpt><trkpt lat="42.7354217" lon="-8.6463167"><ele>40.5</ele><time>2026-04-17T06:44:42.846Z</time></trkpt><trkpt lat="42.73543" lon="-8.6464133"><ele>40.666666666666664</ele><time>2026-04-17T06:44:43.846Z</time></trkpt><trkpt lat="42.7354317" lon="-8.6465033"><ele>40.83333333333333</ele><time>2026-04-17T06:44:44.846Z</time></trkpt><trkpt lat="42.7353767" lon="-8.6466133"><ele>41.0</ele><time>2026-04-17T06:44:46.846Z</time></trkpt><trkpt lat="42.73523" lon="-8.64652"><ele>39.5</ele><time>2026-04-17T06:44:48.847Z</time></trkpt><trkpt lat="42.735135" lon="-8.646415"><ele>38.0</ele><time>2026-04-17T06:44:49.846Z</time></trkpt><trkpt lat="42.735025" lon="-8.6463117"><ele>36.5</ele><time>2026-04-17T06:44:50.847Z</time></trkpt><trkpt lat="42.7349233" lon="-8.6461883"><ele>35.0</ele><time>2026-04-17T06:44:51.846Z</time></trkpt><trkpt lat="42.7348283" lon="-8.64604"><ele>35.0</ele><time>2026-04-17T06:44:52.846Z</time></trkpt><trkpt lat="42.7347333" lon="-8.6458833"><ele>35.0</ele><time>2026-04-17T06:44:53.847Z</time></trkpt><trkpt lat="42.734625" lon="-8.6457283"><ele>35.0</ele><time>2026-04-17T06:44:54.847Z</time></trkpt><trkpt lat="42.7344967" lon="-8.64561"><ele>35.666666666666664</ele><time>2026-04-17T06:44:55.847Z</time></trkpt><trkpt lat="42.7343467" lon="-8.6455183"><ele>36.333333333333336</ele><time>2026-04-17T06:44:56.846Z</time></trkpt><trkpt lat="42.7342" lon="-8.6454583"><ele>37.0</ele><time>2026-04-17T06:44:57.846Z</time></trkpt><trkpt lat="42.73404" lon="-8.6454217"><ele>37.0</ele><time>2026-04-17T06:44:58.846Z</time></trkpt><trkpt lat="42.7338783" lon="-8.64539"><ele>37.0</ele><time>2026-04-17T06:44:59.846Z</time></trkpt><trkpt lat="42.7337133" lon="-8.6453617"><ele>37.0</ele><time>2026-04-17T06:45:00.847Z</time></trkpt><trkpt lat="42.73359" lon="-8.6453467"><ele>36.0</ele><time>2026-04-17T06:45:01.847Z</time></trkpt><trkpt lat="42.73345" lon="-8.6453533"><ele>35.0</ele><time>2026-04-17T06:45:02.846Z</time></trkpt><trkpt lat="42.7333167" lon="-8.6453583"><ele>34.0</ele><time>2026-04-17T06:45:03.846Z</time></trkpt><trkpt lat="42.7331833" lon="-8.645345"><ele>33.0</ele><time>2026-04-17T06:45:04.847Z</time></trkpt><trkpt lat="42.7330683" lon="-8.64533"><ele>33.0</ele><time>2026-04-17T06:45:05.847Z</time></trkpt><trkpt lat="42.7329367" lon="-8.6453217"><ele>33.0</ele><time>2026-04-17T06:45:06.847Z</time></trkpt><trkpt lat="42.7328183" lon="-8.6453233"><ele>33.0</ele><time>2026-04-17T06:45:07.847Z</time></trkpt><trkpt lat="42.7327133" lon="-8.6453433"><ele>33.0</ele><time>2026-04-17T06:45:08.847Z</time></trkpt><trkpt lat="42.7325883" lon="-8.6453917"><ele>32.25</ele><time>2026-04-17T06:45:09.847Z</time></trkpt><trkpt lat="42.732455" lon="-8.6454583"><ele>31.5</ele><time>2026-04-17T06:45:10.846Z</time></trkpt><trkpt lat="42.7323333" lon="-8.6455333"><ele>30.75</ele><time>2026-04-17T06:45:11.846Z</time></trkpt><trkpt lat="42.7322333" lon="-8.6456133"><ele>30.0</ele><time>2026-04-17T06:45:12.846Z</time></trkpt><trkpt lat="42.73215" lon="-8.6456917"><ele>30.0</ele><time>2026-04-17T06:45:13.847Z</time></trkpt><trkpt lat="42.7320717" lon="-8.6457367"><ele>30.0</ele><time>2026-04-17T06:45:14.846Z</time></trkpt><trkpt lat="42.7319783" lon="-8.64574"><ele>30.0</ele><time>2026-04-17T06:45:15.846Z</time></trkpt><trkpt lat="42.7319" lon="-8.6457133"><ele>30.0</ele><time>2026-04-17T06:45:16.846Z</time></trkpt><trkpt lat="42.73183" lon="-8.6456667"><ele>30.0</ele><time>2026-04-17T06:45:17.846Z</time></trkpt><trkpt lat="42.73178" lon="-8.645605"><ele>30.0</ele><time>2026-04-17T06:45:18.846Z</time></trkpt><trkpt lat="42.7317233" lon="-8.6455533"><ele>29.8</ele><time>2026-04-17T06:45:19.846Z</time></trkpt><trkpt lat="42.73159" lon="-8.6454983"><ele>29.6</ele><time>2026-04-17T06:45:21.847Z</time></trkpt><trkpt lat="42.7315067" lon="-8.64545"><ele>29.4</ele><time>2026-04-17T06:45:22.846Z</time></trkpt><trkpt lat="42.7314367" lon="-8.6453717"><ele>29.2</ele><time>2026-04-17T06:45:23.847Z</time></trkpt><trkpt lat="42.73139" lon="-8.645265"><ele>29.0</ele><time>2026-04-17T06:45:24.846Z</time></trkpt><trkpt lat="42.7313683" lon="-8.6451417"><ele>28.4</ele><time>2026-04-17T06:45:25.847Z</time></trkpt><trkpt lat="42.7313917" lon="-8.6450117"><ele>27.799999999999997</ele><time>2026-04-17T06:45:26.847Z</time></trkpt><trkpt lat="42.7314467" lon="-8.6449117"><ele>27.200000000000003</ele><time>2026-04-17T06:45:27.846Z</time></trkpt><trkpt lat="42.7315167" lon="-8.64486"><ele>26.6</ele><time>2026-04-17T06:45:28.846Z</time></trkpt><trkpt lat="42.731605" lon="-8.644845"><ele>26.0</ele><time>2026-04-17T06:45:29.847Z</time></trkpt><trkpt lat="42.7317033" lon="-8.6448767"><ele>26.0</ele><time>2026-04-17T06:45:30.847Z</time></trkpt><trkpt lat="42.7318283" lon="-8.64497"><ele>26.0</ele><time>2026-04-17T06:45:31.847Z</time></trkpt><trkpt lat="42.7319617" lon="-8.6450433"><ele>26.0</ele><time>2026-04-17T06:45:32.846Z</time></trkpt><trkpt lat="42.7321233" lon="-8.645085"><ele>27.333333333333332</ele><time>2026-04-17T06:45:33.847Z</time></trkpt><trkpt lat="42.732285" lon="-8.6450917"><ele>28.666666666666664</ele><time>2026-04-17T06:45:34.847Z</time></trkpt><trkpt lat="42.732445" lon="-8.64509"><ele>30.0</ele><time>2026-04-17T06:45:35.848Z</time></trkpt><trkpt lat="42.7326083" lon="-8.64508"><ele>31.333333333333336</ele><time>2026-04-17T06:45:36.848Z</time></trkpt><trkpt lat="42.732785" lon="-8.6450717"><ele>32.66666666666667</ele><time>2026-04-17T06:45:37.847Z</time></trkpt><trkpt lat="42.7329583" lon="-8.645065"><ele>34.0</ele><time>2026-04-17T06:45:38.847Z</time></trkpt><trkpt lat="42.73313" lon="-8.6450683"><ele>34.0</ele><time>2026-04-17T06:45:39.848Z</time></trkpt><trkpt lat="42.7333017" lon="-8.6450783"><ele>34.0</ele><time>2026-04-17T06:45:40.847Z</time></trkpt><trkpt lat="42.7334767" lon="-8.6450983"><ele>34.0</ele><time>2026-04-17T06:45:41.847Z</time></trkpt><trkpt lat="42.7336517" lon="-8.6451133"><ele>35.66666666666667</ele><time>2026-04-17T06:45:42.847Z</time></trkpt><trkpt lat="42.7338283" lon="-8.64514"><ele>37.333333333333336</ele><time>2026-04-17T06:45:43.847Z</time></trkpt><trkpt lat="42.7340117" lon="-8.645165"><ele>39.0</ele><time>2026-04-17T06:45:44.847Z</time></trkpt><trkpt lat="42.7341933" lon="-8.645205"><ele>39.0</ele><time>2026-04-17T06:45:45.848Z</time></trkpt><trkpt lat="42.7343817" lon="-8.64526"><ele>39.0</ele><time>2026-04-17T06:45:46.847Z</time></trkpt><trkpt lat="42.7345667" lon="-8.6453367"><ele>39.0</ele><time>2026-04-17T06:45:47.848Z</time></trkpt><trkpt lat="42.7347483" lon="-8.6454117"><ele>39.333333333333336</ele><time>2026-04-17T06:45:48.848Z</time></trkpt><trkpt lat="42.7349267" lon="-8.645505"><ele>39.66666666666667</ele><time>2026-04-17T06:45:49.847Z</time></trkpt><trkpt lat="42.7350983" lon="-8.6456067"><ele>40.0</ele><time>2026-04-17T06:45:50.848Z</time></trkpt><trkpt lat="42.7352667" lon="-8.64571"><ele>40.0</ele><time>2026-04-17T06:45:51.848Z</time></trkpt><trkpt lat="42.735425" lon="-8.6458233"><ele>40.0</ele><time>2026-04-17T06:45:52.848Z</time></trkpt><trkpt lat="42.7355933" lon="-8.645935"><ele>40.0</ele><time>2026-04-17T06:45:53.847Z</time></trkpt><trkpt lat="42.7357567" lon="-8.646065"><ele>40.333333333333336</ele><time>2026-04-17T06:45:54.847Z</time></trkpt><trkpt lat="42.7359167" lon="-8.6461783"><ele>40.666666666666664</ele><time>2026-04-17T06:45:55.847Z</time></trkpt><trkpt lat="42.7360867" lon="-8.6462867"><ele>41.0</ele><time>2026-04-17T06:45:56.847Z</time></trkpt><trkpt lat="42.7362583" lon="-8.6463917"><ele>47.0</ele><time>2026-04-17T06:45:57.848Z</time></trkpt><trkpt lat="42.7364267" lon="-8.64649"><ele>53.0</ele><time>2026-04-17T06:45:58.848Z</time></trkpt><trkpt lat="42.7366" lon="-8.646575"><ele>59.0</ele><time>2026-04-17T06:45:59.847Z</time></trkpt><trkpt lat="42.73678" lon="-8.64666"><ele>64.66666666666667</ele><time>2026-04-17T06:46:00.848Z</time></trkpt><trkpt lat="42.7369533" lon="-8.6467317"><ele>70.33333333333333</ele><time>2026-04-17T06:46:01.848Z</time></trkpt><trkpt lat="42.7371333" lon="-8.64679"><ele>76.0</ele><time>2026-04-17T06:46:02.848Z</time></trkpt><trkpt lat="42.7373167" lon="-8.6468383"><ele>76.0</ele><time>2026-04-17T06:46:03.847Z</time></trkpt><trkpt lat="42.7375017" lon="-8.6468683"><ele>76.0</ele><time>2026-04-17T06:46:04.847Z</time></trkpt><trkpt lat="42.737695" lon="-8.6468817"><ele>76.0</ele><time>2026-04-17T06:46:05.847Z</time></trkpt><trkpt lat="42.73789" lon="-8.6468867"><ele>74.66666666666666</ele><time>2026-04-17T06:46:06.847Z</time></trkpt><trkpt lat="42.7380817" lon="-8.6468983"><ele>73.33333333333333</ele><time>2026-04-17T06:46:07.847Z</time></trkpt><trkpt lat="42.73827" lon="-8.6469017"><ele>72.0</ele><time>2026-04-17T06:46:08.847Z</time></trkpt><trkpt lat="42.7384533" lon="-8.64689"><ele>68.66666666666667</ele><time>2026-04-17T06:46:09.847Z</time></trkpt><trkpt lat="42.7386317" lon="-8.646865"><ele>65.33333333333334</ele><time>2026-04-17T06:46:10.847Z</time></trkpt><trkpt lat="42.7388167" lon="-8.6468267"><ele>62.0</ele><time>2026-04-17T06:46:11.848Z</time></trkpt><trkpt lat="42.739" lon="-8.646785"><ele>62.0</ele><time>2026-04-17T06:46:12.848Z</time></trkpt><trkpt lat="42.7391783" lon="-8.64673"><ele>62.0</ele><time>2026-04-17T06:46:13.847Z</time></trkpt><trkpt lat="42.7393483" lon="-8.6466583"><ele>62.0</ele><time>2026-04-17T06:46:14.847Z</time></trkpt><trkpt lat="42.7395183" lon="-8.6465717"><ele>59.0</ele><time>2026-04-17T06:46:15.847Z</time></trkpt><trkpt lat="42.739685" lon="-8.6464717"><ele>56.0</ele><time>2026-04-17T06:46:16.848Z</time></trkpt><trkpt lat="42.7398533" lon="-8.6463667"><ele>53.0</ele><time>2026-04-17T06:46:17.848Z</time></trkpt><trkpt lat="42.7400183" lon="-8.646255"><ele>53.0</ele><time>2026-04-17T06:46:18.847Z</time></trkpt><trkpt lat="42.7401883" lon="-8.6461333"><ele>53.0</ele><time>2026-04-17T06:46:19.848Z</time></trkpt><trkpt lat="42.7403567" lon="-8.6460117"><ele>53.0</ele><time>2026-04-17T06:46:20.848Z</time></trkpt><trkpt lat="42.740525" lon="-8.6458917"><ele>52.66666666666667</ele><time>2026-04-17T06:46:21.847Z</time></trkpt><trkpt lat="42.740695" lon="-8.64577"><ele>52.33333333333333</ele><time>2026-04-17T06:46:22.848Z</time></trkpt><trkpt lat="42.7408667" lon="-8.645655"><ele>52.0</ele><time>2026-04-17T06:46:23.848Z</time></trkpt><trkpt lat="42.7410367" lon="-8.6455483"><ele>50.33333333333333</ele><time>2026-04-17T06:46:24.848Z</time></trkpt><trkpt lat="42.7412017" lon="-8.6454433"><ele>48.666666666666664</ele><time>2026-04-17T06:46:25.848Z</time></trkpt><trkpt lat="42.74138" lon="-8.6453483"><ele>47.0</ele><time>2026-04-17T06:46:26.847Z</time></trkpt><trkpt lat="42.74155" lon="-8.6452567"><ele>52.0</ele><time>2026-04-17T06:46:27.847Z</time></trkpt><trkpt lat="42.7417283" lon="-8.6451633"><ele>57.0</ele><time>2026-04-17T06:46:28.847Z</time></trkpt><trkpt lat="42.7418917" lon="-8.6450783"><ele>62.0</ele><time>2026-04-17T06:46:29.847Z</time></trkpt><trkpt lat="42.7420517" lon="-8.645005"><ele>63.333333333333336</ele><time>2026-04-17T06:46:30.847Z</time></trkpt><trkpt lat="42.7422333" lon="-8.64493"><ele>64.66666666666667</ele><time>2026-04-17T06:46:31.847Z</time></trkpt><trkpt lat="42.742405" lon="-8.6448633"><ele>66.0</ele><time>2026-04-17T06:46:32.847Z</time></trkpt><trkpt lat="42.7425833" lon="-8.6447883"><ele>67.0</ele><time>2026-04-17T06:46:33.848Z</time></trkpt><trkpt lat="42.742755" lon="-8.6447167"><ele>68.0</ele><time>2026-04-17T06:46:34.847Z</time></trkpt><trkpt lat="42.7429383" lon="-8.6446533"><ele>69.0</ele><time>2026-04-17T06:46:35.847Z</time></trkpt><trkpt lat="42.7431167" lon="-8.6445967"><ele>69.0</ele><time>2026-04-17T06:46:36.847Z</time></trkpt><trkpt lat="42.7432917" lon="-8.6445417"><ele>69.0</ele><time>2026-04-17T06:46:37.847Z</time></trkpt><trkpt lat="42.743475" lon="-8.6445"><ele>69.0</ele><time>2026-04-17T06:46:38.848Z</time></trkpt><trkpt lat="42.743655" lon="-8.6444617"><ele>69.33333333333333</ele><time>2026-04-17T06:46:39.847Z</time></trkpt><trkpt lat="42.7438433" lon="-8.644425"><ele>69.66666666666666</ele><time>2026-04-17T06:46:40.847Z</time></trkpt><trkpt lat="42.74402" lon="-8.6443867"><ele>70.0</ele><time>2026-04-17T06:46:41.848Z</time></trkpt><trkpt lat="42.744205" lon="-8.64437"><ele>72.0</ele><time>2026-04-17T06:46:42.847Z</time></trkpt><trkpt lat="42.74439" lon="-8.6443583"><ele>74.0</ele><time>2026-04-17T06:46:43.847Z</time></trkpt><trkpt lat="42.7445783" lon="-8.644355"><ele>76.0</ele><time>2026-04-17T06:46:44.847Z</time></trkpt><trkpt lat="42.7447633" lon="-8.6443533"><ele>76.0</ele><time>2026-04-17T06:46:45.847Z</time></trkpt><trkpt lat="42.744955" lon="-8.6443533"><ele>76.0</ele><time>2026-04-17T06:46:46.847Z</time></trkpt><trkpt lat="42.7451417" lon="-8.6443583"><ele>76.0</ele><time>2026-04-17T06:46:47.847Z</time></trkpt><trkpt lat="42.7453233" lon="-8.6443733"><ele>76.66666666666666</ele><time>2026-04-17T06:46:48.847Z</time></trkpt><trkpt lat="42.7455117" lon="-8.644395"><ele>77.33333333333333</ele><time>2026-04-17T06:46:49.848Z</time></trkpt><trkpt lat="42.7457067" lon="-8.6444267"><ele>78.0</ele><time>2026-04-17T06:46:50.847Z</time></trkpt><trkpt lat="42.7458967" lon="-8.6444683"><ele>72.33333333333333</ele><time>2026-04-17T06:46:51.847Z</time></trkpt><trkpt lat="42.7460833" lon="-8.64451"><ele>66.66666666666666</ele><time>2026-04-17T06:46:52.848Z</time></trkpt><trkpt lat="42.746265" lon="-8.6445517"><ele>61.0</ele><time>2026-04-17T06:46:53.847Z</time></trkpt><trkpt lat="42.7464517" lon="-8.64459"><ele>61.0</ele><time>2026-04-17T06:46:54.847Z</time></trkpt><trkpt lat="42.74664" lon="-8.64464"><ele>61.0</ele><time>2026-04-17T06:46:55.848Z</time></trkpt><trkpt lat="42.7468233" lon="-8.6447"><ele>61.0</ele><time>2026-04-17T06:46:56.848Z</time></trkpt><trkpt lat="42.7470083" lon="-8.644755"><ele>65.66666666666666</ele><time>2026-04-17T06:46:57.847Z</time></trkpt><trkpt lat="42.7471983" lon="-8.64483"><ele>70.33333333333333</ele><time>2026-04-17T06:46:58.847Z</time></trkpt><trkpt lat="42.7473833" lon="-8.6449017"><ele>75.0</ele><time>2026-04-17T06:46:59.848Z</time></trkpt><trkpt lat="42.747565" lon="-8.6449917"><ele>75.66666666666667</ele><time>2026-04-17T06:47:00.847Z</time></trkpt><trkpt lat="42.74774" lon="-8.6450817"><ele>76.33333333333334</ele><time>2026-04-17T06:47:01.848Z</time></trkpt><trkpt lat="42.74792" lon="-8.6451617"><ele>77.0</ele><time>2026-04-17T06:47:02.847Z</time></trkpt><trkpt lat="42.7481083" lon="-8.6452683"><ele>76.66666666666667</ele><time>2026-04-17T06:47:03.847Z</time></trkpt><trkpt lat="42.7482883" lon="-8.6453783"><ele>76.33333333333333</ele><time>2026-04-17T06:47:04.847Z</time></trkpt><trkpt lat="42.74846" lon="-8.64549"><ele>76.0</ele><time>2026-04-17T06:47:05.848Z</time></trkpt><trkpt lat="42.7486267" lon="-8.6456033"><ele>76.0</ele><time>2026-04-17T06:47:06.847Z</time></trkpt><trkpt lat="42.7488033" lon="-8.6457283"><ele>76.0</ele><time>2026-04-17T06:47:07.847Z</time></trkpt><trkpt lat="42.7489767" lon="-8.6458667"><ele>76.0</ele><time>2026-04-17T06:47:08.848Z</time></trkpt><trkpt lat="42.749145" lon="-8.6459933"><ele>76.0</ele><time>2026-04-17T06:47:09.847Z</time></trkpt><trkpt lat="42.7493133" lon="-8.6461217"><ele>76.0</ele><time>2026-04-17T06:47:10.848Z</time></trkpt><trkpt lat="42.7494833" lon="-8.646255"><ele>76.0</ele><time>2026-04-17T06:47:11.848Z</time></trkpt><trkpt lat="42.74965" lon="-8.6463933"><ele>79.0</ele><time>2026-04-17T06:47:12.847Z</time></trkpt><trkpt lat="42.7498167" lon="-8.6465583"><ele>82.0</ele><time>2026-04-17T06:47:13.848Z</time></trkpt><trkpt lat="42.7499717" lon="-8.64672"><ele>85.0</ele><time>2026-04-17T06:47:14.848Z</time></trkpt><trkpt lat="42.7501367" lon="-8.64689"><ele>81.66666666666666</ele><time>2026-04-17T06:47:15.847Z</time></trkpt><trkpt lat="42.7502917" lon="-8.647065"><ele>78.33333333333333</ele><time>2026-04-17T06:47:16.847Z</time></trkpt><trkpt lat="42.7504467" lon="-8.647235"><ele>75.0</ele><time>2026-04-17T06:47:17.848Z</time></trkpt><trkpt lat="42.7506" lon="-8.6474017"><ele>75.0</ele><time>2026-04-17T06:47:18.847Z</time></trkpt><trkpt lat="42.7507517" lon="-8.6475783"><ele>75.0</ele><time>2026-04-17T06:47:19.848Z</time></trkpt><trkpt lat="42.7508933" lon="-8.6477583"><ele>75.0</ele><time>2026-04-17T06:47:20.847Z</time></trkpt><trkpt lat="42.7510283" lon="-8.6479233"><ele>71.66666666666667</ele><time>2026-04-17T06:47:21.847Z</time></trkpt><trkpt lat="42.7511533" lon="-8.648085"><ele>68.33333333333334</ele><time>2026-04-17T06:47:22.847Z</time></trkpt><trkpt lat="42.7512817" lon="-8.648245"><ele>65.0</ele><time>2026-04-17T06:47:23.847Z</time></trkpt><trkpt lat="42.7514133" lon="-8.6484217"><ele>65.0</ele><time>2026-04-17T06:47:24.847Z</time></trkpt><trkpt lat="42.75154" lon="-8.6486"><ele>65.0</ele><time>2026-04-17T06:47:25.848Z</time></trkpt><trkpt lat="42.7516717" lon="-8.6487783"><ele>65.0</ele><time>2026-04-17T06:47:26.848Z</time></trkpt><trkpt lat="42.751825" lon="-8.6489483"><ele>66.33333333333334</ele><time>2026-04-17T06:47:27.847Z</time></trkpt><trkpt lat="42.7519717" lon="-8.6491167"><ele>67.66666666666667</ele><time>2026-04-17T06:47:28.847Z</time></trkpt><trkpt lat="42.75213" lon="-8.649265"><ele>69.0</ele><time>2026-04-17T06:47:29.847Z</time></trkpt><trkpt lat="42.7522883" lon="-8.6493867"><ele>69.0</ele><time>2026-04-17T06:47:30.847Z</time></trkpt><trkpt lat="42.7524517" lon="-8.649505"><ele>69.0</ele><time>2026-04-17T06:47:31.847Z</time></trkpt><trkpt lat="42.75262" lon="-8.6496067"><ele>69.0</ele><time>2026-04-17T06:47:32.847Z</time></trkpt><trkpt lat="42.75279" lon="-8.6496817"><ele>69.0</ele><time>2026-04-17T06:47:33.848Z</time></trkpt><trkpt lat="42.7529667" lon="-8.64975"><ele>69.0</ele><time>2026-04-17T06:47:34.847Z</time></trkpt><trkpt lat="42.7531417" lon="-8.6498117"><ele>69.0</ele><time>2026-04-17T06:47:35.848Z</time></trkpt><trkpt lat="42.753325" lon="-8.649865"><ele>69.0</ele><time>2026-04-17T06:47:36.847Z</time></trkpt><trkpt lat="42.7535117" lon="-8.6499017"><ele>69.0</ele><time>2026-04-17T06:47:37.848Z</time></trkpt><trkpt lat="42.7536967" lon="-8.64994"><ele>69.0</ele><time>2026-04-17T06:47:38.847Z</time></trkpt><trkpt lat="42.7538817" lon="-8.6499717"><ele>70.0</ele><time>2026-04-17T06:47:39.847Z</time></trkpt><trkpt lat="42.7540683" lon="-8.650005"><ele>71.0</ele><time>2026-04-17T06:47:40.847Z</time></trkpt><trkpt lat="42.7542483" lon="-8.65004"><ele>72.0</ele><time>2026-04-17T06:47:41.848Z</time></trkpt><trkpt lat="42.7544183" lon="-8.65007"><ele>69.0</ele><time>2026-04-17T06:47:42.848Z</time></trkpt><trkpt lat="42.7545767" lon="-8.65011"><ele>66.0</ele><time>2026-04-17T06:47:43.847Z</time></trkpt><trkpt lat="42.75473" lon="-8.6501533"><ele>63.0</ele><time>2026-04-17T06:47:44.848Z</time></trkpt><trkpt lat="42.7548767" lon="-8.6501983"><ele>63.0</ele><time>2026-04-17T06:47:45.847Z</time></trkpt><trkpt lat="42.75501" lon="-8.6502567"><ele>63.0</ele><time>2026-04-17T06:47:46.847Z</time></trkpt><trkpt lat="42.7551433" lon="-8.6503333"><ele>63.0</ele><time>2026-04-17T06:47:47.847Z</time></trkpt><trkpt lat="42.7552567" lon="-8.6504183"><ele>63.0</ele><time>2026-04-17T06:47:48.847Z</time></trkpt><trkpt lat="42.7553733" lon="-8.650515"><ele>54.25</ele><time>2026-04-17T06:47:49.848Z</time></trkpt><trkpt lat="42.7554717" lon="-8.6506117"><ele>45.5</ele><time>2026-04-17T06:47:50.848Z</time></trkpt><trkpt lat="42.7555783" lon="-8.6507333"><ele>36.75</ele><time>2026-04-17T06:47:51.848Z</time></trkpt><trkpt lat="42.7556683" lon="-8.6508533"><ele>28.0</ele><time>2026-04-17T06:47:52.847Z</time></trkpt><trkpt lat="42.7557333" lon="-8.650955"><ele>28.0</ele><time>2026-04-17T06:47:53.847Z</time></trkpt><trkpt lat="42.7557867" lon="-8.6510433"><ele>27.999999999999996</ele><time>2026-04-17T06:47:54.847Z</time></trkpt><trkpt lat="42.7558233" lon="-8.6511183"><ele>27.999999999999996</ele><time>2026-04-17T06:47:55.847Z</time></trkpt><trkpt lat="42.7558533" lon="-8.6511967"><ele>28.0</ele><time>2026-04-17T06:47:56.847Z</time></trkpt><trkpt lat="42.755905" lon="-8.6513483"><ele>28.0</ele><time>2026-04-17T06:47:58.848Z</time></trkpt><trkpt lat="42.7559617" lon="-8.6514933"><ele>26.799999999999997</ele><time>2026-04-17T06:48:00.848Z</time></trkpt><trkpt lat="42.7560617" lon="-8.65161"><ele>25.599999999999998</ele><time>2026-04-17T06:48:02.848Z</time></trkpt><trkpt lat="42.7561283" lon="-8.6516717"><ele>24.4</ele><time>2026-04-17T06:48:03.847Z</time></trkpt><trkpt lat="42.75619" lon="-8.6517467"><ele>23.200000000000003</ele><time>2026-04-17T06:48:04.848Z</time></trkpt><trkpt lat="42.7562433" lon="-8.6518217"><ele>22.0</ele><time>2026-04-17T06:48:05.848Z</time></trkpt><trkpt lat="42.7562833" lon="-8.6519317"><ele>22.0</ele><time>2026-04-17T06:48:06.847Z</time></trkpt><trkpt lat="42.7562933" lon="-8.65204"><ele>22.0</ele><time>2026-04-17T06:48:07.848Z</time></trkpt><trkpt lat="42.7562633" lon="-8.652165"><ele>22.0</ele><time>2026-04-17T06:48:08.848Z</time></trkpt><trkpt lat="42.7562283" lon="-8.652305"><ele>22.0</ele><time>2026-04-17T06:48:09.847Z</time></trkpt><trkpt lat="42.7562117" lon="-8.6524617"><ele>22.0</ele><time>2026-04-17T06:48:10.848Z</time></trkpt><trkpt lat="42.756215" lon="-8.6526467"><ele>20.0</ele><time>2026-04-17T06:48:11.848Z</time></trkpt><trkpt lat="42.7561983" lon="-8.652835"><ele>18.0</ele><time>2026-04-17T06:48:12.848Z</time></trkpt><trkpt lat="42.75621" lon="-8.6530467"><ele>16.0</ele><time>2026-04-17T06:48:13.847Z</time></trkpt><trkpt lat="42.75623" lon="-8.6532617"><ele>16.0</ele><time>2026-04-17T06:48:14.848Z</time></trkpt><trkpt lat="42.7562533" lon="-8.6534817"><ele>16.0</ele><time>2026-04-17T06:48:15.847Z</time></trkpt><trkpt lat="42.7562667" lon="-8.653705"><ele>16.0</ele><time>2026-04-17T06:48:16.848Z</time></trkpt><trkpt lat="42.7562917" lon="-8.6539417"><ele>13.666666666666666</ele><time>2026-04-17T06:48:17.847Z</time></trkpt><trkpt lat="42.7563233" lon="-8.65418"><ele>11.333333333333332</ele><time>2026-04-17T06:48:18.848Z</time></trkpt><trkpt lat="42.7563567" lon="-8.6544217"><ele>9.0</ele><time>2026-04-17T06:48:19.848Z</time></trkpt><trkpt lat="42.7563917" lon="-8.6546633"><ele>9.0</ele><time>2026-04-17T06:48:20.847Z</time></trkpt><trkpt lat="42.7564317" lon="-8.6548983"><ele>9.0</ele><time>2026-04-17T06:48:21.848Z</time></trkpt><trkpt lat="42.75647" lon="-8.6551383"><ele>9.0</ele><time>2026-04-17T06:48:22.848Z</time></trkpt><trkpt lat="42.7565083" lon="-8.6553717"><ele>8.666666666666666</ele><time>2026-04-17T06:48:23.847Z</time></trkpt><trkpt lat="42.7565517" lon="-8.65562"><ele>8.333333333333332</ele><time>2026-04-17T06:48:24.848Z</time></trkpt><trkpt lat="42.756585" lon="-8.6558467"><ele>8.0</ele><time>2026-04-17T06:48:25.847Z</time></trkpt><trkpt lat="42.7566" lon="-8.6560767"><ele>7.0</ele><time>2026-04-17T06:48:26.848Z</time></trkpt><trkpt lat="42.7566133" lon="-8.6563067"><ele>6.0</ele><time>2026-04-17T06:48:27.848Z</time></trkpt><trkpt lat="42.7566167" lon="-8.6565283"><ele>5.0</ele><time>2026-04-17T06:48:28.847Z</time></trkpt><trkpt lat="42.7566167" lon="-8.6567433"><ele>5.0</ele><time>2026-04-17T06:48:29.847Z</time></trkpt><trkpt lat="42.7566167" lon="-8.6569467"><ele>5.0</ele><time>2026-04-17T06:48:30.847Z</time></trkpt><trkpt lat="42.7566133" lon="-8.657145"><ele>5.0</ele><time>2026-04-17T06:48:31.847Z</time></trkpt><trkpt lat="42.7566067" lon="-8.6573233"><ele>5.0</ele><time>2026-04-17T06:48:32.848Z</time></trkpt><trkpt lat="42.7565933" lon="-8.6574917"><ele>5.2</ele><time>2026-04-17T06:48:33.848Z</time></trkpt><trkpt lat="42.7565933" lon="-8.657645"><ele>5.4</ele><time>2026-04-17T06:48:34.847Z</time></trkpt><trkpt lat="42.756605" lon="-8.657785"><ele>5.6</ele><time>2026-04-17T06:48:35.848Z</time></trkpt><trkpt lat="42.7566033" lon="-8.6579217"><ele>5.8</ele><time>2026-04-17T06:48:36.848Z</time></trkpt><trkpt lat="42.7565817" lon="-8.6580567"><ele>6.0</ele><time>2026-04-17T06:48:37.848Z</time></trkpt><trkpt lat="42.7565267" lon="-8.6581967"><ele>6.25</ele><time>2026-04-17T06:48:38.847Z</time></trkpt><trkpt lat="42.7564717" lon="-8.65834"><ele>6.5</ele><time>2026-04-17T06:48:39.848Z</time></trkpt><trkpt lat="42.7564133" lon="-8.6584917"><ele>6.75</ele><time>2026-04-17T06:48:40.848Z</time></trkpt><trkpt lat="42.7563683" lon="-8.6586567"><ele>7.0</ele><time>2026-04-17T06:48:41.848Z</time></trkpt><trkpt lat="42.7563333" lon="-8.65884"><ele>7.0</ele><time>2026-04-17T06:48:42.847Z</time></trkpt><trkpt lat="42.7562767" lon="-8.659025"><ele>7.0</ele><time>2026-04-17T06:48:43.847Z</time></trkpt><trkpt lat="42.756205" lon="-8.65923"><ele>7.0</ele><time>2026-04-17T06:48:44.847Z</time></trkpt><trkpt lat="42.7561333" lon="-8.6594433"><ele>6.666666666666667</ele><time>2026-04-17T06:48:45.848Z</time></trkpt><trkpt lat="42.756055" lon="-8.6596583"><ele>6.333333333333334</ele><time>2026-04-17T06:48:46.847Z</time></trkpt><trkpt lat="42.7559667" lon="-8.6598683"><ele>6.0</ele><time>2026-04-17T06:48:47.847Z</time></trkpt><trkpt lat="42.7558683" lon="-8.660075"><ele>6.0</ele><time>2026-04-17T06:48:48.848Z</time></trkpt><trkpt lat="42.75577" lon="-8.66029"><ele>6.0</ele><time>2026-04-17T06:48:49.848Z</time></trkpt><trkpt lat="42.7556833" lon="-8.6605083"><ele>6.0</ele><time>2026-04-17T06:48:50.848Z</time></trkpt><trkpt lat="42.7555983" lon="-8.66073"><ele>6.0</ele><time>2026-04-17T06:48:51.847Z</time></trkpt><trkpt lat="42.7555267" lon="-8.6609517"><ele>6.0</ele><time>2026-04-17T06:48:52.847Z</time></trkpt><trkpt lat="42.75547" lon="-8.6611817"><ele>6.0</ele><time>2026-04-17T06:48:53.848Z</time></trkpt><trkpt lat="42.7554167" lon="-8.661415"><ele>6.0</ele><time>2026-04-17T06:48:54.847Z</time></trkpt><trkpt lat="42.7553683" lon="-8.66165"><ele>6.0</ele><time>2026-04-17T06:48:55.847Z</time></trkpt><trkpt lat="42.7553433" lon="-8.6619117"><ele>6.0</ele><time>2026-04-17T06:48:56.848Z</time></trkpt><trkpt lat="42.7553317" lon="-8.662155"><ele>6.333333333333334</ele><time>2026-04-17T06:48:57.848Z</time></trkpt><trkpt lat="42.7553267" lon="-8.6623933"><ele>6.666666666666667</ele><time>2026-04-17T06:48:58.847Z</time></trkpt><trkpt lat="42.7553583" lon="-8.66262"><ele>7.0</ele><time>2026-04-17T06:48:59.847Z</time></trkpt><trkpt lat="42.7554033" lon="-8.6628517"><ele>7.0</ele><time>2026-04-17T06:49:00.847Z</time></trkpt><trkpt lat="42.7554533" lon="-8.6630967"><ele>7.0</ele><time>2026-04-17T06:49:01.847Z</time></trkpt><trkpt lat="42.7555117" lon="-8.663325"><ele>7.0</ele><time>2026-04-17T06:49:02.848Z</time></trkpt><trkpt lat="42.75558" lon="-8.6635467"><ele>7.666666666666667</ele><time>2026-04-17T06:49:03.847Z</time></trkpt><trkpt lat="42.7556583" lon="-8.6637483"><ele>8.333333333333334</ele><time>2026-04-17T06:49:04.848Z</time></trkpt><trkpt lat="42.755745" lon="-8.66397"><ele>9.0</ele><time>2026-04-17T06:49:05.847Z</time></trkpt><trkpt lat="42.7558283" lon="-8.6641817"><ele>9.0</ele><time>2026-04-17T06:49:06.848Z</time></trkpt><trkpt lat="42.7558933" lon="-8.6643933"><ele>9.0</ele><time>2026-04-17T06:49:07.847Z</time></trkpt><trkpt lat="42.755965" lon="-8.6646167"><ele>9.0</ele><time>2026-04-17T06:49:08.848Z</time></trkpt><trkpt lat="42.75604" lon="-8.664845"><ele>9.0</ele><time>2026-04-17T06:49:09.848Z</time></trkpt><trkpt lat="42.7561133" lon="-8.6650683"><ele>9.0</ele><time>2026-04-17T06:49:10.847Z</time></trkpt><trkpt lat="42.75618" lon="-8.66528"><ele>9.0</ele><time>2026-04-17T06:49:11.848Z</time></trkpt><trkpt lat="42.7562533" lon="-8.66549"><ele>9.666666666666666</ele><time>2026-04-17T06:49:12.847Z</time></trkpt><trkpt lat="42.7563317" lon="-8.6657133"><ele>10.333333333333332</ele><time>2026-04-17T06:49:13.847Z</time></trkpt><trkpt lat="42.7564083" lon="-8.665935"><ele>11.0</ele><time>2026-04-17T06:49:14.847Z</time></trkpt><trkpt lat="42.7564917" lon="-8.6661633"><ele>12.0</ele><time>2026-04-17T06:49:15.848Z</time></trkpt><trkpt lat="42.75657" lon="-8.6663933"><ele>13.0</ele><time>2026-04-17T06:49:16.847Z</time></trkpt><trkpt lat="42.7566483" lon="-8.66663"><ele>14.0</ele><time>2026-04-17T06:49:17.847Z</time></trkpt><trkpt lat="42.7567283" lon="-8.6668683"><ele>14.666666666666668</ele><time>2026-04-17T06:49:18.848Z</time></trkpt><trkpt lat="42.75681" lon="-8.667105"><ele>15.333333333333332</ele><time>2026-04-17T06:49:19.848Z</time></trkpt><trkpt lat="42.7568917" lon="-8.667335"><ele>16.0</ele><time>2026-04-17T06:49:20.848Z</time></trkpt><trkpt lat="42.75697" lon="-8.6675633"><ele>16.666666666666664</ele><time>2026-04-17T06:49:21.848Z</time></trkpt><trkpt lat="42.7570517" lon="-8.6677967"><ele>17.333333333333332</ele><time>2026-04-17T06:49:22.848Z</time></trkpt><trkpt lat="42.7571283" lon="-8.66803"><ele>18.0</ele><time>2026-04-17T06:49:23.849Z</time></trkpt><trkpt lat="42.7571917" lon="-8.6682683"><ele>18.0</ele><time>2026-04-17T06:49:24.849Z</time></trkpt><trkpt lat="42.7572583" lon="-8.66852"><ele>18.0</ele><time>2026-04-17T06:49:25.849Z</time></trkpt><trkpt lat="42.75731" lon="-8.6687683"><ele>18.0</ele><time>2026-04-17T06:49:26.848Z</time></trkpt><trkpt lat="42.7573667" lon="-8.669015"><ele>18.0</ele><time>2026-04-17T06:49:27.849Z</time></trkpt><trkpt lat="42.7573967" lon="-8.66924"><ele>18.0</ele><time>2026-04-17T06:49:28.848Z</time></trkpt><trkpt lat="42.75742" lon="-8.669435"><ele>18.0</ele><time>2026-04-17T06:49:29.849Z</time></trkpt><trkpt lat="42.7574433" lon="-8.6696117"><ele>18.0</ele><time>2026-04-17T06:49:30.848Z</time></trkpt><trkpt lat="42.75747" lon="-8.6697933"><ele>18.5</ele><time>2026-04-17T06:49:31.848Z</time></trkpt><trkpt lat="42.7574783" lon="-8.6699767"><ele>19.0</ele><time>2026-04-17T06:49:32.848Z</time></trkpt><trkpt lat="42.7574683" lon="-8.6701833"><ele>19.5</ele><time>2026-04-17T06:49:33.848Z</time></trkpt><trkpt lat="42.757455" lon="-8.670395"><ele>20.0</ele><time>2026-04-17T06:49:34.848Z</time></trkpt><trkpt lat="42.7574383" lon="-8.6706233"><ele>21.666666666666668</ele><time>2026-04-17T06:49:35.848Z</time></trkpt><trkpt lat="42.7574233" lon="-8.6708617"><ele>23.333333333333336</ele><time>2026-04-17T06:49:36.849Z</time></trkpt><trkpt lat="42.7574167" lon="-8.6711067"><ele>25.0</ele><time>2026-04-17T06:49:37.849Z</time></trkpt><trkpt lat="42.7574017" lon="-8.6713617"><ele>27.333333333333336</ele><time>2026-04-17T06:49:38.848Z</time></trkpt><trkpt lat="42.7573783" lon="-8.6716233"><ele>29.666666666666664</ele><time>2026-04-17T06:49:39.849Z</time></trkpt><trkpt lat="42.75737" lon="-8.67188"><ele>32.0</ele><time>2026-04-17T06:49:40.848Z</time></trkpt><trkpt lat="42.7573483" lon="-8.6721433"><ele>33.666666666666664</ele><time>2026-04-17T06:49:41.848Z</time></trkpt><trkpt lat="42.7573383" lon="-8.6724067"><ele>35.333333333333336</ele><time>2026-04-17T06:49:42.849Z</time></trkpt><trkpt lat="42.7573317" lon="-8.672685"><ele>37.0</ele><time>2026-04-17T06:49:43.849Z</time></trkpt><trkpt lat="42.75731" lon="-8.6729383"><ele>39.333333333333336</ele><time>2026-04-17T06:49:44.849Z</time></trkpt><trkpt lat="42.7572833" lon="-8.6731867"><ele>41.666666666666664</ele><time>2026-04-17T06:49:45.848Z</time></trkpt><trkpt lat="42.7572567" lon="-8.67344"><ele>44.0</ele><time>2026-04-17T06:49:46.848Z</time></trkpt><trkpt lat="42.75722" lon="-8.6736967"><ele>47.33333333333333</ele><time>2026-04-17T06:49:47.848Z</time></trkpt><trkpt lat="42.7571867" lon="-8.6739533"><ele>50.666666666666664</ele><time>2026-04-17T06:49:48.848Z</time></trkpt><trkpt lat="42.7571567" lon="-8.67421"><ele>54.0</ele><time>2026-04-17T06:49:49.848Z</time></trkpt><trkpt lat="42.7571167" lon="-8.6744567"><ele>55.66666666666667</ele><time>2026-04-17T06:49:50.849Z</time></trkpt><trkpt lat="42.7570567" lon="-8.674685"><ele>57.333333333333336</ele><time>2026-04-17T06:49:51.848Z</time></trkpt><trkpt lat="42.7570033" lon="-8.6749333"><ele>59.0</ele><time>2026-04-17T06:49:52.849Z</time></trkpt><trkpt lat="42.756935" lon="-8.675175"><ele>56.66666666666667</ele><time>2026-04-17T06:49:53.849Z</time></trkpt><trkpt lat="42.7568567" lon="-8.6754"><ele>54.33333333333333</ele><time>2026-04-17T06:49:54.849Z</time></trkpt><trkpt lat="42.756785" lon="-8.675605"><ele>52.0</ele><time>2026-04-17T06:49:55.848Z</time></trkpt><trkpt lat="42.756725" lon="-8.6757883"><ele>52.0</ele><time>2026-04-17T06:49:56.849Z</time></trkpt><trkpt lat="42.75665" lon="-8.6759433"><ele>52.0</ele><time>2026-04-17T06:49:57.848Z</time></trkpt><trkpt lat="42.75659" lon="-8.676105"><ele>52.0</ele><time>2026-04-17T06:49:58.848Z</time></trkpt><trkpt lat="42.7565233" lon="-8.6762483"><ele>52.0</ele><time>2026-04-17T06:49:59.849Z</time></trkpt><trkpt lat="42.756455" lon="-8.6763967"><ele>51.75</ele><time>2026-04-17T06:50:00.848Z</time></trkpt><trkpt lat="42.7563817" lon="-8.6765333"><ele>51.5</ele><time>2026-04-17T06:50:01.848Z</time></trkpt><trkpt lat="42.75631" lon="-8.6766483"><ele>51.25</ele><time>2026-04-17T06:50:02.848Z</time></trkpt><trkpt lat="42.7562417" lon="-8.6767683"><ele>51.0</ele><time>2026-04-17T06:50:03.848Z</time></trkpt><trkpt lat="42.7561683" lon="-8.6768733"><ele>50.4</ele><time>2026-04-17T06:50:04.848Z</time></trkpt><trkpt lat="42.7560983" lon="-8.6769783"><ele>49.8</ele><time>2026-04-17T06:50:05.849Z</time></trkpt><trkpt lat="42.7560383" lon="-8.677085"><ele>49.199999999999996</ele><time>2026-04-17T06:50:06.848Z</time></trkpt><trkpt lat="42.7559583" lon="-8.677175"><ele>48.599999999999994</ele><time>2026-04-17T06:50:07.848Z</time></trkpt><trkpt lat="42.755875" lon="-8.67727"><ele>48.0</ele><time>2026-04-17T06:50:08.848Z</time></trkpt><trkpt lat="42.7557883" lon="-8.6773767"><ele>48.166666666666664</ele><time>2026-04-17T06:50:09.849Z</time></trkpt><trkpt lat="42.755715" lon="-8.6774833"><ele>48.33333333333333</ele><time>2026-04-17T06:50:10.848Z</time></trkpt><trkpt lat="42.7556583" lon="-8.6775717"><ele>48.5</ele><time>2026-04-17T06:50:11.849Z</time></trkpt><trkpt lat="42.7556167" lon="-8.67766"><ele>48.666666666666664</ele><time>2026-04-17T06:50:12.849Z</time></trkpt><trkpt lat="42.755575" lon="-8.677745"><ele>48.83333333333333</ele><time>2026-04-17T06:50:13.849Z</time></trkpt><trkpt lat="42.7555367" lon="-8.6778433"><ele>49.0</ele><time>2026-04-17T06:50:14.848Z</time></trkpt><trkpt lat="42.7555283" lon="-8.6779683"><ele>49.0</ele><time>2026-04-17T06:50:15.849Z</time></trkpt><trkpt lat="42.7555333" lon="-8.67809"><ele>49.0</ele><time>2026-04-17T06:50:16.849Z</time></trkpt><trkpt lat="42.7555683" lon="-8.6782167"><ele>49.0</ele><time>2026-04-17T06:50:17.849Z</time></trkpt><trkpt lat="42.755645" lon="-8.678355"><ele>49.0</ele><time>2026-04-17T06:50:18.848Z</time></trkpt><trkpt lat="42.7557317" lon="-8.6784867"><ele>49.0</ele><time>2026-04-17T06:50:19.848Z</time></trkpt><trkpt lat="42.7558867" lon="-8.6786267"><ele>49.0</ele><time>2026-04-17T06:50:20.849Z</time></trkpt><trkpt lat="42.7560467" lon="-8.6787817"><ele>49.0</ele><time>2026-04-17T06:50:21.849Z</time></trkpt><trkpt lat="42.7562083" lon="-8.67895"><ele>49.0</ele><time>2026-04-17T06:50:22.848Z</time></trkpt><trkpt lat="42.7563283" lon="-8.6791483"><ele>49.0</ele><time>2026-04-17T06:50:23.848Z</time></trkpt><trkpt lat="42.7564117" lon="-8.6793567"><ele>49.0</ele><time>2026-04-17T06:50:24.849Z</time></trkpt><trkpt lat="42.75648" lon="-8.6795917"><ele>49.0</ele><time>2026-04-17T06:50:25.848Z</time></trkpt><trkpt lat="42.75654" lon="-8.679845"><ele>50.33333333333333</ele><time>2026-04-17T06:50:26.848Z</time></trkpt><trkpt lat="42.756605" lon="-8.6800983"><ele>51.66666666666667</ele><time>2026-04-17T06:50:27.848Z</time></trkpt><trkpt lat="42.7566917" lon="-8.6803433"><ele>53.0</ele><time>2026-04-17T06:50:28.848Z</time></trkpt><trkpt lat="42.7567833" lon="-8.6805867"><ele>55.5</ele><time>2026-04-17T06:50:29.848Z</time></trkpt><trkpt lat="42.7569117" lon="-8.6808383"><ele>58.0</ele><time>2026-04-17T06:50:30.849Z</time></trkpt><trkpt lat="42.75704" lon="-8.68109"><ele>60.33333333333333</ele><time>2026-04-17T06:50:31.849Z</time></trkpt><trkpt lat="42.7571617" lon="-8.6813233"><ele>62.66666666666667</ele><time>2026-04-17T06:50:32.849Z</time></trkpt><trkpt lat="42.7572733" lon="-8.6815283"><ele>65.0</ele><time>2026-04-17T06:50:33.849Z</time></trkpt><trkpt lat="42.75739" lon="-8.681745"><ele>67.33333333333334</ele><time>2026-04-17T06:50:34.849Z</time></trkpt><trkpt lat="42.757505" lon="-8.6819567"><ele>69.66666666666667</ele><time>2026-04-17T06:50:35.849Z</time></trkpt><trkpt lat="42.7576167" lon="-8.6821867"><ele>72.0</ele><time>2026-04-17T06:50:36.848Z</time></trkpt><trkpt lat="42.7577383" lon="-8.682405"><ele>72.0</ele><time>2026-04-17T06:50:37.849Z</time></trkpt><trkpt lat="42.757855" lon="-8.68263"><ele>72.0</ele><time>2026-04-17T06:50:38.848Z</time></trkpt><trkpt lat="42.7579667" lon="-8.6828383"><ele>72.0</ele><time>2026-04-17T06:50:39.848Z</time></trkpt><trkpt lat="42.7580683" lon="-8.683045"><ele>72.33333333333333</ele><time>2026-04-17T06:50:40.848Z</time></trkpt><trkpt lat="42.7581667" lon="-8.68325"><ele>72.66666666666666</ele><time>2026-04-17T06:50:41.848Z</time></trkpt><trkpt lat="42.7582583" lon="-8.6834433"><ele>73.0</ele><time>2026-04-17T06:50:42.848Z</time></trkpt><trkpt lat="42.7583517" lon="-8.6836533"><ele>73.0</ele><time>2026-04-17T06:50:43.848Z</time></trkpt><trkpt lat="42.7584417" lon="-8.683865"><ele>73.0</ele><time>2026-04-17T06:50:44.848Z</time></trkpt><trkpt lat="42.7585367" lon="-8.6840783"><ele>73.0</ele><time>2026-04-17T06:50:45.849Z</time></trkpt><trkpt lat="42.758635" lon="-8.6842883"><ele>74.0</ele><time>2026-04-17T06:50:46.848Z</time></trkpt><trkpt lat="42.7587333" lon="-8.68451"><ele>75.0</ele><time>2026-04-17T06:50:47.849Z</time></trkpt><trkpt lat="42.75883" lon="-8.6847183"><ele>76.0</ele><time>2026-04-17T06:50:48.848Z</time></trkpt><trkpt lat="42.7589217" lon="-8.6849133"><ele>76.0</ele><time>2026-04-17T06:50:49.849Z</time></trkpt><trkpt lat="42.7590167" lon="-8.6850983"><ele>76.0</ele><time>2026-04-17T06:50:50.849Z</time></trkpt><trkpt lat="42.7590983" lon="-8.6852833"><ele>76.0</ele><time>2026-04-17T06:50:51.848Z</time></trkpt><trkpt lat="42.7591883" lon="-8.6854517"><ele>75.33333333333333</ele><time>2026-04-17T06:50:52.849Z</time></trkpt><trkpt lat="42.75928" lon="-8.685635"><ele>74.66666666666667</ele><time>2026-04-17T06:50:53.848Z</time></trkpt><trkpt lat="42.7593717" lon="-8.685815"><ele>74.0</ele><time>2026-04-17T06:50:54.848Z</time></trkpt><trkpt lat="42.75946" lon="-8.6859917"><ele>71.0</ele><time>2026-04-17T06:50:55.848Z</time></trkpt><trkpt lat="42.7595583" lon="-8.6861417"><ele>68.0</ele><time>2026-04-17T06:50:56.848Z</time></trkpt><trkpt lat="42.7596433" lon="-8.68629"><ele>65.0</ele><time>2026-04-17T06:50:57.849Z</time></trkpt><trkpt lat="42.759725" lon="-8.6864317"><ele>62.0</ele><time>2026-04-17T06:50:58.849Z</time></trkpt><trkpt lat="42.7597967" lon="-8.6865817"><ele>62.0</ele><time>2026-04-17T06:50:59.848Z</time></trkpt><trkpt lat="42.7598733" lon="-8.68673"><ele>62.0</ele><time>2026-04-17T06:51:00.848Z</time></trkpt><trkpt lat="42.759955" lon="-8.686895"><ele>62.0</ele><time>2026-04-17T06:51:01.848Z</time></trkpt><trkpt lat="42.76002" lon="-8.687065"><ele>62.0</ele><time>2026-04-17T06:51:02.848Z</time></trkpt><trkpt lat="42.7600683" lon="-8.68724"><ele>62.25</ele><time>2026-04-17T06:51:03.848Z</time></trkpt><trkpt lat="42.7601083" lon="-8.6874383"><ele>62.5</ele><time>2026-04-17T06:51:04.849Z</time></trkpt><trkpt lat="42.7601467" lon="-8.687605"><ele>62.75</ele><time>2026-04-17T06:51:05.849Z</time></trkpt><trkpt lat="42.7602017" lon="-8.6877617"><ele>63.0</ele><time>2026-04-17T06:51:06.848Z</time></trkpt><trkpt lat="42.76026" lon="-8.6879133"><ele>63.0</ele><time>2026-04-17T06:51:07.848Z</time></trkpt><trkpt lat="42.7603167" lon="-8.6880667"><ele>63.0</ele><time>2026-04-17T06:51:08.849Z</time></trkpt><trkpt lat="42.7603567" lon="-8.6882217"><ele>63.0</ele><time>2026-04-17T06:51:09.848Z</time></trkpt><trkpt lat="42.7603967" lon="-8.6883967"><ele>63.0</ele><time>2026-04-17T06:51:10.848Z</time></trkpt><trkpt lat="42.7604133" lon="-8.6885583"><ele>63.25</ele><time>2026-04-17T06:51:11.849Z</time></trkpt><trkpt lat="42.760425" lon="-8.6887183"><ele>63.5</ele><time>2026-04-17T06:51:12.848Z</time></trkpt><trkpt lat="42.7604417" lon="-8.68889"><ele>63.75</ele><time>2026-04-17T06:51:13.849Z</time></trkpt><trkpt lat="42.7604717" lon="-8.689045"><ele>64.0</ele><time>2026-04-17T06:51:14.848Z</time></trkpt><trkpt lat="42.7605117" lon="-8.6891867"><ele>64.0</ele><time>2026-04-17T06:51:15.848Z</time></trkpt><trkpt lat="42.7605633" lon="-8.6893617"><ele>64.0</ele><time>2026-04-17T06:51:16.848Z</time></trkpt><trkpt lat="42.7606083" lon="-8.6895083"><ele>64.0</ele><time>2026-04-17T06:51:17.848Z</time></trkpt><trkpt lat="42.7606533" lon="-8.6896467"><ele>64.0</ele><time>2026-04-17T06:51:18.849Z</time></trkpt><trkpt lat="42.7606833" lon="-8.6897667"><ele>64.4</ele><time>2026-04-17T06:51:19.849Z</time></trkpt><trkpt lat="42.7607233" lon="-8.6898917"><ele>64.80000000000001</ele><time>2026-04-17T06:51:20.849Z</time></trkpt><trkpt lat="42.7607767" lon="-8.69001"><ele>65.19999999999999</ele><time>2026-04-17T06:51:21.849Z</time></trkpt><trkpt lat="42.760835" lon="-8.6901233"><ele>65.6</ele><time>2026-04-17T06:51:22.849Z</time></trkpt><trkpt lat="42.7608983" lon="-8.69023"><ele>66.0</ele><time>2026-04-17T06:51:23.849Z</time></trkpt><trkpt lat="42.7609733" lon="-8.6903367"><ele>65.25</ele><time>2026-04-17T06:51:24.848Z</time></trkpt><trkpt lat="42.761055" lon="-8.690425"><ele>64.5</ele><time>2026-04-17T06:51:25.848Z</time></trkpt><trkpt lat="42.7611383" lon="-8.6905233"><ele>63.75</ele><time>2026-04-17T06:51:26.848Z</time></trkpt><trkpt lat="42.76122" lon="-8.6906383"><ele>63.0</ele><time>2026-04-17T06:51:27.848Z</time></trkpt><trkpt lat="42.761305" lon="-8.690755"><ele>63.0</ele><time>2026-04-17T06:51:28.849Z</time></trkpt><trkpt lat="42.7613933" lon="-8.6908583"><ele>63.0</ele><time>2026-04-17T06:51:29.848Z</time></trkpt><trkpt lat="42.7614633" lon="-8.69098"><ele>63.0</ele><time>2026-04-17T06:51:30.848Z</time></trkpt><trkpt lat="42.7615483" lon="-8.691085"><ele>63.0</ele><time>2026-04-17T06:51:31.848Z</time></trkpt><trkpt lat="42.7616283" lon="-8.6911867"><ele>63.2</ele><time>2026-04-17T06:51:32.848Z</time></trkpt><trkpt lat="42.76171" lon="-8.691285"><ele>63.4</ele><time>2026-04-17T06:51:33.849Z</time></trkpt><trkpt lat="42.76178" lon="-8.691375"><ele>63.60000000000001</ele><time>2026-04-17T06:51:34.848Z</time></trkpt><trkpt lat="42.7618383" lon="-8.6914633"><ele>63.800000000000004</ele><time>2026-04-17T06:51:35.848Z</time></trkpt><trkpt lat="42.761895" lon="-8.69155"><ele>64.0</ele><time>2026-04-17T06:51:36.849Z</time></trkpt><trkpt lat="42.761945" lon="-8.69164"><ele>64.0</ele><time>2026-04-17T06:51:37.848Z</time></trkpt><trkpt lat="42.7620033" lon="-8.69175"><ele>64.0</ele><time>2026-04-17T06:51:38.848Z</time></trkpt><trkpt lat="42.76207" lon="-8.6918667"><ele>64.0</ele><time>2026-04-17T06:51:39.849Z</time></trkpt><trkpt lat="42.762145" lon="-8.6919983"><ele>64.0</ele><time>2026-04-17T06:51:40.848Z</time></trkpt><trkpt lat="42.7622217" lon="-8.6921233"><ele>63.25</ele><time>2026-04-17T06:51:41.849Z</time></trkpt><trkpt lat="42.7623" lon="-8.6922433"><ele>62.5</ele><time>2026-04-17T06:51:42.848Z</time></trkpt><trkpt lat="42.762375" lon="-8.692365"><ele>61.75</ele><time>2026-04-17T06:51:43.848Z</time></trkpt><trkpt lat="42.7624383" lon="-8.6924967"><ele>61.0</ele><time>2026-04-17T06:51:44.849Z</time></trkpt><trkpt lat="42.762475" lon="-8.69263"><ele>59.25</ele><time>2026-04-17T06:51:45.849Z</time></trkpt><trkpt lat="42.7625" lon="-8.692785"><ele>57.5</ele><time>2026-04-17T06:51:46.849Z</time></trkpt><trkpt lat="42.762485" lon="-8.69294"><ele>55.75</ele><time>2026-04-17T06:51:47.849Z</time></trkpt><trkpt lat="42.7624283" lon="-8.69311"><ele>54.0</ele><time>2026-04-17T06:51:48.849Z</time></trkpt><trkpt lat="42.7623383" lon="-8.69326"><ele>54.0</ele><time>2026-04-17T06:51:49.848Z</time></trkpt><trkpt lat="42.7622283" lon="-8.6934217"><ele>54.0</ele><time>2026-04-17T06:51:50.849Z</time></trkpt><trkpt lat="42.7621067" lon="-8.6935917"><ele>54.0</ele><time>2026-04-17T06:51:51.849Z</time></trkpt><trkpt lat="42.7619817" lon="-8.693755"><ele>54.0</ele><time>2026-04-17T06:51:52.848Z</time></trkpt><trkpt lat="42.7618717" lon="-8.6939117"><ele>54.0</ele><time>2026-04-17T06:51:53.848Z</time></trkpt><trkpt lat="42.7617667" lon="-8.6940817"><ele>54.0</ele><time>2026-04-17T06:51:54.848Z</time></trkpt><trkpt lat="42.7616533" lon="-8.69424"><ele>54.0</ele><time>2026-04-17T06:51:55.848Z</time></trkpt><trkpt lat="42.7615533" lon="-8.6944017"><ele>54.0</ele><time>2026-04-17T06:51:56.848Z</time></trkpt><trkpt lat="42.7614617" lon="-8.6945483"><ele>54.0</ele><time>2026-04-17T06:51:57.848Z</time></trkpt><trkpt lat="42.761405" lon="-8.6947217"><ele>54.0</ele><time>2026-04-17T06:51:58.848Z</time></trkpt><trkpt lat="42.7613433" lon="-8.6949067"><ele>53.0</ele><time>2026-04-17T06:51:59.848Z</time></trkpt><trkpt lat="42.7612917" lon="-8.6951117"><ele>52.0</ele><time>2026-04-17T06:52:00.849Z</time></trkpt><trkpt lat="42.7612317" lon="-8.6953133"><ele>51.0</ele><time>2026-04-17T06:52:01.849Z</time></trkpt><trkpt lat="42.7611667" lon="-8.6955233"><ele>50.0</ele><time>2026-04-17T06:52:02.848Z</time></trkpt><trkpt lat="42.761095" lon="-8.69573"><ele>49.0</ele><time>2026-04-17T06:52:03.849Z</time></trkpt><trkpt lat="42.7610233" lon="-8.6959317"><ele>48.0</ele><time>2026-04-17T06:52:04.849Z</time></trkpt><trkpt lat="42.7609517" lon="-8.69614"><ele>50.33333333333333</ele><time>2026-04-17T06:52:05.848Z</time></trkpt><trkpt lat="42.760885" lon="-8.696345"><ele>52.666666666666664</ele><time>2026-04-17T06:52:06.848Z</time></trkpt><trkpt lat="42.7608283" lon="-8.6965683"><ele>55.0</ele><time>2026-04-17T06:52:07.848Z</time></trkpt><trkpt lat="42.7607883" lon="-8.6967967"><ele>53.0</ele><time>2026-04-17T06:52:08.848Z</time></trkpt><trkpt lat="42.7607383" lon="-8.697025"><ele>51.0</ele><time>2026-04-17T06:52:09.848Z</time></trkpt><trkpt lat="42.7606467" lon="-8.6972667"><ele>49.0</ele><time>2026-04-17T06:52:10.848Z</time></trkpt><trkpt lat="42.76061" lon="-8.69751"><ele>49.0</ele><time>2026-04-17T06:52:11.848Z</time></trkpt><trkpt lat="42.7605733" lon="-8.69774"><ele>49.0</ele><time>2026-04-17T06:52:12.849Z</time></trkpt><trkpt lat="42.7605317" lon="-8.697975"><ele>49.0</ele><time>2026-04-17T06:52:13.849Z</time></trkpt><trkpt lat="42.7605067" lon="-8.6982033"><ele>49.33333333333333</ele><time>2026-04-17T06:52:14.849Z</time></trkpt><trkpt lat="42.7604967" lon="-8.69842"><ele>49.66666666666667</ele><time>2026-04-17T06:52:15.849Z</time></trkpt><trkpt lat="42.7604833" lon="-8.6986483"><ele>50.0</ele><time>2026-04-17T06:52:16.848Z</time></trkpt><trkpt lat="42.7604833" lon="-8.6988733"><ele>50.0</ele><time>2026-04-17T06:52:17.848Z</time></trkpt><trkpt lat="42.7604767" lon="-8.6990883"><ele>50.0</ele><time>2026-04-17T06:52:18.848Z</time></trkpt><trkpt lat="42.76045" lon="-8.69931"><ele>50.0</ele><time>2026-04-17T06:52:19.849Z</time></trkpt><trkpt lat="42.7604" lon="-8.6995267"><ele>51.0</ele><time>2026-04-17T06:52:20.848Z</time></trkpt><trkpt lat="42.7603367" lon="-8.6997367"><ele>52.0</ele><time>2026-04-17T06:52:21.849Z</time></trkpt><trkpt lat="42.760265" lon="-8.6999417"><ele>53.0</ele><time>2026-04-17T06:52:22.848Z</time></trkpt><trkpt lat="42.76019" lon="-8.700155"><ele>54.0</ele><time>2026-04-17T06:52:23.848Z</time></trkpt><trkpt lat="42.7601183" lon="-8.700365"><ele>55.0</ele><time>2026-04-17T06:52:24.849Z</time></trkpt><trkpt lat="42.760045" lon="-8.70055"><ele>56.0</ele><time>2026-04-17T06:52:25.849Z</time></trkpt><trkpt lat="42.7599583" lon="-8.700715"><ele>56.0</ele><time>2026-04-17T06:52:26.848Z</time></trkpt><trkpt lat="42.7598683" lon="-8.7008717"><ele>56.0</ele><time>2026-04-17T06:52:27.848Z</time></trkpt><trkpt lat="42.7598067" lon="-8.7010267"><ele>56.0</ele><time>2026-04-17T06:52:28.849Z</time></trkpt><trkpt lat="42.7597517" lon="-8.7011883"><ele>56.0</ele><time>2026-04-17T06:52:29.849Z</time></trkpt><trkpt lat="42.75973" lon="-8.70134"><ele>55.75</ele><time>2026-04-17T06:52:30.849Z</time></trkpt><trkpt lat="42.75974" lon="-8.7014817"><ele>55.5</ele><time>2026-04-17T06:52:31.848Z</time></trkpt><trkpt lat="42.75979" lon="-8.701635"><ele>55.25</ele><time>2026-04-17T06:52:32.848Z</time></trkpt><trkpt lat="42.7598683" lon="-8.7018033"><ele>55.0</ele><time>2026-04-17T06:52:33.848Z</time></trkpt><trkpt lat="42.7599683" lon="-8.7019717"><ele>59.0</ele><time>2026-04-17T06:52:34.848Z</time></trkpt><trkpt lat="42.7600683" lon="-8.702125"><ele>63.0</ele><time>2026-04-17T06:52:35.849Z</time></trkpt><trkpt lat="42.7601867" lon="-8.702285"><ele>67.0</ele><time>2026-04-17T06:52:36.849Z</time></trkpt><trkpt lat="42.7603233" lon="-8.7024083"><ele>67.0</ele><time>2026-04-17T06:52:37.848Z</time></trkpt><trkpt lat="42.7604783" lon="-8.7024967"><ele>67.0</ele><time>2026-04-17T06:52:38.848Z</time></trkpt><trkpt lat="42.7606433" lon="-8.7025883"><ele>67.0</ele><time>2026-04-17T06:52:39.848Z</time></trkpt><trkpt lat="42.7607883" lon="-8.702705"><ele>69.0</ele><time>2026-04-17T06:52:40.849Z</time></trkpt><trkpt lat="42.7609017" lon="-8.702855"><ele>71.0</ele><time>2026-04-17T06:52:41.848Z</time></trkpt><trkpt lat="42.7609783" lon="-8.703055"><ele>73.0</ele><time>2026-04-17T06:52:42.848Z</time></trkpt><trkpt lat="42.7610317" lon="-8.7032783"><ele>72.0</ele><time>2026-04-17T06:52:43.849Z</time></trkpt><trkpt lat="42.7610667" lon="-8.7035017"><ele>71.0</ele><time>2026-04-17T06:52:44.849Z</time></trkpt><trkpt lat="42.7610933" lon="-8.7037433"><ele>70.0</ele><time>2026-04-17T06:52:45.848Z</time></trkpt><trkpt lat="42.76112" lon="-8.7039783"><ele>70.0</ele><time>2026-04-17T06:52:46.848Z</time></trkpt><trkpt lat="42.7611433" lon="-8.7042167"><ele>70.0</ele><time>2026-04-17T06:52:47.848Z</time></trkpt><trkpt lat="42.7611667" lon="-8.7044517"><ele>70.0</ele><time>2026-04-17T06:52:48.848Z</time></trkpt><trkpt lat="42.7611967" lon="-8.7046717"><ele>72.66666666666666</ele><time>2026-04-17T06:52:49.849Z</time></trkpt><trkpt lat="42.7612617" lon="-8.7048867"><ele>75.33333333333333</ele><time>2026-04-17T06:52:50.849Z</time></trkpt><trkpt lat="42.761325" lon="-8.7050917"><ele>78.0</ele><time>2026-04-17T06:52:51.849Z</time></trkpt><trkpt lat="42.76142" lon="-8.70529"><ele>81.33333333333333</ele><time>2026-04-17T06:52:52.848Z</time></trkpt><trkpt lat="42.7615083" lon="-8.70548"><ele>84.66666666666666</ele><time>2026-04-17T06:52:53.849Z</time></trkpt><trkpt lat="42.7615817" lon="-8.7056833"><ele>88.0</ele><time>2026-04-17T06:52:54.848Z</time></trkpt><trkpt lat="42.7616483" lon="-8.7058933"><ele>89.0</ele><time>2026-04-17T06:52:55.848Z</time></trkpt><trkpt lat="42.7617217" lon="-8.7060933"><ele>90.0</ele><time>2026-04-17T06:52:56.848Z</time></trkpt><trkpt lat="42.7618067" lon="-8.7062667"><ele>91.0</ele><time>2026-04-17T06:52:57.849Z</time></trkpt><trkpt lat="42.761915" lon="-8.706395"><ele>91.5</ele><time>2026-04-17T06:52:58.848Z</time></trkpt><trkpt lat="42.7620483" lon="-8.7064583"><ele>92.0</ele><time>2026-04-17T06:52:59.848Z</time></trkpt><trkpt lat="42.7622033" lon="-8.706475"><ele>92.5</ele><time>2026-04-17T06:53:00.848Z</time></trkpt><trkpt lat="42.76235" lon="-8.7064433"><ele>93.0</ele><time>2026-04-17T06:53:01.849Z</time></trkpt><trkpt lat="42.7625133" lon="-8.706415"><ele>93.0</ele><time>2026-04-17T06:53:02.849Z</time></trkpt><trkpt lat="42.76268" lon="-8.7063917"><ele>93.0</ele><time>2026-04-17T06:53:03.849Z</time></trkpt><trkpt lat="42.7628567" lon="-8.7063833"><ele>93.0</ele><time>2026-04-17T06:53:04.849Z</time></trkpt><trkpt lat="42.7630383" lon="-8.70637"><ele>95.66666666666666</ele><time>2026-04-17T06:53:05.85Z</time></trkpt><trkpt lat="42.76322" lon="-8.7063367"><ele>98.33333333333333</ele><time>2026-04-17T06:53:06.849Z</time></trkpt><trkpt lat="42.7634117" lon="-8.7063333"><ele>101.0</ele><time>2026-04-17T06:53:07.849Z</time></trkpt><trkpt lat="42.7635917" lon="-8.7063283"><ele>104.33333333333333</ele><time>2026-04-17T06:53:08.85Z</time></trkpt><trkpt lat="42.7637783" lon="-8.7063217"><ele>107.66666666666666</ele><time>2026-04-17T06:53:09.849Z</time></trkpt><trkpt lat="42.7639517" lon="-8.7063017"><ele>111.0</ele><time>2026-04-17T06:53:10.85Z</time></trkpt><trkpt lat="42.764125" lon="-8.70628"><ele>111.0</ele><time>2026-04-17T06:53:11.849Z</time></trkpt><trkpt lat="42.764285" lon="-8.70622"><ele>111.0</ele><time>2026-04-17T06:53:12.849Z</time></trkpt><trkpt lat="42.7644383" lon="-8.7061383"><ele>111.0</ele><time>2026-04-17T06:53:13.85Z</time></trkpt><trkpt lat="42.764565" lon="-8.7060067"><ele>113.0</ele><time>2026-04-17T06:53:14.849Z</time></trkpt><trkpt lat="42.76469" lon="-8.7058717"><ele>115.0</ele><time>2026-04-17T06:53:15.85Z</time></trkpt><trkpt lat="42.76478" lon="-8.7056967"><ele>117.0</ele><time>2026-04-17T06:53:16.849Z</time></trkpt><trkpt lat="42.76487" lon="-8.7055117"><ele>117.0</ele><time>2026-04-17T06:53:17.85Z</time></trkpt><trkpt lat="42.764955" lon="-8.7053383"><ele>117.0</ele><time>2026-04-17T06:53:18.849Z</time></trkpt><trkpt lat="42.7650517" lon="-8.7052117"><ele>117.0</ele><time>2026-04-17T06:53:19.849Z</time></trkpt><trkpt lat="42.7651633" lon="-8.705145"><ele>117.0</ele><time>2026-04-17T06:53:20.85Z</time></trkpt><trkpt lat="42.7652867" lon="-8.70513"><ele>118.75</ele><time>2026-04-17T06:53:21.849Z</time></trkpt><trkpt lat="42.7654083" lon="-8.705175"><ele>120.5</ele><time>2026-04-17T06:53:22.849Z</time></trkpt><trkpt lat="42.7655167" lon="-8.7052833"><ele>122.25</ele><time>2026-04-17T06:53:23.85Z</time></trkpt><trkpt lat="42.7656117" lon="-8.7054283"><ele>124.0</ele><time>2026-04-17T06:53:24.849Z</time></trkpt><trkpt lat="42.765705" lon="-8.7055767"><ele>124.0</ele><time>2026-04-17T06:53:25.85Z</time></trkpt><trkpt lat="42.765815" lon="-8.7057133"><ele>124.0</ele><time>2026-04-17T06:53:26.849Z</time></trkpt><trkpt lat="42.76595" lon="-8.7058133"><ele>124.0</ele><time>2026-04-17T06:53:27.849Z</time></trkpt><trkpt lat="42.7660917" lon="-8.705875"><ele>124.0</ele><time>2026-04-17T06:53:28.849Z</time></trkpt><trkpt lat="42.76624" lon="-8.70592"><ele>124.0</ele><time>2026-04-17T06:53:29.849Z</time></trkpt><trkpt lat="42.7663917" lon="-8.705965"><ele>124.0</ele><time>2026-04-17T06:53:30.849Z</time></trkpt><trkpt lat="42.7665483" lon="-8.7060233"><ele>128.33333333333334</ele><time>2026-04-17T06:53:31.849Z</time></trkpt><trkpt lat="42.7666967" lon="-8.7061117"><ele>132.66666666666666</ele><time>2026-04-17T06:53:32.85Z</time></trkpt><trkpt lat="42.7668183" lon="-8.7062267"><ele>137.0</ele><time>2026-04-17T06:53:33.85Z</time></trkpt><trkpt lat="42.766905" lon="-8.7063783"><ele>137.33333333333331</ele><time>2026-04-17T06:53:34.849Z</time></trkpt><trkpt lat="42.7669733" lon="-8.7065683"><ele>137.66666666666666</ele><time>2026-04-17T06:53:35.849Z</time></trkpt><trkpt lat="42.7670283" lon="-8.7067733"><ele>138.0</ele><time>2026-04-17T06:53:36.85Z</time></trkpt><trkpt lat="42.7670617" lon="-8.706985"><ele>136.0</ele><time>2026-04-17T06:53:37.849Z</time></trkpt><trkpt lat="42.76708" lon="-8.7072083"><ele>134.0</ele><time>2026-04-17T06:53:38.85Z</time></trkpt><trkpt lat="42.7670833" lon="-8.70742"><ele>132.0</ele><time>2026-04-17T06:53:39.85Z</time></trkpt><trkpt lat="42.7670433" lon="-8.707625"><ele>133.33333333333334</ele><time>2026-04-17T06:53:40.85Z</time></trkpt><trkpt lat="42.76701" lon="-8.707845"><ele>134.66666666666669</ele><time>2026-04-17T06:53:41.85Z</time></trkpt><trkpt lat="42.767005" lon="-8.708065"><ele>136.0</ele><time>2026-04-17T06:53:42.85Z</time></trkpt><trkpt lat="42.7670217" lon="-8.70829"><ele>136.0</ele><time>2026-04-17T06:53:43.85Z</time></trkpt><trkpt lat="42.7670467" lon="-8.7085083"><ele>136.0</ele><time>2026-04-17T06:53:44.85Z</time></trkpt><trkpt lat="42.7670833" lon="-8.7087183"><ele>136.0</ele><time>2026-04-17T06:53:45.849Z</time></trkpt><trkpt lat="42.7671317" lon="-8.708925"><ele>139.66666666666669</ele><time>2026-04-17T06:53:46.85Z</time></trkpt><trkpt lat="42.7671783" lon="-8.7091383"><ele>143.33333333333334</ele><time>2026-04-17T06:53:47.849Z</time></trkpt><trkpt lat="42.76725" lon="-8.709335"><ele>147.0</ele><time>2026-04-17T06:53:48.85Z</time></trkpt><trkpt lat="42.7673383" lon="-8.7095167"><ele>150.0</ele><time>2026-04-17T06:53:49.849Z</time></trkpt><trkpt lat="42.7674733" lon="-8.7096467"><ele>153.0</ele><time>2026-04-17T06:53:50.849Z</time></trkpt><trkpt lat="42.76767" lon="-8.7096967"><ele>156.0</ele><time>2026-04-17T06:53:51.849Z</time></trkpt><trkpt lat="42.7678417" lon="-8.7097783"><ele>156.0</ele><time>2026-04-17T06:53:52.85Z</time></trkpt><trkpt lat="42.7680367" lon="-8.7098683"><ele>156.0</ele><time>2026-04-17T06:53:53.85Z</time></trkpt><trkpt lat="42.7682183" lon="-8.710015"><ele>156.0</ele><time>2026-04-17T06:53:54.849Z</time></trkpt><trkpt lat="42.76838" lon="-8.710175"><ele>156.33333333333334</ele><time>2026-04-17T06:53:55.849Z</time></trkpt><trkpt lat="42.7685217" lon="-8.7103333"><ele>156.66666666666669</ele><time>2026-04-17T06:53:56.849Z</time></trkpt><trkpt lat="42.7686567" lon="-8.7105117"><ele>157.0</ele><time>2026-04-17T06:53:57.85Z</time></trkpt><trkpt lat="42.7687883" lon="-8.71069"><ele>157.0</ele><time>2026-04-17T06:53:58.849Z</time></trkpt><trkpt lat="42.7689283" lon="-8.7108617"><ele>157.0</ele><time>2026-04-17T06:53:59.849Z</time></trkpt><trkpt lat="42.7690633" lon="-8.7110367"><ele>157.0</ele><time>2026-04-17T06:54:00.85Z</time></trkpt><trkpt lat="42.7692083" lon="-8.7112133"><ele>156.66666666666669</ele><time>2026-04-17T06:54:01.849Z</time></trkpt><trkpt lat="42.76935" lon="-8.7114"><ele>156.33333333333334</ele><time>2026-04-17T06:54:02.849Z</time></trkpt><trkpt lat="42.7694933" lon="-8.7115867"><ele>156.0</ele><time>2026-04-17T06:54:03.849Z</time></trkpt><trkpt lat="42.769615" lon="-8.7117817"><ele>158.66666666666666</ele><time>2026-04-17T06:54:04.85Z</time></trkpt><trkpt lat="42.769725" lon="-8.71199"><ele>161.33333333333331</ele><time>2026-04-17T06:54:05.849Z</time></trkpt><trkpt lat="42.7698067" lon="-8.7122117"><ele>164.0</ele><time>2026-04-17T06:54:06.849Z</time></trkpt><trkpt lat="42.7698567" lon="-8.7124517"><ele>164.0</ele><time>2026-04-17T06:54:07.849Z</time></trkpt><trkpt lat="42.769905" lon="-8.7127167"><ele>164.0</ele><time>2026-04-17T06:54:08.849Z</time></trkpt><trkpt lat="42.7699433" lon="-8.7129617"><ele>164.0</ele><time>2026-04-17T06:54:09.849Z</time></trkpt><trkpt lat="42.7699917" lon="-8.7131883"><ele>167.75</ele><time>2026-04-17T06:54:10.85Z</time></trkpt><trkpt lat="42.77003" lon="-8.71339"><ele>171.5</ele><time>2026-04-17T06:54:11.85Z</time></trkpt><trkpt lat="42.770115" lon="-8.7135383"><ele>175.25</ele><time>2026-04-17T06:54:12.849Z</time></trkpt><trkpt lat="42.77023" lon="-8.7136317"><ele>179.0</ele><time>2026-04-17T06:54:13.849Z</time></trkpt><trkpt lat="42.7703517" lon="-8.7136917"><ele>178.33333333333331</ele><time>2026-04-17T06:54:14.85Z</time></trkpt><trkpt lat="42.77049" lon="-8.7136817"><ele>177.66666666666666</ele><time>2026-04-17T06:54:15.85Z</time></trkpt><trkpt lat="42.7706367" lon="-8.7136317"><ele>177.0</ele><time>2026-04-17T06:54:16.849Z</time></trkpt><trkpt lat="42.770795" lon="-8.7135667"><ele>177.0</ele><time>2026-04-17T06:54:17.849Z</time></trkpt><trkpt lat="42.7709583" lon="-8.7135283"><ele>177.0</ele><time>2026-04-17T06:54:18.849Z</time></trkpt><trkpt lat="42.771135" lon="-8.7134867"><ele>177.0</ele><time>2026-04-17T06:54:19.85Z</time></trkpt><trkpt lat="42.771315" lon="-8.7134733"><ele>180.0</ele><time>2026-04-17T06:54:20.849Z</time></trkpt><trkpt lat="42.77149" lon="-8.71346"><ele>183.0</ele><time>2026-04-17T06:54:21.85Z</time></trkpt><trkpt lat="42.77166" lon="-8.71347"><ele>186.0</ele><time>2026-04-17T06:54:22.85Z</time></trkpt><trkpt lat="42.7718267" lon="-8.7135083"><ele>186.66666666666666</ele><time>2026-04-17T06:54:23.85Z</time></trkpt><trkpt lat="42.772" lon="-8.713595"><ele>187.33333333333331</ele><time>2026-04-17T06:54:24.85Z</time></trkpt><trkpt lat="42.7721683" lon="-8.713685"><ele>188.0</ele><time>2026-04-17T06:54:25.849Z</time></trkpt><trkpt lat="42.7723117" lon="-8.7138133"><ele>188.0</ele><time>2026-04-17T06:54:26.85Z</time></trkpt><trkpt lat="42.7724717" lon="-8.7139283"><ele>188.0</ele><time>2026-04-17T06:54:27.85Z</time></trkpt><trkpt lat="42.7726317" lon="-8.7140933"><ele>188.0</ele><time>2026-04-17T06:54:28.849Z</time></trkpt><trkpt lat="42.7727683" lon="-8.7142783"><ele>187.33333333333331</ele><time>2026-04-17T06:54:29.85Z</time></trkpt><trkpt lat="42.772895" lon="-8.7144767"><ele>186.66666666666666</ele><time>2026-04-17T06:54:30.85Z</time></trkpt><trkpt lat="42.7730067" lon="-8.7146767"><ele>186.0</ele><time>2026-04-17T06:54:31.85Z</time></trkpt><trkpt lat="42.7731217" lon="-8.714885"><ele>186.0</ele><time>2026-04-17T06:54:32.849Z</time></trkpt><trkpt lat="42.77324" lon="-8.7151"><ele>186.0</ele><time>2026-04-17T06:54:33.85Z</time></trkpt><trkpt lat="42.773365" lon="-8.7153067"><ele>186.0</ele><time>2026-04-17T06:54:34.85Z</time></trkpt><trkpt lat="42.7734933" lon="-8.71549"><ele>188.0</ele><time>2026-04-17T06:54:35.849Z</time></trkpt><trkpt lat="42.7736383" lon="-8.715685"><ele>190.0</ele><time>2026-04-17T06:54:36.849Z</time></trkpt><trkpt lat="42.7737767" lon="-8.7158733"><ele>192.0</ele><time>2026-04-17T06:54:37.849Z</time></trkpt><trkpt lat="42.773915" lon="-8.7160417"><ele>194.66666666666669</ele><time>2026-04-17T06:54:38.849Z</time></trkpt><trkpt lat="42.77407" lon="-8.716215"><ele>197.33333333333334</ele><time>2026-04-17T06:54:39.849Z</time></trkpt><trkpt lat="42.7742167" lon="-8.7163917"><ele>200.0</ele><time>2026-04-17T06:54:40.849Z</time></trkpt><trkpt lat="42.7743667" lon="-8.716575"><ele>200.0</ele><time>2026-04-17T06:54:41.849Z</time></trkpt><trkpt lat="42.7745117" lon="-8.716745"><ele>200.0</ele><time>2026-04-17T06:54:42.849Z</time></trkpt><trkpt lat="42.7746633" lon="-8.7168867"><ele>200.0</ele><time>2026-04-17T06:54:43.85Z</time></trkpt><trkpt lat="42.7748283" lon="-8.7170317"><ele>204.33333333333334</ele><time>2026-04-17T06:54:44.849Z</time></trkpt><trkpt lat="42.7749883" lon="-8.7171533"><ele>208.66666666666669</ele><time>2026-04-17T06:54:45.849Z</time></trkpt><trkpt lat="42.7751567" lon="-8.71727"><ele>213.0</ele><time>2026-04-17T06:54:46.85Z</time></trkpt><trkpt lat="42.77532" lon="-8.71739"><ele>213.0</ele><time>2026-04-17T06:54:47.849Z</time></trkpt><trkpt lat="42.77549" lon="-8.7175117"><ele>213.0</ele><time>2026-04-17T06:54:48.849Z</time></trkpt><trkpt lat="42.77566" lon="-8.7176433"><ele>213.0</ele><time>2026-04-17T06:54:49.849Z</time></trkpt><trkpt lat="42.7758267" lon="-8.7177717"><ele>213.33333333333331</ele><time>2026-04-17T06:54:50.85Z</time></trkpt><trkpt lat="42.7759933" lon="-8.7179"><ele>213.66666666666666</ele><time>2026-04-17T06:54:51.85Z</time></trkpt><trkpt lat="42.7761617" lon="-8.7180217"><ele>214.0</ele><time>2026-04-17T06:54:52.849Z</time></trkpt><trkpt lat="42.7763283" lon="-8.7181417"><ele>214.0</ele><time>2026-04-17T06:54:53.849Z</time></trkpt><trkpt lat="42.77649" lon="-8.7182433"><ele>214.0</ele><time>2026-04-17T06:54:54.85Z</time></trkpt><trkpt lat="42.776645" lon="-8.718365"><ele>214.0</ele><time>2026-04-17T06:54:55.849Z</time></trkpt><trkpt lat="42.776785" lon="-8.7185167"><ele>216.33333333333331</ele><time>2026-04-17T06:54:56.85Z</time></trkpt><trkpt lat="42.7769083" lon="-8.7186983"><ele>218.66666666666669</ele><time>2026-04-17T06:54:57.85Z</time></trkpt><trkpt lat="42.7770117" lon="-8.7188967"><ele>221.0</ele><time>2026-04-17T06:54:58.849Z</time></trkpt><trkpt lat="42.7771133" lon="-8.7191"><ele>221.0</ele><time>2026-04-17T06:54:59.849Z</time></trkpt><trkpt lat="42.7772167" lon="-8.7192833"><ele>221.0</ele><time>2026-04-17T06:55:00.85Z</time></trkpt><trkpt lat="42.7773367" lon="-8.71944"><ele>221.0</ele><time>2026-04-17T06:55:01.85Z</time></trkpt><trkpt lat="42.7774667" lon="-8.7195533"><ele>222.25</ele><time>2026-04-17T06:55:02.85Z</time></trkpt><trkpt lat="42.7775833" lon="-8.7196"><ele>223.5</ele><time>2026-04-17T06:55:03.85Z</time></trkpt><trkpt lat="42.7777383" lon="-8.7196383"><ele>224.75</ele><time>2026-04-17T06:55:04.85Z</time></trkpt><trkpt lat="42.7778817" lon="-8.71963"><ele>226.0</ele><time>2026-04-17T06:55:05.85Z</time></trkpt><trkpt lat="42.7780517" lon="-8.71969"><ele>226.0</ele><time>2026-04-17T06:55:06.85Z</time></trkpt><trkpt lat="42.7782233" lon="-8.7197917"><ele>226.0</ele><time>2026-04-17T06:55:07.85Z</time></trkpt><trkpt lat="42.7783767" lon="-8.719925"><ele>226.0</ele><time>2026-04-17T06:55:08.849Z</time></trkpt><trkpt lat="42.7784817" lon="-8.72011"><ele>226.0</ele><time>2026-04-17T06:55:09.849Z</time></trkpt><trkpt lat="42.7785517" lon="-8.7203067"><ele>226.0</ele><time>2026-04-17T06:55:10.85Z</time></trkpt><trkpt lat="42.7785967" lon="-8.7205533"><ele>226.0</ele><time>2026-04-17T06:55:11.85Z</time></trkpt><trkpt lat="42.77862" lon="-8.7208183"><ele>226.66666666666666</ele><time>2026-04-17T06:55:12.85Z</time></trkpt><trkpt lat="42.778655" lon="-8.72107"><ele>227.33333333333331</ele><time>2026-04-17T06:55:13.849Z</time></trkpt><trkpt lat="42.7786933" lon="-8.7212983"><ele>228.0</ele><time>2026-04-17T06:55:14.849Z</time></trkpt><trkpt lat="42.77875" lon="-8.7215"><ele>228.0</ele><time>2026-04-17T06:55:15.849Z</time></trkpt><trkpt lat="42.778825" lon="-8.7216817"><ele>228.0</ele><time>2026-04-17T06:55:16.849Z</time></trkpt><trkpt lat="42.7789233" lon="-8.721825"><ele>228.0</ele><time>2026-04-17T06:55:17.85Z</time></trkpt><trkpt lat="42.7790533" lon="-8.7219267"><ele>228.0</ele><time>2026-04-17T06:55:18.85Z</time></trkpt><trkpt lat="42.7792033" lon="-8.7219883"><ele>233.33333333333331</ele><time>2026-04-17T06:55:19.85Z</time></trkpt><trkpt lat="42.779355" lon="-8.721995"><ele>238.66666666666666</ele><time>2026-04-17T06:55:20.85Z</time></trkpt><trkpt lat="42.779515" lon="-8.7219733"><ele>244.0</ele><time>2026-04-17T06:55:21.849Z</time></trkpt><trkpt lat="42.7796767" lon="-8.7219233"><ele>240.33333333333331</ele><time>2026-04-17T06:55:22.85Z</time></trkpt><trkpt lat="42.77984" lon="-8.72187"><ele>236.66666666666669</ele><time>2026-04-17T06:55:23.85Z</time></trkpt><trkpt lat="42.7800067" lon="-8.7218583"><ele>233.0</ele><time>2026-04-17T06:55:24.85Z</time></trkpt><trkpt lat="42.780175" lon="-8.7218717"><ele>237.0</ele><time>2026-04-17T06:55:25.849Z</time></trkpt><trkpt lat="42.7803433" lon="-8.7219317"><ele>241.0</ele><time>2026-04-17T06:55:26.849Z</time></trkpt><trkpt lat="42.78051" lon="-8.7220317"><ele>245.0</ele><time>2026-04-17T06:55:27.85Z</time></trkpt><trkpt lat="42.7806733" lon="-8.7221483"><ele>245.0</ele><time>2026-04-17T06:55:28.849Z</time></trkpt><trkpt lat="42.7808267" lon="-8.7222633"><ele>245.0</ele><time>2026-04-17T06:55:29.849Z</time></trkpt><trkpt lat="42.7809733" lon="-8.7223933"><ele>245.0</ele><time>2026-04-17T06:55:30.849Z</time></trkpt><trkpt lat="42.781105" lon="-8.7225467"><ele>244.0</ele><time>2026-04-17T06:55:31.849Z</time></trkpt><trkpt lat="42.78123" lon="-8.72271"><ele>243.0</ele><time>2026-04-17T06:55:32.85Z</time></trkpt><trkpt lat="42.7813333" lon="-8.7229033"><ele>242.0</ele><time>2026-04-17T06:55:33.85Z</time></trkpt><trkpt lat="42.78143" lon="-8.7231083"><ele>242.0</ele><time>2026-04-17T06:55:34.849Z</time></trkpt><trkpt lat="42.7815017" lon="-8.7233283"><ele>242.0</ele><time>2026-04-17T06:55:35.849Z</time></trkpt><trkpt lat="42.7815567" lon="-8.7235467"><ele>242.0</ele><time>2026-04-17T06:55:36.85Z</time></trkpt><trkpt lat="42.7815883" lon="-8.7237567"><ele>243.33333333333334</ele><time>2026-04-17T06:55:37.85Z</time></trkpt><trkpt lat="42.781585" lon="-8.7239717"><ele>244.66666666666669</ele><time>2026-04-17T06:55:38.849Z</time></trkpt><trkpt lat="42.78155" lon="-8.7241867"><ele>246.0</ele><time>2026-04-17T06:55:39.849Z</time></trkpt><trkpt lat="42.781465" lon="-8.7243667"><ele>246.66666666666669</ele><time>2026-04-17T06:55:40.85Z</time></trkpt><trkpt lat="42.781365" lon="-8.72454"><ele>247.33333333333334</ele><time>2026-04-17T06:55:41.849Z</time></trkpt><trkpt lat="42.7812467" lon="-8.7246917"><ele>248.0</ele><time>2026-04-17T06:55:42.85Z</time></trkpt><trkpt lat="42.781135" lon="-8.72482"><ele>253.0</ele><time>2026-04-17T06:55:43.849Z</time></trkpt><trkpt lat="42.781015" lon="-8.72499"><ele>258.0</ele><time>2026-04-17T06:55:44.85Z</time></trkpt><trkpt lat="42.7809117" lon="-8.7251517"><ele>263.0</ele><time>2026-04-17T06:55:45.85Z</time></trkpt><trkpt lat="42.7808283" lon="-8.7253117"><ele>264.75</ele><time>2026-04-17T06:55:46.85Z</time></trkpt><trkpt lat="42.78075" lon="-8.7254733"><ele>266.5</ele><time>2026-04-17T06:55:47.849Z</time></trkpt><trkpt lat="42.78071" lon="-8.7256333"><ele>268.25</ele><time>2026-04-17T06:55:48.85Z</time></trkpt><trkpt lat="42.7807167" lon="-8.725805"><ele>270.0</ele><time>2026-04-17T06:55:49.849Z</time></trkpt><trkpt lat="42.78078" lon="-8.7259833"><ele>272.0</ele><time>2026-04-17T06:55:50.85Z</time></trkpt><trkpt lat="42.7809017" lon="-8.7261617"><ele>274.0</ele><time>2026-04-17T06:55:51.85Z</time></trkpt><trkpt lat="42.7810333" lon="-8.7263133"><ele>276.0</ele><time>2026-04-17T06:55:52.849Z</time></trkpt><trkpt lat="42.781165" lon="-8.72647"><ele>275.6666666666667</ele><time>2026-04-17T06:55:53.849Z</time></trkpt><trkpt lat="42.7813033" lon="-8.7266367"><ele>275.33333333333337</ele><time>2026-04-17T06:55:54.85Z</time></trkpt><trkpt lat="42.7814367" lon="-8.726805"><ele>275.0</ele><time>2026-04-17T06:55:55.849Z</time></trkpt><trkpt lat="42.78157" lon="-8.72696"><ele>275.0</ele><time>2026-04-17T06:55:56.85Z</time></trkpt><trkpt lat="42.781695" lon="-8.7271133"><ele>275.0</ele><time>2026-04-17T06:55:57.849Z</time></trkpt><trkpt lat="42.7818267" lon="-8.727235"><ele>275.0</ele><time>2026-04-17T06:55:58.85Z</time></trkpt><trkpt lat="42.7819783" lon="-8.72732"><ele>277.0</ele><time>2026-04-17T06:55:59.85Z</time></trkpt><trkpt lat="42.7821383" lon="-8.7273717"><ele>279.0</ele><time>2026-04-17T06:56:00.849Z</time></trkpt><trkpt lat="42.782305" lon="-8.7273583"><ele>281.0</ele><time>2026-04-17T06:56:01.85Z</time></trkpt><trkpt lat="42.7824783" lon="-8.7273"><ele>281.0</ele><time>2026-04-17T06:56:02.849Z</time></trkpt><trkpt lat="42.7826517" lon="-8.7272217"><ele>281.0</ele><time>2026-04-17T06:56:03.85Z</time></trkpt><trkpt lat="42.7828583" lon="-8.72716"><ele>281.0</ele><time>2026-04-17T06:56:04.849Z</time></trkpt><trkpt lat="42.783055" lon="-8.7270967"><ele>281.6666666666667</ele><time>2026-04-17T06:56:05.849Z</time></trkpt><trkpt lat="42.783225" lon="-8.727045"><ele>282.3333333333333</ele><time>2026-04-17T06:56:06.85Z</time></trkpt><trkpt lat="42.7833917" lon="-8.7270017"><ele>283.0</ele><time>2026-04-17T06:56:07.849Z</time></trkpt><trkpt lat="42.7835583" lon="-8.726955"><ele>283.0</ele><time>2026-04-17T06:56:08.849Z</time></trkpt><trkpt lat="42.7837067" lon="-8.7269133"><ele>283.0</ele><time>2026-04-17T06:56:09.849Z</time></trkpt><trkpt lat="42.7838617" lon="-8.7268883"><ele>283.0</ele><time>2026-04-17T06:56:10.85Z</time></trkpt><trkpt lat="42.784015" lon="-8.7268933"><ele>283.0</ele><time>2026-04-17T06:56:11.849Z</time></trkpt><trkpt lat="42.78416" lon="-8.726935"><ele>283.0</ele><time>2026-04-17T06:56:12.85Z</time></trkpt><trkpt lat="42.78429" lon="-8.7270033"><ele>283.0</ele><time>2026-04-17T06:56:13.849Z</time></trkpt><trkpt lat="42.7843917" lon="-8.7271017"><ele>283.0</ele><time>2026-04-17T06:56:14.849Z</time></trkpt><trkpt lat="42.78447" lon="-8.72722"><ele>281.5</ele><time>2026-04-17T06:56:15.85Z</time></trkpt><trkpt lat="42.7845117" lon="-8.7273517"><ele>280.0</ele><time>2026-04-17T06:56:16.849Z</time></trkpt><trkpt lat="42.7845183" lon="-8.7275083"><ele>278.5</ele><time>2026-04-17T06:56:17.849Z</time></trkpt><trkpt lat="42.7845133" lon="-8.7277083"><ele>277.0</ele><time>2026-04-17T06:56:18.849Z</time></trkpt><trkpt lat="42.784455" lon="-8.7278767"><ele>276.75</ele><time>2026-04-17T06:56:19.85Z</time></trkpt><trkpt lat="42.7843783" lon="-8.7280383"><ele>276.5</ele><time>2026-04-17T06:56:20.85Z</time></trkpt><trkpt lat="42.7843033" lon="-8.7282067"><ele>276.25</ele><time>2026-04-17T06:56:21.849Z</time></trkpt><trkpt lat="42.78425" lon="-8.7283817"><ele>276.0</ele><time>2026-04-17T06:56:22.849Z</time></trkpt><trkpt lat="42.7842383" lon="-8.7285417"><ele>277.5</ele><time>2026-04-17T06:56:23.85Z</time></trkpt><trkpt lat="42.7842667" lon="-8.728705"><ele>279.0</ele><time>2026-04-17T06:56:24.849Z</time></trkpt><trkpt lat="42.7843367" lon="-8.728865"><ele>280.5</ele><time>2026-04-17T06:56:25.849Z</time></trkpt><trkpt lat="42.7844367" lon="-8.72899"><ele>282.0</ele><time>2026-04-17T06:56:26.849Z</time></trkpt><trkpt lat="42.78455" lon="-8.72909"><ele>282.0</ele><time>2026-04-17T06:56:27.849Z</time></trkpt><trkpt lat="42.784655" lon="-8.7292017"><ele>282.0</ele><time>2026-04-17T06:56:28.85Z</time></trkpt><trkpt lat="42.7847117" lon="-8.729335"><ele>282.0</ele><time>2026-04-17T06:56:29.85Z</time></trkpt><trkpt lat="42.784735" lon="-8.729485"><ele>282.0</ele><time>2026-04-17T06:56:30.85Z</time></trkpt><trkpt lat="42.7847083" lon="-8.72965"><ele>283.0</ele><time>2026-04-17T06:56:31.85Z</time></trkpt><trkpt lat="42.784655" lon="-8.7298167"><ele>284.0</ele><time>2026-04-17T06:56:32.85Z</time></trkpt><trkpt lat="42.7846017" lon="-8.72999"><ele>285.0</ele><time>2026-04-17T06:56:33.849Z</time></trkpt><trkpt lat="42.7845667" lon="-8.73018"><ele>286.0</ele><time>2026-04-17T06:56:34.85Z</time></trkpt><trkpt lat="42.7845483" lon="-8.7303733"><ele>290.5</ele><time>2026-04-17T06:56:35.85Z</time></trkpt><trkpt lat="42.7845783" lon="-8.7305483"><ele>295.0</ele><time>2026-04-17T06:56:36.849Z</time></trkpt><trkpt lat="42.7846467" lon="-8.7307033"><ele>299.5</ele><time>2026-04-17T06:56:37.85Z</time></trkpt><trkpt lat="42.7847517" lon="-8.7308083"><ele>304.0</ele><time>2026-04-17T06:56:38.849Z</time></trkpt><trkpt lat="42.7848867" lon="-8.730905"><ele>304.0</ele><time>2026-04-17T06:56:39.849Z</time></trkpt><trkpt lat="42.78504" lon="-8.7309883"><ele>304.0</ele><time>2026-04-17T06:56:40.85Z</time></trkpt><trkpt lat="42.7852083" lon="-8.7310683"><ele>304.0</ele><time>2026-04-17T06:56:41.85Z</time></trkpt><trkpt lat="42.785375" lon="-8.731165"><ele>308.3333333333333</ele><time>2026-04-17T06:56:42.85Z</time></trkpt><trkpt lat="42.7855367" lon="-8.73125"><ele>312.6666666666667</ele><time>2026-04-17T06:56:43.85Z</time></trkpt><trkpt lat="42.78571" lon="-8.7313433"><ele>317.0</ele><time>2026-04-17T06:56:44.849Z</time></trkpt><trkpt lat="42.7858717" lon="-8.7314717"><ele>317.0</ele><time>2026-04-17T06:56:45.85Z</time></trkpt><trkpt lat="42.7860083" lon="-8.7316083"><ele>317.0</ele><time>2026-04-17T06:56:46.849Z</time></trkpt><trkpt lat="42.7861233" lon="-8.7317767"><ele>317.0</ele><time>2026-04-17T06:56:47.85Z</time></trkpt><trkpt lat="42.7862233" lon="-8.7319933"><ele>316.0</ele><time>2026-04-17T06:56:48.849Z</time></trkpt><trkpt lat="42.7863217" lon="-8.73223"><ele>315.0</ele><time>2026-04-17T06:56:49.85Z</time></trkpt><trkpt lat="42.7863883" lon="-8.7324683"><ele>314.0</ele><time>2026-04-17T06:56:50.85Z</time></trkpt><trkpt lat="42.786455" lon="-8.7326933"><ele>317.33333333333337</ele><time>2026-04-17T06:56:51.85Z</time></trkpt><trkpt lat="42.7865283" lon="-8.7329217"><ele>320.6666666666667</ele><time>2026-04-17T06:56:52.85Z</time></trkpt><trkpt lat="42.7866" lon="-8.7331467"><ele>324.0</ele><time>2026-04-17T06:56:53.85Z</time></trkpt><trkpt lat="42.7866767" lon="-8.73336"><ele>324.0</ele><time>2026-04-17T06:56:54.85Z</time></trkpt><trkpt lat="42.7867517" lon="-8.733545"><ele>324.0</ele><time>2026-04-17T06:56:55.851Z</time></trkpt><trkpt lat="42.7868383" lon="-8.7337117"><ele>324.0</ele><time>2026-04-17T06:56:56.851Z</time></trkpt><trkpt lat="42.7869433" lon="-8.733835"><ele>324.0</ele><time>2026-04-17T06:56:57.851Z</time></trkpt><trkpt lat="42.7870717" lon="-8.733895"><ele>326.0</ele><time>2026-04-17T06:56:58.85Z</time></trkpt><trkpt lat="42.7872117" lon="-8.7339117"><ele>328.0</ele><time>2026-04-17T06:56:59.851Z</time></trkpt><trkpt lat="42.787355" lon="-8.7338867"><ele>330.0</ele><time>2026-04-17T06:57:00.851Z</time></trkpt><trkpt lat="42.7874983" lon="-8.7338433"><ele>332.0</ele><time>2026-04-17T06:57:01.85Z</time></trkpt><trkpt lat="42.7876517" lon="-8.7338067"><ele>332.6666666666667</ele><time>2026-04-17T06:57:02.85Z</time></trkpt><trkpt lat="42.7878133" lon="-8.7337733"><ele>333.3333333333333</ele><time>2026-04-17T06:57:03.85Z</time></trkpt><trkpt lat="42.7879833" lon="-8.7337483"><ele>334.0</ele><time>2026-04-17T06:57:04.851Z</time></trkpt><trkpt lat="42.78816" lon="-8.7337417"><ele>334.0</ele><time>2026-04-17T06:57:05.85Z</time></trkpt><trkpt lat="42.7883317" lon="-8.7337567"><ele>334.0</ele><time>2026-04-17T06:57:06.85Z</time></trkpt><trkpt lat="42.788485" lon="-8.7338083"><ele>334.0</ele><time>2026-04-17T06:57:07.851Z</time></trkpt><trkpt lat="42.7886383" lon="-8.7338767"><ele>333.66666666666663</ele><time>2026-04-17T06:57:08.85Z</time></trkpt><trkpt lat="42.7887917" lon="-8.7339683"><ele>333.3333333333333</ele><time>2026-04-17T06:57:09.85Z</time></trkpt><trkpt lat="42.7889467" lon="-8.7340483"><ele>333.0</ele><time>2026-04-17T06:57:10.85Z</time></trkpt><trkpt lat="42.78504" lon="-8.7309883"><ele>327.6666666666667</ele><time>2026-04-17T06:56:40.85Z</time></trkpt><trkpt lat="42.7852083" lon="-8.7310683"><ele>322.33333333333337</ele><time>2026-04-17T06:56:41.85Z</time></trkpt><trkpt lat="42.785375" lon="-8.731165"><ele>317.0</ele><time>2026-04-17T06:56:42.85Z</time></trkpt><trkpt lat="42.7855367" lon="-8.73125"><ele>317.0</ele><time>2026-04-17T06:56:43.85Z</time></trkpt><trkpt lat="42.78571" lon="-8.7313433"><ele>317.0</ele><time>2026-04-17T06:56:44.849Z</time></trkpt><trkpt lat="42.7858717" lon="-8.7314717"><ele>317.0</ele><time>2026-04-17T06:56:45.85Z</time></trkpt><trkpt lat="42.7860083" lon="-8.7316083"><ele>316.0</ele><time>2026-04-17T06:56:46.849Z</time></trkpt><trkpt lat="42.7861233" lon="-8.7317767"><ele>315.0</ele><time>2026-04-17T06:56:47.85Z</time></trkpt><trkpt lat="42.7862233" lon="-8.7319933"><ele>314.0</ele><time>2026-04-17T06:56:48.849Z</time></trkpt><trkpt lat="42.7863217" lon="-8.73223"><ele>314.0</ele><time>2026-04-17T06:56:49.85Z</time></trkpt><trkpt lat="42.7863883" lon="-8.7324683"><ele>314.0</ele><time>2026-04-17T06:56:50.85Z</time></trkpt><trkpt lat="42.786455" lon="-8.7326933"><ele>314.0</ele><time>2026-04-17T06:56:51.85Z</time></trkpt><trkpt lat="42.7865283" lon="-8.7329217"><ele>317.33333333333337</ele><time>2026-04-17T06:56:52.85Z</time></trkpt><trkpt lat="42.7866" lon="-8.7331467"><ele>320.6666666666667</ele><time>2026-04-17T06:56:53.85Z</time></trkpt><trkpt lat="42.7866767" lon="-8.73336"><ele>324.0</ele><time>2026-04-17T06:56:54.85Z</time></trkpt><trkpt lat="42.7867517" lon="-8.733545"><ele>326.0</ele><time>2026-04-17T06:56:55.851Z</time></trkpt><trkpt lat="42.7868383" lon="-8.7337117"><ele>328.0</ele><time>2026-04-17T06:56:56.851Z</time></trkpt><trkpt lat="42.7869433" lon="-8.733835"><ele>330.0</ele><time>2026-04-17T06:56:57.851Z</time></trkpt><trkpt lat="42.7870717" lon="-8.733895"><ele>332.0</ele><time>2026-04-17T06:56:58.85Z</time></trkpt><trkpt lat="42.7872117" lon="-8.7339117"><ele>332.0</ele><time>2026-04-17T06:56:59.851Z</time></trkpt><trkpt lat="42.787355" lon="-8.7338867"><ele>332.0</ele><time>2026-04-17T06:57:00.851Z</time></trkpt><trkpt lat="42.7874983" lon="-8.7338433"><ele>332.0</ele><time>2026-04-17T06:57:01.85Z</time></trkpt><trkpt lat="42.7876517" lon="-8.7338067"><ele>332.0</ele><time>2026-04-17T06:57:02.85Z</time></trkpt><trkpt lat="42.7878133" lon="-8.7337733"><ele>332.6666666666667</ele><time>2026-04-17T06:57:03.85Z</time></trkpt><trkpt lat="42.7879833" lon="-8.7337483"><ele>333.3333333333333</ele><time>2026-04-17T06:57:04.851Z</time></trkpt><trkpt lat="42.78816" lon="-8.7337417"><ele>334.0</ele><time>2026-04-17T06:57:05.85Z</time></trkpt><trkpt lat="42.7883317" lon="-8.7337567"><ele>334.0</ele><time>2026-04-17T06:57:06.85Z</time></trkpt><trkpt lat="42.788485" lon="-8.7338083"><ele>334.0</ele><time>2026-04-17T06:57:07.851Z</time></trkpt><trkpt lat="42.7886383" lon="-8.7338767"><ele>334.0</ele><time>2026-04-17T06:57:08.85Z</time></trkpt><trkpt lat="42.7887917" lon="-8.7339683"><ele>333.66666666666663</ele><time>2026-04-17T06:57:09.85Z</time></trkpt><trkpt lat="42.7889467" lon="-8.7340483"><ele>333.3333333333333</ele><time>2026-04-17T06:57:10.85Z</time></trkpt><trkpt lat="42.7891183" lon="-8.73413"><ele>333.0</ele><time>2026-04-17T06:57:11.851Z</time></trkpt><trkpt lat="42.78927" lon="-8.7341983"><ele>331.0</ele><time>2026-04-17T06:57:12.851Z</time></trkpt><trkpt lat="42.7894267" lon="-8.73427"><ele>329.0</ele><time>2026-04-17T06:57:13.851Z</time></trkpt><trkpt lat="42.7895717" lon="-8.7343333"><ele>327.0</ele><time>2026-04-17T06:57:14.851Z</time></trkpt><trkpt lat="42.7897" lon="-8.7343983"><ele>331.25</ele><time>2026-04-17T06:57:15.851Z</time></trkpt><trkpt lat="42.789825" lon="-8.7344633"><ele>335.5</ele><time>2026-04-17T06:57:16.85Z</time></trkpt><trkpt lat="42.78994" lon="-8.7345383"><ele>339.75</ele><time>2026-04-17T06:57:17.851Z</time></trkpt><trkpt lat="42.790045" lon="-8.7346283"><ele>344.0</ele><time>2026-04-17T06:57:18.85Z</time></trkpt><trkpt lat="42.790125" lon="-8.7347383"><ele>343.25</ele><time>2026-04-17T06:57:19.851Z</time></trkpt><trkpt lat="42.7901867" lon="-8.7348783"><ele>342.5</ele><time>2026-04-17T06:57:20.851Z</time></trkpt><trkpt lat="42.7902167" lon="-8.735045"><ele>341.75</ele><time>2026-04-17T06:57:21.85Z</time></trkpt><trkpt lat="42.7902167" lon="-8.7352183"><ele>341.0</ele><time>2026-04-17T06:57:22.851Z</time></trkpt><trkpt lat="42.79019" lon="-8.73539"><ele>344.5</ele><time>2026-04-17T06:57:23.85Z</time></trkpt><trkpt lat="42.7901383" lon="-8.735565"><ele>348.0</ele><time>2026-04-17T06:57:24.85Z</time></trkpt><trkpt lat="42.7900767" lon="-8.73573"><ele>351.5</ele><time>2026-04-17T06:57:25.851Z</time></trkpt><trkpt lat="42.7900267" lon="-8.735895"><ele>355.0</ele><time>2026-04-17T06:57:26.851Z</time></trkpt><trkpt lat="42.789985" lon="-8.73606"><ele>359.25</ele><time>2026-04-17T06:57:27.85Z</time></trkpt><trkpt lat="42.7899633" lon="-8.7362267"><ele>363.5</ele><time>2026-04-17T06:57:28.85Z</time></trkpt><trkpt lat="42.7899733" lon="-8.73638"><ele>367.75</ele><time>2026-04-17T06:57:29.851Z</time></trkpt><trkpt lat="42.7900233" lon="-8.7365267"><ele>372.0</ele><time>2026-04-17T06:57:30.85Z</time></trkpt><trkpt lat="42.79011" lon="-8.7366533"><ele>371.75</ele><time>2026-04-17T06:57:31.851Z</time></trkpt><trkpt lat="42.7902167" lon="-8.7367383"><ele>371.5</ele><time>2026-04-17T06:57:32.851Z</time></trkpt><trkpt lat="42.7903467" lon="-8.7367783"><ele>371.25</ele><time>2026-04-17T06:57:33.85Z</time></trkpt><trkpt lat="42.7904817" lon="-8.7367517"><ele>371.0</ele><time>2026-04-17T06:57:34.85Z</time></trkpt><trkpt lat="42.79063" lon="-8.7367317"><ele>371.0</ele><time>2026-04-17T06:57:35.85Z</time></trkpt><trkpt lat="42.7907733" lon="-8.7366917"><ele>371.0</ele><time>2026-04-17T06:57:36.851Z</time></trkpt><trkpt lat="42.790925" lon="-8.73664"><ele>371.0</ele><time>2026-04-17T06:57:37.85Z</time></trkpt><trkpt lat="42.79107" lon="-8.7365933"><ele>371.5</ele><time>2026-04-17T06:57:38.85Z</time></trkpt><trkpt lat="42.7912133" lon="-8.7365567"><ele>372.0</ele><time>2026-04-17T06:57:39.85Z</time></trkpt><trkpt lat="42.791355" lon="-8.7365167"><ele>372.5</ele><time>2026-04-17T06:57:40.85Z</time></trkpt><trkpt lat="42.791505" lon="-8.73647"><ele>373.0</ele><time>2026-04-17T06:57:41.851Z</time></trkpt><trkpt lat="42.791645" lon="-8.7364417"><ele>373.0</ele><time>2026-04-17T06:57:42.85Z</time></trkpt><trkpt lat="42.7917733" lon="-8.7364083"><ele>373.0</ele><time>2026-04-17T06:57:43.85Z</time></trkpt><trkpt lat="42.7918967" lon="-8.736365"><ele>373.0</ele><time>2026-04-17T06:57:44.85Z</time></trkpt><trkpt lat="42.792015" lon="-8.7363433"><ele>373.0</ele><time>2026-04-17T06:57:45.851Z</time></trkpt><trkpt lat="42.7921383" lon="-8.7363533"><ele>372.75</ele><time>2026-04-17T06:57:46.851Z</time></trkpt><trkpt lat="42.7922733" lon="-8.7363933"><ele>372.5</ele><time>2026-04-17T06:57:47.85Z</time></trkpt><trkpt lat="42.7924" lon="-8.73646"><ele>372.25</ele><time>2026-04-17T06:57:48.851Z</time></trkpt><trkpt lat="42.7925233" lon="-8.736555"><ele>372.0</ele><time>2026-04-17T06:57:49.85Z</time></trkpt><trkpt lat="42.7926317" lon="-8.7366783"><ele>372.3333333333333</ele><time>2026-04-17T06:57:50.85Z</time></trkpt><trkpt lat="42.7927233" lon="-8.73684"><ele>372.66666666666663</ele><time>2026-04-17T06:57:51.85Z</time></trkpt><trkpt lat="42.7928133" lon="-8.73701"><ele>373.0</ele><time>2026-04-17T06:57:52.85Z</time></trkpt><trkpt lat="42.7929017" lon="-8.7371783"><ele>373.0</ele><time>2026-04-17T06:57:53.851Z</time></trkpt><trkpt lat="42.7930033" lon="-8.7373283"><ele>373.0</ele><time>2026-04-17T06:57:54.85Z</time></trkpt><trkpt lat="42.7931267" lon="-8.737475"><ele>373.0</ele><time>2026-04-17T06:57:55.85Z</time></trkpt><trkpt lat="42.7932567" lon="-8.7375917"><ele>374.3333333333333</ele><time>2026-04-17T06:57:56.851Z</time></trkpt><trkpt lat="42.79338" lon="-8.73772"><ele>375.6666666666667</ele><time>2026-04-17T06:57:57.85Z</time></trkpt><trkpt lat="42.7934967" lon="-8.73786"><ele>377.0</ele><time>2026-04-17T06:57:58.85Z</time></trkpt><trkpt lat="42.7935967" lon="-8.7379967"><ele>377.0</ele><time>2026-04-17T06:57:59.85Z</time></trkpt><trkpt lat="42.7937" lon="-8.738145"><ele>377.0</ele><time>2026-04-17T06:58:00.851Z</time></trkpt><trkpt lat="42.79382" lon="-8.738315"><ele>377.0</ele><time>2026-04-17T06:58:01.85Z</time></trkpt><trkpt lat="42.7939267" lon="-8.73846"><ele>379.6666666666667</ele><time>2026-04-17T06:58:02.851Z</time></trkpt><trkpt lat="42.7940383" lon="-8.7386167"><ele>382.33333333333337</ele><time>2026-04-17T06:58:03.851Z</time></trkpt><trkpt lat="42.7941567" lon="-8.7387967"><ele>385.0</ele><time>2026-04-17T06:58:04.85Z</time></trkpt><trkpt lat="42.7942683" lon="-8.7389817"><ele>385.0</ele><time>2026-04-17T06:58:05.85Z</time></trkpt><trkpt lat="42.7943817" lon="-8.7391617"><ele>385.0</ele><time>2026-04-17T06:58:06.85Z</time></trkpt><trkpt lat="42.79448" lon="-8.7393517"><ele>385.0</ele><time>2026-04-17T06:58:07.851Z</time></trkpt><trkpt lat="42.7945833" lon="-8.7395317"><ele>385.0</ele><time>2026-04-17T06:58:08.851Z</time></trkpt><trkpt lat="42.7946667" lon="-8.7396783"><ele>385.0</ele><time>2026-04-17T06:58:09.85Z</time></trkpt><trkpt lat="42.7947433" lon="-8.7397983"><ele>385.0</ele><time>2026-04-17T06:58:10.851Z</time></trkpt><trkpt lat="42.794825" lon="-8.7399"><ele>385.0</ele><time>2026-04-17T06:58:11.851Z</time></trkpt><trkpt lat="42.794925" lon="-8.7399517"><ele>385.0</ele><time>2026-04-17T06:58:12.85Z</time></trkpt><trkpt lat="42.7950383" lon="-8.7399517"><ele>385.0</ele><time>2026-04-17T06:58:13.851Z</time></trkpt><trkpt lat="42.79516" lon="-8.7399483"><ele>385.0</ele><time>2026-04-17T06:58:14.851Z</time></trkpt><trkpt lat="42.7952967" lon="-8.7399283"><ele>385.0</ele><time>2026-04-17T06:58:15.851Z</time></trkpt><trkpt lat="42.7954483" lon="-8.739915"><ele>386.33333333333337</ele><time>2026-04-17T06:58:16.851Z</time></trkpt><trkpt lat="42.7956017" lon="-8.7399"><ele>387.66666666666663</ele><time>2026-04-17T06:58:17.85Z</time></trkpt><trkpt lat="42.7957633" lon="-8.7399033"><ele>389.0</ele><time>2026-04-17T06:58:18.85Z</time></trkpt><trkpt lat="42.79593" lon="-8.73993"><ele>389.66666666666663</ele><time>2026-04-17T06:58:19.851Z</time></trkpt><trkpt lat="42.796095" lon="-8.7399733"><ele>390.33333333333337</ele><time>2026-04-17T06:58:20.85Z</time></trkpt><trkpt lat="42.796255" lon="-8.7400467"><ele>391.0</ele><time>2026-04-17T06:58:21.851Z</time></trkpt><trkpt lat="42.7964067" lon="-8.7401367"><ele>388.6666666666667</ele><time>2026-04-17T06:58:22.851Z</time></trkpt><trkpt lat="42.796555" lon="-8.7402633"><ele>386.33333333333337</ele><time>2026-04-17T06:58:23.85Z</time></trkpt><trkpt lat="42.7967083" lon="-8.7403883"><ele>384.0</ele><time>2026-04-17T06:58:24.851Z</time></trkpt><trkpt lat="42.79686" lon="-8.7405117"><ele>384.0</ele><time>2026-04-17T06:58:25.851Z</time></trkpt><trkpt lat="42.7970067" lon="-8.74063"><ele>384.0</ele><time>2026-04-17T06:58:26.85Z</time></trkpt><trkpt lat="42.797125" lon="-8.740735"><ele>384.0</ele><time>2026-04-17T06:58:27.85Z</time></trkpt><trkpt lat="42.7972417" lon="-8.7408333"><ele>384.0</ele><time>2026-04-17T06:58:28.85Z</time></trkpt><trkpt lat="42.7973567" lon="-8.7409317"><ele>384.0</ele><time>2026-04-17T06:58:29.851Z</time></trkpt><trkpt lat="42.79746" lon="-8.741025"><ele>384.0</ele><time>2026-04-17T06:58:30.851Z</time></trkpt><trkpt lat="42.79754" lon="-8.7410983"><ele>384.0</ele><time>2026-04-17T06:58:31.85Z</time></trkpt><trkpt lat="42.797625" lon="-8.7411767"><ele>384.0</ele><time>2026-04-17T06:58:32.85Z</time></trkpt><trkpt lat="42.7977133" lon="-8.7412533"><ele>384.0</ele><time>2026-04-17T06:58:33.851Z</time></trkpt><trkpt lat="42.79779" lon="-8.74132"><ele>383.75</ele><time>2026-04-17T06:58:34.851Z</time></trkpt><trkpt lat="42.7978883" lon="-8.7414017"><ele>383.5</ele><time>2026-04-17T06:58:35.85Z</time></trkpt><trkpt lat="42.7979933" lon="-8.7414933"><ele>383.25</ele><time>2026-04-17T06:58:36.85Z</time></trkpt><trkpt lat="42.7981" lon="-8.74158"><ele>383.0</ele><time>2026-04-17T06:58:37.85Z</time></trkpt><trkpt lat="42.79448" lon="-8.7393517"><ele>383.5</ele><time>2026-04-17T06:58:07.851Z</time></trkpt><trkpt lat="42.7945833" lon="-8.7395317"><ele>384.0</ele><time>2026-04-17T06:58:08.851Z</time></trkpt><trkpt lat="42.7946667" lon="-8.7396783"><ele>384.5</ele><time>2026-04-17T06:58:09.85Z</time></trkpt><trkpt lat="42.7947433" lon="-8.7397983"><ele>385.0</ele><time>2026-04-17T06:58:10.851Z</time></trkpt><trkpt lat="42.794825" lon="-8.7399"><ele>385.0</ele><time>2026-04-17T06:58:11.851Z</time></trkpt><trkpt lat="42.794925" lon="-8.7399517"><ele>385.0</ele><time>2026-04-17T06:58:12.85Z</time></trkpt><trkpt lat="42.7950383" lon="-8.7399517"><ele>385.0</ele><time>2026-04-17T06:58:13.851Z</time></trkpt><trkpt lat="42.79516" lon="-8.7399483"><ele>385.0</ele><time>2026-04-17T06:58:14.851Z</time></trkpt><trkpt lat="42.7952967" lon="-8.7399283"><ele>386.33333333333337</ele><time>2026-04-17T06:58:15.851Z</time></trkpt><trkpt lat="42.7954483" lon="-8.739915"><ele>387.66666666666663</ele><time>2026-04-17T06:58:16.851Z</time></trkpt><trkpt lat="42.7956017" lon="-8.7399"><ele>389.0</ele><time>2026-04-17T06:58:17.85Z</time></trkpt><trkpt lat="42.7957633" lon="-8.7399033"><ele>389.0</ele><time>2026-04-17T06:58:18.85Z</time></trkpt><trkpt lat="42.79593" lon="-8.73993"><ele>389.0</ele><time>2026-04-17T06:58:19.851Z</time></trkpt><trkpt lat="42.796095" lon="-8.7399733"><ele>389.0</ele><time>2026-04-17T06:58:20.85Z</time></trkpt><trkpt lat="42.796255" lon="-8.7400467"><ele>389.66666666666663</ele><time>2026-04-17T06:58:21.851Z</time></trkpt><trkpt lat="42.7964067" lon="-8.7401367"><ele>390.33333333333337</ele><time>2026-04-17T06:58:22.851Z</time></trkpt><trkpt lat="42.796555" lon="-8.7402633"><ele>391.0</ele><time>2026-04-17T06:58:23.85Z</time></trkpt><trkpt lat="42.7967083" lon="-8.7403883"><ele>388.6666666666667</ele><time>2026-04-17T06:58:24.851Z</time></trkpt><trkpt lat="42.79686" lon="-8.7405117"><ele>386.33333333333337</ele><time>2026-04-17T06:58:25.851Z</time></trkpt><trkpt lat="42.7970067" lon="-8.74063"><ele>384.0</ele><time>2026-04-17T06:58:26.85Z</time></trkpt><trkpt lat="42.797125" lon="-8.740735"><ele>384.0</ele><time>2026-04-17T06:58:27.85Z</time></trkpt><trkpt lat="42.7972417" lon="-8.7408333"><ele>384.0</ele><time>2026-04-17T06:58:28.85Z</time></trkpt><trkpt lat="42.7973567" lon="-8.7409317"><ele>384.0</ele><time>2026-04-17T06:58:29.851Z</time></trkpt><trkpt lat="42.79746" lon="-8.741025"><ele>384.0</ele><time>2026-04-17T06:58:30.851Z</time></trkpt><trkpt lat="42.79754" lon="-8.7410983"><ele>384.2</ele><time>2026-04-17T06:58:31.85Z</time></trkpt><trkpt lat="42.797625" lon="-8.7411767"><ele>384.4</ele><time>2026-04-17T06:58:32.85Z</time></trkpt><trkpt lat="42.7977133" lon="-8.7412533"><ele>384.6</ele><time>2026-04-17T06:58:33.851Z</time></trkpt><trkpt lat="42.79779" lon="-8.74132"><ele>384.8</ele><time>2026-04-17T06:58:34.851Z</time></trkpt><trkpt lat="42.7978883" lon="-8.7414017"><ele>385.0</ele><time>2026-04-17T06:58:35.85Z</time></trkpt><trkpt lat="42.7979933" lon="-8.7414933"><ele>385.75</ele><time>2026-04-17T06:58:36.85Z</time></trkpt><trkpt lat="42.7981" lon="-8.74158"><ele>386.5</ele><time>2026-04-17T06:58:37.85Z</time></trkpt><trkpt lat="42.7982183" lon="-8.7416783"><ele>387.25</ele><time>2026-04-17T06:58:38.851Z</time></trkpt><trkpt lat="42.7983367" lon="-8.7417667"><ele>388.0</ele><time>2026-04-17T06:58:39.85Z</time></trkpt><trkpt lat="42.79846" lon="-8.74186"><ele>388.6666666666667</ele><time>2026-04-17T06:58:40.85Z</time></trkpt><trkpt lat="42.798595" lon="-8.7419783"><ele>389.33333333333337</ele><time>2026-04-17T06:58:41.851Z</time></trkpt><trkpt lat="42.7987233" lon="-8.7420917"><ele>390.0</ele><time>2026-04-17T06:58:42.851Z</time></trkpt><trkpt lat="42.7988533" lon="-8.7421967"><ele>390.0</ele><time>2026-04-17T06:58:43.85Z</time></trkpt><trkpt lat="42.79899" lon="-8.7423083"><ele>390.0</ele><time>2026-04-17T06:58:44.85Z</time></trkpt><trkpt lat="42.7991217" lon="-8.742405"><ele>390.0</ele><time>2026-04-17T06:58:45.85Z</time></trkpt><trkpt lat="42.7992617" lon="-8.7425217"><ele>390.33333333333337</ele><time>2026-04-17T06:58:46.85Z</time></trkpt><trkpt lat="42.799405" lon="-8.7426483"><ele>390.6666666666667</ele><time>2026-04-17T06:58:47.85Z</time></trkpt><trkpt lat="42.799555" lon="-8.74278"><ele>391.0</ele><time>2026-04-17T06:58:48.85Z</time></trkpt><trkpt lat="42.7997" lon="-8.7429"><ele>390.33333333333337</ele><time>2026-04-17T06:58:49.85Z</time></trkpt><trkpt lat="42.79985" lon="-8.7430217"><ele>389.66666666666663</ele><time>2026-04-17T06:58:50.85Z</time></trkpt><trkpt lat="42.8" lon="-8.7431383"><ele>389.0</ele><time>2026-04-17T06:58:51.85Z</time></trkpt><trkpt lat="42.8001483" lon="-8.743255"><ele>389.66666666666663</ele><time>2026-04-17T06:58:52.851Z</time></trkpt><trkpt lat="42.8002967" lon="-8.7433717"><ele>390.33333333333337</ele><time>2026-04-17T06:58:53.85Z</time></trkpt><trkpt lat="42.8004467" lon="-8.7434917"><ele>391.0</ele><time>2026-04-17T06:58:54.851Z</time></trkpt><trkpt lat="42.8005833" lon="-8.7436017"><ele>391.0</ele><time>2026-04-17T06:58:55.85Z</time></trkpt><trkpt lat="42.800725" lon="-8.7437117"><ele>391.0</ele><time>2026-04-17T06:58:56.85Z</time></trkpt><trkpt lat="42.8008633" lon="-8.7438283"><ele>391.0</ele><time>2026-04-17T06:58:57.85Z</time></trkpt><trkpt lat="42.8010067" lon="-8.74394"><ele>391.6666666666667</ele><time>2026-04-17T06:58:58.851Z</time></trkpt><trkpt lat="42.801155" lon="-8.7440583"><ele>392.33333333333337</ele><time>2026-04-17T06:58:59.85Z</time></trkpt><trkpt lat="42.801305" lon="-8.7441767"><ele>393.0</ele><time>2026-04-17T06:59:00.85Z</time></trkpt><trkpt lat="42.8014483" lon="-8.7442983"><ele>392.33333333333337</ele><time>2026-04-17T06:59:01.85Z</time></trkpt><trkpt lat="42.8015933" lon="-8.7444217"><ele>391.6666666666667</ele><time>2026-04-17T06:59:02.851Z</time></trkpt><trkpt lat="42.8017233" lon="-8.74455"><ele>391.0</ele><time>2026-04-17T06:59:03.85Z</time></trkpt><trkpt lat="42.8018783" lon="-8.7446833"><ele>392.6666666666667</ele><time>2026-04-17T06:59:04.851Z</time></trkpt><trkpt lat="42.8020283" lon="-8.7448083"><ele>394.33333333333337</ele><time>2026-04-17T06:59:05.851Z</time></trkpt><trkpt lat="42.8021783" lon="-8.744915"><ele>396.0</ele><time>2026-04-17T06:59:06.85Z</time></trkpt><trkpt lat="42.8023183" lon="-8.7450383"><ele>396.0</ele><time>2026-04-17T06:59:07.851Z</time></trkpt><trkpt lat="42.8024617" lon="-8.7451633"><ele>396.0</ele><time>2026-04-17T06:59:08.85Z</time></trkpt><trkpt lat="42.8026117" lon="-8.745305"><ele>396.0</ele><time>2026-04-17T06:59:09.85Z</time></trkpt><trkpt lat="42.802755" lon="-8.74543"><ele>396.0</ele><time>2026-04-17T06:59:10.851Z</time></trkpt><trkpt lat="42.8029117" lon="-8.745545"><ele>396.0</ele><time>2026-04-17T06:59:11.851Z</time></trkpt><trkpt lat="42.80306" lon="-8.7456633"><ele>396.0</ele><time>2026-04-17T06:59:12.851Z</time></trkpt><trkpt lat="42.8032067" lon="-8.74576"><ele>396.0</ele><time>2026-04-17T06:59:13.85Z</time></trkpt><trkpt lat="42.8033617" lon="-8.7458533"><ele>396.0</ele><time>2026-04-17T06:59:14.851Z</time></trkpt><trkpt lat="42.80352" lon="-8.7459067"><ele>396.0</ele><time>2026-04-17T06:59:15.851Z</time></trkpt><trkpt lat="42.8036883" lon="-8.7459317"><ele>397.0</ele><time>2026-04-17T06:59:16.85Z</time></trkpt><trkpt lat="42.8038567" lon="-8.74593"><ele>398.0</ele><time>2026-04-17T06:59:17.85Z</time></trkpt><trkpt lat="42.8040383" lon="-8.74594"><ele>399.0</ele><time>2026-04-17T06:59:18.85Z</time></trkpt><trkpt lat="42.804205" lon="-8.745925"><ele>399.66666666666663</ele><time>2026-04-17T06:59:19.85Z</time></trkpt><trkpt lat="42.8043867" lon="-8.7459283"><ele>400.3333333333333</ele><time>2026-04-17T06:59:20.851Z</time></trkpt><trkpt lat="42.8045667" lon="-8.745935"><ele>401.0</ele><time>2026-04-17T06:59:21.851Z</time></trkpt><trkpt lat="42.8047517" lon="-8.7459433"><ele>401.0</ele><time>2026-04-17T06:59:22.85Z</time></trkpt><trkpt lat="42.8049433" lon="-8.74595"><ele>401.0</ele><time>2026-04-17T06:59:23.851Z</time></trkpt><trkpt lat="42.8051333" lon="-8.7459567"><ele>401.0</ele><time>2026-04-17T06:59:24.85Z</time></trkpt><trkpt lat="42.8053233" lon="-8.745965"><ele>400.66666666666663</ele><time>2026-04-17T06:59:25.85Z</time></trkpt><trkpt lat="42.80551" lon="-8.74597"><ele>400.33333333333337</ele><time>2026-04-17T06:59:26.85Z</time></trkpt><trkpt lat="42.805695" lon="-8.74596"><ele>400.0</ele><time>2026-04-17T06:59:27.85Z</time></trkpt><trkpt lat="42.8058817" lon="-8.7459617"><ele>401.0</ele><time>2026-04-17T06:59:28.85Z</time></trkpt><trkpt lat="42.8060717" lon="-8.7459533"><ele>402.0</ele><time>2026-04-17T06:59:29.85Z</time></trkpt><trkpt lat="42.8062683" lon="-8.7459567"><ele>403.0</ele><time>2026-04-17T06:59:30.85Z</time></trkpt><trkpt lat="42.8064567" lon="-8.74598"><ele>403.0</ele><time>2026-04-17T06:59:31.85Z</time></trkpt><trkpt lat="42.8066267" lon="-8.746005"><ele>403.0</ele><time>2026-04-17T06:59:32.85Z</time></trkpt><trkpt lat="42.8068" lon="-8.74606"><ele>403.0</ele><time>2026-04-17T06:59:33.85Z</time></trkpt><trkpt lat="42.806965" lon="-8.7461233"><ele>403.6666666666667</ele><time>2026-04-17T06:59:34.851Z</time></trkpt><trkpt lat="42.8071217" lon="-8.7462"><ele>404.33333333333337</ele><time>2026-04-17T06:59:35.85Z</time></trkpt><trkpt lat="42.8072833" lon="-8.7462633"><ele>405.0</ele><time>2026-04-17T06:59:36.851Z</time></trkpt><trkpt lat="42.8074467" lon="-8.74633"><ele>405.0</ele><time>2026-04-17T06:59:37.85Z</time></trkpt><trkpt lat="42.8076133" lon="-8.7464017"><ele>405.0</ele><time>2026-04-17T06:59:38.851Z</time></trkpt><trkpt lat="42.8077767" lon="-8.7464733"><ele>405.0</ele><time>2026-04-17T06:59:39.851Z</time></trkpt><trkpt lat="42.8079433" lon="-8.74654"><ele>406.66666666666663</ele><time>2026-04-17T06:59:40.85Z</time></trkpt><trkpt lat="42.8081" lon="-8.746605"><ele>408.3333333333333</ele><time>2026-04-17T06:59:41.85Z</time></trkpt><trkpt lat="42.8082667" lon="-8.7466767"><ele>410.0</ele><time>2026-04-17T06:59:42.85Z</time></trkpt><trkpt lat="42.808425" lon="-8.7467517"><ele>412.66666666666663</ele><time>2026-04-17T06:59:43.851Z</time></trkpt><trkpt lat="42.8085733" lon="-8.7468383"><ele>415.33333333333337</ele><time>2026-04-17T06:59:44.851Z</time></trkpt><trkpt lat="42.8087117" lon="-8.7469317"><ele>418.0</ele><time>2026-04-17T06:59:45.851Z</time></trkpt><trkpt lat="42.80884" lon="-8.7470567"><ele>419.0</ele><time>2026-04-17T06:59:46.851Z</time></trkpt><trkpt lat="42.8089483" lon="-8.747215"><ele>420.0</ele><time>2026-04-17T06:59:47.85Z</time></trkpt><trkpt lat="42.8090467" lon="-8.74739"><ele>421.0</ele><time>2026-04-17T06:59:48.85Z</time></trkpt><trkpt lat="42.8091433" lon="-8.7475667"><ele>420.0</ele><time>2026-04-17T06:59:49.851Z</time></trkpt><trkpt lat="42.809245" lon="-8.7477433"><ele>419.0</ele><time>2026-04-17T06:59:50.85Z</time></trkpt><trkpt lat="42.8093617" lon="-8.7478917"><ele>418.0</ele><time>2026-04-17T06:59:51.85Z</time></trkpt><trkpt lat="42.8094867" lon="-8.7480117"><ele>421.33333333333337</ele><time>2026-04-17T06:59:52.85Z</time></trkpt><trkpt lat="42.8096283" lon="-8.748095"><ele>424.66666666666663</ele><time>2026-04-17T06:59:53.85Z</time></trkpt><trkpt lat="42.8097783" lon="-8.7481567"><ele>428.0</ele><time>2026-04-17T06:59:54.85Z</time></trkpt><trkpt lat="42.8099267" lon="-8.7482167"><ele>428.0</ele><time>2026-04-17T06:59:55.851Z</time></trkpt><trkpt lat="42.8100517" lon="-8.748305"><ele>428.0</ele><time>2026-04-17T06:59:56.851Z</time></trkpt><trkpt lat="42.8101433" lon="-8.7484233"><ele>428.0</ele><time>2026-04-17T06:59:57.85Z</time></trkpt><trkpt lat="42.8102067" lon="-8.7485767"><ele>428.0</ele><time>2026-04-17T06:59:58.851Z</time></trkpt><trkpt lat="42.810235" lon="-8.7487567"><ele>431.0</ele><time>2026-04-17T06:59:59.85Z</time></trkpt><trkpt lat="42.81024" lon="-8.7489467"><ele>434.0</ele><time>2026-04-17T07:00:00.851Z</time></trkpt><trkpt lat="42.810235" lon="-8.74915"><ele>437.0</ele><time>2026-04-17T07:00:01.851Z</time></trkpt><trkpt lat="42.810225" lon="-8.74936"><ele>440.0</ele><time>2026-04-17T07:00:02.85Z</time></trkpt><trkpt lat="42.8102083" lon="-8.7495783"><ele>443.5</ele><time>2026-04-17T07:00:03.85Z</time></trkpt><trkpt lat="42.810195" lon="-8.7498"><ele>447.0</ele><time>2026-04-17T07:00:04.85Z</time></trkpt><trkpt lat="42.806965" lon="-8.7461233"><ele>433.0</ele><time>2026-04-17T06:59:34.851Z</time></trkpt><trkpt lat="42.8071217" lon="-8.7462"><ele>419.0</ele><time>2026-04-17T06:59:35.85Z</time></trkpt><trkpt lat="42.8072833" lon="-8.7462633"><ele>405.0</ele><time>2026-04-17T06:59:36.851Z</time></trkpt><trkpt lat="42.8074467" lon="-8.74633"><ele>405.0</ele><time>2026-04-17T06:59:37.85Z</time></trkpt><trkpt lat="42.8076133" lon="-8.7464017"><ele>405.0</ele><time>2026-04-17T06:59:38.851Z</time></trkpt><trkpt lat="42.8077767" lon="-8.7464733"><ele>405.0</ele><time>2026-04-17T06:59:39.851Z</time></trkpt><trkpt lat="42.8079433" lon="-8.74654"><ele>406.66666666666663</ele><time>2026-04-17T06:59:40.85Z</time></trkpt><trkpt lat="42.8081" lon="-8.746605"><ele>408.3333333333333</ele><time>2026-04-17T06:59:41.85Z</time></trkpt><trkpt lat="42.8082667" lon="-8.7466767"><ele>410.0</ele><time>2026-04-17T06:59:42.85Z</time></trkpt><trkpt lat="42.808425" lon="-8.7467517"><ele>412.66666666666663</ele><time>2026-04-17T06:59:43.851Z</time></trkpt><trkpt lat="42.8085733" lon="-8.7468383"><ele>415.33333333333337</ele><time>2026-04-17T06:59:44.851Z</time></trkpt><trkpt lat="42.8087117" lon="-8.7469317"><ele>418.0</ele><time>2026-04-17T06:59:45.851Z</time></trkpt><trkpt lat="42.80884" lon="-8.7470567"><ele>419.0</ele><time>2026-04-17T06:59:46.851Z</time></trkpt><trkpt lat="42.8089483" lon="-8.747215"><ele>420.0</ele><time>2026-04-17T06:59:47.85Z</time></trkpt><trkpt lat="42.8090467" lon="-8.74739"><ele>421.0</ele><time>2026-04-17T06:59:48.85Z</time></trkpt><trkpt lat="42.8091433" lon="-8.7475667"><ele>420.0</ele><time>2026-04-17T06:59:49.851Z</time></trkpt><trkpt lat="42.809245" lon="-8.7477433"><ele>419.0</ele><time>2026-04-17T06:59:50.85Z</time></trkpt><trkpt lat="42.8093617" lon="-8.7478917"><ele>418.0</ele><time>2026-04-17T06:59:51.85Z</time></trkpt><trkpt lat="42.8094867" lon="-8.7480117"><ele>421.33333333333337</ele><time>2026-04-17T06:59:52.85Z</time></trkpt><trkpt lat="42.8096283" lon="-8.748095"><ele>424.66666666666663</ele><time>2026-04-17T06:59:53.85Z</time></trkpt><trkpt lat="42.8097783" lon="-8.7481567"><ele>428.0</ele><time>2026-04-17T06:59:54.85Z</time></trkpt><trkpt lat="42.8099267" lon="-8.7482167"><ele>428.0</ele><time>2026-04-17T06:59:55.851Z</time></trkpt><trkpt lat="42.8100517" lon="-8.748305"><ele>428.0</ele><time>2026-04-17T06:59:56.851Z</time></trkpt><trkpt lat="42.8101433" lon="-8.7484233"><ele>428.0</ele><time>2026-04-17T06:59:57.85Z</time></trkpt><trkpt lat="42.8102067" lon="-8.7485767"><ele>428.0</ele><time>2026-04-17T06:59:58.851Z</time></trkpt><trkpt lat="42.810235" lon="-8.7487567"><ele>431.0</ele><time>2026-04-17T06:59:59.85Z</time></trkpt><trkpt lat="42.81024" lon="-8.7489467"><ele>434.0</ele><time>2026-04-17T07:00:00.851Z</time></trkpt><trkpt lat="42.810235" lon="-8.74915"><ele>437.0</ele><time>2026-04-17T07:00:01.851Z</time></trkpt><trkpt lat="42.810225" lon="-8.74936"><ele>440.0</ele><time>2026-04-17T07:00:02.85Z</time></trkpt><trkpt lat="42.8102083" lon="-8.7495783"><ele>441.0</ele><time>2026-04-17T07:00:03.85Z</time></trkpt><trkpt lat="42.810195" lon="-8.7498"><ele>442.0</ele><time>2026-04-17T07:00:04.85Z</time></trkpt><trkpt lat="42.8101733" lon="-8.750025"><ele>443.0</ele><time>2026-04-17T07:00:05.851Z</time></trkpt><trkpt lat="42.810155" lon="-8.7502583"><ele>443.0</ele><time>2026-04-17T07:00:06.851Z</time></trkpt><trkpt lat="42.8101333" lon="-8.7504917"><ele>443.0</ele><time>2026-04-17T07:00:07.85Z</time></trkpt><trkpt lat="42.8101233" lon="-8.7507233"><ele>443.0</ele><time>2026-04-17T07:00:08.851Z</time></trkpt><trkpt lat="42.8101233" lon="-8.7509517"><ele>442.75</ele><time>2026-04-17T07:00:09.85Z</time></trkpt><trkpt lat="42.8101367" lon="-8.75116"><ele>442.5</ele><time>2026-04-17T07:00:10.851Z</time></trkpt><trkpt lat="42.8101783" lon="-8.7513483"><ele>442.25</ele><time>2026-04-17T07:00:11.851Z</time></trkpt><trkpt lat="42.8102483" lon="-8.7515233"><ele>442.0</ele><time>2026-04-17T07:00:12.851Z</time></trkpt><trkpt lat="42.81035" lon="-8.7516983"><ele>442.0</ele><time>2026-04-17T07:00:13.85Z</time></trkpt><trkpt lat="42.8104567" lon="-8.7518783"><ele>442.0</ele><time>2026-04-17T07:00:14.851Z</time></trkpt><trkpt lat="42.8105633" lon="-8.7520783"><ele>442.0</ele><time>2026-04-17T07:00:15.851Z</time></trkpt><trkpt lat="42.8106767" lon="-8.7522683"><ele>442.0</ele><time>2026-04-17T07:00:16.85Z</time></trkpt><trkpt lat="42.81078" lon="-8.7524583"><ele>442.0</ele><time>2026-04-17T07:00:17.851Z</time></trkpt><trkpt lat="42.810895" lon="-8.7526567"><ele>442.0</ele><time>2026-04-17T07:00:18.851Z</time></trkpt><trkpt lat="42.81102" lon="-8.7528617"><ele>441.6666666666667</ele><time>2026-04-17T07:00:19.851Z</time></trkpt><trkpt lat="42.811135" lon="-8.75307"><ele>441.33333333333337</ele><time>2026-04-17T07:00:20.851Z</time></trkpt><trkpt lat="42.8112617" lon="-8.753265"><ele>441.0</ele><time>2026-04-17T07:00:21.85Z</time></trkpt><trkpt lat="42.811385" lon="-8.7534683"><ele>442.0</ele><time>2026-04-17T07:00:22.85Z</time></trkpt><trkpt lat="42.8115033" lon="-8.753675"><ele>443.0</ele><time>2026-04-17T07:00:23.851Z</time></trkpt><trkpt lat="42.8116183" lon="-8.7538883"><ele>444.0</ele><time>2026-04-17T07:00:24.851Z</time></trkpt><trkpt lat="42.8117417" lon="-8.754085"><ele>446.0</ele><time>2026-04-17T07:00:25.851Z</time></trkpt><trkpt lat="42.8118683" lon="-8.7542783"><ele>448.0</ele><time>2026-04-17T07:00:26.85Z</time></trkpt><trkpt lat="42.811985" lon="-8.7544917"><ele>450.0</ele><time>2026-04-17T07:00:27.851Z</time></trkpt><trkpt lat="42.8121" lon="-8.7546983"><ele>450.0</ele><time>2026-04-17T07:00:28.85Z</time></trkpt><trkpt lat="42.8122167" lon="-8.7549067"><ele>450.0</ele><time>2026-04-17T07:00:29.851Z</time></trkpt><trkpt lat="42.8123267" lon="-8.7551017"><ele>450.0</ele><time>2026-04-17T07:00:30.851Z</time></trkpt><trkpt lat="42.8124367" lon="-8.7552933"><ele>450.0</ele><time>2026-04-17T07:00:31.85Z</time></trkpt><trkpt lat="42.8125317" lon="-8.75547"><ele>450.0</ele><time>2026-04-17T07:00:32.851Z</time></trkpt><trkpt lat="42.8126233" lon="-8.7556217"><ele>450.0</ele><time>2026-04-17T07:00:33.851Z</time></trkpt><trkpt lat="42.812715" lon="-8.7557483"><ele>450.0</ele><time>2026-04-17T07:00:34.85Z</time></trkpt><trkpt lat="42.812815" lon="-8.7558217"><ele>450.0</ele><time>2026-04-17T07:00:35.85Z</time></trkpt><trkpt lat="42.8129183" lon="-8.7558667"><ele>450.0</ele><time>2026-04-17T07:00:36.85Z</time></trkpt><trkpt lat="42.8130067" lon="-8.7559017"><ele>450.0</ele><time>2026-04-17T07:00:37.851Z</time></trkpt><trkpt lat="42.813075" lon="-8.7559733"><ele>450.0</ele><time>2026-04-17T07:00:38.851Z</time></trkpt><trkpt lat="42.8131183" lon="-8.75605"><ele>450.0</ele><time>2026-04-17T07:00:39.851Z</time></trkpt><trkpt lat="42.8130833" lon="-8.7562217"><ele>450.0</ele><time>2026-04-17T07:00:41.852Z</time></trkpt><trkpt lat="42.8130167" lon="-8.7563267"><ele>450.0</ele><time>2026-04-17T07:00:42.851Z</time></trkpt><trkpt lat="42.8129383" lon="-8.75645"><ele>450.0</ele><time>2026-04-17T07:00:43.851Z</time></trkpt><trkpt lat="42.8128717" lon="-8.7566"><ele>450.0</ele><time>2026-04-17T07:00:44.851Z</time></trkpt><trkpt lat="42.81283" lon="-8.756785"><ele>451.0</ele><time>2026-04-17T07:00:45.851Z</time></trkpt><trkpt lat="42.8127833" lon="-8.7569967"><ele>452.0</ele><time>2026-04-17T07:00:46.851Z</time></trkpt><trkpt lat="42.81275" lon="-8.7572183"><ele>453.0</ele><time>2026-04-17T07:00:47.851Z</time></trkpt><trkpt lat="42.8127233" lon="-8.7574483"><ele>453.0</ele><time>2026-04-17T07:00:48.852Z</time></trkpt><trkpt lat="42.812715" lon="-8.757695"><ele>453.0</ele><time>2026-04-17T07:00:49.852Z</time></trkpt><trkpt lat="42.8127133" lon="-8.7579417"><ele>453.0</ele><time>2026-04-17T07:00:50.852Z</time></trkpt><trkpt lat="42.8127133" lon="-8.75819"><ele>453.33333333333337</ele><time>2026-04-17T07:00:51.851Z</time></trkpt><trkpt lat="42.81274" lon="-8.7584317"><ele>453.6666666666667</ele><time>2026-04-17T07:00:52.851Z</time></trkpt><trkpt lat="42.8127567" lon="-8.758685"><ele>454.0</ele><time>2026-04-17T07:00:53.851Z</time></trkpt><trkpt lat="42.8127717" lon="-8.7589383"><ele>454.0</ele><time>2026-04-17T07:00:54.852Z</time></trkpt><trkpt lat="42.8127783" lon="-8.7591933"><ele>454.0</ele><time>2026-04-17T07:00:55.851Z</time></trkpt><trkpt lat="42.8127783" lon="-8.7594283"><ele>454.0</ele><time>2026-04-17T07:00:56.852Z</time></trkpt><trkpt lat="42.81278" lon="-8.7596783"><ele>454.0</ele><time>2026-04-17T07:00:57.852Z</time></trkpt><trkpt lat="42.812775" lon="-8.7599083"><ele>454.0</ele><time>2026-04-17T07:00:58.852Z</time></trkpt><trkpt lat="42.8127667" lon="-8.7601483"><ele>454.0</ele><time>2026-04-17T07:00:59.851Z</time></trkpt><trkpt lat="42.8127483" lon="-8.7603867"><ele>453.33333333333337</ele><time>2026-04-17T07:01:00.852Z</time></trkpt><trkpt lat="42.8127267" lon="-8.7606283"><ele>452.66666666666663</ele><time>2026-04-17T07:01:01.852Z</time></trkpt><trkpt lat="42.812705" lon="-8.7608683"><ele>452.0</ele><time>2026-04-17T07:01:02.851Z</time></trkpt><trkpt lat="42.8126783" lon="-8.76112"><ele>450.3333333333333</ele><time>2026-04-17T07:01:03.852Z</time></trkpt><trkpt lat="42.81267" lon="-8.7613683"><ele>448.66666666666663</ele><time>2026-04-17T07:01:04.851Z</time></trkpt><trkpt lat="42.8126583" lon="-8.7616233"><ele>447.0</ele><time>2026-04-17T07:01:05.852Z</time></trkpt><trkpt lat="42.8126567" lon="-8.7618867"><ele>445.0</ele><time>2026-04-17T07:01:06.852Z</time></trkpt><trkpt lat="42.8126517" lon="-8.762135"><ele>443.0</ele><time>2026-04-17T07:01:07.851Z</time></trkpt><trkpt lat="42.8126467" lon="-8.7623917"><ele>441.0</ele><time>2026-04-17T07:01:08.852Z</time></trkpt><trkpt lat="42.8126283" lon="-8.7626367"><ele>440.33333333333337</ele><time>2026-04-17T07:01:09.851Z</time></trkpt><trkpt lat="42.8126183" lon="-8.7628883"><ele>439.6666666666667</ele><time>2026-04-17T07:01:10.852Z</time></trkpt><trkpt lat="42.8126083" lon="-8.7631533"><ele>439.0</ele><time>2026-04-17T07:01:11.852Z</time></trkpt><trkpt lat="42.8126017" lon="-8.7634117"><ele>439.0</ele><time>2026-04-17T07:01:12.851Z</time></trkpt><trkpt lat="42.8125833" lon="-8.763675"><ele>439.0</ele><time>2026-04-17T07:01:13.851Z</time></trkpt><trkpt lat="42.8125417" lon="-8.763925"><ele>439.0</ele><time>2026-04-17T07:01:14.852Z</time></trkpt><trkpt lat="42.81251" lon="-8.7641917"><ele>439.0</ele><time>2026-04-17T07:01:15.852Z</time></trkpt><trkpt lat="42.8124783" lon="-8.7644567"><ele>439.0</ele><time>2026-04-17T07:01:16.852Z</time></trkpt><trkpt lat="42.8124517" lon="-8.7647083"><ele>439.0</ele><time>2026-04-17T07:01:17.851Z</time></trkpt><trkpt lat="42.8124283" lon="-8.764955"><ele>438.0</ele><time>2026-04-17T07:01:18.851Z</time></trkpt><trkpt lat="42.8124333" lon="-8.7652083"><ele>437.0</ele><time>2026-04-17T07:01:19.852Z</time></trkpt><trkpt lat="42.8124483" lon="-8.7654633"><ele>436.0</ele><time>2026-04-17T07:01:20.851Z</time></trkpt><trkpt lat="42.8124917" lon="-8.765725"><ele>436.0</ele><time>2026-04-17T07:01:21.851Z</time></trkpt><trkpt lat="42.8125517" lon="-8.76598"><ele>436.0</ele><time>2026-04-17T07:01:22.852Z</time></trkpt><trkpt lat="42.812615" lon="-8.76623"><ele>436.0</ele><time>2026-04-17T07:01:23.852Z</time></trkpt><trkpt lat="42.8126933" lon="-8.7664733"><ele>436.33333333333337</ele><time>2026-04-17T07:01:24.851Z</time></trkpt><trkpt lat="42.81278" lon="-8.766715"><ele>436.66666666666663</ele><time>2026-04-17T07:01:25.851Z</time></trkpt><trkpt lat="42.812855" lon="-8.7669583"><ele>437.0</ele><time>2026-04-17T07:01:26.852Z</time></trkpt><trkpt lat="42.8129267" lon="-8.7672033"><ele>436.0</ele><time>2026-04-17T07:01:27.851Z</time></trkpt><trkpt lat="42.8129817" lon="-8.76745"><ele>435.0</ele><time>2026-04-17T07:01:28.852Z</time></trkpt><trkpt lat="42.813035" lon="-8.76771"><ele>434.0</ele><time>2026-04-17T07:01:29.852Z</time></trkpt><trkpt lat="42.8130617" lon="-8.7679717"><ele>434.0</ele><time>2026-04-17T07:01:30.851Z</time></trkpt><trkpt lat="42.8130683" lon="-8.76823"><ele>434.0</ele><time>2026-04-17T07:01:31.851Z</time></trkpt><trkpt lat="42.8127267" lon="-8.7606283"><ele>438.3333333333333</ele><time>2026-04-17T07:01:01.852Z</time></trkpt><trkpt lat="42.812705" lon="-8.7608683"><ele>442.66666666666663</ele><time>2026-04-17T07:01:02.851Z</time></trkpt><trkpt lat="42.8126783" lon="-8.76112"><ele>447.0</ele><time>2026-04-17T07:01:03.852Z</time></trkpt><trkpt lat="42.81267" lon="-8.7613683"><ele>447.0</ele><time>2026-04-17T07:01:04.851Z</time></trkpt><trkpt lat="42.8126583" lon="-8.7616233"><ele>447.0</ele><time>2026-04-17T07:01:05.852Z</time></trkpt><trkpt lat="42.8126567" lon="-8.7618867"><ele>447.0</ele><time>2026-04-17T07:01:06.852Z</time></trkpt><trkpt lat="42.8126517" lon="-8.762135"><ele>445.0</ele><time>2026-04-17T07:01:07.851Z</time></trkpt><trkpt lat="42.8126467" lon="-8.7623917"><ele>443.0</ele><time>2026-04-17T07:01:08.852Z</time></trkpt><trkpt lat="42.8126283" lon="-8.7626367"><ele>441.0</ele><time>2026-04-17T07:01:09.851Z</time></trkpt><trkpt lat="42.8126183" lon="-8.7628883"><ele>440.33333333333337</ele><time>2026-04-17T07:01:10.852Z</time></trkpt><trkpt lat="42.8126083" lon="-8.7631533"><ele>439.6666666666667</ele><time>2026-04-17T07:01:11.852Z</time></trkpt><trkpt lat="42.8126017" lon="-8.7634117"><ele>439.0</ele><time>2026-04-17T07:01:12.851Z</time></trkpt><trkpt lat="42.8125833" lon="-8.763675"><ele>439.0</ele><time>2026-04-17T07:01:13.851Z</time></trkpt><trkpt lat="42.8125417" lon="-8.763925"><ele>439.0</ele><time>2026-04-17T07:01:14.852Z</time></trkpt><trkpt lat="42.81251" lon="-8.7641917"><ele>439.0</ele><time>2026-04-17T07:01:15.852Z</time></trkpt><trkpt lat="42.8124783" lon="-8.7644567"><ele>439.0</ele><time>2026-04-17T07:01:16.852Z</time></trkpt><trkpt lat="42.8124517" lon="-8.7647083"><ele>439.0</ele><time>2026-04-17T07:01:17.851Z</time></trkpt><trkpt lat="42.8124283" lon="-8.764955"><ele>439.0</ele><time>2026-04-17T07:01:18.851Z</time></trkpt><trkpt lat="42.8124333" lon="-8.7652083"><ele>438.0</ele><time>2026-04-17T07:01:19.852Z</time></trkpt><trkpt lat="42.8124483" lon="-8.7654633"><ele>437.0</ele><time>2026-04-17T07:01:20.851Z</time></trkpt><trkpt lat="42.8124917" lon="-8.765725"><ele>436.0</ele><time>2026-04-17T07:01:21.851Z</time></trkpt><trkpt lat="42.8125517" lon="-8.76598"><ele>436.33333333333337</ele><time>2026-04-17T07:01:22.852Z</time></trkpt><trkpt lat="42.812615" lon="-8.76623"><ele>436.66666666666663</ele><time>2026-04-17T07:01:23.852Z</time></trkpt><trkpt lat="42.8126933" lon="-8.7664733"><ele>437.0</ele><time>2026-04-17T07:01:24.851Z</time></trkpt><trkpt lat="42.81278" lon="-8.766715"><ele>435.66666666666663</ele><time>2026-04-17T07:01:25.851Z</time></trkpt><trkpt lat="42.812855" lon="-8.7669583"><ele>434.33333333333337</ele><time>2026-04-17T07:01:26.852Z</time></trkpt><trkpt lat="42.8129267" lon="-8.7672033"><ele>433.0</ele><time>2026-04-17T07:01:27.851Z</time></trkpt><trkpt lat="42.8129817" lon="-8.76745"><ele>433.33333333333337</ele><time>2026-04-17T07:01:28.852Z</time></trkpt><trkpt lat="42.813035" lon="-8.76771"><ele>433.66666666666663</ele><time>2026-04-17T07:01:29.852Z</time></trkpt><trkpt lat="42.8130617" lon="-8.7679717"><ele>434.0</ele><time>2026-04-17T07:01:30.851Z</time></trkpt><trkpt lat="42.8130683" lon="-8.76823"><ele>434.0</ele><time>2026-04-17T07:01:31.851Z</time></trkpt><trkpt lat="42.8130567" lon="-8.7684967"><ele>434.0</ele><time>2026-04-17T07:01:32.851Z</time></trkpt><trkpt lat="42.8130217" lon="-8.76876"><ele>434.0</ele><time>2026-04-17T07:01:33.851Z</time></trkpt><trkpt lat="42.81298" lon="-8.7690217"><ele>438.3333333333333</ele><time>2026-04-17T07:01:34.851Z</time></trkpt><trkpt lat="42.8129217" lon="-8.7692817"><ele>442.66666666666663</ele><time>2026-04-17T07:01:35.851Z</time></trkpt><trkpt lat="42.8128683" lon="-8.7695583"><ele>447.0</ele><time>2026-04-17T07:01:36.851Z</time></trkpt><trkpt lat="42.8128083" lon="-8.7698183"><ele>446.33333333333337</ele><time>2026-04-17T07:01:37.852Z</time></trkpt><trkpt lat="42.8127517" lon="-8.7700767"><ele>445.6666666666667</ele><time>2026-04-17T07:01:38.851Z</time></trkpt><trkpt lat="42.8126967" lon="-8.7703367"><ele>445.0</ele><time>2026-04-17T07:01:39.851Z</time></trkpt><trkpt lat="42.8126467" lon="-8.7706017"><ele>445.0</ele><time>2026-04-17T07:01:40.851Z</time></trkpt><trkpt lat="42.81259" lon="-8.77087"><ele>445.0</ele><time>2026-04-17T07:01:41.851Z</time></trkpt><trkpt lat="42.81254" lon="-8.7711283"><ele>445.0</ele><time>2026-04-17T07:01:42.852Z</time></trkpt><trkpt lat="42.8125067" lon="-8.77139"><ele>445.0</ele><time>2026-04-17T07:01:43.852Z</time></trkpt><trkpt lat="42.8124967" lon="-8.7716567"><ele>445.0</ele><time>2026-04-17T07:01:44.851Z</time></trkpt><trkpt lat="42.8125033" lon="-8.7719233"><ele>445.0</ele><time>2026-04-17T07:01:45.852Z</time></trkpt><trkpt lat="42.8125217" lon="-8.7721933"><ele>445.0</ele><time>2026-04-17T07:01:46.851Z</time></trkpt><trkpt lat="42.81256" lon="-8.7724583"><ele>445.0</ele><time>2026-04-17T07:01:47.851Z</time></trkpt><trkpt lat="42.8126067" lon="-8.77274"><ele>445.0</ele><time>2026-04-17T07:01:48.852Z</time></trkpt><trkpt lat="42.8126583" lon="-8.7730117"><ele>445.6666666666667</ele><time>2026-04-17T07:01:49.852Z</time></trkpt><trkpt lat="42.81271" lon="-8.773295"><ele>446.33333333333337</ele><time>2026-04-17T07:01:50.851Z</time></trkpt><trkpt lat="42.812765" lon="-8.7735683"><ele>447.0</ele><time>2026-04-17T07:01:51.851Z</time></trkpt><trkpt lat="42.8128217" lon="-8.773855"><ele>444.33333333333337</ele><time>2026-04-17T07:01:52.851Z</time></trkpt><trkpt lat="42.812855" lon="-8.7741317"><ele>441.6666666666667</ele><time>2026-04-17T07:01:53.852Z</time></trkpt><trkpt lat="42.812875" lon="-8.7744167"><ele>439.0</ele><time>2026-04-17T07:01:54.851Z</time></trkpt><trkpt lat="42.8128883" lon="-8.7746983"><ele>438.33333333333337</ele><time>2026-04-17T07:01:55.851Z</time></trkpt><trkpt lat="42.812895" lon="-8.7749767"><ele>437.66666666666663</ele><time>2026-04-17T07:01:56.851Z</time></trkpt><trkpt lat="42.8128983" lon="-8.7752717"><ele>437.0</ele><time>2026-04-17T07:01:57.851Z</time></trkpt><trkpt lat="42.812885" lon="-8.7755433"><ele>437.0</ele><time>2026-04-17T07:01:58.852Z</time></trkpt><trkpt lat="42.8128683" lon="-8.7758167"><ele>437.0</ele><time>2026-04-17T07:01:59.852Z</time></trkpt><trkpt lat="42.81285" lon="-8.7760917"><ele>437.0</ele><time>2026-04-17T07:02:00.852Z</time></trkpt><trkpt lat="42.8128283" lon="-8.7763533"><ele>437.0</ele><time>2026-04-17T07:02:01.852Z</time></trkpt><trkpt lat="42.8128183" lon="-8.7766333"><ele>437.0</ele><time>2026-04-17T07:02:02.851Z</time></trkpt><trkpt lat="42.8128183" lon="-8.776895"><ele>437.0</ele><time>2026-04-17T07:02:03.851Z</time></trkpt><trkpt lat="42.812815" lon="-8.77716"><ele>437.0</ele><time>2026-04-17T07:02:04.851Z</time></trkpt><trkpt lat="42.8128083" lon="-8.777435"><ele>437.0</ele><time>2026-04-17T07:02:05.851Z</time></trkpt><trkpt lat="42.8128067" lon="-8.7777133"><ele>437.0</ele><time>2026-04-17T07:02:06.851Z</time></trkpt><trkpt lat="42.8127917" lon="-8.7780033"><ele>437.66666666666663</ele><time>2026-04-17T07:02:07.851Z</time></trkpt><trkpt lat="42.8127817" lon="-8.7782667"><ele>438.33333333333337</ele><time>2026-04-17T07:02:08.851Z</time></trkpt><trkpt lat="42.812755" lon="-8.778535"><ele>439.0</ele><time>2026-04-17T07:02:09.852Z</time></trkpt><trkpt lat="42.8127217" lon="-8.7788033"><ele>441.0</ele><time>2026-04-17T07:02:10.852Z</time></trkpt><trkpt lat="42.8126983" lon="-8.779075"><ele>443.0</ele><time>2026-04-17T07:02:11.852Z</time></trkpt><trkpt lat="42.81266" lon="-8.77934"><ele>445.0</ele><time>2026-04-17T07:02:12.852Z</time></trkpt><trkpt lat="42.8126183" lon="-8.7796083"><ele>445.33333333333337</ele><time>2026-04-17T07:02:13.852Z</time></trkpt><trkpt lat="42.8125533" lon="-8.77987"><ele>445.66666666666663</ele><time>2026-04-17T07:02:14.852Z</time></trkpt><trkpt lat="42.8124633" lon="-8.78008"><ele>446.0</ele><time>2026-04-17T07:02:15.851Z</time></trkpt><trkpt lat="42.812385" lon="-8.7803217"><ele>446.3333333333333</ele><time>2026-04-17T07:02:16.852Z</time></trkpt><trkpt lat="42.8122817" lon="-8.7805683"><ele>446.66666666666663</ele><time>2026-04-17T07:02:17.851Z</time></trkpt><trkpt lat="42.8121717" lon="-8.780805"><ele>447.0</ele><time>2026-04-17T07:02:18.851Z</time></trkpt><trkpt lat="42.8120567" lon="-8.7810333"><ele>447.0</ele><time>2026-04-17T07:02:19.851Z</time></trkpt><trkpt lat="42.8119433" lon="-8.7812833"><ele>447.0</ele><time>2026-04-17T07:02:20.852Z</time></trkpt><trkpt lat="42.81184" lon="-8.7815283"><ele>447.0</ele><time>2026-04-17T07:02:21.851Z</time></trkpt><trkpt lat="42.811735" lon="-8.781765"><ele>445.33333333333337</ele><time>2026-04-17T07:02:22.852Z</time></trkpt><trkpt lat="42.8116167" lon="-8.7820067"><ele>443.6666666666667</ele><time>2026-04-17T07:02:23.851Z</time></trkpt><trkpt lat="42.8115" lon="-8.7822483"><ele>442.0</ele><time>2026-04-17T07:02:24.851Z</time></trkpt><trkpt lat="42.811385" lon="-8.782485"><ele>441.0</ele><time>2026-04-17T07:02:25.851Z</time></trkpt><trkpt lat="42.8112717" lon="-8.78273"><ele>440.0</ele><time>2026-04-17T07:02:26.851Z</time></trkpt><trkpt lat="42.811155" lon="-8.7829783"><ele>439.0</ele><time>2026-04-17T07:02:27.851Z</time></trkpt><trkpt lat="42.81103" lon="-8.7832233"><ele>439.33333333333337</ele><time>2026-04-17T07:02:28.851Z</time></trkpt><trkpt lat="42.81091" lon="-8.7834717"><ele>439.66666666666663</ele><time>2026-04-17T07:02:29.852Z</time></trkpt><trkpt lat="42.8108" lon="-8.7837133"><ele>440.0</ele><time>2026-04-17T07:02:30.852Z</time></trkpt><trkpt lat="42.8106833" lon="-8.7839617"><ele>440.0</ele><time>2026-04-17T07:02:31.851Z</time></trkpt><trkpt lat="42.8105683" lon="-8.7842017"><ele>440.0</ele><time>2026-04-17T07:02:32.851Z</time></trkpt><trkpt lat="42.8104567" lon="-8.7844367"><ele>440.0</ele><time>2026-04-17T07:02:33.851Z</time></trkpt><trkpt lat="42.8103467" lon="-8.7846633"><ele>440.0</ele><time>2026-04-17T07:02:34.851Z</time></trkpt><trkpt lat="42.81024" lon="-8.7849"><ele>440.0</ele><time>2026-04-17T07:02:35.852Z</time></trkpt><trkpt lat="42.8101317" lon="-8.7851317"><ele>440.0</ele><time>2026-04-17T07:02:36.851Z</time></trkpt><trkpt lat="42.810025" lon="-8.7853533"><ele>438.66666666666663</ele><time>2026-04-17T07:02:37.852Z</time></trkpt><trkpt lat="42.80992" lon="-8.7855917"><ele>437.33333333333337</ele><time>2026-04-17T07:02:38.852Z</time></trkpt><trkpt lat="42.809805" lon="-8.7858233"><ele>436.0</ele><time>2026-04-17T07:02:39.851Z</time></trkpt><trkpt lat="42.8096933" lon="-8.786065"><ele>434.6666666666667</ele><time>2026-04-17T07:02:40.851Z</time></trkpt><trkpt lat="42.8095883" lon="-8.7863033"><ele>433.33333333333337</ele><time>2026-04-17T07:02:41.851Z</time></trkpt><trkpt lat="42.8094917" lon="-8.7865483"><ele>432.0</ele><time>2026-04-17T07:02:42.851Z</time></trkpt><trkpt lat="42.809395" lon="-8.7868"><ele>432.66666666666663</ele><time>2026-04-17T07:02:43.851Z</time></trkpt><trkpt lat="42.8093117" lon="-8.7870583"><ele>433.3333333333333</ele><time>2026-04-17T07:02:44.852Z</time></trkpt><trkpt lat="42.8092567" lon="-8.7873183"><ele>434.0</ele><time>2026-04-17T07:02:45.852Z</time></trkpt><trkpt lat="42.8092067" lon="-8.7875617"><ele>434.0</ele><time>2026-04-17T07:02:46.851Z</time></trkpt><trkpt lat="42.8091767" lon="-8.78781"><ele>434.0</ele><time>2026-04-17T07:02:47.852Z</time></trkpt><trkpt lat="42.8091483" lon="-8.7880783"><ele>434.0</ele><time>2026-04-17T07:02:48.851Z</time></trkpt><trkpt lat="42.8091133" lon="-8.7883467"><ele>434.3333333333333</ele><time>2026-04-17T07:02:49.852Z</time></trkpt><trkpt lat="42.8090917" lon="-8.7886033"><ele>434.66666666666663</ele><time>2026-04-17T07:02:50.852Z</time></trkpt><trkpt lat="42.8090683" lon="-8.788875"><ele>435.0</ele><time>2026-04-17T07:02:51.851Z</time></trkpt><trkpt lat="42.80905" lon="-8.7891433"><ele>435.66666666666663</ele><time>2026-04-17T07:02:52.851Z</time></trkpt><trkpt lat="42.8090517" lon="-8.7894033"><ele>436.3333333333333</ele><time>2026-04-17T07:02:53.851Z</time></trkpt><trkpt lat="42.8090267" lon="-8.7896617"><ele>437.0</ele><time>2026-04-17T07:02:54.852Z</time></trkpt><trkpt lat="42.8089967" lon="-8.7899067"><ele>437.0</ele><time>2026-04-17T07:02:55.851Z</time></trkpt><trkpt lat="42.8089717" lon="-8.790155"><ele>437.0</ele><time>2026-04-17T07:02:56.851Z</time></trkpt><trkpt lat="42.8089617" lon="-8.790415"><ele>437.0</ele><time>2026-04-17T07:02:57.851Z</time></trkpt><trkpt lat="42.8089367" lon="-8.790675"><ele>437.0</ele><time>2026-04-17T07:02:58.851Z</time></trkpt><trkpt lat="42.8089117" lon="-8.790945"><ele>437.0</ele><time>2026-04-17T07:02:59.851Z</time></trkpt><trkpt lat="42.8088717" lon="-8.791215"><ele>437.0</ele><time>2026-04-17T07:03:00.851Z</time></trkpt><trkpt lat="42.8088367" lon="-8.7914817"><ele>436.66666666666663</ele><time>2026-04-17T07:03:01.852Z</time></trkpt><trkpt lat="42.8087933" lon="-8.7917517"><ele>436.33333333333337</ele><time>2026-04-17T07:03:02.851Z</time></trkpt><trkpt lat="42.8087433" lon="-8.7920233"><ele>436.0</ele><time>2026-04-17T07:03:03.851Z</time></trkpt><trkpt lat="42.8086917" lon="-8.792305"><ele>434.33333333333337</ele><time>2026-04-17T07:03:04.852Z</time></trkpt><trkpt lat="42.8086317" lon="-8.792585"><ele>432.66666666666663</ele><time>2026-04-17T07:03:05.852Z</time></trkpt><trkpt lat="42.8085717" lon="-8.792865"><ele>431.0</ele><time>2026-04-17T07:03:06.851Z</time></trkpt><trkpt lat="42.80851" lon="-8.7931433"><ele>432.0</ele><time>2026-04-17T07:03:07.851Z</time></trkpt><trkpt lat="42.8084417" lon="-8.7934167"><ele>433.0</ele><time>2026-04-17T07:03:08.851Z</time></trkpt><trkpt lat="42.808365" lon="-8.793685"><ele>434.0</ele><time>2026-04-17T07:03:09.852Z</time></trkpt><trkpt lat="42.8082867" lon="-8.79395"><ele>432.0</ele><time>2026-04-17T07:03:10.851Z</time></trkpt><trkpt lat="42.8082167" lon="-8.7942267"><ele>430.0</ele><time>2026-04-17T07:03:11.852Z</time></trkpt><trkpt lat="42.8081367" lon="-8.794495"><ele>428.0</ele><time>2026-04-17T07:03:12.851Z</time></trkpt><trkpt lat="42.8080683" lon="-8.7947483"><ele>426.3333333333333</ele><time>2026-04-17T07:03:13.851Z</time></trkpt><trkpt lat="42.8080033" lon="-8.7950067"><ele>424.66666666666663</ele><time>2026-04-17T07:03:14.852Z</time></trkpt><trkpt lat="42.80794" lon="-8.795255"><ele>423.0</ele><time>2026-04-17T07:03:15.851Z</time></trkpt><trkpt lat="42.8078833" lon="-8.795515"><ele>420.0</ele><time>2026-04-17T07:03:16.851Z</time></trkpt><trkpt lat="42.807835" lon="-8.79578"><ele>417.0</ele><time>2026-04-17T07:03:17.852Z</time></trkpt><trkpt lat="42.8077967" lon="-8.7960583"><ele>414.0</ele><time>2026-04-17T07:03:18.852Z</time></trkpt><trkpt lat="42.80776" lon="-8.79633"><ele>414.0</ele><time>2026-04-17T07:03:19.852Z</time></trkpt><trkpt lat="42.80775" lon="-8.7966033"><ele>414.0</ele><time>2026-04-17T07:03:20.851Z</time></trkpt><trkpt lat="42.8077683" lon="-8.79687"><ele>414.0</ele><time>2026-04-17T07:03:21.851Z</time></trkpt><trkpt lat="42.8078017" lon="-8.79713"><ele>414.33333333333337</ele><time>2026-04-17T07:03:22.852Z</time></trkpt><trkpt lat="42.8078383" lon="-8.7973967"><ele>414.6666666666667</ele><time>2026-04-17T07:03:23.851Z</time></trkpt><trkpt lat="42.8078583" lon="-8.797665"><ele>415.0</ele><time>2026-04-17T07:03:24.852Z</time></trkpt><trkpt lat="42.8078783" lon="-8.79793"><ele>415.6666666666667</ele><time>2026-04-17T07:03:25.852Z</time></trkpt><trkpt lat="42.8079117" lon="-8.7981833"><ele>416.33333333333337</ele><time>2026-04-17T07:03:26.852Z</time></trkpt><trkpt lat="42.80795" lon="-8.798435"><ele>417.0</ele><time>2026-04-17T07:03:27.852Z</time></trkpt><trkpt lat="42.8079783" lon="-8.7986633"><ele>417.0</ele><time>2026-04-17T07:03:28.851Z</time></trkpt><trkpt lat="42.80801" lon="-8.798915"><ele>417.0</ele><time>2026-04-17T07:03:29.851Z</time></trkpt><trkpt lat="42.8089117" lon="-8.790945"><ele>423.33333333333337</ele><time>2026-04-17T07:02:59.851Z</time></trkpt><trkpt lat="42.8088717" lon="-8.791215"><ele>429.6666666666667</ele><time>2026-04-17T07:03:00.851Z</time></trkpt><trkpt lat="42.8088367" lon="-8.7914817"><ele>436.0</ele><time>2026-04-17T07:03:01.852Z</time></trkpt><trkpt lat="42.8087933" lon="-8.7917517"><ele>434.33333333333337</ele><time>2026-04-17T07:03:02.851Z</time></trkpt><trkpt lat="42.8087433" lon="-8.7920233"><ele>432.66666666666663</ele><time>2026-04-17T07:03:03.851Z</time></trkpt><trkpt lat="42.8086917" lon="-8.792305"><ele>431.0</ele><time>2026-04-17T07:03:04.852Z</time></trkpt><trkpt lat="42.8086317" lon="-8.792585"><ele>432.0</ele><time>2026-04-17T07:03:05.852Z</time></trkpt><trkpt lat="42.8085717" lon="-8.792865"><ele>433.0</ele><time>2026-04-17T07:03:06.851Z</time></trkpt><trkpt lat="42.80851" lon="-8.7931433"><ele>434.0</ele><time>2026-04-17T07:03:07.851Z</time></trkpt><trkpt lat="42.8084417" lon="-8.7934167"><ele>432.0</ele><time>2026-04-17T07:03:08.851Z</time></trkpt><trkpt lat="42.808365" lon="-8.793685"><ele>430.0</ele><time>2026-04-17T07:03:09.852Z</time></trkpt><trkpt lat="42.8082867" lon="-8.79395"><ele>428.0</ele><time>2026-04-17T07:03:10.851Z</time></trkpt><trkpt lat="42.8082167" lon="-8.7942267"><ele>426.3333333333333</ele><time>2026-04-17T07:03:11.852Z</time></trkpt><trkpt lat="42.8081367" lon="-8.794495"><ele>424.66666666666663</ele><time>2026-04-17T07:03:12.851Z</time></trkpt><trkpt lat="42.8080683" lon="-8.7947483"><ele>423.0</ele><time>2026-04-17T07:03:13.851Z</time></trkpt><trkpt lat="42.8080033" lon="-8.7950067"><ele>420.0</ele><time>2026-04-17T07:03:14.852Z</time></trkpt><trkpt lat="42.80794" lon="-8.795255"><ele>417.0</ele><time>2026-04-17T07:03:15.851Z</time></trkpt><trkpt lat="42.8078833" lon="-8.795515"><ele>414.0</ele><time>2026-04-17T07:03:16.851Z</time></trkpt><trkpt lat="42.807835" lon="-8.79578"><ele>414.0</ele><time>2026-04-17T07:03:17.852Z</time></trkpt><trkpt lat="42.8077967" lon="-8.7960583"><ele>414.0</ele><time>2026-04-17T07:03:18.852Z</time></trkpt><trkpt lat="42.80776" lon="-8.79633"><ele>414.0</ele><time>2026-04-17T07:03:19.852Z</time></trkpt><trkpt lat="42.80775" lon="-8.7966033"><ele>414.33333333333337</ele><time>2026-04-17T07:03:20.851Z</time></trkpt><trkpt lat="42.8077683" lon="-8.79687"><ele>414.6666666666667</ele><time>2026-04-17T07:03:21.851Z</time></trkpt><trkpt lat="42.8078017" lon="-8.79713"><ele>415.0</ele><time>2026-04-17T07:03:22.852Z</time></trkpt><trkpt lat="42.8078383" lon="-8.7973967"><ele>415.0</ele><time>2026-04-17T07:03:23.851Z</time></trkpt><trkpt lat="42.8078583" lon="-8.797665"><ele>415.0</ele><time>2026-04-17T07:03:24.852Z</time></trkpt><trkpt lat="42.8078783" lon="-8.79793"><ele>415.0</ele><time>2026-04-17T07:03:25.852Z</time></trkpt><trkpt lat="42.8079117" lon="-8.7981833"><ele>415.6666666666667</ele><time>2026-04-17T07:03:26.852Z</time></trkpt><trkpt lat="42.80795" lon="-8.798435"><ele>416.33333333333337</ele><time>2026-04-17T07:03:27.852Z</time></trkpt><trkpt lat="42.8079783" lon="-8.7986633"><ele>417.0</ele><time>2026-04-17T07:03:28.851Z</time></trkpt><trkpt lat="42.80801" lon="-8.798915"><ele>417.0</ele><time>2026-04-17T07:03:29.851Z</time></trkpt><trkpt lat="42.80806" lon="-8.79919"><ele>417.0</ele><time>2026-04-17T07:03:30.852Z</time></trkpt><trkpt lat="42.8080967" lon="-8.79946"><ele>417.0</ele><time>2026-04-17T07:03:31.852Z</time></trkpt><trkpt lat="42.8081217" lon="-8.7997217"><ele>417.0</ele><time>2026-04-17T07:03:32.852Z</time></trkpt><trkpt lat="42.8081483" lon="-8.799985"><ele>417.0</ele><time>2026-04-17T07:03:33.852Z</time></trkpt><trkpt lat="42.80819" lon="-8.8002467"><ele>417.0</ele><time>2026-04-17T07:03:34.851Z</time></trkpt><trkpt lat="42.80822" lon="-8.8005233"><ele>417.0</ele><time>2026-04-17T07:03:35.851Z</time></trkpt><trkpt lat="42.808255" lon="-8.8008083"><ele>417.0</ele><time>2026-04-17T07:03:36.851Z</time></trkpt><trkpt lat="42.8082783" lon="-8.801095"><ele>417.0</ele><time>2026-04-17T07:03:37.852Z</time></trkpt><trkpt lat="42.808305" lon="-8.801385"><ele>417.33333333333337</ele><time>2026-04-17T07:03:38.852Z</time></trkpt><trkpt lat="42.8083333" lon="-8.8016683"><ele>417.6666666666667</ele><time>2026-04-17T07:03:39.851Z</time></trkpt><trkpt lat="42.8083617" lon="-8.8019517"><ele>418.0</ele><time>2026-04-17T07:03:40.851Z</time></trkpt><trkpt lat="42.8083967" lon="-8.802235"><ele>417.0</ele><time>2026-04-17T07:03:41.851Z</time></trkpt><trkpt lat="42.8084283" lon="-8.8025267"><ele>416.0</ele><time>2026-04-17T07:03:42.851Z</time></trkpt><trkpt lat="42.8084733" lon="-8.8028067"><ele>415.0</ele><time>2026-04-17T07:03:43.852Z</time></trkpt><trkpt lat="42.8085217" lon="-8.8030783"><ele>411.33333333333337</ele><time>2026-04-17T07:03:44.851Z</time></trkpt><trkpt lat="42.8085733" lon="-8.8033433"><ele>407.66666666666663</ele><time>2026-04-17T07:03:45.852Z</time></trkpt><trkpt lat="42.80863" lon="-8.8036367"><ele>404.0</ele><time>2026-04-17T07:03:46.851Z</time></trkpt><trkpt lat="42.808685" lon="-8.8038817"><ele>404.3333333333333</ele><time>2026-04-17T07:03:47.851Z</time></trkpt><trkpt lat="42.80875" lon="-8.80412"><ele>404.66666666666663</ele><time>2026-04-17T07:03:48.851Z</time></trkpt><trkpt lat="42.8088167" lon="-8.8043517"><ele>405.0</ele><time>2026-04-17T07:03:49.852Z</time></trkpt><trkpt lat="42.808895" lon="-8.8045933"><ele>405.0</ele><time>2026-04-17T07:03:50.851Z</time></trkpt><trkpt lat="42.8089833" lon="-8.8048383"><ele>405.0</ele><time>2026-04-17T07:03:51.852Z</time></trkpt><trkpt lat="42.8090633" lon="-8.8050767"><ele>405.0</ele><time>2026-04-17T07:03:52.851Z</time></trkpt><trkpt lat="42.80916" lon="-8.805315"><ele>404.33333333333337</ele><time>2026-04-17T07:03:53.851Z</time></trkpt><trkpt lat="42.80926" lon="-8.8055467"><ele>403.6666666666667</ele><time>2026-04-17T07:03:54.851Z</time></trkpt><trkpt lat="42.8093617" lon="-8.8057633"><ele>403.0</ele><time>2026-04-17T07:03:55.851Z</time></trkpt><trkpt lat="42.8094817" lon="-8.80597"><ele>400.6666666666667</ele><time>2026-04-17T07:03:56.851Z</time></trkpt><trkpt lat="42.809615" lon="-8.8061617"><ele>398.33333333333337</ele><time>2026-04-17T07:03:57.851Z</time></trkpt><trkpt lat="42.8097733" lon="-8.8063467"><ele>396.0</ele><time>2026-04-17T07:03:58.851Z</time></trkpt><trkpt lat="42.8099233" lon="-8.8065333"><ele>396.0</ele><time>2026-04-17T07:03:59.851Z</time></trkpt><trkpt lat="42.8100583" lon="-8.8066767"><ele>396.0</ele><time>2026-04-17T07:04:00.852Z</time></trkpt><trkpt lat="42.8101817" lon="-8.8068317"><ele>396.0</ele><time>2026-04-17T07:04:01.852Z</time></trkpt><trkpt lat="42.810285" lon="-8.8070033"><ele>393.33333333333337</ele><time>2026-04-17T07:04:02.851Z</time></trkpt><trkpt lat="42.8103767" lon="-8.807185"><ele>390.6666666666667</ele><time>2026-04-17T07:04:03.851Z</time></trkpt><trkpt lat="42.8104633" lon="-8.8073833"><ele>388.0</ele><time>2026-04-17T07:04:04.851Z</time></trkpt><trkpt lat="42.810505" lon="-8.8076017"><ele>387.33333333333337</ele><time>2026-04-17T07:04:05.852Z</time></trkpt><trkpt lat="42.81053" lon="-8.8078283"><ele>386.66666666666663</ele><time>2026-04-17T07:04:06.852Z</time></trkpt><trkpt lat="42.8105283" lon="-8.8080683"><ele>386.0</ele><time>2026-04-17T07:04:07.852Z</time></trkpt><trkpt lat="42.8104917" lon="-8.8083183"><ele>385.3333333333333</ele><time>2026-04-17T07:04:08.851Z</time></trkpt><trkpt lat="42.8104233" lon="-8.8085667"><ele>384.66666666666663</ele><time>2026-04-17T07:04:09.852Z</time></trkpt><trkpt lat="42.810335" lon="-8.8088017"><ele>384.0</ele><time>2026-04-17T07:04:10.851Z</time></trkpt><trkpt lat="42.81022" lon="-8.8090167"><ele>382.0</ele><time>2026-04-17T07:04:11.852Z</time></trkpt><trkpt lat="42.8100967" lon="-8.80923"><ele>380.0</ele><time>2026-04-17T07:04:12.851Z</time></trkpt><trkpt lat="42.809965" lon="-8.8094367"><ele>378.0</ele><time>2026-04-17T07:04:13.851Z</time></trkpt><trkpt lat="42.8098267" lon="-8.8096417"><ele>377.6666666666667</ele><time>2026-04-17T07:04:14.852Z</time></trkpt><trkpt lat="42.809695" lon="-8.8098517"><ele>377.33333333333337</ele><time>2026-04-17T07:04:15.851Z</time></trkpt><trkpt lat="42.8095633" lon="-8.8100533"><ele>377.0</ele><time>2026-04-17T07:04:16.851Z</time></trkpt><trkpt lat="42.8094217" lon="-8.8102567"><ele>375.33333333333337</ele><time>2026-04-17T07:04:17.851Z</time></trkpt><trkpt lat="42.809305" lon="-8.8104667"><ele>373.6666666666667</ele><time>2026-04-17T07:04:18.852Z</time></trkpt><trkpt lat="42.8091783" lon="-8.8106767"><ele>372.0</ele><time>2026-04-17T07:04:19.851Z</time></trkpt><trkpt lat="42.8090583" lon="-8.8108917"><ele>372.3333333333333</ele><time>2026-04-17T07:04:20.852Z</time></trkpt><trkpt lat="42.8089633" lon="-8.8111117"><ele>372.66666666666663</ele><time>2026-04-17T07:04:21.851Z</time></trkpt><trkpt lat="42.808865" lon="-8.81133"><ele>373.0</ele><time>2026-04-17T07:04:22.851Z</time></trkpt><trkpt lat="42.8087817" lon="-8.8115617"><ele>373.0</ele><time>2026-04-17T07:04:23.851Z</time></trkpt><trkpt lat="42.8087317" lon="-8.8118067"><ele>373.0</ele><time>2026-04-17T07:04:24.852Z</time></trkpt><trkpt lat="42.808705" lon="-8.812065"><ele>373.0</ele><time>2026-04-17T07:04:25.853Z</time></trkpt><trkpt lat="42.8086967" lon="-8.8123267"><ele>371.3333333333333</ele><time>2026-04-17T07:04:26.852Z</time></trkpt><trkpt lat="42.8087133" lon="-8.8125733"><ele>369.6666666666667</ele><time>2026-04-17T07:04:27.852Z</time></trkpt><trkpt lat="42.8087717" lon="-8.812805"><ele>368.0</ele><time>2026-04-17T07:04:28.852Z</time></trkpt><trkpt lat="42.8088617" lon="-8.8130417"><ele>365.6666666666667</ele><time>2026-04-17T07:04:29.852Z</time></trkpt><trkpt lat="42.8089867" lon="-8.8132633"><ele>363.3333333333333</ele><time>2026-04-17T07:04:30.853Z</time></trkpt><trkpt lat="42.809135" lon="-8.81344"><ele>361.0</ele><time>2026-04-17T07:04:31.852Z</time></trkpt><trkpt lat="42.8092817" lon="-8.8136017"><ele>358.0</ele><time>2026-04-17T07:04:32.852Z</time></trkpt><trkpt lat="42.8094617" lon="-8.8137217"><ele>355.0</ele><time>2026-04-17T07:04:33.852Z</time></trkpt><trkpt lat="42.8096517" lon="-8.813805"><ele>352.0</ele><time>2026-04-17T07:04:34.852Z</time></trkpt><trkpt lat="42.80984" lon="-8.8138567"><ele>352.0</ele><time>2026-04-17T07:04:35.853Z</time></trkpt><trkpt lat="42.810035" lon="-8.8138933"><ele>352.0</ele><time>2026-04-17T07:04:36.853Z</time></trkpt><trkpt lat="42.8102233" lon="-8.8138833"><ele>352.0</ele><time>2026-04-17T07:04:37.852Z</time></trkpt><trkpt lat="42.8104233" lon="-8.81387"><ele>350.3333333333333</ele><time>2026-04-17T07:04:38.853Z</time></trkpt><trkpt lat="42.8106217" lon="-8.81386"><ele>348.6666666666667</ele><time>2026-04-17T07:04:39.853Z</time></trkpt><trkpt lat="42.8108267" lon="-8.8138433"><ele>347.0</ele><time>2026-04-17T07:04:40.853Z</time></trkpt><trkpt lat="42.8110233" lon="-8.8138467"><ele>344.0</ele><time>2026-04-17T07:04:41.852Z</time></trkpt><trkpt lat="42.811205" lon="-8.813845"><ele>341.0</ele><time>2026-04-17T07:04:42.853Z</time></trkpt><trkpt lat="42.811395" lon="-8.813855"><ele>338.0</ele><time>2026-04-17T07:04:43.853Z</time></trkpt><trkpt lat="42.8115733" lon="-8.8138917"><ele>338.0</ele><time>2026-04-17T07:04:44.853Z</time></trkpt><trkpt lat="42.811755" lon="-8.8139633"><ele>338.0</ele><time>2026-04-17T07:04:45.852Z</time></trkpt><trkpt lat="42.8119383" lon="-8.8140383"><ele>338.0</ele><time>2026-04-17T07:04:46.853Z</time></trkpt><trkpt lat="42.81209" lon="-8.8141567"><ele>336.0</ele><time>2026-04-17T07:04:47.853Z</time></trkpt><trkpt lat="42.8122133" lon="-8.8142617"><ele>334.0</ele><time>2026-04-17T07:04:48.852Z</time></trkpt><trkpt lat="42.812335" lon="-8.8144383"><ele>332.0</ele><time>2026-04-17T07:04:49.852Z</time></trkpt><trkpt lat="42.8124383" lon="-8.814625"><ele>331.6666666666667</ele><time>2026-04-17T07:04:50.852Z</time></trkpt><trkpt lat="42.8125217" lon="-8.81482"><ele>331.3333333333333</ele><time>2026-04-17T07:04:51.853Z</time></trkpt><trkpt lat="42.812575" lon="-8.8150517"><ele>331.0</ele><time>2026-04-17T07:04:52.853Z</time></trkpt><trkpt lat="42.8125917" lon="-8.815295"><ele>331.0</ele><time>2026-04-17T07:04:53.852Z</time></trkpt><trkpt lat="42.8125867" lon="-8.8155283"><ele>331.0</ele><time>2026-04-17T07:04:54.853Z</time></trkpt><trkpt lat="42.8125733" lon="-8.815765"><ele>331.0</ele><time>2026-04-17T07:04:55.853Z</time></trkpt><trkpt lat="42.81253" lon="-8.81602"><ele>368.0</ele><time>2026-04-17T07:04:56.852Z</time></trkpt><trkpt lat="42.8086967" lon="-8.8123267"><ele>368.0</ele><time>2026-04-17T07:04:26.852Z</time></trkpt><trkpt lat="42.8087133" lon="-8.8125733"><ele>368.0</ele><time>2026-04-17T07:04:27.852Z</time></trkpt><trkpt lat="42.8087717" lon="-8.812805"><ele>368.0</ele><time>2026-04-17T07:04:28.852Z</time></trkpt><trkpt lat="42.8088617" lon="-8.8130417"><ele>365.6666666666667</ele><time>2026-04-17T07:04:29.852Z</time></trkpt><trkpt lat="42.8089867" lon="-8.8132633"><ele>363.3333333333333</ele><time>2026-04-17T07:04:30.853Z</time></trkpt><trkpt lat="42.809135" lon="-8.81344"><ele>361.0</ele><time>2026-04-17T07:04:31.852Z</time></trkpt><trkpt lat="42.8092817" lon="-8.8136017"><ele>358.0</ele><time>2026-04-17T07:04:32.852Z</time></trkpt><trkpt lat="42.8094617" lon="-8.8137217"><ele>355.0</ele><time>2026-04-17T07:04:33.852Z</time></trkpt><trkpt lat="42.8096517" lon="-8.813805"><ele>352.0</ele><time>2026-04-17T07:04:34.852Z</time></trkpt><trkpt lat="42.80984" lon="-8.8138567"><ele>352.0</ele><time>2026-04-17T07:04:35.853Z</time></trkpt><trkpt lat="42.810035" lon="-8.8138933"><ele>352.0</ele><time>2026-04-17T07:04:36.853Z</time></trkpt><trkpt lat="42.8102233" lon="-8.8138833"><ele>352.0</ele><time>2026-04-17T07:04:37.852Z</time></trkpt><trkpt lat="42.8104233" lon="-8.81387"><ele>350.3333333333333</ele><time>2026-04-17T07:04:38.853Z</time></trkpt><trkpt lat="42.8106217" lon="-8.81386"><ele>348.6666666666667</ele><time>2026-04-17T07:04:39.853Z</time></trkpt><trkpt lat="42.8108267" lon="-8.8138433"><ele>347.0</ele><time>2026-04-17T07:04:40.853Z</time></trkpt><trkpt lat="42.8110233" lon="-8.8138467"><ele>344.0</ele><time>2026-04-17T07:04:41.852Z</time></trkpt><trkpt lat="42.811205" lon="-8.813845"><ele>341.0</ele><time>2026-04-17T07:04:42.853Z</time></trkpt><trkpt lat="42.811395" lon="-8.813855"><ele>338.0</ele><time>2026-04-17T07:04:43.853Z</time></trkpt><trkpt lat="42.8115733" lon="-8.8138917"><ele>338.0</ele><time>2026-04-17T07:04:44.853Z</time></trkpt><trkpt lat="42.811755" lon="-8.8139633"><ele>338.0</ele><time>2026-04-17T07:04:45.852Z</time></trkpt><trkpt lat="42.8119383" lon="-8.8140383"><ele>338.0</ele><time>2026-04-17T07:04:46.853Z</time></trkpt><trkpt lat="42.81209" lon="-8.8141567"><ele>336.0</ele><time>2026-04-17T07:04:47.853Z</time></trkpt><trkpt lat="42.8122133" lon="-8.8142617"><ele>334.0</ele><time>2026-04-17T07:04:48.852Z</time></trkpt><trkpt lat="42.812335" lon="-8.8144383"><ele>332.0</ele><time>2026-04-17T07:04:49.852Z</time></trkpt><trkpt lat="42.8124383" lon="-8.814625"><ele>331.6666666666667</ele><time>2026-04-17T07:04:50.852Z</time></trkpt><trkpt lat="42.8125217" lon="-8.81482"><ele>331.3333333333333</ele><time>2026-04-17T07:04:51.853Z</time></trkpt><trkpt lat="42.812575" lon="-8.8150517"><ele>331.0</ele><time>2026-04-17T07:04:52.853Z</time></trkpt><trkpt lat="42.8125917" lon="-8.815295"><ele>331.0</ele><time>2026-04-17T07:04:53.852Z</time></trkpt><trkpt lat="42.8125867" lon="-8.8155283"><ele>331.0</ele><time>2026-04-17T07:04:54.853Z</time></trkpt><trkpt lat="42.8125733" lon="-8.815765"><ele>331.0</ele><time>2026-04-17T07:04:55.853Z</time></trkpt><trkpt lat="42.81253" lon="-8.81602"><ele>331.3333333333333</ele><time>2026-04-17T07:04:56.852Z</time></trkpt><trkpt lat="42.81249" lon="-8.816255"><ele>331.6666666666667</ele><time>2026-04-17T07:04:57.853Z</time></trkpt><trkpt lat="42.81244" lon="-8.8165033"><ele>332.0</ele><time>2026-04-17T07:04:58.852Z</time></trkpt><trkpt lat="42.8123933" lon="-8.8167483"><ele>331.0</ele><time>2026-04-17T07:04:59.852Z</time></trkpt><trkpt lat="42.81235" lon="-8.817"><ele>330.0</ele><time>2026-04-17T07:05:00.853Z</time></trkpt><trkpt lat="42.8123117" lon="-8.81725"><ele>329.0</ele><time>2026-04-17T07:05:01.853Z</time></trkpt><trkpt lat="42.8122933" lon="-8.8174967"><ele>326.6666666666667</ele><time>2026-04-17T07:05:02.853Z</time></trkpt><trkpt lat="42.8122933" lon="-8.817725"><ele>324.3333333333333</ele><time>2026-04-17T07:05:03.852Z</time></trkpt><trkpt lat="42.8123017" lon="-8.8179567"><ele>322.0</ele><time>2026-04-17T07:05:04.853Z</time></trkpt><trkpt lat="42.812335" lon="-8.8181833"><ele>322.0</ele><time>2026-04-17T07:05:05.852Z</time></trkpt><trkpt lat="42.8123867" lon="-8.8184017"><ele>322.0</ele><time>2026-04-17T07:05:06.852Z</time></trkpt><trkpt lat="42.8124667" lon="-8.8186267"><ele>322.0</ele><time>2026-04-17T07:05:07.853Z</time></trkpt><trkpt lat="42.8125567" lon="-8.8188367"><ele>322.3333333333333</ele><time>2026-04-17T07:05:08.852Z</time></trkpt><trkpt lat="42.8126567" lon="-8.8190283"><ele>322.6666666666667</ele><time>2026-04-17T07:05:09.853Z</time></trkpt><trkpt lat="42.8127633" lon="-8.819225"><ele>323.0</ele><time>2026-04-17T07:05:10.852Z</time></trkpt><trkpt lat="42.812865" lon="-8.81944"><ele>320.33333333333337</ele><time>2026-04-17T07:05:11.853Z</time></trkpt><trkpt lat="42.8129433" lon="-8.8196533"><ele>317.6666666666667</ele><time>2026-04-17T07:05:12.852Z</time></trkpt><trkpt lat="42.8130117" lon="-8.81988"><ele>315.0</ele><time>2026-04-17T07:05:13.853Z</time></trkpt><trkpt lat="42.813065" lon="-8.8201183"><ele>315.0</ele><time>2026-04-17T07:05:14.853Z</time></trkpt><trkpt lat="42.8130883" lon="-8.8203683"><ele>315.0</ele><time>2026-04-17T07:05:15.852Z</time></trkpt><trkpt lat="42.8130783" lon="-8.8206083"><ele>315.0</ele><time>2026-04-17T07:05:16.853Z</time></trkpt><trkpt lat="42.8130417" lon="-8.8208533"><ele>316.6666666666667</ele><time>2026-04-17T07:05:17.852Z</time></trkpt><trkpt lat="42.812975" lon="-8.821085"><ele>318.33333333333337</ele><time>2026-04-17T07:05:18.853Z</time></trkpt><trkpt lat="42.8129033" lon="-8.8213267"><ele>320.0</ele><time>2026-04-17T07:05:19.853Z</time></trkpt><trkpt lat="42.8128067" lon="-8.82155"><ele>320.0</ele><time>2026-04-17T07:05:20.852Z</time></trkpt><trkpt lat="42.8127017" lon="-8.8217517"><ele>320.0</ele><time>2026-04-17T07:05:21.852Z</time></trkpt><trkpt lat="42.8125567" lon="-8.821895"><ele>320.0</ele><time>2026-04-17T07:05:22.853Z</time></trkpt><trkpt lat="42.8124017" lon="-8.8220467"><ele>317.33333333333337</ele><time>2026-04-17T07:05:23.852Z</time></trkpt><trkpt lat="42.8122567" lon="-8.822215"><ele>314.6666666666667</ele><time>2026-04-17T07:05:24.852Z</time></trkpt><trkpt lat="42.8121067" lon="-8.8223867"><ele>312.0</ele><time>2026-04-17T07:05:25.852Z</time></trkpt><trkpt lat="42.8119417" lon="-8.822545"><ele>307.0</ele><time>2026-04-17T07:05:26.853Z</time></trkpt><trkpt lat="42.8117783" lon="-8.8227217"><ele>302.0</ele><time>2026-04-17T07:05:27.853Z</time></trkpt><trkpt lat="42.8116183" lon="-8.8228933"><ele>297.0</ele><time>2026-04-17T07:05:28.852Z</time></trkpt><trkpt lat="42.811455" lon="-8.82307"><ele>297.0</ele><time>2026-04-17T07:05:29.853Z</time></trkpt><trkpt lat="42.81129" lon="-8.8232283"><ele>297.0</ele><time>2026-04-17T07:05:30.853Z</time></trkpt><trkpt lat="42.81113" lon="-8.823405"><ele>297.0</ele><time>2026-04-17T07:05:31.852Z</time></trkpt><trkpt lat="42.81099" lon="-8.8235933"><ele>292.3333333333333</ele><time>2026-04-17T07:05:32.853Z</time></trkpt><trkpt lat="42.8108367" lon="-8.8237633"><ele>287.66666666666663</ele><time>2026-04-17T07:05:33.853Z</time></trkpt><trkpt lat="42.8106967" lon="-8.8239483"><ele>283.0</ele><time>2026-04-17T07:05:34.853Z</time></trkpt><trkpt lat="42.810575" lon="-8.824145"><ele>284.66666666666663</ele><time>2026-04-17T07:05:35.852Z</time></trkpt><trkpt lat="42.810475" lon="-8.8243683"><ele>286.3333333333333</ele><time>2026-04-17T07:05:36.853Z</time></trkpt><trkpt lat="42.810395" lon="-8.8246"><ele>288.0</ele><time>2026-04-17T07:05:37.853Z</time></trkpt><trkpt lat="42.8103333" lon="-8.8248467"><ele>288.0</ele><time>2026-04-17T07:05:38.852Z</time></trkpt><trkpt lat="42.8103233" lon="-8.8251133"><ele>288.0</ele><time>2026-04-17T07:05:39.852Z</time></trkpt><trkpt lat="42.810305" lon="-8.8253833"><ele>288.0</ele><time>2026-04-17T07:05:40.852Z</time></trkpt><trkpt lat="42.8103" lon="-8.8256617"><ele>289.3333333333333</ele><time>2026-04-17T07:05:41.853Z</time></trkpt><trkpt lat="42.8102733" lon="-8.8259517"><ele>290.66666666666663</ele><time>2026-04-17T07:05:42.852Z</time></trkpt><trkpt lat="42.81023" lon="-8.8262283"><ele>292.0</ele><time>2026-04-17T07:05:43.852Z</time></trkpt><trkpt lat="42.81017" lon="-8.8265067"><ele>284.0</ele><time>2026-04-17T07:05:44.852Z</time></trkpt><trkpt lat="42.8101017" lon="-8.8267783"><ele>276.0</ele><time>2026-04-17T07:05:45.853Z</time></trkpt><trkpt lat="42.8100017" lon="-8.827035"><ele>268.0</ele><time>2026-04-17T07:05:46.853Z</time></trkpt><trkpt lat="42.80989" lon="-8.8272783"><ele>268.0</ele><time>2026-04-17T07:05:47.852Z</time></trkpt><trkpt lat="42.80975" lon="-8.82749"><ele>268.0</ele><time>2026-04-17T07:05:48.852Z</time></trkpt><trkpt lat="42.8095983" lon="-8.8277017"><ele>268.0</ele><time>2026-04-17T07:05:49.852Z</time></trkpt><trkpt lat="42.80944" lon="-8.8279033"><ele>264.3333333333333</ele><time>2026-04-17T07:05:50.853Z</time></trkpt><trkpt lat="42.809315" lon="-8.8280733"><ele>260.6666666666667</ele><time>2026-04-17T07:05:51.852Z</time></trkpt><trkpt lat="42.8091783" lon="-8.82828"><ele>257.0</ele><time>2026-04-17T07:05:52.853Z</time></trkpt><trkpt lat="42.809055" lon="-8.8284983"><ele>257.0</ele><time>2026-04-17T07:05:53.853Z</time></trkpt><trkpt lat="42.8089433" lon="-8.82874"><ele>257.0</ele><time>2026-04-17T07:05:54.852Z</time></trkpt><trkpt lat="42.8088567" lon="-8.8289983"><ele>257.0</ele><time>2026-04-17T07:05:55.852Z</time></trkpt><trkpt lat="42.808775" lon="-8.8292617"><ele>257.33333333333337</ele><time>2026-04-17T07:05:56.852Z</time></trkpt><trkpt lat="42.80871" lon="-8.8295283"><ele>257.6666666666667</ele><time>2026-04-17T07:05:57.853Z</time></trkpt><trkpt lat="42.8086567" lon="-8.8298233"><ele>258.0</ele><time>2026-04-17T07:05:58.853Z</time></trkpt><trkpt lat="42.8086167" lon="-8.8301033"><ele>258.6666666666667</ele><time>2026-04-17T07:05:59.853Z</time></trkpt><trkpt lat="42.8085567" lon="-8.8303733"><ele>259.33333333333337</ele><time>2026-04-17T07:06:00.852Z</time></trkpt><trkpt lat="42.80849" lon="-8.8306333"><ele>260.0</ele><time>2026-04-17T07:06:01.852Z</time></trkpt><trkpt lat="42.8084333" lon="-8.8308983"><ele>252.33333333333334</ele><time>2026-04-17T07:06:02.853Z</time></trkpt><trkpt lat="42.8083817" lon="-8.8311633"><ele>244.66666666666669</ele><time>2026-04-17T07:06:03.853Z</time></trkpt><trkpt lat="42.80834" lon="-8.8314467"><ele>237.0</ele><time>2026-04-17T07:06:04.852Z</time></trkpt><trkpt lat="42.8083033" lon="-8.831705"><ele>235.66666666666669</ele><time>2026-04-17T07:06:05.852Z</time></trkpt><trkpt lat="42.808285" lon="-8.8319783"><ele>234.33333333333334</ele><time>2026-04-17T07:06:06.852Z</time></trkpt><trkpt lat="42.8082817" lon="-8.832255"><ele>233.0</ele><time>2026-04-17T07:06:07.852Z</time></trkpt><trkpt lat="42.8082833" lon="-8.8325217"><ele>230.33333333333334</ele><time>2026-04-17T07:06:08.853Z</time></trkpt><trkpt lat="42.8082883" lon="-8.8327917"><ele>227.66666666666669</ele><time>2026-04-17T07:06:09.853Z</time></trkpt><trkpt lat="42.808305" lon="-8.8330717"><ele>225.0</ele><time>2026-04-17T07:06:10.853Z</time></trkpt><trkpt lat="42.8083433" lon="-8.8333717"><ele>222.66666666666669</ele><time>2026-04-17T07:06:11.853Z</time></trkpt><trkpt lat="42.80839" lon="-8.833665"><ele>220.33333333333334</ele><time>2026-04-17T07:06:12.852Z</time></trkpt><trkpt lat="42.808425" lon="-8.8339583"><ele>218.0</ele><time>2026-04-17T07:06:13.853Z</time></trkpt><trkpt lat="42.8084633" lon="-8.834235"><ele>225.66666666666669</ele><time>2026-04-17T07:06:14.852Z</time></trkpt><trkpt lat="42.8085183" lon="-8.8345"><ele>233.33333333333331</ele><time>2026-04-17T07:06:15.852Z</time></trkpt><trkpt lat="42.8085717" lon="-8.834765"><ele>241.0</ele><time>2026-04-17T07:06:16.853Z</time></trkpt><trkpt lat="42.8086167" lon="-8.8350217"><ele>237.66666666666666</ele><time>2026-04-17T07:06:17.853Z</time></trkpt><trkpt lat="42.8086367" lon="-8.8352717"><ele>234.33333333333331</ele><time>2026-04-17T07:06:18.853Z</time></trkpt><trkpt lat="42.8086767" lon="-8.8355533"><ele>231.0</ele><time>2026-04-17T07:06:19.852Z</time></trkpt><trkpt lat="42.8087033" lon="-8.8358367"><ele>229.33333333333331</ele><time>2026-04-17T07:06:20.853Z</time></trkpt><trkpt lat="42.808725" lon="-8.8361383"><ele>227.66666666666666</ele><time>2026-04-17T07:06:21.853Z</time></trkpt><trkpt lat="42.8087233" lon="-8.8364217"><ele>226.0</ele><time>2026-04-17T07:06:22.852Z</time></trkpt><trkpt lat="42.8086967" lon="-8.83672"><ele>257.0</ele><time>2026-04-17T07:06:23.852Z</time></trkpt><trkpt lat="42.809055" lon="-8.8284983"><ele>257.0</ele><time>2026-04-17T07:05:53.853Z</time></trkpt><trkpt lat="42.8089433" lon="-8.82874"><ele>257.0</ele><time>2026-04-17T07:05:54.852Z</time></trkpt><trkpt lat="42.8088567" lon="-8.8289983"><ele>257.0</ele><time>2026-04-17T07:05:55.852Z</time></trkpt><trkpt lat="42.808775" lon="-8.8292617"><ele>257.33333333333337</ele><time>2026-04-17T07:05:56.852Z</time></trkpt><trkpt lat="42.80871" lon="-8.8295283"><ele>257.6666666666667</ele><time>2026-04-17T07:05:57.853Z</time></trkpt><trkpt lat="42.8086567" lon="-8.8298233"><ele>258.0</ele><time>2026-04-17T07:05:58.853Z</time></trkpt><trkpt lat="42.8086167" lon="-8.8301033"><ele>258.6666666666667</ele><time>2026-04-17T07:05:59.853Z</time></trkpt><trkpt lat="42.8085567" lon="-8.8303733"><ele>259.33333333333337</ele><time>2026-04-17T07:06:00.852Z</time></trkpt><trkpt lat="42.80849" lon="-8.8306333"><ele>260.0</ele><time>2026-04-17T07:06:01.852Z</time></trkpt><trkpt lat="42.8084333" lon="-8.8308983"><ele>252.33333333333334</ele><time>2026-04-17T07:06:02.853Z</time></trkpt><trkpt lat="42.8083817" lon="-8.8311633"><ele>244.66666666666669</ele><time>2026-04-17T07:06:03.853Z</time></trkpt><trkpt lat="42.80834" lon="-8.8314467"><ele>237.0</ele><time>2026-04-17T07:06:04.852Z</time></trkpt><trkpt lat="42.8083033" lon="-8.831705"><ele>235.66666666666669</ele><time>2026-04-17T07:06:05.852Z</time></trkpt><trkpt lat="42.808285" lon="-8.8319783"><ele>234.33333333333334</ele><time>2026-04-17T07:06:06.852Z</time></trkpt><trkpt lat="42.8082817" lon="-8.832255"><ele>233.0</ele><time>2026-04-17T07:06:07.852Z</time></trkpt><trkpt lat="42.8082833" lon="-8.8325217"><ele>230.33333333333334</ele><time>2026-04-17T07:06:08.853Z</time></trkpt><trkpt lat="42.8082883" lon="-8.8327917"><ele>227.66666666666669</ele><time>2026-04-17T07:06:09.853Z</time></trkpt><trkpt lat="42.808305" lon="-8.8330717"><ele>225.0</ele><time>2026-04-17T07:06:10.853Z</time></trkpt><trkpt lat="42.8083433" lon="-8.8333717"><ele>222.66666666666669</ele><time>2026-04-17T07:06:11.853Z</time></trkpt><trkpt lat="42.80839" lon="-8.833665"><ele>220.33333333333334</ele><time>2026-04-17T07:06:12.852Z</time></trkpt><trkpt lat="42.808425" lon="-8.8339583"><ele>218.0</ele><time>2026-04-17T07:06:13.853Z</time></trkpt><trkpt lat="42.8084633" lon="-8.834235"><ele>225.66666666666669</ele><time>2026-04-17T07:06:14.852Z</time></trkpt><trkpt lat="42.8085183" lon="-8.8345"><ele>233.33333333333331</ele><time>2026-04-17T07:06:15.852Z</time></trkpt><trkpt lat="42.8085717" lon="-8.834765"><ele>241.0</ele><time>2026-04-17T07:06:16.853Z</time></trkpt><trkpt lat="42.8086167" lon="-8.8350217"><ele>237.66666666666666</ele><time>2026-04-17T07:06:17.853Z</time></trkpt><trkpt lat="42.8086367" lon="-8.8352717"><ele>234.33333333333331</ele><time>2026-04-17T07:06:18.853Z</time></trkpt><trkpt lat="42.8086767" lon="-8.8355533"><ele>231.0</ele><time>2026-04-17T07:06:19.852Z</time></trkpt><trkpt lat="42.8087033" lon="-8.8358367"><ele>229.33333333333331</ele><time>2026-04-17T07:06:20.853Z</time></trkpt><trkpt lat="42.808725" lon="-8.8361383"><ele>227.66666666666666</ele><time>2026-04-17T07:06:21.853Z</time></trkpt><trkpt lat="42.8087233" lon="-8.8364217"><ele>226.0</ele><time>2026-04-17T07:06:22.852Z</time></trkpt><trkpt lat="42.8086967" lon="-8.83672"><ele>226.0</ele><time>2026-04-17T07:06:23.852Z</time></trkpt><trkpt lat="42.80866" lon="-8.8370117"><ele>226.0</ele><time>2026-04-17T07:06:24.853Z</time></trkpt><trkpt lat="42.8086" lon="-8.83728"><ele>226.0</ele><time>2026-04-17T07:06:25.853Z</time></trkpt><trkpt lat="42.808525" lon="-8.837515"><ele>220.33333333333331</ele><time>2026-04-17T07:06:26.852Z</time></trkpt><trkpt lat="42.808435" lon="-8.8377717"><ele>214.66666666666669</ele><time>2026-04-17T07:06:27.852Z</time></trkpt><trkpt lat="42.80832" lon="-8.8380083"><ele>209.0</ele><time>2026-04-17T07:06:28.853Z</time></trkpt><trkpt lat="42.8081917" lon="-8.8382367"><ele>209.0</ele><time>2026-04-17T07:06:29.853Z</time></trkpt><trkpt lat="42.80807" lon="-8.8384433"><ele>209.0</ele><time>2026-04-17T07:06:30.853Z</time></trkpt><trkpt lat="42.807925" lon="-8.8386467"><ele>209.0</ele><time>2026-04-17T07:06:31.853Z</time></trkpt><trkpt lat="42.8077517" lon="-8.8388433"><ele>204.0</ele><time>2026-04-17T07:06:32.852Z</time></trkpt><trkpt lat="42.8075583" lon="-8.8390233"><ele>199.0</ele><time>2026-04-17T07:06:33.853Z</time></trkpt><trkpt lat="42.8073633" lon="-8.8391783"><ele>200.0</ele><time>2026-04-17T07:06:34.853Z</time></trkpt><trkpt lat="42.8071633" lon="-8.83932"><ele>201.0</ele><time>2026-04-17T07:06:35.852Z</time></trkpt><trkpt lat="42.806975" lon="-8.8394317"><ele>202.0</ele><time>2026-04-17T07:06:36.853Z</time></trkpt><trkpt lat="42.80679" lon="-8.8395417"><ele>197.33333333333331</ele><time>2026-04-17T07:06:37.852Z</time></trkpt><trkpt lat="42.8066" lon="-8.8396617"><ele>192.66666666666666</ele><time>2026-04-17T07:06:38.852Z</time></trkpt><trkpt lat="42.80641" lon="-8.8397883"><ele>188.0</ele><time>2026-04-17T07:06:39.853Z</time></trkpt><trkpt lat="42.8062283" lon="-8.839945"><ele>188.0</ele><time>2026-04-17T07:06:40.853Z</time></trkpt><trkpt lat="42.80606" lon="-8.840095"><ele>188.0</ele><time>2026-04-17T07:06:41.852Z</time></trkpt><trkpt lat="42.805895" lon="-8.8402583"><ele>188.0</ele><time>2026-04-17T07:06:42.853Z</time></trkpt><trkpt lat="42.8057333" lon="-8.8404267"><ele>185.33333333333331</ele><time>2026-04-17T07:06:43.853Z</time></trkpt><trkpt lat="42.805575" lon="-8.840595"><ele>182.66666666666666</ele><time>2026-04-17T07:06:44.852Z</time></trkpt><trkpt lat="42.80541" lon="-8.8407667"><ele>180.0</ele><time>2026-04-17T07:06:45.853Z</time></trkpt><trkpt lat="42.805245" lon="-8.84094"><ele>176.66666666666666</ele><time>2026-04-17T07:06:46.852Z</time></trkpt><trkpt lat="42.8050783" lon="-8.8411167"><ele>173.33333333333331</ele><time>2026-04-17T07:06:47.853Z</time></trkpt><trkpt lat="42.8049067" lon="-8.8413017"><ele>170.0</ele><time>2026-04-17T07:06:48.853Z</time></trkpt><trkpt lat="42.804755" lon="-8.8414733"><ele>170.0</ele><time>2026-04-17T07:06:49.853Z</time></trkpt><trkpt lat="42.8046133" lon="-8.8416383"><ele>170.0</ele><time>2026-04-17T07:06:50.853Z</time></trkpt><trkpt lat="42.8044733" lon="-8.841795"><ele>170.0</ele><time>2026-04-17T07:06:51.852Z</time></trkpt><trkpt lat="42.8043433" lon="-8.8419633"><ele>167.33333333333331</ele><time>2026-04-17T07:06:52.852Z</time></trkpt><trkpt lat="42.8041983" lon="-8.8421083"><ele>164.66666666666666</ele><time>2026-04-17T07:06:53.853Z</time></trkpt><trkpt lat="42.8040483" lon="-8.84225"><ele>162.0</ele><time>2026-04-17T07:06:54.852Z</time></trkpt><trkpt lat="42.8039117" lon="-8.84239"><ele>162.0</ele><time>2026-04-17T07:06:55.852Z</time></trkpt><trkpt lat="42.8037717" lon="-8.84253"><ele>162.0</ele><time>2026-04-17T07:06:56.852Z</time></trkpt><trkpt lat="42.8036317" lon="-8.842685"><ele>162.0</ele><time>2026-04-17T07:06:57.853Z</time></trkpt><trkpt lat="42.8034933" lon="-8.8428517"><ele>157.66666666666666</ele><time>2026-04-17T07:06:58.852Z</time></trkpt><trkpt lat="42.8033567" lon="-8.8430383"><ele>153.33333333333331</ele><time>2026-04-17T07:06:59.853Z</time></trkpt><trkpt lat="42.8032283" lon="-8.8432267"><ele>149.0</ele><time>2026-04-17T07:07:00.852Z</time></trkpt><trkpt lat="42.803095" lon="-8.8434133"><ele>149.66666666666666</ele><time>2026-04-17T07:07:01.852Z</time></trkpt><trkpt lat="42.80297" lon="-8.843595"><ele>150.33333333333334</ele><time>2026-04-17T07:07:02.852Z</time></trkpt><trkpt lat="42.8028467" lon="-8.8437767"><ele>151.0</ele><time>2026-04-17T07:07:03.853Z</time></trkpt><trkpt lat="42.8027267" lon="-8.8439683"><ele>151.33333333333334</ele><time>2026-04-17T07:07:04.853Z</time></trkpt><trkpt lat="42.8026117" lon="-8.8441583"><ele>151.66666666666666</ele><time>2026-04-17T07:07:05.852Z</time></trkpt><trkpt lat="42.8025083" lon="-8.84434"><ele>152.0</ele><time>2026-04-17T07:07:06.853Z</time></trkpt><trkpt lat="42.8024033" lon="-8.84451"><ele>152.0</ele><time>2026-04-17T07:07:07.853Z</time></trkpt><trkpt lat="42.8023167" lon="-8.8446867"><ele>152.0</ele><time>2026-04-17T07:07:08.853Z</time></trkpt><trkpt lat="42.8022517" lon="-8.8448617"><ele>152.0</ele><time>2026-04-17T07:07:09.853Z</time></trkpt><trkpt lat="42.80219" lon="-8.8450367"><ele>152.0</ele><time>2026-04-17T07:07:10.853Z</time></trkpt><trkpt lat="42.8021267" lon="-8.8452017"><ele>153.25</ele><time>2026-04-17T07:07:11.853Z</time></trkpt><trkpt lat="42.8020817" lon="-8.8453933"><ele>154.5</ele><time>2026-04-17T07:07:12.853Z</time></trkpt><trkpt lat="42.8020383" lon="-8.84558"><ele>155.75</ele><time>2026-04-17T07:07:13.852Z</time></trkpt><trkpt lat="42.8020117" lon="-8.8457483"><ele>157.0</ele><time>2026-04-17T07:07:14.853Z</time></trkpt><trkpt lat="42.8019833" lon="-8.8459233"><ele>156.25</ele><time>2026-04-17T07:07:15.853Z</time></trkpt><trkpt lat="42.80197" lon="-8.8461133"><ele>155.5</ele><time>2026-04-17T07:07:16.853Z</time></trkpt><trkpt lat="42.80197" lon="-8.8463183"><ele>154.75</ele><time>2026-04-17T07:07:17.852Z</time></trkpt><trkpt lat="42.8020067" lon="-8.8465067"><ele>154.0</ele><time>2026-04-17T07:07:18.852Z</time></trkpt><trkpt lat="42.8020517" lon="-8.8466883"><ele>151.75</ele><time>2026-04-17T07:07:19.852Z</time></trkpt><trkpt lat="42.8020767" lon="-8.8468567"><ele>149.5</ele><time>2026-04-17T07:07:20.852Z</time></trkpt><trkpt lat="42.80207" lon="-8.8470483"><ele>147.25</ele><time>2026-04-17T07:07:21.852Z</time></trkpt><trkpt lat="42.8020283" lon="-8.8472267"><ele>145.0</ele><time>2026-04-17T07:07:22.852Z</time></trkpt><trkpt lat="42.8019633" lon="-8.8474067"><ele>145.0</ele><time>2026-04-17T07:07:23.852Z</time></trkpt><trkpt lat="42.8018983" lon="-8.8476083"><ele>145.0</ele><time>2026-04-17T07:07:24.853Z</time></trkpt><trkpt lat="42.80186" lon="-8.8478283"><ele>145.0</ele><time>2026-04-17T07:07:25.852Z</time></trkpt><trkpt lat="42.8018617" lon="-8.8480583"><ele>143.0</ele><time>2026-04-17T07:07:26.853Z</time></trkpt><trkpt lat="42.8018917" lon="-8.8483167"><ele>141.0</ele><time>2026-04-17T07:07:27.852Z</time></trkpt><trkpt lat="42.8019117" lon="-8.848565"><ele>139.0</ele><time>2026-04-17T07:07:28.853Z</time></trkpt><trkpt lat="42.8019267" lon="-8.84882"><ele>139.0</ele><time>2026-04-17T07:07:29.852Z</time></trkpt><trkpt lat="42.8019517" lon="-8.8490767"><ele>139.0</ele><time>2026-04-17T07:07:30.853Z</time></trkpt><trkpt lat="42.80197" lon="-8.8492967"><ele>139.0</ele><time>2026-04-17T07:07:31.852Z</time></trkpt><trkpt lat="42.801985" lon="-8.8495017"><ele>138.75</ele><time>2026-04-17T07:07:32.852Z</time></trkpt><trkpt lat="42.8019983" lon="-8.84969"><ele>138.5</ele><time>2026-04-17T07:07:33.852Z</time></trkpt><trkpt lat="42.8019867" lon="-8.8498667"><ele>138.25</ele><time>2026-04-17T07:07:34.853Z</time></trkpt><trkpt lat="42.8019767" lon="-8.850055"><ele>138.0</ele><time>2026-04-17T07:07:35.852Z</time></trkpt><trkpt lat="42.8019617" lon="-8.8502417"><ele>135.33333333333334</ele><time>2026-04-17T07:07:36.852Z</time></trkpt><trkpt lat="42.8019433" lon="-8.8504367"><ele>132.66666666666669</ele><time>2026-04-17T07:07:37.852Z</time></trkpt><trkpt lat="42.8019217" lon="-8.85065"><ele>130.0</ele><time>2026-04-17T07:07:38.852Z</time></trkpt><trkpt lat="42.8018933" lon="-8.8508717"><ele>128.66666666666669</ele><time>2026-04-17T07:07:39.852Z</time></trkpt><trkpt lat="42.8018567" lon="-8.8511017"><ele>127.33333333333334</ele><time>2026-04-17T07:07:40.852Z</time></trkpt><trkpt lat="42.801815" lon="-8.8513367"><ele>126.0</ele><time>2026-04-17T07:07:41.853Z</time></trkpt><trkpt lat="42.801775" lon="-8.8515767"><ele>124.33333333333334</ele><time>2026-04-17T07:07:42.852Z</time></trkpt><trkpt lat="42.80173" lon="-8.8518283"><ele>122.66666666666667</ele><time>2026-04-17T07:07:43.852Z</time></trkpt><trkpt lat="42.8016833" lon="-8.8520817"><ele>121.0</ele><time>2026-04-17T07:07:44.853Z</time></trkpt><trkpt lat="42.801635" lon="-8.8523417"><ele>121.0</ele><time>2026-04-17T07:07:45.852Z</time></trkpt><trkpt lat="42.801575" lon="-8.8526017"><ele>121.0</ele><time>2026-04-17T07:07:46.852Z</time></trkpt><trkpt lat="42.80151" lon="-8.8528567"><ele>121.0</ele><time>2026-04-17T07:07:47.853Z</time></trkpt><trkpt lat="42.801445" lon="-8.85312"><ele>121.0</ele><time>2026-04-17T07:07:48.852Z</time></trkpt><trkpt lat="42.8013767" lon="-8.8533883"><ele>121.0</ele><time>2026-04-17T07:07:49.852Z</time></trkpt><trkpt lat="42.8013133" lon="-8.8536483"><ele>121.0</ele><time>2026-04-17T07:07:50.853Z</time></trkpt><trkpt lat="42.8020767" lon="-8.8468567"><ele>127.0</ele><time>2026-04-17T07:07:20.852Z</time></trkpt><trkpt lat="42.80207" lon="-8.8470483"><ele>133.0</ele><time>2026-04-17T07:07:21.852Z</time></trkpt><trkpt lat="42.8020283" lon="-8.8472267"><ele>139.0</ele><time>2026-04-17T07:07:22.852Z</time></trkpt><trkpt lat="42.8019633" lon="-8.8474067"><ele>145.0</ele><time>2026-04-17T07:07:23.852Z</time></trkpt><trkpt lat="42.8018983" lon="-8.8476083"><ele>142.33333333333334</ele><time>2026-04-17T07:07:24.853Z</time></trkpt><trkpt lat="42.80186" lon="-8.8478283"><ele>139.66666666666666</ele><time>2026-04-17T07:07:25.852Z</time></trkpt><trkpt lat="42.8018617" lon="-8.8480583"><ele>137.0</ele><time>2026-04-17T07:07:26.853Z</time></trkpt><trkpt lat="42.8018917" lon="-8.8483167"><ele>137.66666666666666</ele><time>2026-04-17T07:07:27.852Z</time></trkpt><trkpt lat="42.8019117" lon="-8.848565"><ele>138.33333333333334</ele><time>2026-04-17T07:07:28.853Z</time></trkpt><trkpt lat="42.8019267" lon="-8.84882"><ele>139.0</ele><time>2026-04-17T07:07:29.852Z</time></trkpt><trkpt lat="42.8019517" lon="-8.8490767"><ele>138.66666666666669</ele><time>2026-04-17T07:07:30.853Z</time></trkpt><trkpt lat="42.80197" lon="-8.8492967"><ele>138.33333333333334</ele><time>2026-04-17T07:07:31.852Z</time></trkpt><trkpt lat="42.801985" lon="-8.8495017"><ele>138.0</ele><time>2026-04-17T07:07:32.852Z</time></trkpt><trkpt lat="42.8019983" lon="-8.84969"><ele>138.0</ele><time>2026-04-17T07:07:33.852Z</time></trkpt><trkpt lat="42.8019867" lon="-8.8498667"><ele>138.0</ele><time>2026-04-17T07:07:34.853Z</time></trkpt><trkpt lat="42.8019767" lon="-8.850055"><ele>138.0</ele><time>2026-04-17T07:07:35.852Z</time></trkpt><trkpt lat="42.8019617" lon="-8.8502417"><ele>138.0</ele><time>2026-04-17T07:07:36.852Z</time></trkpt><trkpt lat="42.8019433" lon="-8.8504367"><ele>135.33333333333334</ele><time>2026-04-17T07:07:37.852Z</time></trkpt><trkpt lat="42.8019217" lon="-8.85065"><ele>132.66666666666669</ele><time>2026-04-17T07:07:38.852Z</time></trkpt><trkpt lat="42.8018933" lon="-8.8508717"><ele>130.0</ele><time>2026-04-17T07:07:39.852Z</time></trkpt><trkpt lat="42.8018567" lon="-8.8511017"><ele>127.0</ele><time>2026-04-17T07:07:40.852Z</time></trkpt><trkpt lat="42.801815" lon="-8.8513367"><ele>124.0</ele><time>2026-04-17T07:07:41.853Z</time></trkpt><trkpt lat="42.801775" lon="-8.8515767"><ele>121.0</ele><time>2026-04-17T07:07:42.852Z</time></trkpt><trkpt lat="42.80173" lon="-8.8518283"><ele>121.0</ele><time>2026-04-17T07:07:43.852Z</time></trkpt><trkpt lat="42.8016833" lon="-8.8520817"><ele>121.0</ele><time>2026-04-17T07:07:44.853Z</time></trkpt><trkpt lat="42.801635" lon="-8.8523417"><ele>121.0</ele><time>2026-04-17T07:07:45.852Z</time></trkpt><trkpt lat="42.801575" lon="-8.8526017"><ele>120.66666666666667</ele><time>2026-04-17T07:07:46.852Z</time></trkpt><trkpt lat="42.80151" lon="-8.8528567"><ele>120.33333333333334</ele><time>2026-04-17T07:07:47.853Z</time></trkpt><trkpt lat="42.801445" lon="-8.85312"><ele>120.0</ele><time>2026-04-17T07:07:48.852Z</time></trkpt><trkpt lat="42.8013767" lon="-8.8533883"><ele>120.33333333333334</ele><time>2026-04-17T07:07:49.852Z</time></trkpt><trkpt lat="42.8013133" lon="-8.8536483"><ele>120.66666666666667</ele><time>2026-04-17T07:07:50.853Z</time></trkpt><trkpt lat="42.8012483" lon="-8.8539067"><ele>121.0</ele><time>2026-04-17T07:07:51.853Z</time></trkpt><trkpt lat="42.80118" lon="-8.8541617"><ele>120.33333333333334</ele><time>2026-04-17T07:07:52.852Z</time></trkpt><trkpt lat="42.8011067" lon="-8.8544067"><ele>119.66666666666666</ele><time>2026-04-17T07:07:53.852Z</time></trkpt><trkpt lat="42.801035" lon="-8.8546483"><ele>119.0</ele><time>2026-04-17T07:07:54.852Z</time></trkpt><trkpt lat="42.8009567" lon="-8.8548867"><ele>113.33333333333333</ele><time>2026-04-17T07:07:55.852Z</time></trkpt><trkpt lat="42.80088" lon="-8.8551333"><ele>107.66666666666666</ele><time>2026-04-17T07:07:56.852Z</time></trkpt><trkpt lat="42.800805" lon="-8.855385"><ele>102.0</ele><time>2026-04-17T07:07:57.852Z</time></trkpt><trkpt lat="42.80072" lon="-8.8556167"><ele>102.0</ele><time>2026-04-17T07:07:58.852Z</time></trkpt><trkpt lat="42.8006467" lon="-8.855845"><ele>102.0</ele><time>2026-04-17T07:07:59.853Z</time></trkpt><trkpt lat="42.80058" lon="-8.8560733"><ele>102.0</ele><time>2026-04-17T07:08:00.852Z</time></trkpt><trkpt lat="42.8005117" lon="-8.856285"><ele>101.33333333333334</ele><time>2026-04-17T07:08:01.852Z</time></trkpt><trkpt lat="42.8004217" lon="-8.8564783"><ele>100.66666666666667</ele><time>2026-04-17T07:08:02.853Z</time></trkpt><trkpt lat="42.80033" lon="-8.85666"><ele>100.0</ele><time>2026-04-17T07:08:03.853Z</time></trkpt><trkpt lat="42.8002383" lon="-8.8568267"><ele>100.33333333333334</ele><time>2026-04-17T07:08:04.852Z</time></trkpt><trkpt lat="42.800135" lon="-8.8570033"><ele>100.66666666666666</ele><time>2026-04-17T07:08:05.852Z</time></trkpt><trkpt lat="42.80003" lon="-8.8571717"><ele>101.0</ele><time>2026-04-17T07:08:06.852Z</time></trkpt><trkpt lat="42.79992" lon="-8.8573183"><ele>101.0</ele><time>2026-04-17T07:08:07.853Z</time></trkpt><trkpt lat="42.7997917" lon="-8.8574733"><ele>101.0</ele><time>2026-04-17T07:08:08.853Z</time></trkpt><trkpt lat="42.7996567" lon="-8.85762"><ele>101.0</ele><time>2026-04-17T07:08:09.853Z</time></trkpt><trkpt lat="42.79952" lon="-8.8577683"><ele>100.66666666666666</ele><time>2026-04-17T07:08:10.854Z</time></trkpt><trkpt lat="42.7993733" lon="-8.85791"><ele>100.33333333333334</ele><time>2026-04-17T07:08:11.854Z</time></trkpt><trkpt lat="42.7992267" lon="-8.8580433"><ele>100.0</ele><time>2026-04-17T07:08:12.854Z</time></trkpt><trkpt lat="42.7990817" lon="-8.8581583"><ele>100.0</ele><time>2026-04-17T07:08:13.854Z</time></trkpt><trkpt lat="42.7989417" lon="-8.8582633"><ele>100.0</ele><time>2026-04-17T07:08:14.854Z</time></trkpt><trkpt lat="42.79879" lon="-8.8583567"><ele>100.0</ele><time>2026-04-17T07:08:15.854Z</time></trkpt><trkpt lat="42.7986267" lon="-8.8584133"><ele>101.0</ele><time>2026-04-17T07:08:16.854Z</time></trkpt><trkpt lat="42.7984833" lon="-8.8584633"><ele>102.0</ele><time>2026-04-17T07:08:17.853Z</time></trkpt><trkpt lat="42.7983283" lon="-8.8584717"><ele>103.0</ele><time>2026-04-17T07:08:18.854Z</time></trkpt><trkpt lat="42.798165" lon="-8.8584917"><ele>103.0</ele><time>2026-04-17T07:08:19.853Z</time></trkpt><trkpt lat="42.7980133" lon="-8.8585283"><ele>103.0</ele><time>2026-04-17T07:08:20.853Z</time></trkpt><trkpt lat="42.7978733" lon="-8.8585283"><ele>103.0</ele><time>2026-04-17T07:08:21.853Z</time></trkpt><trkpt lat="42.7977283" lon="-8.8584967"><ele>103.0</ele><time>2026-04-17T07:08:22.853Z</time></trkpt><trkpt lat="42.7975783" lon="-8.858425"><ele>94.0</ele><time>2026-04-17T07:08:23.853Z</time></trkpt><trkpt lat="42.7974267" lon="-8.8583517"><ele>85.0</ele><time>2026-04-17T07:08:24.853Z</time></trkpt><trkpt lat="42.7972667" lon="-8.8582967"><ele>76.0</ele><time>2026-04-17T07:08:25.854Z</time></trkpt><trkpt lat="42.7970967" lon="-8.8582567"><ele>76.0</ele><time>2026-04-17T07:08:26.854Z</time></trkpt><trkpt lat="42.7969483" lon="-8.8582317"><ele>76.0</ele><time>2026-04-17T07:08:27.854Z</time></trkpt><trkpt lat="42.796785" lon="-8.8582533"><ele>76.0</ele><time>2026-04-17T07:08:28.853Z</time></trkpt><trkpt lat="42.7966183" lon="-8.8583067"><ele>76.0</ele><time>2026-04-17T07:08:29.853Z</time></trkpt><trkpt lat="42.796445" lon="-8.858365"><ele>76.0</ele><time>2026-04-17T07:08:30.854Z</time></trkpt><trkpt lat="42.7962717" lon="-8.858405"><ele>76.0</ele><time>2026-04-17T07:08:31.854Z</time></trkpt><trkpt lat="42.7960983" lon="-8.8584583"><ele>80.33333333333333</ele><time>2026-04-17T07:08:32.853Z</time></trkpt><trkpt lat="42.7959283" lon="-8.8585217"><ele>84.66666666666667</ele><time>2026-04-17T07:08:33.853Z</time></trkpt><trkpt lat="42.7957867" lon="-8.85861"><ele>89.0</ele><time>2026-04-17T07:08:34.853Z</time></trkpt><trkpt lat="42.795645" lon="-8.8587417"><ele>89.0</ele><time>2026-04-17T07:08:35.853Z</time></trkpt><trkpt lat="42.7955167" lon="-8.8588967"><ele>89.0</ele><time>2026-04-17T07:08:36.853Z</time></trkpt><trkpt lat="42.795405" lon="-8.8590867"><ele>89.0</ele><time>2026-04-17T07:08:37.854Z</time></trkpt><trkpt lat="42.7953067" lon="-8.8592933"><ele>91.66666666666667</ele><time>2026-04-17T07:08:38.853Z</time></trkpt><trkpt lat="42.795195" lon="-8.8595033"><ele>94.33333333333334</ele><time>2026-04-17T07:08:39.854Z</time></trkpt><trkpt lat="42.7950783" lon="-8.859715"><ele>97.0</ele><time>2026-04-17T07:08:40.853Z</time></trkpt><trkpt lat="42.7949633" lon="-8.8599383"><ele>93.33333333333334</ele><time>2026-04-17T07:08:41.854Z</time></trkpt><trkpt lat="42.7948617" lon="-8.8601633"><ele>89.66666666666667</ele><time>2026-04-17T07:08:42.853Z</time></trkpt><trkpt lat="42.794765" lon="-8.8603783"><ele>86.0</ele><time>2026-04-17T07:08:43.853Z</time></trkpt><trkpt lat="42.7946417" lon="-8.8606"><ele>86.0</ele><time>2026-04-17T07:08:44.854Z</time></trkpt><trkpt lat="42.7944967" lon="-8.8607883"><ele>86.0</ele><time>2026-04-17T07:08:45.854Z</time></trkpt><trkpt lat="42.7943367" lon="-8.8609367"><ele>86.0</ele><time>2026-04-17T07:08:46.853Z</time></trkpt><trkpt lat="42.7941517" lon="-8.861055"><ele>88.33333333333334</ele><time>2026-04-17T07:08:47.853Z</time></trkpt><trkpt lat="42.7939717" lon="-8.8611683"><ele>90.66666666666667</ele><time>2026-04-17T07:08:48.853Z</time></trkpt><trkpt lat="42.7937867" lon="-8.861265"><ele>93.0</ele><time>2026-04-17T07:08:49.853Z</time></trkpt><trkpt lat="42.7936033" lon="-8.8613617"><ele>89.0</ele><time>2026-04-17T07:08:50.853Z</time></trkpt><trkpt lat="42.79342" lon="-8.86145"><ele>85.0</ele><time>2026-04-17T07:08:51.853Z</time></trkpt><trkpt lat="42.7932417" lon="-8.8614933"><ele>81.0</ele><time>2026-04-17T07:08:52.854Z</time></trkpt><trkpt lat="42.7930717" lon="-8.8615533"><ele>81.0</ele><time>2026-04-17T07:08:53.853Z</time></trkpt><trkpt lat="42.7929017" lon="-8.8616433"><ele>81.0</ele><time>2026-04-17T07:08:54.853Z</time></trkpt><trkpt lat="42.7927383" lon="-8.8617517"><ele>81.0</ele><time>2026-04-17T07:08:55.853Z</time></trkpt><trkpt lat="42.7926033" lon="-8.8618817"><ele>81.66666666666667</ele><time>2026-04-17T07:08:56.854Z</time></trkpt><trkpt lat="42.7924583" lon="-8.862015"><ele>82.33333333333334</ele><time>2026-04-17T07:08:57.853Z</time></trkpt><trkpt lat="42.79233" lon="-8.8621433"><ele>83.0</ele><time>2026-04-17T07:08:58.854Z</time></trkpt><trkpt lat="42.7922317" lon="-8.862255"><ele>83.0</ele><time>2026-04-17T07:08:59.854Z</time></trkpt><trkpt lat="42.79215" lon="-8.8623633"><ele>83.0</ele><time>2026-04-17T07:09:00.853Z</time></trkpt><trkpt lat="42.7920833" lon="-8.8624783"><ele>83.0</ele><time>2026-04-17T07:09:01.853Z</time></trkpt><trkpt lat="42.7920417" lon="-8.8625983"><ele>83.0</ele><time>2026-04-17T07:09:02.854Z</time></trkpt><trkpt lat="42.7920083" lon="-8.8627283"><ele>83.0</ele><time>2026-04-17T07:09:03.853Z</time></trkpt><trkpt lat="42.792005" lon="-8.8628717"><ele>83.0</ele><time>2026-04-17T07:09:04.854Z</time></trkpt><trkpt lat="42.792015" lon="-8.8630167"><ele>83.0</ele><time>2026-04-17T07:09:05.853Z</time></trkpt><trkpt lat="42.792055" lon="-8.86317"><ele>83.0</ele><time>2026-04-17T07:09:06.854Z</time></trkpt><trkpt lat="42.79209" lon="-8.863325"><ele>83.0</ele><time>2026-04-17T07:09:07.853Z</time></trkpt><trkpt lat="42.7921183" lon="-8.8634633"><ele>82.25</ele><time>2026-04-17T07:09:08.853Z</time></trkpt><trkpt lat="42.79215" lon="-8.8636083"><ele>81.5</ele><time>2026-04-17T07:09:09.853Z</time></trkpt><trkpt lat="42.79219" lon="-8.8637483"><ele>80.75</ele><time>2026-04-17T07:09:10.853Z</time></trkpt><trkpt lat="42.7922367" lon="-8.86392"><ele>80.0</ele><time>2026-04-17T07:09:11.853Z</time></trkpt><trkpt lat="42.7922667" lon="-8.8640667"><ele>80.0</ele><time>2026-04-17T07:09:12.853Z</time></trkpt><trkpt lat="42.7923067" lon="-8.8642067"><ele>80.0</ele><time>2026-04-17T07:09:13.854Z</time></trkpt><trkpt lat="42.7923533" lon="-8.86434"><ele>80.0</ele><time>2026-04-17T07:09:14.854Z</time></trkpt><trkpt lat="42.792395" lon="-8.8644683"><ele>80.0</ele><time>2026-04-17T07:09:15.853Z</time></trkpt><trkpt lat="42.7924383" lon="-8.864595"><ele>80.0</ele><time>2026-04-17T07:09:16.854Z</time></trkpt><trkpt lat="42.7924767" lon="-8.8647217"><ele>79.4</ele><time>2026-04-17T07:09:17.853Z</time></trkpt><trkpt lat="42.7925167" lon="-8.8648533"><ele>78.8</ele><time>2026-04-17T07:09:18.854Z</time></trkpt><trkpt lat="42.7925533" lon="-8.8649883"><ele>78.2</ele><time>2026-04-17T07:09:19.854Z</time></trkpt><trkpt lat="42.7925917" lon="-8.8651283"><ele>77.6</ele><time>2026-04-17T07:09:20.854Z</time></trkpt><trkpt lat="42.7926267" lon="-8.865265"><ele>77.0</ele><time>2026-04-17T07:09:21.853Z</time></trkpt><trkpt lat="42.79266" lon="-8.8654067"><ele>75.8</ele><time>2026-04-17T07:09:22.854Z</time></trkpt><trkpt lat="42.7926833" lon="-8.86555"><ele>74.6</ele><time>2026-04-17T07:09:23.853Z</time></trkpt><trkpt lat="42.7926933" lon="-8.8656933"><ele>73.39999999999999</ele><time>2026-04-17T07:09:24.854Z</time></trkpt><trkpt lat="42.792695" lon="-8.8658333"><ele>72.2</ele><time>2026-04-17T07:09:25.854Z</time></trkpt><trkpt lat="42.7926917" lon="-8.8659733"><ele>71.0</ele><time>2026-04-17T07:09:26.853Z</time></trkpt><trkpt lat="42.79267" lon="-8.8661"><ele>71.0</ele><time>2026-04-17T07:09:27.854Z</time></trkpt><trkpt lat="42.7926317" lon="-8.8662167"><ele>71.0</ele><time>2026-04-17T07:09:28.853Z</time></trkpt><trkpt lat="42.7925733" lon="-8.8663133"><ele>71.0</ele><time>2026-04-17T07:09:29.853Z</time></trkpt><trkpt lat="42.7924983" lon="-8.8663967"><ele>71.0</ele><time>2026-04-17T07:09:30.854Z</time></trkpt><trkpt lat="42.7924" lon="-8.8664583"><ele>71.0</ele><time>2026-04-17T07:09:31.853Z</time></trkpt><trkpt lat="42.79229" lon="-8.866515"><ele>71.0</ele><time>2026-04-17T07:09:32.853Z</time></trkpt><trkpt lat="42.7921783" lon="-8.8665767"><ele>71.0</ele><time>2026-04-17T07:09:33.854Z</time></trkpt><trkpt lat="42.7920783" lon="-8.86665"><ele>71.0</ele><time>2026-04-17T07:09:34.853Z</time></trkpt><trkpt lat="42.7919883" lon="-8.86673"><ele>71.0</ele><time>2026-04-17T07:09:35.853Z</time></trkpt><trkpt lat="42.79189" lon="-8.8668017"><ele>70.39999999999999</ele><time>2026-04-17T07:09:36.853Z</time></trkpt><trkpt lat="42.79179" lon="-8.86688"><ele>69.8</ele><time>2026-04-17T07:09:37.853Z</time></trkpt><trkpt lat="42.7916983" lon="-8.866955"><ele>69.19999999999999</ele><time>2026-04-17T07:09:38.853Z</time></trkpt><trkpt lat="42.7915967" lon="-8.86701"><ele>68.6</ele><time>2026-04-17T07:09:39.853Z</time></trkpt><trkpt lat="42.7915033" lon="-8.8670717"><ele>68.0</ele><time>2026-04-17T07:09:40.853Z</time></trkpt><trkpt lat="42.7914033" lon="-8.867145"><ele>68.0</ele><time>2026-04-17T07:09:41.853Z</time></trkpt><trkpt lat="42.79129" lon="-8.8672167"><ele>68.0</ele><time>2026-04-17T07:09:42.853Z</time></trkpt><trkpt lat="42.791185" lon="-8.8672783"><ele>68.0</ele><time>2026-04-17T07:09:43.853Z</time></trkpt><trkpt lat="42.7910683" lon="-8.867335"><ele>68.0</ele><time>2026-04-17T07:09:44.853Z</time></trkpt><trkpt lat="42.790955" lon="-8.867405"><ele>67.75</ele><time>2026-04-17T07:09:45.853Z</time></trkpt><trkpt lat="42.7908567" lon="-8.867485"><ele>67.5</ele><time>2026-04-17T07:09:46.854Z</time></trkpt><trkpt lat="42.79076" lon="-8.86758"><ele>67.25</ele><time>2026-04-17T07:09:47.853Z</time></trkpt><trkpt lat="42.7906817" lon="-8.8676867"><ele>67.0</ele><time>2026-04-17T07:09:48.853Z</time></trkpt><trkpt lat="42.790585" lon="-8.8677917"><ele>77.0</ele><time>2026-04-17T07:09:49.853Z</time></trkpt><trkpt lat="42.7925167" lon="-8.8648533"><ele>77.0</ele><time>2026-04-17T07:09:18.854Z</time></trkpt><trkpt lat="42.7925533" lon="-8.8649883"><ele>77.0</ele><time>2026-04-17T07:09:19.854Z</time></trkpt><trkpt lat="42.7925917" lon="-8.8651283"><ele>77.0</ele><time>2026-04-17T07:09:20.854Z</time></trkpt><trkpt lat="42.7926267" lon="-8.865265"><ele>77.0</ele><time>2026-04-17T07:09:21.853Z</time></trkpt><trkpt lat="42.79266" lon="-8.8654067"><ele>77.0</ele><time>2026-04-17T07:09:22.854Z</time></trkpt><trkpt lat="42.7926833" lon="-8.86555"><ele>75.8</ele><time>2026-04-17T07:09:23.853Z</time></trkpt><trkpt lat="42.7926933" lon="-8.8656933"><ele>74.6</ele><time>2026-04-17T07:09:24.854Z</time></trkpt><trkpt lat="42.792695" lon="-8.8658333"><ele>73.39999999999999</ele><time>2026-04-17T07:09:25.854Z</time></trkpt><trkpt lat="42.7926917" lon="-8.8659733"><ele>72.2</ele><time>2026-04-17T07:09:26.853Z</time></trkpt><trkpt lat="42.79267" lon="-8.8661"><ele>71.0</ele><time>2026-04-17T07:09:27.854Z</time></trkpt><trkpt lat="42.7926317" lon="-8.8662167"><ele>71.0</ele><time>2026-04-17T07:09:28.853Z</time></trkpt><trkpt lat="42.7925733" lon="-8.8663133"><ele>71.0</ele><time>2026-04-17T07:09:29.853Z</time></trkpt><trkpt lat="42.7924983" lon="-8.8663967"><ele>71.0</ele><time>2026-04-17T07:09:30.854Z</time></trkpt><trkpt lat="42.7924" lon="-8.8664583"><ele>71.0</ele><time>2026-04-17T07:09:31.853Z</time></trkpt><trkpt lat="42.79229" lon="-8.866515"><ele>71.0</ele><time>2026-04-17T07:09:32.853Z</time></trkpt><trkpt lat="42.7921783" lon="-8.8665767"><ele>71.0</ele><time>2026-04-17T07:09:33.854Z</time></trkpt><trkpt lat="42.7920783" lon="-8.86665"><ele>71.0</ele><time>2026-04-17T07:09:34.853Z</time></trkpt><trkpt lat="42.7919883" lon="-8.86673"><ele>71.0</ele><time>2026-04-17T07:09:35.853Z</time></trkpt><trkpt lat="42.79189" lon="-8.8668017"><ele>71.0</ele><time>2026-04-17T07:09:36.853Z</time></trkpt><trkpt lat="42.79179" lon="-8.86688"><ele>71.0</ele><time>2026-04-17T07:09:37.853Z</time></trkpt><trkpt lat="42.7916983" lon="-8.866955"><ele>70.25</ele><time>2026-04-17T07:09:38.853Z</time></trkpt><trkpt lat="42.7915967" lon="-8.86701"><ele>69.5</ele><time>2026-04-17T07:09:39.853Z</time></trkpt><trkpt lat="42.7915033" lon="-8.8670717"><ele>68.75</ele><time>2026-04-17T07:09:40.853Z</time></trkpt><trkpt lat="42.7914033" lon="-8.867145"><ele>68.0</ele><time>2026-04-17T07:09:41.853Z</time></trkpt><trkpt lat="42.79129" lon="-8.8672167"><ele>68.0</ele><time>2026-04-17T07:09:42.853Z</time></trkpt><trkpt lat="42.791185" lon="-8.8672783"><ele>68.0</ele><time>2026-04-17T07:09:43.853Z</time></trkpt><trkpt lat="42.7910683" lon="-8.867335"><ele>68.0</ele><time>2026-04-17T07:09:44.853Z</time></trkpt><trkpt lat="42.790955" lon="-8.867405"><ele>68.0</ele><time>2026-04-17T07:09:45.853Z</time></trkpt><trkpt lat="42.7908567" lon="-8.867485"><ele>67.75</ele><time>2026-04-17T07:09:46.854Z</time></trkpt><trkpt lat="42.79076" lon="-8.86758"><ele>67.5</ele><time>2026-04-17T07:09:47.853Z</time></trkpt><trkpt lat="42.7906817" lon="-8.8676867"><ele>67.25</ele><time>2026-04-17T07:09:48.853Z</time></trkpt><trkpt lat="42.790585" lon="-8.8677917"><ele>67.0</ele><time>2026-04-17T07:09:49.853Z</time></trkpt><trkpt lat="42.7905133" lon="-8.8678967"><ele>67.0</ele><time>2026-04-17T07:09:50.854Z</time></trkpt><trkpt lat="42.7904617" lon="-8.8680217"><ele>67.0</ele><time>2026-04-17T07:09:51.853Z</time></trkpt><trkpt lat="42.79041" lon="-8.8681433"><ele>67.0</ele><time>2026-04-17T07:09:52.854Z</time></trkpt><trkpt lat="42.790365" lon="-8.868255"><ele>67.0</ele><time>2026-04-17T07:09:53.853Z</time></trkpt><trkpt lat="42.7903267" lon="-8.86836"><ele>67.0</ele><time>2026-04-17T07:09:54.853Z</time></trkpt><trkpt lat="42.7902867" lon="-8.8684617"><ele>67.4</ele><time>2026-04-17T07:09:55.854Z</time></trkpt><trkpt lat="42.7902467" lon="-8.8685733"><ele>67.80000000000001</ele><time>2026-04-17T07:09:56.854Z</time></trkpt><trkpt lat="42.7902033" lon="-8.8687017"><ele>68.2</ele><time>2026-04-17T07:09:57.853Z</time></trkpt><trkpt lat="42.7901567" lon="-8.868835"><ele>68.60000000000001</ele><time>2026-04-17T07:09:58.853Z</time></trkpt><trkpt lat="42.790105" lon="-8.8689717"><ele>69.0</ele><time>2026-04-17T07:09:59.853Z</time></trkpt><trkpt lat="42.790045" lon="-8.8691017"><ele>67.60000000000001</ele><time>2026-04-17T07:10:00.854Z</time></trkpt><trkpt lat="42.7899967" lon="-8.86923"><ele>66.2</ele><time>2026-04-17T07:10:01.853Z</time></trkpt><trkpt lat="42.78994" lon="-8.8693383"><ele>64.80000000000001</ele><time>2026-04-17T07:10:02.853Z</time></trkpt><trkpt lat="42.7898717" lon="-8.8694583"><ele>63.400000000000006</ele><time>2026-04-17T07:10:03.853Z</time></trkpt><trkpt lat="42.7898033" lon="-8.8695817"><ele>62.0</ele><time>2026-04-17T07:10:04.854Z</time></trkpt><trkpt lat="42.7897367" lon="-8.8697017"><ele>62.0</ele><time>2026-04-17T07:10:05.854Z</time></trkpt><trkpt lat="42.789665" lon="-8.8698283"><ele>62.0</ele><time>2026-04-17T07:10:06.853Z</time></trkpt><trkpt lat="42.7896033" lon="-8.86996"><ele>62.0</ele><time>2026-04-17T07:10:07.854Z</time></trkpt><trkpt lat="42.7895417" lon="-8.8700817"><ele>62.0</ele><time>2026-04-17T07:10:08.853Z</time></trkpt><trkpt lat="42.7894833" lon="-8.8701967"><ele>62.0</ele><time>2026-04-17T07:10:09.854Z</time></trkpt><trkpt lat="42.7894233" lon="-8.8703067"><ele>61.333333333333336</ele><time>2026-04-17T07:10:10.854Z</time></trkpt><trkpt lat="42.7893733" lon="-8.8704167"><ele>60.66666666666667</ele><time>2026-04-17T07:10:11.854Z</time></trkpt><trkpt lat="42.7893333" lon="-8.8705267"><ele>60.0</ele><time>2026-04-17T07:10:12.854Z</time></trkpt><trkpt lat="42.7893167" lon="-8.8706367"><ele>59.33333333333333</ele><time>2026-04-17T07:10:13.853Z</time></trkpt><trkpt lat="42.7893217" lon="-8.8707517"><ele>58.666666666666664</ele><time>2026-04-17T07:10:14.853Z</time></trkpt><trkpt lat="42.78935" lon="-8.8708667"><ele>58.0</ele><time>2026-04-17T07:10:15.853Z</time></trkpt><trkpt lat="42.7894083" lon="-8.8709833"><ele>56.0</ele><time>2026-04-17T07:10:16.853Z</time></trkpt><trkpt lat="42.7894733" lon="-8.8711"><ele>54.0</ele><time>2026-04-17T07:10:17.853Z</time></trkpt><trkpt lat="42.7895417" lon="-8.8711917"><ele>52.0</ele><time>2026-04-17T07:10:18.853Z</time></trkpt><trkpt lat="42.7896133" lon="-8.8712767"><ele>50.0</ele><time>2026-04-17T07:10:19.854Z</time></trkpt><trkpt lat="42.7896967" lon="-8.871365"><ele>48.0</ele><time>2026-04-17T07:10:20.853Z</time></trkpt><trkpt lat="42.78979" lon="-8.8714367"><ele>48.0</ele><time>2026-04-17T07:10:21.853Z</time></trkpt><trkpt lat="42.7898817" lon="-8.87151"><ele>48.0</ele><time>2026-04-17T07:10:22.854Z</time></trkpt><trkpt lat="42.7899767" lon="-8.8715783"><ele>48.0</ele><time>2026-04-17T07:10:23.853Z</time></trkpt><trkpt lat="42.7900733" lon="-8.8716467"><ele>48.0</ele><time>2026-04-17T07:10:24.853Z</time></trkpt><trkpt lat="42.7901667" lon="-8.8717217"><ele>48.0</ele><time>2026-04-17T07:10:25.854Z</time></trkpt><trkpt lat="42.7902583" lon="-8.8717983"><ele>47.0</ele><time>2026-04-17T07:10:26.853Z</time></trkpt><trkpt lat="42.7903433" lon="-8.8718617"><ele>46.0</ele><time>2026-04-17T07:10:27.854Z</time></trkpt><trkpt lat="42.79043" lon="-8.8719283"><ele>45.0</ele><time>2026-04-17T07:10:28.853Z</time></trkpt><trkpt lat="42.79051" lon="-8.871995"><ele>44.0</ele><time>2026-04-17T07:10:29.854Z</time></trkpt><trkpt lat="42.79059" lon="-8.8720617"><ele>43.0</ele><time>2026-04-17T07:10:30.853Z</time></trkpt><trkpt lat="42.790665" lon="-8.872125"><ele>43.0</ele><time>2026-04-17T07:10:31.853Z</time></trkpt><trkpt lat="42.7907333" lon="-8.8721883"><ele>43.0</ele><time>2026-04-17T07:10:32.853Z</time></trkpt><trkpt lat="42.7908033" lon="-8.8722433"><ele>43.0</ele><time>2026-04-17T07:10:33.853Z</time></trkpt><trkpt lat="42.7908717" lon="-8.8723017"><ele>43.0</ele><time>2026-04-17T07:10:34.854Z</time></trkpt><trkpt lat="42.7909367" lon="-8.8723667"><ele>43.0</ele><time>2026-04-17T07:10:35.854Z</time></trkpt><trkpt lat="42.790995" lon="-8.87243"><ele>43.0</ele><time>2026-04-17T07:10:36.853Z</time></trkpt><trkpt lat="42.7910367" lon="-8.8725233"><ele>43.0</ele><time>2026-04-17T07:10:37.854Z</time></trkpt><trkpt lat="42.7910567" lon="-8.8726283"><ele>43.0</ele><time>2026-04-17T07:10:38.854Z</time></trkpt><trkpt lat="42.791045" lon="-8.8727533"><ele>43.0</ele><time>2026-04-17T07:10:39.853Z</time></trkpt><trkpt lat="42.7909983" lon="-8.8728733"><ele>43.0</ele><time>2026-04-17T07:10:40.854Z</time></trkpt><trkpt lat="42.7909283" lon="-8.8729767"><ele>43.0</ele><time>2026-04-17T07:10:41.854Z</time></trkpt><trkpt lat="42.7908483" lon="-8.8730717"><ele>43.0</ele><time>2026-04-17T07:10:42.853Z</time></trkpt><trkpt lat="42.790765" lon="-8.8731567"><ele>43.0</ele><time>2026-04-17T07:10:43.853Z</time></trkpt><trkpt lat="42.7906733" lon="-8.8732333"><ele>43.0</ele><time>2026-04-17T07:10:44.853Z</time></trkpt><trkpt lat="42.79058" lon="-8.87331"><ele>43.0</ele><time>2026-04-17T07:10:45.853Z</time></trkpt><trkpt lat="42.790485" lon="-8.8733883"><ele>43.0</ele><time>2026-04-17T07:10:46.853Z</time></trkpt><trkpt lat="42.7903883" lon="-8.8734717"><ele>42.25</ele><time>2026-04-17T07:10:47.854Z</time></trkpt><trkpt lat="42.79029" lon="-8.87356"><ele>41.5</ele><time>2026-04-17T07:10:48.853Z</time></trkpt><trkpt lat="42.7901917" lon="-8.8736533"><ele>40.75</ele><time>2026-04-17T07:10:49.853Z</time></trkpt><trkpt lat="42.7900767" lon="-8.8737483"><ele>40.0</ele><time>2026-04-17T07:10:50.854Z</time></trkpt><trkpt lat="42.78996" lon="-8.873835"><ele>40.0</ele><time>2026-04-17T07:10:51.853Z</time></trkpt><trkpt lat="42.7898467" lon="-8.87392"><ele>40.0</ele><time>2026-04-17T07:10:52.854Z</time></trkpt><trkpt lat="42.789735" lon="-8.8740117"><ele>40.0</ele><time>2026-04-17T07:10:53.853Z</time></trkpt><trkpt lat="42.7896333" lon="-8.8741033"><ele>40.0</ele><time>2026-04-17T07:10:54.853Z</time></trkpt><trkpt lat="42.7895317" lon="-8.874205"><ele>40.6</ele><time>2026-04-17T07:10:55.854Z</time></trkpt><trkpt lat="42.7894467" lon="-8.8743133"><ele>41.2</ele><time>2026-04-17T07:10:56.854Z</time></trkpt><trkpt lat="42.7893867" lon="-8.8744067"><ele>41.8</ele><time>2026-04-17T07:10:57.854Z</time></trkpt><trkpt lat="42.7893167" lon="-8.8744867"><ele>42.4</ele><time>2026-04-17T07:10:58.854Z</time></trkpt><trkpt lat="42.7892617" lon="-8.8745633"><ele>43.0</ele><time>2026-04-17T07:10:59.854Z</time></trkpt><trkpt lat="42.7892" lon="-8.874665"><ele>40.25</ele><time>2026-04-17T07:11:00.854Z</time></trkpt><trkpt lat="42.7891367" lon="-8.8747867"><ele>37.5</ele><time>2026-04-17T07:11:01.853Z</time></trkpt><trkpt lat="42.7890633" lon="-8.8749217"><ele>34.75</ele><time>2026-04-17T07:11:02.853Z</time></trkpt><trkpt lat="42.7889833" lon="-8.875075"><ele>32.0</ele><time>2026-04-17T07:11:03.854Z</time></trkpt><trkpt lat="42.7888883" lon="-8.8752233"><ele>32.0</ele><time>2026-04-17T07:11:04.853Z</time></trkpt><trkpt lat="42.7888083" lon="-8.8753767"><ele>32.0</ele><time>2026-04-17T07:11:05.854Z</time></trkpt><trkpt lat="42.788735" lon="-8.8755167"><ele>32.0</ele><time>2026-04-17T07:11:06.854Z</time></trkpt><trkpt lat="42.78867" lon="-8.8756333"><ele>32.0</ele><time>2026-04-17T07:11:07.854Z</time></trkpt><trkpt lat="42.7886067" lon="-8.87573"><ele>32.0</ele><time>2026-04-17T07:11:08.854Z</time></trkpt><trkpt lat="42.7885417" lon="-8.8758417"><ele>32.0</ele><time>2026-04-17T07:11:09.853Z</time></trkpt><trkpt lat="42.7884717" lon="-8.875955"><ele>32.0</ele><time>2026-04-17T07:11:10.854Z</time></trkpt><trkpt lat="42.78841" lon="-8.876055"><ele>32.0</ele><time>2026-04-17T07:11:11.854Z</time></trkpt><trkpt lat="42.78835" lon="-8.8761483"><ele>32.0</ele><time>2026-04-17T07:11:12.853Z</time></trkpt><trkpt lat="42.78828" lon="-8.8762383"><ele>30.5</ele><time>2026-04-17T07:11:13.854Z</time></trkpt><trkpt lat="42.7882333" lon="-8.876335"><ele>29.0</ele><time>2026-04-17T07:11:14.853Z</time></trkpt><trkpt lat="42.7881767" lon="-8.8764367"><ele>27.5</ele><time>2026-04-17T07:11:15.854Z</time></trkpt><trkpt lat="42.788125" lon="-8.87653"><ele>26.0</ele><time>2026-04-17T07:11:16.854Z</time></trkpt><trkpt lat="42.790485" lon="-8.8733883"><ele>29.5</ele><time>2026-04-17T07:10:46.853Z</time></trkpt><trkpt lat="42.7903883" lon="-8.8734717"><ele>33.0</ele><time>2026-04-17T07:10:47.854Z</time></trkpt><trkpt lat="42.79029" lon="-8.87356"><ele>36.5</ele><time>2026-04-17T07:10:48.853Z</time></trkpt><trkpt lat="42.7901917" lon="-8.8736533"><ele>40.0</ele><time>2026-04-17T07:10:49.853Z</time></trkpt><trkpt lat="42.7900767" lon="-8.8737483"><ele>40.0</ele><time>2026-04-17T07:10:50.854Z</time></trkpt><trkpt lat="42.78996" lon="-8.873835"><ele>40.0</ele><time>2026-04-17T07:10:51.853Z</time></trkpt><trkpt lat="42.7898467" lon="-8.87392"><ele>40.0</ele><time>2026-04-17T07:10:52.854Z</time></trkpt><trkpt lat="42.789735" lon="-8.8740117"><ele>40.0</ele><time>2026-04-17T07:10:53.853Z</time></trkpt><trkpt lat="42.7896333" lon="-8.8741033"><ele>40.0</ele><time>2026-04-17T07:10:54.853Z</time></trkpt><trkpt lat="42.7895317" lon="-8.874205"><ele>40.0</ele><time>2026-04-17T07:10:55.854Z</time></trkpt><trkpt lat="42.7894467" lon="-8.8743133"><ele>40.0</ele><time>2026-04-17T07:10:56.854Z</time></trkpt><trkpt lat="42.7893867" lon="-8.8744067"><ele>40.0</ele><time>2026-04-17T07:10:57.854Z</time></trkpt><trkpt lat="42.7893167" lon="-8.8744867"><ele>40.0</ele><time>2026-04-17T07:10:58.854Z</time></trkpt><trkpt lat="42.7892617" lon="-8.8745633"><ele>38.0</ele><time>2026-04-17T07:10:59.854Z</time></trkpt><trkpt lat="42.7892" lon="-8.874665"><ele>36.0</ele><time>2026-04-17T07:11:00.854Z</time></trkpt><trkpt lat="42.7891367" lon="-8.8747867"><ele>34.0</ele><time>2026-04-17T07:11:01.853Z</time></trkpt><trkpt lat="42.7890633" lon="-8.8749217"><ele>32.0</ele><time>2026-04-17T07:11:02.853Z</time></trkpt><trkpt lat="42.7889833" lon="-8.875075"><ele>32.0</ele><time>2026-04-17T07:11:03.854Z</time></trkpt><trkpt lat="42.7888883" lon="-8.8752233"><ele>32.0</ele><time>2026-04-17T07:11:04.853Z</time></trkpt><trkpt lat="42.7888083" lon="-8.8753767"><ele>32.0</ele><time>2026-04-17T07:11:05.854Z</time></trkpt><trkpt lat="42.788735" lon="-8.8755167"><ele>32.0</ele><time>2026-04-17T07:11:06.854Z</time></trkpt><trkpt lat="42.78867" lon="-8.8756333"><ele>32.0</ele><time>2026-04-17T07:11:07.854Z</time></trkpt><trkpt lat="42.7886067" lon="-8.87573"><ele>32.0</ele><time>2026-04-17T07:11:08.854Z</time></trkpt><trkpt lat="42.7885417" lon="-8.8758417"><ele>32.0</ele><time>2026-04-17T07:11:09.853Z</time></trkpt><trkpt lat="42.7884717" lon="-8.875955"><ele>32.0</ele><time>2026-04-17T07:11:10.854Z</time></trkpt><trkpt lat="42.78841" lon="-8.876055"><ele>32.0</ele><time>2026-04-17T07:11:11.854Z</time></trkpt><trkpt lat="42.78835" lon="-8.8761483"><ele>30.999999999999996</ele><time>2026-04-17T07:11:12.853Z</time></trkpt><trkpt lat="42.78828" lon="-8.8762383"><ele>30.0</ele><time>2026-04-17T07:11:13.854Z</time></trkpt><trkpt lat="42.7882333" lon="-8.876335"><ele>29.0</ele><time>2026-04-17T07:11:14.853Z</time></trkpt><trkpt lat="42.7881767" lon="-8.8764367"><ele>28.0</ele><time>2026-04-17T07:11:15.854Z</time></trkpt><trkpt lat="42.788125" lon="-8.87653"><ele>26.999999999999996</ele><time>2026-04-17T07:11:16.854Z</time></trkpt><trkpt lat="42.7880733" lon="-8.8766183"><ele>26.0</ele><time>2026-04-17T07:11:17.853Z</time></trkpt><trkpt lat="42.7880233" lon="-8.8767133"><ele>25.8</ele><time>2026-04-17T07:11:18.853Z</time></trkpt><trkpt lat="42.7879883" lon="-8.8768117"><ele>25.6</ele><time>2026-04-17T07:11:19.853Z</time></trkpt><trkpt lat="42.787945" lon="-8.8769183"><ele>25.4</ele><time>2026-04-17T07:11:20.853Z</time></trkpt><trkpt lat="42.7879067" lon="-8.87703"><ele>25.2</ele><time>2026-04-17T07:11:21.854Z</time></trkpt><trkpt lat="42.7878767" lon="-8.87715"><ele>25.0</ele><time>2026-04-17T07:11:22.854Z</time></trkpt><trkpt lat="42.7878517" lon="-8.8772783"><ele>25.0</ele><time>2026-04-17T07:11:23.854Z</time></trkpt><trkpt lat="42.7878233" lon="-8.8774083"><ele>25.0</ele><time>2026-04-17T07:11:24.853Z</time></trkpt><trkpt lat="42.7877933" lon="-8.8775367"><ele>25.0</ele><time>2026-04-17T07:11:25.853Z</time></trkpt><trkpt lat="42.7877617" lon="-8.8776733"><ele>25.0</ele><time>2026-04-17T07:11:26.854Z</time></trkpt><trkpt lat="42.78773" lon="-8.8777933"><ele>25.0</ele><time>2026-04-17T07:11:27.854Z</time></trkpt><trkpt lat="42.7877083" lon="-8.8779217"><ele>24.4</ele><time>2026-04-17T07:11:28.854Z</time></trkpt><trkpt lat="42.7876867" lon="-8.878045"><ele>23.8</ele><time>2026-04-17T07:11:29.853Z</time></trkpt><trkpt lat="42.7876683" lon="-8.87817"><ele>23.200000000000003</ele><time>2026-04-17T07:11:30.853Z</time></trkpt><trkpt lat="42.787645" lon="-8.8782967"><ele>22.6</ele><time>2026-04-17T07:11:31.854Z</time></trkpt><trkpt lat="42.7876283" lon="-8.8784267"><ele>22.0</ele><time>2026-04-17T07:11:32.854Z</time></trkpt><trkpt lat="42.7876133" lon="-8.8785583"><ele>20.400000000000002</ele><time>2026-04-17T07:11:33.854Z</time></trkpt><trkpt lat="42.7876033" lon="-8.8786883"><ele>18.8</ele><time>2026-04-17T07:11:34.853Z</time></trkpt><trkpt lat="42.78759" lon="-8.8788167"><ele>17.2</ele><time>2026-04-17T07:11:35.853Z</time></trkpt><trkpt lat="42.787585" lon="-8.878945"><ele>15.6</ele><time>2026-04-17T07:11:36.853Z</time></trkpt><trkpt lat="42.78757" lon="-8.8790567"><ele>14.0</ele><time>2026-04-17T07:11:37.853Z</time></trkpt><trkpt lat="42.7875617" lon="-8.8791783"><ele>14.0</ele><time>2026-04-17T07:11:38.853Z</time></trkpt><trkpt lat="42.7875483" lon="-8.8793017"><ele>13.999999999999998</ele><time>2026-04-17T07:11:39.853Z</time></trkpt><trkpt lat="42.78753" lon="-8.8794367"><ele>13.999999999999998</ele><time>2026-04-17T07:11:40.853Z</time></trkpt><trkpt lat="42.7875133" lon="-8.87957"><ele>14.0</ele><time>2026-04-17T07:11:41.854Z</time></trkpt><trkpt lat="42.7875017" lon="-8.8796967"><ele>14.0</ele><time>2026-04-17T07:11:42.854Z</time></trkpt><trkpt lat="42.7874867" lon="-8.87981"><ele>14.0</ele><time>2026-04-17T07:11:43.853Z</time></trkpt><trkpt lat="42.7874767" lon="-8.8799183"><ele>14.0</ele><time>2026-04-17T07:11:44.854Z</time></trkpt><trkpt lat="42.7874717" lon="-8.880015"><ele>14.0</ele><time>2026-04-17T07:11:45.854Z</time></trkpt><trkpt lat="42.7874767" lon="-8.8801083"><ele>14.0</ele><time>2026-04-17T07:11:47.854Z</time></trkpt><trkpt lat="42.7874167" lon="-8.8802117"><ele>14.0</ele><time>2026-04-17T07:13:14.855Z</time></trkpt><trkpt lat="42.7873917" lon="-8.8803583"><ele>14.0</ele><time>2026-04-17T07:14:14.855Z</time></trkpt><trkpt lat="42.7873917" lon="-8.8803583"><ele>14.0</ele><time>2026-04-17T07:14:14.855Z</time></trkpt><trkpt lat="42.7874467" lon="-8.88048"><ele>14.666666666666668</ele><time>2026-04-17T07:15:01.855Z</time></trkpt><trkpt lat="42.7875167" lon="-8.8804817"><ele>15.333333333333334</ele><time>2026-04-17T07:15:46.855Z</time></trkpt><trkpt lat="42.7875817" lon="-8.8804117"><ele>16.0</ele><time>2026-04-17T07:15:49.856Z</time></trkpt><trkpt lat="42.78763" lon="-8.8803483"><ele>16.666666666666668</ele><time>2026-04-17T07:15:53.856Z</time></trkpt><trkpt lat="42.7876017" lon="-8.8802517"><ele>17.333333333333332</ele><time>2026-04-17T07:16:11.855Z</time></trkpt><trkpt lat="42.78754" lon="-8.8802867"><ele>18.0</ele><time>2026-04-17T07:16:14.855Z</time></trkpt><trkpt lat="42.7875167" lon="-8.8804817"><ele>18.0</ele><time>2026-04-17T07:15:46.855Z</time></trkpt><trkpt lat="42.7875817" lon="-8.8804117"><ele>18.0</ele><time>2026-04-17T07:15:49.856Z</time></trkpt><trkpt lat="42.78763" lon="-8.8803483"><ele>18.0</ele><time>2026-04-17T07:15:53.856Z</time></trkpt><trkpt lat="42.7876017" lon="-8.8802517"><ele>18.0</ele><time>2026-04-17T07:16:11.855Z</time></trkpt><trkpt lat="42.78754" lon="-8.8802867"><ele>18.0</ele><time>2026-04-17T07:16:14.855Z</time></trkpt><trkpt lat="42.7876317" lon="-8.8802667"><ele>18.0</ele><time>2026-04-17T07:16:25.856Z</time></trkpt><trkpt lat="42.7875433" lon="-8.88041"><ele>18.0</ele><time>2026-04-17T07:17:19.856Z</time></trkpt><trkpt lat="42.7875533" lon="-8.88054"><ele>18.0</ele><time>2026-04-17T07:18:07.856Z</time></trkpt><trkpt lat="42.7875233" lon="-8.8804267"><ele>18.0</ele><time>2026-04-17T07:20:48.856Z</time></trkpt><trkpt lat="42.7875233" lon="-8.8804267"><ele>18.0</ele><time>2026-04-17T07:20:48.856Z</time></trkpt><trkpt lat="42.787565" lon="-8.8806683"><ele>18.0</ele><time>2026-04-17T07:22:08.857Z</time></trkpt><trkpt lat="42.7875083" lon="-8.8807617"><ele>18.0</ele><time>2026-04-17T07:22:11.857Z</time></trkpt><trkpt lat="42.7874783" lon="-8.8808483"><ele>18.0</ele><time>2026-04-17T07:22:12.857Z</time></trkpt><trkpt lat="42.787435" lon="-8.8809533"><ele>18.0</ele><time>2026-04-17T07:22:13.856Z</time></trkpt><trkpt lat="42.7873883" lon="-8.8810783"><ele>18.0</ele><time>2026-04-17T07:22:14.857Z</time></trkpt><trkpt lat="42.78734" lon="-8.8812017"><ele>18.0</ele><time>2026-04-17T07:22:15.857Z</time></trkpt><trkpt lat="42.7872967" lon="-8.88132"><ele>18.2</ele><time>2026-04-17T07:22:16.857Z</time></trkpt><trkpt lat="42.78726" lon="-8.881435"><ele>18.4</ele><time>2026-04-17T07:22:17.857Z</time></trkpt><trkpt lat="42.78723" lon="-8.88155"><ele>18.599999999999998</ele><time>2026-04-17T07:22:18.856Z</time></trkpt><trkpt lat="42.7871967" lon="-8.88166"><ele>18.8</ele><time>2026-04-17T07:22:19.856Z</time></trkpt><trkpt lat="42.7871583" lon="-8.8817767"><ele>19.0</ele><time>2026-04-17T07:22:20.857Z</time></trkpt><trkpt lat="42.7871217" lon="-8.8819083"><ele>19.0</ele><time>2026-04-17T07:22:21.857Z</time></trkpt><trkpt lat="42.78709" lon="-8.8820317"><ele>19.0</ele><time>2026-04-17T07:22:22.856Z</time></trkpt><trkpt lat="42.7870617" lon="-8.8821583"><ele>19.0</ele><time>2026-04-17T07:22:23.857Z</time></trkpt><trkpt lat="42.7870333" lon="-8.8822783"><ele>19.0</ele><time>2026-04-17T07:22:24.857Z</time></trkpt><trkpt lat="42.787" lon="-8.8824017"><ele>19.0</ele><time>2026-04-17T07:22:25.856Z</time></trkpt><trkpt lat="42.7869533" lon="-8.8825017"><ele>18.666666666666664</ele><time>2026-04-17T07:22:26.857Z</time></trkpt><trkpt lat="42.78692" lon="-8.8825983"><ele>18.333333333333332</ele><time>2026-04-17T07:22:27.857Z</time></trkpt><trkpt lat="42.7868783" lon="-8.8826883"><ele>18.0</ele><time>2026-04-17T07:22:28.856Z</time></trkpt><trkpt lat="42.7868467" lon="-8.8827917"><ele>17.666666666666668</ele><time>2026-04-17T07:22:29.857Z</time></trkpt><trkpt lat="42.78681" lon="-8.8828883"><ele>17.333333333333336</ele><time>2026-04-17T07:22:30.857Z</time></trkpt><trkpt lat="42.7867717" lon="-8.8829867"><ele>17.0</ele><time>2026-04-17T07:22:31.857Z</time></trkpt><trkpt lat="42.78673" lon="-8.8831083"><ele>17.0</ele><time>2026-04-17T07:22:32.856Z</time></trkpt><trkpt lat="42.78669" lon="-8.88324"><ele>17.0</ele><time>2026-04-17T07:22:33.856Z</time></trkpt><trkpt lat="42.786635" lon="-8.8833767"><ele>17.0</ele><time>2026-04-17T07:22:34.856Z</time></trkpt><trkpt lat="42.7865767" lon="-8.883515"><ele>17.0</ele><time>2026-04-17T07:22:35.856Z</time></trkpt><trkpt lat="42.7865017" lon="-8.8836267"><ele>17.0</ele><time>2026-04-17T07:22:36.856Z</time></trkpt><trkpt lat="42.78642" lon="-8.88372"><ele>17.333333333333336</ele><time>2026-04-17T07:22:37.856Z</time></trkpt><trkpt lat="42.78633" lon="-8.8837917"><ele>17.666666666666668</ele><time>2026-04-17T07:22:38.857Z</time></trkpt><trkpt lat="42.7862367" lon="-8.8838633"><ele>18.0</ele><time>2026-04-17T07:22:39.857Z</time></trkpt><trkpt lat="42.7875083" lon="-8.8807617"><ele>18.0</ele><time>2026-04-17T07:22:11.857Z</time></trkpt><trkpt lat="42.7874783" lon="-8.8808483"><ele>18.0</ele><time>2026-04-17T07:22:12.857Z</time></trkpt><trkpt lat="42.787435" lon="-8.8809533"><ele>18.0</ele><time>2026-04-17T07:22:13.856Z</time></trkpt><trkpt lat="42.7873883" lon="-8.8810783"><ele>18.0</ele><time>2026-04-17T07:22:14.857Z</time></trkpt><trkpt lat="42.78734" lon="-8.8812017"><ele>18.0</ele><time>2026-04-17T07:22:15.857Z</time></trkpt><trkpt lat="42.7872967" lon="-8.88132"><ele>18.2</ele><time>2026-04-17T07:22:16.857Z</time></trkpt><trkpt lat="42.78726" lon="-8.881435"><ele>18.4</ele><time>2026-04-17T07:22:17.857Z</time></trkpt><trkpt lat="42.78723" lon="-8.88155"><ele>18.599999999999998</ele><time>2026-04-17T07:22:18.856Z</time></trkpt><trkpt lat="42.7871967" lon="-8.88166"><ele>18.8</ele><time>2026-04-17T07:22:19.856Z</time></trkpt><trkpt lat="42.7871583" lon="-8.8817767"><ele>19.0</ele><time>2026-04-17T07:22:20.857Z</time></trkpt><trkpt lat="42.7871217" lon="-8.8819083"><ele>19.0</ele><time>2026-04-17T07:22:21.857Z</time></trkpt><trkpt lat="42.78709" lon="-8.8820317"><ele>19.0</ele><time>2026-04-17T07:22:22.856Z</time></trkpt><trkpt lat="42.7870617" lon="-8.8821583"><ele>19.0</ele><time>2026-04-17T07:22:23.857Z</time></trkpt><trkpt lat="42.7870333" lon="-8.8822783"><ele>19.0</ele><time>2026-04-17T07:22:24.857Z</time></trkpt><trkpt lat="42.787" lon="-8.8824017"><ele>19.0</ele><time>2026-04-17T07:22:25.856Z</time></trkpt><trkpt lat="42.7869533" lon="-8.8825017"><ele>18.666666666666664</ele><time>2026-04-17T07:22:26.857Z</time></trkpt><trkpt lat="42.78692" lon="-8.8825983"><ele>18.333333333333332</ele><time>2026-04-17T07:22:27.857Z</time></trkpt><trkpt lat="42.7868783" lon="-8.8826883"><ele>18.0</ele><time>2026-04-17T07:22:28.856Z</time></trkpt><trkpt lat="42.7868467" lon="-8.8827917"><ele>17.666666666666668</ele><time>2026-04-17T07:22:29.857Z</time></trkpt><trkpt lat="42.78681" lon="-8.8828883"><ele>17.333333333333336</ele><time>2026-04-17T07:22:30.857Z</time></trkpt><trkpt lat="42.7867717" lon="-8.8829867"><ele>17.0</ele><time>2026-04-17T07:22:31.857Z</time></trkpt><trkpt lat="42.78673" lon="-8.8831083"><ele>17.0</ele><time>2026-04-17T07:22:32.856Z</time></trkpt><trkpt lat="42.78669" lon="-8.88324"><ele>17.0</ele><time>2026-04-17T07:22:33.856Z</time></trkpt><trkpt lat="42.786635" lon="-8.8833767"><ele>17.0</ele><time>2026-04-17T07:22:34.856Z</time></trkpt><trkpt lat="42.7865767" lon="-8.883515"><ele>17.0</ele><time>2026-04-17T07:22:35.856Z</time></trkpt><trkpt lat="42.7865017" lon="-8.8836267"><ele>17.0</ele><time>2026-04-17T07:22:36.856Z</time></trkpt><trkpt lat="42.78642" lon="-8.88372"><ele>17.2</ele><time>2026-04-17T07:22:37.856Z</time></trkpt><trkpt lat="42.78633" lon="-8.8837917"><ele>17.4</ele><time>2026-04-17T07:22:38.857Z</time></trkpt><trkpt lat="42.7862367" lon="-8.8838633"><ele>17.6</ele><time>2026-04-17T07:22:39.857Z</time></trkpt><trkpt lat="42.7861433" lon="-8.883935"><ele>17.8</ele><time>2026-04-17T07:22:40.857Z</time></trkpt><trkpt lat="42.78605" lon="-8.8840067"><ele>18.0</ele><time>2026-04-17T07:22:41.856Z</time></trkpt><trkpt lat="42.7859533" lon="-8.88408"><ele>18.0</ele><time>2026-04-17T07:22:42.856Z</time></trkpt><trkpt lat="42.7858617" lon="-8.884175"><ele>18.0</ele><time>2026-04-17T07:22:43.857Z</time></trkpt><trkpt lat="42.7857733" lon="-8.8842817"><ele>18.0</ele><time>2026-04-17T07:22:44.857Z</time></trkpt><trkpt lat="42.7856883" lon="-8.8843967"><ele>18.0</ele><time>2026-04-17T07:22:45.856Z</time></trkpt><trkpt lat="42.785615" lon="-8.8845117"><ele>19.4</ele><time>2026-04-17T07:22:46.857Z</time></trkpt><trkpt lat="42.785545" lon="-8.8846083"><ele>20.8</ele><time>2026-04-17T07:22:47.857Z</time></trkpt><trkpt lat="42.7854817" lon="-8.8847233"><ele>22.2</ele><time>2026-04-17T07:22:48.856Z</time></trkpt><trkpt lat="42.78542" lon="-8.8848517"><ele>23.6</ele><time>2026-04-17T07:22:49.857Z</time></trkpt><trkpt lat="42.785365" lon="-8.884965"><ele>25.0</ele><time>2026-04-17T07:22:50.856Z</time></trkpt><trkpt lat="42.785315" lon="-8.8850733"><ele>25.2</ele><time>2026-04-17T07:22:51.856Z</time></trkpt><trkpt lat="42.78527" lon="-8.8851883"><ele>25.4</ele><time>2026-04-17T07:22:52.856Z</time></trkpt><trkpt lat="42.7852317" lon="-8.8853067"><ele>25.6</ele><time>2026-04-17T07:22:53.857Z</time></trkpt><trkpt lat="42.785185" lon="-8.88544"><ele>25.8</ele><time>2026-04-17T07:22:54.856Z</time></trkpt><trkpt lat="42.785145" lon="-8.8855533"><ele>26.0</ele><time>2026-04-17T07:22:55.857Z</time></trkpt><trkpt lat="42.7851" lon="-8.8856767"><ele>25.0</ele><time>2026-04-17T07:22:56.857Z</time></trkpt><trkpt lat="42.7850467" lon="-8.8857933"><ele>24.0</ele><time>2026-04-17T07:22:57.856Z</time></trkpt><trkpt lat="42.785005" lon="-8.8859033"><ele>23.0</ele><time>2026-04-17T07:22:58.856Z</time></trkpt><trkpt lat="42.7849767" lon="-8.8860133"><ele>22.0</ele><time>2026-04-17T07:22:59.857Z</time></trkpt><trkpt lat="42.78495" lon="-8.8861283"><ele>21.0</ele><time>2026-04-17T07:23:00.856Z</time></trkpt><trkpt lat="42.7849167" lon="-8.8862333"><ele>20.5</ele><time>2026-04-17T07:23:01.857Z</time></trkpt><trkpt lat="42.7848967" lon="-8.8863317"><ele>20.0</ele><time>2026-04-17T07:23:02.857Z</time></trkpt><trkpt lat="42.7848717" lon="-8.8864117"><ele>19.5</ele><time>2026-04-17T07:23:03.857Z</time></trkpt><trkpt lat="42.7848067" lon="-8.8865667"><ele>19.0</ele><time>2026-04-17T07:23:05.858Z</time></trkpt><trkpt lat="42.78478" lon="-8.8866667"><ele>18.5</ele><time>2026-04-17T07:23:06.858Z</time></trkpt><trkpt lat="42.78475" lon="-8.8867667"><ele>18.0</ele><time>2026-04-17T07:23:07.857Z</time></trkpt><trkpt lat="42.78472" lon="-8.886885"><ele>17.833333333333332</ele><time>2026-04-17T07:23:08.858Z</time></trkpt><trkpt lat="42.7846917" lon="-8.887005"><ele>17.666666666666668</ele><time>2026-04-17T07:23:09.858Z</time></trkpt><trkpt lat="42.784665" lon="-8.887105"><ele>17.5</ele><time>2026-04-17T07:23:10.858Z</time></trkpt><trkpt lat="42.7846333" lon="-8.8871883"><ele>17.333333333333336</ele><time>2026-04-17T07:23:11.857Z</time></trkpt><trkpt lat="42.78459" lon="-8.8873033"><ele>17.166666666666668</ele><time>2026-04-17T07:23:13.858Z</time></trkpt><trkpt lat="42.7845583" lon="-8.8873883"><ele>17.0</ele><time>2026-04-17T07:23:15.857Z</time></trkpt><trkpt lat="42.7845583" lon="-8.88748"><ele>16.4</ele><time>2026-04-17T07:23:35.857Z</time></trkpt><trkpt lat="42.7845117" lon="-8.88766"><ele>15.799999999999999</ele><time>2026-04-17T07:23:37.857Z</time></trkpt><trkpt lat="42.7844933" lon="-8.8877917"><ele>15.2</ele><time>2026-04-17T07:23:38.857Z</time></trkpt><trkpt lat="42.7844867" lon="-8.8879217"><ele>14.6</ele><time>2026-04-17T07:23:39.857Z</time></trkpt><trkpt lat="42.7845017" lon="-8.8880767"><ele>14.0</ele><time>2026-04-17T07:23:40.858Z</time></trkpt><trkpt lat="42.7845167" lon="-8.8882033"><ele>14.000000000000002</ele><time>2026-04-17T07:23:41.858Z</time></trkpt><trkpt lat="42.78452" lon="-8.888345"><ele>14.0</ele><time>2026-04-17T07:23:42.857Z</time></trkpt><trkpt lat="42.784585" lon="-8.8884117"><ele>14.0</ele><time>2026-04-17T07:23:43.857Z</time></trkpt><trkpt lat="42.7846533" lon="-8.8884567"><ele>14.0</ele><time>2026-04-17T07:23:44.857Z</time></trkpt><trkpt lat="42.784735" lon="-8.8884683"><ele>14.000000000000002</ele><time>2026-04-17T07:23:45.858Z</time></trkpt><trkpt lat="42.784825" lon="-8.8884583"><ele>14.0</ele><time>2026-04-17T07:23:46.858Z</time></trkpt><trkpt lat="42.7849083" lon="-8.8884733"><ele>13.666666666666668</ele><time>2026-04-17T07:23:47.858Z</time></trkpt><trkpt lat="42.78499" lon="-8.8884717"><ele>13.333333333333334</ele><time>2026-04-17T07:23:48.858Z</time></trkpt><trkpt lat="42.7850617" lon="-8.88847"><ele>13.0</ele><time>2026-04-17T07:23:49.857Z</time></trkpt><trkpt lat="42.785125" lon="-8.888465"><ele>12.666666666666668</ele><time>2026-04-17T07:23:50.857Z</time></trkpt><trkpt lat="42.7851883" lon="-8.8884733"><ele>12.333333333333334</ele><time>2026-04-17T07:23:51.857Z</time></trkpt><trkpt lat="42.7852867" lon="-8.88847"><ele>12.0</ele><time>2026-04-17T07:23:53.858Z</time></trkpt><trkpt lat="42.7853633" lon="-8.8884433"><ele>11.833333333333334</ele><time>2026-04-17T07:23:56.857Z</time></trkpt><trkpt lat="42.78544" lon="-8.8884333"><ele>11.666666666666666</ele><time>2026-04-17T07:23:58.858Z</time></trkpt><trkpt lat="42.7855067" lon="-8.88843"><ele>11.5</ele><time>2026-04-17T07:23:59.858Z</time></trkpt><trkpt lat="42.7855967" lon="-8.8884283"><ele>11.333333333333332</ele><time>2026-04-17T07:24:00.857Z</time></trkpt><trkpt lat="42.7856983" lon="-8.8884317"><ele>11.166666666666666</ele><time>2026-04-17T07:24:01.858Z</time></trkpt><trkpt lat="42.78581" lon="-8.88844"><ele>11.0</ele><time>2026-04-17T07:24:02.858Z</time></trkpt><trkpt lat="42.785925" lon="-8.88845"><ele>11.25</ele><time>2026-04-17T07:24:03.857Z</time></trkpt><trkpt lat="42.786045" lon="-8.8884633"><ele>11.5</ele><time>2026-04-17T07:24:04.858Z</time></trkpt><trkpt lat="42.7861567" lon="-8.88847"><ele>11.75</ele><time>2026-04-17T07:24:05.858Z</time></trkpt><trkpt lat="42.786255" lon="-8.8884767"><ele>12.0</ele><time>2026-04-17T07:24:06.857Z</time></trkpt><trkpt lat="42.7845117" lon="-8.88766"><ele>12.399999999999999</ele><time>2026-04-17T07:23:37.857Z</time></trkpt><trkpt lat="42.7844933" lon="-8.8877917"><ele>12.799999999999999</ele><time>2026-04-17T07:23:38.857Z</time></trkpt><trkpt lat="42.7844867" lon="-8.8879217"><ele>13.2</ele><time>2026-04-17T07:23:39.857Z</time></trkpt><trkpt lat="42.7845017" lon="-8.8880767"><ele>13.6</ele><time>2026-04-17T07:23:40.858Z</time></trkpt><trkpt lat="42.7845167" lon="-8.8882033"><ele>14.0</ele><time>2026-04-17T07:23:41.858Z</time></trkpt><trkpt lat="42.78452" lon="-8.888345"><ele>14.000000000000002</ele><time>2026-04-17T07:23:42.857Z</time></trkpt><trkpt lat="42.784585" lon="-8.8884117"><ele>14.0</ele><time>2026-04-17T07:23:43.857Z</time></trkpt><trkpt lat="42.7846533" lon="-8.8884567"><ele>14.0</ele><time>2026-04-17T07:23:44.857Z</time></trkpt><trkpt lat="42.784735" lon="-8.8884683"><ele>14.0</ele><time>2026-04-17T07:23:45.858Z</time></trkpt><trkpt lat="42.784825" lon="-8.8884583"><ele>14.000000000000002</ele><time>2026-04-17T07:23:46.858Z</time></trkpt><trkpt lat="42.7849083" lon="-8.8884733"><ele>14.0</ele><time>2026-04-17T07:23:47.858Z</time></trkpt><trkpt lat="42.78499" lon="-8.8884717"><ele>13.666666666666668</ele><time>2026-04-17T07:23:48.858Z</time></trkpt><trkpt lat="42.7850617" lon="-8.88847"><ele>13.333333333333334</ele><time>2026-04-17T07:23:49.857Z</time></trkpt><trkpt lat="42.785125" lon="-8.888465"><ele>13.0</ele><time>2026-04-17T07:23:50.857Z</time></trkpt><trkpt lat="42.7851883" lon="-8.8884733"><ele>12.666666666666668</ele><time>2026-04-17T07:23:51.857Z</time></trkpt><trkpt lat="42.7852867" lon="-8.88847"><ele>12.333333333333334</ele><time>2026-04-17T07:23:53.858Z</time></trkpt><trkpt lat="42.7853633" lon="-8.8884433"><ele>12.0</ele><time>2026-04-17T07:23:56.857Z</time></trkpt><trkpt lat="42.78544" lon="-8.8884333"><ele>11.8</ele><time>2026-04-17T07:23:58.858Z</time></trkpt><trkpt lat="42.7855067" lon="-8.88843"><ele>11.6</ele><time>2026-04-17T07:23:59.858Z</time></trkpt><trkpt lat="42.7855967" lon="-8.8884283"><ele>11.4</ele><time>2026-04-17T07:24:00.857Z</time></trkpt><trkpt lat="42.7856983" lon="-8.8884317"><ele>11.200000000000001</ele><time>2026-04-17T07:24:01.858Z</time></trkpt><trkpt lat="42.78581" lon="-8.88844"><ele>11.0</ele><time>2026-04-17T07:24:02.858Z</time></trkpt><trkpt lat="42.785925" lon="-8.88845"><ele>11.200000000000001</ele><time>2026-04-17T07:24:03.857Z</time></trkpt><trkpt lat="42.786045" lon="-8.8884633"><ele>11.4</ele><time>2026-04-17T07:24:04.858Z</time></trkpt><trkpt lat="42.7861567" lon="-8.88847"><ele>11.6</ele><time>2026-04-17T07:24:05.858Z</time></trkpt><trkpt lat="42.786255" lon="-8.8884767"><ele>11.8</ele><time>2026-04-17T07:24:06.857Z</time></trkpt><trkpt lat="42.7863283" lon="-8.8884767"><ele>12.0</ele><time>2026-04-17T07:24:07.858Z</time></trkpt><trkpt lat="42.7864217" lon="-8.8884867"><ele>12.0</ele><time>2026-04-17T07:24:09.857Z</time></trkpt><trkpt lat="42.7864417" lon="-8.8885817"><ele>12.0</ele><time>2026-04-17T07:24:11.858Z</time></trkpt><trkpt lat="42.786445" lon="-8.8886733"><ele>12.0</ele><time>2026-04-17T07:24:12.858Z</time></trkpt><trkpt lat="42.7864233" lon="-8.8887967"><ele>12.0</ele><time>2026-04-17T07:24:13.857Z</time></trkpt><trkpt lat="42.78639" lon="-8.8889483"><ele>12.0</ele><time>2026-04-17T07:24:14.858Z</time></trkpt><trkpt lat="42.7863533" lon="-8.88912"><ele>11.25</ele><time>2026-04-17T07:24:15.857Z</time></trkpt><trkpt lat="42.7863267" lon="-8.88931"><ele>10.5</ele><time>2026-04-17T07:24:16.857Z</time></trkpt><trkpt lat="42.7862967" lon="-8.889485"><ele>9.75</ele><time>2026-04-17T07:24:17.857Z</time></trkpt><trkpt lat="42.7862717" lon="-8.8896567"><ele>9.0</ele><time>2026-04-17T07:24:18.858Z</time></trkpt><trkpt lat="42.7862483" lon="-8.88982"><ele>9.0</ele><time>2026-04-17T07:24:19.858Z</time></trkpt><trkpt lat="42.7862217" lon="-8.8900183"><ele>9.0</ele><time>2026-04-17T07:24:20.857Z</time></trkpt><trkpt lat="42.7861983" lon="-8.8901933"><ele>9.0</ele><time>2026-04-17T07:24:21.857Z</time></trkpt><trkpt lat="42.78618" lon="-8.890345"><ele>9.0</ele><time>2026-04-17T07:24:22.857Z</time></trkpt><trkpt lat="42.7861667" lon="-8.8904917"><ele>8.0</ele><time>2026-04-17T07:24:23.858Z</time></trkpt><trkpt lat="42.78615" lon="-8.8906267"><ele>7.0</ele><time>2026-04-17T07:24:24.858Z</time></trkpt><trkpt lat="42.78613" lon="-8.8907583"><ele>6.0</ele><time>2026-04-17T07:24:25.858Z</time></trkpt><trkpt lat="42.78611" lon="-8.8908817"><ele>5.0</ele><time>2026-04-17T07:24:26.857Z</time></trkpt><trkpt lat="42.7860683" lon="-8.8909867"><ele>4.0</ele><time>2026-04-17T07:24:27.857Z</time></trkpt><trkpt lat="42.78602" lon="-8.89108"><ele>3.6</ele><time>2026-04-17T07:24:28.858Z</time></trkpt><trkpt lat="42.7859533" lon="-8.891155"><ele>3.2</ele><time>2026-04-17T07:24:29.857Z</time></trkpt><trkpt lat="42.785875" lon="-8.8911933"><ele>2.8000000000000003</ele><time>2026-04-17T07:24:30.857Z</time></trkpt><trkpt lat="42.7857867" lon="-8.8911883"><ele>2.4000000000000004</ele><time>2026-04-17T07:24:31.858Z</time></trkpt><trkpt lat="42.785655" lon="-8.8911417"><ele>2.0</ele><time>2026-04-17T07:24:32.858Z</time></trkpt><trkpt lat="42.7855083" lon="-8.8910917"><ele>2.0</ele><time>2026-04-17T07:24:33.857Z</time></trkpt><trkpt lat="42.78538" lon="-8.89106"><ele>2.0</ele><time>2026-04-17T07:24:34.858Z</time></trkpt><trkpt lat="42.7852567" lon="-8.89104"><ele>2.0</ele><time>2026-04-17T07:24:35.858Z</time></trkpt><trkpt lat="42.78513" lon="-8.891025"><ele>2.0</ele><time>2026-04-17T07:24:36.858Z</time></trkpt><trkpt lat="42.7850083" lon="-8.8910083"><ele>2.25</ele><time>2026-04-17T07:24:37.858Z</time></trkpt><trkpt lat="42.7848967" lon="-8.8909833"><ele>2.5</ele><time>2026-04-17T07:24:38.858Z</time></trkpt><trkpt lat="42.7847783" lon="-8.8909567"><ele>2.75</ele><time>2026-04-17T07:24:39.858Z</time></trkpt><trkpt lat="42.78466" lon="-8.8909083"><ele>3.0</ele><time>2026-04-17T07:24:40.858Z</time></trkpt><trkpt lat="42.7845567" lon="-8.8908383"><ele>2.6</ele><time>2026-04-17T07:24:41.857Z</time></trkpt><trkpt lat="42.7844633" lon="-8.89075"><ele>2.1999999999999997</ele><time>2026-04-17T07:24:42.858Z</time></trkpt><trkpt lat="42.7843733" lon="-8.8906483"><ele>1.8</ele><time>2026-04-17T07:24:43.857Z</time></trkpt><trkpt lat="42.7842967" lon="-8.890555"><ele>1.4</ele><time>2026-04-17T07:24:44.858Z</time></trkpt><trkpt lat="42.7842183" lon="-8.8904633"><ele>1.0</ele><time>2026-04-17T07:24:45.857Z</time></trkpt><trkpt lat="42.7841333" lon="-8.8903767"><ele>1.0</ele><time>2026-04-17T07:24:46.857Z</time></trkpt><trkpt lat="42.7840483" lon="-8.8902867"><ele>1.0</ele><time>2026-04-17T07:24:47.857Z</time></trkpt><trkpt lat="42.7839683" lon="-8.8901917"><ele>1.0</ele><time>2026-04-17T07:24:48.858Z</time></trkpt><trkpt lat="42.7838867" lon="-8.8901"><ele>1.0</ele><time>2026-04-17T07:24:49.857Z</time></trkpt><trkpt lat="42.7838117" lon="-8.89003"><ele>1.0</ele><time>2026-04-17T07:24:50.857Z</time></trkpt><trkpt lat="42.7837533" lon="-8.8899617"><ele>1.2000000000000002</ele><time>2026-04-17T07:24:51.857Z</time></trkpt><trkpt lat="42.7837" lon="-8.88991"><ele>1.4000000000000001</ele><time>2026-04-17T07:24:52.858Z</time></trkpt><trkpt lat="42.7835867" lon="-8.88986"><ele>1.6</ele><time>2026-04-17T07:24:54.858Z</time></trkpt><trkpt lat="42.7834617" lon="-8.8898333"><ele>1.8</ele><time>2026-04-17T07:24:56.857Z</time></trkpt><trkpt lat="42.7833783" lon="-8.88983"><ele>2.0</ele><time>2026-04-17T07:24:57.858Z</time></trkpt><trkpt lat="42.7832783" lon="-8.8898383"><ele>2.0</ele><time>2026-04-17T07:24:58.857Z</time></trkpt><trkpt lat="42.78317" lon="-8.8898567"><ele>2.0</ele><time>2026-04-17T07:24:59.858Z</time></trkpt><trkpt lat="42.7830483" lon="-8.88987"><ele>2.0</ele><time>2026-04-17T07:25:00.858Z</time></trkpt><trkpt lat="42.7829267" lon="-8.8898933"><ele>2.0</ele><time>2026-04-17T07:25:01.858Z</time></trkpt><trkpt lat="42.7828033" lon="-8.8899117"><ele>2.0</ele><time>2026-04-17T07:25:02.857Z</time></trkpt><trkpt lat="42.7826783" lon="-8.88992"><ele>2.0</ele><time>2026-04-17T07:25:03.858Z</time></trkpt><trkpt lat="42.7825567" lon="-8.88993"><ele>2.0</ele><time>2026-04-17T07:25:04.858Z</time></trkpt><trkpt lat="42.782425" lon="-8.8899317"><ele>2.0</ele><time>2026-04-17T07:25:05.858Z</time></trkpt><trkpt lat="42.7822983" lon="-8.8899333"><ele>2.0</ele><time>2026-04-17T07:25:06.857Z</time></trkpt><trkpt lat="42.7821767" lon="-8.8899383"><ele>2.0</ele><time>2026-04-17T07:25:07.858Z</time></trkpt><trkpt lat="42.7820483" lon="-8.8899383"><ele>2.0</ele><time>2026-04-17T07:25:08.857Z</time></trkpt><trkpt lat="42.78192" lon="-8.8899417"><ele>2.0</ele><time>2026-04-17T07:25:09.858Z</time></trkpt><trkpt lat="42.781795" lon="-8.8899433"><ele>2.333333333333333</ele><time>2026-04-17T07:25:10.858Z</time></trkpt><trkpt lat="42.7816933" lon="-8.8899317"><ele>2.6666666666666665</ele><time>2026-04-17T07:25:11.857Z</time></trkpt><trkpt lat="42.7816067" lon="-8.8899033"><ele>3.0</ele><time>2026-04-17T07:25:12.858Z</time></trkpt><trkpt lat="42.781545" lon="-8.8898667"><ele>3.333333333333333</ele><time>2026-04-17T07:25:13.858Z</time></trkpt><trkpt lat="42.781485" lon="-8.889795"><ele>3.6666666666666665</ele><time>2026-04-17T07:25:15.857Z</time></trkpt><trkpt lat="42.7814167" lon="-8.8897283"><ele>4.0</ele><time>2026-04-17T07:25:18.858Z</time></trkpt><trkpt lat="42.7812817" lon="-8.88979"><ele>4.0</ele><time>2026-04-17T07:25:20.857Z</time></trkpt><trkpt lat="42.7811617" lon="-8.8898667"><ele>4.0</ele><time>2026-04-17T07:25:21.858Z</time></trkpt><trkpt lat="42.7809967" lon="-8.8899633"><ele>4.0</ele><time>2026-04-17T07:25:22.858Z</time></trkpt><trkpt lat="42.780815" lon="-8.890065"><ele>1.3333333333333333</ele><time>2026-04-17T07:25:23.858Z</time></trkpt><trkpt lat="42.78064" lon="-8.8901667"><ele>-1.3333333333333333</ele><time>2026-04-17T07:25:24.858Z</time></trkpt><trkpt lat="42.7805" lon="-8.8902467"><ele>-4.0</ele><time>2026-04-17T07:25:25.858Z</time></trkpt><trkpt lat="42.78037" lon="-8.890315"><ele>-4.0</ele><time>2026-04-17T07:25:26.857Z</time></trkpt><trkpt lat="42.7802317" lon="-8.8904017"><ele>-4.0</ele><time>2026-04-17T07:25:27.857Z</time></trkpt><trkpt lat="42.7800933" lon="-8.890485"><ele>-4.0</ele><time>2026-04-17T07:25:28.857Z</time></trkpt><trkpt lat="42.7799733" lon="-8.89055"><ele>-4.0</ele><time>2026-04-17T07:25:29.857Z</time></trkpt><trkpt lat="42.779845" lon="-8.8906067"><ele>-2.5</ele><time>2026-04-17T07:25:30.857Z</time></trkpt><trkpt lat="42.7797117" lon="-8.8906667"><ele>-1.0</ele><time>2026-04-17T07:25:31.858Z</time></trkpt><trkpt lat="42.77959" lon="-8.890765"><ele>0.5</ele><time>2026-04-17T07:25:32.858Z</time></trkpt><trkpt lat="42.7794733" lon="-8.890905"><ele>2.0</ele><time>2026-04-17T07:25:33.857Z</time></trkpt><trkpt lat="42.7826783" lon="-8.88992"><ele>2.0</ele><time>2026-04-17T07:25:03.858Z</time></trkpt><trkpt lat="42.7825567" lon="-8.88993"><ele>2.0</ele><time>2026-04-17T07:25:04.858Z</time></trkpt><trkpt lat="42.782425" lon="-8.8899317"><ele>2.0</ele><time>2026-04-17T07:25:05.858Z</time></trkpt><trkpt lat="42.7822983" lon="-8.8899333"><ele>2.0</ele><time>2026-04-17T07:25:06.857Z</time></trkpt><trkpt lat="42.7821767" lon="-8.8899383"><ele>2.0</ele><time>2026-04-17T07:25:07.858Z</time></trkpt><trkpt lat="42.7820483" lon="-8.8899383"><ele>2.0</ele><time>2026-04-17T07:25:08.857Z</time></trkpt><trkpt lat="42.78192" lon="-8.8899417"><ele>2.0</ele><time>2026-04-17T07:25:09.858Z</time></trkpt><trkpt lat="42.781795" lon="-8.8899433"><ele>2.0</ele><time>2026-04-17T07:25:10.858Z</time></trkpt><trkpt lat="42.7816933" lon="-8.8899317"><ele>2.4000000000000004</ele><time>2026-04-17T07:25:11.857Z</time></trkpt><trkpt lat="42.7816067" lon="-8.8899033"><ele>2.8000000000000003</ele><time>2026-04-17T07:25:12.858Z</time></trkpt><trkpt lat="42.781545" lon="-8.8898667"><ele>3.2</ele><time>2026-04-17T07:25:13.858Z</time></trkpt><trkpt lat="42.781485" lon="-8.889795"><ele>3.6</ele><time>2026-04-17T07:25:15.857Z</time></trkpt><trkpt lat="42.7814167" lon="-8.8897283"><ele>4.0</ele><time>2026-04-17T07:25:18.858Z</time></trkpt><trkpt lat="42.7812817" lon="-8.88979"><ele>4.0</ele><time>2026-04-17T07:25:20.857Z</time></trkpt><trkpt lat="42.7811617" lon="-8.8898667"><ele>4.0</ele><time>2026-04-17T07:25:21.858Z</time></trkpt><trkpt lat="42.7809967" lon="-8.8899633"><ele>4.0</ele><time>2026-04-17T07:25:22.858Z</time></trkpt><trkpt lat="42.780815" lon="-8.890065"><ele>1.3333333333333333</ele><time>2026-04-17T07:25:23.858Z</time></trkpt><trkpt lat="42.78064" lon="-8.8901667"><ele>-1.3333333333333333</ele><time>2026-04-17T07:25:24.858Z</time></trkpt><trkpt lat="42.7805" lon="-8.8902467"><ele>-4.0</ele><time>2026-04-17T07:25:25.858Z</time></trkpt><trkpt lat="42.78037" lon="-8.890315"><ele>-4.0</ele><time>2026-04-17T07:25:26.857Z</time></trkpt><trkpt lat="42.7802317" lon="-8.8904017"><ele>-4.0</ele><time>2026-04-17T07:25:27.857Z</time></trkpt><trkpt lat="42.7800933" lon="-8.890485"><ele>-4.0</ele><time>2026-04-17T07:25:28.857Z</time></trkpt><trkpt lat="42.7799733" lon="-8.89055"><ele>-4.0</ele><time>2026-04-17T07:25:29.857Z</time></trkpt><trkpt lat="42.779845" lon="-8.8906067"><ele>-3.0</ele><time>2026-04-17T07:25:30.857Z</time></trkpt><trkpt lat="42.7797117" lon="-8.8906667"><ele>-2.0</ele><time>2026-04-17T07:25:31.858Z</time></trkpt><trkpt lat="42.77959" lon="-8.890765"><ele>-1.0</ele><time>2026-04-17T07:25:32.858Z</time></trkpt><trkpt lat="42.7794733" lon="-8.890905"><ele>0.0</ele><time>2026-04-17T07:25:33.857Z</time></trkpt><trkpt lat="42.779375" lon="-8.891065"><ele>2.0</ele><time>2026-04-17T07:25:34.857Z</time></trkpt><trkpt lat="42.7793167" lon="-8.891245"><ele>4.0</ele><time>2026-04-17T07:25:35.858Z</time></trkpt><trkpt lat="42.77925" lon="-8.8913983"><ele>6.0</ele><time>2026-04-17T07:25:36.857Z</time></trkpt><trkpt lat="42.779185" lon="-8.891535"><ele>8.0</ele><time>2026-04-17T07:25:37.858Z</time></trkpt><trkpt lat="42.7791217" lon="-8.8917083"><ele>6.666666666666666</ele><time>2026-04-17T07:25:38.858Z</time></trkpt><trkpt lat="42.7790317" lon="-8.8918833"><ele>5.333333333333333</ele><time>2026-04-17T07:25:39.857Z</time></trkpt><trkpt lat="42.778915" lon="-8.8921067"><ele>4.0</ele><time>2026-04-17T07:25:40.858Z</time></trkpt><trkpt lat="42.778815" lon="-8.8923367"><ele>4.0</ele><time>2026-04-17T07:25:41.857Z</time></trkpt><trkpt lat="42.7787083" lon="-8.8925833"><ele>4.0</ele><time>2026-04-17T07:25:42.858Z</time></trkpt><trkpt lat="42.778595" lon="-8.8928383"><ele>4.0</ele><time>2026-04-17T07:25:43.857Z</time></trkpt><trkpt lat="42.7784617" lon="-8.8931017"><ele>5.666666666666666</ele><time>2026-04-17T07:25:44.858Z</time></trkpt><trkpt lat="42.7783317" lon="-8.8933633"><ele>7.333333333333333</ele><time>2026-04-17T07:25:45.857Z</time></trkpt><trkpt lat="42.778205" lon="-8.8936033"><ele>9.0</ele><time>2026-04-17T07:25:46.857Z</time></trkpt><trkpt lat="42.7780933" lon="-8.89383"><ele>9.0</ele><time>2026-04-17T07:25:47.857Z</time></trkpt><trkpt lat="42.7780067" lon="-8.8940333"><ele>9.0</ele><time>2026-04-17T07:25:48.857Z</time></trkpt><trkpt lat="42.77796" lon="-8.8941933"><ele>9.0</ele><time>2026-04-17T07:25:49.857Z</time></trkpt><trkpt lat="42.7779433" lon="-8.8943567"><ele>9.0</ele><time>2026-04-17T07:25:50.857Z</time></trkpt><trkpt lat="42.77796" lon="-8.89454"><ele>9.333333333333334</ele><time>2026-04-17T07:25:51.858Z</time></trkpt><trkpt lat="42.77802" lon="-8.894715"><ele>9.666666666666668</ele><time>2026-04-17T07:25:52.858Z</time></trkpt><trkpt lat="42.77811" lon="-8.8949067"><ele>10.0</ele><time>2026-04-17T07:25:53.858Z</time></trkpt><trkpt lat="42.7781967" lon="-8.8951167"><ele>10.666666666666668</ele><time>2026-04-17T07:25:54.858Z</time></trkpt><trkpt lat="42.7782967" lon="-8.8953517"><ele>11.333333333333334</ele><time>2026-04-17T07:25:55.858Z</time></trkpt><trkpt lat="42.7784" lon="-8.8956067"><ele>12.0</ele><time>2026-04-17T07:25:56.857Z</time></trkpt><trkpt lat="42.77849" lon="-8.8958617"><ele>12.5</ele><time>2026-04-17T07:25:57.857Z</time></trkpt><trkpt lat="42.77859" lon="-8.8961383"><ele>13.0</ele><time>2026-04-17T07:25:58.857Z</time></trkpt><trkpt lat="42.7787" lon="-8.89641"><ele>13.0</ele><time>2026-04-17T07:25:59.857Z</time></trkpt><trkpt lat="42.7788067" lon="-8.896685"><ele>13.0</ele><time>2026-04-17T07:26:00.858Z</time></trkpt><trkpt lat="42.778895" lon="-8.89696"><ele>13.0</ele><time>2026-04-17T07:26:01.857Z</time></trkpt><trkpt lat="42.7789917" lon="-8.8972417"><ele>13.333333333333332</ele><time>2026-04-17T07:26:02.857Z</time></trkpt><trkpt lat="42.7790883" lon="-8.8975217"><ele>13.666666666666668</ele><time>2026-04-17T07:26:03.858Z</time></trkpt><trkpt lat="42.7791833" lon="-8.897795"><ele>14.0</ele><time>2026-04-17T07:26:04.858Z</time></trkpt><trkpt lat="42.7792867" lon="-8.8980767"><ele>14.0</ele><time>2026-04-17T07:26:05.858Z</time></trkpt><trkpt lat="42.7793867" lon="-8.8983717"><ele>14.0</ele><time>2026-04-17T07:26:06.857Z</time></trkpt><trkpt lat="42.77949" lon="-8.8986667"><ele>14.0</ele><time>2026-04-17T07:26:07.857Z</time></trkpt><trkpt lat="42.7796" lon="-8.8989617"><ele>14.0</ele><time>2026-04-17T07:26:08.857Z</time></trkpt><trkpt lat="42.77971" lon="-8.8992583"><ele>15.0</ele><time>2026-04-17T07:26:09.857Z</time></trkpt><trkpt lat="42.7798333" lon="-8.89956"><ele>16.0</ele><time>2026-04-17T07:26:10.858Z</time></trkpt><trkpt lat="42.7799333" lon="-8.89986"><ele>17.0</ele><time>2026-04-17T07:26:11.857Z</time></trkpt><trkpt lat="42.7800417" lon="-8.90016"><ele>18.0</ele><time>2026-04-17T07:26:12.857Z</time></trkpt><trkpt lat="42.7801433" lon="-8.9004517"><ele>19.0</ele><time>2026-04-17T07:26:13.858Z</time></trkpt><trkpt lat="42.780245" lon="-8.9007417"><ele>20.0</ele><time>2026-04-17T07:26:14.857Z</time></trkpt><trkpt lat="42.7803467" lon="-8.9010083"><ele>20.0</ele><time>2026-04-17T07:26:15.858Z</time></trkpt><trkpt lat="42.7804483" lon="-8.9012867"><ele>20.0</ele><time>2026-04-17T07:26:16.857Z</time></trkpt><trkpt lat="42.7805383" lon="-8.9015767"><ele>22.333333333333336</ele><time>2026-04-17T07:26:17.857Z</time></trkpt><trkpt lat="42.780635" lon="-8.9018517"><ele>24.666666666666668</ele><time>2026-04-17T07:26:18.858Z</time></trkpt><trkpt lat="42.7807217" lon="-8.9021283"><ele>27.0</ele><time>2026-04-17T07:26:19.857Z</time></trkpt><trkpt lat="42.7808233" lon="-8.9023717"><ele>27.0</ele><time>2026-04-17T07:26:20.858Z</time></trkpt><trkpt lat="42.7809617" lon="-8.9025783"><ele>27.0</ele><time>2026-04-17T07:26:21.858Z</time></trkpt><trkpt lat="42.78112" lon="-8.9027783"><ele>27.0</ele><time>2026-04-17T07:26:22.857Z</time></trkpt><trkpt lat="42.7812817" lon="-8.90298"><ele>28.5</ele><time>2026-04-17T07:26:23.858Z</time></trkpt><trkpt lat="42.7814617" lon="-8.90318"><ele>30.0</ele><time>2026-04-17T07:26:24.857Z</time></trkpt><trkpt lat="42.7816383" lon="-8.9033633"><ele>32.333333333333336</ele><time>2026-04-17T07:26:25.857Z</time></trkpt><trkpt lat="42.7818233" lon="-8.9035267"><ele>34.66666666666667</ele><time>2026-04-17T07:26:26.857Z</time></trkpt><trkpt lat="42.7820017" lon="-8.9036683"><ele>37.0</ele><time>2026-04-17T07:26:27.857Z</time></trkpt><trkpt lat="42.782175" lon="-8.9037833"><ele>37.0</ele><time>2026-04-17T07:26:28.858Z</time></trkpt><trkpt lat="42.7823467" lon="-8.9039183"><ele>37.0</ele><time>2026-04-17T07:26:29.857Z</time></trkpt><trkpt lat="42.7825067" lon="-8.904045"><ele>37.0</ele><time>2026-04-17T07:26:30.858Z</time></trkpt><trkpt lat="42.7826483" lon="-8.9042017"><ele>37.0</ele><time>2026-04-17T07:26:31.857Z</time></trkpt><trkpt lat="42.7827733" lon="-8.9043533"><ele>37.0</ele><time>2026-04-17T07:26:32.858Z</time></trkpt><trkpt lat="42.78289" lon="-8.904555"><ele>37.0</ele><time>2026-04-17T07:26:33.857Z</time></trkpt><trkpt lat="42.7829817" lon="-8.9047817"><ele>37.0</ele><time>2026-04-17T07:26:34.857Z</time></trkpt><trkpt lat="42.7830767" lon="-8.905015"><ele>37.0</ele><time>2026-04-17T07:26:35.857Z</time></trkpt><trkpt lat="42.7831633" lon="-8.9052517"><ele>37.0</ele><time>2026-04-17T07:26:36.857Z</time></trkpt><trkpt lat="42.7832517" lon="-8.9054433"><ele>39.66666666666667</ele><time>2026-04-17T07:26:37.858Z</time></trkpt><trkpt lat="42.7833467" lon="-8.90564"><ele>42.333333333333336</ele><time>2026-04-17T07:26:38.858Z</time></trkpt><trkpt lat="42.7834567" lon="-8.9058283"><ele>45.0</ele><time>2026-04-17T07:26:39.857Z</time></trkpt><trkpt lat="42.7835783" lon="-8.9059833"><ele>48.0</ele><time>2026-04-17T07:26:40.857Z</time></trkpt><trkpt lat="42.7837117" lon="-8.9061183"><ele>51.0</ele><time>2026-04-17T07:26:41.858Z</time></trkpt><trkpt lat="42.7838617" lon="-8.9062283"><ele>54.0</ele><time>2026-04-17T07:26:42.858Z</time></trkpt><trkpt lat="42.7840317" lon="-8.9063333"><ele>54.0</ele><time>2026-04-17T07:26:43.858Z</time></trkpt><trkpt lat="42.78422" lon="-8.906435"><ele>54.0</ele><time>2026-04-17T07:26:44.859Z</time></trkpt><trkpt lat="42.7844033" lon="-8.9065283"><ele>54.0</ele><time>2026-04-17T07:26:45.859Z</time></trkpt><trkpt lat="42.7845517" lon="-8.9065767"><ele>54.75</ele><time>2026-04-17T07:26:46.858Z</time></trkpt><trkpt lat="42.7847017" lon="-8.9066283"><ele>55.5</ele><time>2026-04-17T07:26:47.858Z</time></trkpt><trkpt lat="42.7848133" lon="-8.9066617"><ele>56.25</ele><time>2026-04-17T07:26:48.858Z</time></trkpt><trkpt lat="42.7849117" lon="-8.9067317"><ele>57.0</ele><time>2026-04-17T07:26:49.859Z</time></trkpt><trkpt lat="42.784995" lon="-8.9068267"><ele>57.0</ele><time>2026-04-17T07:26:50.859Z</time></trkpt><trkpt lat="42.7850717" lon="-8.9069417"><ele>57.0</ele><time>2026-04-17T07:26:51.858Z</time></trkpt><trkpt lat="42.7851633" lon="-8.9070683"><ele>57.0</ele><time>2026-04-17T07:26:52.859Z</time></trkpt><trkpt lat="42.7852833" lon="-8.9072033"><ele>57.0</ele><time>2026-04-17T07:26:53.859Z</time></trkpt><trkpt lat="42.7854133" lon="-8.9073333"><ele>58.0</ele><time>2026-04-17T07:26:54.859Z</time></trkpt><trkpt lat="42.785545" lon="-8.90748"><ele>59.0</ele><time>2026-04-17T07:26:55.859Z</time></trkpt><trkpt lat="42.7856733" lon="-8.907635"><ele>60.0</ele><time>2026-04-17T07:26:56.858Z</time></trkpt><trkpt lat="42.7858133" lon="-8.90782"><ele>60.0</ele><time>2026-04-17T07:26:57.859Z</time></trkpt><trkpt lat="42.7859517" lon="-8.9080167"><ele>60.0</ele><time>2026-04-17T07:26:58.858Z</time></trkpt><trkpt lat="42.7860833" lon="-8.9082467"><ele>60.0</ele><time>2026-04-17T07:26:59.859Z</time></trkpt><trkpt lat="42.7861967" lon="-8.9084933"><ele>54.333333333333336</ele><time>2026-04-17T07:27:00.858Z</time></trkpt><trkpt lat="42.786265" lon="-8.9087367"><ele>48.66666666666667</ele><time>2026-04-17T07:27:01.858Z</time></trkpt><trkpt lat="42.7863467" lon="-8.90901"><ele>43.0</ele><time>2026-04-17T07:27:02.858Z</time></trkpt><trkpt lat="42.7864167" lon="-8.909285"><ele>43.0</ele><time>2026-04-17T07:27:03.858Z</time></trkpt><trkpt lat="42.7864567" lon="-8.90954"><ele>43.0</ele><time>2026-04-17T07:27:04.859Z</time></trkpt><trkpt lat="42.78648" lon="-8.909785"><ele>43.0</ele><time>2026-04-17T07:27:05.859Z</time></trkpt><trkpt lat="42.7864833" lon="-8.9100117"><ele>42.0</ele><time>2026-04-17T07:27:06.858Z</time></trkpt><trkpt lat="42.7864683" lon="-8.910265"><ele>41.0</ele><time>2026-04-17T07:27:07.858Z</time></trkpt><trkpt lat="42.7864433" lon="-8.9105267"><ele>40.0</ele><time>2026-04-17T07:27:08.859Z</time></trkpt><trkpt lat="42.7864183" lon="-8.910795"><ele>41.333333333333336</ele><time>2026-04-17T07:27:09.858Z</time></trkpt><trkpt lat="42.786385" lon="-8.9110933"><ele>42.666666666666664</ele><time>2026-04-17T07:27:10.859Z</time></trkpt><trkpt lat="42.786355" lon="-8.9113817"><ele>44.0</ele><time>2026-04-17T07:27:11.859Z</time></trkpt><trkpt lat="42.7863033" lon="-8.911655"><ele>44.666666666666664</ele><time>2026-04-17T07:27:12.858Z</time></trkpt><trkpt lat="42.786225" lon="-8.9119417"><ele>45.333333333333336</ele><time>2026-04-17T07:27:13.858Z</time></trkpt><trkpt lat="42.78614" lon="-8.91221"><ele>46.0</ele><time>2026-04-17T07:27:14.858Z</time></trkpt><trkpt lat="42.78605" lon="-8.9124533"><ele>48.333333333333336</ele><time>2026-04-17T07:27:15.858Z</time></trkpt><trkpt lat="42.7859667" lon="-8.9127117"><ele>50.66666666666667</ele><time>2026-04-17T07:27:16.858Z</time></trkpt><trkpt lat="42.78587" lon="-8.9129817"><ele>53.0</ele><time>2026-04-17T07:27:17.858Z</time></trkpt><trkpt lat="42.7857817" lon="-8.9132517"><ele>52.0</ele><time>2026-04-17T07:27:18.858Z</time></trkpt><trkpt lat="42.7856917" lon="-8.9135183"><ele>51.0</ele><time>2026-04-17T07:27:19.859Z</time></trkpt><trkpt lat="42.7856283" lon="-8.9137783"><ele>50.0</ele><time>2026-04-17T07:27:20.859Z</time></trkpt><trkpt lat="42.78555" lon="-8.914035"><ele>48.0</ele><time>2026-04-17T07:27:21.859Z</time></trkpt><trkpt lat="42.7854683" lon="-8.9142967"><ele>46.0</ele><time>2026-04-17T07:27:22.859Z</time></trkpt><trkpt lat="42.7853883" lon="-8.9145717"><ele>44.0</ele><time>2026-04-17T07:27:23.858Z</time></trkpt><trkpt lat="42.7853217" lon="-8.9148383"><ele>44.0</ele><time>2026-04-17T07:27:24.858Z</time></trkpt><trkpt lat="42.785265" lon="-8.915105"><ele>44.0</ele><time>2026-04-17T07:27:25.858Z</time></trkpt><trkpt lat="42.785215" lon="-8.91537"><ele>44.0</ele><time>2026-04-17T07:27:26.859Z</time></trkpt><trkpt lat="42.785165" lon="-8.9156383"><ele>52.0</ele><time>2026-04-17T07:27:27.858Z</time></trkpt><trkpt lat="42.785125" lon="-8.9158833"><ele>60.0</ele><time>2026-04-17T07:27:28.858Z</time></trkpt><trkpt lat="42.785075" lon="-8.9161417"><ele>68.0</ele><time>2026-04-17T07:27:29.859Z</time></trkpt><trkpt lat="42.7850367" lon="-8.9164217"><ele>66.5</ele><time>2026-04-17T07:27:30.858Z</time></trkpt><trkpt lat="42.7850033" lon="-8.91672"><ele>65.0</ele><time>2026-04-17T07:27:31.859Z</time></trkpt><trkpt lat="42.784985" lon="-8.91703"><ele>65.0</ele><time>2026-04-17T07:27:32.858Z</time></trkpt><trkpt lat="42.7849633" lon="-8.9173567"><ele>65.0</ele><time>2026-04-17T07:27:33.858Z</time></trkpt><trkpt lat="42.784935" lon="-8.917685"><ele>61.5</ele><time>2026-04-17T07:27:34.858Z</time></trkpt><trkpt lat="42.7849117" lon="-8.918025"><ele>58.0</ele><time>2026-04-17T07:27:35.858Z</time></trkpt><trkpt lat="42.7848833" lon="-8.9183717"><ele>57.5</ele><time>2026-04-17T07:27:36.858Z</time></trkpt><trkpt lat="42.78486" lon="-8.9187283"><ele>57.0</ele><time>2026-04-17T07:27:37.859Z</time></trkpt><trkpt lat="42.7848267" lon="-8.9190883"><ele>53.5</ele><time>2026-04-17T07:27:38.859Z</time></trkpt><trkpt lat="42.7847933" lon="-8.9194633"><ele>50.0</ele><time>2026-04-17T07:27:39.858Z</time></trkpt><trkpt lat="42.7847483" lon="-8.9198017"><ele>46.66666666666667</ele><time>2026-04-17T07:27:40.858Z</time></trkpt><trkpt lat="42.7847133" lon="-8.9201167"><ele>43.333333333333336</ele><time>2026-04-17T07:27:41.858Z</time></trkpt><trkpt lat="42.7846733" lon="-8.920395"><ele>40.0</ele><time>2026-04-17T07:27:42.859Z</time></trkpt><trkpt lat="42.7846267" lon="-8.920645"><ele>40.0</ele><time>2026-04-17T07:27:43.858Z</time></trkpt><trkpt lat="42.7845767" lon="-8.9208683"><ele>40.0</ele><time>2026-04-17T07:27:44.858Z</time></trkpt><trkpt lat="42.784535" lon="-8.9210733"><ele>40.0</ele><time>2026-04-17T07:27:45.859Z</time></trkpt><trkpt lat="42.7844967" lon="-8.9212667"><ele>38.2</ele><time>2026-04-17T07:27:46.858Z</time></trkpt><trkpt lat="42.7844883" lon="-8.9214417"><ele>36.4</ele><time>2026-04-17T07:27:47.859Z</time></trkpt><trkpt lat="42.7845" lon="-8.9216"><ele>34.6</ele><time>2026-04-17T07:27:48.858Z</time></trkpt><trkpt lat="42.7845033" lon="-8.9217367"><ele>32.8</ele><time>2026-04-17T07:27:49.858Z</time></trkpt><trkpt lat="42.78448" lon="-8.92186"><ele>31.0</ele><time>2026-04-17T07:27:50.859Z</time></trkpt><trkpt lat="42.7844233" lon="-8.9219917"><ele>32.5</ele><time>2026-04-17T07:27:51.859Z</time></trkpt><trkpt lat="42.784335" lon="-8.9220767"><ele>34.0</ele><time>2026-04-17T07:27:52.858Z</time></trkpt><trkpt lat="42.7842083" lon="-8.9221567"><ele>35.5</ele><time>2026-04-17T07:27:53.858Z</time></trkpt><trkpt lat="42.784075" lon="-8.9222767"><ele>37.0</ele><time>2026-04-17T07:27:54.858Z</time></trkpt><trkpt lat="42.7839417" lon="-8.92245"><ele>34.333333333333336</ele><time>2026-04-17T07:27:55.858Z</time></trkpt><trkpt lat="42.7838233" lon="-8.922665"><ele>31.666666666666664</ele><time>2026-04-17T07:27:56.858Z</time></trkpt><trkpt lat="42.7837033" lon="-8.9229067"><ele>29.0</ele><time>2026-04-17T07:27:57.859Z</time></trkpt><trkpt lat="42.7835783" lon="-8.9231717"><ele>30.5</ele><time>2026-04-17T07:27:58.858Z</time></trkpt><trkpt lat="42.7834483" lon="-8.9234583"><ele>32.0</ele><time>2026-04-17T07:27:59.858Z</time></trkpt><trkpt lat="42.78331" lon="-8.92374"><ele>32.0</ele><time>2026-04-17T07:28:00.858Z</time></trkpt><trkpt lat="42.7831633" lon="-8.92402"><ele>32.0</ele><time>2026-04-17T07:28:01.858Z</time></trkpt><trkpt lat="42.7830167" lon="-8.9243283"><ele>26.5</ele><time>2026-04-17T07:28:02.858Z</time></trkpt><trkpt lat="42.78288" lon="-8.9246383"><ele>21.0</ele><time>2026-04-17T07:28:03.858Z</time></trkpt><trkpt lat="42.782725" lon="-8.92494"><ele>21.0</ele><time>2026-04-17T07:28:04.858Z</time></trkpt><trkpt lat="42.7825733" lon="-8.9252467"><ele>21.0</ele><time>2026-04-17T07:28:05.858Z</time></trkpt><trkpt lat="42.7824233" lon="-8.9255567"><ele>21.0</ele><time>2026-04-17T07:28:06.859Z</time></trkpt><trkpt lat="42.78228" lon="-8.9258667"><ele>21.0</ele><time>2026-04-17T07:28:07.859Z</time></trkpt><trkpt lat="42.7821433" lon="-8.9261633"><ele>22.0</ele><time>2026-04-17T07:28:08.858Z</time></trkpt><trkpt lat="42.7819917" lon="-8.92644"><ele>23.0</ele><time>2026-04-17T07:28:09.859Z</time></trkpt><trkpt lat="42.78184" lon="-8.9266867"><ele>20.0</ele><time>2026-04-17T07:28:10.859Z</time></trkpt><trkpt lat="42.781665" lon="-8.9268983"><ele>17.0</ele><time>2026-04-17T07:28:11.859Z</time></trkpt><trkpt lat="42.7814833" lon="-8.9270717"><ele>17.0</ele><time>2026-04-17T07:28:12.859Z</time></trkpt><trkpt lat="42.7812833" lon="-8.927225"><ele>17.0</ele><time>2026-04-17T07:28:13.859Z</time></trkpt><trkpt lat="42.78107" lon="-8.927365"><ele>17.5</ele><time>2026-04-17T07:28:14.858Z</time></trkpt><trkpt lat="42.7808433" lon="-8.927495"><ele>18.0</ele><time>2026-04-17T07:28:15.858Z</time></trkpt><trkpt lat="42.7806183" lon="-8.9276467"><ele>14.0</ele><time>2026-04-17T07:28:16.858Z</time></trkpt><trkpt lat="42.78039" lon="-8.92782"><ele>10.0</ele><time>2026-04-17T07:28:17.859Z</time></trkpt><trkpt lat="42.7801983" lon="-8.9280417"><ele>12.0</ele><time>2026-04-17T07:28:18.859Z</time></trkpt><trkpt lat="42.7800267" lon="-8.9283067"><ele>14.0</ele><time>2026-04-17T07:28:19.859Z</time></trkpt><trkpt lat="42.7798767" lon="-8.9285833"><ele>14.0</ele><time>2026-04-17T07:28:20.858Z</time></trkpt><trkpt lat="42.7797483" lon="-8.9288383"><ele>14.0</ele><time>2026-04-17T07:28:21.858Z</time></trkpt><trkpt lat="42.779625" lon="-8.929075"><ele>14.0</ele><time>2026-04-17T07:28:22.859Z</time></trkpt><trkpt lat="42.779505" lon="-8.9292883"><ele>14.333333333333334</ele><time>2026-04-17T07:28:23.858Z</time></trkpt><trkpt lat="42.77938" lon="-8.9294567"><ele>14.666666666666668</ele><time>2026-04-17T07:28:24.859Z</time></trkpt><trkpt lat="42.7792367" lon="-8.9295767"><ele>15.0</ele><time>2026-04-17T07:28:25.859Z</time></trkpt><trkpt lat="42.7790767" lon="-8.9296267"><ele>15.0</ele><time>2026-04-17T07:28:26.859Z</time></trkpt><trkpt lat="42.778905" lon="-8.92965"><ele>15.0</ele><time>2026-04-17T07:28:27.859Z</time></trkpt><trkpt lat="42.77872" lon="-8.9296333"><ele>15.0</ele><time>2026-04-17T07:28:28.858Z</time></trkpt><trkpt lat="42.7785183" lon="-8.92961"><ele>14.666666666666668</ele><time>2026-04-17T07:28:29.859Z</time></trkpt><trkpt lat="42.7783083" lon="-8.9295917"><ele>14.333333333333334</ele><time>2026-04-17T07:28:30.859Z</time></trkpt><trkpt lat="42.7780833" lon="-8.9295667"><ele>14.0</ele><time>2026-04-17T07:28:31.858Z</time></trkpt><trkpt lat="42.777855" lon="-8.9295517"><ele>13.5</ele><time>2026-04-17T07:28:32.859Z</time></trkpt><trkpt lat="42.777625" lon="-8.9295267"><ele>13.0</ele><time>2026-04-17T07:28:33.858Z</time></trkpt><trkpt lat="42.777375" lon="-8.929485"><ele>13.0</ele><time>2026-04-17T07:28:34.858Z</time></trkpt><trkpt lat="42.7771433" lon="-8.9294617"><ele>13.0</ele><time>2026-04-17T07:28:35.858Z</time></trkpt><trkpt lat="42.7769183" lon="-8.92944"><ele>13.666666666666666</ele><time>2026-04-17T07:28:36.859Z</time></trkpt><trkpt lat="42.77672" lon="-8.92943"><ele>14.333333333333332</ele><time>2026-04-17T07:28:37.858Z</time></trkpt><trkpt lat="42.77653" lon="-8.9294267"><ele>15.0</ele><time>2026-04-17T07:28:38.858Z</time></trkpt><trkpt lat="42.776355" lon="-8.92945"><ele>15.0</ele><time>2026-04-17T07:28:39.859Z</time></trkpt><trkpt lat="42.7761717" lon="-8.9294783"><ele>15.0</ele><time>2026-04-17T07:28:40.858Z</time></trkpt><trkpt lat="42.7759867" lon="-8.9295183"><ele>15.0</ele><time>2026-04-17T07:28:41.859Z</time></trkpt><trkpt lat="42.7758067" lon="-8.9295567"><ele>15.666666666666668</ele><time>2026-04-17T07:28:42.859Z</time></trkpt><trkpt lat="42.775615" lon="-8.9296"><ele>16.333333333333336</ele><time>2026-04-17T07:28:43.859Z</time></trkpt><trkpt lat="42.77541" lon="-8.9296433"><ele>17.0</ele><time>2026-04-17T07:28:44.859Z</time></trkpt><trkpt lat="42.775205" lon="-8.9296917"><ele>17.666666666666668</ele><time>2026-04-17T07:28:45.858Z</time></trkpt><trkpt lat="42.7750033" lon="-8.9297417"><ele>18.333333333333332</ele><time>2026-04-17T07:28:46.859Z</time></trkpt><trkpt lat="42.7748033" lon="-8.9298033"><ele>19.0</ele><time>2026-04-17T07:28:47.859Z</time></trkpt><trkpt lat="42.7746117" lon="-8.9299017"><ele>19.0</ele><time>2026-04-17T07:28:48.859Z</time></trkpt><trkpt lat="42.7744317" lon="-8.930045"><ele>19.0</ele><time>2026-04-17T07:28:49.859Z</time></trkpt><trkpt lat="42.7742833" lon="-8.9302067"><ele>19.0</ele><time>2026-04-17T07:28:50.858Z</time></trkpt><trkpt lat="42.774165" lon="-8.9303767"><ele>19.666666666666664</ele><time>2026-04-17T07:28:51.859Z</time></trkpt><trkpt lat="42.7740833" lon="-8.9305817"><ele>20.333333333333332</ele><time>2026-04-17T07:28:52.859Z</time></trkpt><trkpt lat="42.774025" lon="-8.9308367"><ele>21.0</ele><time>2026-04-17T07:28:53.859Z</time></trkpt><trkpt lat="42.7739833" lon="-8.9311067"><ele>21.0</ele><time>2026-04-17T07:28:54.859Z</time></trkpt><trkpt lat="42.773965" lon="-8.931385"><ele>21.0</ele><time>2026-04-17T07:28:55.859Z</time></trkpt><trkpt lat="42.774" lon="-8.9316717"><ele>21.0</ele><time>2026-04-17T07:28:56.858Z</time></trkpt><trkpt lat="42.7740817" lon="-8.9319683"><ele>25.0</ele><time>2026-04-17T07:28:57.859Z</time></trkpt><trkpt lat="42.77419" lon="-8.9322683"><ele>29.0</ele><time>2026-04-17T07:28:58.858Z</time></trkpt><trkpt lat="42.7742983" lon="-8.9325733"><ele>25.333333333333332</ele><time>2026-04-17T07:28:59.858Z</time></trkpt><trkpt lat="42.7743767" lon="-8.9328517"><ele>21.666666666666664</ele><time>2026-04-17T07:29:00.859Z</time></trkpt><trkpt lat="42.774425" lon="-8.9331283"><ele>18.0</ele><time>2026-04-17T07:29:01.858Z</time></trkpt><trkpt lat="42.774435" lon="-8.9334183"><ele>18.0</ele><time>2026-04-17T07:29:02.858Z</time></trkpt><trkpt lat="42.774415" lon="-8.933725"><ele>18.0</ele><time>2026-04-17T07:29:03.858Z</time></trkpt><trkpt lat="42.7743667" lon="-8.9340217"><ele>18.0</ele><time>2026-04-17T07:29:04.858Z</time></trkpt><trkpt lat="42.7742883" lon="-8.9343067"><ele>25.0</ele><time>2026-04-17T07:29:05.858Z</time></trkpt><trkpt lat="42.774185" lon="-8.9345783"><ele>32.0</ele><time>2026-04-17T07:29:06.859Z</time></trkpt><trkpt lat="42.7740483" lon="-8.9348267"><ele>28.5</ele><time>2026-04-17T07:29:07.859Z</time></trkpt><trkpt lat="42.7738917" lon="-8.9350583"><ele>25.0</ele><time>2026-04-17T07:29:08.859Z</time></trkpt><trkpt lat="42.7737233" lon="-8.935285"><ele>25.0</ele><time>2026-04-17T07:29:09.858Z</time></trkpt><trkpt lat="42.7735467" lon="-8.9355133"><ele>25.0</ele><time>2026-04-17T07:29:10.859Z</time></trkpt><trkpt lat="42.7733633" lon="-8.9357383"><ele>28.0</ele><time>2026-04-17T07:29:11.858Z</time></trkpt><trkpt lat="42.7732" lon="-8.9359517"><ele>31.0</ele><time>2026-04-17T07:29:12.858Z</time></trkpt><trkpt lat="42.773005" lon="-8.936135"><ele>31.0</ele><time>2026-04-17T07:29:13.859Z</time></trkpt><trkpt lat="42.7728067" lon="-8.9362883"><ele>31.0</ele><time>2026-04-17T07:29:14.858Z</time></trkpt><trkpt lat="42.77262" lon="-8.9364067"><ele>31.0</ele><time>2026-04-17T07:29:15.859Z</time></trkpt><trkpt lat="42.7724433" lon="-8.9364967"><ele>33.0</ele><time>2026-04-17T07:29:16.858Z</time></trkpt><trkpt lat="42.77226" lon="-8.9365567"><ele>35.0</ele><time>2026-04-17T07:29:17.858Z</time></trkpt><trkpt lat="42.772065" lon="-8.9366083"><ele>37.0</ele><time>2026-04-17T07:29:18.858Z</time></trkpt><trkpt lat="42.7718517" lon="-8.9366483"><ele>39.0</ele><time>2026-04-17T07:29:19.859Z</time></trkpt><trkpt lat="42.7716267" lon="-8.9366717"><ele>41.0</ele><time>2026-04-17T07:29:20.859Z</time></trkpt><trkpt lat="42.77139" lon="-8.9366783"><ele>41.0</ele><time>2026-04-17T07:29:21.859Z</time></trkpt><trkpt lat="42.7711517" lon="-8.9366767"><ele>41.0</ele><time>2026-04-17T07:29:22.858Z</time></trkpt><trkpt lat="42.7708933" lon="-8.9366733"><ele>38.5</ele><time>2026-04-17T07:29:23.859Z</time></trkpt><trkpt lat="42.77064" lon="-8.9366733"><ele>36.0</ele><time>2026-04-17T07:29:24.858Z</time></trkpt><trkpt lat="42.7703867" lon="-8.93668"><ele>33.5</ele><time>2026-04-17T07:29:25.859Z</time></trkpt><trkpt lat="42.770135" lon="-8.9366867"><ele>31.0</ele><time>2026-04-17T07:29:26.858Z</time></trkpt><trkpt lat="42.76989" lon="-8.9367017"><ele>31.0</ele><time>2026-04-17T07:29:27.858Z</time></trkpt><trkpt lat="42.7696217" lon="-8.936715"><ele>31.0</ele><time>2026-04-17T07:29:28.859Z</time></trkpt><trkpt lat="42.7693467" lon="-8.9367267"><ele>25.5</ele><time>2026-04-17T07:29:29.858Z</time></trkpt><trkpt lat="42.7690783" lon="-8.9367383"><ele>20.0</ele><time>2026-04-17T07:29:30.858Z</time></trkpt><trkpt lat="42.76883" lon="-8.936755"><ele>20.0</ele><time>2026-04-17T07:29:31.859Z</time></trkpt><trkpt lat="42.7686067" lon="-8.9367817"><ele>20.0</ele><time>2026-04-17T07:29:32.858Z</time></trkpt><trkpt lat="42.7683983" lon="-8.936815"><ele>20.0</ele><time>2026-04-17T07:29:33.858Z</time></trkpt><trkpt lat="42.768215" lon="-8.9368867"><ele>17.666666666666668</ele><time>2026-04-17T07:29:34.859Z</time></trkpt><trkpt lat="42.7680233" lon="-8.9370017"><ele>15.333333333333332</ele><time>2026-04-17T07:29:35.858Z</time></trkpt><trkpt lat="42.7678533" lon="-8.9371967"><ele>13.0</ele><time>2026-04-17T07:29:36.859Z</time></trkpt><trkpt lat="42.7677033" lon="-8.9374283"><ele>11.666666666666666</ele><time>2026-04-17T07:29:37.859Z</time></trkpt><trkpt lat="42.7675717" lon="-8.9376467"><ele>10.333333333333332</ele><time>2026-04-17T07:29:38.859Z</time></trkpt><trkpt lat="42.7674533" lon="-8.9378"><ele>9.0</ele><time>2026-04-17T07:29:39.858Z</time></trkpt><trkpt lat="42.7673167" lon="-8.937925"><ele>9.0</ele><time>2026-04-17T07:29:40.858Z</time></trkpt><trkpt lat="42.76714" lon="-8.937995"><ele>9.0</ele><time>2026-04-17T07:29:41.858Z</time></trkpt><trkpt lat="42.76695" lon="-8.938005"><ele>9.0</ele><time>2026-04-17T07:29:42.858Z</time></trkpt><trkpt lat="42.766765" lon="-8.93798"><ele>9.0</ele><time>2026-04-17T07:29:43.858Z</time></trkpt><trkpt lat="42.76658" lon="-8.9379117"><ele>9.0</ele><time>2026-04-17T07:29:44.859Z</time></trkpt><trkpt lat="42.7664117" lon="-8.9378167"><ele>9.0</ele><time>2026-04-17T07:29:45.858Z</time></trkpt><trkpt lat="42.7662667" lon="-8.9377483"><ele>9.0</ele><time>2026-04-17T07:29:46.858Z</time></trkpt><trkpt lat="42.7661383" lon="-8.9377267"><ele>9.0</ele><time>2026-04-17T07:29:47.859Z</time></trkpt><trkpt lat="42.7659933" lon="-8.9377967"><ele>9.0</ele><time>2026-04-17T07:29:48.859Z</time></trkpt><trkpt lat="42.765835" lon="-8.9379167"><ele>9.0</ele><time>2026-04-17T07:29:49.858Z</time></trkpt><trkpt lat="42.7656567" lon="-8.9380483"><ele>9.0</ele><time>2026-04-17T07:29:50.858Z</time></trkpt><trkpt lat="42.7655" lon="-8.9381833"><ele>9.0</ele><time>2026-04-17T07:29:51.859Z</time></trkpt><trkpt lat="42.7653717" lon="-8.9383283"><ele>9.0</ele><time>2026-04-17T07:29:52.859Z</time></trkpt><trkpt lat="42.765285" lon="-8.9384967"><ele>9.0</ele><time>2026-04-17T07:29:53.859Z</time></trkpt><trkpt lat="42.765245" lon="-8.93868"><ele>9.0</ele><time>2026-04-17T07:29:54.858Z</time></trkpt><trkpt lat="42.76525" lon="-8.938875"><ele>9.0</ele><time>2026-04-17T07:29:55.858Z</time></trkpt><trkpt lat="42.7652967" lon="-8.939075"><ele>9.333333333333334</ele><time>2026-04-17T07:29:56.859Z</time></trkpt><trkpt lat="42.7653983" lon="-8.9392683"><ele>9.666666666666668</ele><time>2026-04-17T07:29:57.858Z</time></trkpt><trkpt lat="42.765495" lon="-8.9394717"><ele>10.0</ele><time>2026-04-17T07:29:58.858Z</time></trkpt><trkpt lat="42.7655917" lon="-8.9396883"><ele>10.0</ele><time>2026-04-17T07:29:59.859Z</time></trkpt><trkpt lat="42.76568" lon="-8.9399333"><ele>10.0</ele><time>2026-04-17T07:30:00.858Z</time></trkpt><trkpt lat="42.7657333" lon="-8.9401617"><ele>10.0</ele><time>2026-04-17T07:30:01.859Z</time></trkpt><trkpt lat="42.76574" lon="-8.9403733"><ele>10.5</ele><time>2026-04-17T07:30:02.859Z</time></trkpt><trkpt lat="42.7657033" lon="-8.94051"><ele>11.0</ele><time>2026-04-17T07:30:03.858Z</time></trkpt><trkpt lat="42.76563" lon="-8.9406467"><ele>11.5</ele><time>2026-04-17T07:30:04.859Z</time></trkpt><trkpt lat="42.76553" lon="-8.9407633"><ele>12.0</ele><time>2026-04-17T07:30:05.859Z</time></trkpt><trkpt lat="42.7654133" lon="-8.94083"><ele>12.0</ele><time>2026-04-17T07:30:06.859Z</time></trkpt><trkpt lat="42.7652733" lon="-8.9408717"><ele>12.0</ele><time>2026-04-17T07:30:07.858Z</time></trkpt><trkpt lat="42.7651433" lon="-8.9409"><ele>12.0</ele><time>2026-04-17T07:30:08.859Z</time></trkpt><trkpt lat="42.7650633" lon="-8.9408383"><ele>12.0</ele><time>2026-04-17T07:30:09.859Z</time></trkpt><trkpt lat="42.7650067" lon="-8.9407717"><ele>12.0</ele><time>2026-04-17T07:30:10.858Z</time></trkpt><trkpt lat="42.764985" lon="-8.94069"><ele>12.75</ele><time>2026-04-17T07:30:11.859Z</time></trkpt><trkpt lat="42.764995" lon="-8.9405833"><ele>13.5</ele><time>2026-04-17T07:30:12.858Z</time></trkpt><trkpt lat="42.7650417" lon="-8.94046"><ele>14.25</ele><time>2026-04-17T07:30:13.858Z</time></trkpt><trkpt lat="42.7651" lon="-8.9403083"><ele>15.0</ele><time>2026-04-17T07:30:14.858Z</time></trkpt><trkpt lat="42.7651517" lon="-8.9401183"><ele>17.333333333333332</ele><time>2026-04-17T07:30:15.858Z</time></trkpt><trkpt lat="42.7651583" lon="-8.939925"><ele>19.666666666666664</ele><time>2026-04-17T07:30:16.858Z</time></trkpt><trkpt lat="42.7651083" lon="-8.93972"><ele>22.0</ele><time>2026-04-17T07:30:17.858Z</time></trkpt><trkpt lat="42.7650183" lon="-8.9394933"><ele>22.0</ele><time>2026-04-17T07:30:18.858Z</time></trkpt><trkpt lat="42.7649017" lon="-8.9392683"><ele>22.0</ele><time>2026-04-17T07:30:19.858Z</time></trkpt><trkpt lat="42.7647717" lon="-8.939075"><ele>22.0</ele><time>2026-04-17T07:30:20.859Z</time></trkpt><trkpt lat="42.7646283" lon="-8.9388917"><ele>22.333333333333332</ele><time>2026-04-17T07:30:21.859Z</time></trkpt><trkpt lat="42.76449" lon="-8.9387283"><ele>22.666666666666668</ele><time>2026-04-17T07:30:22.859Z</time></trkpt><trkpt lat="42.764345" lon="-8.9385633"><ele>23.0</ele><time>2026-04-17T07:30:23.859Z</time></trkpt><trkpt lat="42.764195" lon="-8.9383983"><ele>29.0</ele><time>2026-04-17T07:30:24.858Z</time></trkpt><trkpt lat="42.7640433" lon="-8.93824"><ele>35.0</ele><time>2026-04-17T07:30:25.859Z</time></trkpt><trkpt lat="42.7639267" lon="-8.9380667"><ele>41.0</ele><time>2026-04-17T07:30:26.858Z</time></trkpt><trkpt lat="42.7638317" lon="-8.9378867"><ele>41.0</ele><time>2026-04-17T07:30:27.859Z</time></trkpt><trkpt lat="42.7637733" lon="-8.9376983"><ele>41.0</ele><time>2026-04-17T07:30:28.858Z</time></trkpt><trkpt lat="42.7637467" lon="-8.937475"><ele>41.0</ele><time>2026-04-17T07:30:29.858Z</time></trkpt><trkpt lat="42.7637533" lon="-8.9372233"><ele>41.0</ele><time>2026-04-17T07:30:30.86Z</time></trkpt><trkpt lat="42.7637733" lon="-8.93698"><ele>41.0</ele><time>2026-04-17T07:30:31.86Z</time></trkpt><trkpt lat="42.76381" lon="-8.9367333"><ele>41.0</ele><time>2026-04-17T07:30:32.86Z</time></trkpt><trkpt lat="42.7638233" lon="-8.936495"><ele>40.25</ele><time>2026-04-17T07:30:33.859Z</time></trkpt><trkpt lat="42.7638183" lon="-8.9362883"><ele>39.5</ele><time>2026-04-17T07:30:34.859Z</time></trkpt><trkpt lat="42.7637717" lon="-8.936125"><ele>38.75</ele><time>2026-04-17T07:30:35.859Z</time></trkpt><trkpt lat="42.7636983" lon="-8.9359867"><ele>38.0</ele><time>2026-04-17T07:30:36.86Z</time></trkpt><trkpt lat="42.7635933" lon="-8.9358667"><ele>42.666666666666664</ele><time>2026-04-17T07:30:37.86Z</time></trkpt><trkpt lat="42.7634683" lon="-8.9357333"><ele>47.33333333333333</ele><time>2026-04-17T07:30:38.86Z</time></trkpt><trkpt lat="42.763325" lon="-8.9355983"><ele>52.0</ele><time>2026-04-17T07:30:39.86Z</time></trkpt><trkpt lat="42.7631717" lon="-8.9354783"><ele>52.0</ele><time>2026-04-17T07:30:40.859Z</time></trkpt><trkpt lat="42.7630017" lon="-8.9353683"><ele>52.0</ele><time>2026-04-17T07:30:41.86Z</time></trkpt><trkpt lat="42.7628183" lon="-8.9352883"><ele>52.0</ele><time>2026-04-17T07:30:42.86Z</time></trkpt><trkpt lat="42.7626217" lon="-8.9352"><ele>56.5</ele><time>2026-04-17T07:30:43.859Z</time></trkpt><trkpt lat="42.7624067" lon="-8.93511"><ele>61.0</ele><time>2026-04-17T07:30:44.859Z</time></trkpt><trkpt lat="42.7621917" lon="-8.9350183"><ele>61.0</ele><time>2026-04-17T07:30:45.859Z</time></trkpt><trkpt lat="42.762015" lon="-8.9349483"><ele>61.0</ele><time>2026-04-17T07:30:46.86Z</time></trkpt><trkpt lat="42.7618517" lon="-8.9348817"><ele>61.0</ele><time>2026-04-17T07:30:47.86Z</time></trkpt><trkpt lat="42.7617033" lon="-8.9348267"><ele>64.75</ele><time>2026-04-17T07:30:48.859Z</time></trkpt><trkpt lat="42.7615617" lon="-8.9347867"><ele>68.5</ele><time>2026-04-17T07:30:49.86Z</time></trkpt><trkpt lat="42.7614833" lon="-8.9347317"><ele>72.25</ele><time>2026-04-17T07:30:50.86Z</time></trkpt><trkpt lat="42.7613817" lon="-8.934615"><ele>76.0</ele><time>2026-04-17T07:30:51.859Z</time></trkpt><trkpt lat="42.7613183" lon="-8.9344467"><ele>76.0</ele><time>2026-04-17T07:30:52.859Z</time></trkpt><trkpt lat="42.7612633" lon="-8.9342617"><ele>76.0</ele><time>2026-04-17T07:30:53.859Z</time></trkpt><trkpt lat="42.7612267" lon="-8.9340883"><ele>76.0</ele><time>2026-04-17T07:30:54.859Z</time></trkpt><trkpt lat="42.7611967" lon="-8.9339367"><ele>76.0</ele><time>2026-04-17T07:30:55.86Z</time></trkpt><trkpt lat="42.7611833" lon="-8.9337733"><ele>74.5</ele><time>2026-04-17T07:30:56.859Z</time></trkpt><trkpt lat="42.7611633" lon="-8.933605"><ele>73.0</ele><time>2026-04-17T07:30:57.859Z</time></trkpt><trkpt lat="42.761145" lon="-8.93342"><ele>71.5</ele><time>2026-04-17T07:30:58.86Z</time></trkpt><trkpt lat="42.7611233" lon="-8.93322"><ele>70.0</ele><time>2026-04-17T07:30:59.859Z</time></trkpt><trkpt lat="42.7611267" lon="-8.9329867"><ele>70.0</ele><time>2026-04-17T07:31:00.859Z</time></trkpt><trkpt lat="42.761135" lon="-8.9327367"><ele>70.0</ele><time>2026-04-17T07:31:01.86Z</time></trkpt><trkpt lat="42.761145" lon="-8.9324817"><ele>70.0</ele><time>2026-04-17T07:31:02.86Z</time></trkpt><trkpt lat="42.7611583" lon="-8.9322483"><ele>71.0</ele><time>2026-04-17T07:31:03.86Z</time></trkpt><trkpt lat="42.76118" lon="-8.932035"><ele>72.0</ele><time>2026-04-17T07:31:04.859Z</time></trkpt><trkpt lat="42.7612" lon="-8.93184"><ele>73.0</ele><time>2026-04-17T07:31:05.859Z</time></trkpt><trkpt lat="42.7612017" lon="-8.9316867"><ele>74.0</ele><time>2026-04-17T07:31:06.86Z</time></trkpt><trkpt lat="42.7612" lon="-8.9315767"><ele>74.8</ele><time>2026-04-17T07:31:07.859Z</time></trkpt><trkpt lat="42.7611917" lon="-8.9314317"><ele>75.60000000000001</ele><time>2026-04-17T07:31:09.86Z</time></trkpt><trkpt lat="42.7611767" lon="-8.9313167"><ele>76.4</ele><time>2026-04-17T07:31:12.859Z</time></trkpt><trkpt lat="42.761135" lon="-8.93124"><ele>77.2</ele><time>2026-04-17T07:31:14.859Z</time></trkpt><trkpt lat="42.7612267" lon="-8.931225"><ele>78.0</ele><time>2026-04-17T07:31:31.86Z</time></trkpt><trkpt lat="42.761155" lon="-8.931115"><ele>78.0</ele><time>2026-04-17T07:32:05.859Z</time></trkpt><trkpt lat="42.761075" lon="-8.931"><ele>78.0</ele><time>2026-04-17T07:32:07.86Z</time></trkpt><trkpt lat="42.7610083" lon="-8.9309417"><ele>78.0</ele><time>2026-04-17T07:32:10.859Z</time></trkpt><trkpt lat="42.76095" lon="-8.9308817"><ele>78.0</ele><time>2026-04-17T07:32:28.86Z</time></trkpt><trkpt lat="42.760845" lon="-8.930785"><ele>78.0</ele><time>2026-04-17T07:32:30.86Z</time></trkpt><trkpt lat="42.76077" lon="-8.9307283"><ele>82.5</ele><time>2026-04-17T07:32:31.86Z</time></trkpt><trkpt lat="42.76069" lon="-8.9306617"><ele>87.0</ele><time>2026-04-17T07:32:32.859Z</time></trkpt><trkpt lat="42.7606133" lon="-8.9305933"><ele>91.5</ele><time>2026-04-17T07:32:33.859Z</time></trkpt><trkpt lat="42.760535" lon="-8.9305467"><ele>96.0</ele><time>2026-04-17T07:32:34.859Z</time></trkpt><trkpt lat="42.7604683" lon="-8.9304733"><ele>100.5</ele><time>2026-04-17T07:32:36.86Z</time></trkpt><trkpt lat="42.7604117" lon="-8.9304183"><ele>105.0</ele><time>2026-04-17T07:32:39.86Z</time></trkpt><trkpt lat="42.76035" lon="-8.9302833"><ele>105.0</ele><time>2026-04-17T07:34:40.861Z</time></trkpt><trkpt lat="42.760305" lon="-8.9301617"><ele>105.0</ele><time>2026-04-17T07:37:02.86Z</time></trkpt><trkpt lat="42.7602467" lon="-8.93002"><ele>105.0</ele><time>2026-04-17T07:37:04.86Z</time></trkpt><trkpt lat="42.7601483" lon="-8.92989"><ele>105.0</ele><time>2026-04-17T07:37:06.86Z</time></trkpt><trkpt lat="42.760085" lon="-8.9298683"><ele>105.0</ele><time>2026-04-17T07:37:07.86Z</time></trkpt><trkpt lat="42.7599867" lon="-8.9299367"><ele>105.0</ele><time>2026-04-17T07:37:09.861Z</time></trkpt><trkpt lat="42.7600117" lon="-8.9301083"><ele>105.0</ele><time>2026-04-17T07:37:11.86Z</time></trkpt><trkpt lat="42.76006" lon="-8.93025"><ele>105.0</ele><time>2026-04-17T07:37:12.86Z</time></trkpt><trkpt lat="42.76011" lon="-8.9303667"><ele>105.0</ele><time>2026-04-17T07:37:13.86Z</time></trkpt><trkpt lat="42.760215" lon="-8.9306683"><ele>105.0</ele><time>2026-04-17T07:37:14.86Z</time></trkpt><trkpt lat="42.760255" lon="-8.9309883"><ele>105.0</ele><time>2026-04-17T07:37:15.861Z</time></trkpt><trkpt lat="42.7602683" lon="-8.9313583"><ele>105.0</ele><time>2026-04-17T07:37:16.86Z</time></trkpt><trkpt lat="42.760235" lon="-8.93161"><ele>105.0</ele><time>2026-04-17T07:37:17.86Z</time></trkpt><trkpt lat="42.7601817" lon="-8.9318617"><ele>105.0</ele><time>2026-04-17T07:37:18.86Z</time></trkpt><trkpt lat="42.7601183" lon="-8.9321283"><ele>107.66666666666666</ele><time>2026-04-17T07:37:19.861Z</time></trkpt><trkpt lat="42.7600333" lon="-8.9323417"><ele>110.33333333333333</ele><time>2026-04-17T07:37:20.861Z</time></trkpt><trkpt lat="42.759925" lon="-8.9325367"><ele>113.0</ele><time>2026-04-17T07:37:21.861Z</time></trkpt><trkpt lat="42.759785" lon="-8.9327033"><ele>113.0</ele><time>2026-04-17T07:37:22.86Z</time></trkpt><trkpt lat="42.7596233" lon="-8.932855"><ele>113.0</ele><time>2026-04-17T07:37:23.861Z</time></trkpt><trkpt lat="42.7594583" lon="-8.9330083"><ele>113.0</ele><time>2026-04-17T07:37:24.86Z</time></trkpt><trkpt lat="42.7593033" lon="-8.9331583"><ele>118.0</ele><time>2026-04-17T07:37:25.861Z</time></trkpt><trkpt lat="42.759155" lon="-8.9333267"><ele>123.0</ele><time>2026-04-17T07:37:26.86Z</time></trkpt><trkpt lat="42.7590233" lon="-8.9334967"><ele>128.0</ele><time>2026-04-17T07:37:27.86Z</time></trkpt><trkpt lat="42.7589233" lon="-8.9336733"><ele>128.0</ele><time>2026-04-17T07:37:28.86Z</time></trkpt><trkpt lat="42.7588683" lon="-8.9338683"><ele>128.0</ele><time>2026-04-17T07:37:29.861Z</time></trkpt><trkpt lat="42.75881" lon="-8.934075"><ele>128.0</ele><time>2026-04-17T07:37:30.86Z</time></trkpt><trkpt lat="42.7587483" lon="-8.9342367"><ele>129.75</ele><time>2026-04-17T07:37:31.861Z</time></trkpt><trkpt lat="42.7586633" lon="-8.934345"><ele>131.5</ele><time>2026-04-17T07:37:32.861Z</time></trkpt><trkpt lat="42.75855" lon="-8.9344417"><ele>133.25</ele><time>2026-04-17T07:37:33.861Z</time></trkpt><trkpt lat="42.758435" lon="-8.9345117"><ele>135.0</ele><time>2026-04-17T07:37:34.861Z</time></trkpt><trkpt lat="42.75832" lon="-8.9345433"><ele>135.0</ele><time>2026-04-17T07:37:35.86Z</time></trkpt><trkpt lat="42.7582033" lon="-8.934535"><ele>135.0</ele><time>2026-04-17T07:37:36.86Z</time></trkpt><trkpt lat="42.758075" lon="-8.93449"><ele>135.0</ele><time>2026-04-17T07:37:37.86Z</time></trkpt><trkpt lat="42.7579217" lon="-8.9344167"><ele>135.0</ele><time>2026-04-17T07:37:38.861Z</time></trkpt><trkpt lat="42.757735" lon="-8.9343367"><ele>135.0</ele><time>2026-04-17T07:37:39.86Z</time></trkpt><trkpt lat="42.75753" lon="-8.93426"><ele>135.0</ele><time>2026-04-17T07:37:40.861Z</time></trkpt><trkpt lat="42.7573267" lon="-8.9341817"><ele>135.0</ele><time>2026-04-17T07:37:41.861Z</time></trkpt><trkpt lat="42.75715" lon="-8.9340867"><ele>141.0</ele><time>2026-04-17T07:37:42.861Z</time></trkpt><trkpt lat="42.756995" lon="-8.9339683"><ele>147.0</ele><time>2026-04-17T07:37:43.86Z</time></trkpt><trkpt lat="42.7568467" lon="-8.9338567"><ele>153.0</ele><time>2026-04-17T07:37:44.861Z</time></trkpt><trkpt lat="42.7567167" lon="-8.933715"><ele>153.33333333333334</ele><time>2026-04-17T07:37:45.86Z</time></trkpt><trkpt lat="42.7565917" lon="-8.933555"><ele>153.66666666666669</ele><time>2026-04-17T07:37:46.86Z</time></trkpt><trkpt lat="42.756475" lon="-8.9333833"><ele>154.0</ele><time>2026-04-17T07:37:47.86Z</time></trkpt><trkpt lat="42.7563667" lon="-8.9331967"><ele>159.0</ele><time>2026-04-17T07:37:48.86Z</time></trkpt><trkpt lat="42.7562667" lon="-8.932995"><ele>164.0</ele><time>2026-04-17T07:37:49.86Z</time></trkpt><trkpt lat="42.7561617" lon="-8.932775"><ele>169.0</ele><time>2026-04-17T07:37:50.86Z</time></trkpt><trkpt lat="42.75604" lon="-8.93256"><ele>168.5</ele><time>2026-04-17T07:37:51.86Z</time></trkpt><trkpt lat="42.7559" lon="-8.9323383"><ele>168.0</ele><time>2026-04-17T07:37:52.861Z</time></trkpt><trkpt lat="42.7557317" lon="-8.932115"><ele>168.0</ele><time>2026-04-17T07:37:53.861Z</time></trkpt><trkpt lat="42.7555633" lon="-8.9318917"><ele>168.0</ele><time>2026-04-17T07:37:54.86Z</time></trkpt><trkpt lat="42.755385" lon="-8.93167"><ele>169.66666666666666</ele><time>2026-04-17T07:37:55.861Z</time></trkpt><trkpt lat="42.7552233" lon="-8.9314883"><ele>171.33333333333331</ele><time>2026-04-17T07:37:56.861Z</time></trkpt><trkpt lat="42.75508" lon="-8.93132"><ele>173.0</ele><time>2026-04-17T07:37:57.86Z</time></trkpt><trkpt lat="42.7549367" lon="-8.9311683"><ele>173.0</ele><time>2026-04-17T07:37:58.861Z</time></trkpt><trkpt lat="42.7547967" lon="-8.9310533"><ele>173.0</ele><time>2026-04-17T07:37:59.861Z</time></trkpt><trkpt lat="42.754665" lon="-8.9310117"><ele>173.0</ele><time>2026-04-17T07:38:00.862Z</time></trkpt><trkpt lat="42.7545033" lon="-8.93097"><ele>171.66666666666666</ele><time>2026-04-17T07:38:01.862Z</time></trkpt><trkpt lat="42.75432" lon="-8.930925"><ele>170.33333333333334</ele><time>2026-04-17T07:38:02.861Z</time></trkpt><trkpt lat="42.7541533" lon="-8.9308433"><ele>169.0</ele><time>2026-04-17T07:38:03.861Z</time></trkpt><trkpt lat="42.753985" lon="-8.93076"><ele>175.33333333333334</ele><time>2026-04-17T07:38:04.862Z</time></trkpt><trkpt lat="42.7538067" lon="-8.9306833"><ele>181.66666666666666</ele><time>2026-04-17T07:38:05.861Z</time></trkpt><trkpt lat="42.7536183" lon="-8.9306283"><ele>188.0</ele><time>2026-04-17T07:38:06.861Z</time></trkpt><trkpt lat="42.753445" lon="-8.9305717"><ele>188.33333333333331</ele><time>2026-04-17T07:38:07.861Z</time></trkpt><trkpt lat="42.7532583" lon="-8.9305333"><ele>188.66666666666666</ele><time>2026-04-17T07:38:08.862Z</time></trkpt><trkpt lat="42.7530633" lon="-8.9305"><ele>189.0</ele><time>2026-04-17T07:38:09.862Z</time></trkpt><trkpt lat="42.7528633" lon="-8.9304433"><ele>189.0</ele><time>2026-04-17T07:38:10.861Z</time></trkpt><trkpt lat="42.7527117" lon="-8.93038"><ele>189.0</ele><time>2026-04-17T07:38:11.862Z</time></trkpt><trkpt lat="42.75255" lon="-8.9302867"><ele>189.0</ele><time>2026-04-17T07:38:12.862Z</time></trkpt><trkpt lat="42.752405" lon="-8.930175"><ele>192.5</ele><time>2026-04-17T07:38:13.862Z</time></trkpt><trkpt lat="42.7522967" lon="-8.9300517"><ele>196.0</ele><time>2026-04-17T07:38:14.862Z</time></trkpt><trkpt lat="42.7521917" lon="-8.9299233"><ele>199.5</ele><time>2026-04-17T07:38:15.861Z</time></trkpt><trkpt lat="42.752095" lon="-8.9297683"><ele>203.0</ele><time>2026-04-17T07:38:16.861Z</time></trkpt><trkpt lat="42.7520133" lon="-8.9295767"><ele>203.0</ele><time>2026-04-17T07:38:17.861Z</time></trkpt><trkpt lat="42.751925" lon="-8.9293567"><ele>203.0</ele><time>2026-04-17T07:38:18.861Z</time></trkpt><trkpt lat="42.7518383" lon="-8.929115"><ele>203.0</ele><time>2026-04-17T07:38:19.861Z</time></trkpt><trkpt lat="42.7517717" lon="-8.9288783"><ele>203.66666666666669</ele><time>2026-04-17T07:38:20.862Z</time></trkpt><trkpt lat="42.7517283" lon="-8.9286217"><ele>204.33333333333331</ele><time>2026-04-17T07:38:21.862Z</time></trkpt><trkpt lat="42.7517017" lon="-8.92835"><ele>205.0</ele><time>2026-04-17T07:38:22.862Z</time></trkpt><trkpt lat="42.7517033" lon="-8.9280567"><ele>208.66666666666666</ele><time>2026-04-17T07:38:23.861Z</time></trkpt><trkpt lat="42.7517217" lon="-8.9277583"><ele>212.33333333333331</ele><time>2026-04-17T07:38:24.862Z</time></trkpt><trkpt lat="42.7517517" lon="-8.92746"><ele>216.0</ele><time>2026-04-17T07:38:25.861Z</time></trkpt><trkpt lat="42.7517717" lon="-8.927175"><ele>219.33333333333331</ele><time>2026-04-17T07:38:26.861Z</time></trkpt><trkpt lat="42.7517817" lon="-8.9269217"><ele>222.66666666666666</ele><time>2026-04-17T07:38:27.861Z</time></trkpt><trkpt lat="42.7517967" lon="-8.9266883"><ele>226.0</ele><time>2026-04-17T07:38:28.862Z</time></trkpt><trkpt lat="42.7518067" lon="-8.9265133"><ele>227.5</ele><time>2026-04-17T07:38:29.862Z</time></trkpt><trkpt lat="42.7518133" lon="-8.926375"><ele>229.0</ele><time>2026-04-17T07:38:30.861Z</time></trkpt><trkpt lat="42.7518333" lon="-8.926245"><ele>230.5</ele><time>2026-04-17T07:38:31.862Z</time></trkpt><trkpt lat="42.751875" lon="-8.92633"><ele>232.0</ele><time>2026-04-17T07:38:33.861Z</time></trkpt><trkpt lat="42.751795" lon="-8.9265733"><ele>230.0</ele><time>2026-04-17T07:38:34.861Z</time></trkpt><trkpt lat="42.7516767" lon="-8.926835"><ele>228.0</ele><time>2026-04-17T07:38:35.862Z</time></trkpt><trkpt lat="42.7515317" lon="-8.9270517"><ele>226.0</ele><time>2026-04-17T07:38:36.861Z</time></trkpt><trkpt lat="42.7513867" lon="-8.9272567"><ele>226.0</ele><time>2026-04-17T07:38:37.861Z</time></trkpt><trkpt lat="42.75126" lon="-8.9274367"><ele>226.0</ele><time>2026-04-17T07:38:38.861Z</time></trkpt><trkpt lat="42.751115" lon="-8.9276317"><ele>226.0</ele><time>2026-04-17T07:38:39.862Z</time></trkpt><trkpt lat="42.7509917" lon="-8.927805"><ele>220.66666666666666</ele><time>2026-04-17T07:38:40.862Z</time></trkpt><trkpt lat="42.750855" lon="-8.927975"><ele>215.33333333333331</ele><time>2026-04-17T07:38:41.862Z</time></trkpt><trkpt lat="42.75072" lon="-8.9281133"><ele>210.0</ele><time>2026-04-17T07:38:42.861Z</time></trkpt><trkpt lat="42.7505667" lon="-8.92825"><ele>210.0</ele><time>2026-04-17T07:38:43.861Z</time></trkpt><trkpt lat="42.750435" lon="-8.9283917"><ele>210.0</ele><time>2026-04-17T07:38:44.861Z</time></trkpt><trkpt lat="42.75031" lon="-8.928515"><ele>210.0</ele><time>2026-04-17T07:38:45.862Z</time></trkpt><trkpt lat="42.7502" lon="-8.9286183"><ele>206.5</ele><time>2026-04-17T07:38:46.862Z</time></trkpt><trkpt lat="42.7501017" lon="-8.9287167"><ele>203.0</ele><time>2026-04-17T07:38:47.862Z</time></trkpt><trkpt lat="42.75001" lon="-8.9288467"><ele>199.5</ele><time>2026-04-17T07:38:48.862Z</time></trkpt><trkpt lat="42.7499533" lon="-8.92902"><ele>196.0</ele><time>2026-04-17T07:38:49.861Z</time></trkpt><trkpt lat="42.7499483" lon="-8.9292217"><ele>192.5</ele><time>2026-04-17T07:38:50.861Z</time></trkpt><trkpt lat="42.7499217" lon="-8.929405"><ele>189.0</ele><time>2026-04-17T07:38:51.862Z</time></trkpt><trkpt lat="42.7499433" lon="-8.9295683"><ele>185.5</ele><time>2026-04-17T07:38:52.862Z</time></trkpt><trkpt lat="42.7499233" lon="-8.9297217"><ele>182.0</ele><time>2026-04-17T07:38:53.862Z</time></trkpt><trkpt lat="42.74992" lon="-8.929845"><ele>182.0</ele><time>2026-04-17T07:38:54.862Z</time></trkpt><trkpt lat="42.7499333" lon="-8.9299733"><ele>182.0</ele><time>2026-04-17T07:38:55.861Z</time></trkpt><trkpt lat="42.7499567" lon="-8.9301067"><ele>182.0</ele><time>2026-04-17T07:38:56.862Z</time></trkpt><trkpt lat="42.7500067" lon="-8.9302467"><ele>182.0</ele><time>2026-04-17T07:38:57.861Z</time></trkpt><trkpt lat="42.7500917" lon="-8.93039"><ele>182.0</ele><time>2026-04-17T07:38:58.861Z</time></trkpt><trkpt lat="42.7501817" lon="-8.9305467"><ele>179.5</ele><time>2026-04-17T07:38:59.862Z</time></trkpt><trkpt lat="42.7502833" lon="-8.9307167"><ele>177.0</ele><time>2026-04-17T07:39:00.861Z</time></trkpt><trkpt lat="42.7503683" lon="-8.9308717"><ele>174.5</ele><time>2026-04-17T07:39:01.861Z</time></trkpt><trkpt lat="42.7504283" lon="-8.9310167"><ele>172.0</ele><time>2026-04-17T07:39:02.861Z</time></trkpt><trkpt lat="42.750485" lon="-8.9312083"><ele>170.33333333333334</ele><time>2026-04-17T07:39:03.862Z</time></trkpt><trkpt lat="42.7505433" lon="-8.9314067"><ele>168.66666666666666</ele><time>2026-04-17T07:39:04.861Z</time></trkpt><trkpt lat="42.7505767" lon="-8.931635"><ele>167.0</ele><time>2026-04-17T07:39:05.861Z</time></trkpt><trkpt lat="42.7506033" lon="-8.9318717"><ele>165.0</ele><time>2026-04-17T07:39:06.861Z</time></trkpt><trkpt lat="42.75061" lon="-8.932115"><ele>163.0</ele><time>2026-04-17T07:39:07.862Z</time></trkpt><trkpt lat="42.7505983" lon="-8.93234"><ele>161.0</ele><time>2026-04-17T07:39:08.861Z</time></trkpt><trkpt lat="42.7505683" lon="-8.9326117"><ele>159.8</ele><time>2026-04-17T07:39:09.862Z</time></trkpt><trkpt lat="42.7505383" lon="-8.93276"><ele>158.60000000000002</ele><time>2026-04-17T07:39:10.862Z</time></trkpt><trkpt lat="42.750465" lon="-8.9329233"><ele>157.4</ele><time>2026-04-17T07:39:11.861Z</time></trkpt><trkpt lat="42.7504083" lon="-8.9330417"><ele>156.2</ele><time>2026-04-17T07:39:12.861Z</time></trkpt><trkpt lat="42.7503583" lon="-8.93313"><ele>155.0</ele><time>2026-04-17T07:39:13.861Z</time></trkpt><trkpt lat="42.7503" lon="-8.933205"><ele>155.0</ele><time>2026-04-17T07:39:14.861Z</time></trkpt><trkpt lat="42.7502367" lon="-8.9333017"><ele>155.0</ele><time>2026-04-17T07:39:15.861Z</time></trkpt><trkpt lat="42.7501617" lon="-8.9334167"><ele>155.0</ele><time>2026-04-17T07:39:16.862Z</time></trkpt><trkpt lat="42.750085" lon="-8.9335617"><ele>155.0</ele><time>2026-04-17T07:39:17.862Z</time></trkpt><trkpt lat="42.7500167" lon="-8.933715"><ele>149.33333333333331</ele><time>2026-04-17T07:39:18.862Z</time></trkpt><trkpt lat="42.7499533" lon="-8.9338733"><ele>143.66666666666666</ele><time>2026-04-17T07:39:19.862Z</time></trkpt><trkpt lat="42.7498717" lon="-8.93407"><ele>138.0</ele><time>2026-04-17T07:39:20.862Z</time></trkpt><trkpt lat="42.7497967" lon="-8.93425"><ele>134.25</ele><time>2026-04-17T07:39:21.862Z</time></trkpt><trkpt lat="42.7497117" lon="-8.9344333"><ele>130.5</ele><time>2026-04-17T07:39:22.861Z</time></trkpt><trkpt lat="42.7496167" lon="-8.9345983"><ele>126.75</ele><time>2026-04-17T07:39:23.862Z</time></trkpt><trkpt lat="42.7495417" lon="-8.9347417"><ele>123.0</ele><time>2026-04-17T07:39:24.862Z</time></trkpt><trkpt lat="42.7494833" lon="-8.9348617"><ele>123.0</ele><time>2026-04-17T07:39:25.862Z</time></trkpt><trkpt lat="42.7494367" lon="-8.9349483"><ele>123.00000000000001</ele><time>2026-04-17T07:39:26.861Z</time></trkpt><trkpt lat="42.7493833" lon="-8.9350067"><ele>123.00000000000001</ele><time>2026-04-17T07:39:27.862Z</time></trkpt><trkpt lat="42.749295" lon="-8.9350217"><ele>123.0</ele><time>2026-04-17T07:39:29.862Z</time></trkpt><trkpt lat="42.74919" lon="-8.9349033"><ele>123.0</ele><time>2026-04-17T07:39:31.861Z</time></trkpt><trkpt lat="42.7491333" lon="-8.934805"><ele>125.75</ele><time>2026-04-17T07:39:32.861Z</time></trkpt><trkpt lat="42.74907" lon="-8.934685"><ele>128.5</ele><time>2026-04-17T07:39:33.862Z</time></trkpt><trkpt lat="42.74899" lon="-8.934545"><ele>131.25</ele><time>2026-04-17T07:39:34.862Z</time></trkpt><trkpt lat="42.7488883" lon="-8.934395"><ele>134.0</ele><time>2026-04-17T07:39:35.861Z</time></trkpt><trkpt lat="42.7487867" lon="-8.9342233"><ele>138.33333333333331</ele><time>2026-04-17T07:39:36.861Z</time></trkpt><trkpt lat="42.748685" lon="-8.9340317"><ele>142.66666666666666</ele><time>2026-04-17T07:39:37.861Z</time></trkpt><trkpt lat="42.7485667" lon="-8.9338267"><ele>147.0</ele><time>2026-04-17T07:39:38.862Z</time></trkpt><trkpt lat="42.7484517" lon="-8.9336133"><ele>148.0</ele><time>2026-04-17T07:39:39.862Z</time></trkpt><trkpt lat="42.7483617" lon="-8.93343"><ele>149.0</ele><time>2026-04-17T07:39:40.862Z</time></trkpt><trkpt lat="42.748295" lon="-8.9332783"><ele>150.0</ele><time>2026-04-17T07:39:41.861Z</time></trkpt><trkpt lat="42.7482283" lon="-8.9331367"><ele>151.0</ele><time>2026-04-17T07:39:42.862Z</time></trkpt><trkpt lat="42.74818" lon="-8.933035"><ele>153.0</ele><time>2026-04-17T07:39:43.861Z</time></trkpt><trkpt lat="42.7481483" lon="-8.9329267"><ele>155.0</ele><time>2026-04-17T07:39:44.862Z</time></trkpt><trkpt lat="42.7481433" lon="-8.9328183"><ele>157.0</ele><time>2026-04-17T07:39:45.861Z</time></trkpt><trkpt lat="42.7481417" lon="-8.932715"><ele>159.0</ele><time>2026-04-17T07:39:46.861Z</time></trkpt><trkpt lat="42.7482017" lon="-8.9325783"><ele>161.0</ele><time>2026-04-17T07:39:47.861Z</time></trkpt><trkpt lat="42.748285" lon="-8.93243"><ele>163.16666666666666</ele><time>2026-04-17T07:39:48.861Z</time></trkpt><trkpt lat="42.7482967" lon="-8.9323183"><ele>165.33333333333331</ele><time>2026-04-17T07:39:49.861Z</time></trkpt><trkpt lat="42.7483167" lon="-8.932215"><ele>167.5</ele><time>2026-04-17T07:39:50.861Z</time></trkpt><trkpt lat="42.74834" lon="-8.9321"><ele>169.66666666666666</ele><time>2026-04-17T07:39:51.861Z</time></trkpt><trkpt lat="42.7483367" lon="-8.93198"><ele>171.83333333333334</ele><time>2026-04-17T07:39:52.861Z</time></trkpt><trkpt lat="42.7483167" lon="-8.9318517"><ele>174.0</ele><time>2026-04-17T07:39:53.861Z</time></trkpt><trkpt lat="42.74829" lon="-8.9317367"><ele>175.39999999999998</ele><time>2026-04-17T07:39:54.861Z</time></trkpt><trkpt lat="42.74824" lon="-8.93165"><ele>176.8</ele><time>2026-04-17T07:39:55.862Z</time></trkpt><trkpt lat="42.7481917" lon="-8.9315467"><ele>178.2</ele><time>2026-04-17T07:39:56.862Z</time></trkpt><trkpt lat="42.748115" lon="-8.9314483"><ele>179.60000000000002</ele><time>2026-04-17T07:39:57.861Z</time></trkpt><trkpt lat="42.74798" lon="-8.9314183"><ele>181.0</ele><time>2026-04-17T07:39:58.861Z</time></trkpt><trkpt lat="42.7478183" lon="-8.9313883"><ele>184.0</ele><time>2026-04-17T07:39:59.861Z</time></trkpt><trkpt lat="42.7476417" lon="-8.9313283"><ele>187.0</ele><time>2026-04-17T07:40:00.861Z</time></trkpt><trkpt lat="42.7474667" lon="-8.9312317"><ele>190.0</ele><time>2026-04-17T07:40:01.861Z</time></trkpt><trkpt lat="42.7472767" lon="-8.9310867"><ele>190.0</ele><time>2026-04-17T07:40:02.861Z</time></trkpt><trkpt lat="42.7471433" lon="-8.93095"><ele>190.0</ele><time>2026-04-17T07:40:03.861Z</time></trkpt><trkpt lat="42.74701" lon="-8.93082"><ele>190.0</ele><time>2026-04-17T07:40:04.861Z</time></trkpt><trkpt lat="42.746875" lon="-8.930705"><ele>197.75</ele><time>2026-04-17T07:40:05.862Z</time></trkpt><trkpt lat="42.74677" lon="-8.9306017"><ele>205.5</ele><time>2026-04-17T07:40:06.861Z</time></trkpt><trkpt lat="42.7466617" lon="-8.930535"><ele>213.25</ele><time>2026-04-17T07:40:07.861Z</time></trkpt><trkpt lat="42.7465833" lon="-8.9304967"><ele>221.0</ele><time>2026-04-17T07:40:09.862Z</time></trkpt><trkpt lat="42.7466867" lon="-8.93036"><ele>221.0</ele><time>2026-04-17T07:40:13.861Z</time></trkpt><trkpt lat="42.7467533" lon="-8.9302317"><ele>221.0</ele><time>2026-04-17T07:40:14.862Z</time></trkpt><trkpt lat="42.7467767" lon="-8.9300983"><ele>221.0</ele><time>2026-04-17T07:40:15.861Z</time></trkpt><trkpt lat="42.7468117" lon="-8.9299267"><ele>221.0</ele><time>2026-04-17T07:40:16.862Z</time></trkpt><trkpt lat="42.7468483" lon="-8.9297567"><ele>219.75</ele><time>2026-04-17T07:40:17.862Z</time></trkpt><trkpt lat="42.7468983" lon="-8.9295833"><ele>218.5</ele><time>2026-04-17T07:40:18.862Z</time></trkpt><trkpt lat="42.7469683" lon="-8.9294167"><ele>217.25</ele><time>2026-04-17T07:40:19.861Z</time></trkpt><trkpt lat="42.7470583" lon="-8.9292533"><ele>216.0</ele><time>2026-04-17T07:40:20.861Z</time></trkpt><trkpt lat="42.7471867" lon="-8.92909"><ele>225.0</ele><time>2026-04-17T07:40:21.862Z</time></trkpt><trkpt lat="42.7473283" lon="-8.9289"><ele>234.0</ele><time>2026-04-17T07:40:22.861Z</time></trkpt><trkpt lat="42.7474633" lon="-8.9287183"><ele>243.0</ele><time>2026-04-17T07:40:23.862Z</time></trkpt><trkpt lat="42.7475833" lon="-8.9285617"><ele>243.0</ele><time>2026-04-17T07:40:24.861Z</time></trkpt><trkpt lat="42.7476967" lon="-8.9284333"><ele>243.0</ele><time>2026-04-17T07:40:25.861Z</time></trkpt><trkpt lat="42.7478217" lon="-8.9283383"><ele>243.0</ele><time>2026-04-17T07:40:26.861Z</time></trkpt><trkpt lat="42.7479167" lon="-8.9282517"><ele>243.0</ele><time>2026-04-17T07:40:27.862Z</time></trkpt><trkpt lat="42.74799" lon="-8.928155"><ele>245.0</ele><time>2026-04-17T07:40:28.862Z</time></trkpt><trkpt lat="42.748045" lon="-8.9280417"><ele>247.0</ele><time>2026-04-17T07:40:29.861Z</time></trkpt><trkpt lat="42.7480883" lon="-8.927905"><ele>249.0</ele><time>2026-04-17T07:40:30.861Z</time></trkpt><trkpt lat="42.748125" lon="-8.9277683"><ele>251.0</ele><time>2026-04-17T07:40:31.862Z</time></trkpt><trkpt lat="42.7481517" lon="-8.9276183"><ele>253.0</ele><time>2026-04-17T07:40:32.862Z</time></trkpt><trkpt lat="42.7481833" lon="-8.9274767"><ele>253.0</ele><time>2026-04-17T07:40:33.861Z</time></trkpt><trkpt lat="42.7482183" lon="-8.9273583"><ele>253.0</ele><time>2026-04-17T07:40:34.861Z</time></trkpt><trkpt lat="42.7482583" lon="-8.927255"><ele>253.0</ele><time>2026-04-17T07:40:35.862Z</time></trkpt><trkpt lat="42.74833" lon="-8.9271333"><ele>253.0</ele><time>2026-04-17T07:40:37.862Z</time></trkpt><trkpt lat="42.74825" lon="-8.9272817"><ele>253.0</ele><time>2026-04-17T07:40:39.861Z</time></trkpt><trkpt lat="42.748175" lon="-8.927575"><ele>253.0</ele><time>2026-04-17T07:40:43.861Z</time></trkpt><trkpt lat="42.74812" lon="-8.9277283"><ele>253.0</ele><time>2026-04-17T07:40:44.861Z</time></trkpt><trkpt lat="42.7480433" lon="-8.9278667"><ele>253.0</ele><time>2026-04-17T07:40:45.862Z</time></trkpt><trkpt lat="42.7479717" lon="-8.928005"><ele>253.0</ele><time>2026-04-17T07:40:46.862Z</time></trkpt><trkpt lat="42.74792" lon="-8.9281717"><ele>253.0</ele><time>2026-04-17T07:40:48.862Z</time></trkpt><trkpt lat="42.7479033" lon="-8.9282567"><ele>253.0</ele><time>2026-04-17T07:40:49.862Z</time></trkpt><trkpt lat="42.74791" lon="-8.9284183"><ele>253.0</ele><time>2026-04-17T07:40:50.861Z</time></trkpt><trkpt lat="42.7479017" lon="-8.9285617"><ele>253.0</ele><time>2026-04-17T07:40:52.861Z</time></trkpt><trkpt lat="42.7479517" lon="-8.9284383"><ele>253.0</ele><time>2026-04-17T07:41:11.862Z</time></trkpt><trkpt lat="42.7479983" lon="-8.9282617"><ele>253.0</ele><time>2026-04-17T07:41:13.861Z</time></trkpt><trkpt lat="42.7480133" lon="-8.928155"><ele>253.0</ele><time>2026-04-17T07:41:14.861Z</time></trkpt><trkpt lat="42.748035" lon="-8.9280267"><ele>253.0</ele><time>2026-04-17T07:41:15.861Z</time></trkpt><trkpt lat="42.74806" lon="-8.9278883"><ele>253.0</ele><time>2026-04-17T07:41:16.861Z</time></trkpt><trkpt lat="42.7480967" lon="-8.9277317"><ele>253.0</ele><time>2026-04-17T07:41:17.862Z</time></trkpt><trkpt lat="42.7481333" lon="-8.9275733"><ele>256.5</ele><time>2026-04-17T07:41:18.861Z</time></trkpt><trkpt lat="42.748165" lon="-8.92743"><ele>260.0</ele><time>2026-04-17T07:41:19.861Z</time></trkpt><trkpt lat="42.7482167" lon="-8.9272667"><ele>263.5</ele><time>2026-04-17T07:41:20.861Z</time></trkpt><trkpt lat="42.74826" lon="-8.9271267"><ele>267.0</ele><time>2026-04-17T07:41:21.862Z</time></trkpt><trkpt lat="42.7482983" lon="-8.92699"><ele>267.0</ele><time>2026-04-17T07:41:22.861Z</time></trkpt><trkpt lat="42.7483383" lon="-8.92685"><ele>267.0</ele><time>2026-04-17T07:41:23.861Z</time></trkpt><trkpt lat="42.74838" lon="-8.92671"><ele>267.0</ele><time>2026-04-17T07:41:24.862Z</time></trkpt><trkpt lat="42.7484283" lon="-8.92656"><ele>267.0</ele><time>2026-04-17T07:41:25.861Z</time></trkpt><trkpt lat="42.74846" lon="-8.926425"><ele>267.0</ele><time>2026-04-17T07:41:26.862Z</time></trkpt><trkpt lat="42.7484917" lon="-8.92629"><ele>269.0</ele><time>2026-04-17T07:41:27.862Z</time></trkpt><trkpt lat="42.74853" lon="-8.92613"><ele>271.0</ele><time>2026-04-17T07:41:28.861Z</time></trkpt><trkpt lat="42.748575" lon="-8.9259633"><ele>273.0</ele><time>2026-04-17T07:41:29.862Z</time></trkpt><trkpt lat="42.748615" lon="-8.9257867"><ele>275.0</ele><time>2026-04-17T07:41:30.861Z</time></trkpt><trkpt lat="42.74863" lon="-8.9256083"><ele>272.0</ele><time>2026-04-17T07:41:31.861Z</time></trkpt><trkpt lat="42.748665" lon="-8.925365"><ele>269.0</ele><time>2026-04-17T07:41:32.862Z</time></trkpt><trkpt lat="42.748705" lon="-8.92511"><ele>266.0</ele><time>2026-04-17T07:41:33.862Z</time></trkpt><trkpt lat="42.7487317" lon="-8.9249283"><ele>266.0</ele><time>2026-04-17T07:41:34.861Z</time></trkpt><trkpt lat="42.7487817" lon="-8.9247367"><ele>266.0</ele><time>2026-04-17T07:41:35.861Z</time></trkpt><trkpt lat="42.7488317" lon="-8.9246117"><ele>266.0</ele><time>2026-04-17T07:41:36.861Z</time></trkpt><trkpt lat="42.7488783" lon="-8.9244917"><ele>266.0</ele><time>2026-04-17T07:41:37.861Z</time></trkpt><trkpt lat="42.7488067" lon="-8.9244567"><ele>266.0</ele><time>2026-04-17T07:41:39.861Z</time></trkpt><trkpt lat="42.748755" lon="-8.9245167"><ele>266.0</ele><time>2026-04-17T07:41:40.862Z</time></trkpt><trkpt lat="42.74869" lon="-8.9246117"><ele>266.0</ele><time>2026-04-17T07:41:41.862Z</time></trkpt><trkpt lat="42.7486" lon="-8.9247517"><ele>266.0</ele><time>2026-04-17T07:41:42.862Z</time></trkpt><trkpt lat="42.7484817" lon="-8.92493"><ele>266.0</ele><time>2026-04-17T07:41:43.861Z</time></trkpt><trkpt lat="42.7483733" lon="-8.9251183"><ele>271.33333333333337</ele><time>2026-04-17T07:41:44.862Z</time></trkpt><trkpt lat="42.7482667" lon="-8.9253183"><ele>276.6666666666667</ele><time>2026-04-17T07:41:45.861Z</time></trkpt><trkpt lat="42.7481717" lon="-8.9255033"><ele>282.0</ele><time>2026-04-17T07:41:46.862Z</time></trkpt><trkpt lat="42.7480867" lon="-8.9257433"><ele>279.6666666666667</ele><time>2026-04-17T07:41:47.862Z</time></trkpt><trkpt lat="42.748" lon="-8.9259917"><ele>277.33333333333337</ele><time>2026-04-17T07:41:48.862Z</time></trkpt><trkpt lat="42.747915" lon="-8.9261967"><ele>275.0</ele><time>2026-04-17T07:41:49.861Z</time></trkpt><trkpt lat="42.747835" lon="-8.9263767"><ele>275.0</ele><time>2026-04-17T07:41:50.862Z</time></trkpt><trkpt lat="42.7477317" lon="-8.926575"><ele>275.0</ele><time>2026-04-17T07:41:51.863Z</time></trkpt><trkpt lat="42.74763" lon="-8.92676"><ele>275.0</ele><time>2026-04-17T07:41:52.863Z</time></trkpt><trkpt lat="42.7475333" lon="-8.9269383"><ele>277.4</ele><time>2026-04-17T07:41:53.862Z</time></trkpt><trkpt lat="42.7474583" lon="-8.9271033"><ele>279.8</ele><time>2026-04-17T07:41:54.862Z</time></trkpt><trkpt lat="42.747405" lon="-8.9271917"><ele>282.2</ele><time>2026-04-17T07:41:55.862Z</time></trkpt><trkpt lat="42.7473267" lon="-8.9272833"><ele>284.6</ele><time>2026-04-17T07:41:57.863Z</time></trkpt><trkpt lat="42.7472633" lon="-8.9272267"><ele>287.0</ele><time>2026-04-17T07:42:00.863Z</time></trkpt><trkpt lat="42.7472467" lon="-8.9270967"><ele>287.0</ele><time>2026-04-17T07:42:02.863Z</time></trkpt><trkpt lat="42.7472717" lon="-8.9269617"><ele>287.0</ele><time>2026-04-17T07:42:03.862Z</time></trkpt><trkpt lat="42.7472967" lon="-8.926825"><ele>287.0</ele><time>2026-04-17T07:42:04.863Z</time></trkpt><trkpt lat="42.74736" lon="-8.9266317"><ele>287.0</ele><time>2026-04-17T07:42:05.863Z</time></trkpt><trkpt lat="42.74741" lon="-8.92647"><ele>289.2</ele><time>2026-04-17T07:42:06.863Z</time></trkpt><trkpt lat="42.7474433" lon="-8.9263117"><ele>291.4</ele><time>2026-04-17T07:42:07.863Z</time></trkpt><trkpt lat="42.7474967" lon="-8.9261633"><ele>293.6</ele><time>2026-04-17T07:42:08.863Z</time></trkpt><trkpt lat="42.7475333" lon="-8.9260233"><ele>295.8</ele><time>2026-04-17T07:42:09.862Z</time></trkpt><trkpt lat="42.74755" lon="-8.9259"><ele>298.0</ele><time>2026-04-17T07:42:10.862Z</time></trkpt><trkpt lat="42.74756" lon="-8.9257683"><ele>298.7142857142857</ele><time>2026-04-17T07:42:11.862Z</time></trkpt><trkpt lat="42.7475633" lon="-8.9256417"><ele>299.4285714285714</ele><time>2026-04-17T07:42:12.862Z</time></trkpt><trkpt lat="42.747565" lon="-8.9255417"><ele>300.1428571428571</ele><time>2026-04-17T07:42:13.863Z</time></trkpt><trkpt lat="42.7475633" lon="-8.9254533"><ele>300.85714285714283</ele><time>2026-04-17T07:42:14.863Z</time></trkpt><trkpt lat="42.747555" lon="-8.9253667"><ele>301.57142857142856</ele><time>2026-04-17T07:42:15.862Z</time></trkpt><trkpt lat="42.7475383" lon="-8.9252783"><ele>302.2857142857143</ele><time>2026-04-17T07:42:16.863Z</time></trkpt><trkpt lat="42.747525" lon="-8.9251817"><ele>303.0</ele><time>2026-04-17T07:42:17.863Z</time></trkpt><trkpt lat="42.747505" lon="-8.9250717"><ele>304.2</ele><time>2026-04-17T07:42:18.862Z</time></trkpt><trkpt lat="42.7474817" lon="-8.924955"><ele>305.4</ele><time>2026-04-17T07:42:19.862Z</time></trkpt><trkpt lat="42.7474667" lon="-8.924835"><ele>306.59999999999997</ele><time>2026-04-17T07:42:20.863Z</time></trkpt><trkpt lat="42.7474467" lon="-8.9247217"><ele>307.8</ele><time>2026-04-17T07:42:21.863Z</time></trkpt><trkpt lat="42.7474233" lon="-8.924605"><ele>309.0</ele><time>2026-04-17T07:42:22.862Z</time></trkpt><trkpt lat="42.747405" lon="-8.9244733"><ele>309.0</ele><time>2026-04-17T07:42:23.862Z</time></trkpt><trkpt lat="42.7473967" lon="-8.9243317"><ele>309.0</ele><time>2026-04-17T07:42:24.863Z</time></trkpt><trkpt lat="42.7474" lon="-8.924195"><ele>309.0</ele><time>2026-04-17T07:42:25.863Z</time></trkpt><trkpt lat="42.7474" lon="-8.9240733"><ele>309.0</ele><time>2026-04-17T07:42:26.862Z</time></trkpt><trkpt lat="42.7474" lon="-8.9239683"><ele>309.0</ele><time>2026-04-17T07:42:27.863Z</time></trkpt><trkpt lat="42.747395" lon="-8.92388"><ele>309.0</ele><time>2026-04-17T07:42:28.862Z</time></trkpt><trkpt lat="42.7473983" lon="-8.9237317"><ele>309.0</ele><time>2026-04-17T07:42:30.862Z</time></trkpt><trkpt lat="42.7473783" lon="-8.9235567"><ele>309.0</ele><time>2026-04-17T07:42:32.862Z</time></trkpt><trkpt lat="42.7473683" lon="-8.92344"><ele>309.0</ele><time>2026-04-17T07:42:33.863Z</time></trkpt><trkpt lat="42.7473467" lon="-8.9233083"><ele>309.0</ele><time>2026-04-17T07:42:34.863Z</time></trkpt><trkpt lat="42.7473233" lon="-8.9231783"><ele>309.0</ele><time>2026-04-17T07:42:35.862Z</time></trkpt><trkpt lat="42.747285" lon="-8.9230633"><ele>309.0</ele><time>2026-04-17T07:42:36.862Z</time></trkpt><trkpt lat="42.7472317" lon="-8.9229467"><ele>309.0</ele><time>2026-04-17T07:42:37.862Z</time></trkpt><trkpt lat="42.7471617" lon="-8.922845"><ele>309.0</ele><time>2026-04-17T07:42:38.863Z</time></trkpt><trkpt lat="42.7470767" lon="-8.9227367"><ele>309.0</ele><time>2026-04-17T07:42:39.862Z</time></trkpt><trkpt lat="42.7470017" lon="-8.9226183"><ele>309.0</ele><time>2026-04-17T07:42:40.862Z</time></trkpt><trkpt lat="42.7469283" lon="-8.92249"><ele>314.0</ele><time>2026-04-17T07:42:41.863Z</time></trkpt><trkpt lat="42.7468567" lon="-8.9223533"><ele>319.0</ele><time>2026-04-17T07:42:42.862Z</time></trkpt><trkpt lat="42.7467883" lon="-8.9222133"><ele>324.0</ele><time>2026-04-17T07:42:43.862Z</time></trkpt><trkpt lat="42.7467167" lon="-8.9220633"><ele>329.0</ele><time>2026-04-17T07:42:44.863Z</time></trkpt><trkpt lat="42.7466467" lon="-8.9219133"><ele>329.0</ele><time>2026-04-17T07:42:45.863Z</time></trkpt><trkpt lat="42.7465667" lon="-8.9217733"><ele>329.0</ele><time>2026-04-17T07:42:46.862Z</time></trkpt><trkpt lat="42.7464883" lon="-8.9216267"><ele>329.0</ele><time>2026-04-17T07:42:47.863Z</time></trkpt><trkpt lat="42.7464067" lon="-8.9215083"><ele>329.0</ele><time>2026-04-17T07:42:48.862Z</time></trkpt><trkpt lat="42.7463233" lon="-8.9214183"><ele>328.4</ele><time>2026-04-17T07:42:49.863Z</time></trkpt><trkpt lat="42.74625" lon="-8.9213333"><ele>327.79999999999995</ele><time>2026-04-17T07:42:50.862Z</time></trkpt><trkpt lat="42.7461533" lon="-8.9212667"><ele>327.20000000000005</ele><time>2026-04-17T07:42:51.862Z</time></trkpt><trkpt lat="42.7460617" lon="-8.9211983"><ele>326.6</ele><time>2026-04-17T07:42:52.862Z</time></trkpt><trkpt lat="42.7459817" lon="-8.9211283"><ele>326.0</ele><time>2026-04-17T07:42:53.862Z</time></trkpt><trkpt lat="42.745915" lon="-8.9210367"><ele>328.75</ele><time>2026-04-17T07:42:54.862Z</time></trkpt><trkpt lat="42.7458433" lon="-8.9209167"><ele>331.5</ele><time>2026-04-17T07:42:55.862Z</time></trkpt><trkpt lat="42.7457667" lon="-8.920785"><ele>334.25</ele><time>2026-04-17T07:42:56.862Z</time></trkpt><trkpt lat="42.7456817" lon="-8.920645"><ele>337.0</ele><time>2026-04-17T07:42:57.862Z</time></trkpt><trkpt lat="42.7455933" lon="-8.9205367"><ele>337.0</ele><time>2026-04-17T07:42:58.863Z</time></trkpt><trkpt lat="42.7454933" lon="-8.920435"><ele>337.0</ele><time>2026-04-17T07:42:59.863Z</time></trkpt><trkpt lat="42.7453783" lon="-8.92033"><ele>337.0</ele><time>2026-04-17T07:43:00.862Z</time></trkpt><trkpt lat="42.745225" lon="-8.9202317"><ele>337.0</ele><time>2026-04-17T07:43:01.862Z</time></trkpt><trkpt lat="42.7450817" lon="-8.9201183"><ele>340.0</ele><time>2026-04-17T07:43:02.863Z</time></trkpt><trkpt lat="42.7449333" lon="-8.9200083"><ele>343.0</ele><time>2026-04-17T07:43:03.862Z</time></trkpt><trkpt lat="42.7447733" lon="-8.9199"><ele>346.0</ele><time>2026-04-17T07:43:04.863Z</time></trkpt><trkpt lat="42.7446317" lon="-8.9197833"><ele>346.0</ele><time>2026-04-17T07:43:05.862Z</time></trkpt><trkpt lat="42.7444817" lon="-8.9196717"><ele>346.0</ele><time>2026-04-17T07:43:06.862Z</time></trkpt><trkpt lat="42.7443367" lon="-8.919565"><ele>346.0</ele><time>2026-04-17T07:43:07.862Z</time></trkpt><trkpt lat="42.7441983" lon="-8.91947"><ele>346.66666666666663</ele><time>2026-04-17T07:43:08.862Z</time></trkpt><trkpt lat="42.7440533" lon="-8.919365"><ele>347.3333333333333</ele><time>2026-04-17T07:43:09.862Z</time></trkpt><trkpt lat="42.74391" lon="-8.9192567"><ele>348.0</ele><time>2026-04-17T07:43:10.862Z</time></trkpt><trkpt lat="42.743765" lon="-8.9191417"><ele>348.0</ele><time>2026-04-17T07:43:11.862Z</time></trkpt><trkpt lat="42.7436233" lon="-8.91903"><ele>348.0</ele><time>2026-04-17T07:43:12.863Z</time></trkpt><trkpt lat="42.74348" lon="-8.91892"><ele>348.0</ele><time>2026-04-17T07:43:13.862Z</time></trkpt><trkpt lat="42.7433417" lon="-8.9187917"><ele>350.6666666666667</ele><time>2026-04-17T07:43:14.862Z</time></trkpt><trkpt lat="42.7432133" lon="-8.9186583"><ele>353.33333333333337</ele><time>2026-04-17T07:43:15.863Z</time></trkpt><trkpt lat="42.7430867" lon="-8.9185267"><ele>356.0</ele><time>2026-04-17T07:43:16.862Z</time></trkpt><trkpt lat="42.74295" lon="-8.9183917"><ele>356.0</ele><time>2026-04-17T07:43:17.862Z</time></trkpt><trkpt lat="42.7428117" lon="-8.91825"><ele>356.0</ele><time>2026-04-17T07:43:18.863Z</time></trkpt><trkpt lat="42.7426917" lon="-8.9181183"><ele>356.0</ele><time>2026-04-17T07:43:19.862Z</time></trkpt><trkpt lat="42.7425917" lon="-8.9180117"><ele>359.5</ele><time>2026-04-17T07:43:20.862Z</time></trkpt><trkpt lat="42.7424983" lon="-8.9179117"><ele>363.0</ele><time>2026-04-17T07:43:21.863Z</time></trkpt><trkpt lat="42.742435" lon="-8.9177967"><ele>366.5</ele><time>2026-04-17T07:43:22.862Z</time></trkpt><trkpt lat="42.7423567" lon="-8.917675"><ele>370.0</ele><time>2026-04-17T07:43:23.862Z</time></trkpt><trkpt lat="42.742295" lon="-8.91755"><ele>370.0</ele><time>2026-04-17T07:43:24.863Z</time></trkpt><trkpt lat="42.7422817" lon="-8.9173617"><ele>370.0</ele><time>2026-04-17T07:43:25.863Z</time></trkpt><trkpt lat="42.7422817" lon="-8.917165"><ele>370.0</ele><time>2026-04-17T07:43:26.862Z</time></trkpt><trkpt lat="42.7422917" lon="-8.9169517"><ele>370.0</ele><time>2026-04-17T07:43:27.863Z</time></trkpt><trkpt lat="42.7422917" lon="-8.9167483"><ele>369.5</ele><time>2026-04-17T07:43:28.863Z</time></trkpt><trkpt lat="42.7422917" lon="-8.9165567"><ele>369.0</ele><time>2026-04-17T07:43:29.863Z</time></trkpt><trkpt lat="42.7422983" lon="-8.916365"><ele>368.5</ele><time>2026-04-17T07:43:30.862Z</time></trkpt><trkpt lat="42.7423167" lon="-8.91619"><ele>368.0</ele><time>2026-04-17T07:43:31.863Z</time></trkpt><trkpt lat="42.7423567" lon="-8.9160217"><ele>369.5</ele><time>2026-04-17T07:43:32.863Z</time></trkpt><trkpt lat="42.742395" lon="-8.91584"><ele>371.0</ele><time>2026-04-17T07:43:33.863Z</time></trkpt><trkpt lat="42.7424467" lon="-8.91566"><ele>372.5</ele><time>2026-04-17T07:43:34.862Z</time></trkpt><trkpt lat="42.7424833" lon="-8.9154683"><ele>374.0</ele><time>2026-04-17T07:43:35.863Z</time></trkpt><trkpt lat="42.74251" lon="-8.91526"><ele>373.6666666666667</ele><time>2026-04-17T07:43:36.863Z</time></trkpt><trkpt lat="42.742525" lon="-8.91504"><ele>373.3333333333333</ele><time>2026-04-17T07:43:37.862Z</time></trkpt><trkpt lat="42.7425317" lon="-8.9148167"><ele>373.0</ele><time>2026-04-17T07:43:38.862Z</time></trkpt><trkpt lat="42.7425333" lon="-8.9146067"><ele>373.0</ele><time>2026-04-17T07:43:39.862Z</time></trkpt><trkpt lat="42.742525" lon="-8.91442"><ele>373.0</ele><time>2026-04-17T07:43:40.862Z</time></trkpt><trkpt lat="42.7425133" lon="-8.914235"><ele>373.0</ele><time>2026-04-17T07:43:41.862Z</time></trkpt><trkpt lat="42.7424833" lon="-8.914085"><ele>373.0</ele><time>2026-04-17T07:43:42.862Z</time></trkpt><trkpt lat="42.74245" lon="-8.9139517"><ele>373.2857142857143</ele><time>2026-04-17T07:43:43.863Z</time></trkpt><trkpt lat="42.74241" lon="-8.9138583"><ele>373.57142857142856</ele><time>2026-04-17T07:43:44.863Z</time></trkpt><trkpt lat="42.7423583" lon="-8.913795"><ele>373.8571428571429</ele><time>2026-04-17T07:43:45.863Z</time></trkpt><trkpt lat="42.7422983" lon="-8.9137383"><ele>374.1428571428571</ele><time>2026-04-17T07:43:46.862Z</time></trkpt><trkpt lat="42.7422367" lon="-8.91368"><ele>374.4285714285714</ele><time>2026-04-17T07:43:47.862Z</time></trkpt><trkpt lat="42.7421817" lon="-8.9136167"><ele>374.7142857142857</ele><time>2026-04-17T07:43:48.862Z</time></trkpt><trkpt lat="42.742125" lon="-8.9135767"><ele>375.0</ele><time>2026-04-17T07:43:49.862Z</time></trkpt><trkpt lat="42.7420867" lon="-8.9134233"><ele>371.8</ele><time>2026-04-17T07:43:51.862Z</time></trkpt><trkpt lat="42.7420817" lon="-8.9133283"><ele>368.6</ele><time>2026-04-17T07:43:52.863Z</time></trkpt><trkpt lat="42.7420883" lon="-8.9132233"><ele>365.4</ele><time>2026-04-17T07:43:53.862Z</time></trkpt><trkpt lat="42.7421167" lon="-8.9131"><ele>362.2</ele><time>2026-04-17T07:43:54.862Z</time></trkpt><trkpt lat="42.7421967" lon="-8.9129483"><ele>359.0</ele><time>2026-04-17T07:43:55.862Z</time></trkpt><trkpt lat="42.7422417" lon="-8.912825"><ele>359.0</ele><time>2026-04-17T07:43:56.862Z</time></trkpt><trkpt lat="42.7423167" lon="-8.9126833"><ele>359.0</ele><time>2026-04-17T07:43:57.863Z</time></trkpt><trkpt lat="42.7424533" lon="-8.9125367"><ele>359.0</ele><time>2026-04-17T07:43:58.862Z</time></trkpt><trkpt lat="42.7425817" lon="-8.91243"><ele>359.25</ele><time>2026-04-17T07:43:59.862Z</time></trkpt><trkpt lat="42.7426917" lon="-8.9123183"><ele>359.5</ele><time>2026-04-17T07:44:00.862Z</time></trkpt><trkpt lat="42.74278" lon="-8.91223"><ele>359.75</ele><time>2026-04-17T07:44:01.863Z</time></trkpt><trkpt lat="42.7429067" lon="-8.912115"><ele>360.0</ele><time>2026-04-17T07:44:02.862Z</time></trkpt><trkpt lat="42.7429867" lon="-8.9120383"><ele>360.0</ele><time>2026-04-17T07:44:03.862Z</time></trkpt><trkpt lat="42.743065" lon="-8.9119667"><ele>360.0</ele><time>2026-04-17T07:44:04.862Z</time></trkpt><trkpt lat="42.7431533" lon="-8.9118483"><ele>360.0</ele><time>2026-04-17T07:44:06.862Z</time></trkpt><trkpt lat="42.7432083" lon="-8.9117383"><ele>360.0</ele><time>2026-04-17T07:44:08.863Z</time></trkpt><trkpt lat="42.7431867" lon="-8.9116483"><ele>360.0</ele><time>2026-04-17T07:44:10.863Z</time></trkpt><trkpt lat="42.7429133" lon="-8.9116567"><ele>363.3333333333333</ele><time>2026-04-17T07:44:11.862Z</time></trkpt><trkpt lat="42.74282" lon="-8.91162"><ele>366.66666666666663</ele><time>2026-04-17T07:44:12.863Z</time></trkpt><trkpt lat="42.7427133" lon="-8.9116133"><ele>370.0</ele><time>2026-04-17T07:44:13.863Z</time></trkpt><trkpt lat="42.7422883" lon="-8.9117717"><ele>370.0</ele><time>2026-04-17T07:44:14.863Z</time></trkpt><trkpt lat="42.7420283" lon="-8.91187"><ele>370.0</ele><time>2026-04-17T07:44:15.863Z</time></trkpt><trkpt lat="42.7417817" lon="-8.911945"><ele>374.66666666666663</ele><time>2026-04-17T07:44:16.862Z</time></trkpt><trkpt lat="42.74157" lon="-8.9119883"><ele>379.3333333333333</ele><time>2026-04-17T07:44:17.863Z</time></trkpt><trkpt lat="42.7413483" lon="-8.9120167"><ele>384.0</ele><time>2026-04-17T07:44:18.863Z</time></trkpt><trkpt lat="42.7411717" lon="-8.9120583"><ele>389.33333333333337</ele><time>2026-04-17T07:44:19.863Z</time></trkpt><trkpt lat="42.740995" lon="-8.9121033"><ele>394.6666666666667</ele><time>2026-04-17T07:44:20.862Z</time></trkpt><trkpt lat="42.74083" lon="-8.9121617"><ele>400.0</ele><time>2026-04-17T07:44:21.863Z</time></trkpt><trkpt lat="42.7406733" lon="-8.9122067"><ele>400.0</ele><time>2026-04-17T07:44:22.862Z</time></trkpt><trkpt lat="42.7405467" lon="-8.9122383"><ele>400.0</ele><time>2026-04-17T07:44:23.863Z</time></trkpt><trkpt lat="42.7404583" lon="-8.9122433"><ele>400.0</ele><time>2026-04-17T07:44:24.863Z</time></trkpt><trkpt lat="42.7403783" lon="-8.91224"><ele>400.0</ele><time>2026-04-17T07:44:25.862Z</time></trkpt><trkpt lat="42.740305" lon="-8.9122333"><ele>400.0</ele><time>2026-04-17T07:44:26.862Z</time></trkpt><trkpt lat="42.7402233" lon="-8.9121583"><ele>402.00000000000006</ele><time>2026-04-17T07:44:28.863Z</time></trkpt><trkpt lat="42.7401667" lon="-8.9121167"><ele>404.0</ele><time>2026-04-17T07:44:29.862Z</time></trkpt><trkpt lat="42.7401033" lon="-8.9120783"><ele>406.0</ele><time>2026-04-17T07:44:30.862Z</time></trkpt><trkpt lat="42.7400483" lon="-8.9119983"><ele>408.0</ele><time>2026-04-17T07:44:31.863Z</time></trkpt><trkpt lat="42.740045" lon="-8.9118783"><ele>410.00000000000006</ele><time>2026-04-17T07:44:32.862Z</time></trkpt><trkpt lat="42.7400383" lon="-8.91178"><ele>412.0</ele><time>2026-04-17T07:44:33.863Z</time></trkpt><trkpt lat="42.7400833" lon="-8.9116167"><ele>412.8</ele><time>2026-04-17T07:44:34.862Z</time></trkpt><trkpt lat="42.740125" lon="-8.9114967"><ele>413.6</ele><time>2026-04-17T07:44:35.862Z</time></trkpt><trkpt lat="42.74019" lon="-8.9113883"><ele>414.40000000000003</ele><time>2026-04-17T07:44:36.862Z</time></trkpt><trkpt lat="42.7402367" lon="-8.9113233"><ele>415.20000000000005</ele><time>2026-04-17T07:44:37.863Z</time></trkpt><trkpt lat="42.7403267" lon="-8.9112433"><ele>416.0</ele><time>2026-04-17T07:44:38.862Z</time></trkpt><trkpt lat="42.74042" lon="-8.91111"><ele>416.0</ele><time>2026-04-17T07:44:39.862Z</time></trkpt><trkpt lat="42.7404817" lon="-8.9109917"><ele>416.0</ele><time>2026-04-17T07:44:40.863Z</time></trkpt><trkpt lat="42.7406233" lon="-8.9107683"><ele>416.0</ele><time>2026-04-17T07:44:41.862Z</time></trkpt><trkpt lat="42.74067" lon="-8.9105933"><ele>419.66666666666663</ele><time>2026-04-17T07:44:42.862Z</time></trkpt><trkpt lat="42.74076" lon="-8.9103833"><ele>423.33333333333337</ele><time>2026-04-17T07:44:43.863Z</time></trkpt><trkpt lat="42.7408183" lon="-8.910185"><ele>427.0</ele><time>2026-04-17T07:44:44.863Z</time></trkpt><trkpt lat="42.740895" lon="-8.9099883"><ele>425.75</ele><time>2026-04-17T07:44:45.863Z</time></trkpt><trkpt lat="42.7409883" lon="-8.909825"><ele>424.5</ele><time>2026-04-17T07:44:46.862Z</time></trkpt><trkpt lat="42.741065" lon="-8.909665"><ele>423.25</ele><time>2026-04-17T07:44:47.862Z</time></trkpt><trkpt lat="42.7411367" lon="-8.90956"><ele>422.0</ele><time>2026-04-17T07:44:48.863Z</time></trkpt><trkpt lat="42.7410283" lon="-8.90964"><ele>426.5</ele><time>2026-04-17T07:44:52.862Z</time></trkpt><trkpt lat="42.7409583" lon="-8.9097267"><ele>431.0</ele><time>2026-04-17T07:44:53.862Z</time></trkpt><trkpt lat="42.7408467" lon="-8.9098433"><ele>435.5</ele><time>2026-04-17T07:44:54.863Z</time></trkpt><trkpt lat="42.7406783" lon="-8.9099533"><ele>440.0</ele><time>2026-04-17T07:44:55.863Z</time></trkpt><trkpt lat="42.7405267" lon="-8.9100467"><ele>440.3333333333333</ele><time>2026-04-17T07:44:56.863Z</time></trkpt><trkpt lat="42.7403017" lon="-8.9101117"><ele>440.66666666666663</ele><time>2026-04-17T07:44:57.862Z</time></trkpt><trkpt lat="42.740095" lon="-8.9101467"><ele>441.0</ele><time>2026-04-17T07:44:58.862Z</time></trkpt><trkpt lat="42.7399017" lon="-8.910145"><ele>441.0</ele><time>2026-04-17T07:44:59.863Z</time></trkpt><trkpt lat="42.7397133" lon="-8.9101117"><ele>441.0</ele><time>2026-04-17T07:45:00.862Z</time></trkpt><trkpt lat="42.73953" lon="-8.910055"><ele>441.0</ele><time>2026-04-17T07:45:01.863Z</time></trkpt><trkpt lat="42.7393633" lon="-8.9100167"><ele>447.33333333333337</ele><time>2026-04-17T07:45:02.862Z</time></trkpt><trkpt lat="42.7392017" lon="-8.909985"><ele>453.6666666666667</ele><time>2026-04-17T07:45:03.862Z</time></trkpt><trkpt lat="42.739035" lon="-8.9099917"><ele>460.0</ele><time>2026-04-17T07:45:04.862Z</time></trkpt><trkpt lat="42.7388917" lon="-8.9100233"><ele>459.75</ele><time>2026-04-17T07:45:05.863Z</time></trkpt><trkpt lat="42.73875" lon="-8.91009"><ele>459.5</ele><time>2026-04-17T07:45:06.862Z</time></trkpt><trkpt lat="42.7386067" lon="-8.9101583"><ele>459.25</ele><time>2026-04-17T07:45:07.862Z</time></trkpt><trkpt lat="42.73849" lon="-8.910235"><ele>459.0</ele><time>2026-04-17T07:45:08.863Z</time></trkpt><trkpt lat="42.7383883" lon="-8.910325"><ele>462.25</ele><time>2026-04-17T07:45:09.863Z</time></trkpt><trkpt lat="42.7383217" lon="-8.910435"><ele>465.5</ele><time>2026-04-17T07:45:10.863Z</time></trkpt><trkpt lat="42.738245" lon="-8.9105733"><ele>468.75</ele><time>2026-04-17T07:45:11.862Z</time></trkpt><trkpt lat="42.7382017" lon="-8.910755"><ele>472.0</ele><time>2026-04-17T07:45:12.863Z</time></trkpt><trkpt lat="42.7381767" lon="-8.9109767"><ele>472.0</ele><time>2026-04-17T07:45:13.862Z</time></trkpt><trkpt lat="42.7381567" lon="-8.9112117"><ele>472.0</ele><time>2026-04-17T07:45:14.863Z</time></trkpt><trkpt lat="42.7381533" lon="-8.91145"><ele>472.0</ele><time>2026-04-17T07:45:15.862Z</time></trkpt><trkpt lat="42.738165" lon="-8.9116883"><ele>472.6666666666667</ele><time>2026-04-17T07:45:16.862Z</time></trkpt><trkpt lat="42.7381767" lon="-8.9119267"><ele>473.33333333333337</ele><time>2026-04-17T07:45:17.862Z</time></trkpt><trkpt lat="42.7382133" lon="-8.9121483"><ele>474.0</ele><time>2026-04-17T07:45:18.863Z</time></trkpt><trkpt lat="42.738255" lon="-8.9123483"><ele>474.0</ele><time>2026-04-17T07:45:19.862Z</time></trkpt><trkpt lat="42.7383067" lon="-8.9125433"><ele>474.0</ele><time>2026-04-17T07:45:20.862Z</time></trkpt><trkpt lat="42.7383467" lon="-8.9127267"><ele>474.0</ele><time>2026-04-17T07:45:21.863Z</time></trkpt><trkpt lat="42.73837" lon="-8.9129"><ele>474.0</ele><time>2026-04-17T07:45:22.862Z</time></trkpt><trkpt lat="42.7383767" lon="-8.91307"><ele>474.3333333333333</ele><time>2026-04-17T07:45:23.862Z</time></trkpt><trkpt lat="42.7383633" lon="-8.9132167"><ele>474.66666666666663</ele><time>2026-04-17T07:45:24.862Z</time></trkpt><trkpt lat="42.7383483" lon="-8.9133267"><ele>475.0</ele><time>2026-04-17T07:45:25.862Z</time></trkpt><trkpt lat="42.7383383" lon="-8.91342"><ele>475.3333333333333</ele><time>2026-04-17T07:45:26.863Z</time></trkpt><trkpt lat="42.7383033" lon="-8.9135217"><ele>475.66666666666663</ele><time>2026-04-17T07:45:28.863Z</time></trkpt><trkpt lat="42.73823" lon="-8.91348"><ele>476.0</ele><time>2026-04-17T07:45:30.863Z</time></trkpt><trkpt lat="42.7381417" lon="-8.9133617"><ele>476.0</ele><time>2026-04-17T07:45:32.862Z</time></trkpt><trkpt lat="42.738115" lon="-8.91318"><ele>476.0</ele><time>2026-04-17T07:45:33.863Z</time></trkpt><trkpt lat="42.7380767" lon="-8.9130017"><ele>476.0</ele><time>2026-04-17T07:45:34.863Z</time></trkpt><trkpt lat="42.73804" lon="-8.9128217"><ele>476.0</ele><time>2026-04-17T07:45:35.862Z</time></trkpt><trkpt lat="42.7379783" lon="-8.9126567"><ele>475.3333333333333</ele><time>2026-04-17T07:45:36.862Z</time></trkpt><trkpt lat="42.7379017" lon="-8.91249"><ele>474.66666666666663</ele><time>2026-04-17T07:45:37.862Z</time></trkpt><trkpt lat="42.7378267" lon="-8.9122833"><ele>474.0</ele><time>2026-04-17T07:45:38.862Z</time></trkpt><trkpt lat="42.7377283" lon="-8.912075"><ele>484.33333333333337</ele><time>2026-04-17T07:45:39.862Z</time></trkpt><trkpt lat="42.73764" lon="-8.9118767"><ele>494.6666666666667</ele><time>2026-04-17T07:45:40.862Z</time></trkpt><trkpt lat="42.7375617" lon="-8.911675"><ele>505.0</ele><time>2026-04-17T07:45:41.863Z</time></trkpt><trkpt lat="42.7374667" lon="-8.91146"><ele>505.0</ele><time>2026-04-17T07:45:42.864Z</time></trkpt><trkpt lat="42.737375" lon="-8.9112433"><ele>505.0</ele><time>2026-04-17T07:45:43.864Z</time></trkpt><trkpt lat="42.7372867" lon="-8.9110133"><ele>505.0</ele><time>2026-04-17T07:45:44.864Z</time></trkpt><trkpt lat="42.7371983" lon="-8.910795"><ele>503.5</ele><time>2026-04-17T07:45:45.863Z</time></trkpt><trkpt lat="42.7371133" lon="-8.9106117"><ele>502.0</ele><time>2026-04-17T07:45:46.863Z</time></trkpt><trkpt lat="42.7370283" lon="-8.9104617"><ele>500.5</ele><time>2026-04-17T07:45:47.863Z</time></trkpt><trkpt lat="42.7369283" lon="-8.9103317"><ele>499.0</ele><time>2026-04-17T07:45:48.864Z</time></trkpt><trkpt lat="42.7368167" lon="-8.910205"><ele>502.33333333333337</ele><time>2026-04-17T07:45:49.863Z</time></trkpt><trkpt lat="42.7366917" lon="-8.9100817"><ele>505.66666666666663</ele><time>2026-04-17T07:45:50.864Z</time></trkpt><trkpt lat="42.7365433" lon="-8.9099383"><ele>509.0</ele><time>2026-04-17T07:45:51.863Z</time></trkpt><trkpt lat="42.7363883" lon="-8.9097917"><ele>509.0</ele><time>2026-04-17T07:45:52.863Z</time></trkpt><trkpt lat="42.736215" lon="-8.9096533"><ele>509.0</ele><time>2026-04-17T07:45:53.863Z</time></trkpt><trkpt lat="42.7360283" lon="-8.9095067"><ele>509.0</ele><time>2026-04-17T07:45:54.863Z</time></trkpt><trkpt lat="42.7358383" lon="-8.9093833"><ele>509.66666666666663</ele><time>2026-04-17T07:45:55.863Z</time></trkpt><trkpt lat="42.7356817" lon="-8.9092783"><ele>510.33333333333337</ele><time>2026-04-17T07:45:56.863Z</time></trkpt><trkpt lat="42.7355267" lon="-8.9091733"><ele>511.0</ele><time>2026-04-17T07:45:57.864Z</time></trkpt><trkpt lat="42.7353833" lon="-8.9091033"><ele>511.0</ele><time>2026-04-17T07:45:58.864Z</time></trkpt><trkpt lat="42.735255" lon="-8.9090633"><ele>511.0</ele><time>2026-04-17T07:45:59.863Z</time></trkpt><trkpt lat="42.7351" lon="-8.90902"><ele>511.0</ele><time>2026-04-17T07:46:00.864Z</time></trkpt><trkpt lat="42.73495" lon="-8.9089733"><ele>511.0</ele><time>2026-04-17T07:46:01.864Z</time></trkpt><trkpt lat="42.734805" lon="-8.9089283"><ele>517.75</ele><time>2026-04-17T07:46:02.864Z</time></trkpt><trkpt lat="42.734665" lon="-8.9088633"><ele>524.5</ele><time>2026-04-17T07:46:03.863Z</time></trkpt><trkpt lat="42.7345283" lon="-8.908795"><ele>531.25</ele><time>2026-04-17T07:46:04.864Z</time></trkpt><trkpt lat="42.7343883" lon="-8.9087383"><ele>538.0</ele><time>2026-04-17T07:46:05.864Z</time></trkpt><trkpt lat="42.7342533" lon="-8.908705"><ele>542.75</ele><time>2026-04-17T07:46:06.863Z</time></trkpt><trkpt lat="42.7341133" lon="-8.9086967"><ele>547.5</ele><time>2026-04-17T07:46:07.863Z</time></trkpt><trkpt lat="42.7339833" lon="-8.9087133"><ele>552.25</ele><time>2026-04-17T07:46:08.863Z</time></trkpt><trkpt lat="42.7338667" lon="-8.9087383"><ele>557.0</ele><time>2026-04-17T07:46:09.864Z</time></trkpt><trkpt lat="42.7337583" lon="-8.9087533"><ele>557.0</ele><time>2026-04-17T07:46:10.864Z</time></trkpt><trkpt lat="42.7336117" lon="-8.9087433"><ele>557.0</ele><time>2026-04-17T07:46:11.863Z</time></trkpt><trkpt lat="42.7335117" lon="-8.9087217"><ele>557.0</ele><time>2026-04-17T07:46:12.864Z</time></trkpt><trkpt lat="42.7334183" lon="-8.9087067"><ele>557.0</ele><time>2026-04-17T07:46:13.863Z</time></trkpt><trkpt lat="42.7333367" lon="-8.9086917"><ele>557.0</ele><time>2026-04-17T07:46:14.863Z</time></trkpt><trkpt lat="42.733255" lon="-8.9086783"><ele>557.6</ele><time>2026-04-17T07:46:15.863Z</time></trkpt><trkpt lat="42.7331917" lon="-8.9086767"><ele>558.2</ele><time>2026-04-17T07:46:16.863Z</time></trkpt><trkpt lat="42.7330717" lon="-8.90868"><ele>558.8</ele><time>2026-04-17T07:46:18.864Z</time></trkpt><trkpt lat="42.7329683" lon="-8.9086717"><ele>559.4</ele><time>2026-04-17T07:46:20.863Z</time></trkpt><trkpt lat="42.732885" lon="-8.9086283"><ele>560.0</ele><time>2026-04-17T07:46:22.863Z</time></trkpt><trkpt lat="42.7327983" lon="-8.908545"><ele>560.0</ele><time>2026-04-17T07:46:24.863Z</time></trkpt><trkpt lat="42.7327283" lon="-8.9084417"><ele>560.0</ele><time>2026-04-17T07:46:26.863Z</time></trkpt><trkpt lat="42.7326667" lon="-8.9083867"><ele>560.0</ele><time>2026-04-17T07:46:27.863Z</time></trkpt><trkpt lat="42.7326083" lon="-8.9083333"><ele>560.0</ele><time>2026-04-17T07:46:28.864Z</time></trkpt><trkpt lat="42.73251" lon="-8.9082767"><ele>560.0</ele><time>2026-04-17T07:46:30.864Z</time></trkpt><trkpt lat="42.7323917" lon="-8.9082817"><ele>558.6</ele><time>2026-04-17T07:46:32.863Z</time></trkpt><trkpt lat="42.7323267" lon="-8.90828"><ele>557.2</ele><time>2026-04-17T07:46:33.863Z</time></trkpt><trkpt lat="42.7322" lon="-8.908255"><ele>555.8</ele><time>2026-04-17T07:46:35.864Z</time></trkpt><trkpt lat="42.7321033" lon="-8.9081783"><ele>554.4</ele><time>2026-04-17T07:46:37.864Z</time></trkpt><trkpt lat="42.731995" lon="-8.90807"><ele>553.0</ele><time>2026-04-17T07:46:39.864Z</time></trkpt><trkpt lat="42.7319383" lon="-8.9080183"><ele>556.0</ele><time>2026-04-17T07:46:40.863Z</time></trkpt><trkpt lat="42.7318783" lon="-8.9079767"><ele>559.0</ele><time>2026-04-17T07:46:41.864Z</time></trkpt><trkpt lat="42.7318183" lon="-8.9079367"><ele>562.0</ele><time>2026-04-17T07:46:42.863Z</time></trkpt><trkpt lat="42.7317583" lon="-8.9079"><ele>565.0</ele><time>2026-04-17T07:46:43.863Z</time></trkpt><trkpt lat="42.7316983" lon="-8.9078667"><ele>568.0</ele><time>2026-04-17T07:46:44.864Z</time></trkpt><trkpt lat="42.731625" lon="-8.9078283"><ele>571.0</ele><time>2026-04-17T07:46:45.864Z</time></trkpt><trkpt lat="42.73156" lon="-8.9077983"><ele>574.0</ele><time>2026-04-17T07:46:46.863Z</time></trkpt><trkpt lat="42.7314783" lon="-8.9077567"><ele>574.0</ele><time>2026-04-17T07:46:47.864Z</time></trkpt><trkpt lat="42.731405" lon="-8.9077367"><ele>574.0</ele><time>2026-04-17T07:46:48.863Z</time></trkpt><trkpt lat="42.7313333" lon="-8.9077067"><ele>574.0</ele><time>2026-04-17T07:46:49.864Z</time></trkpt><trkpt lat="42.7312617" lon="-8.9076767"><ele>574.0</ele><time>2026-04-17T07:46:50.864Z</time></trkpt><trkpt lat="42.7311933" lon="-8.9076533"><ele>574.0</ele><time>2026-04-17T07:46:51.863Z</time></trkpt><trkpt lat="42.7311217" lon="-8.90763"><ele>574.0</ele><time>2026-04-17T07:46:52.863Z</time></trkpt><trkpt lat="42.73105" lon="-8.9076117"><ele>574.0</ele><time>2026-04-17T07:46:53.863Z</time></trkpt><trkpt lat="42.7309767" lon="-8.9075967"><ele>575.2857142857143</ele><time>2026-04-17T07:46:54.864Z</time></trkpt><trkpt lat="42.7309083" lon="-8.9075833"><ele>576.5714285714286</ele><time>2026-04-17T07:46:55.863Z</time></trkpt><trkpt lat="42.7308383" lon="-8.90757"><ele>577.8571428571429</ele><time>2026-04-17T07:46:56.863Z</time></trkpt><trkpt lat="42.7307633" lon="-8.9075533"><ele>579.1428571428571</ele><time>2026-04-17T07:46:57.863Z</time></trkpt><trkpt lat="42.730695" lon="-8.9075333"><ele>580.4285714285714</ele><time>2026-04-17T07:46:58.864Z</time></trkpt><trkpt lat="42.7306283" lon="-8.9075117"><ele>581.7142857142858</ele><time>2026-04-17T07:46:59.864Z</time></trkpt><trkpt lat="42.73056" lon="-8.9075"><ele>583.0</ele><time>2026-04-17T07:47:00.863Z</time></trkpt><trkpt lat="42.730495" lon="-8.9074867"><ele>582.0</ele><time>2026-04-17T07:47:01.864Z</time></trkpt><trkpt lat="42.7303733" lon="-8.90746"><ele>581.0</ele><time>2026-04-17T07:47:03.863Z</time></trkpt><trkpt lat="42.7302567" lon="-8.9074"><ele>580.0</ele><time>2026-04-17T07:47:05.864Z</time></trkpt><trkpt lat="42.7302" lon="-8.9073583"><ele>579.0</ele><time>2026-04-17T07:47:06.863Z</time></trkpt><trkpt lat="42.730145" lon="-8.90731"><ele>578.0</ele><time>2026-04-17T07:47:07.863Z</time></trkpt><trkpt lat="42.7300567" lon="-8.90722"><ele>578.0</ele><time>2026-04-17T07:47:09.864Z</time></trkpt><trkpt lat="42.73" lon="-8.9071533"><ele>578.0</ele><time>2026-04-17T07:47:10.863Z</time></trkpt><trkpt lat="42.7299417" lon="-8.907105"><ele>578.0</ele><time>2026-04-17T07:47:11.864Z</time></trkpt><trkpt lat="42.7298767" lon="-8.9070733"><ele>578.0</ele><time>2026-04-17T07:47:12.863Z</time></trkpt><trkpt lat="42.72981" lon="-8.9070433"><ele>578.0</ele><time>2026-04-17T07:47:13.863Z</time></trkpt><trkpt lat="42.7297367" lon="-8.9070083"><ele>578.0</ele><time>2026-04-17T07:47:14.864Z</time></trkpt><trkpt lat="42.7296667" lon="-8.9069767"><ele>578.0</ele><time>2026-04-17T07:47:15.863Z</time></trkpt><trkpt lat="42.7296017" lon="-8.9069367"><ele>578.0</ele><time>2026-04-17T07:47:16.863Z</time></trkpt><trkpt lat="42.7295333" lon="-8.906895"><ele>578.0</ele><time>2026-04-17T07:47:17.864Z</time></trkpt><trkpt lat="42.729465" lon="-8.90685"><ele>578.0</ele><time>2026-04-17T07:47:18.863Z</time></trkpt><trkpt lat="42.7293983" lon="-8.9068067"><ele>578.0</ele><time>2026-04-17T07:47:19.864Z</time></trkpt><trkpt lat="42.7293317" lon="-8.9067583"><ele>578.0</ele><time>2026-04-17T07:47:20.864Z</time></trkpt><trkpt lat="42.729265" lon="-8.9067133"><ele>578.0</ele><time>2026-04-17T07:47:21.863Z</time></trkpt><trkpt lat="42.7291967" lon="-8.9066717"><ele>578.0</ele><time>2026-04-17T07:47:22.863Z</time></trkpt><trkpt lat="42.7291283" lon="-8.9066333"><ele>578.4285714285714</ele><time>2026-04-17T07:47:23.863Z</time></trkpt><trkpt lat="42.7290533" lon="-8.9065917"><ele>578.8571428571429</ele><time>2026-04-17T07:47:24.863Z</time></trkpt><trkpt lat="42.7289867" lon="-8.9065533"><ele>579.2857142857142</ele><time>2026-04-17T07:47:25.863Z</time></trkpt><trkpt lat="42.7289217" lon="-8.9065217"><ele>579.7142857142858</ele><time>2026-04-17T07:47:26.863Z</time></trkpt><trkpt lat="42.7288517" lon="-8.9064983"><ele>580.1428571428571</ele><time>2026-04-17T07:47:27.863Z</time></trkpt><trkpt lat="42.72878" lon="-8.9064767"><ele>580.5714285714286</ele><time>2026-04-17T07:47:28.863Z</time></trkpt><trkpt lat="42.7287133" lon="-8.9064683"><ele>581.0</ele><time>2026-04-17T07:47:29.863Z</time></trkpt><trkpt lat="42.728645" lon="-8.9064633"><ele>581.0</ele><time>2026-04-17T07:47:30.863Z</time></trkpt><trkpt lat="42.72858" lon="-8.9064683"><ele>581.0</ele><time>2026-04-17T07:47:31.863Z</time></trkpt><trkpt lat="42.7285117" lon="-8.9064667"><ele>581.0</ele><time>2026-04-17T07:47:32.863Z</time></trkpt><trkpt lat="42.7284017" lon="-8.906475"><ele>581.0</ele><time>2026-04-17T07:47:34.864Z</time></trkpt><trkpt lat="42.7284" lon="-8.9065867"><ele>581.0</ele><time>2026-04-17T07:47:38.863Z</time></trkpt><trkpt lat="42.728475" lon="-8.9067333"><ele>582.1428571428571</ele><time>2026-04-17T07:47:40.864Z</time></trkpt><trkpt lat="42.7285217" lon="-8.9068117"><ele>583.2857142857142</ele><time>2026-04-17T07:47:41.863Z</time></trkpt><trkpt lat="42.7285767" lon="-8.906865"><ele>584.4285714285714</ele><time>2026-04-17T07:47:42.863Z</time></trkpt><trkpt lat="42.7286367" lon="-8.906905"><ele>585.5714285714286</ele><time>2026-04-17T07:47:43.863Z</time></trkpt><trkpt lat="42.7286983" lon="-8.906955"><ele>586.7142857142857</ele><time>2026-04-17T07:47:44.864Z</time></trkpt><trkpt lat="42.7287567" lon="-8.9070017"><ele>587.8571428571429</ele><time>2026-04-17T07:47:45.863Z</time></trkpt><trkpt lat="42.72881" lon="-8.9070483"><ele>589.0</ele><time>2026-04-17T07:47:46.864Z</time></trkpt><trkpt lat="42.72891" lon="-8.9071183"><ele>589.0</ele><time>2026-04-17T07:47:48.863Z</time></trkpt><trkpt lat="42.7290217" lon="-8.90719"><ele>589.0</ele><time>2026-04-17T07:47:50.863Z</time></trkpt><trkpt lat="42.72908" lon="-8.907225"><ele>589.0</ele><time>2026-04-17T07:47:51.864Z</time></trkpt><trkpt lat="42.7291433" lon="-8.9072567"><ele>589.0</ele><time>2026-04-17T07:47:52.863Z</time></trkpt><trkpt lat="42.7292067" lon="-8.9072867"><ele>589.0</ele><time>2026-04-17T07:47:53.864Z</time></trkpt><trkpt lat="42.7292733" lon="-8.9073083"><ele>589.0</ele><time>2026-04-17T07:47:54.864Z</time></trkpt><trkpt lat="42.7293417" lon="-8.907325"><ele>590.2</ele><time>2026-04-17T07:47:55.863Z</time></trkpt><trkpt lat="42.72946" lon="-8.9073617"><ele>591.4</ele><time>2026-04-17T07:47:57.864Z</time></trkpt><trkpt lat="42.7295633" lon="-8.9074067"><ele>592.6</ele><time>2026-04-17T07:47:59.863Z</time></trkpt><trkpt lat="42.7296167" lon="-8.907465"><ele>593.8</ele><time>2026-04-17T07:48:00.863Z</time></trkpt><trkpt lat="42.729705" lon="-8.9075783"><ele>595.0</ele><time>2026-04-17T07:48:02.863Z</time></trkpt><trkpt lat="42.72975" lon="-8.9076417"><ele>595.0</ele><time>2026-04-17T07:48:03.863Z</time></trkpt><trkpt lat="42.7298" lon="-8.90771"><ele>595.0</ele><time>2026-04-17T07:48:04.864Z</time></trkpt><trkpt lat="42.729885" lon="-8.9078167"><ele>595.0</ele><time>2026-04-17T07:48:06.863Z</time></trkpt><trkpt lat="42.7299633" lon="-8.90792"><ele>595.0</ele><time>2026-04-17T07:48:08.863Z</time></trkpt><trkpt lat="42.7300467" lon="-8.9080267"><ele>595.0</ele><time>2026-04-17T07:48:10.864Z</time></trkpt><trkpt lat="42.7301317" lon="-8.9081267"><ele>595.5</ele><time>2026-04-17T07:48:12.864Z</time></trkpt><trkpt lat="42.7302333" lon="-8.908215"><ele>596.0</ele><time>2026-04-17T07:48:14.863Z</time></trkpt><trkpt lat="42.73029" lon="-8.9082617"><ele>596.5</ele><time>2026-04-17T07:48:15.864Z</time></trkpt><trkpt lat="42.7303467" lon="-8.9083083"><ele>597.0</ele><time>2026-04-17T07:48:16.863Z</time></trkpt><trkpt lat="42.7304567" lon="-8.9083667"><ele>597.5</ele><time>2026-04-17T07:48:18.863Z</time></trkpt><trkpt lat="42.7305167" lon="-8.9083983"><ele>598.0</ele><time>2026-04-17T07:48:19.863Z</time></trkpt><trkpt lat="42.7305767" lon="-8.9084267"><ele>598.0</ele><time>2026-04-17T07:48:20.864Z</time></trkpt><trkpt lat="42.73069" lon="-8.9085"><ele>598.0</ele><time>2026-04-17T07:48:22.863Z</time></trkpt><trkpt lat="42.7307417" lon="-8.90855"><ele>598.0</ele><time>2026-04-17T07:48:23.863Z</time></trkpt><trkpt lat="42.7307967" lon="-8.908605"><ele>598.0</ele><time>2026-04-17T07:48:24.864Z</time></trkpt><trkpt lat="42.73085" lon="-8.9086583"><ele>598.0</ele><time>2026-04-17T07:48:25.864Z</time></trkpt><trkpt lat="42.7308983" lon="-8.9087183"><ele>598.0</ele><time>2026-04-17T07:48:26.863Z</time></trkpt><trkpt lat="42.730985" lon="-8.90885"><ele>598.0</ele><time>2026-04-17T07:48:28.864Z</time></trkpt><trkpt lat="42.7310233" lon="-8.908925"><ele>598.0</ele><time>2026-04-17T07:48:29.863Z</time></trkpt><trkpt lat="42.73109" lon="-8.9090683"><ele>598.0</ele><time>2026-04-17T07:48:31.864Z</time></trkpt><trkpt lat="42.7311267" lon="-8.9091483"><ele>598.0</ele><time>2026-04-17T07:48:32.863Z</time></trkpt><trkpt lat="42.7311633" lon="-8.9092233"><ele>598.0</ele><time>2026-04-17T07:48:33.863Z</time></trkpt><trkpt lat="42.731205" lon="-8.9092983"><ele>598.0</ele><time>2026-04-17T07:48:34.864Z</time></trkpt><trkpt lat="42.731245" lon="-8.9093683"><ele>597.75</ele><time>2026-04-17T07:48:35.864Z</time></trkpt><trkpt lat="42.7313333" lon="-8.9095"><ele>597.5</ele><time>2026-04-17T07:48:37.864Z</time></trkpt><trkpt lat="42.73144" lon="-8.9096017"><ele>597.25</ele><time>2026-04-17T07:48:39.864Z</time></trkpt><trkpt lat="42.7315533" lon="-8.9097017"><ele>597.0</ele><time>2026-04-17T07:48:41.863Z</time></trkpt><trkpt lat="42.7316217" lon="-8.90974"><ele>597.0</ele><time>2026-04-17T07:48:42.864Z</time></trkpt><trkpt lat="42.731675" lon="-8.9098017"><ele>597.0</ele><time>2026-04-17T07:48:43.864Z</time></trkpt><trkpt lat="42.731725" lon="-8.9098567"><ele>597.0</ele><time>2026-04-17T07:48:44.864Z</time></trkpt><trkpt lat="42.7317717" lon="-8.9099167"><ele>597.0</ele><time>2026-04-17T07:48:45.864Z</time></trkpt><trkpt lat="42.731815" lon="-8.909985"><ele>597.0</ele><time>2026-04-17T07:48:46.863Z</time></trkpt><trkpt lat="42.7319033" lon="-8.9101183"><ele>597.0</ele><time>2026-04-17T07:48:48.864Z</time></trkpt><trkpt lat="42.7319533" lon="-8.9101917"><ele>595.8571428571429</ele><time>2026-04-17T07:48:49.864Z</time></trkpt><trkpt lat="42.732" lon="-8.9102583"><ele>594.7142857142858</ele><time>2026-04-17T07:48:50.863Z</time></trkpt><trkpt lat="42.7320467" lon="-8.9103183"><ele>593.5714285714286</ele><time>2026-04-17T07:48:51.863Z</time></trkpt><trkpt lat="42.7320967" lon="-8.91038"><ele>592.4285714285714</ele><time>2026-04-17T07:48:52.864Z</time></trkpt><trkpt lat="42.732145" lon="-8.9104417"><ele>591.2857142857142</ele><time>2026-04-17T07:48:53.863Z</time></trkpt><trkpt lat="42.7321933" lon="-8.9104967"><ele>590.1428571428571</ele><time>2026-04-17T07:48:54.864Z</time></trkpt><trkpt lat="42.7322767" lon="-8.9106"><ele>589.0</ele><time>2026-04-17T07:48:56.863Z</time></trkpt><trkpt lat="42.7323183" lon="-8.910665"><ele>589.0</ele><time>2026-04-17T07:48:57.864Z</time></trkpt><trkpt lat="42.7323583" lon="-8.9107483"><ele>589.0</ele><time>2026-04-17T07:48:58.864Z</time></trkpt><trkpt lat="42.7324017" lon="-8.9108167"><ele>589.0</ele><time>2026-04-17T07:48:59.863Z</time></trkpt><trkpt lat="42.7324817" lon="-8.9109333"><ele>589.0</ele><time>2026-04-17T07:49:01.863Z</time></trkpt><trkpt lat="42.73254" lon="-8.9110467"><ele>589.0</ele><time>2026-04-17T07:49:03.863Z</time></trkpt><trkpt lat="42.732625" lon="-8.9111867"><ele>589.1428571428571</ele><time>2026-04-17T07:49:05.864Z</time></trkpt><trkpt lat="42.7326633" lon="-8.9112733"><ele>589.2857142857142</ele><time>2026-04-17T07:49:06.863Z</time></trkpt><trkpt lat="42.7327017" lon="-8.9113617"><ele>589.4285714285714</ele><time>2026-04-17T07:49:07.864Z</time></trkpt><trkpt lat="42.7327417" lon="-8.9114483"><ele>589.5714285714286</ele><time>2026-04-17T07:49:08.864Z</time></trkpt><trkpt lat="42.73278" lon="-8.9115317"><ele>589.7142857142858</ele><time>2026-04-17T07:49:09.863Z</time></trkpt><trkpt lat="42.7328167" lon="-8.9116067"><ele>589.8571428571429</ele><time>2026-04-17T07:49:10.864Z</time></trkpt><trkpt lat="42.7328617" lon="-8.91168"><ele>590.0</ele><time>2026-04-17T07:49:11.864Z</time></trkpt><trkpt lat="42.7329033" lon="-8.9117483"><ele>588.4</ele><time>2026-04-17T07:49:12.864Z</time></trkpt><trkpt lat="42.7329833" lon="-8.9118717"><ele>586.8</ele><time>2026-04-17T07:49:14.864Z</time></trkpt><trkpt lat="42.733045" lon="-8.911985"><ele>585.2</ele><time>2026-04-17T07:49:16.863Z</time></trkpt><trkpt lat="42.733105" lon="-8.912085"><ele>583.6</ele><time>2026-04-17T07:49:18.864Z</time></trkpt><trkpt lat="42.7331633" lon="-8.9121783"><ele>582.0</ele><time>2026-04-17T07:49:20.863Z</time></trkpt><trkpt lat="42.733245" lon="-8.9123167"><ele>582.0</ele><time>2026-04-17T07:49:22.863Z</time></trkpt><trkpt lat="42.733295" lon="-8.9123983"><ele>582.0</ele><time>2026-04-17T07:49:23.864Z</time></trkpt><trkpt lat="42.7333433" lon="-8.91248"><ele>582.0</ele><time>2026-04-17T07:49:24.863Z</time></trkpt><trkpt lat="42.7333867" lon="-8.91256"><ele>582.0</ele><time>2026-04-17T07:49:25.864Z</time></trkpt><trkpt lat="42.73343" lon="-8.91263"><ele>582.0</ele><time>2026-04-17T07:49:26.863Z</time></trkpt><trkpt lat="42.7334833" lon="-8.9127033"><ele>582.0</ele><time>2026-04-17T07:49:27.863Z</time></trkpt><trkpt lat="42.733535" lon="-8.912775"><ele>582.0</ele><time>2026-04-17T07:49:28.864Z</time></trkpt><trkpt lat="42.7335817" lon="-8.9128467"><ele>580.4</ele><time>2026-04-17T07:49:29.864Z</time></trkpt><trkpt lat="42.73363" lon="-8.9129283"><ele>578.8000000000001</ele><time>2026-04-17T07:49:30.863Z</time></trkpt><trkpt lat="42.7336783" lon="-8.91301"><ele>577.2</ele><time>2026-04-17T07:49:31.864Z</time></trkpt><trkpt lat="42.733725" lon="-8.913085"><ele>575.6</ele><time>2026-04-17T07:49:32.863Z</time></trkpt><trkpt lat="42.7337967" lon="-8.9132217"><ele>574.0</ele><time>2026-04-17T07:49:34.863Z</time></trkpt><trkpt lat="42.73389" lon="-8.9133367"><ele>573.1666666666667</ele><time>2026-04-17T07:49:36.864Z</time></trkpt><trkpt lat="42.73398" lon="-8.913455"><ele>572.3333333333334</ele><time>2026-04-17T07:49:38.865Z</time></trkpt><trkpt lat="42.7340383" lon="-8.9135283"><ele>571.5</ele><time>2026-04-17T07:49:39.865Z</time></trkpt><trkpt lat="42.73409" lon="-8.9135833"><ele>570.6666666666666</ele><time>2026-04-17T07:49:40.864Z</time></trkpt><trkpt lat="42.73415" lon="-8.9136367"><ele>569.8333333333333</ele><time>2026-04-17T07:49:41.865Z</time></trkpt><trkpt lat="42.7342167" lon="-8.9136783"><ele>569.0</ele><time>2026-04-17T07:49:42.864Z</time></trkpt><trkpt lat="42.7342867" lon="-8.9137"><ele>569.0</ele><time>2026-04-17T07:49:43.864Z</time></trkpt><trkpt lat="42.73436" lon="-8.91372"><ele>569.0</ele><time>2026-04-17T07:49:44.864Z</time></trkpt><trkpt lat="42.7344367" lon="-8.9137367"><ele>569.0</ele><time>2026-04-17T07:49:45.864Z</time></trkpt><trkpt lat="42.7345083" lon="-8.913755"><ele>569.0</ele><time>2026-04-17T07:49:46.864Z</time></trkpt><trkpt lat="42.734575" lon="-8.9137717"><ele>569.0</ele><time>2026-04-17T07:49:47.864Z</time></trkpt><trkpt lat="42.7346383" lon="-8.913785"><ele>569.0</ele><time>2026-04-17T07:49:48.865Z</time></trkpt><trkpt lat="42.7347567" lon="-8.9138217"><ele>569.3333333333333</ele><time>2026-04-17T07:49:50.864Z</time></trkpt><trkpt lat="42.7348717" lon="-8.9138633"><ele>569.6666666666666</ele><time>2026-04-17T07:49:52.865Z</time></trkpt><trkpt lat="42.7349317" lon="-8.9138933"><ele>570.0</ele><time>2026-04-17T07:49:53.864Z</time></trkpt><trkpt lat="42.735005" lon="-8.91393"><ele>570.3333333333334</ele><time>2026-04-17T07:49:54.864Z</time></trkpt><trkpt lat="42.7350717" lon="-8.9139667"><ele>570.6666666666667</ele><time>2026-04-17T07:49:55.865Z</time></trkpt><trkpt lat="42.73515" lon="-8.913985"><ele>571.0</ele><time>2026-04-17T07:49:56.865Z</time></trkpt><trkpt lat="42.735225" lon="-8.9140117"><ele>569.6666666666667</ele><time>2026-04-17T07:49:57.864Z</time></trkpt><trkpt lat="42.7353117" lon="-8.9140367"><ele>568.3333333333334</ele><time>2026-04-17T07:49:58.864Z</time></trkpt><trkpt lat="42.7353867" lon="-8.91407"><ele>567.0</ele><time>2026-04-17T07:49:59.864Z</time></trkpt><trkpt lat="42.735455" lon="-8.9141"><ele>565.6666666666666</ele><time>2026-04-17T07:50:00.864Z</time></trkpt><trkpt lat="42.7355283" lon="-8.9141167"><ele>564.3333333333333</ele><time>2026-04-17T07:50:01.865Z</time></trkpt><trkpt lat="42.7355967" lon="-8.91415"><ele>563.0</ele><time>2026-04-17T07:50:02.864Z</time></trkpt><trkpt lat="42.7356717" lon="-8.91418"><ele>563.0</ele><time>2026-04-17T07:50:03.864Z</time></trkpt><trkpt lat="42.7357483" lon="-8.914205"><ele>563.0</ele><time>2026-04-17T07:50:04.864Z</time></trkpt><trkpt lat="42.7358233" lon="-8.914235"><ele>563.0</ele><time>2026-04-17T07:50:05.864Z</time></trkpt><trkpt lat="42.7359017" lon="-8.9142517"><ele>563.0</ele><time>2026-04-17T07:50:06.864Z</time></trkpt><trkpt lat="42.7359767" lon="-8.9142733"><ele>563.0</ele><time>2026-04-17T07:50:07.865Z</time></trkpt><trkpt lat="42.73605" lon="-8.9143017"><ele>563.0</ele><time>2026-04-17T07:50:08.864Z</time></trkpt><trkpt lat="42.7361367" lon="-8.9143317"><ele>563.0</ele><time>2026-04-17T07:50:09.864Z</time></trkpt><trkpt lat="42.7362283" lon="-8.9143633"><ele>563.0</ele><time>2026-04-17T07:50:10.865Z</time></trkpt><trkpt lat="42.7363167" lon="-8.9143917"><ele>563.0</ele><time>2026-04-17T07:50:11.864Z</time></trkpt><trkpt lat="42.7363933" lon="-8.9144383"><ele>563.0</ele><time>2026-04-17T07:50:12.864Z</time></trkpt><trkpt lat="42.7364583" lon="-8.914505"><ele>563.0</ele><time>2026-04-17T07:50:13.864Z</time></trkpt><trkpt lat="42.73651" lon="-8.9145833"><ele>563.0</ele><time>2026-04-17T07:50:14.865Z</time></trkpt><trkpt lat="42.736555" lon="-8.9146717"><ele>563.0</ele><time>2026-04-17T07:50:15.864Z</time></trkpt><trkpt lat="42.73659" lon="-8.9147433"><ele>563.0</ele><time>2026-04-17T07:50:16.864Z</time></trkpt><trkpt lat="42.736625" lon="-8.9148233"><ele>563.0</ele><time>2026-04-17T07:50:17.864Z</time></trkpt><trkpt lat="42.7366917" lon="-8.91496"><ele>563.0</ele><time>2026-04-17T07:50:19.864Z</time></trkpt><trkpt lat="42.7367483" lon="-8.915055"><ele>563.0</ele><time>2026-04-17T07:50:21.865Z</time></trkpt><trkpt lat="42.7367833" lon="-8.91515"><ele>563.0</ele><time>2026-04-17T07:50:23.865Z</time></trkpt><trkpt lat="42.7368217" lon="-8.915245"><ele>561.8</ele><time>2026-04-17T07:56:17.865Z</time></trkpt><trkpt lat="42.73687" lon="-8.91532"><ele>560.5999999999999</ele><time>2026-04-17T07:56:19.866Z</time></trkpt><trkpt lat="42.7369183" lon="-8.915465"><ele>559.4000000000001</ele><time>2026-04-17T07:56:21.866Z</time></trkpt><trkpt lat="42.7369417" lon="-8.915615"><ele>558.2</ele><time>2026-04-17T07:56:22.865Z</time></trkpt><trkpt lat="42.7369667" lon="-8.91578"><ele>557.0</ele><time>2026-04-17T07:56:23.865Z</time></trkpt><trkpt lat="42.7370217" lon="-8.9159983"><ele>557.0</ele><time>2026-04-17T07:56:24.865Z</time></trkpt><trkpt lat="42.7370417" lon="-8.9162067"><ele>557.0</ele><time>2026-04-17T07:56:25.866Z</time></trkpt><trkpt lat="42.7370783" lon="-8.916415"><ele>557.0</ele><time>2026-04-17T07:56:26.865Z</time></trkpt><trkpt lat="42.737095" lon="-8.9166017"><ele>556.25</ele><time>2026-04-17T07:56:27.866Z</time></trkpt><trkpt lat="42.7371233" lon="-8.9167867"><ele>555.5</ele><time>2026-04-17T07:56:28.866Z</time></trkpt><trkpt lat="42.7371317" lon="-8.91699"><ele>554.75</ele><time>2026-04-17T07:56:29.865Z</time></trkpt><trkpt lat="42.7371017" lon="-8.9171617"><ele>554.0</ele><time>2026-04-17T07:56:30.865Z</time></trkpt><trkpt lat="42.7370333" lon="-8.9173417"><ele>554.0</ele><time>2026-04-17T07:56:31.865Z</time></trkpt><trkpt lat="42.7368967" lon="-8.91747"><ele>554.0</ele><time>2026-04-17T07:56:32.866Z</time></trkpt><trkpt lat="42.736755" lon="-8.9175317"><ele>554.0</ele><time>2026-04-17T07:56:33.865Z</time></trkpt><trkpt lat="42.73658" lon="-8.9175467"><ele>553.0</ele><time>2026-04-17T07:56:34.866Z</time></trkpt><trkpt lat="42.73639" lon="-8.917535"><ele>552.0</ele><time>2026-04-17T07:56:35.865Z</time></trkpt><trkpt lat="42.73619" lon="-8.91747"><ele>551.0</ele><time>2026-04-17T07:56:36.865Z</time></trkpt><trkpt lat="42.73603" lon="-8.91743"><ele>551.0</ele><time>2026-04-17T07:56:37.866Z</time></trkpt><trkpt lat="42.735875" lon="-8.9173667"><ele>551.0</ele><time>2026-04-17T07:56:38.866Z</time></trkpt><trkpt lat="42.73572" lon="-8.91728"><ele>551.0</ele><time>2026-04-17T07:56:39.865Z</time></trkpt><trkpt lat="42.7355533" lon="-8.9171217"><ele>551.0</ele><time>2026-04-17T07:56:40.865Z</time></trkpt><trkpt lat="42.7354283" lon="-8.9169717"><ele>551.0</ele><time>2026-04-17T07:56:41.866Z</time></trkpt><trkpt lat="42.7353233" lon="-8.9168567"><ele>551.0</ele><time>2026-04-17T07:56:42.866Z</time></trkpt><trkpt lat="42.7351917" lon="-8.9167633"><ele>551.0</ele><time>2026-04-17T07:56:43.866Z</time></trkpt><trkpt lat="42.73501" lon="-8.9166867"><ele>551.0</ele><time>2026-04-17T07:56:44.866Z</time></trkpt><trkpt lat="42.7348083" lon="-8.9165933"><ele>551.0</ele><time>2026-04-17T07:56:45.866Z</time></trkpt><trkpt lat="42.7346267" lon="-8.916485"><ele>551.0</ele><time>2026-04-17T07:56:46.865Z</time></trkpt><trkpt lat="42.7344667" lon="-8.9164033"><ele>551.0</ele><time>2026-04-17T07:56:47.866Z</time></trkpt><trkpt lat="42.73433" lon="-8.916375"><ele>551.0</ele><time>2026-04-17T07:56:48.866Z</time></trkpt><trkpt lat="42.7341933" lon="-8.916345"><ele>551.0</ele><time>2026-04-17T07:56:49.865Z</time></trkpt><trkpt lat="42.7340583" lon="-8.91633"><ele>548.0</ele><time>2026-04-17T07:56:50.865Z</time></trkpt><trkpt lat="42.7339317" lon="-8.916295"><ele>545.0</ele><time>2026-04-17T07:56:51.865Z</time></trkpt><trkpt lat="42.7337917" lon="-8.916235"><ele>542.0</ele><time>2026-04-17T07:56:52.865Z</time></trkpt><trkpt lat="42.7336283" lon="-8.916165"><ele>539.0</ele><time>2026-04-17T07:56:53.866Z</time></trkpt><trkpt lat="42.7334767" lon="-8.9160733"><ele>537.6666666666666</ele><time>2026-04-17T07:56:54.866Z</time></trkpt><trkpt lat="42.7333117" lon="-8.9159767"><ele>536.3333333333334</ele><time>2026-04-17T07:56:55.865Z</time></trkpt><trkpt lat="42.73317" lon="-8.9159033"><ele>535.0</ele><time>2026-04-17T07:56:56.866Z</time></trkpt><trkpt lat="42.7330383" lon="-8.915865"><ele>537.4</ele><time>2026-04-17T07:56:57.865Z</time></trkpt><trkpt lat="42.7329183" lon="-8.9158333"><ele>539.8</ele><time>2026-04-17T07:56:58.865Z</time></trkpt><trkpt lat="42.73282" lon="-8.9158117"><ele>542.2</ele><time>2026-04-17T07:56:59.865Z</time></trkpt><trkpt lat="42.732745" lon="-8.9157933"><ele>544.6</ele><time>2026-04-17T07:57:00.866Z</time></trkpt><trkpt lat="42.7326717" lon="-8.91579"><ele>547.0</ele><time>2026-04-17T07:57:01.866Z</time></trkpt><trkpt lat="42.7325883" lon="-8.915815"><ele>544.6</ele><time>2026-04-17T07:57:03.865Z</time></trkpt><trkpt lat="42.73261" lon="-8.91592"><ele>542.2</ele><time>2026-04-17T07:57:05.865Z</time></trkpt><trkpt lat="42.73265" lon="-8.9160133"><ele>539.8</ele><time>2026-04-17T07:57:06.865Z</time></trkpt><trkpt lat="42.73272" lon="-8.9161483"><ele>537.4</ele><time>2026-04-17T07:57:07.865Z</time></trkpt><trkpt lat="42.732775" lon="-8.916295"><ele>535.0</ele><time>2026-04-17T07:57:08.865Z</time></trkpt><trkpt lat="42.7328317" lon="-8.9164517"><ele>535.0</ele><time>2026-04-17T07:57:09.866Z</time></trkpt><trkpt lat="42.7328767" lon="-8.9166033"><ele>535.0</ele><time>2026-04-17T07:57:10.865Z</time></trkpt><trkpt lat="42.7329117" lon="-8.916765"><ele>535.0</ele><time>2026-04-17T07:57:11.865Z</time></trkpt><trkpt lat="42.7329517" lon="-8.9169317"><ele>535.0</ele><time>2026-04-17T07:57:12.865Z</time></trkpt><trkpt lat="42.732995" lon="-8.9171267"><ele>533.3333333333334</ele><time>2026-04-17T07:57:13.865Z</time></trkpt><trkpt lat="42.7330283" lon="-8.9173333"><ele>531.6666666666666</ele><time>2026-04-17T07:57:14.865Z</time></trkpt><trkpt lat="42.7330383" lon="-8.9175517"><ele>530.0</ele><time>2026-04-17T07:57:15.865Z</time></trkpt><trkpt lat="42.73304" lon="-8.9177567"><ele>530.0</ele><time>2026-04-17T07:57:16.865Z</time></trkpt><trkpt lat="42.7330317" lon="-8.9179733"><ele>530.0</ele><time>2026-04-17T07:57:17.865Z</time></trkpt><trkpt lat="42.7329933" lon="-8.9181617"><ele>530.0</ele><time>2026-04-17T07:57:18.866Z</time></trkpt><trkpt lat="42.7329417" lon="-8.9183283"><ele>530.0</ele><time>2026-04-17T07:57:19.865Z</time></trkpt><trkpt lat="42.7328883" lon="-8.9185067"><ele>530.5</ele><time>2026-04-17T07:57:20.865Z</time></trkpt><trkpt lat="42.7328317" lon="-8.9186733"><ele>531.0</ele><time>2026-04-17T07:57:21.866Z</time></trkpt><trkpt lat="42.7327717" lon="-8.91883"><ele>531.5</ele><time>2026-04-17T07:57:22.866Z</time></trkpt><trkpt lat="42.7327283" lon="-8.9189917"><ele>532.0</ele><time>2026-04-17T07:57:23.866Z</time></trkpt><trkpt lat="42.7326967" lon="-8.91913"><ele>532.1666666666667</ele><time>2026-04-17T07:57:24.865Z</time></trkpt><trkpt lat="42.7326783" lon="-8.9192433"><ele>532.3333333333334</ele><time>2026-04-17T07:57:25.865Z</time></trkpt><trkpt lat="42.7326883" lon="-8.9193917"><ele>532.5</ele><time>2026-04-17T07:57:27.865Z</time></trkpt><trkpt lat="42.7327283" lon="-8.9194683"><ele>532.6666666666666</ele><time>2026-04-17T07:57:28.865Z</time></trkpt><trkpt lat="42.7327867" lon="-8.91956"><ele>532.8333333333333</ele><time>2026-04-17T07:57:29.865Z</time></trkpt><trkpt lat="42.7328233" lon="-8.9196617"><ele>533.0</ele><time>2026-04-17T07:57:30.867Z</time></trkpt><trkpt lat="42.7328483" lon="-8.9197767"><ele>533.0</ele><time>2026-04-17T07:57:31.867Z</time></trkpt><trkpt lat="42.7328583" lon="-8.91992"><ele>533.0</ele><time>2026-04-17T07:57:32.866Z</time></trkpt><trkpt lat="42.73285" lon="-8.9200867"><ele>533.0</ele><time>2026-04-17T07:57:33.866Z</time></trkpt><trkpt lat="42.7328383" lon="-8.9202883"><ele>533.0</ele><time>2026-04-17T07:57:34.866Z</time></trkpt><trkpt lat="42.7328433" lon="-8.9204667"><ele>533.75</ele><time>2026-04-17T07:57:35.866Z</time></trkpt><trkpt lat="42.732855" lon="-8.9206283"><ele>534.5</ele><time>2026-04-17T07:57:36.866Z</time></trkpt><trkpt lat="42.7328867" lon="-8.92078"><ele>535.25</ele><time>2026-04-17T07:57:37.867Z</time></trkpt><trkpt lat="42.73292" lon="-8.9209483"><ele>536.0</ele><time>2026-04-17T07:57:38.866Z</time></trkpt><trkpt lat="42.7329867" lon="-8.9211183"><ele>536.6666666666666</ele><time>2026-04-17T07:57:39.866Z</time></trkpt><trkpt lat="42.7330617" lon="-8.92131"><ele>537.3333333333334</ele><time>2026-04-17T07:57:40.867Z</time></trkpt><trkpt lat="42.7331367" lon="-8.9215017"><ele>538.0</ele><time>2026-04-17T07:57:41.866Z</time></trkpt><trkpt lat="42.73321" lon="-8.9216783"><ele>542.0</ele><time>2026-04-17T07:57:42.866Z</time></trkpt><trkpt lat="42.7332783" lon="-8.921865"><ele>546.0</ele><time>2026-04-17T07:57:43.867Z</time></trkpt><trkpt lat="42.7333517" lon="-8.9220533"><ele>550.0</ele><time>2026-04-17T07:57:44.867Z</time></trkpt><trkpt lat="42.7334333" lon="-8.92223"><ele>550.0</ele><time>2026-04-17T07:57:45.867Z</time></trkpt><trkpt lat="42.73352" lon="-8.9223867"><ele>550.0</ele><time>2026-04-17T07:57:46.867Z</time></trkpt><trkpt lat="42.7336017" lon="-8.9225383"><ele>550.0</ele><time>2026-04-17T07:57:47.866Z</time></trkpt><trkpt lat="42.7336733" lon="-8.922685"><ele>550.0</ele><time>2026-04-17T07:57:48.867Z</time></trkpt><trkpt lat="42.73373" lon="-8.9228417"><ele>544.0</ele><time>2026-04-17T07:57:49.867Z</time></trkpt><trkpt lat="42.7337883" lon="-8.9229917"><ele>538.0</ele><time>2026-04-17T07:57:50.867Z</time></trkpt><trkpt lat="42.7338283" lon="-8.9231617"><ele>532.0</ele><time>2026-04-17T07:57:51.867Z</time></trkpt><trkpt lat="42.7338633" lon="-8.92336"><ele>526.0</ele><time>2026-04-17T07:57:52.867Z</time></trkpt><trkpt lat="42.7338833" lon="-8.92359"><ele>526.0</ele><time>2026-04-17T07:57:53.867Z</time></trkpt><trkpt lat="42.7339333" lon="-8.92382"><ele>526.0</ele><time>2026-04-17T07:57:54.866Z</time></trkpt><trkpt lat="42.733975" lon="-8.92402"><ele>526.0</ele><time>2026-04-17T07:57:55.866Z</time></trkpt><trkpt lat="42.7340083" lon="-8.924195"><ele>525.75</ele><time>2026-04-17T07:57:56.866Z</time></trkpt><trkpt lat="42.7340183" lon="-8.9243517"><ele>525.5</ele><time>2026-04-17T07:57:57.867Z</time></trkpt><trkpt lat="42.7340333" lon="-8.9245283"><ele>525.25</ele><time>2026-04-17T07:57:58.867Z</time></trkpt><trkpt lat="42.7340367" lon="-8.9247233"><ele>525.0</ele><time>2026-04-17T07:57:59.867Z</time></trkpt><trkpt lat="42.7340267" lon="-8.924915"><ele>522.4</ele><time>2026-04-17T07:58:00.867Z</time></trkpt><trkpt lat="42.7340017" lon="-8.9250867"><ele>519.8</ele><time>2026-04-17T07:58:01.866Z</time></trkpt><trkpt lat="42.7339683" lon="-8.9252333"><ele>517.2</ele><time>2026-04-17T07:58:02.866Z</time></trkpt><trkpt lat="42.7339133" lon="-8.92535"><ele>514.6</ele><time>2026-04-17T07:58:03.866Z</time></trkpt><trkpt lat="42.7338417" lon="-8.925445"><ele>512.0</ele><time>2026-04-17T07:58:04.867Z</time></trkpt><trkpt lat="42.733755" lon="-8.9255117"><ele>512.0</ele><time>2026-04-17T07:58:05.866Z</time></trkpt><trkpt lat="42.7336467" lon="-8.9255683"><ele>512.0</ele><time>2026-04-17T07:58:06.867Z</time></trkpt><trkpt lat="42.7335283" lon="-8.9256133"><ele>512.0</ele><time>2026-04-17T07:58:07.866Z</time></trkpt><trkpt lat="42.73338" lon="-8.925665"><ele>512.0</ele><time>2026-04-17T07:58:08.867Z</time></trkpt><trkpt lat="42.7332317" lon="-8.92572"><ele>514.75</ele><time>2026-04-17T07:58:09.867Z</time></trkpt><trkpt lat="42.7330883" lon="-8.925785"><ele>517.5</ele><time>2026-04-17T07:58:10.867Z</time></trkpt><trkpt lat="42.7329567" lon="-8.9258383"><ele>520.25</ele><time>2026-04-17T07:58:11.866Z</time></trkpt><trkpt lat="42.7328433" lon="-8.9258833"><ele>523.0</ele><time>2026-04-17T07:58:12.867Z</time></trkpt><trkpt lat="42.7327683" lon="-8.9259283"><ele>527.8</ele><time>2026-04-17T07:58:13.866Z</time></trkpt><trkpt lat="42.7326917" lon="-8.9260433"><ele>532.5999999999999</ele><time>2026-04-17T07:58:15.867Z</time></trkpt><trkpt lat="42.7326967" lon="-8.9261517"><ele>537.4000000000001</ele><time>2026-04-17T07:58:16.867Z</time></trkpt><trkpt lat="42.732715" lon="-8.9263117"><ele>542.2</ele><time>2026-04-17T07:58:17.866Z</time></trkpt><trkpt lat="42.7327167" lon="-8.9264633"><ele>547.0</ele><time>2026-04-17T07:58:18.866Z</time></trkpt><trkpt lat="42.732695" lon="-8.9265967"><ele>547.0</ele><time>2026-04-17T07:58:19.867Z</time></trkpt><trkpt lat="42.7326317" lon="-8.9266967"><ele>547.0</ele><time>2026-04-17T07:58:20.866Z</time></trkpt><trkpt lat="42.7325383" lon="-8.926785"><ele>547.0</ele><time>2026-04-17T07:58:21.867Z</time></trkpt><trkpt lat="42.73242" lon="-8.9268733"><ele>547.0</ele><time>2026-04-17T07:58:22.867Z</time></trkpt><trkpt lat="42.7322817" lon="-8.9269717"><ele>540.6666666666667</ele><time>2026-04-17T07:58:23.866Z</time></trkpt><trkpt lat="42.73215" lon="-8.9270933"><ele>534.3333333333334</ele><time>2026-04-17T07:58:24.867Z</time></trkpt><trkpt lat="42.7320433" lon="-8.9272317"><ele>528.0</ele><time>2026-04-17T07:58:25.866Z</time></trkpt><trkpt lat="42.731955" lon="-8.9273933"><ele>534.6666666666666</ele><time>2026-04-17T07:58:26.866Z</time></trkpt><trkpt lat="42.7318833" lon="-8.9276133"><ele>541.3333333333333</ele><time>2026-04-17T07:58:27.866Z</time></trkpt><trkpt lat="42.7318317" lon="-8.9278767"><ele>548.0</ele><time>2026-04-17T07:58:28.867Z</time></trkpt><trkpt lat="42.7317667" lon="-8.9281483"><ele>546.3333333333333</ele><time>2026-04-17T07:58:29.866Z</time></trkpt><trkpt lat="42.7317033" lon="-8.928425"><ele>544.6666666666666</ele><time>2026-04-17T07:58:30.866Z</time></trkpt><trkpt lat="42.73166" lon="-8.9286917"><ele>543.0</ele><time>2026-04-17T07:58:31.867Z</time></trkpt><trkpt lat="42.731625" lon="-8.9289283"><ele>543.0</ele><time>2026-04-17T07:58:32.867Z</time></trkpt><trkpt lat="42.731605" lon="-8.9291233"><ele>543.0</ele><time>2026-04-17T07:58:33.866Z</time></trkpt><trkpt lat="42.7316033" lon="-8.929325"><ele>543.0</ele><time>2026-04-17T07:58:34.866Z</time></trkpt><trkpt lat="42.7316033" lon="-8.929555"><ele>541.3333333333334</ele><time>2026-04-17T07:58:35.867Z</time></trkpt><trkpt lat="42.7316167" lon="-8.9297883"><ele>539.6666666666667</ele><time>2026-04-17T07:58:36.866Z</time></trkpt><trkpt lat="42.7316483" lon="-8.930015"><ele>538.0</ele><time>2026-04-17T07:58:37.866Z</time></trkpt><trkpt lat="42.7316617" lon="-8.9302283"><ele>537.0</ele><time>2026-04-17T07:58:38.867Z</time></trkpt><trkpt lat="42.7316717" lon="-8.93044"><ele>536.0</ele><time>2026-04-17T07:58:39.866Z</time></trkpt><trkpt lat="42.73169" lon="-8.9306467"><ele>535.0</ele><time>2026-04-17T07:58:40.866Z</time></trkpt><trkpt lat="42.73171" lon="-8.9308483"><ele>534.0</ele><time>2026-04-17T07:58:41.866Z</time></trkpt><trkpt lat="42.731735" lon="-8.9310617"><ele>533.0</ele><time>2026-04-17T07:58:42.866Z</time></trkpt><trkpt lat="42.7317567" lon="-8.93129"><ele>532.0</ele><time>2026-04-17T07:58:43.866Z</time></trkpt><trkpt lat="42.7317717" lon="-8.9315183"><ele>529.6666666666667</ele><time>2026-04-17T07:58:44.867Z</time></trkpt><trkpt lat="42.7317867" lon="-8.9317483"><ele>527.3333333333334</ele><time>2026-04-17T07:58:45.866Z</time></trkpt><trkpt lat="42.731795" lon="-8.9319783"><ele>525.0</ele><time>2026-04-17T07:58:46.867Z</time></trkpt><trkpt lat="42.7317917" lon="-8.93221"><ele>525.0</ele><time>2026-04-17T07:58:47.867Z</time></trkpt><trkpt lat="42.731765" lon="-8.93244"><ele>525.0</ele><time>2026-04-17T07:58:48.866Z</time></trkpt><trkpt lat="42.731735" lon="-8.932655"><ele>525.0</ele><time>2026-04-17T07:58:49.866Z</time></trkpt><trkpt lat="42.731695" lon="-8.9328517"><ele>521.6666666666666</ele><time>2026-04-17T07:58:50.867Z</time></trkpt><trkpt lat="42.7316183" lon="-8.9330483"><ele>518.3333333333333</ele><time>2026-04-17T07:58:51.866Z</time></trkpt><trkpt lat="42.7315233" lon="-8.9332467"><ele>515.0</ele><time>2026-04-17T07:58:52.866Z</time></trkpt><trkpt lat="42.7314183" lon="-8.9333833"><ele>512.75</ele><time>2026-04-17T07:58:53.867Z</time></trkpt><trkpt lat="42.7313083" lon="-8.93349"><ele>510.5</ele><time>2026-04-17T07:58:54.866Z</time></trkpt><trkpt lat="42.7311917" lon="-8.9335483"><ele>508.25</ele><time>2026-04-17T07:58:55.866Z</time></trkpt><trkpt lat="42.73106" lon="-8.9335767"><ele>506.0</ele><time>2026-04-17T07:58:56.867Z</time></trkpt><trkpt lat="42.730915" lon="-8.9335833"><ele>506.0</ele><time>2026-04-17T07:58:57.867Z</time></trkpt><trkpt lat="42.7307533" lon="-8.9335833"><ele>506.0</ele><time>2026-04-17T07:58:58.867Z</time></trkpt><trkpt lat="42.7305733" lon="-8.9336"><ele>506.0</ele><time>2026-04-17T07:58:59.867Z</time></trkpt><trkpt lat="42.7303717" lon="-8.9336117"><ele>510.3333333333333</ele><time>2026-04-17T07:59:00.866Z</time></trkpt><trkpt lat="42.7301867" lon="-8.9336217"><ele>514.6666666666666</ele><time>2026-04-17T07:59:01.866Z</time></trkpt><trkpt lat="42.7300083" lon="-8.933635"><ele>519.0</ele><time>2026-04-17T07:59:02.867Z</time></trkpt><trkpt lat="42.72983" lon="-8.9336667"><ele>519.0</ele><time>2026-04-17T07:59:03.867Z</time></trkpt><trkpt lat="42.72965" lon="-8.9336983"><ele>519.0</ele><time>2026-04-17T07:59:04.867Z</time></trkpt><trkpt lat="42.7294533" lon="-8.9337583"><ele>519.0</ele><time>2026-04-17T07:59:05.867Z</time></trkpt><trkpt lat="42.72926" lon="-8.93381"><ele>522.0</ele><time>2026-04-17T07:59:06.866Z</time></trkpt><trkpt lat="42.7290817" lon="-8.9338583"><ele>525.0</ele><time>2026-04-17T07:59:07.867Z</time></trkpt><trkpt lat="42.7289" lon="-8.9339083"><ele>528.0</ele><time>2026-04-17T07:59:08.866Z</time></trkpt><trkpt lat="42.7287217" lon="-8.9339567"><ele>531.3333333333334</ele><time>2026-04-17T07:59:09.866Z</time></trkpt><trkpt lat="42.728535" lon="-8.9340183"><ele>534.6666666666667</ele><time>2026-04-17T07:59:10.866Z</time></trkpt><trkpt lat="42.72834" lon="-8.9340833"><ele>538.0</ele><time>2026-04-17T07:59:11.867Z</time></trkpt><trkpt lat="42.7281567" lon="-8.9341367"><ele>538.0</ele><time>2026-04-17T07:59:12.866Z</time></trkpt><trkpt lat="42.72796" lon="-8.9341733"><ele>538.0</ele><time>2026-04-17T07:59:13.866Z</time></trkpt><trkpt lat="42.727775" lon="-8.9342"><ele>538.0</ele><time>2026-04-17T07:59:14.866Z</time></trkpt><trkpt lat="42.7275917" lon="-8.9342033"><ele>538.3333333333334</ele><time>2026-04-17T07:59:15.866Z</time></trkpt><trkpt lat="42.7274217" lon="-8.9341767"><ele>538.6666666666666</ele><time>2026-04-17T07:59:16.866Z</time></trkpt><trkpt lat="42.7272717" lon="-8.9341367"><ele>539.0</ele><time>2026-04-17T07:59:17.867Z</time></trkpt><trkpt lat="42.7271383" lon="-8.9340933"><ele>539.0</ele><time>2026-04-17T07:59:18.867Z</time></trkpt><trkpt lat="42.727025" lon="-8.934025"><ele>539.0</ele><time>2026-04-17T07:59:19.866Z</time></trkpt><trkpt lat="42.7269217" lon="-8.9339317"><ele>539.0</ele><time>2026-04-17T07:59:20.866Z</time></trkpt><trkpt lat="42.7268167" lon="-8.93377"><ele>539.0</ele><time>2026-04-17T07:59:21.867Z</time></trkpt><trkpt lat="42.7267117" lon="-8.933565"><ele>539.6666666666666</ele><time>2026-04-17T07:59:22.866Z</time></trkpt><trkpt lat="42.7265933" lon="-8.933335"><ele>540.3333333333334</ele><time>2026-04-17T07:59:23.867Z</time></trkpt><trkpt lat="42.7264733" lon="-8.9330767"><ele>541.0</ele><time>2026-04-17T07:59:24.867Z</time></trkpt><trkpt lat="42.7263417" lon="-8.9327983"><ele>548.5</ele><time>2026-04-17T07:59:25.866Z</time></trkpt><trkpt lat="42.7262167" lon="-8.9325267"><ele>556.0</ele><time>2026-04-17T07:59:26.866Z</time></trkpt><trkpt lat="42.7260783" lon="-8.9322683"><ele>552.0</ele><time>2026-04-17T07:59:27.867Z</time></trkpt><trkpt lat="42.7259533" lon="-8.9320383"><ele>548.0</ele><time>2026-04-17T07:59:28.866Z</time></trkpt><trkpt lat="42.7258233" lon="-8.9318483"><ele>544.0</ele><time>2026-04-17T07:59:29.866Z</time></trkpt><trkpt lat="42.725695" lon="-8.931655"><ele>544.0</ele><time>2026-04-17T07:59:30.867Z</time></trkpt><trkpt lat="42.725565" lon="-8.9314633"><ele>544.0</ele><time>2026-04-17T07:59:31.867Z</time></trkpt><trkpt lat="42.7254533" lon="-8.931265"><ele>544.0</ele><time>2026-04-17T07:59:32.867Z</time></trkpt><trkpt lat="42.7253467" lon="-8.93108"><ele>544.0</ele><time>2026-04-17T07:59:33.866Z</time></trkpt><trkpt lat="42.725255" lon="-8.9309783"><ele>544.0</ele><time>2026-04-17T07:59:34.866Z</time></trkpt><trkpt lat="42.7251717" lon="-8.9308767"><ele>544.0</ele><time>2026-04-17T07:59:35.866Z</time></trkpt><trkpt lat="42.7250767" lon="-8.9308117"><ele>544.0</ele><time>2026-04-17T07:59:36.867Z</time></trkpt><trkpt lat="42.7249783" lon="-8.9307967"><ele>544.0</ele><time>2026-04-17T07:59:37.866Z</time></trkpt><trkpt lat="42.72485" lon="-8.9307517"><ele>542.0</ele><time>2026-04-17T07:59:38.867Z</time></trkpt><trkpt lat="42.7247167" lon="-8.9306767"><ele>540.0</ele><time>2026-04-17T07:59:39.866Z</time></trkpt><trkpt lat="42.7245767" lon="-8.9305683"><ele>538.0</ele><time>2026-04-17T07:59:40.866Z</time></trkpt><trkpt lat="42.724435" lon="-8.9304133"><ele>541.0</ele><time>2026-04-17T07:59:41.866Z</time></trkpt><trkpt lat="42.7242933" lon="-8.93024"><ele>544.0</ele><time>2026-04-17T07:59:42.866Z</time></trkpt><trkpt lat="42.7241583" lon="-8.9300817"><ele>547.0</ele><time>2026-04-17T07:59:43.867Z</time></trkpt><trkpt lat="42.7240333" lon="-8.9299167"><ele>547.0</ele><time>2026-04-17T07:59:44.867Z</time></trkpt><trkpt lat="42.7238967" lon="-8.9297683"><ele>547.0</ele><time>2026-04-17T07:59:45.867Z</time></trkpt><trkpt lat="42.7237783" lon="-8.9296533"><ele>547.0</ele><time>2026-04-17T07:59:46.866Z</time></trkpt><trkpt lat="42.72367" lon="-8.9296333"><ele>547.0</ele><time>2026-04-17T07:59:47.866Z</time></trkpt><trkpt lat="42.7235617" lon="-8.929615"><ele>544.75</ele><time>2026-04-17T07:59:48.867Z</time></trkpt><trkpt lat="42.723455" lon="-8.9296717"><ele>542.5</ele><time>2026-04-17T07:59:49.866Z</time></trkpt><trkpt lat="42.7233533" lon="-8.9297683"><ele>540.25</ele><time>2026-04-17T07:59:50.867Z</time></trkpt><trkpt lat="42.72325" lon="-8.929855"><ele>538.0</ele><time>2026-04-17T07:59:51.866Z</time></trkpt><trkpt lat="42.7231133" lon="-8.9299133"><ele>538.0</ele><time>2026-04-17T07:59:52.867Z</time></trkpt><trkpt lat="42.722975" lon="-8.929945"><ele>538.0</ele><time>2026-04-17T07:59:53.866Z</time></trkpt><trkpt lat="42.7228333" lon="-8.9299483"><ele>538.0</ele><time>2026-04-17T07:59:54.867Z</time></trkpt><trkpt lat="42.7227067" lon="-8.9299433"><ele>538.0</ele><time>2026-04-17T07:59:55.867Z</time></trkpt><trkpt lat="42.72261" lon="-8.9299483"><ele>536.1666666666667</ele><time>2026-04-17T07:59:56.867Z</time></trkpt><trkpt lat="42.7225417" lon="-8.9299683"><ele>534.3333333333334</ele><time>2026-04-17T07:59:57.866Z</time></trkpt><trkpt lat="42.722485" lon="-8.9300267"><ele>532.5</ele><time>2026-04-17T07:59:58.867Z</time></trkpt><trkpt lat="42.7224583" lon="-8.93014"><ele>530.6666666666666</ele><time>2026-04-17T07:59:59.866Z</time></trkpt><trkpt lat="42.72243" lon="-8.9302767"><ele>528.8333333333333</ele><time>2026-04-17T08:00:00.866Z</time></trkpt><trkpt lat="42.722385" lon="-8.930395"><ele>527.0</ele><time>2026-04-17T08:00:01.866Z</time></trkpt><trkpt lat="42.7223167" lon="-8.93049"><ele>527.0</ele><time>2026-04-17T08:00:02.866Z</time></trkpt><trkpt lat="42.7222033" lon="-8.93055"><ele>527.0</ele><time>2026-04-17T08:00:03.866Z</time></trkpt><trkpt lat="42.7220567" lon="-8.9305917"><ele>527.0</ele><time>2026-04-17T08:00:04.866Z</time></trkpt><trkpt lat="42.721925" lon="-8.9305733"><ele>527.0</ele><time>2026-04-17T08:00:05.866Z</time></trkpt><trkpt lat="42.7217833" lon="-8.93055"><ele>527.0</ele><time>2026-04-17T08:00:06.866Z</time></trkpt><trkpt lat="42.7216383" lon="-8.930525"><ele>527.0</ele><time>2026-04-17T08:00:07.866Z</time></trkpt><trkpt lat="42.721495" lon="-8.9304783"><ele>527.0</ele><time>2026-04-17T08:00:08.867Z</time></trkpt><trkpt lat="42.72135" lon="-8.9304167"><ele>527.0</ele><time>2026-04-17T08:00:09.866Z</time></trkpt><trkpt lat="42.721205" lon="-8.9303367"><ele>527.0</ele><time>2026-04-17T08:00:10.867Z</time></trkpt><trkpt lat="42.7210783" lon="-8.9302717"><ele>527.0</ele><time>2026-04-17T08:00:11.866Z</time></trkpt><trkpt lat="42.720975" lon="-8.930255"><ele>527.0</ele><time>2026-04-17T08:00:12.866Z</time></trkpt><trkpt lat="42.7209083" lon="-8.9302367"><ele>527.0</ele><time>2026-04-17T08:00:13.867Z</time></trkpt><trkpt lat="42.7207917" lon="-8.9302333"><ele>527.0</ele><time>2026-04-17T08:00:15.866Z</time></trkpt><trkpt lat="42.72073" lon="-8.9302533"><ele>526.5</ele><time>2026-04-17T08:00:16.867Z</time></trkpt><trkpt lat="42.7206617" lon="-8.9302917"><ele>526.0</ele><time>2026-04-17T08:00:17.866Z</time></trkpt><trkpt lat="42.7205883" lon="-8.93034"><ele>525.5</ele><time>2026-04-17T08:00:18.866Z</time></trkpt><trkpt lat="42.72051" lon="-8.9303983"><ele>525.0</ele><time>2026-04-17T08:00:19.867Z</time></trkpt><trkpt lat="42.7204283" lon="-8.930465"><ele>524.5</ele><time>2026-04-17T08:00:20.866Z</time></trkpt><trkpt lat="42.7203483" lon="-8.9305367"><ele>524.0</ele><time>2026-04-17T08:00:21.866Z</time></trkpt><trkpt lat="42.720275" lon="-8.930595"><ele>522.8571428571429</ele><time>2026-04-17T08:00:22.866Z</time></trkpt><trkpt lat="42.7201983" lon="-8.93063"><ele>521.7142857142858</ele><time>2026-04-17T08:00:23.867Z</time></trkpt><trkpt lat="42.7201283" lon="-8.93064"><ele>520.5714285714286</ele><time>2026-04-17T08:00:24.867Z</time></trkpt><trkpt lat="42.7200617" lon="-8.9306483"><ele>519.4285714285714</ele><time>2026-04-17T08:00:25.867Z</time></trkpt><trkpt lat="42.7199783" lon="-8.93067"><ele>518.2857142857142</ele><time>2026-04-17T08:00:27.866Z</time></trkpt><trkpt lat="42.7199933" lon="-8.93077"><ele>517.1428571428571</ele><time>2026-04-17T08:00:29.866Z</time></trkpt><trkpt lat="42.720045" lon="-8.930835"><ele>516.0</ele><time>2026-04-17T08:00:30.866Z</time></trkpt><trkpt lat="42.7201233" lon="-8.9309133"><ele>512.5</ele><time>2026-04-17T08:00:31.867Z</time></trkpt><trkpt lat="42.7202133" lon="-8.9309833"><ele>509.0</ele><time>2026-04-17T08:00:32.866Z</time></trkpt><trkpt lat="42.7203433" lon="-8.9310467"><ele>505.5</ele><time>2026-04-17T08:00:33.866Z</time></trkpt><trkpt lat="42.7204567" lon="-8.9310883"><ele>502.0</ele><time>2026-04-17T08:00:34.867Z</time></trkpt><trkpt lat="42.7205533" lon="-8.93111"><ele>502.0</ele><time>2026-04-17T08:00:35.866Z</time></trkpt><trkpt lat="42.7206417" lon="-8.9311317"><ele>502.00000000000006</ele><time>2026-04-17T08:00:36.867Z</time></trkpt><trkpt lat="42.720715" lon="-8.9311683"><ele>502.00000000000006</ele><time>2026-04-17T08:00:37.866Z</time></trkpt><trkpt lat="42.7207867" lon="-8.931235"><ele>502.0</ele><time>2026-04-17T08:00:38.867Z</time></trkpt><trkpt lat="42.72085" lon="-8.9313283"><ele>502.0</ele><time>2026-04-17T08:00:39.867Z</time></trkpt><trkpt lat="42.72092" lon="-8.931435"><ele>502.0</ele><time>2026-04-17T08:00:40.867Z</time></trkpt><trkpt lat="42.7210067" lon="-8.931555"><ele>502.0</ele><time>2026-04-17T08:00:41.866Z</time></trkpt><trkpt lat="42.721095" lon="-8.9316783"><ele>502.0</ele><time>2026-04-17T08:00:42.867Z</time></trkpt><trkpt lat="42.721185" lon="-8.9318017"><ele>502.0</ele><time>2026-04-17T08:00:43.867Z</time></trkpt><trkpt lat="42.7212767" lon="-8.9319133"><ele>496.75</ele><time>2026-04-17T08:00:44.866Z</time></trkpt><trkpt lat="42.7213633" lon="-8.9320133"><ele>491.5</ele><time>2026-04-17T08:00:45.867Z</time></trkpt><trkpt lat="42.7214617" lon="-8.932115"><ele>486.25</ele><time>2026-04-17T08:00:46.867Z</time></trkpt><trkpt lat="42.7215767" lon="-8.9322183"><ele>481.0</ele><time>2026-04-17T08:00:47.866Z</time></trkpt><trkpt lat="42.7216983" lon="-8.9323033"><ele>481.0</ele><time>2026-04-17T08:00:48.867Z</time></trkpt><trkpt lat="42.7218317" lon="-8.9323817"><ele>481.0</ele><time>2026-04-17T08:00:49.866Z</time></trkpt><trkpt lat="42.72195" lon="-8.9324517"><ele>481.0</ele><time>2026-04-17T08:00:50.867Z</time></trkpt><trkpt lat="42.7220683" lon="-8.9325183"><ele>481.0</ele><time>2026-04-17T08:00:51.867Z</time></trkpt><trkpt lat="42.7221783" lon="-8.9325733"><ele>476.20000000000005</ele><time>2026-04-17T08:00:52.867Z</time></trkpt><trkpt lat="42.7222867" lon="-8.9326267"><ele>471.40000000000003</ele><time>2026-04-17T08:00:53.866Z</time></trkpt><trkpt lat="42.7223983" lon="-8.9326433"><ele>466.6</ele><time>2026-04-17T08:00:54.867Z</time></trkpt><trkpt lat="42.72251" lon="-8.9326633"><ele>461.8</ele><time>2026-04-17T08:00:55.866Z</time></trkpt><trkpt lat="42.722615" lon="-8.9326783"><ele>457.0</ele><time>2026-04-17T08:00:56.867Z</time></trkpt><trkpt lat="42.7227183" lon="-8.93268"><ele>456.8</ele><time>2026-04-17T08:00:57.866Z</time></trkpt><trkpt lat="42.72283" lon="-8.9326733"><ele>456.6</ele><time>2026-04-17T08:00:58.866Z</time></trkpt><trkpt lat="42.722935" lon="-8.9326783"><ele>456.40000000000003</ele><time>2026-04-17T08:00:59.866Z</time></trkpt><trkpt lat="42.7230167" lon="-8.93269"><ele>456.20000000000005</ele><time>2026-04-17T08:01:00.867Z</time></trkpt><trkpt lat="42.723105" lon="-8.9327383"><ele>456.0</ele><time>2026-04-17T08:01:02.866Z</time></trkpt><trkpt lat="42.723085" lon="-8.9328233"><ele>456.0</ele><time>2026-04-17T08:01:05.866Z</time></trkpt><trkpt lat="42.7229833" lon="-8.9329283"><ele>456.0</ele><time>2026-04-17T08:01:07.866Z</time></trkpt><trkpt lat="42.7229" lon="-8.9330033"><ele>456.0</ele><time>2026-04-17T08:01:08.866Z</time></trkpt><trkpt lat="42.722715" lon="-8.93315"><ele>456.0</ele><time>2026-04-17T08:01:09.866Z</time></trkpt><trkpt lat="42.7225533" lon="-8.93331"><ele>448.33333333333337</ele><time>2026-04-17T08:01:10.866Z</time></trkpt><trkpt lat="42.7223633" lon="-8.9334533"><ele>440.6666666666667</ele><time>2026-04-17T08:01:11.867Z</time></trkpt><trkpt lat="42.72221" lon="-8.9335733"><ele>433.0</ele><time>2026-04-17T08:01:12.866Z</time></trkpt><trkpt lat="42.7220783" lon="-8.9336767"><ele>433.0</ele><time>2026-04-17T08:01:13.867Z</time></trkpt><trkpt lat="42.7219667" lon="-8.9337633"><ele>432.99999999999994</ele><time>2026-04-17T08:01:14.866Z</time></trkpt><trkpt lat="42.7218767" lon="-8.9338333"><ele>432.99999999999994</ele><time>2026-04-17T08:01:15.866Z</time></trkpt><trkpt lat="42.721795" lon="-8.93387"><ele>433.0</ele><time>2026-04-17T08:01:16.867Z</time></trkpt><trkpt lat="42.7217183" lon="-8.9338833"><ele>433.0</ele><time>2026-04-17T08:01:17.866Z</time></trkpt><trkpt lat="42.7216317" lon="-8.933895"><ele>433.33333333333337</ele><time>2026-04-17T08:01:18.866Z</time></trkpt><trkpt lat="42.721545" lon="-8.9339067"><ele>433.6666666666667</ele><time>2026-04-17T08:01:19.867Z</time></trkpt><trkpt lat="42.7214567" lon="-8.9339133"><ele>434.0</ele><time>2026-04-17T08:01:20.866Z</time></trkpt><trkpt lat="42.7213717" lon="-8.9339117"><ele>434.33333333333337</ele><time>2026-04-17T08:01:21.866Z</time></trkpt><trkpt lat="42.7213" lon="-8.9338917"><ele>434.6666666666667</ele><time>2026-04-17T08:01:22.867Z</time></trkpt><trkpt lat="42.7212233" lon="-8.933855"><ele>435.0</ele><time>2026-04-17T08:01:23.866Z</time></trkpt><trkpt lat="42.7211583" lon="-8.9338433"><ele>435.0</ele><time>2026-04-17T08:01:24.866Z</time></trkpt><trkpt lat="42.7210667" lon="-8.93387"><ele>435.0</ele><time>2026-04-17T08:01:26.867Z</time></trkpt><trkpt lat="42.7209917" lon="-8.9339933"><ele>435.0</ele><time>2026-04-17T08:01:28.868Z</time></trkpt><trkpt lat="42.7209433" lon="-8.934105"><ele>435.0</ele><time>2026-04-17T08:01:29.868Z</time></trkpt><trkpt lat="42.7208833" lon="-8.9342167"><ele>435.0</ele><time>2026-04-17T08:01:30.867Z</time></trkpt><trkpt lat="42.7208017" lon="-8.9343283"><ele>431.5</ele><time>2026-04-17T08:01:31.867Z</time></trkpt><trkpt lat="42.7207433" lon="-8.9344483"><ele>428.0</ele><time>2026-04-17T08:01:32.867Z</time></trkpt><trkpt lat="42.7206733" lon="-8.9345267"><ele>424.5</ele><time>2026-04-17T08:01:33.867Z</time></trkpt><trkpt lat="42.7206117" lon="-8.9345983"><ele>421.0</ele><time>2026-04-17T08:01:34.867Z</time></trkpt><trkpt lat="42.72055" lon="-8.9346367"><ele>417.5</ele><time>2026-04-17T08:01:35.867Z</time></trkpt><trkpt lat="42.720465" lon="-8.9346967"><ele>414.0</ele><time>2026-04-17T08:01:37.867Z</time></trkpt><trkpt lat="42.72046" lon="-8.9348133"><ele>414.0</ele><time>2026-04-17T08:01:41.867Z</time></trkpt><trkpt lat="42.7205067" lon="-8.9348883"><ele>414.0</ele><time>2026-04-17T08:01:42.868Z</time></trkpt><trkpt lat="42.7205817" lon="-8.9349817"><ele>414.0</ele><time>2026-04-17T08:01:43.868Z</time></trkpt><trkpt lat="42.7206667" lon="-8.935065"><ele>414.0</ele><time>2026-04-17T08:01:44.868Z</time></trkpt><trkpt lat="42.7207767" lon="-8.9351333"><ele>414.0</ele><time>2026-04-17T08:01:45.868Z</time></trkpt><trkpt lat="42.7208567" lon="-8.9351917"><ele>409.79999999999995</ele><time>2026-04-17T08:01:46.868Z</time></trkpt><trkpt lat="42.7209633" lon="-8.9352333"><ele>405.59999999999997</ele><time>2026-04-17T08:01:47.867Z</time></trkpt><trkpt lat="42.72107" lon="-8.935275"><ele>401.4</ele><time>2026-04-17T08:01:48.867Z</time></trkpt><trkpt lat="42.7211733" lon="-8.93529"><ele>397.2</ele><time>2026-04-17T08:01:49.867Z</time></trkpt><trkpt lat="42.721295" lon="-8.9353117"><ele>393.0</ele><time>2026-04-17T08:01:50.867Z</time></trkpt><trkpt lat="42.7214233" lon="-8.9353383"><ele>393.0</ele><time>2026-04-17T08:01:51.868Z</time></trkpt><trkpt lat="42.7215483" lon="-8.9353883"><ele>393.0</ele><time>2026-04-17T08:01:52.867Z</time></trkpt><trkpt lat="42.7216833" lon="-8.9354433"><ele>393.0</ele><time>2026-04-17T08:01:53.867Z</time></trkpt><trkpt lat="42.7218033" lon="-8.9354833"><ele>393.0</ele><time>2026-04-17T08:01:54.867Z</time></trkpt><trkpt lat="42.72193" lon="-8.9354933"><ele>393.79999999999995</ele><time>2026-04-17T08:01:55.867Z</time></trkpt><trkpt lat="42.72205" lon="-8.9354883"><ele>394.6</ele><time>2026-04-17T08:01:56.868Z</time></trkpt><trkpt lat="42.72215" lon="-8.93545"><ele>395.4</ele><time>2026-04-17T08:01:57.867Z</time></trkpt><trkpt lat="42.7222367" lon="-8.9354283"><ele>396.20000000000005</ele><time>2026-04-17T08:01:58.868Z</time></trkpt><trkpt lat="42.7223167" lon="-8.9354233"><ele>397.0</ele><time>2026-04-17T08:01:59.868Z</time></trkpt><trkpt lat="42.7223967" lon="-8.9354367"><ele>397.0</ele><time>2026-04-17T08:02:00.868Z</time></trkpt><trkpt lat="42.7224683" lon="-8.9354867"><ele>397.0</ele><time>2026-04-17T08:02:01.867Z</time></trkpt><trkpt lat="42.72254" lon="-8.9355933"><ele>397.0</ele><time>2026-04-17T08:02:02.867Z</time></trkpt><trkpt lat="42.72264" lon="-8.9356867"><ele>397.0</ele><time>2026-04-17T08:02:03.868Z</time></trkpt><trkpt lat="42.7227417" lon="-8.93577"><ele>397.0</ele><time>2026-04-17T08:02:04.868Z</time></trkpt><trkpt lat="42.7228317" lon="-8.935835"><ele>396.6</ele><time>2026-04-17T08:02:05.867Z</time></trkpt><trkpt lat="42.7229117" lon="-8.935915"><ele>396.20000000000005</ele><time>2026-04-17T08:02:06.867Z</time></trkpt><trkpt lat="42.7229783" lon="-8.9360083"><ele>395.8</ele><time>2026-04-17T08:02:07.867Z</time></trkpt><trkpt lat="42.723045" lon="-8.936105"><ele>395.4</ele><time>2026-04-17T08:02:08.867Z</time></trkpt><trkpt lat="42.7231" lon="-8.9362317"><ele>395.0</ele><time>2026-04-17T08:02:09.867Z</time></trkpt><trkpt lat="42.723145" lon="-8.9363867"><ele>395.0</ele><time>2026-04-17T08:02:10.867Z</time></trkpt><trkpt lat="42.7231983" lon="-8.9365733"><ele>395.0</ele><time>2026-04-17T08:02:11.867Z</time></trkpt><trkpt lat="42.7232433" lon="-8.9367533"><ele>395.0</ele><time>2026-04-17T08:02:12.867Z</time></trkpt><trkpt lat="42.7233117" lon="-8.936935"><ele>395.0</ele><time>2026-04-17T08:02:13.867Z</time></trkpt><trkpt lat="42.72337" lon="-8.937105"><ele>395.25</ele><time>2026-04-17T08:02:14.867Z</time></trkpt><trkpt lat="42.723445" lon="-8.9372617"><ele>395.5</ele><time>2026-04-17T08:02:15.868Z</time></trkpt><trkpt lat="42.7235333" lon="-8.9373933"><ele>395.75</ele><time>2026-04-17T08:02:16.867Z</time></trkpt><trkpt lat="42.7236317" lon="-8.9375183"><ele>396.0</ele><time>2026-04-17T08:02:17.867Z</time></trkpt><trkpt lat="42.7237383" lon="-8.93765"><ele>383.3333333333333</ele><time>2026-04-17T08:02:18.867Z</time></trkpt><trkpt lat="42.7238633" lon="-8.9377783"><ele>370.66666666666663</ele><time>2026-04-17T08:02:19.867Z</time></trkpt><trkpt lat="42.7239967" lon="-8.9379117"><ele>358.0</ele><time>2026-04-17T08:02:20.867Z</time></trkpt><trkpt lat="42.7241367" lon="-8.9380533"><ele>358.0</ele><time>2026-04-17T08:02:21.867Z</time></trkpt><trkpt lat="42.72428" lon="-8.93819"><ele>358.0</ele><time>2026-04-17T08:02:22.868Z</time></trkpt><trkpt lat="42.7244083" lon="-8.938325"><ele>358.0</ele><time>2026-04-17T08:02:23.868Z</time></trkpt><trkpt lat="42.72453" lon="-8.9384667"><ele>357.25</ele><time>2026-04-17T08:02:24.868Z</time></trkpt><trkpt lat="42.724635" lon="-8.9385917"><ele>356.5</ele><time>2026-04-17T08:02:25.868Z</time></trkpt><trkpt lat="42.7247333" lon="-8.938705"><ele>355.75</ele><time>2026-04-17T08:02:26.868Z</time></trkpt><trkpt lat="42.7248333" lon="-8.9388283"><ele>355.0</ele><time>2026-04-17T08:02:27.868Z</time></trkpt><trkpt lat="42.7249333" lon="-8.938975"><ele>355.0</ele><time>2026-04-17T08:02:28.868Z</time></trkpt><trkpt lat="42.7250383" lon="-8.9391133"><ele>355.0</ele><time>2026-04-17T08:02:29.867Z</time></trkpt><trkpt lat="42.7251267" lon="-8.9392483"><ele>355.0</ele><time>2026-04-17T08:02:30.868Z</time></trkpt><trkpt lat="42.72521" lon="-8.93936"><ele>355.0</ele><time>2026-04-17T08:02:31.867Z</time></trkpt><trkpt lat="42.7252833" lon="-8.9394383"><ele>352.0</ele><time>2026-04-17T08:02:32.867Z</time></trkpt><trkpt lat="42.7253717" lon="-8.9395067"><ele>349.0</ele><time>2026-04-17T08:02:33.867Z</time></trkpt><trkpt lat="42.72547" lon="-8.939575"><ele>346.0</ele><time>2026-04-17T08:02:34.867Z</time></trkpt><trkpt lat="42.7255783" lon="-8.93964"><ele>343.0</ele><time>2026-04-17T08:02:35.867Z</time></trkpt><trkpt lat="42.7256967" lon="-8.9397033"><ele>343.0</ele><time>2026-04-17T08:02:36.867Z</time></trkpt><trkpt lat="42.725825" lon="-8.939775"><ele>343.0</ele><time>2026-04-17T08:02:37.867Z</time></trkpt><trkpt lat="42.7259717" lon="-8.939845"><ele>343.0</ele><time>2026-04-17T08:02:38.868Z</time></trkpt><trkpt lat="42.7261217" lon="-8.9399167"><ele>346.0</ele><time>2026-04-17T08:02:39.867Z</time></trkpt><trkpt lat="42.7262817" lon="-8.9399683"><ele>349.0</ele><time>2026-04-17T08:02:40.867Z</time></trkpt><trkpt lat="42.7264233" lon="-8.939995"><ele>352.0</ele><time>2026-04-17T08:02:41.868Z</time></trkpt><trkpt lat="42.7265567" lon="-8.9400117"><ele>355.0</ele><time>2026-04-17T08:02:42.868Z</time></trkpt><trkpt lat="42.7266733" lon="-8.9400217"><ele>355.0</ele><time>2026-04-17T08:02:43.868Z</time></trkpt><trkpt lat="42.726785" lon="-8.9400317"><ele>355.0</ele><time>2026-04-17T08:02:44.867Z</time></trkpt><trkpt lat="42.7268733" lon="-8.9400333"><ele>355.0</ele><time>2026-04-17T08:02:45.868Z</time></trkpt><trkpt lat="42.726945" lon="-8.9400233"><ele>355.0</ele><time>2026-04-17T08:02:46.867Z</time></trkpt><trkpt lat="42.7270533" lon="-8.9399933"><ele>355.0</ele><time>2026-04-17T08:02:48.868Z</time></trkpt><trkpt lat="42.7271517" lon="-8.939935"><ele>355.0</ele><time>2026-04-17T08:02:50.868Z</time></trkpt><trkpt lat="42.7272133" lon="-8.9398983"><ele>355.0</ele><time>2026-04-17T08:02:52.867Z</time></trkpt><trkpt lat="42.7272667" lon="-8.93981"><ele>355.0</ele><time>2026-04-17T08:02:56.867Z</time></trkpt><trkpt lat="42.7273217" lon="-8.93973"><ele>355.0</ele><time>2026-04-17T08:02:58.867Z</time></trkpt><trkpt lat="42.7274167" lon="-8.9396367"><ele>355.0</ele><time>2026-04-17T08:03:00.868Z</time></trkpt><trkpt lat="42.727475" lon="-8.939585"><ele>355.0</ele><time>2026-04-17T08:03:01.867Z</time></trkpt><trkpt lat="42.7275333" lon="-8.9395467"><ele>355.0</ele><time>2026-04-17T08:03:02.867Z</time></trkpt><trkpt lat="42.7276" lon="-8.9394967"><ele>355.0</ele><time>2026-04-17T08:03:03.867Z</time></trkpt><trkpt lat="42.727675" lon="-8.93944"><ele>355.0</ele><time>2026-04-17T08:03:04.868Z</time></trkpt><trkpt lat="42.7277617" lon="-8.9393833"><ele>355.0</ele><time>2026-04-17T08:03:05.868Z</time></trkpt><trkpt lat="42.7278533" lon="-8.9393333"><ele>355.0</ele><time>2026-04-17T08:03:06.868Z</time></trkpt><trkpt lat="42.7279583" lon="-8.9392767"><ele>364.0</ele><time>2026-04-17T08:03:07.867Z</time></trkpt><trkpt lat="42.72808" lon="-8.9392167"><ele>373.0</ele><time>2026-04-17T08:03:08.867Z</time></trkpt><trkpt lat="42.7282133" lon="-8.9391817"><ele>382.0</ele><time>2026-04-17T08:03:09.868Z</time></trkpt><trkpt lat="42.7283833" lon="-8.939115"><ele>391.0</ele><time>2026-04-17T08:03:10.867Z</time></trkpt><trkpt lat="42.7285417" lon="-8.93906"><ele>388.75</ele><time>2026-04-17T08:03:11.867Z</time></trkpt><trkpt lat="42.7286783" lon="-8.9389983"><ele>386.5</ele><time>2026-04-17T08:03:12.868Z</time></trkpt><trkpt lat="42.7288083" lon="-8.9389383"><ele>384.25</ele><time>2026-04-17T08:03:13.867Z</time></trkpt><trkpt lat="42.7289317" lon="-8.938875"><ele>382.0</ele><time>2026-04-17T08:03:14.868Z</time></trkpt><trkpt lat="42.7290567" lon="-8.9388133"><ele>382.0</ele><time>2026-04-17T08:03:15.868Z</time></trkpt><trkpt lat="42.7291783" lon="-8.93877"><ele>382.0</ele><time>2026-04-17T08:03:16.868Z</time></trkpt><trkpt lat="42.7293" lon="-8.9387567"><ele>382.0</ele><time>2026-04-17T08:03:17.867Z</time></trkpt><trkpt lat="42.7294333" lon="-8.9387467"><ele>382.0</ele><time>2026-04-17T08:03:18.868Z</time></trkpt><trkpt lat="42.7295717" lon="-8.93874"><ele>379.0</ele><time>2026-04-17T08:03:19.867Z</time></trkpt><trkpt lat="42.72971" lon="-8.9387167"><ele>376.0</ele><time>2026-04-17T08:03:20.868Z</time></trkpt><trkpt lat="42.729845" lon="-8.9386667"><ele>373.0</ele><time>2026-04-17T08:03:21.867Z</time></trkpt><trkpt lat="42.729985" lon="-8.938585"><ele>370.0</ele><time>2026-04-17T08:03:22.867Z</time></trkpt><trkpt lat="42.7301317" lon="-8.9384867"><ele>367.5</ele><time>2026-04-17T08:03:23.868Z</time></trkpt><trkpt lat="42.7302733" lon="-8.9384033"><ele>365.0</ele><time>2026-04-17T08:03:24.868Z</time></trkpt><trkpt lat="42.7304067" lon="-8.9383283"><ele>362.5</ele><time>2026-04-17T08:03:25.868Z</time></trkpt><trkpt lat="42.730515" lon="-8.9382917"><ele>360.0</ele><time>2026-04-17T08:03:26.867Z</time></trkpt><trkpt lat="42.73059" lon="-8.9382767"><ele>360.0</ele><time>2026-04-17T08:03:27.868Z</time></trkpt><trkpt lat="42.73066" lon="-8.9382783"><ele>360.0</ele><time>2026-04-17T08:03:28.868Z</time></trkpt><trkpt lat="42.730765" lon="-8.9382917"><ele>360.0</ele><time>2026-04-17T08:03:30.868Z</time></trkpt><trkpt lat="42.7308283" lon="-8.938315"><ele>360.0</ele><time>2026-04-17T08:03:31.867Z</time></trkpt><trkpt lat="42.7309133" lon="-8.9383683"><ele>360.0</ele><time>2026-04-17T08:03:32.868Z</time></trkpt><trkpt lat="42.7310267" lon="-8.938445"><ele>362.0</ele><time>2026-04-17T08:03:33.867Z</time></trkpt><trkpt lat="42.7311517" lon="-8.9385317"><ele>364.0</ele><time>2026-04-17T08:03:34.868Z</time></trkpt><trkpt lat="42.73128" lon="-8.9386367"><ele>366.0</ele><time>2026-04-17T08:03:35.867Z</time></trkpt><trkpt lat="42.73142" lon="-8.9387533"><ele>366.0</ele><time>2026-04-17T08:03:36.868Z</time></trkpt><trkpt lat="42.7315383" lon="-8.9388983"><ele>366.0</ele><time>2026-04-17T08:03:37.867Z</time></trkpt><trkpt lat="42.7316567" lon="-8.93906"><ele>366.0</ele><time>2026-04-17T08:03:38.868Z</time></trkpt><trkpt lat="42.7317783" lon="-8.93925"><ele>362.6666666666667</ele><time>2026-04-17T08:03:39.867Z</time></trkpt><trkpt lat="42.7319033" lon="-8.93942"><ele>359.33333333333337</ele><time>2026-04-17T08:03:40.867Z</time></trkpt><trkpt lat="42.7320233" lon="-8.939565"><ele>356.0</ele><time>2026-04-17T08:03:41.868Z</time></trkpt><trkpt lat="42.7321583" lon="-8.939685"><ele>356.0</ele><time>2026-04-17T08:03:42.868Z</time></trkpt><trkpt lat="42.7322917" lon="-8.9397767"><ele>356.0</ele><time>2026-04-17T08:03:43.867Z</time></trkpt><trkpt lat="42.7324383" lon="-8.939845"><ele>356.0</ele><time>2026-04-17T08:03:44.868Z</time></trkpt><trkpt lat="42.7325817" lon="-8.93988"><ele>354.75</ele><time>2026-04-17T08:03:45.867Z</time></trkpt><trkpt lat="42.73273" lon="-8.9399033"><ele>353.5</ele><time>2026-04-17T08:03:46.868Z</time></trkpt><trkpt lat="42.73286" lon="-8.939885"><ele>352.25</ele><time>2026-04-17T08:03:47.867Z</time></trkpt><trkpt lat="42.7329917" lon="-8.9398317"><ele>351.0</ele><time>2026-04-17T08:03:48.868Z</time></trkpt><trkpt lat="42.7331333" lon="-8.9397733"><ele>351.0</ele><time>2026-04-17T08:03:49.868Z</time></trkpt><trkpt lat="42.7332717" lon="-8.93969"><ele>351.0</ele><time>2026-04-17T08:03:50.867Z</time></trkpt><trkpt lat="42.7333817" lon="-8.9395867"><ele>351.0</ele><time>2026-04-17T08:03:51.868Z</time></trkpt><trkpt lat="42.7335083" lon="-8.9394633"><ele>351.0</ele><time>2026-04-17T08:03:52.868Z</time></trkpt><trkpt lat="42.7336083" lon="-8.9393533"><ele>348.25</ele><time>2026-04-17T08:03:53.868Z</time></trkpt><trkpt lat="42.7337033" lon="-8.9392217"><ele>345.5</ele><time>2026-04-17T08:03:54.868Z</time></trkpt><trkpt lat="42.7337883" lon="-8.93906"><ele>342.75</ele><time>2026-04-17T08:03:55.867Z</time></trkpt><trkpt lat="42.7338483" lon="-8.9388933"><ele>340.0</ele><time>2026-04-17T08:03:56.868Z</time></trkpt><trkpt lat="42.7339167" lon="-8.93872"><ele>340.0</ele><time>2026-04-17T08:03:57.868Z</time></trkpt><trkpt lat="42.73401" lon="-8.9385567"><ele>340.0</ele><time>2026-04-17T08:03:58.868Z</time></trkpt><trkpt lat="42.7341183" lon="-8.9384083"><ele>340.0</ele><time>2026-04-17T08:03:59.868Z</time></trkpt><trkpt lat="42.73424" lon="-8.9382767"><ele>341.0</ele><time>2026-04-17T08:04:00.867Z</time></trkpt><trkpt lat="42.73438" lon="-8.9381567"><ele>342.0</ele><time>2026-04-17T08:04:01.868Z</time></trkpt><trkpt lat="42.7345217" lon="-8.9380383"><ele>343.0</ele><time>2026-04-17T08:04:02.868Z</time></trkpt><trkpt lat="42.7346817" lon="-8.9379633"><ele>343.0</ele><time>2026-04-17T08:04:03.868Z</time></trkpt><trkpt lat="42.7348417" lon="-8.9378983"><ele>343.0</ele><time>2026-04-17T08:04:04.867Z</time></trkpt><trkpt lat="42.734995" lon="-8.937845"><ele>343.0</ele><time>2026-04-17T08:04:05.868Z</time></trkpt><trkpt lat="42.7351633" lon="-8.9377767"><ele>337.3333333333333</ele><time>2026-04-17T08:04:06.867Z</time></trkpt><trkpt lat="42.73533" lon="-8.93771"><ele>331.6666666666667</ele><time>2026-04-17T08:04:07.867Z</time></trkpt><trkpt lat="42.7355017" lon="-8.937635"><ele>326.0</ele><time>2026-04-17T08:04:08.868Z</time></trkpt><trkpt lat="42.7356717" lon="-8.93756"><ele>331.0</ele><time>2026-04-17T08:04:09.867Z</time></trkpt><trkpt lat="42.735815" lon="-8.9374567"><ele>336.0</ele><time>2026-04-17T08:04:10.867Z</time></trkpt><trkpt lat="42.7359367" lon="-8.9373433"><ele>341.0</ele><time>2026-04-17T08:04:11.867Z</time></trkpt><trkpt lat="42.736045" lon="-8.9372133"><ele>339.0</ele><time>2026-04-17T08:04:12.867Z</time></trkpt><trkpt lat="42.7361333" lon="-8.937055"><ele>337.0</ele><time>2026-04-17T08:04:13.867Z</time></trkpt><trkpt lat="42.7362017" lon="-8.9368867"><ele>335.0</ele><time>2026-04-17T08:04:14.868Z</time></trkpt><trkpt lat="42.7362567" lon="-8.9366883"><ele>333.0</ele><time>2026-04-17T08:04:15.867Z</time></trkpt><trkpt lat="42.7362517" lon="-8.9365233"><ele>333.0</ele><time>2026-04-17T08:04:16.868Z</time></trkpt><trkpt lat="42.7362283" lon="-8.9363583"><ele>333.0</ele><time>2026-04-17T08:04:17.867Z</time></trkpt><trkpt lat="42.7362033" lon="-8.936205"><ele>333.0</ele><time>2026-04-17T08:04:18.868Z</time></trkpt><trkpt lat="42.7361883" lon="-8.936"><ele>333.0</ele><time>2026-04-17T08:04:19.868Z</time></trkpt><trkpt lat="42.7361467" lon="-8.935795"><ele>332.3333333333333</ele><time>2026-04-17T08:04:20.867Z</time></trkpt><trkpt lat="42.7361033" lon="-8.93557"><ele>331.66666666666663</ele><time>2026-04-17T08:04:21.868Z</time></trkpt><trkpt lat="42.736055" lon="-8.9353933"><ele>331.0</ele><time>2026-04-17T08:04:22.867Z</time></trkpt><trkpt lat="42.7360067" lon="-8.9352083"><ele>337.66666666666663</ele><time>2026-04-17T08:04:23.867Z</time></trkpt><trkpt lat="42.73595" lon="-8.9350317"><ele>344.3333333333333</ele><time>2026-04-17T08:04:24.868Z</time></trkpt><trkpt lat="42.73588" lon="-8.934845"><ele>351.0</ele><time>2026-04-17T08:04:25.868Z</time></trkpt><trkpt lat="42.7356933" lon="-8.9347167"><ele>351.0</ele><time>2026-04-17T08:04:26.867Z</time></trkpt><trkpt lat="42.7355767" lon="-8.934525"><ele>351.0</ele><time>2026-04-17T08:04:27.868Z</time></trkpt><trkpt lat="42.7355117" lon="-8.9343317"><ele>351.0</ele><time>2026-04-17T08:04:28.867Z</time></trkpt><trkpt lat="42.7354567" lon="-8.9341583"><ele>348.5</ele><time>2026-04-17T08:04:29.867Z</time></trkpt><trkpt lat="42.735425" lon="-8.93398"><ele>346.0</ele><time>2026-04-17T08:04:30.868Z</time></trkpt><trkpt lat="42.7354" lon="-8.9337817"><ele>343.5</ele><time>2026-04-17T08:04:31.868Z</time></trkpt><trkpt lat="42.7354117" lon="-8.9335833"><ele>341.0</ele><time>2026-04-17T08:04:32.867Z</time></trkpt><trkpt lat="42.73543" lon="-8.9333717"><ele>340.6666666666667</ele><time>2026-04-17T08:04:33.868Z</time></trkpt><trkpt lat="42.7354533" lon="-8.9331433"><ele>340.3333333333333</ele><time>2026-04-17T08:04:34.867Z</time></trkpt><trkpt lat="42.7355167" lon="-8.9329233"><ele>340.0</ele><time>2026-04-17T08:04:35.867Z</time></trkpt><trkpt lat="42.7355467" lon="-8.932715"><ele>342.2</ele><time>2026-04-17T08:04:36.867Z</time></trkpt><trkpt lat="42.7355683" lon="-8.9325367"><ele>344.4</ele><time>2026-04-17T08:04:37.867Z</time></trkpt><trkpt lat="42.7355717" lon="-8.932385"><ele>346.6</ele><time>2026-04-17T08:04:38.867Z</time></trkpt><trkpt lat="42.7355933" lon="-8.9322867"><ele>348.8</ele><time>2026-04-17T08:04:39.867Z</time></trkpt><trkpt lat="42.7356533" lon="-8.9321683"><ele>351.0</ele><time>2026-04-17T08:04:41.867Z</time></trkpt><trkpt lat="42.7357667" lon="-8.93214"><ele>351.0</ele><time>2026-04-17T08:04:43.867Z</time></trkpt><trkpt lat="42.7358433" lon="-8.9321483"><ele>351.0</ele><time>2026-04-17T08:04:45.867Z</time></trkpt><trkpt lat="42.7359433" lon="-8.93225"><ele>351.0</ele><time>2026-04-17T08:04:46.867Z</time></trkpt><trkpt lat="42.7360567" lon="-8.93233"><ele>351.0</ele><time>2026-04-17T08:04:47.867Z</time></trkpt><trkpt lat="42.7361917" lon="-8.9324317"><ele>348.25</ele><time>2026-04-17T08:04:49.868Z</time></trkpt><trkpt lat="42.7363217" lon="-8.932425"><ele>345.5</ele><time>2026-04-17T08:04:51.867Z</time></trkpt><trkpt lat="42.7364133" lon="-8.9323733"><ele>342.75</ele><time>2026-04-17T08:04:52.868Z</time></trkpt><trkpt lat="42.7365183" lon="-8.93225"><ele>340.0</ele><time>2026-04-17T08:04:53.868Z</time></trkpt><trkpt lat="42.736595" lon="-8.93217"><ele>340.0</ele><time>2026-04-17T08:04:54.868Z</time></trkpt><trkpt lat="42.7366833" lon="-8.9320817"><ele>340.0</ele><time>2026-04-17T08:04:55.868Z</time></trkpt><trkpt lat="42.7367867" lon="-8.9319533"><ele>340.0</ele><time>2026-04-17T08:04:56.868Z</time></trkpt><trkpt lat="42.7368983" lon="-8.9318217"><ele>340.0</ele><time>2026-04-17T08:04:57.867Z</time></trkpt><trkpt lat="42.7369933" lon="-8.9316983"><ele>339.0</ele><time>2026-04-17T08:04:58.868Z</time></trkpt><trkpt lat="42.7370983" lon="-8.9315783"><ele>338.0</ele><time>2026-04-17T08:04:59.868Z</time></trkpt><trkpt lat="42.7372" lon="-8.93151"><ele>337.0</ele><time>2026-04-17T08:05:00.867Z</time></trkpt><trkpt lat="42.7373033" lon="-8.93147"><ele>336.0</ele><time>2026-04-17T08:05:01.867Z</time></trkpt><trkpt lat="42.7373833" lon="-8.9314567"><ele>335.0</ele><time>2026-04-17T08:05:02.868Z</time></trkpt><trkpt lat="42.7374633" lon="-8.93147"><ele>335.0</ele><time>2026-04-17T08:05:03.867Z</time></trkpt><trkpt lat="42.7375467" lon="-8.9315233"><ele>335.0</ele><time>2026-04-17T08:05:04.867Z</time></trkpt><trkpt lat="42.7376483" lon="-8.9315867"><ele>335.0</ele><time>2026-04-17T08:05:05.867Z</time></trkpt><trkpt lat="42.73779" lon="-8.9316867"><ele>335.0</ele><time>2026-04-17T08:05:06.868Z</time></trkpt><trkpt lat="42.73792" lon="-8.9317617"><ele>328.5</ele><time>2026-04-17T08:05:07.868Z</time></trkpt><trkpt lat="42.7380367" lon="-8.931825"><ele>322.0</ele><time>2026-04-17T08:05:08.867Z</time></trkpt><trkpt lat="42.73815" lon="-8.9318533"><ele>315.5</ele><time>2026-04-17T08:05:09.868Z</time></trkpt><trkpt lat="42.738255" lon="-8.9318617"><ele>309.0</ele><time>2026-04-17T08:05:10.868Z</time></trkpt><trkpt lat="42.7383617" lon="-8.9318633"><ele>309.0</ele><time>2026-04-17T08:05:11.868Z</time></trkpt><trkpt lat="42.7384667" lon="-8.931845"><ele>309.0</ele><time>2026-04-17T08:05:12.868Z</time></trkpt><trkpt lat="42.7385833" lon="-8.9317367"><ele>309.0</ele><time>2026-04-17T08:05:13.867Z</time></trkpt><trkpt lat="42.7386967" lon="-8.931595"><ele>309.0</ele><time>2026-04-17T08:05:14.868Z</time></trkpt><trkpt lat="42.73881" lon="-8.9314383"><ele>311.25</ele><time>2026-04-17T08:05:15.868Z</time></trkpt><trkpt lat="42.7389033" lon="-8.9313333"><ele>313.5</ele><time>2026-04-17T08:05:16.868Z</time></trkpt><trkpt lat="42.739005" lon="-8.9312233"><ele>315.75</ele><time>2026-04-17T08:05:17.868Z</time></trkpt><trkpt lat="42.739095" lon="-8.9311367"><ele>318.0</ele><time>2026-04-17T08:05:18.868Z</time></trkpt><trkpt lat="42.7391967" lon="-8.9310617"><ele>318.0</ele><time>2026-04-17T08:05:19.867Z</time></trkpt><trkpt lat="42.7393217" lon="-8.9309983"><ele>318.0</ele><time>2026-04-17T08:05:20.868Z</time></trkpt><trkpt lat="42.7394217" lon="-8.9309167"><ele>318.0</ele><time>2026-04-17T08:05:21.868Z</time></trkpt><trkpt lat="42.7394983" lon="-8.9308533"><ele>318.0</ele><time>2026-04-17T08:05:22.867Z</time></trkpt><trkpt lat="42.73955" lon="-8.93079"><ele>318.0</ele><time>2026-04-17T08:05:23.867Z</time></trkpt><trkpt lat="42.73958" lon="-8.93071"><ele>317.6</ele><time>2026-04-17T08:05:24.868Z</time></trkpt><trkpt lat="42.7396083" lon="-8.93063"><ele>317.20000000000005</ele><time>2026-04-17T08:05:25.867Z</time></trkpt><trkpt lat="42.7396383" lon="-8.9305267"><ele>316.8</ele><time>2026-04-17T08:05:26.867Z</time></trkpt><trkpt lat="42.73967" lon="-8.93043"><ele>316.40000000000003</ele><time>2026-04-17T08:05:27.867Z</time></trkpt><trkpt lat="42.73967" lon="-8.9302817"><ele>316.0</ele><time>2026-04-17T08:05:28.869Z</time></trkpt><trkpt lat="42.7396533" lon="-8.930105"><ele>316.66666666666663</ele><time>2026-04-17T08:05:29.869Z</time></trkpt><trkpt lat="42.73961" lon="-8.9299083"><ele>317.3333333333333</ele><time>2026-04-17T08:05:30.868Z</time></trkpt><trkpt lat="42.7395717" lon="-8.92973"><ele>318.0</ele><time>2026-04-17T08:05:31.869Z</time></trkpt><trkpt lat="42.739505" lon="-8.9295133"><ele>318.0</ele><time>2026-04-17T08:05:32.868Z</time></trkpt><trkpt lat="42.7394667" lon="-8.9293117"><ele>318.0</ele><time>2026-04-17T08:05:33.868Z</time></trkpt><trkpt lat="42.739425" lon="-8.9290517"><ele>318.0</ele><time>2026-04-17T08:05:34.868Z</time></trkpt><trkpt lat="42.73934" lon="-8.928805"><ele>321.3333333333333</ele><time>2026-04-17T08:05:35.868Z</time></trkpt><trkpt lat="42.7392717" lon="-8.9285583"><ele>324.66666666666663</ele><time>2026-04-17T08:05:36.868Z</time></trkpt><trkpt lat="42.73921" lon="-8.9283033"><ele>328.0</ele><time>2026-04-17T08:05:37.868Z</time></trkpt><trkpt lat="42.7391533" lon="-8.9280417"><ele>328.0</ele><time>2026-04-17T08:05:38.869Z</time></trkpt><trkpt lat="42.7390917" lon="-8.9277767"><ele>328.0</ele><time>2026-04-17T08:05:39.868Z</time></trkpt><trkpt lat="42.73904" lon="-8.9275117"><ele>328.0</ele><time>2026-04-17T08:05:40.869Z</time></trkpt><trkpt lat="42.7389833" lon="-8.9272617"><ele>325.75</ele><time>2026-04-17T08:05:41.868Z</time></trkpt><trkpt lat="42.738925" lon="-8.9270283"><ele>323.5</ele><time>2026-04-17T08:05:42.868Z</time></trkpt><trkpt lat="42.73888" lon="-8.92684"><ele>321.25</ele><time>2026-04-17T08:05:43.869Z</time></trkpt><trkpt lat="42.73882" lon="-8.9267"><ele>319.0</ele><time>2026-04-17T08:05:44.869Z</time></trkpt><trkpt lat="42.7387767" lon="-8.9265983"><ele>319.0</ele><time>2026-04-17T08:05:45.868Z</time></trkpt><trkpt lat="42.7387083" lon="-8.926515"><ele>319.0</ele><time>2026-04-17T08:05:47.868Z</time></trkpt><trkpt lat="42.7387133" lon="-8.9266733"><ele>319.0</ele><time>2026-04-17T08:05:58.868Z</time></trkpt><trkpt lat="42.7387683" lon="-8.92681"><ele>319.0</ele><time>2026-04-17T08:06:00.869Z</time></trkpt><trkpt lat="42.7388167" lon="-8.92691"><ele>319.0</ele><time>2026-04-17T08:06:01.869Z</time></trkpt><trkpt lat="42.7388983" lon="-8.927025"><ele>319.0</ele><time>2026-04-17T08:06:02.868Z</time></trkpt><trkpt lat="42.7389983" lon="-8.9271483"><ele>319.0</ele><time>2026-04-17T08:06:03.868Z</time></trkpt><trkpt lat="42.7391367" lon="-8.927355"><ele>319.0</ele><time>2026-04-17T08:06:04.868Z</time></trkpt><trkpt lat="42.739295" lon="-8.9275933"><ele>309.5</ele><time>2026-04-17T08:06:05.869Z</time></trkpt><trkpt lat="42.73948" lon="-8.9278267"><ele>300.0</ele><time>2026-04-17T08:06:06.868Z</time></trkpt><trkpt lat="42.73968" lon="-8.92805"><ele>300.0</ele><time>2026-04-17T08:06:07.869Z</time></trkpt><trkpt lat="42.7398617" lon="-8.9282933"><ele>300.0</ele><time>2026-04-17T08:06:08.868Z</time></trkpt><trkpt lat="42.7400333" lon="-8.9284833"><ele>289.0</ele><time>2026-04-17T08:06:09.869Z</time></trkpt><trkpt lat="42.7402217" lon="-8.9287017"><ele>278.0</ele><time>2026-04-17T08:06:10.869Z</time></trkpt><trkpt lat="42.7403783" lon="-8.92893"><ele>278.0</ele><time>2026-04-17T08:06:11.869Z</time></trkpt><trkpt lat="42.7405167" lon="-8.9291417"><ele>278.0</ele><time>2026-04-17T08:06:12.868Z</time></trkpt><trkpt lat="42.74065" lon="-8.929345"><ele>278.0</ele><time>2026-04-17T08:06:13.868Z</time></trkpt><trkpt lat="42.7407867" lon="-8.9295383"><ele>274.0</ele><time>2026-04-17T08:06:14.868Z</time></trkpt><trkpt lat="42.74093" lon="-8.9297083"><ele>270.0</ele><time>2026-04-17T08:06:15.869Z</time></trkpt><trkpt lat="42.74108" lon="-8.9298767"><ele>266.0</ele><time>2026-04-17T08:06:16.869Z</time></trkpt><trkpt lat="42.7412417" lon="-8.9300383"><ele>269.33333333333337</ele><time>2026-04-17T08:06:17.869Z</time></trkpt><trkpt lat="42.7414117" lon="-8.9302067"><ele>272.6666666666667</ele><time>2026-04-17T08:06:18.869Z</time></trkpt><trkpt lat="42.7415667" lon="-8.9303683"><ele>276.0</ele><time>2026-04-17T08:06:19.868Z</time></trkpt><trkpt lat="42.74172" lon="-8.9305"><ele>276.0</ele><time>2026-04-17T08:06:20.869Z</time></trkpt><trkpt lat="42.7418517" lon="-8.9306217"><ele>276.0</ele><time>2026-04-17T08:06:21.868Z</time></trkpt><trkpt lat="42.7419817" lon="-8.9307383"><ele>276.0</ele><time>2026-04-17T08:06:22.868Z</time></trkpt><trkpt lat="42.7421217" lon="-8.9308583"><ele>272.0</ele><time>2026-04-17T08:06:23.869Z</time></trkpt><trkpt lat="42.7422717" lon="-8.9309617"><ele>268.0</ele><time>2026-04-17T08:06:24.869Z</time></trkpt><trkpt lat="42.7424133" lon="-8.9310633"><ele>264.0</ele><time>2026-04-17T08:06:25.868Z</time></trkpt><trkpt lat="42.7425333" lon="-8.9311583"><ele>264.0</ele><time>2026-04-17T08:06:26.869Z</time></trkpt><trkpt lat="42.7426367" lon="-8.931245"><ele>264.0</ele><time>2026-04-17T08:06:27.868Z</time></trkpt><trkpt lat="42.7427233" lon="-8.93131"><ele>264.0</ele><time>2026-04-17T08:06:29.869Z</time></trkpt><trkpt lat="42.74273" lon="-8.9314483"><ele>264.0</ele><time>2026-04-17T08:06:32.869Z</time></trkpt><trkpt lat="42.7427183" lon="-8.9315533"><ele>264.0</ele><time>2026-04-17T08:06:33.869Z</time></trkpt><trkpt lat="42.7426933" lon="-8.9316833"><ele>262.6666666666667</ele><time>2026-04-17T08:06:34.869Z</time></trkpt><trkpt lat="42.7426483" lon="-8.9318367"><ele>261.33333333333337</ele><time>2026-04-17T08:06:35.869Z</time></trkpt><trkpt lat="42.7425567" lon="-8.9320083"><ele>260.0</ele><time>2026-04-17T08:06:36.868Z</time></trkpt><trkpt lat="42.7424267" lon="-8.9321783"><ele>260.0</ele><time>2026-04-17T08:06:37.869Z</time></trkpt><trkpt lat="42.742285" lon="-8.9323317"><ele>260.0</ele><time>2026-04-17T08:06:38.868Z</time></trkpt><trkpt lat="42.74216" lon="-8.9324983"><ele>260.0</ele><time>2026-04-17T08:06:39.868Z</time></trkpt><trkpt lat="42.7420567" lon="-8.9326617"><ele>258.25</ele><time>2026-04-17T08:06:40.868Z</time></trkpt><trkpt lat="42.7419667" lon="-8.9328167"><ele>256.5</ele><time>2026-04-17T08:06:41.868Z</time></trkpt><trkpt lat="42.7418783" lon="-8.9329567"><ele>254.75</ele><time>2026-04-17T08:06:42.868Z</time></trkpt><trkpt lat="42.7417867" lon="-8.93306"><ele>253.0</ele><time>2026-04-17T08:06:43.869Z</time></trkpt><trkpt lat="42.741675" lon="-8.93315"><ele>252.66666666666666</ele><time>2026-04-17T08:06:44.869Z</time></trkpt><trkpt lat="42.7415383" lon="-8.9332467"><ele>252.33333333333331</ele><time>2026-04-17T08:06:45.868Z</time></trkpt><trkpt lat="42.7413933" lon="-8.933355"><ele>252.0</ele><time>2026-04-17T08:06:46.868Z</time></trkpt><trkpt lat="42.7412517" lon="-8.9334817"><ele>254.0</ele><time>2026-04-17T08:06:47.868Z</time></trkpt><trkpt lat="42.7411217" lon="-8.93365"><ele>256.0</ele><time>2026-04-17T08:06:48.868Z</time></trkpt><trkpt lat="42.7409917" lon="-8.93382"><ele>258.0</ele><time>2026-04-17T08:06:49.869Z</time></trkpt><trkpt lat="42.74089" lon="-8.9339633"><ele>258.0</ele><time>2026-04-17T08:06:50.868Z</time></trkpt><trkpt lat="42.74079" lon="-8.93407"><ele>258.0</ele><time>2026-04-17T08:06:51.869Z</time></trkpt><trkpt lat="42.7406933" lon="-8.9341383"><ele>258.0</ele><time>2026-04-17T08:06:52.869Z</time></trkpt><trkpt lat="42.7405917" lon="-8.93417"><ele>258.0</ele><time>2026-04-17T08:06:53.868Z</time></trkpt><trkpt lat="42.7404733" lon="-8.9341733"><ele>258.0</ele><time>2026-04-17T08:06:54.868Z</time></trkpt><trkpt lat="42.7403367" lon="-8.9341367"><ele>258.0</ele><time>2026-04-17T08:06:55.869Z</time></trkpt><trkpt lat="42.7401917" lon="-8.9340967"><ele>258.0</ele><time>2026-04-17T08:06:56.868Z</time></trkpt><trkpt lat="42.74005" lon="-8.9340817"><ele>258.0</ele><time>2026-04-17T08:06:57.868Z</time></trkpt><trkpt lat="42.7399" lon="-8.9340783"><ele>256.3333333333333</ele><time>2026-04-17T08:06:58.868Z</time></trkpt><trkpt lat="42.7397483" lon="-8.9340967"><ele>254.66666666666666</ele><time>2026-04-17T08:06:59.868Z</time></trkpt><trkpt lat="42.739595" lon="-8.934165"><ele>253.0</ele><time>2026-04-17T08:07:00.868Z</time></trkpt><trkpt lat="42.7394467" lon="-8.9342483"><ele>254.5</ele><time>2026-04-17T08:07:01.869Z</time></trkpt><trkpt lat="42.7393117" lon="-8.934325"><ele>256.0</ele><time>2026-04-17T08:07:02.869Z</time></trkpt><trkpt lat="42.7391867" lon="-8.93439"><ele>257.5</ele><time>2026-04-17T08:07:03.869Z</time></trkpt><trkpt lat="42.7390483" lon="-8.9344233"><ele>259.0</ele><time>2026-04-17T08:07:04.869Z</time></trkpt><trkpt lat="42.7388867" lon="-8.93443"><ele>259.0</ele><time>2026-04-17T08:07:05.869Z</time></trkpt><trkpt lat="42.7387183" lon="-8.9344283"><ele>259.0</ele><time>2026-04-17T08:07:06.869Z</time></trkpt><trkpt lat="42.7385517" lon="-8.9344317"><ele>259.0</ele><time>2026-04-17T08:07:07.869Z</time></trkpt><trkpt lat="42.73839" lon="-8.93444"><ele>262.0</ele><time>2026-04-17T08:07:08.868Z</time></trkpt><trkpt lat="42.738235" lon="-8.934415"><ele>265.0</ele><time>2026-04-17T08:07:09.869Z</time></trkpt><trkpt lat="42.7381083" lon="-8.9343767"><ele>268.0</ele><time>2026-04-17T08:07:10.869Z</time></trkpt><trkpt lat="42.7379917" lon="-8.93436"><ele>271.0</ele><time>2026-04-17T08:07:11.869Z</time></trkpt><trkpt lat="42.7378967" lon="-8.9343783"><ele>271.0</ele><time>2026-04-17T08:07:12.868Z</time></trkpt><trkpt lat="42.7378017" lon="-8.9344167"><ele>271.0</ele><time>2026-04-17T08:07:13.869Z</time></trkpt><trkpt lat="42.737705" lon="-8.934485"><ele>271.0</ele><time>2026-04-17T08:07:14.868Z</time></trkpt><trkpt lat="42.73763" lon="-8.93457"><ele>271.0</ele><time>2026-04-17T08:07:15.869Z</time></trkpt><trkpt lat="42.7375767" lon="-8.934665"><ele>271.0</ele><time>2026-04-17T08:07:16.868Z</time></trkpt><trkpt lat="42.737505" lon="-8.9347383"><ele>276.5</ele><time>2026-04-17T08:07:17.868Z</time></trkpt><trkpt lat="42.7374617" lon="-8.9348083"><ele>282.0</ele><time>2026-04-17T08:07:18.868Z</time></trkpt><trkpt lat="42.7374533" lon="-8.934945"><ele>287.5</ele><time>2026-04-17T08:07:20.868Z</time></trkpt><trkpt lat="42.7374367" lon="-8.9350417"><ele>293.0</ele><time>2026-04-17T08:07:21.869Z</time></trkpt><trkpt lat="42.7376283" lon="-8.93523"><ele>297.0</ele><time>2026-04-17T08:07:22.869Z</time></trkpt><trkpt lat="42.73767" lon="-8.9353433"><ele>301.0</ele><time>2026-04-17T08:07:23.869Z</time></trkpt><trkpt lat="42.73778" lon="-8.93552"><ele>305.0</ele><time>2026-04-17T08:07:24.869Z</time></trkpt><trkpt lat="42.73802" lon="-8.9357683"><ele>294.5</ele><time>2026-04-17T08:07:25.868Z</time></trkpt><trkpt lat="42.7382867" lon="-8.9359633"><ele>284.0</ele><time>2026-04-17T08:07:26.869Z</time></trkpt><trkpt lat="42.7385167" lon="-8.93616"><ele>265.0</ele><time>2026-04-17T08:07:27.868Z</time></trkpt><trkpt lat="42.738735" lon="-8.93634"><ele>246.0</ele><time>2026-04-17T08:07:28.868Z</time></trkpt><trkpt lat="42.7389267" lon="-8.93652"><ele>246.0</ele><time>2026-04-17T08:07:29.869Z</time></trkpt><trkpt lat="42.7390833" lon="-8.9366867"><ele>246.0</ele><time>2026-04-17T08:07:30.869Z</time></trkpt><trkpt lat="42.7392167" lon="-8.9368333"><ele>246.0</ele><time>2026-04-17T08:07:31.869Z</time></trkpt><trkpt lat="42.739345" lon="-8.9369583"><ele>237.66666666666669</ele><time>2026-04-17T08:07:32.869Z</time></trkpt><trkpt lat="42.7394917" lon="-8.93707"><ele>229.33333333333334</ele><time>2026-04-17T08:07:33.868Z</time></trkpt><trkpt lat="42.73967" lon="-8.9371583"><ele>221.0</ele><time>2026-04-17T08:07:34.869Z</time></trkpt><trkpt lat="42.739845" lon="-8.93724"><ele>221.0</ele><time>2026-04-17T08:07:35.868Z</time></trkpt><trkpt lat="42.7400033" lon="-8.93733"><ele>221.0</ele><time>2026-04-17T08:07:36.868Z</time></trkpt><trkpt lat="42.7401467" lon="-8.9374183"><ele>221.0</ele><time>2026-04-17T08:07:37.869Z</time></trkpt><trkpt lat="42.740265" lon="-8.9375167"><ele>215.25</ele><time>2026-04-17T08:07:38.868Z</time></trkpt><trkpt lat="42.740375" lon="-8.9376133"><ele>209.5</ele><time>2026-04-17T08:07:39.869Z</time></trkpt><trkpt lat="42.7404517" lon="-8.937735"><ele>203.75</ele><time>2026-04-17T08:07:40.869Z</time></trkpt><trkpt lat="42.7405183" lon="-8.9378833"><ele>198.0</ele><time>2026-04-17T08:07:41.869Z</time></trkpt><trkpt lat="42.7405733" lon="-8.9380583"><ele>198.0</ele><time>2026-04-17T08:07:42.868Z</time></trkpt><trkpt lat="42.7406183" lon="-8.9382767"><ele>198.0</ele><time>2026-04-17T08:07:43.868Z</time></trkpt><trkpt lat="42.740675" lon="-8.938505"><ele>198.0</ele><time>2026-04-17T08:07:44.868Z</time></trkpt><trkpt lat="42.740735" lon="-8.9387433"><ele>197.33333333333331</ele><time>2026-04-17T08:07:45.869Z</time></trkpt><trkpt lat="42.7408117" lon="-8.93899"><ele>196.66666666666666</ele><time>2026-04-17T08:07:46.869Z</time></trkpt><trkpt lat="42.740885" lon="-8.9392383"><ele>196.0</ele><time>2026-04-17T08:07:47.869Z</time></trkpt><trkpt lat="42.740965" lon="-8.9394767"><ele>197.66666666666666</ele><time>2026-04-17T08:07:48.868Z</time></trkpt><trkpt lat="42.741035" lon="-8.9397133"><ele>199.33333333333331</ele><time>2026-04-17T08:07:49.869Z</time></trkpt><trkpt lat="42.7410983" lon="-8.939955"><ele>201.0</ele><time>2026-04-17T08:07:50.869Z</time></trkpt><trkpt lat="42.7411417" lon="-8.940155"><ele>192.0</ele><time>2026-04-17T08:07:51.869Z</time></trkpt><trkpt lat="42.7411617" lon="-8.9403683"><ele>183.0</ele><time>2026-04-17T08:07:52.868Z</time></trkpt><trkpt lat="42.7411483" lon="-8.94057"><ele>174.0</ele><time>2026-04-17T08:07:53.868Z</time></trkpt><trkpt lat="42.7411283" lon="-8.94078"><ele>176.0</ele><time>2026-04-17T08:07:54.869Z</time></trkpt><trkpt lat="42.7410917" lon="-8.9410167"><ele>178.0</ele><time>2026-04-17T08:07:55.868Z</time></trkpt><trkpt lat="42.7410667" lon="-8.941245"><ele>180.0</ele><time>2026-04-17T08:07:56.868Z</time></trkpt><trkpt lat="42.7410283" lon="-8.9414717"><ele>181.5</ele><time>2026-04-17T08:07:57.869Z</time></trkpt><trkpt lat="42.7410033" lon="-8.9416667"><ele>183.0</ele><time>2026-04-17T08:07:58.868Z</time></trkpt><trkpt lat="42.74096" lon="-8.94182"><ele>184.5</ele><time>2026-04-17T08:07:59.869Z</time></trkpt><trkpt lat="42.7409083" lon="-8.9419367"><ele>186.0</ele><time>2026-04-17T08:08:00.868Z</time></trkpt><trkpt lat="42.74083" lon="-8.9420583"><ele>186.0</ele><time>2026-04-17T08:08:01.868Z</time></trkpt><trkpt lat="42.7407217" lon="-8.94218"><ele>186.0</ele><time>2026-04-17T08:08:02.869Z</time></trkpt><trkpt lat="42.7406033" lon="-8.94228"><ele>186.0</ele><time>2026-04-17T08:08:03.868Z</time></trkpt><trkpt lat="42.7404767" lon="-8.9423733"><ele>186.0</ele><time>2026-04-17T08:08:04.868Z</time></trkpt><trkpt lat="42.7403517" lon="-8.942455"><ele>186.0</ele><time>2026-04-17T08:08:05.868Z</time></trkpt><trkpt lat="42.74024" lon="-8.9425217"><ele>186.0</ele><time>2026-04-17T08:08:06.868Z</time></trkpt><trkpt lat="42.74013" lon="-8.9425833"><ele>186.0</ele><time>2026-04-17T08:08:07.868Z</time></trkpt><trkpt lat="42.7400433" lon="-8.9426217"><ele>186.0</ele><time>2026-04-17T08:08:08.868Z</time></trkpt><trkpt lat="42.7399567" lon="-8.9426467"><ele>186.0</ele><time>2026-04-17T08:08:09.869Z</time></trkpt><trkpt lat="42.739865" lon="-8.9426467"><ele>186.25</ele><time>2026-04-17T08:08:10.868Z</time></trkpt><trkpt lat="42.7397467" lon="-8.942655"><ele>186.5</ele><time>2026-04-17T08:08:11.868Z</time></trkpt><trkpt lat="42.7395917" lon="-8.9426783"><ele>186.75</ele><time>2026-04-17T08:08:12.869Z</time></trkpt><trkpt lat="42.7394683" lon="-8.9427333"><ele>187.0</ele><time>2026-04-17T08:08:13.869Z</time></trkpt><trkpt lat="42.739345" lon="-8.94282"><ele>187.0</ele><time>2026-04-17T08:08:14.868Z</time></trkpt><trkpt lat="42.7392067" lon="-8.94289"><ele>187.0</ele><time>2026-04-17T08:08:15.869Z</time></trkpt><trkpt lat="42.7390717" lon="-8.9429417"><ele>187.0</ele><time>2026-04-17T08:08:16.868Z</time></trkpt><trkpt lat="42.73894" lon="-8.9429783"><ele>187.0</ele><time>2026-04-17T08:08:17.869Z</time></trkpt><trkpt lat="42.7388267" lon="-8.943"><ele>187.0</ele><time>2026-04-17T08:08:18.868Z</time></trkpt><trkpt lat="42.7387117" lon="-8.9430017"><ele>187.0</ele><time>2026-04-17T08:08:19.868Z</time></trkpt><trkpt lat="42.7385883" lon="-8.9430167"><ele>187.0</ele><time>2026-04-17T08:08:20.868Z</time></trkpt><trkpt lat="42.7384833" lon="-8.94304"><ele>187.0</ele><time>2026-04-17T08:08:21.868Z</time></trkpt><trkpt lat="42.7383767" lon="-8.9430483"><ele>186.0</ele><time>2026-04-17T08:08:22.869Z</time></trkpt><trkpt lat="42.7383083" lon="-8.943085"><ele>185.0</ele><time>2026-04-17T08:08:23.869Z</time></trkpt><trkpt lat="42.7382517" lon="-8.9431517"><ele>184.0</ele><time>2026-04-17T08:08:24.869Z</time></trkpt><trkpt lat="42.738205" lon="-8.9432467"><ele>183.0</ele><time>2026-04-17T08:08:25.868Z</time></trkpt><trkpt lat="42.7381567" lon="-8.9433683"><ele>182.0</ele><time>2026-04-17T08:08:26.868Z</time></trkpt><trkpt lat="42.7380867" lon="-8.94355"><ele>182.0</ele><time>2026-04-17T08:08:27.868Z</time></trkpt><trkpt lat="42.738" lon="-8.9437317"><ele>182.0</ele><time>2026-04-17T08:08:28.869Z</time></trkpt><trkpt lat="42.7379217" lon="-8.943925"><ele>182.0</ele><time>2026-04-17T08:08:29.869Z</time></trkpt><trkpt lat="42.73783" lon="-8.94407"><ele>182.0</ele><time>2026-04-17T08:08:30.868Z</time></trkpt><trkpt lat="42.7377283" lon="-8.94419"><ele>182.0</ele><time>2026-04-17T08:08:31.869Z</time></trkpt><trkpt lat="42.7375917" lon="-8.9442617"><ele>182.0</ele><time>2026-04-17T08:08:32.868Z</time></trkpt><trkpt lat="42.73746" lon="-8.944325"><ele>182.0</ele><time>2026-04-17T08:08:33.868Z</time></trkpt><trkpt lat="42.73732" lon="-8.9443583"><ele>180.33333333333331</ele><time>2026-04-17T08:08:34.869Z</time></trkpt><trkpt lat="42.737145" lon="-8.9443633"><ele>178.66666666666666</ele><time>2026-04-17T08:08:35.869Z</time></trkpt><trkpt lat="42.73697" lon="-8.9443667"><ele>177.0</ele><time>2026-04-17T08:08:36.868Z</time></trkpt><trkpt lat="42.73683" lon="-8.9443717"><ele>179.0</ele><time>2026-04-17T08:08:37.869Z</time></trkpt><trkpt lat="42.73673" lon="-8.9443733"><ele>181.0</ele><time>2026-04-17T08:08:38.868Z</time></trkpt><trkpt lat="42.7366567" lon="-8.9443383"><ele>183.0</ele><time>2026-04-17T08:08:39.868Z</time></trkpt><trkpt lat="42.736595" lon="-8.9442667"><ele>185.0</ele><time>2026-04-17T08:08:40.869Z</time></trkpt><trkpt lat="42.7365267" lon="-8.9442117"><ele>187.0</ele><time>2026-04-17T08:08:41.868Z</time></trkpt><trkpt lat="42.7364617" lon="-8.9441717"><ele>189.0</ele><time>2026-04-17T08:08:42.868Z</time></trkpt><trkpt lat="42.7363983" lon="-8.9441667"><ele>189.0</ele><time>2026-04-17T08:08:43.868Z</time></trkpt><trkpt lat="42.7363383" lon="-8.9442067"><ele>189.0</ele><time>2026-04-17T08:08:44.868Z</time></trkpt><trkpt lat="42.7362817" lon="-8.9442683"><ele>189.0</ele><time>2026-04-17T08:08:45.868Z</time></trkpt><trkpt lat="42.7362283" lon="-8.9443867"><ele>189.0</ele><time>2026-04-17T08:08:46.869Z</time></trkpt><trkpt lat="42.7361767" lon="-8.94453"><ele>189.0</ele><time>2026-04-17T08:08:47.869Z</time></trkpt><trkpt lat="42.7360967" lon="-8.9446967"><ele>190.66666666666669</ele><time>2026-04-17T08:08:48.868Z</time></trkpt><trkpt lat="42.7359983" lon="-8.9448733"><ele>192.33333333333334</ele><time>2026-04-17T08:08:49.868Z</time></trkpt><trkpt lat="42.7359" lon="-8.9450333"><ele>194.0</ele><time>2026-04-17T08:08:50.869Z</time></trkpt><trkpt lat="42.7357967" lon="-8.9451733"><ele>194.0</ele><time>2026-04-17T08:08:51.868Z</time></trkpt><trkpt lat="42.7357" lon="-8.9452883"><ele>194.0</ele><time>2026-04-17T08:08:52.869Z</time></trkpt><trkpt lat="42.7356033" lon="-8.9454217"><ele>194.0</ele><time>2026-04-17T08:08:53.869Z</time></trkpt><trkpt lat="42.73548" lon="-8.945535"><ele>194.0</ele><time>2026-04-17T08:08:54.869Z</time></trkpt><trkpt lat="42.73536" lon="-8.94565"><ele>199.66666666666669</ele><time>2026-04-17T08:08:55.869Z</time></trkpt><trkpt lat="42.7352083" lon="-8.94575"><ele>205.33333333333331</ele><time>2026-04-17T08:08:56.868Z</time></trkpt><trkpt lat="42.7350717" lon="-8.9458267"><ele>211.0</ele><time>2026-04-17T08:08:57.868Z</time></trkpt><trkpt lat="42.73492" lon="-8.9458583"><ele>211.0</ele><time>2026-04-17T08:08:58.868Z</time></trkpt><trkpt lat="42.7347433" lon="-8.945855"><ele>211.0</ele><time>2026-04-17T08:08:59.868Z</time></trkpt><trkpt lat="42.7345567" lon="-8.9458467"><ele>211.0</ele><time>2026-04-17T08:09:00.868Z</time></trkpt><trkpt lat="42.7343767" lon="-8.94584"><ele>213.25</ele><time>2026-04-17T08:09:01.868Z</time></trkpt><trkpt lat="42.7342333" lon="-8.945845"><ele>215.5</ele><time>2026-04-17T08:09:02.869Z</time></trkpt><trkpt lat="42.734095" lon="-8.9458767"><ele>217.75</ele><time>2026-04-17T08:09:03.868Z</time></trkpt><trkpt lat="42.7339433" lon="-8.9459233"><ele>220.0</ele><time>2026-04-17T08:09:04.869Z</time></trkpt><trkpt lat="42.7337733" lon="-8.945975"><ele>212.33333333333331</ele><time>2026-04-17T08:09:05.868Z</time></trkpt><trkpt lat="42.7335917" lon="-8.946015"><ele>204.66666666666669</ele><time>2026-04-17T08:09:06.868Z</time></trkpt><trkpt lat="42.7333933" lon="-8.94605"><ele>197.0</ele><time>2026-04-17T08:09:07.868Z</time></trkpt><trkpt lat="42.7331967" lon="-8.9460483"><ele>197.0</ele><time>2026-04-17T08:09:08.869Z</time></trkpt><trkpt lat="42.732975" lon="-8.946005"><ele>197.0</ele><time>2026-04-17T08:09:09.868Z</time></trkpt><trkpt lat="42.7327967" lon="-8.94598"><ele>197.0</ele><time>2026-04-17T08:09:10.868Z</time></trkpt><trkpt lat="42.7326267" lon="-8.9459333"><ele>205.33333333333334</ele><time>2026-04-17T08:09:11.868Z</time></trkpt><trkpt lat="42.7324667" lon="-8.9458717"><ele>213.66666666666669</ele><time>2026-04-17T08:09:12.868Z</time></trkpt><trkpt lat="42.7322967" lon="-8.9457933"><ele>222.0</ele><time>2026-04-17T08:09:13.869Z</time></trkpt><trkpt lat="42.7321133" lon="-8.9456833"><ele>222.0</ele><time>2026-04-17T08:09:14.868Z</time></trkpt><trkpt lat="42.7319167" lon="-8.945595"><ele>222.0</ele><time>2026-04-17T08:09:15.868Z</time></trkpt><trkpt lat="42.7317217" lon="-8.9454983"><ele>222.0</ele><time>2026-04-17T08:09:16.868Z</time></trkpt><trkpt lat="42.7315383" lon="-8.945405"><ele>219.0</ele><time>2026-04-17T08:09:17.869Z</time></trkpt><trkpt lat="42.7313517" lon="-8.9453133"><ele>216.0</ele><time>2026-04-17T08:09:18.868Z</time></trkpt><trkpt lat="42.7311633" lon="-8.945235"><ele>213.0</ele><time>2026-04-17T08:09:19.868Z</time></trkpt><trkpt lat="42.7309817" lon="-8.9451667"><ele>211.0</ele><time>2026-04-17T08:09:20.869Z</time></trkpt><trkpt lat="42.7307867" lon="-8.945065"><ele>209.0</ele><time>2026-04-17T08:09:21.869Z</time></trkpt><trkpt lat="42.73061" lon="-8.9449667"><ele>207.0</ele><time>2026-04-17T08:09:22.869Z</time></trkpt><trkpt lat="42.73044" lon="-8.94482"><ele>211.33333333333331</ele><time>2026-04-17T08:09:23.869Z</time></trkpt><trkpt lat="42.7303033" lon="-8.944655"><ele>215.66666666666666</ele><time>2026-04-17T08:09:24.869Z</time></trkpt><trkpt lat="42.73012" lon="-8.94453"><ele>220.0</ele><time>2026-04-17T08:09:25.868Z</time></trkpt><trkpt lat="42.7299567" lon="-8.9443933"><ele>220.0</ele><time>2026-04-17T08:09:26.869Z</time></trkpt><trkpt lat="42.7297867" lon="-8.9443033"><ele>220.0</ele><time>2026-04-17T08:09:27.87Z</time></trkpt><trkpt lat="42.7296133" lon="-8.944245"><ele>220.0</ele><time>2026-04-17T08:09:28.87Z</time></trkpt><trkpt lat="42.7294733" lon="-8.944195"><ele>221.66666666666666</ele><time>2026-04-17T08:09:29.869Z</time></trkpt><trkpt lat="42.7294033" lon="-8.9441483"><ele>223.33333333333331</ele><time>2026-04-17T08:09:30.87Z</time></trkpt><trkpt lat="42.7293067" lon="-8.9440633"><ele>225.0</ele><time>2026-04-17T08:09:32.87Z</time></trkpt><trkpt lat="42.7292917" lon="-8.9439267"><ele>226.66666666666669</ele><time>2026-04-17T08:09:34.869Z</time></trkpt><trkpt lat="42.7292967" lon="-8.9438233"><ele>228.33333333333334</ele><time>2026-04-17T08:09:35.87Z</time></trkpt><trkpt lat="42.729305" lon="-8.9437283"><ele>230.0</ele><time>2026-04-17T08:09:36.869Z</time></trkpt><trkpt lat="42.7292867" lon="-8.943575"><ele>230.0</ele><time>2026-04-17T08:09:38.87Z</time></trkpt><trkpt lat="42.729175" lon="-8.9434917"><ele>230.0</ele><time>2026-04-17T08:09:40.87Z</time></trkpt><trkpt lat="42.7290983" lon="-8.94346"><ele>230.0</ele><time>2026-04-17T08:09:41.87Z</time></trkpt><trkpt lat="42.7289633" lon="-8.9434517"><ele>230.0</ele><time>2026-04-17T08:09:42.869Z</time></trkpt><trkpt lat="42.728825" lon="-8.9434317"><ele>230.0</ele><time>2026-04-17T08:09:43.87Z</time></trkpt><trkpt lat="42.728625" lon="-8.9434217"><ele>230.0</ele><time>2026-04-17T08:09:44.87Z</time></trkpt><trkpt lat="42.7283783" lon="-8.9434033"><ele>230.0</ele><time>2026-04-17T08:09:45.87Z</time></trkpt><trkpt lat="42.7281583" lon="-8.9434017"><ele>229.0</ele><time>2026-04-17T08:09:46.869Z</time></trkpt><trkpt lat="42.72795" lon="-8.9433983"><ele>228.0</ele><time>2026-04-17T08:09:47.87Z</time></trkpt><trkpt lat="42.7277167" lon="-8.94339"><ele>227.0</ele><time>2026-04-17T08:09:48.869Z</time></trkpt><trkpt lat="42.7274967" lon="-8.9433567"><ele>230.33333333333334</ele><time>2026-04-17T08:09:49.87Z</time></trkpt><trkpt lat="42.727265" lon="-8.9433517"><ele>233.66666666666669</ele><time>2026-04-17T08:09:50.87Z</time></trkpt><trkpt lat="42.7270517" lon="-8.943335"><ele>237.0</ele><time>2026-04-17T08:09:51.869Z</time></trkpt><trkpt lat="42.7268433" lon="-8.9432933"><ele>237.0</ele><time>2026-04-17T08:09:52.869Z</time></trkpt><trkpt lat="42.7266167" lon="-8.9432317"><ele>237.0</ele><time>2026-04-17T08:09:53.87Z</time></trkpt><trkpt lat="42.7264167" lon="-8.943185"><ele>237.0</ele><time>2026-04-17T08:09:54.869Z</time></trkpt><trkpt lat="42.7262267" lon="-8.9431483"><ele>234.33333333333331</ele><time>2026-04-17T08:09:55.869Z</time></trkpt><trkpt lat="42.72603" lon="-8.9431033"><ele>231.66666666666666</ele><time>2026-04-17T08:09:56.87Z</time></trkpt><trkpt lat="42.7258317" lon="-8.9430567"><ele>229.0</ele><time>2026-04-17T08:09:57.87Z</time></trkpt><trkpt lat="42.7256567" lon="-8.9429967"><ele>229.0</ele><time>2026-04-17T08:09:58.869Z</time></trkpt><trkpt lat="42.7254783" lon="-8.9429233"><ele>229.0</ele><time>2026-04-17T08:09:59.869Z</time></trkpt><trkpt lat="42.725295" lon="-8.9428417"><ele>229.0</ele><time>2026-04-17T08:10:00.87Z</time></trkpt><trkpt lat="42.7250933" lon="-8.9427583"><ele>227.0</ele><time>2026-04-17T08:10:01.87Z</time></trkpt><trkpt lat="42.724915" lon="-8.94267"><ele>225.0</ele><time>2026-04-17T08:10:02.87Z</time></trkpt><trkpt lat="42.7247233" lon="-8.9426"><ele>223.0</ele><time>2026-04-17T08:10:03.87Z</time></trkpt><trkpt lat="42.7245367" lon="-8.9425433"><ele>227.0</ele><time>2026-04-17T08:10:04.87Z</time></trkpt><trkpt lat="42.7243567" lon="-8.9424833"><ele>231.0</ele><time>2026-04-17T08:10:05.869Z</time></trkpt><trkpt lat="42.72415" lon="-8.9424217"><ele>235.0</ele><time>2026-04-17T08:10:06.869Z</time></trkpt><trkpt lat="42.7239833" lon="-8.9423833"><ele>235.0</ele><time>2026-04-17T08:10:07.87Z</time></trkpt><trkpt lat="42.7238167" lon="-8.9423367"><ele>235.0</ele><time>2026-04-17T08:10:08.87Z</time></trkpt><trkpt lat="42.7236533" lon="-8.9422917"><ele>235.0</ele><time>2026-04-17T08:10:09.869Z</time></trkpt><trkpt lat="42.723505" lon="-8.94223"><ele>231.75</ele><time>2026-04-17T08:10:10.87Z</time></trkpt><trkpt lat="42.723365" lon="-8.9421667"><ele>228.5</ele><time>2026-04-17T08:10:11.869Z</time></trkpt><trkpt lat="42.7232267" lon="-8.9421233"><ele>225.25</ele><time>2026-04-17T08:10:12.87Z</time></trkpt><trkpt lat="42.723075" lon="-8.9421083"><ele>222.0</ele><time>2026-04-17T08:10:13.87Z</time></trkpt><trkpt lat="42.7229083" lon="-8.9421083"><ele>222.0</ele><time>2026-04-17T08:10:14.87Z</time></trkpt><trkpt lat="42.72275" lon="-8.9421133"><ele>222.0</ele><time>2026-04-17T08:10:15.87Z</time></trkpt><trkpt lat="42.722585" lon="-8.9421033"><ele>222.0</ele><time>2026-04-17T08:10:16.869Z</time></trkpt><trkpt lat="42.72246" lon="-8.9421017"><ele>222.0</ele><time>2026-04-17T08:10:17.869Z</time></trkpt><trkpt lat="42.7223517" lon="-8.9420683"><ele>221.75</ele><time>2026-04-17T08:10:18.869Z</time></trkpt><trkpt lat="42.72224" lon="-8.9419933"><ele>221.5</ele><time>2026-04-17T08:10:19.87Z</time></trkpt><trkpt lat="42.72214" lon="-8.9418833"><ele>221.25</ele><time>2026-04-17T08:10:20.869Z</time></trkpt><trkpt lat="42.7220633" lon="-8.94175"><ele>221.0</ele><time>2026-04-17T08:10:21.87Z</time></trkpt><trkpt lat="42.7219867" lon="-8.941595"><ele>222.8</ele><time>2026-04-17T08:10:22.87Z</time></trkpt><trkpt lat="42.7219183" lon="-8.9414533"><ele>224.60000000000002</ele><time>2026-04-17T08:10:23.869Z</time></trkpt><trkpt lat="42.7218533" lon="-8.9413533"><ele>226.4</ele><time>2026-04-17T08:10:24.869Z</time></trkpt><trkpt lat="42.721775" lon="-8.9412783"><ele>228.2</ele><time>2026-04-17T08:10:25.869Z</time></trkpt><trkpt lat="42.7216867" lon="-8.941205"><ele>230.0</ele><time>2026-04-17T08:10:26.869Z</time></trkpt><trkpt lat="42.7215683" lon="-8.9411217"><ele>230.0</ele><time>2026-04-17T08:10:27.87Z</time></trkpt><trkpt lat="42.7214267" lon="-8.9410217"><ele>230.0</ele><time>2026-04-17T08:10:28.869Z</time></trkpt><trkpt lat="42.721295" lon="-8.9409333"><ele>230.0</ele><time>2026-04-17T08:10:29.87Z</time></trkpt><trkpt lat="42.7211483" lon="-8.9408633"><ele>233.4</ele><time>2026-04-17T08:10:30.869Z</time></trkpt><trkpt lat="42.7210283" lon="-8.9408017"><ele>236.8</ele><time>2026-04-17T08:10:31.87Z</time></trkpt><trkpt lat="42.720915" lon="-8.940765"><ele>240.2</ele><time>2026-04-17T08:10:32.87Z</time></trkpt><trkpt lat="42.7208067" lon="-8.94075"><ele>243.6</ele><time>2026-04-17T08:10:33.869Z</time></trkpt><trkpt lat="42.72072" lon="-8.9407783"><ele>247.0</ele><time>2026-04-17T08:10:34.869Z</time></trkpt><trkpt lat="42.720645" lon="-8.9408317"><ele>247.39999999999998</ele><time>2026-04-17T08:10:35.869Z</time></trkpt><trkpt lat="42.7206267" lon="-8.9409367"><ele>247.79999999999998</ele><time>2026-04-17T08:10:36.869Z</time></trkpt><trkpt lat="42.72064" lon="-8.9410633"><ele>248.2</ele><time>2026-04-17T08:10:37.869Z</time></trkpt><trkpt lat="42.7206517" lon="-8.9412"><ele>248.6</ele><time>2026-04-17T08:10:38.869Z</time></trkpt><trkpt lat="42.7206617" lon="-8.9412917"><ele>249.0</ele><time>2026-04-17T08:10:39.87Z</time></trkpt><trkpt lat="42.7207067" lon="-8.94148"><ele>249.0</ele><time>2026-04-17T08:10:40.869Z</time></trkpt><trkpt lat="42.7207433" lon="-8.9417133"><ele>249.0</ele><time>2026-04-17T08:10:41.87Z</time></trkpt><trkpt lat="42.7207767" lon="-8.9419633"><ele>249.0</ele><time>2026-04-17T08:10:42.869Z</time></trkpt><trkpt lat="42.7208183" lon="-8.9422583"><ele>249.5</ele><time>2026-04-17T08:10:43.869Z</time></trkpt><trkpt lat="42.7208733" lon="-8.9425583"><ele>250.0</ele><time>2026-04-17T08:10:44.869Z</time></trkpt><trkpt lat="42.72094" lon="-8.9428567"><ele>250.0</ele><time>2026-04-17T08:10:45.87Z</time></trkpt><trkpt lat="42.7210167" lon="-8.9431567"><ele>250.0</ele><time>2026-04-17T08:10:46.87Z</time></trkpt><trkpt lat="42.7211033" lon="-8.9434517"><ele>241.66666666666666</ele><time>2026-04-17T08:10:47.869Z</time></trkpt><trkpt lat="42.7211767" lon="-8.94371"><ele>233.33333333333331</ele><time>2026-04-17T08:10:48.869Z</time></trkpt><trkpt lat="42.7212383" lon="-8.943945"><ele>225.0</ele><time>2026-04-17T08:10:49.87Z</time></trkpt><trkpt lat="42.72132" lon="-8.9441383"><ele>231.33333333333331</ele><time>2026-04-17T08:10:50.87Z</time></trkpt><trkpt lat="42.7214283" lon="-8.94434"><ele>237.66666666666666</ele><time>2026-04-17T08:10:51.87Z</time></trkpt><trkpt lat="42.7215633" lon="-8.94452"><ele>244.0</ele><time>2026-04-17T08:10:52.869Z</time></trkpt><trkpt lat="42.7217133" lon="-8.9446883"><ele>244.0</ele><time>2026-04-17T08:10:53.87Z</time></trkpt><trkpt lat="42.7218767" lon="-8.9448433"><ele>244.0</ele><time>2026-04-17T08:10:54.869Z</time></trkpt><trkpt lat="42.7220383" lon="-8.9450033"><ele>244.0</ele><time>2026-04-17T08:10:55.87Z</time></trkpt><trkpt lat="42.7222117" lon="-8.9451467"><ele>241.66666666666666</ele><time>2026-04-17T08:10:56.869Z</time></trkpt><trkpt lat="42.7223717" lon="-8.9452867"><ele>239.33333333333331</ele><time>2026-04-17T08:10:57.869Z</time></trkpt><trkpt lat="42.72251" lon="-8.9454417"><ele>237.0</ele><time>2026-04-17T08:10:58.869Z</time></trkpt><trkpt lat="42.7226267" lon="-8.9455917"><ele>232.25</ele><time>2026-04-17T08:10:59.869Z</time></trkpt><trkpt lat="42.7227317" lon="-8.9457383"><ele>227.5</ele><time>2026-04-17T08:11:00.869Z</time></trkpt><trkpt lat="42.722815" lon="-8.9458767"><ele>222.75</ele><time>2026-04-17T08:11:01.87Z</time></trkpt><trkpt lat="42.7228717" lon="-8.9460333"><ele>218.0</ele><time>2026-04-17T08:11:02.869Z</time></trkpt><trkpt lat="42.7229017" lon="-8.9462183"><ele>218.0</ele><time>2026-04-17T08:11:03.87Z</time></trkpt><trkpt lat="42.7229117" lon="-8.946415"><ele>218.0</ele><time>2026-04-17T08:11:04.87Z</time></trkpt><trkpt lat="42.722905" lon="-8.9466333"><ele>218.0</ele><time>2026-04-17T08:11:05.87Z</time></trkpt><trkpt lat="42.7228883" lon="-8.9468783"><ele>217.33333333333334</ele><time>2026-04-17T08:11:06.869Z</time></trkpt><trkpt lat="42.7228667" lon="-8.94711"><ele>216.66666666666669</ele><time>2026-04-17T08:11:07.87Z</time></trkpt><trkpt lat="42.7228533" lon="-8.9473583"><ele>216.0</ele><time>2026-04-17T08:11:08.87Z</time></trkpt><trkpt lat="42.7228133" lon="-8.9475917"><ele>215.66666666666669</ele><time>2026-04-17T08:11:09.869Z</time></trkpt><trkpt lat="42.72276" lon="-8.9478433"><ele>215.33333333333334</ele><time>2026-04-17T08:11:10.87Z</time></trkpt><trkpt lat="42.72269" lon="-8.9481083"><ele>215.0</ele><time>2026-04-17T08:11:11.869Z</time></trkpt><trkpt lat="42.7226067" lon="-8.9483767"><ele>222.0</ele><time>2026-04-17T08:11:12.869Z</time></trkpt><trkpt lat="42.7225267" lon="-8.9486383"><ele>229.0</ele><time>2026-04-17T08:11:13.87Z</time></trkpt><trkpt lat="42.7224467" lon="-8.9489"><ele>236.0</ele><time>2026-04-17T08:11:14.87Z</time></trkpt><trkpt lat="42.7223633" lon="-8.9491583"><ele>235.25</ele><time>2026-04-17T08:11:15.869Z</time></trkpt><trkpt lat="42.722305" lon="-8.949375"><ele>234.5</ele><time>2026-04-17T08:11:16.87Z</time></trkpt><trkpt lat="42.7222517" lon="-8.9495667"><ele>233.75</ele><time>2026-04-17T08:11:17.869Z</time></trkpt><trkpt lat="42.7221983" lon="-8.94972"><ele>233.0</ele><time>2026-04-17T08:11:18.87Z</time></trkpt><trkpt lat="42.7221583" lon="-8.9498033"><ele>233.0</ele><time>2026-04-17T08:11:19.869Z</time></trkpt><trkpt lat="42.7220767" lon="-8.9498883"><ele>233.0</ele><time>2026-04-17T08:11:20.869Z</time></trkpt><trkpt lat="42.721965" lon="-8.9499667"><ele>233.0</ele><time>2026-04-17T08:11:21.87Z</time></trkpt><trkpt lat="42.7218317" lon="-8.9500483"><ele>233.0</ele><time>2026-04-17T08:11:22.869Z</time></trkpt><trkpt lat="42.7216883" lon="-8.9501467"><ele>233.33333333333334</ele><time>2026-04-17T08:11:23.87Z</time></trkpt><trkpt lat="42.721515" lon="-8.950265"><ele>233.66666666666669</ele><time>2026-04-17T08:11:24.87Z</time></trkpt><trkpt lat="42.72134" lon="-8.9504"><ele>234.0</ele><time>2026-04-17T08:11:25.869Z</time></trkpt><trkpt lat="42.721165" lon="-8.9505533"><ele>239.66666666666669</ele><time>2026-04-17T08:11:26.869Z</time></trkpt><trkpt lat="42.7209983" lon="-8.9506717"><ele>245.33333333333334</ele><time>2026-04-17T08:11:27.87Z</time></trkpt><trkpt lat="42.72086" lon="-8.9507533"><ele>251.0</ele><time>2026-04-17T08:11:28.87Z</time></trkpt><trkpt lat="42.7207383" lon="-8.95081"><ele>251.0</ele><time>2026-04-17T08:11:29.87Z</time></trkpt><trkpt lat="42.7206317" lon="-8.9508317"><ele>251.00000000000003</ele><time>2026-04-17T08:11:30.869Z</time></trkpt><trkpt lat="42.7205367" lon="-8.9508183"><ele>251.00000000000003</ele><time>2026-04-17T08:11:31.87Z</time></trkpt><trkpt lat="42.7204467" lon="-8.9507483"><ele>251.0</ele><time>2026-04-17T08:11:32.869Z</time></trkpt><trkpt lat="42.72036" lon="-8.950635"><ele>251.0</ele><time>2026-04-17T08:11:33.869Z</time></trkpt><trkpt lat="42.7202833" lon="-8.9504833"><ele>249.25</ele><time>2026-04-17T08:11:34.87Z</time></trkpt><trkpt lat="42.7201917" lon="-8.9503483"><ele>247.5</ele><time>2026-04-17T08:11:35.87Z</time></trkpt><trkpt lat="42.720135" lon="-8.9502033"><ele>245.75</ele><time>2026-04-17T08:11:36.87Z</time></trkpt><trkpt lat="42.7200983" lon="-8.9500533"><ele>244.0</ele><time>2026-04-17T08:11:37.869Z</time></trkpt><trkpt lat="42.7200617" lon="-8.9499417"><ele>246.33333333333331</ele><time>2026-04-17T08:11:38.87Z</time></trkpt><trkpt lat="42.720015" lon="-8.9498633"><ele>248.66666666666666</ele><time>2026-04-17T08:11:39.869Z</time></trkpt><trkpt lat="42.71997" lon="-8.9497933"><ele>251.0</ele><time>2026-04-17T08:11:40.87Z</time></trkpt><trkpt lat="42.7199217" lon="-8.9496917"><ele>253.33333333333331</ele><time>2026-04-17T08:11:42.87Z</time></trkpt><trkpt lat="42.7200383" lon="-8.9496817"><ele>255.66666666666666</ele><time>2026-04-17T08:11:45.869Z</time></trkpt><trkpt lat="42.7201133" lon="-8.9497283"><ele>258.0</ele><time>2026-04-17T08:11:46.869Z</time></trkpt><trkpt lat="42.720215" lon="-8.949795"><ele>260.25</ele><time>2026-04-17T08:11:47.87Z</time></trkpt><trkpt lat="42.720325" lon="-8.94988"><ele>262.5</ele><time>2026-04-17T08:11:48.87Z</time></trkpt><trkpt lat="42.720445" lon="-8.949955"><ele>264.75</ele><time>2026-04-17T08:11:49.869Z</time></trkpt><trkpt lat="42.72057" lon="-8.950005"><ele>267.0</ele><time>2026-04-17T08:11:50.869Z</time></trkpt><trkpt lat="42.720665" lon="-8.95004"><ele>267.0</ele><time>2026-04-17T08:11:51.87Z</time></trkpt><trkpt lat="42.7207617" lon="-8.9500233"><ele>267.0</ele><time>2026-04-17T08:11:52.869Z</time></trkpt><trkpt lat="42.7208417" lon="-8.9499467"><ele>267.0</ele><time>2026-04-17T08:11:53.869Z</time></trkpt><trkpt lat="42.72093" lon="-8.94981"><ele>267.0</ele><time>2026-04-17T08:11:54.869Z</time></trkpt><trkpt lat="42.7210167" lon="-8.9496283"><ele>264.6666666666667</ele><time>2026-04-17T08:11:55.87Z</time></trkpt><trkpt lat="42.7210917" lon="-8.9493867"><ele>262.33333333333337</ele><time>2026-04-17T08:11:56.87Z</time></trkpt><trkpt lat="42.721165" lon="-8.9491217"><ele>260.0</ele><time>2026-04-17T08:11:57.869Z</time></trkpt><trkpt lat="42.72121" lon="-8.9488633"><ele>260.0</ele><time>2026-04-17T08:11:58.869Z</time></trkpt><trkpt lat="42.7212517" lon="-8.9485983"><ele>260.0</ele><time>2026-04-17T08:11:59.87Z</time></trkpt><trkpt lat="42.7212933" lon="-8.9483467"><ele>260.0</ele><time>2026-04-17T08:12:00.869Z</time></trkpt><trkpt lat="42.7213267" lon="-8.94812"><ele>261.0</ele><time>2026-04-17T08:12:01.87Z</time></trkpt><trkpt lat="42.7213417" lon="-8.9479033"><ele>262.0</ele><time>2026-04-17T08:12:02.87Z</time></trkpt><trkpt lat="42.72135" lon="-8.9477233"><ele>263.0</ele><time>2026-04-17T08:12:03.87Z</time></trkpt><trkpt lat="42.721335" lon="-8.9475467"><ele>264.0</ele><time>2026-04-17T08:12:04.869Z</time></trkpt><trkpt lat="42.721315" lon="-8.9473917"><ele>264.75</ele><time>2026-04-17T08:12:05.869Z</time></trkpt><trkpt lat="42.721255" lon="-8.94722"><ele>265.5</ele><time>2026-04-17T08:12:06.87Z</time></trkpt><trkpt lat="42.721185" lon="-8.94706"><ele>266.25</ele><time>2026-04-17T08:12:07.87Z</time></trkpt><trkpt lat="42.7210867" lon="-8.94689"><ele>267.0</ele><time>2026-04-17T08:12:08.869Z</time></trkpt><trkpt lat="42.7209633" lon="-8.9467267"><ele>275.3333333333333</ele><time>2026-04-17T08:12:09.87Z</time></trkpt><trkpt lat="42.7208483" lon="-8.9465717"><ele>283.66666666666663</ele><time>2026-04-17T08:12:10.87Z</time></trkpt><trkpt lat="42.7206967" lon="-8.9464583"><ele>292.0</ele><time>2026-04-17T08:12:11.869Z</time></trkpt><trkpt lat="42.7205333" lon="-8.946325"><ele>292.0</ele><time>2026-04-17T08:12:12.87Z</time></trkpt><trkpt lat="42.720355" lon="-8.9461817"><ele>292.0</ele><time>2026-04-17T08:12:13.87Z</time></trkpt><trkpt lat="42.7201667" lon="-8.9460167"><ele>292.0</ele><time>2026-04-17T08:12:14.869Z</time></trkpt><trkpt lat="42.7200017" lon="-8.9458367"><ele>297.0</ele><time>2026-04-17T08:12:15.87Z</time></trkpt><trkpt lat="42.7198283" lon="-8.9456517"><ele>302.0</ele><time>2026-04-17T08:12:16.869Z</time></trkpt><trkpt lat="42.71967" lon="-8.945475"><ele>307.0</ele><time>2026-04-17T08:12:17.869Z</time></trkpt><trkpt lat="42.7195183" lon="-8.9453283"><ele>312.0</ele><time>2026-04-17T08:12:18.87Z</time></trkpt><trkpt lat="42.7193817" lon="-8.9451817"><ele>317.0</ele><time>2026-04-17T08:12:19.869Z</time></trkpt><trkpt lat="42.7192483" lon="-8.9450233"><ele>322.0</ele><time>2026-04-17T08:12:20.869Z</time></trkpt><trkpt lat="42.7191367" lon="-8.944865"><ele>323.0</ele><time>2026-04-17T08:12:21.87Z</time></trkpt><trkpt lat="42.7190333" lon="-8.944705"><ele>324.0</ele><time>2026-04-17T08:12:22.869Z</time></trkpt><trkpt lat="42.7189" lon="-8.9445567"><ele>325.0</ele><time>2026-04-17T08:12:23.87Z</time></trkpt><trkpt lat="42.7187733" lon="-8.94441"><ele>325.0</ele><time>2026-04-17T08:12:24.869Z</time></trkpt><trkpt lat="42.718645" lon="-8.9442517"><ele>325.0</ele><time>2026-04-17T08:12:25.869Z</time></trkpt><trkpt lat="42.7185233" lon="-8.9441117"><ele>325.0</ele><time>2026-04-17T08:12:26.87Z</time></trkpt><trkpt lat="42.7184117" lon="-8.94398"><ele>328.5</ele><time>2026-04-17T08:12:27.87Z</time></trkpt><trkpt lat="42.7183" lon="-8.9438717"><ele>332.0</ele><time>2026-04-17T08:12:28.87Z</time></trkpt><trkpt lat="42.7181883" lon="-8.9437767"><ele>335.5</ele><time>2026-04-17T08:12:29.87Z</time></trkpt><trkpt lat="42.7180833" lon="-8.9437017"><ele>339.0</ele><time>2026-04-17T08:12:30.869Z</time></trkpt><trkpt lat="42.71796" lon="-8.9436417"><ele>339.0</ele><time>2026-04-17T08:12:31.869Z</time></trkpt><trkpt lat="42.7178183" lon="-8.943585"><ele>339.0</ele><time>2026-04-17T08:12:32.869Z</time></trkpt><trkpt lat="42.7176733" lon="-8.9435183"><ele>339.0</ele><time>2026-04-17T08:12:33.869Z</time></trkpt><trkpt lat="42.7175267" lon="-8.9434433"><ele>340.5</ele><time>2026-04-17T08:12:34.869Z</time></trkpt><trkpt lat="42.7173967" lon="-8.9433683"><ele>342.0</ele><time>2026-04-17T08:12:35.87Z</time></trkpt><trkpt lat="42.7172817" lon="-8.9433"><ele>343.5</ele><time>2026-04-17T08:12:36.87Z</time></trkpt><trkpt lat="42.7171533" lon="-8.9432483"><ele>345.0</ele><time>2026-04-17T08:12:37.869Z</time></trkpt><trkpt lat="42.71701" lon="-8.9431867"><ele>349.6666666666667</ele><time>2026-04-17T08:12:38.869Z</time></trkpt><trkpt lat="42.7168633" lon="-8.9430967"><ele>354.33333333333337</ele><time>2026-04-17T08:12:39.87Z</time></trkpt><trkpt lat="42.716725" lon="-8.942995"><ele>359.0</ele><time>2026-04-17T08:12:40.87Z</time></trkpt><trkpt lat="42.7166" lon="-8.9428817"><ele>359.0</ele><time>2026-04-17T08:12:41.869Z</time></trkpt><trkpt lat="42.716495" lon="-8.9427733"><ele>359.0</ele><time>2026-04-17T08:12:42.869Z</time></trkpt><trkpt lat="42.7164033" lon="-8.9426467"><ele>359.0</ele><time>2026-04-17T08:12:43.869Z</time></trkpt><trkpt lat="42.7163333" lon="-8.942505"><ele>359.0</ele><time>2026-04-17T08:12:44.87Z</time></trkpt><trkpt lat="42.71627" lon="-8.9423617"><ele>357.4</ele><time>2026-04-17T08:12:45.87Z</time></trkpt><trkpt lat="42.7162483" lon="-8.9422267"><ele>355.79999999999995</ele><time>2026-04-17T08:12:46.87Z</time></trkpt><trkpt lat="42.716255" lon="-8.9421"><ele>354.20000000000005</ele><time>2026-04-17T08:12:47.869Z</time></trkpt><trkpt lat="42.7162917" lon="-8.94198"><ele>352.6</ele><time>2026-04-17T08:12:48.87Z</time></trkpt><trkpt lat="42.716355" lon="-8.9418517"><ele>351.0</ele><time>2026-04-17T08:12:49.869Z</time></trkpt><trkpt lat="42.7164417" lon="-8.9417217"><ele>353.0</ele><time>2026-04-17T08:12:50.869Z</time></trkpt><trkpt lat="42.71652" lon="-8.94159"><ele>355.0</ele><time>2026-04-17T08:12:51.87Z</time></trkpt><trkpt lat="42.7165833" lon="-8.9414517"><ele>357.0</ele><time>2026-04-17T08:12:52.87Z</time></trkpt><trkpt lat="42.716635" lon="-8.9413133"><ele>359.0</ele><time>2026-04-17T08:12:53.869Z</time></trkpt><trkpt lat="42.7166783" lon="-8.9411583"><ele>359.0</ele><time>2026-04-17T08:12:54.869Z</time></trkpt><trkpt lat="42.716705" lon="-8.9409783"><ele>359.0</ele><time>2026-04-17T08:12:55.869Z</time></trkpt><trkpt lat="42.7167183" lon="-8.940795"><ele>359.0</ele><time>2026-04-17T08:12:56.87Z</time></trkpt><trkpt lat="42.7167217" lon="-8.9406167"><ele>359.0</ele><time>2026-04-17T08:12:57.87Z</time></trkpt><trkpt lat="42.716705" lon="-8.9404717"><ele>361.0</ele><time>2026-04-17T08:12:58.869Z</time></trkpt><trkpt lat="42.7166667" lon="-8.9403517"><ele>363.0</ele><time>2026-04-17T08:12:59.87Z</time></trkpt><trkpt lat="42.716595" lon="-8.94025"><ele>365.0</ele><time>2026-04-17T08:13:00.87Z</time></trkpt><trkpt lat="42.7165217" lon="-8.9401333"><ele>367.0</ele><time>2026-04-17T08:13:01.869Z</time></trkpt><trkpt lat="42.7164467" lon="-8.9400033"><ele>369.0</ele><time>2026-04-17T08:13:02.869Z</time></trkpt><trkpt lat="42.7163633" lon="-8.9398533"><ele>369.25</ele><time>2026-04-17T08:13:03.869Z</time></trkpt><trkpt lat="42.7162633" lon="-8.9396933"><ele>369.5</ele><time>2026-04-17T08:13:04.87Z</time></trkpt><trkpt lat="42.7161667" lon="-8.93954"><ele>369.75</ele><time>2026-04-17T08:13:05.87Z</time></trkpt><trkpt lat="42.7160783" lon="-8.9394067"><ele>370.0</ele><time>2026-04-17T08:13:06.869Z</time></trkpt><trkpt lat="42.7160267" lon="-8.9392517"><ele>375.5</ele><time>2026-04-17T08:13:07.869Z</time></trkpt><trkpt lat="42.715975" lon="-8.9390667"><ele>381.0</ele><time>2026-04-17T08:13:08.87Z</time></trkpt><trkpt lat="42.7159417" lon="-8.93887"><ele>386.5</ele><time>2026-04-17T08:13:09.87Z</time></trkpt><trkpt lat="42.7159117" lon="-8.9386667"><ele>392.0</ele><time>2026-04-17T08:13:10.87Z</time></trkpt><trkpt lat="42.7158767" lon="-8.9384817"><ele>391.75</ele><time>2026-04-17T08:13:11.869Z</time></trkpt><trkpt lat="42.715835" lon="-8.9383117"><ele>391.5</ele><time>2026-04-17T08:13:12.869Z</time></trkpt><trkpt lat="42.7157983" lon="-8.9381583"><ele>391.25</ele><time>2026-04-17T08:13:13.87Z</time></trkpt><trkpt lat="42.715795" lon="-8.937995"><ele>391.0</ele><time>2026-04-17T08:13:14.87Z</time></trkpt><trkpt lat="42.7158083" lon="-8.9378117"><ele>391.0</ele><time>2026-04-17T08:13:15.869Z</time></trkpt><trkpt lat="42.7158517" lon="-8.93764"><ele>391.0</ele><time>2026-04-17T08:13:16.87Z</time></trkpt><trkpt lat="42.7158767" lon="-8.9374883"><ele>391.0</ele><time>2026-04-17T08:13:17.869Z</time></trkpt><trkpt lat="42.7159017" lon="-8.9373367"><ele>391.0</ele><time>2026-04-17T08:13:18.87Z</time></trkpt><trkpt lat="42.7159017" lon="-8.9371883"><ele>392.75</ele><time>2026-04-17T08:13:19.869Z</time></trkpt><trkpt lat="42.7158883" lon="-8.9370433"><ele>394.5</ele><time>2026-04-17T08:13:20.87Z</time></trkpt><trkpt lat="42.7158583" lon="-8.9368967"><ele>396.25</ele><time>2026-04-17T08:13:21.869Z</time></trkpt><trkpt lat="42.7158117" lon="-8.9367483"><ele>398.0</ele><time>2026-04-17T08:13:22.869Z</time></trkpt><trkpt lat="42.7157633" lon="-8.936585"><ele>399.25</ele><time>2026-04-17T08:13:23.869Z</time></trkpt><trkpt lat="42.7157483" lon="-8.93642"><ele>400.5</ele><time>2026-04-17T08:13:24.87Z</time></trkpt><trkpt lat="42.7157017" lon="-8.9362633"><ele>401.75</ele><time>2026-04-17T08:13:25.869Z</time></trkpt><trkpt lat="42.7156583" lon="-8.9361217"><ele>403.0</ele><time>2026-04-17T08:13:26.87Z</time></trkpt><trkpt lat="42.7156017" lon="-8.9359983"><ele>403.2</ele><time>2026-04-17T08:13:27.87Z</time></trkpt><trkpt lat="42.7155367" lon="-8.9358783"><ele>403.4</ele><time>2026-04-17T08:13:28.87Z</time></trkpt><trkpt lat="42.715465" lon="-8.935765"><ele>403.59999999999997</ele><time>2026-04-17T08:13:29.87Z</time></trkpt><trkpt lat="42.7153917" lon="-8.9356567"><ele>403.79999999999995</ele><time>2026-04-17T08:13:30.869Z</time></trkpt><trkpt lat="42.7153283" lon="-8.9355483"><ele>404.0</ele><time>2026-04-17T08:13:31.871Z</time></trkpt><trkpt lat="42.7152667" lon="-8.9354483"><ele>411.79999999999995</ele><time>2026-04-17T08:13:32.87Z</time></trkpt><trkpt lat="42.715215" lon="-8.9353467"><ele>419.59999999999997</ele><time>2026-04-17T08:13:33.87Z</time></trkpt><trkpt lat="42.7151767" lon="-8.9352467"><ele>427.4</ele><time>2026-04-17T08:13:34.871Z</time></trkpt><trkpt lat="42.7151583" lon="-8.9351333"><ele>435.2</ele><time>2026-04-17T08:13:35.87Z</time></trkpt><trkpt lat="42.7151683" lon="-8.934995"><ele>443.0</ele><time>2026-04-17T08:13:36.871Z</time></trkpt><trkpt lat="42.7152067" lon="-8.934825"><ele>443.59999999999997</ele><time>2026-04-17T08:13:37.87Z</time></trkpt><trkpt lat="42.7152333" lon="-8.934695"><ele>444.19999999999993</ele><time>2026-04-17T08:13:38.871Z</time></trkpt><trkpt lat="42.71527" lon="-8.9345583"><ele>444.8</ele><time>2026-04-17T08:13:39.871Z</time></trkpt><trkpt lat="42.715285" lon="-8.9344167"><ele>445.4</ele><time>2026-04-17T08:13:40.871Z</time></trkpt><trkpt lat="42.7152717" lon="-8.9342717"><ele>446.0</ele><time>2026-04-17T08:13:41.87Z</time></trkpt><trkpt lat="42.7152517" lon="-8.9341217"><ele>449.25</ele><time>2026-04-17T08:13:42.871Z</time></trkpt><trkpt lat="42.7152283" lon="-8.9339683"><ele>452.5</ele><time>2026-04-17T08:13:43.87Z</time></trkpt><trkpt lat="42.715195" lon="-8.9338"><ele>455.75</ele><time>2026-04-17T08:13:44.87Z</time></trkpt><trkpt lat="42.7151567" lon="-8.93363"><ele>459.0</ele><time>2026-04-17T08:13:45.871Z</time></trkpt><trkpt lat="42.7151333" lon="-8.933445"><ele>460.0</ele><time>2026-04-17T08:13:46.871Z</time></trkpt><trkpt lat="42.7151017" lon="-8.9332617"><ele>461.0</ele><time>2026-04-17T08:13:47.87Z</time></trkpt><trkpt lat="42.7151233" lon="-8.933075"><ele>462.0</ele><time>2026-04-17T08:13:48.87Z</time></trkpt><trkpt lat="42.7151033" lon="-8.9328833"><ele>463.0</ele><time>2026-04-17T08:13:49.871Z</time></trkpt><trkpt lat="42.7151117" lon="-8.932725"><ele>463.0</ele><time>2026-04-17T08:13:50.87Z</time></trkpt><trkpt lat="42.7151233" lon="-8.9326017"><ele>462.99999999999994</ele><time>2026-04-17T08:13:51.87Z</time></trkpt><trkpt lat="42.71513" lon="-8.932505"><ele>462.99999999999994</ele><time>2026-04-17T08:13:52.871Z</time></trkpt><trkpt lat="42.7150617" lon="-8.93259"><ele>463.0</ele><time>2026-04-17T08:13:57.871Z</time></trkpt><trkpt lat="42.715035" lon="-8.9327567"><ele>463.0</ele><time>2026-04-17T08:13:58.87Z</time></trkpt><trkpt lat="42.71501" lon="-8.932945"><ele>463.0</ele><time>2026-04-17T08:13:59.87Z</time></trkpt><trkpt lat="42.714975" lon="-8.93317"><ele>463.0</ele><time>2026-04-17T08:14:00.871Z</time></trkpt><trkpt lat="42.7149283" lon="-8.9333817"><ele>463.0</ele><time>2026-04-17T08:14:01.871Z</time></trkpt><trkpt lat="42.7148717" lon="-8.9335583"><ele>462.0</ele><time>2026-04-17T08:14:02.87Z</time></trkpt><trkpt lat="42.7148067" lon="-8.9337017"><ele>461.0</ele><time>2026-04-17T08:14:03.87Z</time></trkpt><trkpt lat="42.7147317" lon="-8.9338233"><ele>460.0</ele><time>2026-04-17T08:14:04.871Z</time></trkpt><trkpt lat="42.7146417" lon="-8.93395"><ele>459.0</ele><time>2026-04-17T08:14:05.871Z</time></trkpt><trkpt lat="42.7145283" lon="-8.9341083"><ele>454.66666666666663</ele><time>2026-04-17T08:14:06.871Z</time></trkpt><trkpt lat="42.7144167" lon="-8.934285"><ele>450.3333333333333</ele><time>2026-04-17T08:14:07.871Z</time></trkpt><trkpt lat="42.7143283" lon="-8.934465"><ele>446.0</ele><time>2026-04-17T08:14:08.87Z</time></trkpt><trkpt lat="42.7142683" lon="-8.9346633"><ele>453.25</ele><time>2026-04-17T08:14:09.87Z</time></trkpt><trkpt lat="42.7142267" lon="-8.9348683"><ele>460.5</ele><time>2026-04-17T08:14:10.871Z</time></trkpt><trkpt lat="42.7141967" lon="-8.9350517"><ele>467.75</ele><time>2026-04-17T08:14:11.87Z</time></trkpt><trkpt lat="42.7141567" lon="-8.9351933"><ele>475.0</ele><time>2026-04-17T08:14:12.871Z</time></trkpt><trkpt lat="42.7141017" lon="-8.9352917"><ele>475.0</ele><time>2026-04-17T08:14:13.871Z</time></trkpt><trkpt lat="42.7140317" lon="-8.9353617"><ele>475.0</ele><time>2026-04-17T08:14:14.87Z</time></trkpt><trkpt lat="42.7139433" lon="-8.93542"><ele>475.0</ele><time>2026-04-17T08:14:15.87Z</time></trkpt><trkpt lat="42.713855" lon="-8.93548"><ele>475.0</ele><time>2026-04-17T08:14:16.87Z</time></trkpt><trkpt lat="42.7137883" lon="-8.9355817"><ele>475.0</ele><time>2026-04-17T08:14:17.87Z</time></trkpt><trkpt lat="42.7137433" lon="-8.9357117"><ele>475.0</ele><time>2026-04-17T08:14:18.871Z</time></trkpt><trkpt lat="42.713715" lon="-8.9358683"><ele>475.0</ele><time>2026-04-17T08:14:19.871Z</time></trkpt><trkpt lat="42.7137117" lon="-8.9360517"><ele>475.0</ele><time>2026-04-17T08:14:20.87Z</time></trkpt><trkpt lat="42.713715" lon="-8.9362083"><ele>475.0</ele><time>2026-04-17T08:14:21.87Z</time></trkpt><trkpt lat="42.7136917" lon="-8.9363417"><ele>475.75</ele><time>2026-04-17T08:14:22.87Z</time></trkpt><trkpt lat="42.713645" lon="-8.9364533"><ele>476.5</ele><time>2026-04-17T08:14:23.87Z</time></trkpt><trkpt lat="42.7135883" lon="-8.9365667"><ele>477.25</ele><time>2026-04-17T08:14:24.871Z</time></trkpt><trkpt lat="42.71352" lon="-8.9367083"><ele>478.0</ele><time>2026-04-17T08:14:25.871Z</time></trkpt><trkpt lat="42.713425" lon="-8.936865"><ele>482.25</ele><time>2026-04-17T08:14:26.87Z</time></trkpt><trkpt lat="42.71332" lon="-8.9370233"><ele>486.5</ele><time>2026-04-17T08:14:27.871Z</time></trkpt><trkpt lat="42.7132367" lon="-8.93717"><ele>490.75</ele><time>2026-04-17T08:14:28.871Z</time></trkpt><trkpt lat="42.713165" lon="-8.9373"><ele>495.0</ele><time>2026-04-17T08:14:29.871Z</time></trkpt><trkpt lat="42.71309" lon="-8.9373883"><ele>495.0</ele><time>2026-04-17T08:14:30.871Z</time></trkpt><trkpt lat="42.7130217" lon="-8.93748"><ele>495.0</ele><time>2026-04-17T08:14:31.87Z</time></trkpt><trkpt lat="42.7129633" lon="-8.937575"><ele>495.0</ele><time>2026-04-17T08:14:32.87Z</time></trkpt><trkpt lat="42.7129183" lon="-8.9377083"><ele>495.0</ele><time>2026-04-17T08:14:33.87Z</time></trkpt><trkpt lat="42.7128733" lon="-8.937845"><ele>495.0</ele><time>2026-04-17T08:14:34.87Z</time></trkpt><trkpt lat="42.7128267" lon="-8.937975"><ele>494.6</ele><time>2026-04-17T08:14:35.871Z</time></trkpt><trkpt lat="42.712775" lon="-8.9380767"><ele>494.2</ele><time>2026-04-17T08:14:36.87Z</time></trkpt><trkpt lat="42.7127067" lon="-8.9381433"><ele>493.79999999999995</ele><time>2026-04-17T08:14:37.87Z</time></trkpt><trkpt lat="42.712605" lon="-8.9382"><ele>493.4</ele><time>2026-04-17T08:14:38.87Z</time></trkpt><trkpt lat="42.7124833" lon="-8.9382533"><ele>493.0</ele><time>2026-04-17T08:14:39.871Z</time></trkpt><trkpt lat="42.7123367" lon="-8.9382467"><ele>491.5</ele><time>2026-04-17T08:14:40.871Z</time></trkpt><trkpt lat="42.712185" lon="-8.938255"><ele>490.0</ele><time>2026-04-17T08:14:41.871Z</time></trkpt><trkpt lat="42.7120183" lon="-8.93827"><ele>488.5</ele><time>2026-04-17T08:14:42.87Z</time></trkpt><trkpt lat="42.7118883" lon="-8.93827"><ele>487.0</ele><time>2026-04-17T08:14:43.871Z</time></trkpt><trkpt lat="42.71178" lon="-8.9382417"><ele>484.0</ele><time>2026-04-17T08:14:44.87Z</time></trkpt><trkpt lat="42.711685" lon="-8.9381767"><ele>481.0</ele><time>2026-04-17T08:14:45.87Z</time></trkpt><trkpt lat="42.711585" lon="-8.9381"><ele>478.0</ele><time>2026-04-17T08:14:46.87Z</time></trkpt><trkpt lat="42.711475" lon="-8.9379933"><ele>475.0</ele><time>2026-04-17T08:14:47.87Z</time></trkpt><trkpt lat="42.71133" lon="-8.9378867"><ele>475.0</ele><time>2026-04-17T08:14:48.87Z</time></trkpt><trkpt lat="42.7111517" lon="-8.937795"><ele>475.0</ele><time>2026-04-17T08:14:49.87Z</time></trkpt><trkpt lat="42.710955" lon="-8.93768"><ele>475.0</ele><time>2026-04-17T08:14:50.87Z</time></trkpt><trkpt lat="42.7107517" lon="-8.9375917"><ele>476.0</ele><time>2026-04-17T08:14:51.87Z</time></trkpt><trkpt lat="42.7105783" lon="-8.9374867"><ele>477.0</ele><time>2026-04-17T08:14:52.87Z</time></trkpt><trkpt lat="42.71042" lon="-8.93738"><ele>478.0</ele><time>2026-04-17T08:14:53.87Z</time></trkpt><trkpt lat="42.7102933" lon="-8.9373"><ele>477.4</ele><time>2026-04-17T08:14:54.871Z</time></trkpt><trkpt lat="42.7101967" lon="-8.937245"><ele>476.79999999999995</ele><time>2026-04-17T08:14:55.87Z</time></trkpt><trkpt lat="42.7101083" lon="-8.9372233"><ele>476.2</ele><time>2026-04-17T08:14:56.871Z</time></trkpt><trkpt lat="42.710025" lon="-8.9372333"><ele>475.6</ele><time>2026-04-17T08:14:57.87Z</time></trkpt><trkpt lat="42.7099433" lon="-8.9373233"><ele>475.0</ele><time>2026-04-17T08:14:59.87Z</time></trkpt><trkpt lat="42.7099333" lon="-8.9374483"><ele>476.0</ele><time>2026-04-17T08:15:00.871Z</time></trkpt><trkpt lat="42.70995" lon="-8.9376283"><ele>477.0</ele><time>2026-04-17T08:15:01.871Z</time></trkpt><trkpt lat="42.7099533" lon="-8.9378217"><ele>478.0</ele><time>2026-04-17T08:15:02.871Z</time></trkpt><trkpt lat="42.7099883" lon="-8.9380717"><ele>478.0</ele><time>2026-04-17T08:15:03.87Z</time></trkpt><trkpt lat="42.7100467" lon="-8.93836"><ele>478.0</ele><time>2026-04-17T08:15:04.87Z</time></trkpt><trkpt lat="42.7100983" lon="-8.9386817"><ele>478.0</ele><time>2026-04-17T08:15:05.87Z</time></trkpt><trkpt lat="42.710135" lon="-8.9389767"><ele>478.0</ele><time>2026-04-17T08:15:06.87Z</time></trkpt><trkpt lat="42.71015" lon="-8.9392533"><ele>478.0</ele><time>2026-04-17T08:15:07.87Z</time></trkpt><trkpt lat="42.710145" lon="-8.9394967"><ele>478.0</ele><time>2026-04-17T08:15:08.87Z</time></trkpt><trkpt lat="42.710115" lon="-8.9397367"><ele>478.0</ele><time>2026-04-17T08:15:09.87Z</time></trkpt><trkpt lat="42.7101" lon="-8.9399533"><ele>478.0</ele><time>2026-04-17T08:15:10.87Z</time></trkpt><trkpt lat="42.7100617" lon="-8.9401517"><ele>473.59999999999997</ele><time>2026-04-17T08:15:11.87Z</time></trkpt><trkpt lat="42.710005" lon="-8.940295"><ele>469.19999999999993</ele><time>2026-04-17T08:15:12.871Z</time></trkpt><trkpt lat="42.7099333" lon="-8.9404083"><ele>464.8</ele><time>2026-04-17T08:15:13.87Z</time></trkpt><trkpt lat="42.7098567" lon="-8.940475"><ele>460.4</ele><time>2026-04-17T08:15:14.87Z</time></trkpt><trkpt lat="42.70976" lon="-8.94052"><ele>456.0</ele><time>2026-04-17T08:15:15.871Z</time></trkpt><trkpt lat="42.7096417" lon="-8.9405067"><ele>463.0</ele><time>2026-04-17T08:15:16.871Z</time></trkpt><trkpt lat="42.7093533" lon="-8.9405217"><ele>470.0</ele><time>2026-04-17T08:15:18.871Z</time></trkpt><trkpt lat="42.709185" lon="-8.9405417"><ele>470.0</ele><time>2026-04-17T08:15:19.87Z</time></trkpt><trkpt lat="42.7090067" lon="-8.94058"><ele>470.0</ele><time>2026-04-17T08:15:20.87Z</time></trkpt><trkpt lat="42.708835" lon="-8.9406333"><ele>470.0</ele><time>2026-04-17T08:15:21.871Z</time></trkpt><trkpt lat="42.7086717" lon="-8.94071"><ele>475.66666666666663</ele><time>2026-04-17T08:15:22.871Z</time></trkpt><trkpt lat="42.7085217" lon="-8.94083"><ele>481.33333333333337</ele><time>2026-04-17T08:15:23.871Z</time></trkpt><trkpt lat="42.708375" lon="-8.9409733"><ele>487.0</ele><time>2026-04-17T08:15:24.871Z</time></trkpt><trkpt lat="42.7082483" lon="-8.9411183"><ele>487.0</ele><time>2026-04-17T08:15:25.871Z</time></trkpt><trkpt lat="42.7081517" lon="-8.9412433"><ele>487.00000000000006</ele><time>2026-04-17T08:15:26.87Z</time></trkpt><trkpt lat="42.7080817" lon="-8.941345"><ele>487.00000000000006</ele><time>2026-04-17T08:15:27.871Z</time></trkpt><trkpt lat="42.7080517" lon="-8.9414433"><ele>487.0</ele><time>2026-04-17T08:15:28.87Z</time></trkpt><trkpt lat="42.7080533" lon="-8.9415433"><ele>487.0</ele><time>2026-04-17T08:15:29.871Z</time></trkpt><trkpt lat="42.7080733" lon="-8.9416367"><ele>492.5</ele><time>2026-04-17T08:15:30.87Z</time></trkpt><trkpt lat="42.7081217" lon="-8.9417283"><ele>498.0</ele><time>2026-04-17T08:15:31.871Z</time></trkpt><trkpt lat="42.7082083" lon="-8.9418133"><ele>503.5</ele><time>2026-04-17T08:15:32.871Z</time></trkpt><trkpt lat="42.708335" lon="-8.941915"><ele>509.0</ele><time>2026-04-17T08:15:33.87Z</time></trkpt><trkpt lat="42.708525" lon="-8.9420333"><ele>498.0</ele><time>2026-04-17T08:15:34.87Z</time></trkpt><trkpt lat="42.7086883" lon="-8.9421617"><ele>487.0</ele><time>2026-04-17T08:15:35.871Z</time></trkpt><trkpt lat="42.7088167" lon="-8.9422883"><ele>476.0</ele><time>2026-04-17T08:15:36.871Z</time></trkpt><trkpt lat="42.70891" lon="-8.9424317"><ele>482.75</ele><time>2026-04-17T08:15:37.87Z</time></trkpt><trkpt lat="42.70898" lon="-8.9426067"><ele>489.5</ele><time>2026-04-17T08:15:38.87Z</time></trkpt><trkpt lat="42.70906" lon="-8.942805"><ele>496.25</ele><time>2026-04-17T08:15:39.87Z</time></trkpt><trkpt lat="42.7091433" lon="-8.9429433"><ele>503.0</ele><time>2026-04-17T08:15:40.871Z</time></trkpt><trkpt lat="42.7092617" lon="-8.9430367"><ele>503.0</ele><time>2026-04-17T08:15:41.87Z</time></trkpt><trkpt lat="42.7094033" lon="-8.9431433"><ele>503.0</ele><time>2026-04-17T08:15:42.87Z</time></trkpt><trkpt lat="42.7095467" lon="-8.9432483"><ele>503.0</ele><time>2026-04-17T08:15:43.87Z</time></trkpt><trkpt lat="42.7097067" lon="-8.9433683"><ele>501.5</ele><time>2026-04-17T08:15:44.87Z</time></trkpt><trkpt lat="42.7098433" lon="-8.9434883"><ele>500.0</ele><time>2026-04-17T08:15:45.871Z</time></trkpt><trkpt lat="42.709965" lon="-8.9435683"><ele>498.5</ele><time>2026-04-17T08:15:46.871Z</time></trkpt><trkpt lat="42.7100583" lon="-8.9437033"><ele>497.0</ele><time>2026-04-17T08:15:47.87Z</time></trkpt><trkpt lat="42.7101333" lon="-8.94387"><ele>497.0</ele><time>2026-04-17T08:15:48.87Z</time></trkpt><trkpt lat="42.7102033" lon="-8.94407"><ele>497.0</ele><time>2026-04-17T08:15:49.87Z</time></trkpt><trkpt lat="42.7102733" lon="-8.9442883"><ele>497.0</ele><time>2026-04-17T08:15:50.871Z</time></trkpt><trkpt lat="42.710345" lon="-8.9445033"><ele>492.5</ele><time>2026-04-17T08:15:51.871Z</time></trkpt><trkpt lat="42.7103967" lon="-8.9447017"><ele>488.0</ele><time>2026-04-17T08:15:52.871Z</time></trkpt><trkpt lat="42.7104283" lon="-8.9448867"><ele>483.5</ele><time>2026-04-17T08:15:53.87Z</time></trkpt><trkpt lat="42.71044" lon="-8.9450667"><ele>479.0</ele><time>2026-04-17T08:15:54.871Z</time></trkpt><trkpt lat="42.7104183" lon="-8.9452483"><ele>475.66666666666663</ele><time>2026-04-17T08:15:55.87Z</time></trkpt><trkpt lat="42.7103633" lon="-8.9454633"><ele>472.33333333333337</ele><time>2026-04-17T08:15:56.871Z</time></trkpt><trkpt lat="42.710285" lon="-8.9456717"><ele>469.0</ele><time>2026-04-17T08:15:57.87Z</time></trkpt><trkpt lat="42.710195" lon="-8.945865"><ele>471.0</ele><time>2026-04-17T08:15:58.871Z</time></trkpt><trkpt lat="42.71009" lon="-8.9460317"><ele>473.0</ele><time>2026-04-17T08:15:59.87Z</time></trkpt><trkpt lat="42.709975" lon="-8.94618"><ele>475.0</ele><time>2026-04-17T08:16:00.871Z</time></trkpt><trkpt lat="42.7098567" lon="-8.9463233"><ele>475.0</ele><time>2026-04-17T08:16:01.87Z</time></trkpt><trkpt lat="42.7097667" lon="-8.946475"><ele>475.0</ele><time>2026-04-17T08:16:02.87Z</time></trkpt><trkpt lat="42.709705" lon="-8.94664"><ele>475.0</ele><time>2026-04-17T08:16:03.87Z</time></trkpt><trkpt lat="42.709675" lon="-8.9468417"><ele>475.0</ele><time>2026-04-17T08:16:04.87Z</time></trkpt><trkpt lat="42.7096567" lon="-8.94707"><ele>470.6666666666667</ele><time>2026-04-17T08:16:05.87Z</time></trkpt><trkpt lat="42.7096233" lon="-8.9473"><ele>466.33333333333337</ele><time>2026-04-17T08:16:06.87Z</time></trkpt><trkpt lat="42.7095683" lon="-8.9475117"><ele>462.0</ele><time>2026-04-17T08:16:07.871Z</time></trkpt><trkpt lat="42.7094983" lon="-8.9477167"><ele>459.0</ele><time>2026-04-17T08:16:08.87Z</time></trkpt><trkpt lat="42.7094167" lon="-8.9479183"><ele>456.0</ele><time>2026-04-17T08:16:09.87Z</time></trkpt><trkpt lat="42.709305" lon="-8.9481167"><ele>453.0</ele><time>2026-04-17T08:16:10.87Z</time></trkpt><trkpt lat="42.7091717" lon="-8.9483133"><ele>456.33333333333337</ele><time>2026-04-17T08:16:11.87Z</time></trkpt><trkpt lat="42.709045" lon="-8.948505"><ele>459.6666666666667</ele><time>2026-04-17T08:16:12.871Z</time></trkpt><trkpt lat="42.708935" lon="-8.9486933"><ele>463.0</ele><time>2026-04-17T08:16:13.871Z</time></trkpt><trkpt lat="42.7088333" lon="-8.9488767"><ele>463.0</ele><time>2026-04-17T08:16:14.87Z</time></trkpt><trkpt lat="42.7087233" lon="-8.9490717"><ele>463.0</ele><time>2026-04-17T08:16:15.87Z</time></trkpt><trkpt lat="42.7086067" lon="-8.9492567"><ele>463.0</ele><time>2026-04-17T08:16:16.871Z</time></trkpt><trkpt lat="42.7084817" lon="-8.9494417"><ele>467.0</ele><time>2026-04-17T08:16:17.871Z</time></trkpt><trkpt lat="42.7083683" lon="-8.9496133"><ele>471.0</ele><time>2026-04-17T08:16:18.871Z</time></trkpt><trkpt lat="42.70827" lon="-8.9497733"><ele>475.0</ele><time>2026-04-17T08:16:19.87Z</time></trkpt><trkpt lat="42.7081567" lon="-8.9499017"><ele>475.0</ele><time>2026-04-17T08:16:20.871Z</time></trkpt><trkpt lat="42.70803" lon="-8.9500183"><ele>475.0</ele><time>2026-04-17T08:16:21.87Z</time></trkpt><trkpt lat="42.7078933" lon="-8.9501283"><ele>475.0</ele><time>2026-04-17T08:16:22.871Z</time></trkpt><trkpt lat="42.70777" lon="-8.9502367"><ele>479.25</ele><time>2026-04-17T08:16:23.871Z</time></trkpt><trkpt lat="42.7076683" lon="-8.9503483"><ele>483.5</ele><time>2026-04-17T08:16:24.87Z</time></trkpt><trkpt lat="42.7076033" lon="-8.9504383"><ele>487.75</ele><time>2026-04-17T08:16:25.87Z</time></trkpt><trkpt lat="42.7075633" lon="-8.950595"><ele>492.0</ele><time>2026-04-17T08:16:27.87Z</time></trkpt><trkpt lat="42.707605" lon="-8.9507833"><ele>492.0</ele><time>2026-04-17T08:16:29.87Z</time></trkpt><trkpt lat="42.70764" lon="-8.950935"><ele>492.0</ele><time>2026-04-17T08:16:30.87Z</time></trkpt><trkpt lat="42.7076783" lon="-8.9511433"><ele>492.0</ele><time>2026-04-17T08:16:31.87Z</time></trkpt><trkpt lat="42.7077067" lon="-8.9513617"><ele>492.0</ele><time>2026-04-17T08:16:32.87Z</time></trkpt><trkpt lat="42.7077217" lon="-8.9515983"><ele>491.33333333333337</ele><time>2026-04-17T08:16:33.871Z</time></trkpt><trkpt lat="42.7077283" lon="-8.95184"><ele>490.6666666666667</ele><time>2026-04-17T08:16:34.87Z</time></trkpt><trkpt lat="42.7077317" lon="-8.9520617"><ele>490.0</ele><time>2026-04-17T08:16:35.87Z</time></trkpt><trkpt lat="42.7077483" lon="-8.9522483"><ele>483.75</ele><time>2026-04-17T08:16:36.87Z</time></trkpt><trkpt lat="42.7077683" lon="-8.952415"><ele>477.5</ele><time>2026-04-17T08:16:37.87Z</time></trkpt><trkpt lat="42.707805" lon="-8.9525783"><ele>471.25</ele><time>2026-04-17T08:16:38.87Z</time></trkpt><trkpt lat="42.7078767" lon="-8.9527483"><ele>465.0</ele><time>2026-04-17T08:16:39.87Z</time></trkpt><trkpt lat="42.70797" lon="-8.952925"><ele>465.0</ele><time>2026-04-17T08:16:40.87Z</time></trkpt><trkpt lat="42.7080733" lon="-8.95311"><ele>465.0</ele><time>2026-04-17T08:16:41.87Z</time></trkpt><trkpt lat="42.7081667" lon="-8.9532933"><ele>465.0</ele><time>2026-04-17T08:16:42.871Z</time></trkpt><trkpt lat="42.7082267" lon="-8.95345"><ele>465.2</ele><time>2026-04-17T08:16:43.87Z</time></trkpt><trkpt lat="42.708265" lon="-8.9535883"><ele>465.4</ele><time>2026-04-17T08:16:44.871Z</time></trkpt><trkpt lat="42.708275" lon="-8.953715"><ele>465.6</ele><time>2026-04-17T08:16:45.871Z</time></trkpt><trkpt lat="42.7082617" lon="-8.953805"><ele>465.8</ele><time>2026-04-17T08:16:46.87Z</time></trkpt><trkpt lat="42.7081683" lon="-8.9539217"><ele>466.0</ele><time>2026-04-17T08:16:48.87Z</time></trkpt><trkpt lat="42.7080967" lon="-8.9539617"><ele>466.0</ele><time>2026-04-17T08:16:49.87Z</time></trkpt><trkpt lat="42.7079917" lon="-8.9539917"><ele>466.0</ele><time>2026-04-17T08:16:50.87Z</time></trkpt><trkpt lat="42.7078683" lon="-8.9540117"><ele>466.0</ele><time>2026-04-17T08:16:51.87Z</time></trkpt><trkpt lat="42.7077033" lon="-8.9540233"><ele>466.0</ele><time>2026-04-17T08:16:52.871Z</time></trkpt><trkpt lat="42.7075283" lon="-8.95403"><ele>468.33333333333337</ele><time>2026-04-17T08:16:53.87Z</time></trkpt><trkpt lat="42.7073383" lon="-8.9540583"><ele>470.66666666666663</ele><time>2026-04-17T08:16:54.871Z</time></trkpt><trkpt lat="42.7071533" lon="-8.9540767"><ele>473.0</ele><time>2026-04-17T08:16:55.87Z</time></trkpt><trkpt lat="42.7069833" lon="-8.954105"><ele>473.3333333333333</ele><time>2026-04-17T08:16:56.87Z</time></trkpt><trkpt lat="42.706815" lon="-8.9541567"><ele>473.66666666666663</ele><time>2026-04-17T08:16:57.87Z</time></trkpt><trkpt lat="42.706635" lon="-8.954225"><ele>474.0</ele><time>2026-04-17T08:16:58.871Z</time></trkpt><trkpt lat="42.70643" lon="-8.9542967"><ele>466.33333333333337</ele><time>2026-04-17T08:16:59.871Z</time></trkpt><trkpt lat="42.7062233" lon="-8.95435"><ele>458.6666666666667</ele><time>2026-04-17T08:17:00.87Z</time></trkpt><trkpt lat="42.7060217" lon="-8.9543983"><ele>451.0</ele><time>2026-04-17T08:17:01.871Z</time></trkpt><trkpt lat="42.7058333" lon="-8.95445"><ele>451.0</ele><time>2026-04-17T08:17:02.87Z</time></trkpt><trkpt lat="42.70566" lon="-8.9545033"><ele>451.0</ele><time>2026-04-17T08:17:03.87Z</time></trkpt><trkpt lat="42.70548" lon="-8.9545767"><ele>451.0</ele><time>2026-04-17T08:17:04.871Z</time></trkpt><trkpt lat="42.705305" lon="-8.9546467"><ele>457.6666666666667</ele><time>2026-04-17T08:17:05.87Z</time></trkpt><trkpt lat="42.7051567" lon="-8.9547267"><ele>464.33333333333337</ele><time>2026-04-17T08:17:06.871Z</time></trkpt><trkpt lat="42.7050233" lon="-8.954815"><ele>471.0</ele><time>2026-04-17T08:17:07.87Z</time></trkpt><trkpt lat="42.7049017" lon="-8.9549217"><ele>467.66666666666663</ele><time>2026-04-17T08:17:08.871Z</time></trkpt><trkpt lat="42.7047733" lon="-8.9550467"><ele>464.3333333333333</ele><time>2026-04-17T08:17:09.87Z</time></trkpt><trkpt lat="42.704645" lon="-8.9551733"><ele>461.0</ele><time>2026-04-17T08:17:10.87Z</time></trkpt><trkpt lat="42.7045167" lon="-8.9552733"><ele>465.8333333333333</ele><time>2026-04-17T08:17:11.87Z</time></trkpt><trkpt lat="42.7044067" lon="-8.9553567"><ele>470.66666666666663</ele><time>2026-04-17T08:17:12.87Z</time></trkpt><trkpt lat="42.7043267" lon="-8.9554217"><ele>475.5</ele><time>2026-04-17T08:17:13.871Z</time></trkpt><trkpt lat="42.7042733" lon="-8.9554967"><ele>480.33333333333337</ele><time>2026-04-17T08:17:14.871Z</time></trkpt><trkpt lat="42.70424" lon="-8.9555867"><ele>485.1666666666667</ele><time>2026-04-17T08:17:15.87Z</time></trkpt><trkpt lat="42.7042317" lon="-8.9556933"><ele>490.0</ele><time>2026-04-17T08:17:16.871Z</time></trkpt><trkpt lat="42.704255" lon="-8.9558117"><ele>488.5</ele><time>2026-04-17T08:17:17.87Z</time></trkpt><trkpt lat="42.7043167" lon="-8.9559483"><ele>487.0</ele><time>2026-04-17T08:17:18.87Z</time></trkpt><trkpt lat="42.704425" lon="-8.95609"><ele>485.5</ele><time>2026-04-17T08:17:19.871Z</time></trkpt><trkpt lat="42.7045567" lon="-8.9562383"><ele>484.0</ele><time>2026-04-17T08:17:20.871Z</time></trkpt><trkpt lat="42.7046717" lon="-8.9563933"><ele>478.0</ele><time>2026-04-17T08:17:21.87Z</time></trkpt><trkpt lat="42.70478" lon="-8.9565267"><ele>472.0</ele><time>2026-04-17T08:17:22.871Z</time></trkpt><trkpt lat="42.7048717" lon="-8.956655"><ele>466.0</ele><time>2026-04-17T08:17:23.87Z</time></trkpt><trkpt lat="42.7049333" lon="-8.9567783"><ele>460.0</ele><time>2026-04-17T08:17:24.871Z</time></trkpt><trkpt lat="42.7049767" lon="-8.9568967"><ele>457.2</ele><time>2026-04-17T08:17:25.871Z</time></trkpt><trkpt lat="42.7049833" lon="-8.956995"><ele>454.4</ele><time>2026-04-17T08:17:26.871Z</time></trkpt><trkpt lat="42.704985" lon="-8.9571233"><ele>451.6</ele><time>2026-04-17T08:17:27.87Z</time></trkpt><trkpt lat="42.7049517" lon="-8.9572617"><ele>448.8</ele><time>2026-04-17T08:17:28.87Z</time></trkpt><trkpt lat="42.7048983" lon="-8.9574083"><ele>446.0</ele><time>2026-04-17T08:17:29.871Z</time></trkpt><trkpt lat="42.70484" lon="-8.9575667"><ele>441.25</ele><time>2026-04-17T08:17:30.87Z</time></trkpt><trkpt lat="42.7047817" lon="-8.9577267"><ele>436.5</ele><time>2026-04-17T08:17:31.871Z</time></trkpt><trkpt lat="42.70472" lon="-8.9578883"><ele>431.75</ele><time>2026-04-17T08:17:32.87Z</time></trkpt><trkpt lat="42.7046483" lon="-8.958035"><ele>427.0</ele><time>2026-04-17T08:17:33.87Z</time></trkpt><trkpt lat="42.704565" lon="-8.9581717"><ele>427.0</ele><time>2026-04-17T08:17:34.872Z</time></trkpt><trkpt lat="42.7044483" lon="-8.9582833"><ele>427.0</ele><time>2026-04-17T08:17:35.872Z</time></trkpt><trkpt lat="42.7043283" lon="-8.9584"><ele>427.0</ele><time>2026-04-17T08:17:36.872Z</time></trkpt><trkpt lat="42.7041833" lon="-8.958505"><ele>426.0</ele><time>2026-04-17T08:17:37.871Z</time></trkpt><trkpt lat="42.70402" lon="-8.9586083"><ele>425.0</ele><time>2026-04-17T08:17:38.871Z</time></trkpt><trkpt lat="42.7038317" lon="-8.9587217"><ele>424.0</ele><time>2026-04-17T08:17:39.871Z</time></trkpt><trkpt lat="42.7036383" lon="-8.9588417"><ele>424.6666666666667</ele><time>2026-04-17T08:17:40.872Z</time></trkpt><trkpt lat="42.7034367" lon="-8.9589817"><ele>425.33333333333337</ele><time>2026-04-17T08:17:41.871Z</time></trkpt><trkpt lat="42.7032583" lon="-8.95912"><ele>426.0</ele><time>2026-04-17T08:17:42.872Z</time></trkpt><trkpt lat="42.7031133" lon="-8.9592567"><ele>426.0</ele><time>2026-04-17T08:17:43.871Z</time></trkpt><trkpt lat="42.7029783" lon="-8.9594067"><ele>426.0</ele><time>2026-04-17T08:17:44.871Z</time></trkpt><trkpt lat="42.7028483" lon="-8.9595617"><ele>426.0</ele><time>2026-04-17T08:17:45.872Z</time></trkpt><trkpt lat="42.7027217" lon="-8.95971"><ele>424.0</ele><time>2026-04-17T08:17:46.872Z</time></trkpt><trkpt lat="42.7026133" lon="-8.959845"><ele>422.0</ele><time>2026-04-17T08:17:47.871Z</time></trkpt><trkpt lat="42.702515" lon="-8.9599483"><ele>420.0</ele><time>2026-04-17T08:17:48.871Z</time></trkpt><trkpt lat="42.7024167" lon="-8.9600267"><ele>418.0</ele><time>2026-04-17T08:17:49.872Z</time></trkpt><trkpt lat="42.70231" lon="-8.9600683"><ele>418.0</ele><time>2026-04-17T08:17:50.872Z</time></trkpt><trkpt lat="42.70219" lon="-8.9600817"><ele>418.0</ele><time>2026-04-17T08:17:51.872Z</time></trkpt><trkpt lat="42.7020517" lon="-8.960075"><ele>418.0</ele><time>2026-04-17T08:17:52.872Z</time></trkpt><trkpt lat="42.7018883" lon="-8.9600333"><ele>418.0</ele><time>2026-04-17T08:17:53.871Z</time></trkpt><trkpt lat="42.7017333" lon="-8.959995"><ele>426.0</ele><time>2026-04-17T08:17:54.872Z</time></trkpt><trkpt lat="42.70156" lon="-8.9599467"><ele>434.0</ele><time>2026-04-17T08:17:55.872Z</time></trkpt><trkpt lat="42.7013967" lon="-8.9599317"><ele>442.0</ele><time>2026-04-17T08:17:56.871Z</time></trkpt><trkpt lat="42.7012533" lon="-8.9599183"><ele>442.0</ele><time>2026-04-17T08:17:57.871Z</time></trkpt><trkpt lat="42.7011033" lon="-8.95991"><ele>442.0</ele><time>2026-04-17T08:17:58.872Z</time></trkpt><trkpt lat="42.7009717" lon="-8.9599117"><ele>442.0</ele><time>2026-04-17T08:17:59.872Z</time></trkpt><trkpt lat="42.7008333" lon="-8.9599367"><ele>442.0</ele><time>2026-04-17T08:18:00.871Z</time></trkpt><trkpt lat="42.70067" lon="-8.9599533"><ele>442.0</ele><time>2026-04-17T08:18:01.871Z</time></trkpt><trkpt lat="42.700505" lon="-8.9599817"><ele>442.0</ele><time>2026-04-17T08:18:02.872Z</time></trkpt><trkpt lat="42.700325" lon="-8.960005"><ele>442.0</ele><time>2026-04-17T08:18:03.871Z</time></trkpt><trkpt lat="42.70015" lon="-8.960025"><ele>443.5</ele><time>2026-04-17T08:18:04.872Z</time></trkpt><trkpt lat="42.699995" lon="-8.9600283"><ele>445.0</ele><time>2026-04-17T08:18:05.872Z</time></trkpt><trkpt lat="42.6998567" lon="-8.9600267"><ele>446.5</ele><time>2026-04-17T08:18:06.872Z</time></trkpt><trkpt lat="42.6997417" lon="-8.960025"><ele>448.0</ele><time>2026-04-17T08:18:07.872Z</time></trkpt><trkpt lat="42.6996483" lon="-8.9600433"><ele>448.0</ele><time>2026-04-17T08:18:08.872Z</time></trkpt><trkpt lat="42.6995983" lon="-8.9601567"><ele>448.0</ele><time>2026-04-17T08:18:10.872Z</time></trkpt><trkpt lat="42.6995817" lon="-8.9603483"><ele>448.0</ele><time>2026-04-17T08:18:12.871Z</time></trkpt><trkpt lat="42.69964" lon="-8.9604883"><ele>448.0</ele><time>2026-04-17T08:18:13.871Z</time></trkpt><trkpt lat="42.6997217" lon="-8.9606617"><ele>450.0</ele><time>2026-04-17T08:18:14.871Z</time></trkpt><trkpt lat="42.6998317" lon="-8.9608667"><ele>452.0</ele><time>2026-04-17T08:18:15.871Z</time></trkpt><trkpt lat="42.699975" lon="-8.9611483"><ele>454.0</ele><time>2026-04-17T08:18:16.872Z</time></trkpt><trkpt lat="42.7001183" lon="-8.96145"><ele>450.33333333333337</ele><time>2026-04-17T08:18:17.872Z</time></trkpt><trkpt lat="42.7002383" lon="-8.9617033"><ele>446.66666666666663</ele><time>2026-04-17T08:18:18.872Z</time></trkpt><trkpt lat="42.7003367" lon="-8.961925"><ele>443.0</ele><time>2026-04-17T08:18:19.871Z</time></trkpt><trkpt lat="42.7004067" lon="-8.9621183"><ele>438.0</ele><time>2026-04-17T08:18:20.872Z</time></trkpt><trkpt lat="42.70046" lon="-8.96228"><ele>432.99999999999994</ele><time>2026-04-17T08:18:21.871Z</time></trkpt><trkpt lat="42.70048" lon="-8.9624167"><ele>428.0</ele><time>2026-04-17T08:18:22.871Z</time></trkpt><trkpt lat="42.7004633" lon="-8.9625433"><ele>423.0</ele><time>2026-04-17T08:18:23.872Z</time></trkpt><trkpt lat="42.7004283" lon="-8.9626767"><ele>418.0</ele><time>2026-04-17T08:18:24.871Z</time></trkpt><trkpt lat="42.7003683" lon="-8.9628217"><ele>415.25</ele><time>2026-04-17T08:18:25.871Z</time></trkpt><trkpt lat="42.7002967" lon="-8.96298"><ele>412.5</ele><time>2026-04-17T08:18:26.872Z</time></trkpt><trkpt lat="42.7002033" lon="-8.9631233"><ele>409.75</ele><time>2026-04-17T08:18:27.872Z</time></trkpt><trkpt lat="42.7000917" lon="-8.96324"><ele>407.0</ele><time>2026-04-17T08:18:28.872Z</time></trkpt><trkpt lat="42.6999633" lon="-8.9633367"><ele>409.0</ele><time>2026-04-17T08:18:29.871Z</time></trkpt><trkpt lat="42.6998333" lon="-8.963425"><ele>411.0</ele><time>2026-04-17T08:18:30.872Z</time></trkpt><trkpt lat="42.6996883" lon="-8.9634967"><ele>413.0</ele><time>2026-04-17T08:18:31.871Z</time></trkpt><trkpt lat="42.6995367" lon="-8.9635733"><ele>416.66666666666663</ele><time>2026-04-17T08:18:32.872Z</time></trkpt><trkpt lat="42.69938" lon="-8.9636583"><ele>420.33333333333337</ele><time>2026-04-17T08:18:33.872Z</time></trkpt><trkpt lat="42.6992383" lon="-8.9637667"><ele>424.0</ele><time>2026-04-17T08:18:34.872Z</time></trkpt><trkpt lat="42.699105" lon="-8.9638983"><ele>424.0</ele><time>2026-04-17T08:18:35.872Z</time></trkpt><trkpt lat="42.6989917" lon="-8.9640433"><ele>424.0</ele><time>2026-04-17T08:18:36.872Z</time></trkpt><trkpt lat="42.6988883" lon="-8.96419"><ele>424.0</ele><time>2026-04-17T08:18:37.872Z</time></trkpt><trkpt lat="42.69879" lon="-8.9643133"><ele>424.0</ele><time>2026-04-17T08:18:38.872Z</time></trkpt><trkpt lat="42.6986817" lon="-8.9644183"><ele>424.00000000000006</ele><time>2026-04-17T08:18:39.871Z</time></trkpt><trkpt lat="42.69857" lon="-8.9644933"><ele>424.0</ele><time>2026-04-17T08:18:40.871Z</time></trkpt><trkpt lat="42.698475" lon="-8.96455"><ele>424.0</ele><time>2026-04-17T08:18:41.872Z</time></trkpt><trkpt lat="42.6984033" lon="-8.9645983"><ele>424.0</ele><time>2026-04-17T08:18:42.871Z</time></trkpt><trkpt lat="42.698345" lon="-8.96464"><ele>424.00000000000006</ele><time>2026-04-17T08:18:43.872Z</time></trkpt><trkpt lat="42.6982967" lon="-8.9647067"><ele>424.0</ele><time>2026-04-17T08:18:44.871Z</time></trkpt><trkpt lat="42.6982667" lon="-8.9648617"><ele>421.2</ele><time>2026-04-17T08:18:46.872Z</time></trkpt><trkpt lat="42.6982883" lon="-8.965035"><ele>418.4</ele><time>2026-04-17T08:18:48.871Z</time></trkpt><trkpt lat="42.6982933" lon="-8.9651533"><ele>415.6</ele><time>2026-04-17T08:18:49.872Z</time></trkpt><trkpt lat="42.6982867" lon="-8.9652833"><ele>412.8</ele><time>2026-04-17T08:18:50.871Z</time></trkpt><trkpt lat="42.698255" lon="-8.9654217"><ele>410.0</ele><time>2026-04-17T08:18:51.871Z</time></trkpt><trkpt lat="42.6981917" lon="-8.9655817"><ele>410.0</ele><time>2026-04-17T08:18:52.872Z</time></trkpt><trkpt lat="42.6980683" lon="-8.9657967"><ele>410.0</ele><time>2026-04-17T08:18:53.871Z</time></trkpt><trkpt lat="42.6979317" lon="-8.9659767"><ele>410.0</ele><time>2026-04-17T08:18:54.872Z</time></trkpt><trkpt lat="42.6978117" lon="-8.966125"><ele>413.0</ele><time>2026-04-17T08:18:55.871Z</time></trkpt><trkpt lat="42.6976967" lon="-8.966255"><ele>416.0</ele><time>2026-04-17T08:18:56.872Z</time></trkpt><trkpt lat="42.6975733" lon="-8.9663833"><ele>419.0</ele><time>2026-04-17T08:18:57.872Z</time></trkpt><trkpt lat="42.6974533" lon="-8.9665067"><ele>419.0</ele><time>2026-04-17T08:18:58.871Z</time></trkpt><trkpt lat="42.6973517" lon="-8.9666133"><ele>419.0</ele><time>2026-04-17T08:18:59.871Z</time></trkpt><trkpt lat="42.69727" lon="-8.9667217"><ele>419.0</ele><time>2026-04-17T08:19:00.871Z</time></trkpt><trkpt lat="42.69722" lon="-8.9667967"><ele>419.0</ele><time>2026-04-17T08:19:01.871Z</time></trkpt><trkpt lat="42.697195" lon="-8.966885"><ele>419.0</ele><time>2026-04-17T08:19:02.871Z</time></trkpt><trkpt lat="42.697185" lon="-8.96699"><ele>418.75</ele><time>2026-04-17T08:19:03.872Z</time></trkpt><trkpt lat="42.6972017" lon="-8.967115"><ele>418.5</ele><time>2026-04-17T08:19:04.871Z</time></trkpt><trkpt lat="42.6972783" lon="-8.9672817"><ele>418.25</ele><time>2026-04-17T08:19:05.872Z</time></trkpt><trkpt lat="42.6973933" lon="-8.967445"><ele>418.0</ele><time>2026-04-17T08:19:06.871Z</time></trkpt><trkpt lat="42.697505" lon="-8.9675933"><ele>416.5</ele><time>2026-04-17T08:19:07.871Z</time></trkpt><trkpt lat="42.6976133" lon="-8.9677267"><ele>415.0</ele><time>2026-04-17T08:19:08.871Z</time></trkpt><trkpt lat="42.6976867" lon="-8.967855"><ele>413.5</ele><time>2026-04-17T08:19:09.871Z</time></trkpt><trkpt lat="42.6977317" lon="-8.9679717"><ele>412.0</ele><time>2026-04-17T08:19:10.872Z</time></trkpt><trkpt lat="42.6977383" lon="-8.968095"><ele>412.0</ele><time>2026-04-17T08:19:11.872Z</time></trkpt><trkpt lat="42.6977167" lon="-8.968225"><ele>412.0</ele><time>2026-04-17T08:19:12.872Z</time></trkpt><trkpt lat="42.697665" lon="-8.9683517"><ele>412.0</ele><time>2026-04-17T08:19:13.871Z</time></trkpt><trkpt lat="42.6975733" lon="-8.968495"><ele>412.0</ele><time>2026-04-17T08:19:14.872Z</time></trkpt><trkpt lat="42.6974683" lon="-8.9686433"><ele>406.33333333333337</ele><time>2026-04-17T08:19:15.871Z</time></trkpt><trkpt lat="42.6973683" lon="-8.9688033"><ele>400.66666666666663</ele><time>2026-04-17T08:19:16.872Z</time></trkpt><trkpt lat="42.6972733" lon="-8.9689767"><ele>395.0</ele><time>2026-04-17T08:19:17.871Z</time></trkpt><trkpt lat="42.6971683" lon="-8.9691383"><ele>394.75</ele><time>2026-04-17T08:19:18.871Z</time></trkpt><trkpt lat="42.697065" lon="-8.9692667"><ele>394.5</ele><time>2026-04-17T08:19:19.872Z</time></trkpt><trkpt lat="42.69695" lon="-8.9693983"><ele>394.25</ele><time>2026-04-17T08:19:20.872Z</time></trkpt><trkpt lat="42.69683" lon="-8.9695217"><ele>394.0</ele><time>2026-04-17T08:19:21.871Z</time></trkpt><trkpt lat="42.6966917" lon="-8.9696517"><ele>394.0</ele><time>2026-04-17T08:19:22.872Z</time></trkpt><trkpt lat="42.6965433" lon="-8.9697933"><ele>394.0</ele><time>2026-04-17T08:19:23.871Z</time></trkpt><trkpt lat="42.6963933" lon="-8.9699333"><ele>394.0</ele><time>2026-04-17T08:19:24.871Z</time></trkpt><trkpt lat="42.6962483" lon="-8.9700517"><ele>394.0</ele><time>2026-04-17T08:19:25.872Z</time></trkpt><trkpt lat="42.6961067" lon="-8.970165"><ele>394.0</ele><time>2026-04-17T08:19:26.871Z</time></trkpt><trkpt lat="42.695985" lon="-8.9702667"><ele>394.0</ele><time>2026-04-17T08:19:27.872Z</time></trkpt><trkpt lat="42.6958683" lon="-8.9703683"><ele>394.0</ele><time>2026-04-17T08:19:28.872Z</time></trkpt><trkpt lat="42.6957483" lon="-8.9704467"><ele>394.0</ele><time>2026-04-17T08:19:29.871Z</time></trkpt><trkpt lat="42.6956167" lon="-8.970495"><ele>394.0</ele><time>2026-04-17T08:19:30.871Z</time></trkpt><trkpt lat="42.6954733" lon="-8.9705533"><ele>394.0</ele><time>2026-04-17T08:19:31.872Z</time></trkpt><trkpt lat="42.6953417" lon="-8.9706133"><ele>394.0</ele><time>2026-04-17T08:19:32.871Z</time></trkpt><trkpt lat="42.69524" lon="-8.9706883"><ele>394.4</ele><time>2026-04-17T08:19:33.871Z</time></trkpt><trkpt lat="42.6951783" lon="-8.9707717"><ele>394.79999999999995</ele><time>2026-04-17T08:19:34.872Z</time></trkpt><trkpt lat="42.6951433" lon="-8.97088"><ele>395.20000000000005</ele><time>2026-04-17T08:19:35.872Z</time></trkpt><trkpt lat="42.6951383" lon="-8.9710267"><ele>395.6</ele><time>2026-04-17T08:19:36.872Z</time></trkpt><trkpt lat="42.6951417" lon="-8.9712"><ele>396.0</ele><time>2026-04-17T08:19:37.871Z</time></trkpt><trkpt lat="42.6951317" lon="-8.9713817"><ele>396.0</ele><time>2026-04-17T08:19:38.872Z</time></trkpt><trkpt lat="42.6950883" lon="-8.9715483"><ele>396.0</ele><time>2026-04-17T08:19:39.871Z</time></trkpt><trkpt lat="42.6950083" lon="-8.9716867"><ele>396.0</ele><time>2026-04-17T08:19:40.871Z</time></trkpt><trkpt lat="42.694915" lon="-8.9717933"><ele>396.0</ele><time>2026-04-17T08:19:41.871Z</time></trkpt><trkpt lat="42.6947783" lon="-8.9719"><ele>395.0</ele><time>2026-04-17T08:19:42.871Z</time></trkpt><trkpt lat="42.694615" lon="-8.971985"><ele>394.0</ele><time>2026-04-17T08:19:43.872Z</time></trkpt><trkpt lat="42.6944017" lon="-8.9720733"><ele>393.0</ele><time>2026-04-17T08:19:44.871Z</time></trkpt><trkpt lat="42.6942067" lon="-8.972155"><ele>393.0</ele><time>2026-04-17T08:19:45.872Z</time></trkpt><trkpt lat="42.6939867" lon="-8.9722583"><ele>393.0</ele><time>2026-04-17T08:19:46.871Z</time></trkpt><trkpt lat="42.69378" lon="-8.97236"><ele>394.33333333333337</ele><time>2026-04-17T08:19:47.871Z</time></trkpt><trkpt lat="42.6935833" lon="-8.9724733"><ele>395.6666666666667</ele><time>2026-04-17T08:19:48.871Z</time></trkpt><trkpt lat="42.6934133" lon="-8.9725833"><ele>397.0</ele><time>2026-04-17T08:19:49.871Z</time></trkpt><trkpt lat="42.6932533" lon="-8.9726817"><ele>395.20000000000005</ele><time>2026-04-17T08:19:50.871Z</time></trkpt><trkpt lat="42.6931367" lon="-8.972765"><ele>393.4</ele><time>2026-04-17T08:19:51.871Z</time></trkpt><trkpt lat="42.693055" lon="-8.9728417"><ele>391.6</ele><time>2026-04-17T08:19:52.871Z</time></trkpt><trkpt lat="42.6929933" lon="-8.9729033"><ele>389.79999999999995</ele><time>2026-04-17T08:19:53.871Z</time></trkpt><trkpt lat="42.6929517" lon="-8.972985"><ele>388.0</ele><time>2026-04-17T08:19:54.871Z</time></trkpt><trkpt lat="42.69293" lon="-8.973075"><ele>388.0</ele><time>2026-04-17T08:19:55.872Z</time></trkpt><trkpt lat="42.6929367" lon="-8.9731817"><ele>388.0</ele><time>2026-04-17T08:19:56.871Z</time></trkpt><trkpt lat="42.692975" lon="-8.9733133"><ele>388.0</ele><time>2026-04-17T08:19:57.871Z</time></trkpt><trkpt lat="42.6930183" lon="-8.9734433"><ele>388.0</ele><time>2026-04-17T08:19:58.872Z</time></trkpt><trkpt lat="42.6930417" lon="-8.973585"><ele>388.0</ele><time>2026-04-17T08:19:59.871Z</time></trkpt><trkpt lat="42.6930683" lon="-8.97373"><ele>387.75</ele><time>2026-04-17T08:20:00.871Z</time></trkpt><trkpt lat="42.6930933" lon="-8.9738983"><ele>387.5</ele><time>2026-04-17T08:20:01.872Z</time></trkpt><trkpt lat="42.693115" lon="-8.9740833"><ele>387.25</ele><time>2026-04-17T08:20:02.871Z</time></trkpt><trkpt lat="42.6931383" lon="-8.9742567"><ele>387.0</ele><time>2026-04-17T08:20:03.871Z</time></trkpt><trkpt lat="42.6931583" lon="-8.9744183"><ele>387.0</ele><time>2026-04-17T08:20:04.871Z</time></trkpt><trkpt lat="42.69318" lon="-8.9745633"><ele>387.0</ele><time>2026-04-17T08:20:05.872Z</time></trkpt><trkpt lat="42.6932067" lon="-8.9747033"><ele>387.0</ele><time>2026-04-17T08:20:06.871Z</time></trkpt><trkpt lat="42.6932417" lon="-8.9748533"><ele>387.0</ele><time>2026-04-17T08:20:07.872Z</time></trkpt><trkpt lat="42.6932917" lon="-8.9750133"><ele>387.5</ele><time>2026-04-17T08:20:08.871Z</time></trkpt><trkpt lat="42.6933567" lon="-8.9751583"><ele>388.0</ele><time>2026-04-17T08:20:09.871Z</time></trkpt><trkpt lat="42.693415" lon="-8.9753083"><ele>388.5</ele><time>2026-04-17T08:20:10.872Z</time></trkpt><trkpt lat="42.6934833" lon="-8.97545"><ele>389.0</ele><time>2026-04-17T08:20:11.872Z</time></trkpt><trkpt lat="42.69354" lon="-8.9756"><ele>389.0</ele><time>2026-04-17T08:20:12.872Z</time></trkpt><trkpt lat="42.693585" lon="-8.9757617"><ele>389.0</ele><time>2026-04-17T08:20:13.872Z</time></trkpt><trkpt lat="42.693625" lon="-8.975925"><ele>389.0</ele><time>2026-04-17T08:20:14.872Z</time></trkpt><trkpt lat="42.6936617" lon="-8.9760817"><ele>389.0</ele><time>2026-04-17T08:20:15.871Z</time></trkpt><trkpt lat="42.6936933" lon="-8.9762383"><ele>389.75</ele><time>2026-04-17T08:20:16.871Z</time></trkpt><trkpt lat="42.6937283" lon="-8.9763983"><ele>390.5</ele><time>2026-04-17T08:20:17.871Z</time></trkpt><trkpt lat="42.6937683" lon="-8.976585"><ele>391.25</ele><time>2026-04-17T08:20:18.871Z</time></trkpt><trkpt lat="42.6938117" lon="-8.9767633"><ele>392.0</ele><time>2026-04-17T08:20:19.872Z</time></trkpt><trkpt lat="42.6938567" lon="-8.976945"><ele>392.25</ele><time>2026-04-17T08:20:20.871Z</time></trkpt><trkpt lat="42.6939083" lon="-8.9771217"><ele>392.5</ele><time>2026-04-17T08:20:21.871Z</time></trkpt><trkpt lat="42.6939567" lon="-8.977295"><ele>392.75</ele><time>2026-04-17T08:20:22.872Z</time></trkpt><trkpt lat="42.6940067" lon="-8.977465"><ele>393.0</ele><time>2026-04-17T08:20:23.871Z</time></trkpt><trkpt lat="42.6940583" lon="-8.9776583"><ele>393.0</ele><time>2026-04-17T08:20:24.872Z</time></trkpt><trkpt lat="42.6941167" lon="-8.9778233"><ele>393.0</ele><time>2026-04-17T08:20:25.871Z</time></trkpt><trkpt lat="42.6941817" lon="-8.9779883"><ele>393.0</ele><time>2026-04-17T08:20:26.871Z</time></trkpt><trkpt lat="42.6942433" lon="-8.978165"><ele>393.0</ele><time>2026-04-17T08:20:27.871Z</time></trkpt><trkpt lat="42.694295" lon="-8.9783233"><ele>393.5</ele><time>2026-04-17T08:20:28.871Z</time></trkpt><trkpt lat="42.694355" lon="-8.978505"><ele>394.0</ele><time>2026-04-17T08:20:29.871Z</time></trkpt><trkpt lat="42.6943933" lon="-8.9786933"><ele>394.5</ele><time>2026-04-17T08:20:30.872Z</time></trkpt><trkpt lat="42.6944383" lon="-8.9788667"><ele>395.0</ele><time>2026-04-17T08:20:31.872Z</time></trkpt><trkpt lat="42.6944833" lon="-8.9790533"><ele>395.75</ele><time>2026-04-17T08:20:32.872Z</time></trkpt><trkpt lat="42.6945317" lon="-8.979225"><ele>396.5</ele><time>2026-04-17T08:20:33.871Z</time></trkpt><trkpt lat="42.6945833" lon="-8.9793883"><ele>397.25</ele><time>2026-04-17T08:20:34.871Z</time></trkpt><trkpt lat="42.6946433" lon="-8.9795583"><ele>398.0</ele><time>2026-04-17T08:20:35.871Z</time></trkpt><trkpt lat="42.6947033" lon="-8.9797333"><ele>398.0</ele><time>2026-04-17T08:20:36.872Z</time></trkpt><trkpt lat="42.6947683" lon="-8.9799117"><ele>398.0</ele><time>2026-04-17T08:20:37.871Z</time></trkpt><trkpt lat="42.6948367" lon="-8.9800867"><ele>398.0</ele><time>2026-04-17T08:20:38.871Z</time></trkpt><trkpt lat="42.6948933" lon="-8.9802767"><ele>398.0</ele><time>2026-04-17T08:20:39.872Z</time></trkpt><trkpt lat="42.6949383" lon="-8.9804567"><ele>398.25</ele><time>2026-04-17T08:20:40.871Z</time></trkpt><trkpt lat="42.69498" lon="-8.9806433"><ele>398.5</ele><time>2026-04-17T08:20:41.871Z</time></trkpt><trkpt lat="42.695" lon="-8.98085"><ele>398.75</ele><time>2026-04-17T08:20:42.872Z</time></trkpt><trkpt lat="42.6950167" lon="-8.98104"><ele>399.0</ele><time>2026-04-17T08:20:43.871Z</time></trkpt><trkpt lat="42.6950317" lon="-8.981235"><ele>399.75</ele><time>2026-04-17T08:20:44.872Z</time></trkpt><trkpt lat="42.6950433" lon="-8.9814317"><ele>400.5</ele><time>2026-04-17T08:20:45.872Z</time></trkpt><trkpt lat="42.69506" lon="-8.9816317"><ele>401.25</ele><time>2026-04-17T08:20:46.871Z</time></trkpt><trkpt lat="42.6950733" lon="-8.9818417"><ele>402.0</ele><time>2026-04-17T08:20:47.871Z</time></trkpt><trkpt lat="42.69508" lon="-8.9820567"><ele>403.5</ele><time>2026-04-17T08:20:48.872Z</time></trkpt><trkpt lat="42.695065" lon="-8.98226"><ele>405.0</ele><time>2026-04-17T08:20:49.871Z</time></trkpt><trkpt lat="42.69503" lon="-8.9824617"><ele>406.5</ele><time>2026-04-17T08:20:50.872Z</time></trkpt><trkpt lat="42.69497" lon="-8.982625"><ele>408.0</ele><time>2026-04-17T08:20:51.871Z</time></trkpt><trkpt lat="42.6949183" lon="-8.9827867"><ele>410.0</ele><time>2026-04-17T08:20:52.872Z</time></trkpt><trkpt lat="42.6948633" lon="-8.9829533"><ele>412.0</ele><time>2026-04-17T08:20:53.872Z</time></trkpt><trkpt lat="42.694805" lon="-8.9831267"><ele>414.0</ele><time>2026-04-17T08:20:54.871Z</time></trkpt><trkpt lat="42.6947317" lon="-8.9833017"><ele>416.0</ele><time>2026-04-17T08:20:55.872Z</time></trkpt><trkpt lat="42.6946483" lon="-8.9834617"><ele>416.75</ele><time>2026-04-17T08:20:56.872Z</time></trkpt><trkpt lat="42.6945617" lon="-8.9836283"><ele>417.5</ele><time>2026-04-17T08:20:57.871Z</time></trkpt><trkpt lat="42.69447" lon="-8.983785"><ele>418.25</ele><time>2026-04-17T08:20:58.871Z</time></trkpt><trkpt lat="42.6943733" lon="-8.9839383"><ele>419.0</ele><time>2026-04-17T08:20:59.871Z</time></trkpt><trkpt lat="42.6942767" lon="-8.984095"><ele>419.0</ele><time>2026-04-17T08:21:00.872Z</time></trkpt><trkpt lat="42.6941817" lon="-8.9842483"><ele>419.0</ele><time>2026-04-17T08:21:01.872Z</time></trkpt><trkpt lat="42.6940917" lon="-8.9843917"><ele>419.0</ele><time>2026-04-17T08:21:02.871Z</time></trkpt><trkpt lat="42.6939983" lon="-8.984515"><ele>419.0</ele><time>2026-04-17T08:21:03.872Z</time></trkpt><trkpt lat="42.693895" lon="-8.9846367"><ele>419.0</ele><time>2026-04-17T08:21:04.871Z</time></trkpt><trkpt lat="42.6937783" lon="-8.9847483"><ele>419.0</ele><time>2026-04-17T08:21:05.871Z</time></trkpt><trkpt lat="42.6936617" lon="-8.9848567"><ele>419.0</ele><time>2026-04-17T08:21:06.871Z</time></trkpt><trkpt lat="42.6935417" lon="-8.984965"><ele>419.0</ele><time>2026-04-17T08:21:07.872Z</time></trkpt><trkpt lat="42.6934267" lon="-8.98508"><ele>418.75</ele><time>2026-04-17T08:21:08.871Z</time></trkpt><trkpt lat="42.6933067" lon="-8.9851817"><ele>418.5</ele><time>2026-04-17T08:21:09.872Z</time></trkpt><trkpt lat="42.6931833" lon="-8.985285"><ele>418.25</ele><time>2026-04-17T08:21:10.872Z</time></trkpt><trkpt lat="42.6930567" lon="-8.9853967"><ele>418.0</ele><time>2026-04-17T08:21:11.871Z</time></trkpt><trkpt lat="42.6929217" lon="-8.9855033"><ele>418.0</ele><time>2026-04-17T08:21:12.871Z</time></trkpt><trkpt lat="42.692795" lon="-8.9856017"><ele>418.0</ele><time>2026-04-17T08:21:13.872Z</time></trkpt><trkpt lat="42.69268" lon="-8.9857133"><ele>418.0</ele><time>2026-04-17T08:21:14.872Z</time></trkpt><trkpt lat="42.6925533" lon="-8.985825"><ele>418.0</ele><time>2026-04-17T08:21:15.872Z</time></trkpt><trkpt lat="42.692435" lon="-8.9859333"><ele>416.6666666666667</ele><time>2026-04-17T08:21:16.872Z</time></trkpt><trkpt lat="42.6923067" lon="-8.9860267"><ele>415.33333333333337</ele><time>2026-04-17T08:21:17.872Z</time></trkpt><trkpt lat="42.692155" lon="-8.9860983"><ele>414.0</ele><time>2026-04-17T08:21:18.872Z</time></trkpt><trkpt lat="42.6920017" lon="-8.9861433"><ele>415.0</ele><time>2026-04-17T08:21:19.871Z</time></trkpt><trkpt lat="42.6918517" lon="-8.9861633"><ele>416.0</ele><time>2026-04-17T08:21:20.872Z</time></trkpt><trkpt lat="42.6917" lon="-8.98618"><ele>417.0</ele><time>2026-04-17T08:21:21.871Z</time></trkpt><trkpt lat="42.6915533" lon="-8.98619"><ele>417.0</ele><time>2026-04-17T08:21:22.872Z</time></trkpt><trkpt lat="42.6914" lon="-8.9862017"><ele>417.0</ele><time>2026-04-17T08:21:23.871Z</time></trkpt><trkpt lat="42.691255" lon="-8.9862117"><ele>417.0</ele><time>2026-04-17T08:21:24.871Z</time></trkpt><trkpt lat="42.691115" lon="-8.9862283"><ele>417.0</ele><time>2026-04-17T08:21:25.872Z</time></trkpt><trkpt lat="42.6909717" lon="-8.9862483"><ele>416.5</ele><time>2026-04-17T08:21:26.872Z</time></trkpt><trkpt lat="42.69082" lon="-8.986255"><ele>416.0</ele><time>2026-04-17T08:21:27.871Z</time></trkpt><trkpt lat="42.6906717" lon="-8.98628"><ele>415.5</ele><time>2026-04-17T08:21:28.871Z</time></trkpt><trkpt lat="42.6905317" lon="-8.986295"><ele>415.0</ele><time>2026-04-17T08:21:29.872Z</time></trkpt><trkpt lat="42.6903983" lon="-8.98631"><ele>415.0</ele><time>2026-04-17T08:21:30.872Z</time></trkpt><trkpt lat="42.6902583" lon="-8.986305"><ele>415.0</ele><time>2026-04-17T08:21:31.871Z</time></trkpt><trkpt lat="42.6901267" lon="-8.986285"><ele>415.0</ele><time>2026-04-17T08:21:32.871Z</time></trkpt><trkpt lat="42.68999" lon="-8.986245"><ele>415.0</ele><time>2026-04-17T08:21:33.871Z</time></trkpt><trkpt lat="42.6898467" lon="-8.9862083"><ele>414.6666666666667</ele><time>2026-04-17T08:21:34.871Z</time></trkpt><trkpt lat="42.6896917" lon="-8.9861817"><ele>414.33333333333337</ele><time>2026-04-17T08:21:35.872Z</time></trkpt><trkpt lat="42.68955" lon="-8.9861433"><ele>414.0</ele><time>2026-04-17T08:21:36.871Z</time></trkpt><trkpt lat="42.6893933" lon="-8.98611"><ele>413.75</ele><time>2026-04-17T08:21:37.871Z</time></trkpt><trkpt lat="42.6892667" lon="-8.9860733"><ele>413.5</ele><time>2026-04-17T08:21:38.872Z</time></trkpt><trkpt lat="42.68913" lon="-8.9860383"><ele>413.25</ele><time>2026-04-17T08:21:39.873Z</time></trkpt><trkpt lat="42.688995" lon="-8.9859967"><ele>413.0</ele><time>2026-04-17T08:21:40.872Z</time></trkpt><trkpt lat="42.68886" lon="-8.98595"><ele>413.0</ele><time>2026-04-17T08:21:41.872Z</time></trkpt><trkpt lat="42.6887217" lon="-8.9859083"><ele>413.0</ele><time>2026-04-17T08:21:42.872Z</time></trkpt><trkpt lat="42.68858" lon="-8.98587"><ele>413.0</ele><time>2026-04-17T08:21:43.872Z</time></trkpt><trkpt lat="42.6884433" lon="-8.9858283"><ele>413.0</ele><time>2026-04-17T08:21:44.873Z</time></trkpt><trkpt lat="42.6883" lon="-8.9858"><ele>411.25</ele><time>2026-04-17T08:21:45.873Z</time></trkpt><trkpt lat="42.6881567" lon="-8.985765"><ele>409.5</ele><time>2026-04-17T08:21:46.872Z</time></trkpt><trkpt lat="42.6880217" lon="-8.9857317"><ele>407.75</ele><time>2026-04-17T08:21:47.873Z</time></trkpt><trkpt lat="42.687875" lon="-8.9857033"><ele>406.0</ele><time>2026-04-17T08:21:48.872Z</time></trkpt><trkpt lat="42.68773" lon="-8.9856833"><ele>404.5</ele><time>2026-04-17T08:21:49.873Z</time></trkpt><trkpt lat="42.6875883" lon="-8.98566"><ele>403.0</ele><time>2026-04-17T08:21:50.873Z</time></trkpt><trkpt lat="42.6874417" lon="-8.9856317"><ele>401.5</ele><time>2026-04-17T08:21:51.873Z</time></trkpt><trkpt lat="42.6872933" lon="-8.9856117"><ele>400.0</ele><time>2026-04-17T08:21:52.873Z</time></trkpt><trkpt lat="42.6871583" lon="-8.985585"><ele>400.0</ele><time>2026-04-17T08:21:53.873Z</time></trkpt><trkpt lat="42.6870367" lon="-8.9855367"><ele>400.0</ele><time>2026-04-17T08:21:54.872Z</time></trkpt><trkpt lat="42.6868983" lon="-8.985525"><ele>400.0</ele><time>2026-04-17T08:21:55.873Z</time></trkpt><trkpt lat="42.686775" lon="-8.98549"><ele>400.0</ele><time>2026-04-17T08:21:56.872Z</time></trkpt><trkpt lat="42.6866467" lon="-8.98546"><ele>398.75</ele><time>2026-04-17T08:21:57.872Z</time></trkpt><trkpt lat="42.6865167" lon="-8.98542"><ele>397.5</ele><time>2026-04-17T08:21:58.872Z</time></trkpt><trkpt lat="42.6863833" lon="-8.9853817"><ele>396.25</ele><time>2026-04-17T08:21:59.872Z</time></trkpt><trkpt lat="42.686245" lon="-8.9853417"><ele>395.0</ele><time>2026-04-17T08:22:00.872Z</time></trkpt><trkpt lat="42.6861067" lon="-8.985305"><ele>393.75</ele><time>2026-04-17T08:22:01.872Z</time></trkpt><trkpt lat="42.6859767" lon="-8.9852817"><ele>392.5</ele><time>2026-04-17T08:22:02.873Z</time></trkpt><trkpt lat="42.685845" lon="-8.9852733"><ele>391.25</ele><time>2026-04-17T08:22:03.873Z</time></trkpt><trkpt lat="42.6857067" lon="-8.9852917"><ele>390.0</ele><time>2026-04-17T08:22:04.873Z</time></trkpt><trkpt lat="42.6855667" lon="-8.985325"><ele>390.0</ele><time>2026-04-17T08:22:05.872Z</time></trkpt><trkpt lat="42.685435" lon="-8.9853717"><ele>390.0</ele><time>2026-04-17T08:22:06.873Z</time></trkpt><trkpt lat="42.6853017" lon="-8.9854117"><ele>390.0</ele><time>2026-04-17T08:22:07.873Z</time></trkpt><trkpt lat="42.6851717" lon="-8.9854483"><ele>390.0</ele><time>2026-04-17T08:22:08.873Z</time></trkpt><trkpt lat="42.6850367" lon="-8.98549"><ele>387.75</ele><time>2026-04-17T08:22:09.873Z</time></trkpt><trkpt lat="42.6849067" lon="-8.9855283"><ele>385.5</ele><time>2026-04-17T08:22:10.872Z</time></trkpt><trkpt lat="42.6847883" lon="-8.9855633"><ele>383.25</ele><time>2026-04-17T08:22:11.873Z</time></trkpt><trkpt lat="42.6846733" lon="-8.9856033"><ele>381.0</ele><time>2026-04-17T08:22:12.873Z</time></trkpt><trkpt lat="42.6845683" lon="-8.9856417"><ele>381.0</ele><time>2026-04-17T08:22:13.873Z</time></trkpt><trkpt lat="42.6844883" lon="-8.9856833"><ele>381.0</ele><time>2026-04-17T08:22:14.873Z</time></trkpt><trkpt lat="42.6844317" lon="-8.9857417"><ele>381.0</ele><time>2026-04-17T08:22:15.873Z</time></trkpt><trkpt lat="42.684395" lon="-8.9858133"><ele>381.0</ele><time>2026-04-17T08:22:16.873Z</time></trkpt><trkpt lat="42.6843883" lon="-8.98591"><ele>381.0</ele><time>2026-04-17T08:22:17.873Z</time></trkpt><trkpt lat="42.6844217" lon="-8.9860333"><ele>381.0</ele><time>2026-04-17T08:22:18.873Z</time></trkpt><trkpt lat="42.684495" lon="-8.98618"><ele>379.5</ele><time>2026-04-17T08:22:19.872Z</time></trkpt><trkpt lat="42.6845833" lon="-8.986325"><ele>378.0</ele><time>2026-04-17T08:22:20.872Z</time></trkpt><trkpt lat="42.6846767" lon="-8.9864433"><ele>376.5</ele><time>2026-04-17T08:22:21.872Z</time></trkpt><trkpt lat="42.68476" lon="-8.9865633"><ele>375.0</ele><time>2026-04-17T08:22:22.872Z</time></trkpt><trkpt lat="42.6848517" lon="-8.986685"><ele>373.0</ele><time>2026-04-17T08:22:23.873Z</time></trkpt><trkpt lat="42.684915" lon="-8.9868183"><ele>371.0</ele><time>2026-04-17T08:22:24.873Z</time></trkpt><trkpt lat="42.6849767" lon="-8.98697"><ele>369.0</ele><time>2026-04-17T08:22:25.872Z</time></trkpt><trkpt lat="42.6850267" lon="-8.9871417"><ele>367.0</ele><time>2026-04-17T08:22:26.872Z</time></trkpt><trkpt lat="42.6850733" lon="-8.9873233"><ele>367.0</ele><time>2026-04-17T08:22:27.873Z</time></trkpt><trkpt lat="42.6851233" lon="-8.987495"><ele>367.0</ele><time>2026-04-17T08:22:28.872Z</time></trkpt><trkpt lat="42.6865167" lon="-8.98542"><ele>372.75</ele><time>2026-04-17T08:21:58.872Z</time></trkpt><trkpt lat="42.6863833" lon="-8.9853817"><ele>378.5</ele><time>2026-04-17T08:21:59.872Z</time></trkpt><trkpt lat="42.686245" lon="-8.9853417"><ele>384.25</ele><time>2026-04-17T08:22:00.872Z</time></trkpt><trkpt lat="42.6861067" lon="-8.985305"><ele>390.0</ele><time>2026-04-17T08:22:01.872Z</time></trkpt><trkpt lat="42.6859767" lon="-8.9852817"><ele>390.0</ele><time>2026-04-17T08:22:02.873Z</time></trkpt><trkpt lat="42.685845" lon="-8.9852733"><ele>390.0</ele><time>2026-04-17T08:22:03.873Z</time></trkpt><trkpt lat="42.6857067" lon="-8.9852917"><ele>390.0</ele><time>2026-04-17T08:22:04.873Z</time></trkpt><trkpt lat="42.6855667" lon="-8.985325"><ele>390.0</ele><time>2026-04-17T08:22:05.872Z</time></trkpt><trkpt lat="42.685435" lon="-8.9853717"><ele>390.0</ele><time>2026-04-17T08:22:06.873Z</time></trkpt><trkpt lat="42.6853017" lon="-8.9854117"><ele>390.0</ele><time>2026-04-17T08:22:07.873Z</time></trkpt><trkpt lat="42.6851717" lon="-8.9854483"><ele>390.0</ele><time>2026-04-17T08:22:08.873Z</time></trkpt><trkpt lat="42.6850367" lon="-8.98549"><ele>390.0</ele><time>2026-04-17T08:22:09.873Z</time></trkpt><trkpt lat="42.6849067" lon="-8.9855283"><ele>388.2</ele><time>2026-04-17T08:22:10.872Z</time></trkpt><trkpt lat="42.6847883" lon="-8.9855633"><ele>386.4</ele><time>2026-04-17T08:22:11.873Z</time></trkpt><trkpt lat="42.6846733" lon="-8.9856033"><ele>384.6</ele><time>2026-04-17T08:22:12.873Z</time></trkpt><trkpt lat="42.6845683" lon="-8.9856417"><ele>382.8</ele><time>2026-04-17T08:22:13.873Z</time></trkpt><trkpt lat="42.6844883" lon="-8.9856833"><ele>381.0</ele><time>2026-04-17T08:22:14.873Z</time></trkpt><trkpt lat="42.6844317" lon="-8.9857417"><ele>380.0</ele><time>2026-04-17T08:22:15.873Z</time></trkpt><trkpt lat="42.684395" lon="-8.9858133"><ele>379.0</ele><time>2026-04-17T08:22:16.873Z</time></trkpt><trkpt lat="42.6843883" lon="-8.98591"><ele>378.0</ele><time>2026-04-17T08:22:17.873Z</time></trkpt><trkpt lat="42.6844217" lon="-8.9860333"><ele>377.0</ele><time>2026-04-17T08:22:18.873Z</time></trkpt><trkpt lat="42.684495" lon="-8.98618"><ele>376.0</ele><time>2026-04-17T08:22:19.872Z</time></trkpt><trkpt lat="42.6845833" lon="-8.986325"><ele>375.75</ele><time>2026-04-17T08:22:20.872Z</time></trkpt><trkpt lat="42.6846767" lon="-8.9864433"><ele>375.5</ele><time>2026-04-17T08:22:21.872Z</time></trkpt><trkpt lat="42.68476" lon="-8.9865633"><ele>375.25</ele><time>2026-04-17T08:22:22.872Z</time></trkpt><trkpt lat="42.6848517" lon="-8.986685"><ele>375.0</ele><time>2026-04-17T08:22:23.873Z</time></trkpt><trkpt lat="42.684915" lon="-8.9868183"><ele>373.0</ele><time>2026-04-17T08:22:24.873Z</time></trkpt><trkpt lat="42.6849767" lon="-8.98697"><ele>371.0</ele><time>2026-04-17T08:22:25.872Z</time></trkpt><trkpt lat="42.6850267" lon="-8.9871417"><ele>369.0</ele><time>2026-04-17T08:22:26.872Z</time></trkpt><trkpt lat="42.6850733" lon="-8.9873233"><ele>367.0</ele><time>2026-04-17T08:22:27.873Z</time></trkpt><trkpt lat="42.6851233" lon="-8.987495"><ele>365.25</ele><time>2026-04-17T08:22:28.872Z</time></trkpt><trkpt lat="42.6851933" lon="-8.98765"><ele>363.5</ele><time>2026-04-17T08:22:29.872Z</time></trkpt><trkpt lat="42.6852783" lon="-8.9877583"><ele>361.75</ele><time>2026-04-17T08:22:30.872Z</time></trkpt><trkpt lat="42.6853667" lon="-8.987815"><ele>360.0</ele><time>2026-04-17T08:22:31.873Z</time></trkpt><trkpt lat="42.685475" lon="-8.987845"><ele>360.0</ele><time>2026-04-17T08:22:32.872Z</time></trkpt><trkpt lat="42.685595" lon="-8.98784"><ele>360.0</ele><time>2026-04-17T08:22:33.873Z</time></trkpt><trkpt lat="42.6857283" lon="-8.9877817"><ele>360.0</ele><time>2026-04-17T08:22:34.872Z</time></trkpt><trkpt lat="42.68585" lon="-8.9877033"><ele>360.0</ele><time>2026-04-17T08:22:35.872Z</time></trkpt><trkpt lat="42.6859583" lon="-8.9875767"><ele>361.5</ele><time>2026-04-17T08:22:36.872Z</time></trkpt><trkpt lat="42.68604" lon="-8.9874267"><ele>363.0</ele><time>2026-04-17T08:22:37.872Z</time></trkpt><trkpt lat="42.686095" lon="-8.9872667"><ele>364.5</ele><time>2026-04-17T08:22:38.872Z</time></trkpt><trkpt lat="42.68615" lon="-8.987135"><ele>366.0</ele><time>2026-04-17T08:22:39.873Z</time></trkpt><trkpt lat="42.6862267" lon="-8.9870283"><ele>366.0</ele><time>2026-04-17T08:22:40.872Z</time></trkpt><trkpt lat="42.6863083" lon="-8.9869567"><ele>366.0</ele><time>2026-04-17T08:22:41.873Z</time></trkpt><trkpt lat="42.6863833" lon="-8.986935"><ele>366.0</ele><time>2026-04-17T08:22:42.872Z</time></trkpt><trkpt lat="42.6864667" lon="-8.986935"><ele>366.0</ele><time>2026-04-17T08:22:43.872Z</time></trkpt><trkpt lat="42.6865533" lon="-8.98698"><ele>366.0</ele><time>2026-04-17T08:22:44.873Z</time></trkpt><trkpt lat="42.686645" lon="-8.987075"><ele>366.0</ele><time>2026-04-17T08:22:45.873Z</time></trkpt><trkpt lat="42.6867283" lon="-8.9872133"><ele>366.0</ele><time>2026-04-17T08:22:46.873Z</time></trkpt><trkpt lat="42.6868267" lon="-8.98744"><ele>366.0</ele><time>2026-04-17T08:22:47.872Z</time></trkpt><trkpt lat="42.6868933" lon="-8.987695"><ele>368.0</ele><time>2026-04-17T08:22:48.872Z</time></trkpt><trkpt lat="42.6869583" lon="-8.98792"><ele>370.0</ele><time>2026-04-17T08:22:49.873Z</time></trkpt><trkpt lat="42.6870183" lon="-8.9881233"><ele>372.0</ele><time>2026-04-17T08:22:50.873Z</time></trkpt><trkpt lat="42.6870733" lon="-8.9883117"><ele>367.75</ele><time>2026-04-17T08:22:51.873Z</time></trkpt><trkpt lat="42.6871267" lon="-8.9884883"><ele>363.5</ele><time>2026-04-17T08:22:52.872Z</time></trkpt><trkpt lat="42.6872" lon="-8.988645"><ele>359.25</ele><time>2026-04-17T08:22:53.872Z</time></trkpt><trkpt lat="42.6872883" lon="-8.9887867"><ele>355.0</ele><time>2026-04-17T08:22:54.873Z</time></trkpt><trkpt lat="42.68739" lon="-8.9889017"><ele>355.0</ele><time>2026-04-17T08:22:55.872Z</time></trkpt><trkpt lat="42.6875033" lon="-8.9890017"><ele>355.0</ele><time>2026-04-17T08:22:56.873Z</time></trkpt><trkpt lat="42.6876183" lon="-8.9891083"><ele>355.0</ele><time>2026-04-17T08:22:57.873Z</time></trkpt><trkpt lat="42.6877317" lon="-8.9892117"><ele>355.0</ele><time>2026-04-17T08:22:58.873Z</time></trkpt><trkpt lat="42.6878567" lon="-8.9893117"><ele>351.25</ele><time>2026-04-17T08:22:59.872Z</time></trkpt><trkpt lat="42.6879833" lon="-8.9894067"><ele>347.5</ele><time>2026-04-17T08:23:00.873Z</time></trkpt><trkpt lat="42.68811" lon="-8.98951"><ele>343.75</ele><time>2026-04-17T08:23:01.872Z</time></trkpt><trkpt lat="42.688235" lon="-8.989615"><ele>340.0</ele><time>2026-04-17T08:23:02.873Z</time></trkpt><trkpt lat="42.68836" lon="-8.9897183"><ele>340.0</ele><time>2026-04-17T08:23:03.872Z</time></trkpt><trkpt lat="42.6884867" lon="-8.9898183"><ele>340.0</ele><time>2026-04-17T08:23:04.872Z</time></trkpt><trkpt lat="42.6886083" lon="-8.9899183"><ele>340.0</ele><time>2026-04-17T08:23:05.872Z</time></trkpt><trkpt lat="42.6887283" lon="-8.9900183"><ele>340.0</ele><time>2026-04-17T08:23:06.872Z</time></trkpt><trkpt lat="42.6888483" lon="-8.9901183"><ele>339.25</ele><time>2026-04-17T08:23:07.873Z</time></trkpt><trkpt lat="42.688965" lon="-8.9902217"><ele>338.5</ele><time>2026-04-17T08:23:08.873Z</time></trkpt><trkpt lat="42.6890767" lon="-8.9903367"><ele>337.75</ele><time>2026-04-17T08:23:09.872Z</time></trkpt><trkpt lat="42.6891817" lon="-8.9904633"><ele>337.0</ele><time>2026-04-17T08:23:10.873Z</time></trkpt><trkpt lat="42.6892683" lon="-8.9906133"><ele>337.0</ele><time>2026-04-17T08:23:11.872Z</time></trkpt><trkpt lat="42.68935" lon="-8.99077"><ele>337.0</ele><time>2026-04-17T08:23:12.873Z</time></trkpt><trkpt lat="42.6894267" lon="-8.9909433"><ele>337.0</ele><time>2026-04-17T08:23:13.872Z</time></trkpt><trkpt lat="42.68951" lon="-8.9911067"><ele>337.0</ele><time>2026-04-17T08:23:14.873Z</time></trkpt><trkpt lat="42.68959" lon="-8.9912633"><ele>336.75</ele><time>2026-04-17T08:23:15.873Z</time></trkpt><trkpt lat="42.68968" lon="-8.9913983"><ele>336.5</ele><time>2026-04-17T08:23:16.873Z</time></trkpt><trkpt lat="42.6897717" lon="-8.9915183"><ele>336.25</ele><time>2026-04-17T08:23:17.873Z</time></trkpt><trkpt lat="42.6898517" lon="-8.9916067"><ele>336.0</ele><time>2026-04-17T08:23:18.873Z</time></trkpt><trkpt lat="42.6899333" lon="-8.9917183"><ele>336.0</ele><time>2026-04-17T08:23:20.873Z</time></trkpt><trkpt lat="42.68982" lon="-8.9916817"><ele>336.0</ele><time>2026-04-17T08:23:24.872Z</time></trkpt><trkpt lat="42.689705" lon="-8.9915917"><ele>336.0</ele><time>2026-04-17T08:23:25.873Z</time></trkpt><trkpt lat="42.6895567" lon="-8.9914567"><ele>336.0</ele><time>2026-04-17T08:23:26.872Z</time></trkpt><trkpt lat="42.68942" lon="-8.9912933"><ele>336.3333333333333</ele><time>2026-04-17T08:23:27.873Z</time></trkpt><trkpt lat="42.6893133" lon="-8.9911433"><ele>336.66666666666663</ele><time>2026-04-17T08:23:28.873Z</time></trkpt><trkpt lat="42.689195" lon="-8.9909817"><ele>337.0</ele><time>2026-04-17T08:23:29.873Z</time></trkpt><trkpt lat="42.68907" lon="-8.99084"><ele>337.0</ele><time>2026-04-17T08:23:30.872Z</time></trkpt><trkpt lat="42.6889583" lon="-8.990715"><ele>337.0</ele><time>2026-04-17T08:23:31.873Z</time></trkpt><trkpt lat="42.6888433" lon="-8.990605"><ele>337.0</ele><time>2026-04-17T08:23:32.873Z</time></trkpt><trkpt lat="42.688725" lon="-8.9904983"><ele>337.0</ele><time>2026-04-17T08:23:33.872Z</time></trkpt><trkpt lat="42.6886083" lon="-8.9904267"><ele>333.25</ele><time>2026-04-17T08:23:34.873Z</time></trkpt><trkpt lat="42.6884917" lon="-8.9903633"><ele>329.5</ele><time>2026-04-17T08:23:35.873Z</time></trkpt><trkpt lat="42.6883667" lon="-8.9903067"><ele>325.75</ele><time>2026-04-17T08:23:36.873Z</time></trkpt><trkpt lat="42.6882367" lon="-8.990235"><ele>322.0</ele><time>2026-04-17T08:23:37.872Z</time></trkpt><trkpt lat="42.6881" lon="-8.9901733"><ele>322.0</ele><time>2026-04-17T08:23:38.872Z</time></trkpt><trkpt lat="42.6879583" lon="-8.990105"><ele>322.0</ele><time>2026-04-17T08:23:39.873Z</time></trkpt><trkpt lat="42.687815" lon="-8.990045"><ele>322.0</ele><time>2026-04-17T08:23:40.873Z</time></trkpt><trkpt lat="42.6876817" lon="-8.9900067"><ele>322.0</ele><time>2026-04-17T08:23:41.872Z</time></trkpt><trkpt lat="42.6875467" lon="-8.9899683"><ele>324.5</ele><time>2026-04-17T08:23:42.873Z</time></trkpt><trkpt lat="42.6874067" lon="-8.98996"><ele>327.0</ele><time>2026-04-17T08:23:43.872Z</time></trkpt><trkpt lat="42.6872583" lon="-8.9899533"><ele>329.5</ele><time>2026-04-17T08:23:44.873Z</time></trkpt><trkpt lat="42.6871033" lon="-8.9899583"><ele>332.0</ele><time>2026-04-17T08:23:45.873Z</time></trkpt><trkpt lat="42.6869567" lon="-8.9899617"><ele>331.33333333333337</ele><time>2026-04-17T08:23:46.872Z</time></trkpt><trkpt lat="42.6868217" lon="-8.9899733"><ele>330.6666666666667</ele><time>2026-04-17T08:23:47.873Z</time></trkpt><trkpt lat="42.6866667" lon="-8.989985"><ele>330.0</ele><time>2026-04-17T08:23:48.873Z</time></trkpt><trkpt lat="42.6865" lon="-8.9899683"><ele>330.0</ele><time>2026-04-17T08:23:49.873Z</time></trkpt><trkpt lat="42.686355" lon="-8.9899917"><ele>330.0</ele><time>2026-04-17T08:23:50.872Z</time></trkpt><trkpt lat="42.68624" lon="-8.9900317"><ele>330.0</ele><time>2026-04-17T08:23:51.872Z</time></trkpt><trkpt lat="42.6861433" lon="-8.99012"><ele>330.0</ele><time>2026-04-17T08:23:52.872Z</time></trkpt><trkpt lat="42.68606" lon="-8.99027"><ele>327.3333333333333</ele><time>2026-04-17T08:23:53.873Z</time></trkpt><trkpt lat="42.6859533" lon="-8.9904817"><ele>324.66666666666663</ele><time>2026-04-17T08:23:54.872Z</time></trkpt><trkpt lat="42.685865" lon="-8.9906867"><ele>322.0</ele><time>2026-04-17T08:23:55.873Z</time></trkpt><trkpt lat="42.685795" lon="-8.99089"><ele>319.6</ele><time>2026-04-17T08:23:56.873Z</time></trkpt><trkpt lat="42.6857117" lon="-8.9910217"><ele>317.20000000000005</ele><time>2026-04-17T08:23:57.873Z</time></trkpt><trkpt lat="42.6856333" lon="-8.99111"><ele>314.8</ele><time>2026-04-17T08:23:58.872Z</time></trkpt><trkpt lat="42.6855467" lon="-8.9911783"><ele>312.4</ele><time>2026-04-17T08:23:59.873Z</time></trkpt><trkpt lat="42.6854533" lon="-8.9912133"><ele>310.0</ele><time>2026-04-17T08:24:00.872Z</time></trkpt><trkpt lat="42.68536" lon="-8.9912117"><ele>310.0</ele><time>2026-04-17T08:24:01.872Z</time></trkpt><trkpt lat="42.6852667" lon="-8.991175"><ele>310.0</ele><time>2026-04-17T08:24:02.872Z</time></trkpt><trkpt lat="42.6851633" lon="-8.991075"><ele>310.0</ele><time>2026-04-17T08:24:03.872Z</time></trkpt><trkpt lat="42.6850367" lon="-8.9909133"><ele>310.0</ele><time>2026-04-17T08:24:04.873Z</time></trkpt><trkpt lat="42.6849083" lon="-8.990695"><ele>317.0</ele><time>2026-04-17T08:24:05.873Z</time></trkpt><trkpt lat="42.6847633" lon="-8.9904383"><ele>324.0</ele><time>2026-04-17T08:24:06.872Z</time></trkpt><trkpt lat="42.6846017" lon="-8.9902067"><ele>324.0</ele><time>2026-04-17T08:24:07.872Z</time></trkpt><trkpt lat="42.6844633" lon="-8.9900167"><ele>324.0</ele><time>2026-04-17T08:24:08.873Z</time></trkpt><trkpt lat="42.6843467" lon="-8.98987"><ele>324.0</ele><time>2026-04-17T08:24:09.872Z</time></trkpt><trkpt lat="42.684245" lon="-8.98977"><ele>323.8333333333333</ele><time>2026-04-17T08:24:10.872Z</time></trkpt><trkpt lat="42.6841617" lon="-8.9896983"><ele>323.6666666666667</ele><time>2026-04-17T08:24:11.873Z</time></trkpt><trkpt lat="42.68409" lon="-8.9896617"><ele>323.5</ele><time>2026-04-17T08:24:12.873Z</time></trkpt><trkpt lat="42.6840133" lon="-8.98967"><ele>323.33333333333337</ele><time>2026-04-17T08:24:13.873Z</time></trkpt><trkpt lat="42.68395" lon="-8.9897433"><ele>323.1666666666667</ele><time>2026-04-17T08:24:14.873Z</time></trkpt><trkpt lat="42.68389" lon="-8.9898383"><ele>323.0</ele><time>2026-04-17T08:24:15.872Z</time></trkpt><trkpt lat="42.68383" lon="-8.989945"><ele>323.33333333333337</ele><time>2026-04-17T08:24:16.873Z</time></trkpt><trkpt lat="42.6837883" lon="-8.9902333"><ele>323.6666666666667</ele><time>2026-04-17T08:24:17.873Z</time></trkpt><trkpt lat="42.6837317" lon="-8.99043"><ele>324.0</ele><time>2026-04-17T08:24:18.873Z</time></trkpt><trkpt lat="42.6837117" lon="-8.9906783"><ele>320.0</ele><time>2026-04-17T08:24:19.872Z</time></trkpt><trkpt lat="42.6838467" lon="-8.9912883"><ele>321.5</ele><time>2026-04-17T08:24:20.873Z</time></trkpt><trkpt lat="42.68391" lon="-8.9917017"><ele>323.0</ele><time>2026-04-17T08:24:21.872Z</time></trkpt><trkpt lat="42.68397" lon="-8.99208"><ele>323.0</ele><time>2026-04-17T08:24:22.873Z</time></trkpt><trkpt lat="42.6840217" lon="-8.9923967"><ele>323.0</ele><time>2026-04-17T08:24:23.873Z</time></trkpt><trkpt lat="42.6840433" lon="-8.992625"><ele>323.0</ele><time>2026-04-17T08:24:24.872Z</time></trkpt><trkpt lat="42.6840233" lon="-8.99282"><ele>321.5</ele><time>2026-04-17T08:24:25.872Z</time></trkpt><trkpt lat="42.6839783" lon="-8.993"><ele>320.0</ele><time>2026-04-17T08:24:26.873Z</time></trkpt><trkpt lat="42.68394" lon="-8.9931633"><ele>318.5</ele><time>2026-04-17T08:24:27.872Z</time></trkpt><trkpt lat="42.683905" lon="-8.993305"><ele>317.0</ele><time>2026-04-17T08:24:28.873Z</time></trkpt><trkpt lat="42.6838983" lon="-8.9934333"><ele>315.4</ele><time>2026-04-17T08:24:29.873Z</time></trkpt><trkpt lat="42.683915" lon="-8.993575"><ele>313.79999999999995</ele><time>2026-04-17T08:24:30.872Z</time></trkpt><trkpt lat="42.6839567" lon="-8.9937183"><ele>312.2</ele><time>2026-04-17T08:24:31.872Z</time></trkpt><trkpt lat="42.68401" lon="-8.9938533"><ele>310.59999999999997</ele><time>2026-04-17T08:24:32.872Z</time></trkpt><trkpt lat="42.6840517" lon="-8.9939917"><ele>309.0</ele><time>2026-04-17T08:24:33.873Z</time></trkpt><trkpt lat="42.6840617" lon="-8.99416"><ele>305.75</ele><time>2026-04-17T08:24:34.873Z</time></trkpt><trkpt lat="42.6840533" lon="-8.9943033"><ele>302.5</ele><time>2026-04-17T08:24:35.873Z</time></trkpt><trkpt lat="42.6840133" lon="-8.9944533"><ele>299.25</ele><time>2026-04-17T08:24:36.873Z</time></trkpt><trkpt lat="42.68394" lon="-8.9945833"><ele>296.0</ele><time>2026-04-17T08:24:37.872Z</time></trkpt><trkpt lat="42.6838567" lon="-8.994675"><ele>296.0</ele><time>2026-04-17T08:24:38.873Z</time></trkpt><trkpt lat="42.683765" lon="-8.9947333"><ele>296.0</ele><time>2026-04-17T08:24:39.873Z</time></trkpt><trkpt lat="42.683655" lon="-8.994755"><ele>296.0</ele><time>2026-04-17T08:24:40.873Z</time></trkpt><trkpt lat="42.68353" lon="-8.9947383"><ele>296.0</ele><time>2026-04-17T08:24:41.873Z</time></trkpt><trkpt lat="42.68342" lon="-8.99474"><ele>296.0</ele><time>2026-04-17T08:24:42.873Z</time></trkpt><trkpt lat="42.6833183" lon="-8.9947717"><ele>296.75</ele><time>2026-04-17T08:24:43.873Z</time></trkpt><trkpt lat="42.6832183" lon="-8.99483"><ele>297.5</ele><time>2026-04-17T08:24:44.872Z</time></trkpt><trkpt lat="42.6831183" lon="-8.994935"><ele>298.25</ele><time>2026-04-17T08:24:45.872Z</time></trkpt><trkpt lat="42.6830183" lon="-8.9951267"><ele>299.0</ele><time>2026-04-17T08:24:46.872Z</time></trkpt><trkpt lat="42.682895" lon="-8.99537"><ele>293.5</ele><time>2026-04-17T08:24:47.872Z</time></trkpt><trkpt lat="42.6827717" lon="-8.9956783"><ele>288.0</ele><time>2026-04-17T08:24:48.872Z</time></trkpt><trkpt lat="42.6826733" lon="-8.995975"><ele>288.0</ele><time>2026-04-17T08:24:49.872Z</time></trkpt><trkpt lat="42.6825883" lon="-8.9962667"><ele>288.0</ele><time>2026-04-17T08:24:50.873Z</time></trkpt><trkpt lat="42.6824917" lon="-8.9965467"><ele>283.6666666666667</ele><time>2026-04-17T08:24:51.872Z</time></trkpt><trkpt lat="42.6823917" lon="-8.996815"><ele>279.33333333333337</ele><time>2026-04-17T08:24:52.872Z</time></trkpt><trkpt lat="42.6822783" lon="-8.9970817"><ele>275.0</ele><time>2026-04-17T08:24:53.873Z</time></trkpt><trkpt lat="42.68216" lon="-8.99732"><ele>273.6666666666667</ele><time>2026-04-17T08:24:54.872Z</time></trkpt><trkpt lat="42.6820317" lon="-8.9975217"><ele>272.3333333333333</ele><time>2026-04-17T08:24:55.872Z</time></trkpt><trkpt lat="42.68189" lon="-8.99771"><ele>271.0</ele><time>2026-04-17T08:24:56.873Z</time></trkpt><trkpt lat="42.6817383" lon="-8.9978767"><ele>317.0</ele><time>2026-04-17T08:24:57.873Z</time></trkpt><trkpt lat="42.68394" lon="-8.9931633"><ele>317.0</ele><time>2026-04-17T08:24:27.872Z</time></trkpt><trkpt lat="42.683905" lon="-8.993305"><ele>317.0</ele><time>2026-04-17T08:24:28.873Z</time></trkpt><trkpt lat="42.6838983" lon="-8.9934333"><ele>317.0</ele><time>2026-04-17T08:24:29.873Z</time></trkpt><trkpt lat="42.683915" lon="-8.993575"><ele>317.0</ele><time>2026-04-17T08:24:30.872Z</time></trkpt><trkpt lat="42.6839567" lon="-8.9937183"><ele>317.0</ele><time>2026-04-17T08:24:31.872Z</time></trkpt><trkpt lat="42.68401" lon="-8.9938533"><ele>315.0</ele><time>2026-04-17T08:24:32.872Z</time></trkpt><trkpt lat="42.6840517" lon="-8.9939917"><ele>313.0</ele><time>2026-04-17T08:24:33.873Z</time></trkpt><trkpt lat="42.6840617" lon="-8.99416"><ele>311.0</ele><time>2026-04-17T08:24:34.873Z</time></trkpt><trkpt lat="42.6840533" lon="-8.9943033"><ele>309.0</ele><time>2026-04-17T08:24:35.873Z</time></trkpt><trkpt lat="42.6840133" lon="-8.9944533"><ele>307.0</ele><time>2026-04-17T08:24:36.873Z</time></trkpt><trkpt lat="42.68394" lon="-8.9945833"><ele>305.0</ele><time>2026-04-17T08:24:37.872Z</time></trkpt><trkpt lat="42.6838567" lon="-8.994675"><ele>303.0</ele><time>2026-04-17T08:24:38.873Z</time></trkpt><trkpt lat="42.683765" lon="-8.9947333"><ele>301.0</ele><time>2026-04-17T08:24:39.873Z</time></trkpt><trkpt lat="42.683655" lon="-8.994755"><ele>299.0</ele><time>2026-04-17T08:24:40.873Z</time></trkpt><trkpt lat="42.68353" lon="-8.9947383"><ele>299.0</ele><time>2026-04-17T08:24:41.873Z</time></trkpt><trkpt lat="42.68342" lon="-8.99474"><ele>299.0</ele><time>2026-04-17T08:24:42.873Z</time></trkpt><trkpt lat="42.6833183" lon="-8.9947717"><ele>299.0</ele><time>2026-04-17T08:24:43.873Z</time></trkpt><trkpt lat="42.6832183" lon="-8.99483"><ele>299.0</ele><time>2026-04-17T08:24:44.872Z</time></trkpt><trkpt lat="42.6831183" lon="-8.994935"><ele>299.0</ele><time>2026-04-17T08:24:45.872Z</time></trkpt><trkpt lat="42.6830183" lon="-8.9951267"><ele>291.5</ele><time>2026-04-17T08:24:46.872Z</time></trkpt><trkpt lat="42.682895" lon="-8.99537"><ele>284.0</ele><time>2026-04-17T08:24:47.872Z</time></trkpt><trkpt lat="42.6827717" lon="-8.9956783"><ele>286.0</ele><time>2026-04-17T08:24:48.872Z</time></trkpt><trkpt lat="42.6826733" lon="-8.995975"><ele>288.0</ele><time>2026-04-17T08:24:49.872Z</time></trkpt><trkpt lat="42.6825883" lon="-8.9962667"><ele>288.0</ele><time>2026-04-17T08:24:50.873Z</time></trkpt><trkpt lat="42.6824917" lon="-8.9965467"><ele>288.0</ele><time>2026-04-17T08:24:51.872Z</time></trkpt><trkpt lat="42.6823917" lon="-8.996815"><ele>288.0</ele><time>2026-04-17T08:24:52.872Z</time></trkpt><trkpt lat="42.6822783" lon="-8.9970817"><ele>283.6666666666667</ele><time>2026-04-17T08:24:53.873Z</time></trkpt><trkpt lat="42.68216" lon="-8.99732"><ele>279.33333333333337</ele><time>2026-04-17T08:24:54.872Z</time></trkpt><trkpt lat="42.6820317" lon="-8.9975217"><ele>275.0</ele><time>2026-04-17T08:24:55.872Z</time></trkpt><trkpt lat="42.68189" lon="-8.99771"><ele>273.6666666666667</ele><time>2026-04-17T08:24:56.873Z</time></trkpt><trkpt lat="42.6817383" lon="-8.9978767"><ele>272.3333333333333</ele><time>2026-04-17T08:24:57.873Z</time></trkpt><trkpt lat="42.6815633" lon="-8.9980433"><ele>271.0</ele><time>2026-04-17T08:24:58.872Z</time></trkpt><trkpt lat="42.6814017" lon="-8.9982"><ele>271.0</ele><time>2026-04-17T08:24:59.872Z</time></trkpt><trkpt lat="42.6812567" lon="-8.998315"><ele>271.0</ele><time>2026-04-17T08:25:00.873Z</time></trkpt><trkpt lat="42.681125" lon="-8.99842"><ele>271.0</ele><time>2026-04-17T08:25:01.873Z</time></trkpt><trkpt lat="42.6810017" lon="-8.9985183"><ele>271.25</ele><time>2026-04-17T08:25:02.872Z</time></trkpt><trkpt lat="42.6808783" lon="-8.9985783"><ele>271.5</ele><time>2026-04-17T08:25:03.872Z</time></trkpt><trkpt lat="42.6807733" lon="-8.998605"><ele>271.75</ele><time>2026-04-17T08:25:04.872Z</time></trkpt><trkpt lat="42.680675" lon="-8.9985717"><ele>272.0</ele><time>2026-04-17T08:25:05.872Z</time></trkpt><trkpt lat="42.6805767" lon="-8.9985017"><ele>272.0</ele><time>2026-04-17T08:25:06.873Z</time></trkpt><trkpt lat="42.6804783" lon="-8.998425"><ele>272.0</ele><time>2026-04-17T08:25:07.873Z</time></trkpt><trkpt lat="42.680405" lon="-8.9983683"><ele>272.0</ele><time>2026-04-17T08:25:08.873Z</time></trkpt><trkpt lat="42.680325" lon="-8.9983333"><ele>272.0</ele><time>2026-04-17T08:25:09.872Z</time></trkpt><trkpt lat="42.68026" lon="-8.9983467"><ele>272.0</ele><time>2026-04-17T08:25:10.872Z</time></trkpt><trkpt lat="42.6801767" lon="-8.9984167"><ele>272.0</ele><time>2026-04-17T08:25:11.873Z</time></trkpt><trkpt lat="42.6800983" lon="-8.9985383"><ele>272.6666666666667</ele><time>2026-04-17T08:25:12.872Z</time></trkpt><trkpt lat="42.6800083" lon="-8.9987433"><ele>273.3333333333333</ele><time>2026-04-17T08:25:13.873Z</time></trkpt><trkpt lat="42.6799183" lon="-8.9990233"><ele>274.0</ele><time>2026-04-17T08:25:14.872Z</time></trkpt><trkpt lat="42.6798333" lon="-8.9993733"><ele>274.0</ele><time>2026-04-17T08:25:15.873Z</time></trkpt><trkpt lat="42.67974" lon="-8.99981"><ele>274.0</ele><time>2026-04-17T08:25:16.872Z</time></trkpt><trkpt lat="42.6796583" lon="-9.0001283"><ele>274.0</ele><time>2026-04-17T08:25:17.873Z</time></trkpt><trkpt lat="42.6795683" lon="-9.0003967"><ele>274.0</ele><time>2026-04-17T08:25:18.872Z</time></trkpt><trkpt lat="42.67949" lon="-9.0006417"><ele>274.0</ele><time>2026-04-17T08:25:19.873Z</time></trkpt><trkpt lat="42.679375" lon="-9.00087"><ele>278.0</ele><time>2026-04-17T08:25:20.872Z</time></trkpt><trkpt lat="42.6792533" lon="-9.001055"><ele>282.0</ele><time>2026-04-17T08:25:21.872Z</time></trkpt><trkpt lat="42.6791033" lon="-9.0011983"><ele>286.0</ele><time>2026-04-17T08:25:22.873Z</time></trkpt><trkpt lat="42.6789283" lon="-9.0013133"><ele>286.0</ele><time>2026-04-17T08:25:23.872Z</time></trkpt><trkpt lat="42.6787317" lon="-9.0014117"><ele>286.0</ele><time>2026-04-17T08:25:24.872Z</time></trkpt><trkpt lat="42.6785067" lon="-9.0015433"><ele>285.66666666666663</ele><time>2026-04-17T08:25:25.872Z</time></trkpt><trkpt lat="42.67831" lon="-9.0016683"><ele>285.3333333333333</ele><time>2026-04-17T08:25:26.872Z</time></trkpt><trkpt lat="42.6781283" lon="-9.0018117"><ele>285.0</ele><time>2026-04-17T08:25:27.873Z</time></trkpt><trkpt lat="42.67794" lon="-9.0019717"><ele>289.3333333333333</ele><time>2026-04-17T08:25:28.873Z</time></trkpt><trkpt lat="42.6777617" lon="-9.002125"><ele>293.66666666666663</ele><time>2026-04-17T08:25:29.873Z</time></trkpt><trkpt lat="42.6775983" lon="-9.0022833"><ele>298.0</ele><time>2026-04-17T08:25:30.873Z</time></trkpt><trkpt lat="42.6774417" lon="-9.00245"><ele>294.25</ele><time>2026-04-17T08:25:31.873Z</time></trkpt><trkpt lat="42.67732" lon="-9.0026217"><ele>290.5</ele><time>2026-04-17T08:25:32.873Z</time></trkpt><trkpt lat="42.67725" lon="-9.0027667"><ele>286.75</ele><time>2026-04-17T08:25:33.872Z</time></trkpt><trkpt lat="42.67717" lon="-9.00288"><ele>283.0</ele><time>2026-04-17T08:25:34.873Z</time></trkpt><trkpt lat="42.6770633" lon="-9.0029617"><ele>283.0</ele><time>2026-04-17T08:25:35.873Z</time></trkpt><trkpt lat="42.6769417" lon="-9.0030083"><ele>283.0</ele><time>2026-04-17T08:25:36.873Z</time></trkpt><trkpt lat="42.6768183" lon="-9.0030517"><ele>283.0</ele><time>2026-04-17T08:25:37.873Z</time></trkpt><trkpt lat="42.67671" lon="-9.0031233"><ele>283.0</ele><time>2026-04-17T08:25:38.873Z</time></trkpt><trkpt lat="42.6766017" lon="-9.003235"><ele>281.66666666666663</ele><time>2026-04-17T08:25:39.872Z</time></trkpt><trkpt lat="42.6764983" lon="-9.0034117"><ele>280.3333333333333</ele><time>2026-04-17T08:25:40.873Z</time></trkpt><trkpt lat="42.6764" lon="-9.0036267"><ele>279.0</ele><time>2026-04-17T08:25:41.872Z</time></trkpt><trkpt lat="42.6762933" lon="-9.003875"><ele>279.0</ele><time>2026-04-17T08:25:42.872Z</time></trkpt><trkpt lat="42.6761883" lon="-9.0041233"><ele>279.0</ele><time>2026-04-17T08:25:43.873Z</time></trkpt><trkpt lat="42.6760817" lon="-9.004355"><ele>279.0</ele><time>2026-04-17T08:25:44.873Z</time></trkpt><trkpt lat="42.675965" lon="-9.0045867"><ele>278.6666666666667</ele><time>2026-04-17T08:25:45.873Z</time></trkpt><trkpt lat="42.67585" lon="-9.0048167"><ele>278.33333333333337</ele><time>2026-04-17T08:25:46.873Z</time></trkpt><trkpt lat="42.6757033" lon="-9.0050033"><ele>278.0</ele><time>2026-04-17T08:25:47.873Z</time></trkpt><trkpt lat="42.675595" lon="-9.0051867"><ele>273.6666666666667</ele><time>2026-04-17T08:25:48.873Z</time></trkpt><trkpt lat="42.6754933" lon="-9.0053767"><ele>269.3333333333333</ele><time>2026-04-17T08:25:49.874Z</time></trkpt><trkpt lat="42.6754" lon="-9.0055533"><ele>265.0</ele><time>2026-04-17T08:25:50.874Z</time></trkpt><trkpt lat="42.6753083" lon="-9.0056867"><ele>265.75</ele><time>2026-04-17T08:25:51.874Z</time></trkpt><trkpt lat="42.6752433" lon="-9.0057933"><ele>266.5</ele><time>2026-04-17T08:25:52.873Z</time></trkpt><trkpt lat="42.67522" lon="-9.005955"><ele>267.25</ele><time>2026-04-17T08:25:54.873Z</time></trkpt><trkpt lat="42.6752483" lon="-9.0060817"><ele>268.0</ele><time>2026-04-17T08:25:55.874Z</time></trkpt><trkpt lat="42.6752883" lon="-9.0062567"><ele>266.0</ele><time>2026-04-17T08:25:56.874Z</time></trkpt><trkpt lat="42.6753083" lon="-9.0064533"><ele>264.0</ele><time>2026-04-17T08:25:57.873Z</time></trkpt><trkpt lat="42.6752867" lon="-9.0066583"><ele>262.0</ele><time>2026-04-17T08:25:58.874Z</time></trkpt><trkpt lat="42.67523" lon="-9.006875"><ele>262.0</ele><time>2026-04-17T08:25:59.874Z</time></trkpt><trkpt lat="42.67514" lon="-9.0070483"><ele>262.0</ele><time>2026-04-17T08:26:00.873Z</time></trkpt><trkpt lat="42.67502" lon="-9.0072"><ele>262.0</ele><time>2026-04-17T08:26:01.873Z</time></trkpt><trkpt lat="42.674865" lon="-9.0073533"><ele>263.3333333333333</ele><time>2026-04-17T08:26:02.873Z</time></trkpt><trkpt lat="42.6746833" lon="-9.0075133"><ele>264.6666666666667</ele><time>2026-04-17T08:26:03.873Z</time></trkpt><trkpt lat="42.674495" lon="-9.0076717"><ele>266.0</ele><time>2026-04-17T08:26:04.873Z</time></trkpt><trkpt lat="42.6743033" lon="-9.0078117"><ele>266.0</ele><time>2026-04-17T08:26:05.874Z</time></trkpt><trkpt lat="42.674115" lon="-9.00793"><ele>266.0</ele><time>2026-04-17T08:26:06.874Z</time></trkpt><trkpt lat="42.6739283" lon="-9.008035"><ele>266.0</ele><time>2026-04-17T08:26:07.873Z</time></trkpt><trkpt lat="42.673765" lon="-9.0081"><ele>266.0</ele><time>2026-04-17T08:26:08.873Z</time></trkpt><trkpt lat="42.67363" lon="-9.00815"><ele>266.0</ele><time>2026-04-17T08:26:09.874Z</time></trkpt><trkpt lat="42.6734883" lon="-9.00817"><ele>266.0</ele><time>2026-04-17T08:26:10.873Z</time></trkpt><trkpt lat="42.6733383" lon="-9.00816"><ele>266.0</ele><time>2026-04-17T08:26:11.873Z</time></trkpt><trkpt lat="42.6731833" lon="-9.00811"><ele>267.6666666666667</ele><time>2026-04-17T08:26:12.873Z</time></trkpt><trkpt lat="42.673035" lon="-9.008005"><ele>269.3333333333333</ele><time>2026-04-17T08:26:13.873Z</time></trkpt><trkpt lat="42.672895" lon="-9.0078817"><ele>271.0</ele><time>2026-04-17T08:26:14.874Z</time></trkpt><trkpt lat="42.67273" lon="-9.0077833"><ele>271.0</ele><time>2026-04-17T08:26:15.873Z</time></trkpt><trkpt lat="42.672595" lon="-9.0077433"><ele>271.0</ele><time>2026-04-17T08:26:16.873Z</time></trkpt><trkpt lat="42.6724467" lon="-9.0077567"><ele>271.0</ele><time>2026-04-17T08:26:17.873Z</time></trkpt><trkpt lat="42.6722817" lon="-9.0078117"><ele>271.0</ele><time>2026-04-17T08:26:18.873Z</time></trkpt><trkpt lat="42.6721017" lon="-9.0079133"><ele>271.0</ele><time>2026-04-17T08:26:19.874Z</time></trkpt><trkpt lat="42.6719117" lon="-9.0079883"><ele>271.0</ele><time>2026-04-17T08:26:20.873Z</time></trkpt><trkpt lat="42.671725" lon="-9.00804"><ele>274.3333333333333</ele><time>2026-04-17T08:26:21.874Z</time></trkpt><trkpt lat="42.6715367" lon="-9.0080567"><ele>277.6666666666667</ele><time>2026-04-17T08:26:22.873Z</time></trkpt><trkpt lat="42.67136" lon="-9.0080567"><ele>281.0</ele><time>2026-04-17T08:26:23.874Z</time></trkpt><trkpt lat="42.6712133" lon="-9.0080567"><ele>268.0</ele><time>2026-04-17T08:26:24.873Z</time></trkpt><trkpt lat="42.67522" lon="-9.005955"><ele>268.0</ele><time>2026-04-17T08:25:54.873Z</time></trkpt><trkpt lat="42.6752483" lon="-9.0060817"><ele>268.0</ele><time>2026-04-17T08:25:55.874Z</time></trkpt><trkpt lat="42.6752883" lon="-9.0062567"><ele>268.0</ele><time>2026-04-17T08:25:56.874Z</time></trkpt><trkpt lat="42.6753083" lon="-9.0064533"><ele>268.0</ele><time>2026-04-17T08:25:57.873Z</time></trkpt><trkpt lat="42.6752867" lon="-9.0066583"><ele>266.0</ele><time>2026-04-17T08:25:58.874Z</time></trkpt><trkpt lat="42.67523" lon="-9.006875"><ele>264.0</ele><time>2026-04-17T08:25:59.874Z</time></trkpt><trkpt lat="42.67514" lon="-9.0070483"><ele>262.0</ele><time>2026-04-17T08:26:00.873Z</time></trkpt><trkpt lat="42.67502" lon="-9.0072"><ele>262.0</ele><time>2026-04-17T08:26:01.873Z</time></trkpt><trkpt lat="42.674865" lon="-9.0073533"><ele>262.0</ele><time>2026-04-17T08:26:02.873Z</time></trkpt><trkpt lat="42.6746833" lon="-9.0075133"><ele>262.0</ele><time>2026-04-17T08:26:03.873Z</time></trkpt><trkpt lat="42.674495" lon="-9.0076717"><ele>263.3333333333333</ele><time>2026-04-17T08:26:04.873Z</time></trkpt><trkpt lat="42.6743033" lon="-9.0078117"><ele>264.6666666666667</ele><time>2026-04-17T08:26:05.874Z</time></trkpt><trkpt lat="42.674115" lon="-9.00793"><ele>266.0</ele><time>2026-04-17T08:26:06.874Z</time></trkpt><trkpt lat="42.6739283" lon="-9.008035"><ele>266.0</ele><time>2026-04-17T08:26:07.873Z</time></trkpt><trkpt lat="42.673765" lon="-9.0081"><ele>266.0</ele><time>2026-04-17T08:26:08.873Z</time></trkpt><trkpt lat="42.67363" lon="-9.00815"><ele>266.0</ele><time>2026-04-17T08:26:09.874Z</time></trkpt><trkpt lat="42.6734883" lon="-9.00817"><ele>268.33333333333337</ele><time>2026-04-17T08:26:10.873Z</time></trkpt><trkpt lat="42.6733383" lon="-9.00816"><ele>270.6666666666667</ele><time>2026-04-17T08:26:11.873Z</time></trkpt><trkpt lat="42.6731833" lon="-9.00811"><ele>273.0</ele><time>2026-04-17T08:26:12.873Z</time></trkpt><trkpt lat="42.673035" lon="-9.008005"><ele>273.0</ele><time>2026-04-17T08:26:13.873Z</time></trkpt><trkpt lat="42.672895" lon="-9.0078817"><ele>273.0</ele><time>2026-04-17T08:26:14.874Z</time></trkpt><trkpt lat="42.67273" lon="-9.0077833"><ele>273.0</ele><time>2026-04-17T08:26:15.873Z</time></trkpt><trkpt lat="42.672595" lon="-9.0077433"><ele>272.3333333333333</ele><time>2026-04-17T08:26:16.873Z</time></trkpt><trkpt lat="42.6724467" lon="-9.0077567"><ele>271.66666666666663</ele><time>2026-04-17T08:26:17.873Z</time></trkpt><trkpt lat="42.6722817" lon="-9.0078117"><ele>271.0</ele><time>2026-04-17T08:26:18.873Z</time></trkpt><trkpt lat="42.6721017" lon="-9.0079133"><ele>274.3333333333333</ele><time>2026-04-17T08:26:19.874Z</time></trkpt><trkpt lat="42.6719117" lon="-9.0079883"><ele>277.6666666666667</ele><time>2026-04-17T08:26:20.873Z</time></trkpt><trkpt lat="42.671725" lon="-9.00804"><ele>281.0</ele><time>2026-04-17T08:26:21.874Z</time></trkpt><trkpt lat="42.6715367" lon="-9.0080567"><ele>281.0</ele><time>2026-04-17T08:26:22.873Z</time></trkpt><trkpt lat="42.67136" lon="-9.0080567"><ele>281.0</ele><time>2026-04-17T08:26:23.874Z</time></trkpt><trkpt lat="42.6712133" lon="-9.0080567"><ele>281.0</ele><time>2026-04-17T08:26:24.873Z</time></trkpt><trkpt lat="42.6710733" lon="-9.0081"><ele>286.6666666666667</ele><time>2026-04-17T08:26:25.873Z</time></trkpt><trkpt lat="42.6709583" lon="-9.0081983"><ele>292.3333333333333</ele><time>2026-04-17T08:26:26.874Z</time></trkpt><trkpt lat="42.6708317" lon="-9.00834"><ele>298.0</ele><time>2026-04-17T08:26:27.873Z</time></trkpt><trkpt lat="42.670675" lon="-9.00852"><ele>293.3333333333333</ele><time>2026-04-17T08:26:28.873Z</time></trkpt><trkpt lat="42.67051" lon="-9.0086967"><ele>288.6666666666667</ele><time>2026-04-17T08:26:29.874Z</time></trkpt><trkpt lat="42.6703317" lon="-9.0088533"><ele>284.0</ele><time>2026-04-17T08:26:30.873Z</time></trkpt><trkpt lat="42.6701717" lon="-9.0089817"><ele>284.0</ele><time>2026-04-17T08:26:31.874Z</time></trkpt><trkpt lat="42.6699983" lon="-9.0090883"><ele>284.0</ele><time>2026-04-17T08:26:32.873Z</time></trkpt><trkpt lat="42.669845" lon="-9.009155"><ele>284.0</ele><time>2026-04-17T08:26:33.874Z</time></trkpt><trkpt lat="42.6697033" lon="-9.0091933"><ele>281.75</ele><time>2026-04-17T08:26:34.874Z</time></trkpt><trkpt lat="42.6695717" lon="-9.0092283"><ele>279.5</ele><time>2026-04-17T08:26:35.874Z</time></trkpt><trkpt lat="42.6694533" lon="-9.0092733"><ele>277.25</ele><time>2026-04-17T08:26:36.874Z</time></trkpt><trkpt lat="42.6693483" lon="-9.0093467"><ele>275.0</ele><time>2026-04-17T08:26:37.873Z</time></trkpt><trkpt lat="42.6692367" lon="-9.009455"><ele>275.0</ele><time>2026-04-17T08:26:38.874Z</time></trkpt><trkpt lat="42.66912" lon="-9.0095667"><ele>275.0</ele><time>2026-04-17T08:26:39.873Z</time></trkpt><trkpt lat="42.6689983" lon="-9.0096317"><ele>275.0</ele><time>2026-04-17T08:26:40.873Z</time></trkpt><trkpt lat="42.6688467" lon="-9.0096717"><ele>275.0</ele><time>2026-04-17T08:26:41.873Z</time></trkpt><trkpt lat="42.6686683" lon="-9.009695"><ele>280.6666666666667</ele><time>2026-04-17T08:26:42.873Z</time></trkpt><trkpt lat="42.6684733" lon="-9.0097367"><ele>286.3333333333333</ele><time>2026-04-17T08:26:43.873Z</time></trkpt><trkpt lat="42.6683033" lon="-9.009805"><ele>292.0</ele><time>2026-04-17T08:26:44.873Z</time></trkpt><trkpt lat="42.6681733" lon="-9.0098783"><ele>292.0</ele><time>2026-04-17T08:26:45.874Z</time></trkpt><trkpt lat="42.6680783" lon="-9.00999"><ele>292.0</ele><time>2026-04-17T08:26:46.874Z</time></trkpt><trkpt lat="42.6679917" lon="-9.0101367"><ele>292.0</ele><time>2026-04-17T08:26:47.873Z</time></trkpt><trkpt lat="42.667905" lon="-9.0102833"><ele>292.0</ele><time>2026-04-17T08:26:48.873Z</time></trkpt><trkpt lat="42.66778" lon="-9.0104117"><ele>290.66666666666663</ele><time>2026-04-17T08:26:49.874Z</time></trkpt><trkpt lat="42.667635" lon="-9.0105183"><ele>289.3333333333333</ele><time>2026-04-17T08:26:50.873Z</time></trkpt><trkpt lat="42.6674933" lon="-9.0106067"><ele>288.0</ele><time>2026-04-17T08:26:51.873Z</time></trkpt><trkpt lat="42.6672983" lon="-9.0107067"><ele>288.0</ele><time>2026-04-17T08:26:52.874Z</time></trkpt><trkpt lat="42.6671283" lon="-9.0107883"><ele>288.0</ele><time>2026-04-17T08:26:53.874Z</time></trkpt><trkpt lat="42.666945" lon="-9.0108617"><ele>288.0</ele><time>2026-04-17T08:26:54.873Z</time></trkpt><trkpt lat="42.6667617" lon="-9.0109233"><ele>283.3333333333333</ele><time>2026-04-17T08:26:55.873Z</time></trkpt><trkpt lat="42.6665883" lon="-9.0109733"><ele>278.66666666666663</ele><time>2026-04-17T08:26:56.874Z</time></trkpt><trkpt lat="42.6664217" lon="-9.0110317"><ele>274.0</ele><time>2026-04-17T08:26:57.874Z</time></trkpt><trkpt lat="42.6662617" lon="-9.0111217"><ele>276.3333333333333</ele><time>2026-04-17T08:26:58.874Z</time></trkpt><trkpt lat="42.666105" lon="-9.0112417"><ele>278.6666666666667</ele><time>2026-04-17T08:26:59.874Z</time></trkpt><trkpt lat="42.665965" lon="-9.0113683"><ele>281.0</ele><time>2026-04-17T08:27:00.873Z</time></trkpt><trkpt lat="42.6658483" lon="-9.0114933"><ele>281.0</ele><time>2026-04-17T08:27:01.873Z</time></trkpt><trkpt lat="42.6657683" lon="-9.0115883"><ele>281.0</ele><time>2026-04-17T08:27:02.873Z</time></trkpt><trkpt lat="42.6657183" lon="-9.0116767"><ele>281.0</ele><time>2026-04-17T08:27:03.874Z</time></trkpt><trkpt lat="42.6657067" lon="-9.0117717"><ele>281.0</ele><time>2026-04-17T08:27:04.873Z</time></trkpt><trkpt lat="42.6657317" lon="-9.011855"><ele>281.0</ele><time>2026-04-17T08:27:05.873Z</time></trkpt><trkpt lat="42.6657917" lon="-9.0119617"><ele>281.0</ele><time>2026-04-17T08:27:06.873Z</time></trkpt><trkpt lat="42.665885" lon="-9.0121217"><ele>279.6666666666667</ele><time>2026-04-17T08:27:07.873Z</time></trkpt><trkpt lat="42.6660217" lon="-9.0123283"><ele>278.3333333333333</ele><time>2026-04-17T08:27:08.874Z</time></trkpt><trkpt lat="42.666165" lon="-9.0125983"><ele>277.0</ele><time>2026-04-17T08:27:09.873Z</time></trkpt><trkpt lat="42.666305" lon="-9.0129167"><ele>273.0</ele><time>2026-04-17T08:27:10.873Z</time></trkpt><trkpt lat="42.6664117" lon="-9.0131817"><ele>269.0</ele><time>2026-04-17T08:27:11.873Z</time></trkpt><trkpt lat="42.6665117" lon="-9.013425"><ele>265.0</ele><time>2026-04-17T08:27:12.873Z</time></trkpt><trkpt lat="42.6665867" lon="-9.0136417"><ele>265.0</ele><time>2026-04-17T08:27:13.873Z</time></trkpt><trkpt lat="42.6666433" lon="-9.01385"><ele>265.0</ele><time>2026-04-17T08:27:14.873Z</time></trkpt><trkpt lat="42.6666667" lon="-9.01407"><ele>265.0</ele><time>2026-04-17T08:27:15.874Z</time></trkpt><trkpt lat="42.6666933" lon="-9.0143133"><ele>264.66666666666663</ele><time>2026-04-17T08:27:16.874Z</time></trkpt><trkpt lat="42.6667" lon="-9.0145417"><ele>264.3333333333333</ele><time>2026-04-17T08:27:17.873Z</time></trkpt><trkpt lat="42.6666933" lon="-9.0147867"><ele>264.0</ele><time>2026-04-17T08:27:18.873Z</time></trkpt><trkpt lat="42.66667" lon="-9.0150367"><ele>264.0</ele><time>2026-04-17T08:27:19.873Z</time></trkpt><trkpt lat="42.6666517" lon="-9.015255"><ele>264.0</ele><time>2026-04-17T08:27:20.873Z</time></trkpt><trkpt lat="42.66666" lon="-9.0154367"><ele>264.0</ele><time>2026-04-17T08:27:21.873Z</time></trkpt><trkpt lat="42.6667017" lon="-9.015605"><ele>264.0</ele><time>2026-04-17T08:27:22.874Z</time></trkpt><trkpt lat="42.6667917" lon="-9.0157617"><ele>263.6666666666667</ele><time>2026-04-17T08:27:23.873Z</time></trkpt><trkpt lat="42.6669133" lon="-9.0159117"><ele>263.33333333333337</ele><time>2026-04-17T08:27:24.873Z</time></trkpt><trkpt lat="42.667055" lon="-9.0160667"><ele>263.0</ele><time>2026-04-17T08:27:25.873Z</time></trkpt><trkpt lat="42.6672117" lon="-9.01622"><ele>258.33333333333337</ele><time>2026-04-17T08:27:26.873Z</time></trkpt><trkpt lat="42.6673633" lon="-9.016355"><ele>253.66666666666669</ele><time>2026-04-17T08:27:27.873Z</time></trkpt><trkpt lat="42.6675217" lon="-9.0164767"><ele>249.0</ele><time>2026-04-17T08:27:28.874Z</time></trkpt><trkpt lat="42.6676883" lon="-9.0165983"><ele>246.33333333333331</ele><time>2026-04-17T08:27:29.873Z</time></trkpt><trkpt lat="42.66786" lon="-9.0167117"><ele>243.66666666666666</ele><time>2026-04-17T08:27:30.873Z</time></trkpt><trkpt lat="42.6680283" lon="-9.0168133"><ele>241.0</ele><time>2026-04-17T08:27:31.873Z</time></trkpt><trkpt lat="42.6681833" lon="-9.016905"><ele>241.0</ele><time>2026-04-17T08:27:32.873Z</time></trkpt><trkpt lat="42.668295" lon="-9.0169783"><ele>241.00000000000003</ele><time>2026-04-17T08:27:33.874Z</time></trkpt><trkpt lat="42.66837" lon="-9.0170483"><ele>241.00000000000003</ele><time>2026-04-17T08:27:34.874Z</time></trkpt><trkpt lat="42.6684267" lon="-9.0170883"><ele>241.0</ele><time>2026-04-17T08:27:35.874Z</time></trkpt><trkpt lat="42.6683317" lon="-9.017135"><ele>241.0</ele><time>2026-04-17T08:27:46.874Z</time></trkpt><trkpt lat="42.6682517" lon="-9.017185"><ele>241.0</ele><time>2026-04-17T08:27:48.873Z</time></trkpt><trkpt lat="42.6682117" lon="-9.0172533"><ele>241.0</ele><time>2026-04-17T08:27:49.874Z</time></trkpt><trkpt lat="42.66816" lon="-9.017355"><ele>241.0</ele><time>2026-04-17T08:27:50.874Z</time></trkpt><trkpt lat="42.6681033" lon="-9.0175083"><ele>241.0</ele><time>2026-04-17T08:27:51.873Z</time></trkpt><trkpt lat="42.66666" lon="-9.0154367"><ele>243.0</ele><time>2026-04-17T08:27:21.873Z</time></trkpt><trkpt lat="42.6667017" lon="-9.015605"><ele>245.0</ele><time>2026-04-17T08:27:22.874Z</time></trkpt><trkpt lat="42.6667917" lon="-9.0157617"><ele>247.0</ele><time>2026-04-17T08:27:23.873Z</time></trkpt><trkpt lat="42.6669133" lon="-9.0159117"><ele>249.0</ele><time>2026-04-17T08:27:24.873Z</time></trkpt><trkpt lat="42.667055" lon="-9.0160667"><ele>249.0</ele><time>2026-04-17T08:27:25.873Z</time></trkpt><trkpt lat="42.6672117" lon="-9.01622"><ele>249.0</ele><time>2026-04-17T08:27:26.873Z</time></trkpt><trkpt lat="42.6673633" lon="-9.016355"><ele>249.0</ele><time>2026-04-17T08:27:27.873Z</time></trkpt><trkpt lat="42.6675217" lon="-9.0164767"><ele>249.0</ele><time>2026-04-17T08:27:28.874Z</time></trkpt><trkpt lat="42.6676883" lon="-9.0165983"><ele>249.0</ele><time>2026-04-17T08:27:29.873Z</time></trkpt><trkpt lat="42.66786" lon="-9.0167117"><ele>249.0</ele><time>2026-04-17T08:27:30.873Z</time></trkpt><trkpt lat="42.6680283" lon="-9.0168133"><ele>247.39999999999998</ele><time>2026-04-17T08:27:31.873Z</time></trkpt><trkpt lat="42.6681833" lon="-9.016905"><ele>245.79999999999998</ele><time>2026-04-17T08:27:32.873Z</time></trkpt><trkpt lat="42.668295" lon="-9.0169783"><ele>244.20000000000002</ele><time>2026-04-17T08:27:33.874Z</time></trkpt><trkpt lat="42.66837" lon="-9.0170483"><ele>242.60000000000002</ele><time>2026-04-17T08:27:34.874Z</time></trkpt><trkpt lat="42.6684267" lon="-9.0170883"><ele>241.0</ele><time>2026-04-17T08:27:35.874Z</time></trkpt><trkpt lat="42.6683317" lon="-9.017135"><ele>241.0</ele><time>2026-04-17T08:27:46.874Z</time></trkpt><trkpt lat="42.6682517" lon="-9.017185"><ele>241.00000000000003</ele><time>2026-04-17T08:27:48.873Z</time></trkpt><trkpt lat="42.6682117" lon="-9.0172533"><ele>241.00000000000003</ele><time>2026-04-17T08:27:49.874Z</time></trkpt><trkpt lat="42.66816" lon="-9.017355"><ele>241.0</ele><time>2026-04-17T08:27:50.874Z</time></trkpt><trkpt lat="42.6681033" lon="-9.0175083"><ele>241.0</ele><time>2026-04-17T08:27:51.873Z</time></trkpt><trkpt lat="42.6680183" lon="-9.01766"><ele>241.0</ele><time>2026-04-17T08:27:52.873Z</time></trkpt><trkpt lat="42.6679367" lon="-9.0178117"><ele>241.0</ele><time>2026-04-17T08:27:53.874Z</time></trkpt><trkpt lat="42.6678717" lon="-9.0179617"><ele>241.0</ele><time>2026-04-17T08:27:54.874Z</time></trkpt><trkpt lat="42.667795" lon="-9.01815"><ele>241.0</ele><time>2026-04-17T08:27:55.874Z</time></trkpt><trkpt lat="42.66772" lon="-9.0183383"><ele>243.66666666666666</ele><time>2026-04-17T08:27:56.873Z</time></trkpt><trkpt lat="42.6676317" lon="-9.0185317"><ele>246.33333333333331</ele><time>2026-04-17T08:27:57.873Z</time></trkpt><trkpt lat="42.6675433" lon="-9.018725"><ele>249.0</ele><time>2026-04-17T08:27:58.874Z</time></trkpt><trkpt lat="42.6674567" lon="-9.0189"><ele>249.0</ele><time>2026-04-17T08:27:59.873Z</time></trkpt><trkpt lat="42.66738" lon="-9.0190717"><ele>249.0</ele><time>2026-04-17T08:28:00.873Z</time></trkpt><trkpt lat="42.6673117" lon="-9.01926"><ele>249.0</ele><time>2026-04-17T08:28:01.874Z</time></trkpt><trkpt lat="42.6672433" lon="-9.0194367"><ele>249.0</ele><time>2026-04-17T08:28:02.873Z</time></trkpt><trkpt lat="42.6671783" lon="-9.019575"><ele>249.39999999999998</ele><time>2026-04-17T08:28:03.874Z</time></trkpt><trkpt lat="42.6670983" lon="-9.01967"><ele>249.79999999999998</ele><time>2026-04-17T08:28:04.874Z</time></trkpt><trkpt lat="42.6670083" lon="-9.0197333"><ele>250.20000000000002</ele><time>2026-04-17T08:28:05.873Z</time></trkpt><trkpt lat="42.6669167" lon="-9.0198"><ele>250.60000000000002</ele><time>2026-04-17T08:28:06.874Z</time></trkpt><trkpt lat="42.6668183" lon="-9.01988"><ele>251.0</ele><time>2026-04-17T08:28:07.874Z</time></trkpt><trkpt lat="42.6667267" lon="-9.01997"><ele>247.66666666666669</ele><time>2026-04-17T08:28:08.873Z</time></trkpt><trkpt lat="42.666645" lon="-9.0200583"><ele>244.33333333333334</ele><time>2026-04-17T08:28:09.874Z</time></trkpt><trkpt lat="42.6665783" lon="-9.02014"><ele>241.0</ele><time>2026-04-17T08:28:10.874Z</time></trkpt><trkpt lat="42.6665167" lon="-9.02022"><ele>237.66666666666669</ele><time>2026-04-17T08:28:11.873Z</time></trkpt><trkpt lat="42.6664583" lon="-9.0202933"><ele>234.33333333333334</ele><time>2026-04-17T08:28:12.874Z</time></trkpt><trkpt lat="42.6664017" lon="-9.02035"><ele>231.0</ele><time>2026-04-17T08:28:13.874Z</time></trkpt><trkpt lat="42.6663033" lon="-9.0203917"><ele>231.0</ele><time>2026-04-17T08:28:15.873Z</time></trkpt><trkpt lat="42.6662117" lon="-9.0203517"><ele>231.00000000000003</ele><time>2026-04-17T08:28:17.874Z</time></trkpt><trkpt lat="42.6661533" lon="-9.0203133"><ele>231.00000000000003</ele><time>2026-04-17T08:28:18.874Z</time></trkpt><trkpt lat="42.666075" lon="-9.020265"><ele>231.0</ele><time>2026-04-17T08:28:19.873Z</time></trkpt><trkpt lat="42.6659717" lon="-9.0202183"><ele>231.0</ele><time>2026-04-17T08:28:20.873Z</time></trkpt><trkpt lat="42.6658483" lon="-9.02018"><ele>227.75</ele><time>2026-04-17T08:28:21.874Z</time></trkpt><trkpt lat="42.6657233" lon="-9.02014"><ele>224.5</ele><time>2026-04-17T08:28:22.874Z</time></trkpt><trkpt lat="42.6655933" lon="-9.0201"><ele>221.25</ele><time>2026-04-17T08:28:23.874Z</time></trkpt><trkpt lat="42.665465" lon="-9.02006"><ele>218.0</ele><time>2026-04-17T08:28:24.873Z</time></trkpt><trkpt lat="42.6653417" lon="-9.0200333"><ele>216.8</ele><time>2026-04-17T08:28:25.874Z</time></trkpt><trkpt lat="42.665225" lon="-9.02001"><ele>215.60000000000002</ele><time>2026-04-17T08:28:26.874Z</time></trkpt><trkpt lat="42.6651167" lon="-9.0199733"><ele>214.39999999999998</ele><time>2026-04-17T08:28:27.873Z</time></trkpt><trkpt lat="42.665035" lon="-9.0199317"><ele>213.2</ele><time>2026-04-17T08:28:28.873Z</time></trkpt><trkpt lat="42.6649633" lon="-9.0198983"><ele>212.0</ele><time>2026-04-17T08:28:29.874Z</time></trkpt><trkpt lat="42.6648867" lon="-9.0198833"><ele>212.0</ele><time>2026-04-17T08:28:30.874Z</time></trkpt><trkpt lat="42.6648083" lon="-9.019895"><ele>212.0</ele><time>2026-04-17T08:28:31.874Z</time></trkpt><trkpt lat="42.66471" lon="-9.0199167"><ele>212.0</ele><time>2026-04-17T08:28:32.874Z</time></trkpt><trkpt lat="42.6646117" lon="-9.0199217"><ele>212.0</ele><time>2026-04-17T08:28:33.873Z</time></trkpt><trkpt lat="42.6645067" lon="-9.0198917"><ele>212.0</ele><time>2026-04-17T08:28:34.874Z</time></trkpt><trkpt lat="42.6644" lon="-9.0198367"><ele>208.39999999999998</ele><time>2026-04-17T08:28:35.873Z</time></trkpt><trkpt lat="42.66429" lon="-9.01977"><ele>204.79999999999998</ele><time>2026-04-17T08:28:36.873Z</time></trkpt><trkpt lat="42.6642017" lon="-9.0196833"><ele>201.2</ele><time>2026-04-17T08:28:37.874Z</time></trkpt><trkpt lat="42.6641283" lon="-9.01958"><ele>197.6</ele><time>2026-04-17T08:28:38.873Z</time></trkpt><trkpt lat="42.6640667" lon="-9.0194517"><ele>194.0</ele><time>2026-04-17T08:28:39.873Z</time></trkpt><trkpt lat="42.6640033" lon="-9.0193033"><ele>194.0</ele><time>2026-04-17T08:28:40.873Z</time></trkpt><trkpt lat="42.663935" lon="-9.0191633"><ele>194.0</ele><time>2026-04-17T08:28:41.873Z</time></trkpt><trkpt lat="42.6638517" lon="-9.01906"><ele>194.0</ele><time>2026-04-17T08:28:42.874Z</time></trkpt><trkpt lat="42.6637567" lon="-9.0189783"><ele>194.0</ele><time>2026-04-17T08:28:43.874Z</time></trkpt><trkpt lat="42.663645" lon="-9.0189317"><ele>195.5</ele><time>2026-04-17T08:28:44.873Z</time></trkpt><trkpt lat="42.66352" lon="-9.0189017"><ele>197.0</ele><time>2026-04-17T08:28:45.874Z</time></trkpt><trkpt lat="42.663395" lon="-9.0188683"><ele>198.5</ele><time>2026-04-17T08:28:46.874Z</time></trkpt><trkpt lat="42.6632817" lon="-9.0188517"><ele>200.0</ele><time>2026-04-17T08:28:47.873Z</time></trkpt><trkpt lat="42.66318" lon="-9.0188383"><ele>200.0</ele><time>2026-04-17T08:28:48.873Z</time></trkpt><trkpt lat="42.6630733" lon="-9.0188417"><ele>200.0</ele><time>2026-04-17T08:28:49.873Z</time></trkpt><trkpt lat="42.6629633" lon="-9.0188733"><ele>200.0</ele><time>2026-04-17T08:28:50.874Z</time></trkpt><trkpt lat="42.6628617" lon="-9.0189133"><ele>200.0</ele><time>2026-04-17T08:28:51.873Z</time></trkpt><trkpt lat="42.66276" lon="-9.0189567"><ele>200.0</ele><time>2026-04-17T08:28:52.873Z</time></trkpt><trkpt lat="42.662645" lon="-9.0190217"><ele>198.66666666666669</ele><time>2026-04-17T08:28:53.873Z</time></trkpt><trkpt lat="42.6625183" lon="-9.01911"><ele>197.33333333333331</ele><time>2026-04-17T08:28:54.873Z</time></trkpt><trkpt lat="42.6623867" lon="-9.019205"><ele>196.0</ele><time>2026-04-17T08:28:55.874Z</time></trkpt><trkpt lat="42.6622333" lon="-9.019285"><ele>194.4</ele><time>2026-04-17T08:28:56.874Z</time></trkpt><trkpt lat="42.6621133" lon="-9.01936"><ele>192.8</ele><time>2026-04-17T08:28:57.873Z</time></trkpt><trkpt lat="42.6620283" lon="-9.0194267"><ele>191.20000000000002</ele><time>2026-04-17T08:28:58.873Z</time></trkpt><trkpt lat="42.66196" lon="-9.0194983"><ele>189.60000000000002</ele><time>2026-04-17T08:28:59.874Z</time></trkpt><trkpt lat="42.6619083" lon="-9.0195683"><ele>188.0</ele><time>2026-04-17T08:29:00.874Z</time></trkpt><trkpt lat="42.6618717" lon="-9.0197033"><ele>188.0</ele><time>2026-04-17T08:29:02.874Z</time></trkpt><trkpt lat="42.6618317" lon="-9.01977"><ele>188.0</ele><time>2026-04-17T08:29:03.874Z</time></trkpt><trkpt lat="42.6617783" lon="-9.0198267"><ele>188.0</ele><time>2026-04-17T08:29:04.873Z</time></trkpt><trkpt lat="42.661715" lon="-9.0198817"><ele>188.0</ele><time>2026-04-17T08:29:05.873Z</time></trkpt><trkpt lat="42.6616483" lon="-9.0199433"><ele>188.0</ele><time>2026-04-17T08:29:06.873Z</time></trkpt><trkpt lat="42.6615667" lon="-9.0200183"><ele>188.0</ele><time>2026-04-17T08:29:07.874Z</time></trkpt><trkpt lat="42.66147" lon="-9.0200883"><ele>187.0</ele><time>2026-04-17T08:29:08.874Z</time></trkpt><trkpt lat="42.66136" lon="-9.0201417"><ele>186.0</ele><time>2026-04-17T08:29:09.874Z</time></trkpt><trkpt lat="42.6612533" lon="-9.0201833"><ele>185.0</ele><time>2026-04-17T08:29:10.874Z</time></trkpt><trkpt lat="42.661145" lon="-9.0202017"><ele>184.0</ele><time>2026-04-17T08:29:11.874Z</time></trkpt><trkpt lat="42.661065" lon="-9.0202"><ele>183.0</ele><time>2026-04-17T08:29:12.873Z</time></trkpt><trkpt lat="42.6610017" lon="-9.020165"><ele>183.0</ele><time>2026-04-17T08:29:13.874Z</time></trkpt><trkpt lat="42.6609533" lon="-9.0200933"><ele>183.0</ele><time>2026-04-17T08:29:14.874Z</time></trkpt><trkpt lat="42.6609183" lon="-9.0199717"><ele>183.0</ele><time>2026-04-17T08:29:15.873Z</time></trkpt><trkpt lat="42.66087" lon="-9.0198617"><ele>183.0</ele><time>2026-04-17T08:29:16.874Z</time></trkpt><trkpt lat="42.6608033" lon="-9.0197833"><ele>183.0</ele><time>2026-04-17T08:29:17.874Z</time></trkpt><trkpt lat="42.6607167" lon="-9.0197433"><ele>183.0</ele><time>2026-04-17T08:29:18.874Z</time></trkpt><trkpt lat="42.6606183" lon="-9.0197133"><ele>183.0</ele><time>2026-04-17T08:29:19.873Z</time></trkpt><trkpt lat="42.6605283" lon="-9.019705"><ele>183.0</ele><time>2026-04-17T08:29:20.874Z</time></trkpt><trkpt lat="42.6604417" lon="-9.0197383"><ele>183.0</ele><time>2026-04-17T08:29:21.874Z</time></trkpt><trkpt lat="42.6603667" lon="-9.019795"><ele>183.0</ele><time>2026-04-17T08:29:22.874Z</time></trkpt><trkpt lat="42.6603117" lon="-9.0198833"><ele>183.0</ele><time>2026-04-17T08:29:23.874Z</time></trkpt><trkpt lat="42.6602883" lon="-9.0200117"><ele>183.0</ele><time>2026-04-17T08:29:24.874Z</time></trkpt><trkpt lat="42.66028" lon="-9.0201483"><ele>180.60000000000002</ele><time>2026-04-17T08:29:25.874Z</time></trkpt><trkpt lat="42.6602633" lon="-9.020245"><ele>178.20000000000002</ele><time>2026-04-17T08:29:26.874Z</time></trkpt><trkpt lat="42.66022" lon="-9.020335"><ele>175.8</ele><time>2026-04-17T08:29:28.873Z</time></trkpt><trkpt lat="42.6600767" lon="-9.020285"><ele>173.4</ele><time>2026-04-17T08:29:30.874Z</time></trkpt><trkpt lat="42.6599567" lon="-9.0202367"><ele>171.0</ele><time>2026-04-17T08:29:31.874Z</time></trkpt><trkpt lat="42.6598283" lon="-9.02021"><ele>171.0</ele><time>2026-04-17T08:29:32.873Z</time></trkpt><trkpt lat="42.6597133" lon="-9.0201817"><ele>171.0</ele><time>2026-04-17T08:29:33.874Z</time></trkpt><trkpt lat="42.659595" lon="-9.0201383"><ele>171.0</ele><time>2026-04-17T08:29:34.873Z</time></trkpt><trkpt lat="42.659495" lon="-9.0200633"><ele>171.0</ele><time>2026-04-17T08:29:35.874Z</time></trkpt><trkpt lat="42.6594083" lon="-9.0199833"><ele>171.20000000000002</ele><time>2026-04-17T08:29:36.874Z</time></trkpt><trkpt lat="42.6593433" lon="-9.019915"><ele>171.4</ele><time>2026-04-17T08:29:37.873Z</time></trkpt><trkpt lat="42.65928" lon="-9.0198817"><ele>171.6</ele><time>2026-04-17T08:29:38.873Z</time></trkpt><trkpt lat="42.6592033" lon="-9.0198867"><ele>171.8</ele><time>2026-04-17T08:29:39.873Z</time></trkpt><trkpt lat="42.6591017" lon="-9.0199267"><ele>172.0</ele><time>2026-04-17T08:29:40.873Z</time></trkpt><trkpt lat="42.658965" lon="-9.0199917"><ele>168.5</ele><time>2026-04-17T08:29:41.874Z</time></trkpt><trkpt lat="42.658835" lon="-9.0200467"><ele>165.0</ele><time>2026-04-17T08:29:42.874Z</time></trkpt><trkpt lat="42.658715" lon="-9.0200683"><ele>161.5</ele><time>2026-04-17T08:29:43.874Z</time></trkpt><trkpt lat="42.6585983" lon="-9.0200583"><ele>158.0</ele><time>2026-04-17T08:29:44.874Z</time></trkpt><trkpt lat="42.658475" lon="-9.0200383"><ele>155.75</ele><time>2026-04-17T08:29:45.873Z</time></trkpt><trkpt lat="42.6583567" lon="-9.020015"><ele>153.5</ele><time>2026-04-17T08:29:46.874Z</time></trkpt><trkpt lat="42.6582417" lon="-9.0199833"><ele>151.25</ele><time>2026-04-17T08:29:47.873Z</time></trkpt><trkpt lat="42.6581383" lon="-9.01993"><ele>149.0</ele><time>2026-04-17T08:29:48.873Z</time></trkpt><trkpt lat="42.65804" lon="-9.01985"><ele>148.6</ele><time>2026-04-17T08:29:49.873Z</time></trkpt><trkpt lat="42.6579367" lon="-9.019745"><ele>148.2</ele><time>2026-04-17T08:29:50.873Z</time></trkpt><trkpt lat="42.65784" lon="-9.0196533"><ele>147.79999999999998</ele><time>2026-04-17T08:29:51.873Z</time></trkpt><trkpt lat="42.6577567" lon="-9.0195817"><ele>147.4</ele><time>2026-04-17T08:29:52.874Z</time></trkpt><trkpt lat="42.65769" lon="-9.0195317"><ele>147.0</ele><time>2026-04-17T08:29:53.875Z</time></trkpt><trkpt lat="42.65763" lon="-9.0195"><ele>147.0</ele><time>2026-04-17T08:29:54.875Z</time></trkpt><trkpt lat="42.657535" lon="-9.0195183"><ele>147.0</ele><time>2026-04-17T08:29:56.874Z</time></trkpt><trkpt lat="42.6574467" lon="-9.01956"><ele>147.0</ele><time>2026-04-17T08:29:58.874Z</time></trkpt><trkpt lat="42.6573717" lon="-9.0196467"><ele>147.0</ele><time>2026-04-17T08:30:00.874Z</time></trkpt><trkpt lat="42.65733" lon="-9.0197183"><ele>147.0</ele><time>2026-04-17T08:30:01.874Z</time></trkpt><trkpt lat="42.6572883" lon="-9.0198033"><ele>147.0</ele><time>2026-04-17T08:30:02.874Z</time></trkpt><trkpt lat="42.657245" lon="-9.0198817"><ele>147.0</ele><time>2026-04-17T08:30:03.874Z</time></trkpt><trkpt lat="42.6571933" lon="-9.0199383"><ele>147.0</ele><time>2026-04-17T08:30:04.875Z</time></trkpt><trkpt lat="42.6570933" lon="-9.0199367"><ele>147.0</ele><time>2026-04-17T08:30:06.875Z</time></trkpt><trkpt lat="42.6570383" lon="-9.0198717"><ele>147.0</ele><time>2026-04-17T08:30:07.875Z</time></trkpt><trkpt lat="42.65696" lon="-9.0197567"><ele>147.0</ele><time>2026-04-17T08:30:08.874Z</time></trkpt><trkpt lat="42.65687" lon="-9.0196"><ele>142.0</ele><time>2026-04-17T08:30:09.875Z</time></trkpt><trkpt lat="42.6567433" lon="-9.0194167"><ele>137.0</ele><time>2026-04-17T08:30:10.874Z</time></trkpt><trkpt lat="42.6565617" lon="-9.0192317"><ele>132.0</ele><time>2026-04-17T08:30:11.874Z</time></trkpt><trkpt lat="42.6563817" lon="-9.0190333"><ele>132.0</ele><time>2026-04-17T08:30:12.874Z</time></trkpt><trkpt lat="42.65622" lon="-9.01886"><ele>132.0</ele><time>2026-04-17T08:30:13.874Z</time></trkpt><trkpt lat="42.6560917" lon="-9.0187117"><ele>132.0</ele><time>2026-04-17T08:30:14.874Z</time></trkpt><trkpt lat="42.65597" lon="-9.0185817"><ele>128.25</ele><time>2026-04-17T08:30:15.875Z</time></trkpt><trkpt lat="42.6558517" lon="-9.0184667"><ele>124.5</ele><time>2026-04-17T08:30:16.874Z</time></trkpt><trkpt lat="42.6557533" lon="-9.0183517"><ele>120.75</ele><time>2026-04-17T08:30:17.874Z</time></trkpt><trkpt lat="42.6556833" lon="-9.0182283"><ele>117.0</ele><time>2026-04-17T08:30:18.875Z</time></trkpt><trkpt lat="42.6556267" lon="-9.018075"><ele>117.0</ele><time>2026-04-17T08:30:19.874Z</time></trkpt><trkpt lat="42.6555833" lon="-9.0179167"><ele>116.99999999999999</ele><time>2026-04-17T08:30:20.874Z</time></trkpt><trkpt lat="42.6555783" lon="-9.0177917"><ele>116.99999999999999</ele><time>2026-04-17T08:30:21.875Z</time></trkpt><trkpt lat="42.655585" lon="-9.0176667"><ele>117.0</ele><time>2026-04-17T08:30:22.875Z</time></trkpt><trkpt lat="42.65559" lon="-9.0175633"><ele>117.0</ele><time>2026-04-17T08:30:23.875Z</time></trkpt><trkpt lat="42.6555917" lon="-9.0174717"><ele>117.0</ele><time>2026-04-17T08:30:24.874Z</time></trkpt><trkpt lat="42.65558" lon="-9.01734"><ele>116.99999999999999</ele><time>2026-04-17T08:30:26.875Z</time></trkpt><trkpt lat="42.655505" lon="-9.0174117"><ele>116.99999999999999</ele><time>2026-04-17T08:30:31.874Z</time></trkpt><trkpt lat="42.6554283" lon="-9.017505"><ele>117.0</ele><time>2026-04-17T08:30:33.875Z</time></trkpt><trkpt lat="42.6553633" lon="-9.0175517"><ele>117.0</ele><time>2026-04-17T08:30:34.874Z</time></trkpt><trkpt lat="42.6552717" lon="-9.0175733"><ele>147.0</ele><time>2026-04-17T08:30:35.874Z</time></trkpt><trkpt lat="42.6570933" lon="-9.0199367"><ele>147.0</ele><time>2026-04-17T08:30:06.875Z</time></trkpt><trkpt lat="42.6570383" lon="-9.0198717"><ele>147.0</ele><time>2026-04-17T08:30:07.875Z</time></trkpt><trkpt lat="42.65696" lon="-9.0197567"><ele>147.0</ele><time>2026-04-17T08:30:08.874Z</time></trkpt><trkpt lat="42.65687" lon="-9.0196"><ele>147.0</ele><time>2026-04-17T08:30:09.875Z</time></trkpt><trkpt lat="42.6567433" lon="-9.0194167"><ele>139.5</ele><time>2026-04-17T08:30:10.874Z</time></trkpt><trkpt lat="42.6565617" lon="-9.0192317"><ele>132.0</ele><time>2026-04-17T08:30:11.874Z</time></trkpt><trkpt lat="42.6563817" lon="-9.0190333"><ele>132.0</ele><time>2026-04-17T08:30:12.874Z</time></trkpt><trkpt lat="42.65622" lon="-9.01886"><ele>132.0</ele><time>2026-04-17T08:30:13.874Z</time></trkpt><trkpt lat="42.6560917" lon="-9.0187117"><ele>132.0</ele><time>2026-04-17T08:30:14.874Z</time></trkpt><trkpt lat="42.65597" lon="-9.0185817"><ele>128.25</ele><time>2026-04-17T08:30:15.875Z</time></trkpt><trkpt lat="42.6558517" lon="-9.0184667"><ele>124.5</ele><time>2026-04-17T08:30:16.874Z</time></trkpt><trkpt lat="42.6557533" lon="-9.0183517"><ele>120.75</ele><time>2026-04-17T08:30:17.874Z</time></trkpt><trkpt lat="42.6556833" lon="-9.0182283"><ele>117.0</ele><time>2026-04-17T08:30:18.875Z</time></trkpt><trkpt lat="42.6556267" lon="-9.018075"><ele>117.0</ele><time>2026-04-17T08:30:19.874Z</time></trkpt><trkpt lat="42.6555833" lon="-9.0179167"><ele>116.99999999999999</ele><time>2026-04-17T08:30:20.874Z</time></trkpt><trkpt lat="42.6555783" lon="-9.0177917"><ele>116.99999999999999</ele><time>2026-04-17T08:30:21.875Z</time></trkpt><trkpt lat="42.655585" lon="-9.0176667"><ele>117.0</ele><time>2026-04-17T08:30:22.875Z</time></trkpt><trkpt lat="42.65559" lon="-9.0175633"><ele>117.0</ele><time>2026-04-17T08:30:23.875Z</time></trkpt><trkpt lat="42.6555917" lon="-9.0174717"><ele>117.0</ele><time>2026-04-17T08:30:24.874Z</time></trkpt><trkpt lat="42.65558" lon="-9.01734"><ele>116.99999999999999</ele><time>2026-04-17T08:30:26.875Z</time></trkpt><trkpt lat="42.655505" lon="-9.0174117"><ele>116.99999999999999</ele><time>2026-04-17T08:30:31.874Z</time></trkpt><trkpt lat="42.6554283" lon="-9.017505"><ele>117.0</ele><time>2026-04-17T08:30:33.875Z</time></trkpt><trkpt lat="42.6553633" lon="-9.0175517"><ele>117.0</ele><time>2026-04-17T08:30:34.874Z</time></trkpt><trkpt lat="42.6552717" lon="-9.0175733"><ele>119.33333333333334</ele><time>2026-04-17T08:30:35.874Z</time></trkpt><trkpt lat="42.655135" lon="-9.01757"><ele>121.66666666666667</ele><time>2026-04-17T08:30:36.874Z</time></trkpt><trkpt lat="42.654985" lon="-9.0175417"><ele>124.0</ele><time>2026-04-17T08:30:37.875Z</time></trkpt><trkpt lat="42.6548117" lon="-9.0175367"><ele>124.0</ele><time>2026-04-17T08:30:38.874Z</time></trkpt><trkpt lat="42.6546733" lon="-9.017525"><ele>124.0</ele><time>2026-04-17T08:30:39.875Z</time></trkpt><trkpt lat="42.6545733" lon="-9.0174967"><ele>124.0</ele><time>2026-04-17T08:30:40.875Z</time></trkpt><trkpt lat="42.6545167" lon="-9.0174583"><ele>124.0</ele><time>2026-04-17T08:30:42.874Z</time></trkpt><trkpt lat="42.6546067" lon="-9.0174067"><ele>124.0</ele><time>2026-04-17T08:30:45.875Z</time></trkpt><trkpt lat="42.654635" lon="-9.0172583"><ele>125.80000000000001</ele><time>2026-04-17T08:30:47.874Z</time></trkpt><trkpt lat="42.654655" lon="-9.0171567"><ele>127.60000000000001</ele><time>2026-04-17T08:30:48.874Z</time></trkpt><trkpt lat="42.6546683" lon="-9.01702"><ele>129.4</ele><time>2026-04-17T08:30:49.875Z</time></trkpt><trkpt lat="42.6546633" lon="-9.0168667"><ele>131.20000000000002</ele><time>2026-04-17T08:30:50.874Z</time></trkpt><trkpt lat="42.65464" lon="-9.0166617"><ele>133.0</ele><time>2026-04-17T08:30:51.875Z</time></trkpt><trkpt lat="42.6546017" lon="-9.0165067"><ele>137.33333333333334</ele><time>2026-04-17T08:30:52.874Z</time></trkpt><trkpt lat="42.6545383" lon="-9.0163017"><ele>141.66666666666666</ele><time>2026-04-17T08:30:53.875Z</time></trkpt><trkpt lat="42.6544433" lon="-9.0160817"><ele>146.0</ele><time>2026-04-17T08:30:54.874Z</time></trkpt><trkpt lat="42.6543233" lon="-9.0158817"><ele>151.25</ele><time>2026-04-17T08:30:55.875Z</time></trkpt><trkpt lat="42.6542317" lon="-9.0157017"><ele>156.5</ele><time>2026-04-17T08:30:56.875Z</time></trkpt><trkpt lat="42.6541583" lon="-9.01555"><ele>161.75</ele><time>2026-04-17T08:30:57.875Z</time></trkpt><trkpt lat="42.6540733" lon="-9.01541"><ele>167.0</ele><time>2026-04-17T08:30:58.874Z</time></trkpt><trkpt lat="42.6540033" lon="-9.0153067"><ele>167.0</ele><time>2026-04-17T08:30:59.874Z</time></trkpt><trkpt lat="42.6539317" lon="-9.0152433"><ele>167.0</ele><time>2026-04-17T08:31:00.875Z</time></trkpt><trkpt lat="42.65387" lon="-9.0152"><ele>167.0</ele><time>2026-04-17T08:31:01.874Z</time></trkpt><trkpt lat="42.6538133" lon="-9.0151367"><ele>167.0</ele><time>2026-04-17T08:31:03.874Z</time></trkpt><trkpt lat="42.6538683" lon="-9.01507"><ele>167.0</ele><time>2026-04-17T08:31:06.875Z</time></trkpt><trkpt lat="42.65397" lon="-9.0149867"><ele>167.0</ele><time>2026-04-17T08:31:08.874Z</time></trkpt><trkpt lat="42.65405" lon="-9.0149417"><ele>170.75</ele><time>2026-04-17T08:31:09.874Z</time></trkpt><trkpt lat="42.654145" lon="-9.0148733"><ele>174.5</ele><time>2026-04-17T08:31:10.875Z</time></trkpt><trkpt lat="42.654245" lon="-9.0148067"><ele>178.25</ele><time>2026-04-17T08:31:11.875Z</time></trkpt><trkpt lat="42.6543417" lon="-9.01473"><ele>182.0</ele><time>2026-04-17T08:31:12.874Z</time></trkpt><trkpt lat="42.6544483" lon="-9.014655"><ele>182.75</ele><time>2026-04-17T08:31:13.874Z</time></trkpt><trkpt lat="42.6545567" lon="-9.014575"><ele>183.5</ele><time>2026-04-17T08:31:14.874Z</time></trkpt><trkpt lat="42.6546667" lon="-9.0145"><ele>184.25</ele><time>2026-04-17T08:31:15.875Z</time></trkpt><trkpt lat="42.6547717" lon="-9.014435"><ele>185.0</ele><time>2026-04-17T08:31:16.874Z</time></trkpt><trkpt lat="42.65487" lon="-9.0143383"><ele>185.0</ele><time>2026-04-17T08:31:17.875Z</time></trkpt><trkpt lat="42.654955" lon="-9.01424"><ele>185.0</ele><time>2026-04-17T08:31:18.874Z</time></trkpt><trkpt lat="42.655035" lon="-9.01412"><ele>185.0</ele><time>2026-04-17T08:31:19.874Z</time></trkpt><trkpt lat="42.6551283" lon="-9.0140033"><ele>185.0</ele><time>2026-04-17T08:31:20.875Z</time></trkpt><trkpt lat="42.6552333" lon="-9.0138767"><ele>188.6</ele><time>2026-04-17T08:31:21.875Z</time></trkpt><trkpt lat="42.655325" lon="-9.013805"><ele>192.2</ele><time>2026-04-17T08:31:22.874Z</time></trkpt><trkpt lat="42.6554167" lon="-9.0137067"><ele>195.8</ele><time>2026-04-17T08:31:23.874Z</time></trkpt><trkpt lat="42.655505" lon="-9.0136283"><ele>199.4</ele><time>2026-04-17T08:31:24.874Z</time></trkpt><trkpt lat="42.655585" lon="-9.0135567"><ele>203.0</ele><time>2026-04-17T08:31:25.874Z</time></trkpt><trkpt lat="42.6556667" lon="-9.0134867"><ele>203.0</ele><time>2026-04-17T08:31:26.875Z</time></trkpt><trkpt lat="42.65576" lon="-9.0134183"><ele>203.0</ele><time>2026-04-17T08:31:27.874Z</time></trkpt><trkpt lat="42.6558483" lon="-9.013365"><ele>203.0</ele><time>2026-04-17T08:31:28.875Z</time></trkpt><trkpt lat="42.6559367" lon="-9.01331"><ele>203.0</ele><time>2026-04-17T08:31:29.874Z</time></trkpt><trkpt lat="42.65603" lon="-9.01324"><ele>203.0</ele><time>2026-04-17T08:31:30.874Z</time></trkpt><trkpt lat="42.6561267" lon="-9.0131617"><ele>206.4</ele><time>2026-04-17T08:31:31.875Z</time></trkpt><trkpt lat="42.6562217" lon="-9.01307"><ele>209.8</ele><time>2026-04-17T08:31:32.875Z</time></trkpt><trkpt lat="42.6563133" lon="-9.0129733"><ele>213.2</ele><time>2026-04-17T08:31:33.874Z</time></trkpt><trkpt lat="42.6563933" lon="-9.012875"><ele>216.6</ele><time>2026-04-17T08:31:34.875Z</time></trkpt><trkpt lat="42.6564633" lon="-9.0127817"><ele>220.0</ele><time>2026-04-17T08:31:35.874Z</time></trkpt><trkpt lat="42.65652" lon="-9.0127133"><ele>220.0</ele><time>2026-04-17T08:31:36.875Z</time></trkpt><trkpt lat="42.6565867" lon="-9.0126733"><ele>220.0</ele><time>2026-04-17T08:31:37.875Z</time></trkpt><trkpt lat="42.656675" lon="-9.0126567"><ele>220.0</ele><time>2026-04-17T08:31:38.874Z</time></trkpt><trkpt lat="42.65678" lon="-9.0126517"><ele>220.0</ele><time>2026-04-17T08:31:39.874Z</time></trkpt><trkpt lat="42.65688" lon="-9.01262"><ele>220.0</ele><time>2026-04-17T08:31:40.874Z</time></trkpt><trkpt lat="42.6569717" lon="-9.01257"><ele>221.0</ele><time>2026-04-17T08:31:41.875Z</time></trkpt><trkpt lat="42.6570533" lon="-9.0125067"><ele>222.0</ele><time>2026-04-17T08:31:42.875Z</time></trkpt><trkpt lat="42.6571267" lon="-9.0124383"><ele>223.0</ele><time>2026-04-17T08:31:43.874Z</time></trkpt><trkpt lat="42.6571933" lon="-9.0123367"><ele>224.0</ele><time>2026-04-17T08:31:44.874Z</time></trkpt><trkpt lat="42.6572617" lon="-9.0122267"><ele>225.0</ele><time>2026-04-17T08:31:45.875Z</time></trkpt><trkpt lat="42.6573383" lon="-9.0121033"><ele>225.25</ele><time>2026-04-17T08:31:46.874Z</time></trkpt><trkpt lat="42.6574133" lon="-9.011995"><ele>225.5</ele><time>2026-04-17T08:31:47.874Z</time></trkpt><trkpt lat="42.6574967" lon="-9.011885"><ele>225.75</ele><time>2026-04-17T08:31:48.874Z</time></trkpt><trkpt lat="42.65759" lon="-9.0117767"><ele>226.0</ele><time>2026-04-17T08:31:49.874Z</time></trkpt><trkpt lat="42.6577" lon="-9.0116617"><ele>226.0</ele><time>2026-04-17T08:31:50.874Z</time></trkpt><trkpt lat="42.65783" lon="-9.011535"><ele>226.0</ele><time>2026-04-17T08:31:51.874Z</time></trkpt><trkpt lat="42.65795" lon="-9.0114233"><ele>226.0</ele><time>2026-04-17T08:31:52.874Z</time></trkpt><trkpt lat="42.6580567" lon="-9.0113117"><ele>226.0</ele><time>2026-04-17T08:31:53.875Z</time></trkpt><trkpt lat="42.6581433" lon="-9.0112183"><ele>226.0</ele><time>2026-04-17T08:31:54.874Z</time></trkpt><trkpt lat="42.6582333" lon="-9.011135"><ele>226.00000000000003</ele><time>2026-04-17T08:31:55.874Z</time></trkpt><trkpt lat="42.6583067" lon="-9.0110567"><ele>226.00000000000003</ele><time>2026-04-17T08:31:56.875Z</time></trkpt><trkpt lat="42.658365" lon="-9.010965"><ele>226.0</ele><time>2026-04-17T08:31:57.874Z</time></trkpt><trkpt lat="42.6583933" lon="-9.0108633"><ele>226.0</ele><time>2026-04-17T08:31:58.874Z</time></trkpt><trkpt lat="42.6583983" lon="-9.0107567"><ele>225.75</ele><time>2026-04-17T08:31:59.874Z</time></trkpt><trkpt lat="42.658375" lon="-9.0106433"><ele>225.5</ele><time>2026-04-17T08:32:00.874Z</time></trkpt><trkpt lat="42.6583333" lon="-9.0105183"><ele>225.25</ele><time>2026-04-17T08:32:01.874Z</time></trkpt><trkpt lat="42.6582717" lon="-9.01037"><ele>225.0</ele><time>2026-04-17T08:32:02.875Z</time></trkpt><trkpt lat="42.6562217" lon="-9.01307"><ele>224.0</ele><time>2026-04-17T08:31:32.875Z</time></trkpt><trkpt lat="42.6563133" lon="-9.0129733"><ele>223.0</ele><time>2026-04-17T08:31:33.874Z</time></trkpt><trkpt lat="42.6563933" lon="-9.012875"><ele>222.0</ele><time>2026-04-17T08:31:34.875Z</time></trkpt><trkpt lat="42.6564633" lon="-9.0127817"><ele>221.0</ele><time>2026-04-17T08:31:35.874Z</time></trkpt><trkpt lat="42.65652" lon="-9.0127133"><ele>220.0</ele><time>2026-04-17T08:31:36.875Z</time></trkpt><trkpt lat="42.6565867" lon="-9.0126733"><ele>220.0</ele><time>2026-04-17T08:31:37.875Z</time></trkpt><trkpt lat="42.656675" lon="-9.0126567"><ele>220.0</ele><time>2026-04-17T08:31:38.874Z</time></trkpt><trkpt lat="42.65678" lon="-9.0126517"><ele>220.0</ele><time>2026-04-17T08:31:39.874Z</time></trkpt><trkpt lat="42.65688" lon="-9.01262"><ele>220.0</ele><time>2026-04-17T08:31:40.874Z</time></trkpt><trkpt lat="42.6569717" lon="-9.01257"><ele>220.0</ele><time>2026-04-17T08:31:41.875Z</time></trkpt><trkpt lat="42.6570533" lon="-9.0125067"><ele>221.2</ele><time>2026-04-17T08:31:42.875Z</time></trkpt><trkpt lat="42.6571267" lon="-9.0124383"><ele>222.4</ele><time>2026-04-17T08:31:43.874Z</time></trkpt><trkpt lat="42.6571933" lon="-9.0123367"><ele>223.60000000000002</ele><time>2026-04-17T08:31:44.874Z</time></trkpt><trkpt lat="42.6572617" lon="-9.0122267"><ele>224.8</ele><time>2026-04-17T08:31:45.875Z</time></trkpt><trkpt lat="42.6573383" lon="-9.0121033"><ele>226.0</ele><time>2026-04-17T08:31:46.874Z</time></trkpt><trkpt lat="42.6574133" lon="-9.011995"><ele>226.0</ele><time>2026-04-17T08:31:47.874Z</time></trkpt><trkpt lat="42.6574967" lon="-9.011885"><ele>226.0</ele><time>2026-04-17T08:31:48.874Z</time></trkpt><trkpt lat="42.65759" lon="-9.0117767"><ele>226.0</ele><time>2026-04-17T08:31:49.874Z</time></trkpt><trkpt lat="42.6577" lon="-9.0116617"><ele>226.0</ele><time>2026-04-17T08:31:50.874Z</time></trkpt><trkpt lat="42.65783" lon="-9.011535"><ele>226.0</ele><time>2026-04-17T08:31:51.874Z</time></trkpt><trkpt lat="42.65795" lon="-9.0114233"><ele>226.0</ele><time>2026-04-17T08:31:52.874Z</time></trkpt><trkpt lat="42.6580567" lon="-9.0113117"><ele>226.0</ele><time>2026-04-17T08:31:53.875Z</time></trkpt><trkpt lat="42.6581433" lon="-9.0112183"><ele>226.0</ele><time>2026-04-17T08:31:54.874Z</time></trkpt><trkpt lat="42.6582333" lon="-9.011135"><ele>225.99999999999997</ele><time>2026-04-17T08:31:55.874Z</time></trkpt><trkpt lat="42.6583067" lon="-9.0110567"><ele>226.0</ele><time>2026-04-17T08:31:56.875Z</time></trkpt><trkpt lat="42.658365" lon="-9.010965"><ele>226.0</ele><time>2026-04-17T08:31:57.874Z</time></trkpt><trkpt lat="42.6583933" lon="-9.0108633"><ele>226.0</ele><time>2026-04-17T08:31:58.874Z</time></trkpt><trkpt lat="42.6583983" lon="-9.0107567"><ele>225.99999999999997</ele><time>2026-04-17T08:31:59.874Z</time></trkpt><trkpt lat="42.658375" lon="-9.0106433"><ele>226.0</ele><time>2026-04-17T08:32:00.874Z</time></trkpt><trkpt lat="42.6583333" lon="-9.0105183"><ele>225.75</ele><time>2026-04-17T08:32:01.874Z</time></trkpt><trkpt lat="42.6582717" lon="-9.01037"><ele>225.5</ele><time>2026-04-17T08:32:02.875Z</time></trkpt><trkpt lat="42.658215" lon="-9.01021"><ele>225.25</ele><time>2026-04-17T08:32:03.875Z</time></trkpt><trkpt lat="42.6581633" lon="-9.0100683"><ele>225.0</ele><time>2026-04-17T08:32:04.874Z</time></trkpt><trkpt lat="42.6581067" lon="-9.00994"><ele>225.0</ele><time>2026-04-17T08:32:05.874Z</time></trkpt><trkpt lat="42.65803" lon="-9.0098067"><ele>225.0</ele><time>2026-04-17T08:32:06.875Z</time></trkpt><trkpt lat="42.65794" lon="-9.0096867"><ele>225.0</ele><time>2026-04-17T08:32:07.875Z</time></trkpt><trkpt lat="42.657855" lon="-9.0096067"><ele>225.0</ele><time>2026-04-17T08:32:08.875Z</time></trkpt><trkpt lat="42.6577583" lon="-9.0095783"><ele>225.0</ele><time>2026-04-17T08:32:09.874Z</time></trkpt><trkpt lat="42.6576533" lon="-9.0095767"><ele>225.0</ele><time>2026-04-17T08:32:10.874Z</time></trkpt><trkpt lat="42.65752" lon="-9.0095817"><ele>225.0</ele><time>2026-04-17T08:32:11.874Z</time></trkpt><trkpt lat="42.6573617" lon="-9.0095833"><ele>225.0</ele><time>2026-04-17T08:32:12.874Z</time></trkpt><trkpt lat="42.6571967" lon="-9.0095667"><ele>225.0</ele><time>2026-04-17T08:32:13.875Z</time></trkpt><trkpt lat="42.6570433" lon="-9.0095367"><ele>225.0</ele><time>2026-04-17T08:32:14.874Z</time></trkpt><trkpt lat="42.6569233" lon="-9.0094933"><ele>225.0</ele><time>2026-04-17T08:32:15.875Z</time></trkpt><trkpt lat="42.6568367" lon="-9.0094517"><ele>225.0</ele><time>2026-04-17T08:32:16.874Z</time></trkpt><trkpt lat="42.6567717" lon="-9.0094083"><ele>225.0</ele><time>2026-04-17T08:32:17.875Z</time></trkpt><trkpt lat="42.65672" lon="-9.009345"><ele>224.25</ele><time>2026-04-17T08:32:18.875Z</time></trkpt><trkpt lat="42.6566883" lon="-9.0092467"><ele>223.5</ele><time>2026-04-17T08:32:19.874Z</time></trkpt><trkpt lat="42.6566583" lon="-9.0090883"><ele>222.75</ele><time>2026-04-17T08:32:20.875Z</time></trkpt><trkpt lat="42.6566417" lon="-9.0088717"><ele>222.0</ele><time>2026-04-17T08:32:21.874Z</time></trkpt><trkpt lat="42.6566167" lon="-9.008665"><ele>220.75</ele><time>2026-04-17T08:32:22.874Z</time></trkpt><trkpt lat="42.6565867" lon="-9.0084817"><ele>219.5</ele><time>2026-04-17T08:32:23.875Z</time></trkpt><trkpt lat="42.6565583" lon="-9.0083033"><ele>218.25</ele><time>2026-04-17T08:32:24.875Z</time></trkpt><trkpt lat="42.65653" lon="-9.0081433"><ele>217.0</ele><time>2026-04-17T08:32:25.874Z</time></trkpt><trkpt lat="42.6565017" lon="-9.00799"><ele>216.0</ele><time>2026-04-17T08:32:26.875Z</time></trkpt><trkpt lat="42.6564667" lon="-9.0078567"><ele>215.0</ele><time>2026-04-17T08:32:27.874Z</time></trkpt><trkpt lat="42.6564167" lon="-9.0077333"><ele>214.0</ele><time>2026-04-17T08:32:28.875Z</time></trkpt><trkpt lat="42.656355" lon="-9.0076267"><ele>213.0</ele><time>2026-04-17T08:32:29.875Z</time></trkpt><trkpt lat="42.6562967" lon="-9.0075167"><ele>212.0</ele><time>2026-04-17T08:32:30.874Z</time></trkpt><trkpt lat="42.656245" lon="-9.007415"><ele>211.66666666666669</ele><time>2026-04-17T08:32:31.874Z</time></trkpt><trkpt lat="42.65621" lon="-9.0073367"><ele>211.33333333333334</ele><time>2026-04-17T08:32:32.875Z</time></trkpt><trkpt lat="42.6561933" lon="-9.0072367"><ele>211.0</ele><time>2026-04-17T08:32:34.875Z</time></trkpt><trkpt lat="42.656245" lon="-9.0071133"><ele>210.66666666666669</ele><time>2026-04-17T08:32:36.875Z</time></trkpt><trkpt lat="42.6562683" lon="-9.007025"><ele>210.33333333333334</ele><time>2026-04-17T08:32:37.875Z</time></trkpt><trkpt lat="42.6562783" lon="-9.0069217"><ele>210.0</ele><time>2026-04-17T08:32:38.874Z</time></trkpt><trkpt lat="42.6562567" lon="-9.006815"><ele>210.0</ele><time>2026-04-17T08:32:39.874Z</time></trkpt><trkpt lat="42.6562183" lon="-9.0067233"><ele>210.0</ele><time>2026-04-17T08:32:40.874Z</time></trkpt><trkpt lat="42.65617" lon="-9.0066417"><ele>210.0</ele><time>2026-04-17T08:32:41.875Z</time></trkpt><trkpt lat="42.6561283" lon="-9.0065533"><ele>210.0</ele><time>2026-04-17T08:32:42.875Z</time></trkpt><trkpt lat="42.6560983" lon="-9.0064467"><ele>210.0</ele><time>2026-04-17T08:32:43.875Z</time></trkpt><trkpt lat="42.6560883" lon="-9.0063433"><ele>210.0</ele><time>2026-04-17T08:32:44.874Z</time></trkpt><trkpt lat="42.6561067" lon="-9.006225"><ele>209.0</ele><time>2026-04-17T08:32:45.874Z</time></trkpt><trkpt lat="42.65615" lon="-9.0061183"><ele>208.0</ele><time>2026-04-17T08:32:46.875Z</time></trkpt><trkpt lat="42.65622" lon="-9.0060167"><ele>207.0</ele><time>2026-04-17T08:32:47.874Z</time></trkpt><trkpt lat="42.6562983" lon="-9.0059467"><ele>206.0</ele><time>2026-04-17T08:32:48.875Z</time></trkpt><trkpt lat="42.6563983" lon="-9.0058917"><ele>205.0</ele><time>2026-04-17T08:32:49.874Z</time></trkpt><trkpt lat="42.6565117" lon="-9.00587"><ele>205.0</ele><time>2026-04-17T08:32:50.874Z</time></trkpt><trkpt lat="42.6566283" lon="-9.0058733"><ele>205.0</ele><time>2026-04-17T08:32:51.874Z</time></trkpt><trkpt lat="42.656745" lon="-9.0058917"><ele>205.0</ele><time>2026-04-17T08:32:52.875Z</time></trkpt><trkpt lat="42.6568583" lon="-9.0059233"><ele>205.0</ele><time>2026-04-17T08:32:53.874Z</time></trkpt><trkpt lat="42.6569733" lon="-9.0059817"><ele>203.4</ele><time>2026-04-17T08:32:54.875Z</time></trkpt><trkpt lat="42.6570717" lon="-9.0060333"><ele>201.8</ele><time>2026-04-17T08:32:55.874Z</time></trkpt><trkpt lat="42.6571733" lon="-9.0060833"><ele>200.2</ele><time>2026-04-17T08:32:56.874Z</time></trkpt><trkpt lat="42.657275" lon="-9.00613"><ele>198.6</ele><time>2026-04-17T08:32:57.874Z</time></trkpt><trkpt lat="42.6573633" lon="-9.0061883"><ele>197.0</ele><time>2026-04-17T08:32:58.874Z</time></trkpt><trkpt lat="42.6574483" lon="-9.006265"><ele>197.0</ele><time>2026-04-17T08:32:59.874Z</time></trkpt><trkpt lat="42.6575233" lon="-9.006365"><ele>197.0</ele><time>2026-04-17T08:33:00.874Z</time></trkpt><trkpt lat="42.6575983" lon="-9.006465"><ele>197.0</ele><time>2026-04-17T08:33:01.874Z</time></trkpt><trkpt lat="42.6576767" lon="-9.0065617"><ele>197.0</ele><time>2026-04-17T08:33:02.875Z</time></trkpt><trkpt lat="42.6577567" lon="-9.0066567"><ele>197.0</ele><time>2026-04-17T08:33:03.875Z</time></trkpt><trkpt lat="42.6578467" lon="-9.0067433"><ele>198.6</ele><time>2026-04-17T08:33:04.874Z</time></trkpt><trkpt lat="42.6579433" lon="-9.0068117"><ele>200.2</ele><time>2026-04-17T08:33:05.874Z</time></trkpt><trkpt lat="42.6580383" lon="-9.006865"><ele>201.8</ele><time>2026-04-17T08:33:06.875Z</time></trkpt><trkpt lat="42.6581267" lon="-9.0068967"><ele>203.4</ele><time>2026-04-17T08:33:07.874Z</time></trkpt><trkpt lat="42.6582117" lon="-9.00692"><ele>205.0</ele><time>2026-04-17T08:33:08.874Z</time></trkpt><trkpt lat="42.6582767" lon="-9.00691"><ele>205.0</ele><time>2026-04-17T08:33:09.875Z</time></trkpt><trkpt lat="42.6583483" lon="-9.0068017"><ele>205.0</ele><time>2026-04-17T08:33:11.875Z</time></trkpt><trkpt lat="42.65835" lon="-9.0066633"><ele>205.0</ele><time>2026-04-17T08:33:12.874Z</time></trkpt><trkpt lat="42.6583183" lon="-9.0064683"><ele>205.0</ele><time>2026-04-17T08:33:13.875Z</time></trkpt><trkpt lat="42.6582717" lon="-9.0062333"><ele>205.0</ele><time>2026-04-17T08:33:14.874Z</time></trkpt><trkpt lat="42.6582517" lon="-9.0060467"><ele>205.0</ele><time>2026-04-17T08:33:15.875Z</time></trkpt><trkpt lat="42.6582617" lon="-9.0058667"><ele>205.0</ele><time>2026-04-17T08:33:16.875Z</time></trkpt><trkpt lat="42.6583117" lon="-9.0057117"><ele>205.0</ele><time>2026-04-17T08:33:17.874Z</time></trkpt><trkpt lat="42.6583967" lon="-9.005585"><ele>205.0</ele><time>2026-04-17T08:33:18.875Z</time></trkpt><trkpt lat="42.6584967" lon="-9.00547"><ele>205.0</ele><time>2026-04-17T08:33:19.875Z</time></trkpt><trkpt lat="42.65861" lon="-9.0053767"><ele>205.0</ele><time>2026-04-17T08:33:20.875Z</time></trkpt><trkpt lat="42.65871" lon="-9.00531"><ele>205.0</ele><time>2026-04-17T08:33:21.875Z</time></trkpt><trkpt lat="42.6587817" lon="-9.005275"><ele>207.0</ele><time>2026-04-17T08:33:22.875Z</time></trkpt><trkpt lat="42.65888" lon="-9.005285"><ele>209.0</ele><time>2026-04-17T08:33:24.874Z</time></trkpt><trkpt lat="42.6588783" lon="-9.005415"><ele>211.0</ele><time>2026-04-17T08:33:26.875Z</time></trkpt><trkpt lat="42.6588183" lon="-9.0055367"><ele>213.0</ele><time>2026-04-17T08:33:27.875Z</time></trkpt><trkpt lat="42.658755" lon="-9.005685"><ele>215.0</ele><time>2026-04-17T08:33:28.875Z</time></trkpt><trkpt lat="42.6587233" lon="-9.0058217"><ele>197.0</ele><time>2026-04-17T08:33:29.874Z</time></trkpt><trkpt lat="42.6574483" lon="-9.006265"><ele>197.0</ele><time>2026-04-17T08:32:59.874Z</time></trkpt><trkpt lat="42.6575233" lon="-9.006365"><ele>197.0</ele><time>2026-04-17T08:33:00.874Z</time></trkpt><trkpt lat="42.6575983" lon="-9.006465"><ele>197.0</ele><time>2026-04-17T08:33:01.874Z</time></trkpt><trkpt lat="42.6576767" lon="-9.0065617"><ele>197.0</ele><time>2026-04-17T08:33:02.875Z</time></trkpt><trkpt lat="42.6577567" lon="-9.0066567"><ele>197.0</ele><time>2026-04-17T08:33:03.875Z</time></trkpt><trkpt lat="42.6578467" lon="-9.0067433"><ele>198.6</ele><time>2026-04-17T08:33:04.874Z</time></trkpt><trkpt lat="42.6579433" lon="-9.0068117"><ele>200.2</ele><time>2026-04-17T08:33:05.874Z</time></trkpt><trkpt lat="42.6580383" lon="-9.006865"><ele>201.8</ele><time>2026-04-17T08:33:06.875Z</time></trkpt><trkpt lat="42.6581267" lon="-9.0068967"><ele>203.4</ele><time>2026-04-17T08:33:07.874Z</time></trkpt><trkpt lat="42.6582117" lon="-9.00692"><ele>205.0</ele><time>2026-04-17T08:33:08.874Z</time></trkpt><trkpt lat="42.6582767" lon="-9.00691"><ele>205.0</ele><time>2026-04-17T08:33:09.875Z</time></trkpt><trkpt lat="42.6583483" lon="-9.0068017"><ele>205.0</ele><time>2026-04-17T08:33:11.875Z</time></trkpt><trkpt lat="42.65835" lon="-9.0066633"><ele>205.0</ele><time>2026-04-17T08:33:12.874Z</time></trkpt><trkpt lat="42.6583183" lon="-9.0064683"><ele>205.0</ele><time>2026-04-17T08:33:13.875Z</time></trkpt><trkpt lat="42.6582717" lon="-9.0062333"><ele>205.0</ele><time>2026-04-17T08:33:14.874Z</time></trkpt><trkpt lat="42.6582517" lon="-9.0060467"><ele>205.0</ele><time>2026-04-17T08:33:15.875Z</time></trkpt><trkpt lat="42.6582617" lon="-9.0058667"><ele>205.0</ele><time>2026-04-17T08:33:16.875Z</time></trkpt><trkpt lat="42.6583117" lon="-9.0057117"><ele>205.0</ele><time>2026-04-17T08:33:17.874Z</time></trkpt><trkpt lat="42.6583967" lon="-9.005585"><ele>205.0</ele><time>2026-04-17T08:33:18.875Z</time></trkpt><trkpt lat="42.6584967" lon="-9.00547"><ele>205.0</ele><time>2026-04-17T08:33:19.875Z</time></trkpt><trkpt lat="42.65861" lon="-9.0053767"><ele>205.0</ele><time>2026-04-17T08:33:20.875Z</time></trkpt><trkpt lat="42.65871" lon="-9.00531"><ele>205.0</ele><time>2026-04-17T08:33:21.875Z</time></trkpt><trkpt lat="42.6587817" lon="-9.005275"><ele>207.0</ele><time>2026-04-17T08:33:22.875Z</time></trkpt><trkpt lat="42.65888" lon="-9.005285"><ele>209.0</ele><time>2026-04-17T08:33:24.874Z</time></trkpt><trkpt lat="42.6588783" lon="-9.005415"><ele>211.0</ele><time>2026-04-17T08:33:26.875Z</time></trkpt><trkpt lat="42.6588183" lon="-9.0055367"><ele>213.0</ele><time>2026-04-17T08:33:27.875Z</time></trkpt><trkpt lat="42.658755" lon="-9.005685"><ele>215.0</ele><time>2026-04-17T08:33:28.875Z</time></trkpt><trkpt lat="42.6587233" lon="-9.0058217"><ele>215.66666666666669</ele><time>2026-04-17T08:33:29.874Z</time></trkpt><trkpt lat="42.658735" lon="-9.0059333"><ele>216.33333333333334</ele><time>2026-04-17T08:33:30.875Z</time></trkpt><trkpt lat="42.6587767" lon="-9.006"><ele>217.0</ele><time>2026-04-17T08:33:31.874Z</time></trkpt><trkpt lat="42.6588417" lon="-9.0060267"><ele>217.66666666666669</ele><time>2026-04-17T08:33:32.874Z</time></trkpt><trkpt lat="42.6589333" lon="-9.0060217"><ele>218.33333333333334</ele><time>2026-04-17T08:33:33.875Z</time></trkpt><trkpt lat="42.65904" lon="-9.005965"><ele>219.0</ele><time>2026-04-17T08:33:34.874Z</time></trkpt><trkpt lat="42.6591683" lon="-9.005855"><ele>218.2</ele><time>2026-04-17T08:33:35.874Z</time></trkpt><trkpt lat="42.659275" lon="-9.0057783"><ele>217.39999999999998</ele><time>2026-04-17T08:33:36.874Z</time></trkpt><trkpt lat="42.659385" lon="-9.0057533"><ele>216.6</ele><time>2026-04-17T08:33:37.874Z</time></trkpt><trkpt lat="42.65948" lon="-9.0057767"><ele>215.8</ele><time>2026-04-17T08:33:38.874Z</time></trkpt><trkpt lat="42.6595517" lon="-9.00583"><ele>215.0</ele><time>2026-04-17T08:33:39.875Z</time></trkpt><trkpt lat="42.6596533" lon="-9.0058517"><ele>217.2</ele><time>2026-04-17T08:33:41.874Z</time></trkpt><trkpt lat="42.6597067" lon="-9.0057267"><ele>219.4</ele><time>2026-04-17T08:33:43.874Z</time></trkpt><trkpt lat="42.6597083" lon="-9.0056067"><ele>221.60000000000002</ele><time>2026-04-17T08:33:44.874Z</time></trkpt><trkpt lat="42.6597183" lon="-9.0054817"><ele>223.8</ele><time>2026-04-17T08:33:45.874Z</time></trkpt><trkpt lat="42.6597683" lon="-9.0053567"><ele>226.0</ele><time>2026-04-17T08:33:46.875Z</time></trkpt><trkpt lat="42.6598383" lon="-9.0052383"><ele>226.0</ele><time>2026-04-17T08:33:47.874Z</time></trkpt><trkpt lat="42.6598917" lon="-9.0051417"><ele>226.00000000000003</ele><time>2026-04-17T08:33:48.875Z</time></trkpt><trkpt lat="42.6599183" lon="-9.00505"><ele>226.00000000000003</ele><time>2026-04-17T08:33:49.875Z</time></trkpt><trkpt lat="42.6598617" lon="-9.00487"><ele>226.0</ele><time>2026-04-17T08:33:51.875Z</time></trkpt><trkpt lat="42.6597733" lon="-9.0047617"><ele>226.0</ele><time>2026-04-17T08:33:52.875Z</time></trkpt><trkpt lat="42.6596933" lon="-9.00464"><ele>226.20000000000002</ele><time>2026-04-17T08:33:53.875Z</time></trkpt><trkpt lat="42.6596483" lon="-9.0045367"><ele>226.40000000000003</ele><time>2026-04-17T08:33:54.874Z</time></trkpt><trkpt lat="42.65964" lon="-9.0044333"><ele>226.6</ele><time>2026-04-17T08:33:55.875Z</time></trkpt><trkpt lat="42.6596733" lon="-9.00435"><ele>226.8</ele><time>2026-04-17T08:33:56.874Z</time></trkpt><trkpt lat="42.6597467" lon="-9.00426"><ele>227.0</ele><time>2026-04-17T08:33:57.875Z</time></trkpt><trkpt lat="42.65986" lon="-9.00418"><ele>228.5</ele><time>2026-04-17T08:33:58.875Z</time></trkpt><trkpt lat="42.6599917" lon="-9.0041217"><ele>230.0</ele><time>2026-04-17T08:33:59.874Z</time></trkpt><trkpt lat="42.6601267" lon="-9.0041217"><ele>231.5</ele><time>2026-04-17T08:34:00.875Z</time></trkpt><trkpt lat="42.6602533" lon="-9.0041583"><ele>233.0</ele><time>2026-04-17T08:34:01.875Z</time></trkpt><trkpt lat="42.660355" lon="-9.004195"><ele>234.00000000000003</ele><time>2026-04-17T08:34:02.875Z</time></trkpt><trkpt lat="42.6604483" lon="-9.0042183"><ele>235.0</ele><time>2026-04-17T08:34:03.876Z</time></trkpt><trkpt lat="42.6605433" lon="-9.0042333"><ele>236.0</ele><time>2026-04-17T08:34:04.875Z</time></trkpt><trkpt lat="42.66062" lon="-9.00421"><ele>237.0</ele><time>2026-04-17T08:34:05.875Z</time></trkpt><trkpt lat="42.660695" lon="-9.0041533"><ele>238.00000000000003</ele><time>2026-04-17T08:34:06.875Z</time></trkpt><trkpt lat="42.6607533" lon="-9.004075"><ele>239.0</ele><time>2026-04-17T08:34:07.875Z</time></trkpt><trkpt lat="42.6607817" lon="-9.00398"><ele>241.39999999999998</ele><time>2026-04-17T08:34:08.875Z</time></trkpt><trkpt lat="42.660785" lon="-9.0038667"><ele>243.79999999999998</ele><time>2026-04-17T08:34:09.875Z</time></trkpt><trkpt lat="42.6607633" lon="-9.0037383"><ele>246.20000000000002</ele><time>2026-04-17T08:34:10.875Z</time></trkpt><trkpt lat="42.66071" lon="-9.0035967"><ele>248.60000000000002</ele><time>2026-04-17T08:34:11.876Z</time></trkpt><trkpt lat="42.660625" lon="-9.00344"><ele>251.0</ele><time>2026-04-17T08:34:12.876Z</time></trkpt><trkpt lat="42.6605017" lon="-9.00326"><ele>251.33333333333334</ele><time>2026-04-17T08:34:13.876Z</time></trkpt><trkpt lat="42.6603767" lon="-9.0031017"><ele>251.66666666666669</ele><time>2026-04-17T08:34:14.875Z</time></trkpt><trkpt lat="42.66025" lon="-9.0029533"><ele>252.0</ele><time>2026-04-17T08:34:15.875Z</time></trkpt><trkpt lat="42.66011" lon="-9.002805"><ele>252.0</ele><time>2026-04-17T08:34:16.876Z</time></trkpt><trkpt lat="42.6600033" lon="-9.0026333"><ele>252.0</ele><time>2026-04-17T08:34:17.875Z</time></trkpt><trkpt lat="42.65992" lon="-9.0024633"><ele>252.0</ele><time>2026-04-17T08:34:18.876Z</time></trkpt><trkpt lat="42.6598367" lon="-9.002315"><ele>256.75</ele><time>2026-04-17T08:34:19.875Z</time></trkpt><trkpt lat="42.659745" lon="-9.002165"><ele>261.5</ele><time>2026-04-17T08:34:20.875Z</time></trkpt><trkpt lat="42.6596417" lon="-9.0020417"><ele>266.25</ele><time>2026-04-17T08:34:21.875Z</time></trkpt><trkpt lat="42.6595517" lon="-9.0019167"><ele>271.0</ele><time>2026-04-17T08:34:22.875Z</time></trkpt><trkpt lat="42.6594767" lon="-9.001775"><ele>269.3333333333333</ele><time>2026-04-17T08:34:23.876Z</time></trkpt><trkpt lat="42.6594017" lon="-9.00161"><ele>267.6666666666667</ele><time>2026-04-17T08:34:24.875Z</time></trkpt><trkpt lat="42.6593133" lon="-9.0014267"><ele>266.0</ele><time>2026-04-17T08:34:25.875Z</time></trkpt><trkpt lat="42.6592267" lon="-9.00123"><ele>266.0</ele><time>2026-04-17T08:34:26.875Z</time></trkpt><trkpt lat="42.6591433" lon="-9.0010533"><ele>266.0</ele><time>2026-04-17T08:34:27.875Z</time></trkpt><trkpt lat="42.65905" lon="-9.0008917"><ele>266.0</ele><time>2026-04-17T08:34:28.876Z</time></trkpt><trkpt lat="42.6589717" lon="-9.0007467"><ele>266.0</ele><time>2026-04-17T08:34:29.875Z</time></trkpt><trkpt lat="42.6589067" lon="-9.0006167"><ele>268.33333333333337</ele><time>2026-04-17T08:34:30.876Z</time></trkpt><trkpt lat="42.6588683" lon="-9.00053"><ele>270.6666666666667</ele><time>2026-04-17T08:34:31.876Z</time></trkpt><trkpt lat="42.658855" lon="-9.0004033"><ele>273.0</ele><time>2026-04-17T08:34:33.876Z</time></trkpt><trkpt lat="42.6589333" lon="-9.0003517"><ele>275.3333333333333</ele><time>2026-04-17T08:34:35.876Z</time></trkpt><trkpt lat="42.6590033" lon="-9.0003567"><ele>277.66666666666663</ele><time>2026-04-17T08:34:36.876Z</time></trkpt><trkpt lat="42.65909" lon="-9.0003783"><ele>280.0</ele><time>2026-04-17T08:34:37.875Z</time></trkpt><trkpt lat="42.6591567" lon="-9.0004"><ele>280.0</ele><time>2026-04-17T08:34:38.875Z</time></trkpt><trkpt lat="42.6592383" lon="-9.00036"><ele>280.0</ele><time>2026-04-17T08:34:40.876Z</time></trkpt><trkpt lat="42.6592417" lon="-9.000215"><ele>280.0</ele><time>2026-04-17T08:34:42.876Z</time></trkpt><trkpt lat="42.65921" lon="-9.0000883"><ele>280.0</ele><time>2026-04-17T08:34:43.875Z</time></trkpt><trkpt lat="42.6591583" lon="-8.9999317"><ele>280.0</ele><time>2026-04-17T08:34:44.876Z</time></trkpt><trkpt lat="42.659115" lon="-8.9997467"><ele>280.0</ele><time>2026-04-17T08:34:45.876Z</time></trkpt><trkpt lat="42.659085" lon="-8.9995433"><ele>280.0</ele><time>2026-04-17T08:34:46.876Z</time></trkpt><trkpt lat="42.6590917" lon="-8.99933"><ele>280.0</ele><time>2026-04-17T08:34:47.875Z</time></trkpt><trkpt lat="42.65913" lon="-8.9991067"><ele>280.0</ele><time>2026-04-17T08:34:48.875Z</time></trkpt><trkpt lat="42.659195" lon="-8.9988633"><ele>280.0</ele><time>2026-04-17T08:34:49.875Z</time></trkpt><trkpt lat="42.65928" lon="-8.9986017"><ele>280.0</ele><time>2026-04-17T08:34:50.876Z</time></trkpt><trkpt lat="42.6593617" lon="-8.9983233"><ele>278.66666666666663</ele><time>2026-04-17T08:34:51.875Z</time></trkpt><trkpt lat="42.659445" lon="-8.99806"><ele>277.3333333333333</ele><time>2026-04-17T08:34:52.875Z</time></trkpt><trkpt lat="42.65951" lon="-8.9978133"><ele>276.0</ele><time>2026-04-17T08:34:53.876Z</time></trkpt><trkpt lat="42.6595483" lon="-8.9975967"><ele>272.6666666666667</ele><time>2026-04-17T08:34:54.875Z</time></trkpt><trkpt lat="42.659565" lon="-8.9974"><ele>269.33333333333337</ele><time>2026-04-17T08:34:55.875Z</time></trkpt><trkpt lat="42.6595933" lon="-8.99723"><ele>266.0</ele><time>2026-04-17T08:34:56.876Z</time></trkpt><trkpt lat="42.6592267" lon="-9.00123"><ele>266.0</ele><time>2026-04-17T08:34:26.875Z</time></trkpt><trkpt lat="42.6591433" lon="-9.0010533"><ele>266.0</ele><time>2026-04-17T08:34:27.875Z</time></trkpt><trkpt lat="42.65905" lon="-9.0008917"><ele>266.0</ele><time>2026-04-17T08:34:28.876Z</time></trkpt><trkpt lat="42.6589717" lon="-9.0007467"><ele>266.0</ele><time>2026-04-17T08:34:29.875Z</time></trkpt><trkpt lat="42.6589067" lon="-9.0006167"><ele>268.33333333333337</ele><time>2026-04-17T08:34:30.876Z</time></trkpt><trkpt lat="42.6588683" lon="-9.00053"><ele>270.6666666666667</ele><time>2026-04-17T08:34:31.876Z</time></trkpt><trkpt lat="42.658855" lon="-9.0004033"><ele>273.0</ele><time>2026-04-17T08:34:33.876Z</time></trkpt><trkpt lat="42.6589333" lon="-9.0003517"><ele>275.3333333333333</ele><time>2026-04-17T08:34:35.876Z</time></trkpt><trkpt lat="42.6590033" lon="-9.0003567"><ele>277.66666666666663</ele><time>2026-04-17T08:34:36.876Z</time></trkpt><trkpt lat="42.65909" lon="-9.0003783"><ele>280.0</ele><time>2026-04-17T08:34:37.875Z</time></trkpt><trkpt lat="42.6591567" lon="-9.0004"><ele>280.0</ele><time>2026-04-17T08:34:38.875Z</time></trkpt><trkpt lat="42.6592383" lon="-9.00036"><ele>280.0</ele><time>2026-04-17T08:34:40.876Z</time></trkpt><trkpt lat="42.6592417" lon="-9.000215"><ele>280.0</ele><time>2026-04-17T08:34:42.876Z</time></trkpt><trkpt lat="42.65921" lon="-9.0000883"><ele>280.0</ele><time>2026-04-17T08:34:43.875Z</time></trkpt><trkpt lat="42.6591583" lon="-8.9999317"><ele>280.0</ele><time>2026-04-17T08:34:44.876Z</time></trkpt><trkpt lat="42.659115" lon="-8.9997467"><ele>280.0</ele><time>2026-04-17T08:34:45.876Z</time></trkpt><trkpt lat="42.659085" lon="-8.9995433"><ele>280.0</ele><time>2026-04-17T08:34:46.876Z</time></trkpt><trkpt lat="42.6590917" lon="-8.99933"><ele>280.0</ele><time>2026-04-17T08:34:47.875Z</time></trkpt><trkpt lat="42.65913" lon="-8.9991067"><ele>280.0</ele><time>2026-04-17T08:34:48.875Z</time></trkpt><trkpt lat="42.659195" lon="-8.9988633"><ele>280.0</ele><time>2026-04-17T08:34:49.875Z</time></trkpt><trkpt lat="42.65928" lon="-8.9986017"><ele>280.0</ele><time>2026-04-17T08:34:50.876Z</time></trkpt><trkpt lat="42.6593617" lon="-8.9983233"><ele>278.66666666666663</ele><time>2026-04-17T08:34:51.875Z</time></trkpt><trkpt lat="42.659445" lon="-8.99806"><ele>277.3333333333333</ele><time>2026-04-17T08:34:52.875Z</time></trkpt><trkpt lat="42.65951" lon="-8.9978133"><ele>276.0</ele><time>2026-04-17T08:34:53.876Z</time></trkpt><trkpt lat="42.6595483" lon="-8.9975967"><ele>279.25</ele><time>2026-04-17T08:34:54.875Z</time></trkpt><trkpt lat="42.659565" lon="-8.9974"><ele>282.5</ele><time>2026-04-17T08:34:55.875Z</time></trkpt><trkpt lat="42.6595933" lon="-8.99723"><ele>285.75</ele><time>2026-04-17T08:34:56.876Z</time></trkpt><trkpt lat="42.65965" lon="-8.9970683"><ele>289.0</ele><time>2026-04-17T08:34:57.876Z</time></trkpt><trkpt lat="42.6597233" lon="-8.996935"><ele>289.0</ele><time>2026-04-17T08:34:58.875Z</time></trkpt><trkpt lat="42.6598217" lon="-8.9968017"><ele>289.0</ele><time>2026-04-17T08:34:59.876Z</time></trkpt><trkpt lat="42.659925" lon="-8.9966717"><ele>289.0</ele><time>2026-04-17T08:35:00.875Z</time></trkpt><trkpt lat="42.6600367" lon="-8.9965417"><ele>289.0</ele><time>2026-04-17T08:35:01.876Z</time></trkpt><trkpt lat="42.6601533" lon="-8.9964167"><ele>290.0</ele><time>2026-04-17T08:35:02.876Z</time></trkpt><trkpt lat="42.6602683" lon="-8.9962883"><ele>291.0</ele><time>2026-04-17T08:35:03.876Z</time></trkpt><trkpt lat="42.660365" lon="-8.9961633"><ele>292.0</ele><time>2026-04-17T08:35:04.875Z</time></trkpt><trkpt lat="42.660465" lon="-8.99606"><ele>293.0</ele><time>2026-04-17T08:35:05.876Z</time></trkpt><trkpt lat="42.66058" lon="-8.995975"><ele>293.0</ele><time>2026-04-17T08:35:06.876Z</time></trkpt><trkpt lat="42.6607217" lon="-8.995885"><ele>293.0</ele><time>2026-04-17T08:35:07.875Z</time></trkpt><trkpt lat="42.6608767" lon="-8.99579"><ele>293.0</ele><time>2026-04-17T08:35:08.876Z</time></trkpt><trkpt lat="42.6610383" lon="-8.9957067"><ele>288.33333333333337</ele><time>2026-04-17T08:35:09.876Z</time></trkpt><trkpt lat="42.6612083" lon="-8.9956117"><ele>283.6666666666667</ele><time>2026-04-17T08:35:10.875Z</time></trkpt><trkpt lat="42.6613633" lon="-8.9955117"><ele>279.0</ele><time>2026-04-17T08:35:11.875Z</time></trkpt><trkpt lat="42.6614983" lon="-8.9954233"><ele>279.0</ele><time>2026-04-17T08:35:12.875Z</time></trkpt><trkpt lat="42.66162" lon="-8.9953583"><ele>279.0</ele><time>2026-04-17T08:35:13.876Z</time></trkpt><trkpt lat="42.6617283" lon="-8.9953133"><ele>279.0</ele><time>2026-04-17T08:35:14.875Z</time></trkpt><trkpt lat="42.6618383" lon="-8.99531"><ele>279.0</ele><time>2026-04-17T08:35:15.875Z</time></trkpt><trkpt lat="42.6619733" lon="-8.9953667"><ele>277.6666666666667</ele><time>2026-04-17T08:35:16.876Z</time></trkpt><trkpt lat="42.6621283" lon="-8.9954567"><ele>276.33333333333337</ele><time>2026-04-17T08:35:17.875Z</time></trkpt><trkpt lat="42.662275" lon="-8.9955583"><ele>275.0</ele><time>2026-04-17T08:35:18.876Z</time></trkpt><trkpt lat="42.6623983" lon="-8.9956433"><ele>275.0</ele><time>2026-04-17T08:35:19.876Z</time></trkpt><trkpt lat="42.6625017" lon="-8.9956917"><ele>275.0</ele><time>2026-04-17T08:35:20.875Z</time></trkpt><trkpt lat="42.6625817" lon="-8.9957183"><ele>275.0</ele><time>2026-04-17T08:35:21.875Z</time></trkpt><trkpt lat="42.6626833" lon="-8.9956867"><ele>275.0</ele><time>2026-04-17T08:35:23.876Z</time></trkpt><trkpt lat="42.6626983" lon="-8.9954833"><ele>275.0</ele><time>2026-04-17T08:35:25.876Z</time></trkpt><trkpt lat="42.662675" lon="-8.9953317"><ele>275.0</ele><time>2026-04-17T08:35:26.876Z</time></trkpt><trkpt lat="42.6626433" lon="-8.9951333"><ele>275.0</ele><time>2026-04-17T08:35:27.876Z</time></trkpt><trkpt lat="42.66262" lon="-8.994905"><ele>275.0</ele><time>2026-04-17T08:35:28.876Z</time></trkpt><trkpt lat="42.6626167" lon="-8.99472"><ele>276.6</ele><time>2026-04-17T08:35:29.875Z</time></trkpt><trkpt lat="42.66263" lon="-8.9945333"><ele>278.2</ele><time>2026-04-17T08:35:30.876Z</time></trkpt><trkpt lat="42.6626633" lon="-8.994385"><ele>279.8</ele><time>2026-04-17T08:35:31.875Z</time></trkpt><trkpt lat="42.66272" lon="-8.994285"><ele>281.4</ele><time>2026-04-17T08:35:32.876Z</time></trkpt><trkpt lat="42.662785" lon="-8.9941983"><ele>283.0</ele><time>2026-04-17T08:35:33.876Z</time></trkpt><trkpt lat="42.66288" lon="-8.994115"><ele>277.66666666666663</ele><time>2026-04-17T08:35:34.875Z</time></trkpt><trkpt lat="42.6630233" lon="-8.9940767"><ele>272.3333333333333</ele><time>2026-04-17T08:35:35.876Z</time></trkpt><trkpt lat="42.6631867" lon="-8.99405"><ele>267.0</ele><time>2026-04-17T08:35:36.875Z</time></trkpt><trkpt lat="42.6633733" lon="-8.9940333"><ele>267.0</ele><time>2026-04-17T08:35:37.876Z</time></trkpt><trkpt lat="42.6635517" lon="-8.9940233"><ele>267.0</ele><time>2026-04-17T08:35:38.875Z</time></trkpt><trkpt lat="42.6637183" lon="-8.9940183"><ele>267.0</ele><time>2026-04-17T08:35:39.876Z</time></trkpt><trkpt lat="42.6638783" lon="-8.9940217"><ele>266.6666666666667</ele><time>2026-04-17T08:35:40.875Z</time></trkpt><trkpt lat="42.66404" lon="-8.9940467"><ele>266.33333333333337</ele><time>2026-04-17T08:35:41.875Z</time></trkpt><trkpt lat="42.6642017" lon="-8.99409"><ele>266.0</ele><time>2026-04-17T08:35:42.875Z</time></trkpt><trkpt lat="42.66436" lon="-8.9941483"><ele>267.6666666666667</ele><time>2026-04-17T08:35:43.875Z</time></trkpt><trkpt lat="42.664515" lon="-8.9942467"><ele>269.3333333333333</ele><time>2026-04-17T08:35:44.875Z</time></trkpt><trkpt lat="42.6646617" lon="-8.9943883"><ele>271.0</ele><time>2026-04-17T08:35:45.875Z</time></trkpt><trkpt lat="42.6647933" lon="-8.994555"><ele>271.0</ele><time>2026-04-17T08:35:46.875Z</time></trkpt><trkpt lat="42.6649067" lon="-8.9947267"><ele>271.0</ele><time>2026-04-17T08:35:47.875Z</time></trkpt><trkpt lat="42.6650083" lon="-8.994925"><ele>271.0</ele><time>2026-04-17T08:35:48.875Z</time></trkpt><trkpt lat="42.6651067" lon="-8.99512"><ele>276.0</ele><time>2026-04-17T08:35:49.876Z</time></trkpt><trkpt lat="42.6651867" lon="-8.9952767"><ele>281.0</ele><time>2026-04-17T08:35:50.875Z</time></trkpt><trkpt lat="42.6652683" lon="-8.9954"><ele>286.0</ele><time>2026-04-17T08:35:51.875Z</time></trkpt><trkpt lat="42.6653733" lon="-8.9954833"><ele>291.0</ele><time>2026-04-17T08:35:52.875Z</time></trkpt><trkpt lat="42.6655017" lon="-8.9955683"><ele>291.2</ele><time>2026-04-17T08:35:53.875Z</time></trkpt><trkpt lat="42.66561" lon="-8.9956517"><ele>291.40000000000003</ele><time>2026-04-17T08:35:54.876Z</time></trkpt><trkpt lat="42.665705" lon="-8.9957133"><ele>291.6</ele><time>2026-04-17T08:35:55.876Z</time></trkpt><trkpt lat="42.665795" lon="-8.9957483"><ele>291.8</ele><time>2026-04-17T08:35:56.875Z</time></trkpt><trkpt lat="42.6658683" lon="-8.99577"><ele>292.0</ele><time>2026-04-17T08:35:57.876Z</time></trkpt><trkpt lat="42.6659483" lon="-8.9957017"><ele>292.0</ele><time>2026-04-17T08:35:59.875Z</time></trkpt><trkpt lat="42.6659467" lon="-8.9954967"><ele>292.0</ele><time>2026-04-17T08:36:01.876Z</time></trkpt><trkpt lat="42.66595" lon="-8.99533"><ele>292.0</ele><time>2026-04-17T08:36:02.875Z</time></trkpt><trkpt lat="42.66596" lon="-8.9951533"><ele>292.0</ele><time>2026-04-17T08:36:03.876Z</time></trkpt><trkpt lat="42.665985" lon="-8.99499"><ele>293.75</ele><time>2026-04-17T08:36:04.876Z</time></trkpt><trkpt lat="42.666035" lon="-8.9948767"><ele>295.5</ele><time>2026-04-17T08:36:05.876Z</time></trkpt><trkpt lat="42.6661017" lon="-8.994765"><ele>297.25</ele><time>2026-04-17T08:36:06.876Z</time></trkpt><trkpt lat="42.666205" lon="-8.9946717"><ele>299.0</ele><time>2026-04-17T08:36:07.876Z</time></trkpt><trkpt lat="42.6663433" lon="-8.9946033"><ele>299.0</ele><time>2026-04-17T08:36:08.875Z</time></trkpt><trkpt lat="42.6665083" lon="-8.99454"><ele>299.0</ele><time>2026-04-17T08:36:09.876Z</time></trkpt><trkpt lat="42.6666683" lon="-8.99453"><ele>299.0</ele><time>2026-04-17T08:36:10.875Z</time></trkpt><trkpt lat="42.6668033" lon="-8.9945467"><ele>299.0</ele><time>2026-04-17T08:36:11.876Z</time></trkpt><trkpt lat="42.6669133" lon="-8.9946167"><ele>299.0</ele><time>2026-04-17T08:36:12.875Z</time></trkpt><trkpt lat="42.66701" lon="-8.9947183"><ele>299.0</ele><time>2026-04-17T08:36:13.875Z</time></trkpt><trkpt lat="42.6671183" lon="-8.9948333"><ele>299.0</ele><time>2026-04-17T08:36:14.875Z</time></trkpt><trkpt lat="42.6672283" lon="-8.99493"><ele>301.0</ele><time>2026-04-17T08:36:15.875Z</time></trkpt><trkpt lat="42.667335" lon="-8.9950017"><ele>303.0</ele><time>2026-04-17T08:36:16.875Z</time></trkpt><trkpt lat="42.667445" lon="-8.9950367"><ele>305.0</ele><time>2026-04-17T08:36:17.875Z</time></trkpt><trkpt lat="42.6675617" lon="-8.9950383"><ele>307.0</ele><time>2026-04-17T08:36:18.876Z</time></trkpt><trkpt lat="42.6676717" lon="-8.9949983"><ele>310.75</ele><time>2026-04-17T08:36:19.875Z</time></trkpt><trkpt lat="42.667785" lon="-8.9949417"><ele>314.5</ele><time>2026-04-17T08:36:20.876Z</time></trkpt><trkpt lat="42.667905" lon="-8.994895"><ele>318.25</ele><time>2026-04-17T08:36:21.876Z</time></trkpt><trkpt lat="42.6680083" lon="-8.9948533"><ele>322.0</ele><time>2026-04-17T08:36:22.875Z</time></trkpt><trkpt lat="42.66811" lon="-8.9948217"><ele>322.0</ele><time>2026-04-17T08:36:23.875Z</time></trkpt><trkpt lat="42.668215" lon="-8.994795"><ele>322.0</ele><time>2026-04-17T08:36:24.875Z</time></trkpt><trkpt lat="42.6655017" lon="-8.9955683"><ele>316.0</ele><time>2026-04-17T08:35:53.875Z</time></trkpt><trkpt lat="42.66561" lon="-8.9956517"><ele>310.0</ele><time>2026-04-17T08:35:54.876Z</time></trkpt><trkpt lat="42.665705" lon="-8.9957133"><ele>304.0</ele><time>2026-04-17T08:35:55.876Z</time></trkpt><trkpt lat="42.665795" lon="-8.9957483"><ele>298.0</ele><time>2026-04-17T08:35:56.875Z</time></trkpt><trkpt lat="42.6658683" lon="-8.99577"><ele>292.0</ele><time>2026-04-17T08:35:57.876Z</time></trkpt><trkpt lat="42.6659483" lon="-8.9957017"><ele>292.0</ele><time>2026-04-17T08:35:59.875Z</time></trkpt><trkpt lat="42.6659467" lon="-8.9954967"><ele>292.0</ele><time>2026-04-17T08:36:01.876Z</time></trkpt><trkpt lat="42.66595" lon="-8.99533"><ele>292.0</ele><time>2026-04-17T08:36:02.875Z</time></trkpt><trkpt lat="42.66596" lon="-8.9951533"><ele>292.0</ele><time>2026-04-17T08:36:03.876Z</time></trkpt><trkpt lat="42.665985" lon="-8.99499"><ele>293.75</ele><time>2026-04-17T08:36:04.876Z</time></trkpt><trkpt lat="42.666035" lon="-8.9948767"><ele>295.5</ele><time>2026-04-17T08:36:05.876Z</time></trkpt><trkpt lat="42.6661017" lon="-8.994765"><ele>297.25</ele><time>2026-04-17T08:36:06.876Z</time></trkpt><trkpt lat="42.666205" lon="-8.9946717"><ele>299.0</ele><time>2026-04-17T08:36:07.876Z</time></trkpt><trkpt lat="42.6663433" lon="-8.9946033"><ele>299.0</ele><time>2026-04-17T08:36:08.875Z</time></trkpt><trkpt lat="42.6665083" lon="-8.99454"><ele>299.0</ele><time>2026-04-17T08:36:09.876Z</time></trkpt><trkpt lat="42.6666683" lon="-8.99453"><ele>299.0</ele><time>2026-04-17T08:36:10.875Z</time></trkpt><trkpt lat="42.6668033" lon="-8.9945467"><ele>299.0</ele><time>2026-04-17T08:36:11.876Z</time></trkpt><trkpt lat="42.6669133" lon="-8.9946167"><ele>299.0</ele><time>2026-04-17T08:36:12.875Z</time></trkpt><trkpt lat="42.66701" lon="-8.9947183"><ele>299.0</ele><time>2026-04-17T08:36:13.875Z</time></trkpt><trkpt lat="42.6671183" lon="-8.9948333"><ele>299.0</ele><time>2026-04-17T08:36:14.875Z</time></trkpt><trkpt lat="42.6672283" lon="-8.99493"><ele>301.0</ele><time>2026-04-17T08:36:15.875Z</time></trkpt><trkpt lat="42.667335" lon="-8.9950017"><ele>303.0</ele><time>2026-04-17T08:36:16.875Z</time></trkpt><trkpt lat="42.667445" lon="-8.9950367"><ele>305.0</ele><time>2026-04-17T08:36:17.875Z</time></trkpt><trkpt lat="42.6675617" lon="-8.9950383"><ele>307.0</ele><time>2026-04-17T08:36:18.876Z</time></trkpt><trkpt lat="42.6676717" lon="-8.9949983"><ele>310.75</ele><time>2026-04-17T08:36:19.875Z</time></trkpt><trkpt lat="42.667785" lon="-8.9949417"><ele>314.5</ele><time>2026-04-17T08:36:20.876Z</time></trkpt><trkpt lat="42.667905" lon="-8.994895"><ele>318.25</ele><time>2026-04-17T08:36:21.876Z</time></trkpt><trkpt lat="42.6680083" lon="-8.9948533"><ele>322.0</ele><time>2026-04-17T08:36:22.875Z</time></trkpt><trkpt lat="42.66811" lon="-8.9948217"><ele>322.0</ele><time>2026-04-17T08:36:23.875Z</time></trkpt><trkpt lat="42.668215" lon="-8.994795"><ele>322.0</ele><time>2026-04-17T08:36:24.875Z</time></trkpt><trkpt lat="42.66832" lon="-8.994785"><ele>322.0</ele><time>2026-04-17T08:36:25.875Z</time></trkpt><trkpt lat="42.66842" lon="-8.99479"><ele>322.0</ele><time>2026-04-17T08:36:26.875Z</time></trkpt><trkpt lat="42.668515" lon="-8.99482"><ele>322.0</ele><time>2026-04-17T08:36:27.876Z</time></trkpt><trkpt lat="42.668615" lon="-8.994855"><ele>323.75</ele><time>2026-04-17T08:36:28.876Z</time></trkpt><trkpt lat="42.6687167" lon="-8.9948567"><ele>325.5</ele><time>2026-04-17T08:36:29.876Z</time></trkpt><trkpt lat="42.6688233" lon="-8.9948317"><ele>327.25</ele><time>2026-04-17T08:36:30.875Z</time></trkpt><trkpt lat="42.6689483" lon="-8.9948017"><ele>329.0</ele><time>2026-04-17T08:36:31.875Z</time></trkpt><trkpt lat="42.6690967" lon="-8.994775"><ele>329.0</ele><time>2026-04-17T08:36:32.875Z</time></trkpt><trkpt lat="42.6692417" lon="-8.9947517"><ele>329.0</ele><time>2026-04-17T08:36:33.876Z</time></trkpt><trkpt lat="42.6693767" lon="-8.99476"><ele>329.0</ele><time>2026-04-17T08:36:34.875Z</time></trkpt><trkpt lat="42.6695133" lon="-8.994815"><ele>329.0</ele><time>2026-04-17T08:36:35.876Z</time></trkpt><trkpt lat="42.6696667" lon="-8.9948967"><ele>339.0</ele><time>2026-04-17T08:36:36.876Z</time></trkpt><trkpt lat="42.66982" lon="-8.99501"><ele>349.0</ele><time>2026-04-17T08:36:37.875Z</time></trkpt><trkpt lat="42.6699733" lon="-8.9951083"><ele>359.0</ele><time>2026-04-17T08:36:38.876Z</time></trkpt><trkpt lat="42.6701217" lon="-8.99517"><ele>358.0</ele><time>2026-04-17T08:36:39.875Z</time></trkpt><trkpt lat="42.670275" lon="-8.995205"><ele>357.0</ele><time>2026-04-17T08:36:40.876Z</time></trkpt><trkpt lat="42.6704317" lon="-8.9952067"><ele>356.0</ele><time>2026-04-17T08:36:41.876Z</time></trkpt><trkpt lat="42.6706083" lon="-8.9951933"><ele>356.0</ele><time>2026-04-17T08:36:42.876Z</time></trkpt><trkpt lat="42.67079" lon="-8.99518"><ele>356.0</ele><time>2026-04-17T08:36:43.875Z</time></trkpt><trkpt lat="42.670955" lon="-8.9951833"><ele>356.0</ele><time>2026-04-17T08:36:44.876Z</time></trkpt><trkpt lat="42.67109" lon="-8.9951717"><ele>358.25</ele><time>2026-04-17T08:36:45.876Z</time></trkpt><trkpt lat="42.671195" lon="-8.99514"><ele>360.5</ele><time>2026-04-17T08:36:46.875Z</time></trkpt><trkpt lat="42.6712917" lon="-8.9950833"><ele>362.75</ele><time>2026-04-17T08:36:47.876Z</time></trkpt><trkpt lat="42.6713833" lon="-8.994995"><ele>365.0</ele><time>2026-04-17T08:36:48.875Z</time></trkpt><trkpt lat="42.6714667" lon="-8.994865"><ele>357.33333333333337</ele><time>2026-04-17T08:36:49.876Z</time></trkpt><trkpt lat="42.6715567" lon="-8.9946817"><ele>349.6666666666667</ele><time>2026-04-17T08:36:50.875Z</time></trkpt><trkpt lat="42.671635" lon="-8.9944867"><ele>342.0</ele><time>2026-04-17T08:36:51.875Z</time></trkpt><trkpt lat="42.671715" lon="-8.9942967"><ele>341.6666666666667</ele><time>2026-04-17T08:36:52.875Z</time></trkpt><trkpt lat="42.6718083" lon="-8.9940817"><ele>341.33333333333337</ele><time>2026-04-17T08:36:53.875Z</time></trkpt><trkpt lat="42.6719133" lon="-8.9938733"><ele>341.0</ele><time>2026-04-17T08:36:54.876Z</time></trkpt><trkpt lat="42.6720117" lon="-8.9936783"><ele>341.0</ele><time>2026-04-17T08:36:55.875Z</time></trkpt><trkpt lat="42.6720967" lon="-8.99349"><ele>341.0</ele><time>2026-04-17T08:36:56.875Z</time></trkpt><trkpt lat="42.6721783" lon="-8.9933133"><ele>341.0</ele><time>2026-04-17T08:36:57.875Z</time></trkpt><trkpt lat="42.67224" lon="-8.9931217"><ele>337.25</ele><time>2026-04-17T08:36:58.875Z</time></trkpt><trkpt lat="42.6722683" lon="-8.99292"><ele>333.5</ele><time>2026-04-17T08:36:59.875Z</time></trkpt><trkpt lat="42.67228" lon="-8.99273"><ele>329.75</ele><time>2026-04-17T08:37:00.875Z</time></trkpt><trkpt lat="42.672295" lon="-8.9925583"><ele>326.0</ele><time>2026-04-17T08:37:01.875Z</time></trkpt><trkpt lat="42.67233" lon="-8.9923833"><ele>323.33333333333337</ele><time>2026-04-17T08:37:02.875Z</time></trkpt><trkpt lat="42.6724" lon="-8.9922317"><ele>320.6666666666667</ele><time>2026-04-17T08:37:03.875Z</time></trkpt><trkpt lat="42.6724883" lon="-8.992055"><ele>318.0</ele><time>2026-04-17T08:37:04.875Z</time></trkpt><trkpt lat="42.6725933" lon="-8.9918683"><ele>318.0</ele><time>2026-04-17T08:37:05.875Z</time></trkpt><trkpt lat="42.672715" lon="-8.9917067"><ele>318.0</ele><time>2026-04-17T08:37:06.875Z</time></trkpt><trkpt lat="42.67288" lon="-8.99156"><ele>318.0</ele><time>2026-04-17T08:37:07.875Z</time></trkpt><trkpt lat="42.6730467" lon="-8.9914367"><ele>318.0</ele><time>2026-04-17T08:37:08.875Z</time></trkpt><trkpt lat="42.6732217" lon="-8.9913383"><ele>318.0</ele><time>2026-04-17T08:37:09.876Z</time></trkpt><trkpt lat="42.6733633" lon="-8.9912583"><ele>318.0</ele><time>2026-04-17T08:37:10.875Z</time></trkpt><trkpt lat="42.67349" lon="-8.9911933"><ele>318.0</ele><time>2026-04-17T08:37:11.875Z</time></trkpt><trkpt lat="42.6735867" lon="-8.991155"><ele>318.0</ele><time>2026-04-17T08:37:12.875Z</time></trkpt><trkpt lat="42.67368" lon="-8.9911667"><ele>318.0</ele><time>2026-04-17T08:37:13.875Z</time></trkpt><trkpt lat="42.6737867" lon="-8.9911933"><ele>318.0</ele><time>2026-04-17T08:37:14.876Z</time></trkpt><trkpt lat="42.6739167" lon="-8.9912367"><ele>318.0</ele><time>2026-04-17T08:37:15.876Z</time></trkpt><trkpt lat="42.6740583" lon="-8.9913033"><ele>319.0</ele><time>2026-04-17T08:37:16.875Z</time></trkpt><trkpt lat="42.6742383" lon="-8.99139"><ele>320.0</ele><time>2026-04-17T08:37:17.875Z</time></trkpt><trkpt lat="42.6744117" lon="-8.9914917"><ele>321.0</ele><time>2026-04-17T08:37:18.876Z</time></trkpt><trkpt lat="42.6745783" lon="-8.9916033"><ele>328.6666666666667</ele><time>2026-04-17T08:37:19.875Z</time></trkpt><trkpt lat="42.6747333" lon="-8.9917583"><ele>336.33333333333337</ele><time>2026-04-17T08:37:20.875Z</time></trkpt><trkpt lat="42.6748983" lon="-8.9918967"><ele>344.0</ele><time>2026-04-17T08:37:21.876Z</time></trkpt><trkpt lat="42.675055" lon="-8.9920167"><ele>344.0</ele><time>2026-04-17T08:37:22.875Z</time></trkpt><trkpt lat="42.6751967" lon="-8.9920867"><ele>344.0</ele><time>2026-04-17T08:37:23.875Z</time></trkpt><trkpt lat="42.67533" lon="-8.9921133"><ele>344.0</ele><time>2026-04-17T08:37:24.876Z</time></trkpt><trkpt lat="42.6754467" lon="-8.9920833"><ele>344.0</ele><time>2026-04-17T08:37:25.876Z</time></trkpt><trkpt lat="42.675555" lon="-8.9919933"><ele>345.75</ele><time>2026-04-17T08:37:26.875Z</time></trkpt><trkpt lat="42.6756733" lon="-8.9919117"><ele>347.5</ele><time>2026-04-17T08:37:27.875Z</time></trkpt><trkpt lat="42.67578" lon="-8.9918767"><ele>349.25</ele><time>2026-04-17T08:37:28.876Z</time></trkpt><trkpt lat="42.6758883" lon="-8.991875"><ele>351.0</ele><time>2026-04-17T08:37:29.875Z</time></trkpt><trkpt lat="42.6760117" lon="-8.99191"><ele>349.6666666666667</ele><time>2026-04-17T08:37:30.876Z</time></trkpt><trkpt lat="42.6761367" lon="-8.9919717"><ele>348.33333333333337</ele><time>2026-04-17T08:37:31.876Z</time></trkpt><trkpt lat="42.6762783" lon="-8.9920633"><ele>347.0</ele><time>2026-04-17T08:37:32.876Z</time></trkpt><trkpt lat="42.6764367" lon="-8.9921317"><ele>347.0</ele><time>2026-04-17T08:37:33.876Z</time></trkpt><trkpt lat="42.6765867" lon="-8.9921733"><ele>347.0</ele><time>2026-04-17T08:37:34.876Z</time></trkpt><trkpt lat="42.67672" lon="-8.992195"><ele>347.0</ele><time>2026-04-17T08:37:35.875Z</time></trkpt><trkpt lat="42.676835" lon="-8.9921833"><ele>347.0</ele><time>2026-04-17T08:37:36.876Z</time></trkpt><trkpt lat="42.6769117" lon="-8.9921567"><ele>347.5</ele><time>2026-04-17T08:37:37.875Z</time></trkpt><trkpt lat="42.6769733" lon="-8.9921383"><ele>348.0</ele><time>2026-04-17T08:37:38.875Z</time></trkpt><trkpt lat="42.676975" lon="-8.9919517"><ele>348.5</ele><time>2026-04-17T08:37:40.876Z</time></trkpt><trkpt lat="42.676945" lon="-8.991785"><ele>349.0</ele><time>2026-04-17T08:37:41.876Z</time></trkpt><trkpt lat="42.6769217" lon="-8.9916183"><ele>346.79999999999995</ele><time>2026-04-17T08:37:42.875Z</time></trkpt><trkpt lat="42.6769267" lon="-8.9914733"><ele>344.59999999999997</ele><time>2026-04-17T08:37:43.875Z</time></trkpt><trkpt lat="42.6769533" lon="-8.9913183"><ele>342.4</ele><time>2026-04-17T08:37:44.875Z</time></trkpt><trkpt lat="42.6770067" lon="-8.99117"><ele>340.2</ele><time>2026-04-17T08:37:45.875Z</time></trkpt><trkpt lat="42.6770633" lon="-8.99106"><ele>338.0</ele><time>2026-04-17T08:37:46.876Z</time></trkpt><trkpt lat="42.6771117" lon="-8.990985"><ele>338.0</ele><time>2026-04-17T08:37:47.875Z</time></trkpt><trkpt lat="42.67719" lon="-8.99092"><ele>338.0</ele><time>2026-04-17T08:37:49.876Z</time></trkpt><trkpt lat="42.6772583" lon="-8.9908967"><ele>338.0</ele><time>2026-04-17T08:37:50.876Z</time></trkpt><trkpt lat="42.6773567" lon="-8.990845"><ele>338.0</ele><time>2026-04-17T08:37:52.875Z</time></trkpt><trkpt lat="42.6773767" lon="-8.9906967"><ele>338.0</ele><time>2026-04-17T08:37:54.875Z</time></trkpt><trkpt lat="42.6748983" lon="-8.9918967"><ele>340.0</ele><time>2026-04-17T08:37:21.876Z</time></trkpt><trkpt lat="42.675055" lon="-8.9920167"><ele>342.0</ele><time>2026-04-17T08:37:22.875Z</time></trkpt><trkpt lat="42.6751967" lon="-8.9920867"><ele>344.0</ele><time>2026-04-17T08:37:23.875Z</time></trkpt><trkpt lat="42.67533" lon="-8.9921133"><ele>345.75</ele><time>2026-04-17T08:37:24.876Z</time></trkpt><trkpt lat="42.6754467" lon="-8.9920833"><ele>347.5</ele><time>2026-04-17T08:37:25.876Z</time></trkpt><trkpt lat="42.675555" lon="-8.9919933"><ele>349.25</ele><time>2026-04-17T08:37:26.875Z</time></trkpt><trkpt lat="42.6756733" lon="-8.9919117"><ele>351.0</ele><time>2026-04-17T08:37:27.875Z</time></trkpt><trkpt lat="42.67578" lon="-8.9918767"><ele>351.0</ele><time>2026-04-17T08:37:28.876Z</time></trkpt><trkpt lat="42.6758883" lon="-8.991875"><ele>351.0</ele><time>2026-04-17T08:37:29.875Z</time></trkpt><trkpt lat="42.6760117" lon="-8.99191"><ele>351.0</ele><time>2026-04-17T08:37:30.876Z</time></trkpt><trkpt lat="42.6761367" lon="-8.9919717"><ele>351.0</ele><time>2026-04-17T08:37:31.876Z</time></trkpt><trkpt lat="42.6762783" lon="-8.9920633"><ele>349.6666666666667</ele><time>2026-04-17T08:37:32.876Z</time></trkpt><trkpt lat="42.6764367" lon="-8.9921317"><ele>348.33333333333337</ele><time>2026-04-17T08:37:33.876Z</time></trkpt><trkpt lat="42.6765867" lon="-8.9921733"><ele>347.0</ele><time>2026-04-17T08:37:34.876Z</time></trkpt><trkpt lat="42.67672" lon="-8.992195"><ele>347.0</ele><time>2026-04-17T08:37:35.875Z</time></trkpt><trkpt lat="42.676835" lon="-8.9921833"><ele>347.0</ele><time>2026-04-17T08:37:36.876Z</time></trkpt><trkpt lat="42.6769117" lon="-8.9921567"><ele>347.0</ele><time>2026-04-17T08:37:37.875Z</time></trkpt><trkpt lat="42.6769733" lon="-8.9921383"><ele>347.0</ele><time>2026-04-17T08:37:38.875Z</time></trkpt><trkpt lat="42.676975" lon="-8.9919517"><ele>347.0</ele><time>2026-04-17T08:37:40.876Z</time></trkpt><trkpt lat="42.676945" lon="-8.991785"><ele>344.75</ele><time>2026-04-17T08:37:41.876Z</time></trkpt><trkpt lat="42.6769217" lon="-8.9916183"><ele>342.5</ele><time>2026-04-17T08:37:42.875Z</time></trkpt><trkpt lat="42.6769267" lon="-8.9914733"><ele>340.25</ele><time>2026-04-17T08:37:43.875Z</time></trkpt><trkpt lat="42.6769533" lon="-8.9913183"><ele>338.0</ele><time>2026-04-17T08:37:44.875Z</time></trkpt><trkpt lat="42.6770067" lon="-8.99117"><ele>338.0</ele><time>2026-04-17T08:37:45.875Z</time></trkpt><trkpt lat="42.6770633" lon="-8.99106"><ele>338.0</ele><time>2026-04-17T08:37:46.876Z</time></trkpt><trkpt lat="42.6771117" lon="-8.990985"><ele>338.0</ele><time>2026-04-17T08:37:47.875Z</time></trkpt><trkpt lat="42.67719" lon="-8.99092"><ele>338.0</ele><time>2026-04-17T08:37:49.876Z</time></trkpt><trkpt lat="42.6772583" lon="-8.9908967"><ele>338.0</ele><time>2026-04-17T08:37:50.876Z</time></trkpt><trkpt lat="42.6773567" lon="-8.990845"><ele>338.0</ele><time>2026-04-17T08:37:52.875Z</time></trkpt><trkpt lat="42.6773767" lon="-8.9906967"><ele>337.0</ele><time>2026-04-17T08:37:54.875Z</time></trkpt><trkpt lat="42.6773533" lon="-8.9905867"><ele>336.0</ele><time>2026-04-17T08:37:55.875Z</time></trkpt><trkpt lat="42.6773233" lon="-8.9904317"><ele>335.0</ele><time>2026-04-17T08:37:56.875Z</time></trkpt><trkpt lat="42.6773" lon="-8.990225"><ele>334.0</ele><time>2026-04-17T08:37:57.875Z</time></trkpt><trkpt lat="42.6773083" lon="-8.9899983"><ele>333.3333333333333</ele><time>2026-04-17T08:37:58.876Z</time></trkpt><trkpt lat="42.6773467" lon="-8.9897133"><ele>332.6666666666667</ele><time>2026-04-17T08:37:59.876Z</time></trkpt><trkpt lat="42.6773667" lon="-8.9894567"><ele>332.0</ele><time>2026-04-17T08:38:00.875Z</time></trkpt><trkpt lat="42.677375" lon="-8.9892583"><ele>331.5</ele><time>2026-04-17T08:38:01.875Z</time></trkpt><trkpt lat="42.677355" lon="-8.9890967"><ele>331.0</ele><time>2026-04-17T08:38:02.876Z</time></trkpt><trkpt lat="42.6773267" lon="-8.9889367"><ele>330.5</ele><time>2026-04-17T08:38:03.875Z</time></trkpt><trkpt lat="42.677325" lon="-8.9887617"><ele>330.0</ele><time>2026-04-17T08:38:04.875Z</time></trkpt><trkpt lat="42.6773283" lon="-8.9885683"><ele>330.0</ele><time>2026-04-17T08:38:05.876Z</time></trkpt><trkpt lat="42.6773533" lon="-8.988355"><ele>330.0</ele><time>2026-04-17T08:38:06.876Z</time></trkpt><trkpt lat="42.6774017" lon="-8.9881367"><ele>330.0</ele><time>2026-04-17T08:38:07.876Z</time></trkpt><trkpt lat="42.6774483" lon="-8.9879383"><ele>330.2</ele><time>2026-04-17T08:38:08.876Z</time></trkpt><trkpt lat="42.6774933" lon="-8.987775"><ele>330.4</ele><time>2026-04-17T08:38:09.875Z</time></trkpt><trkpt lat="42.6775367" lon="-8.9876533"><ele>330.6</ele><time>2026-04-17T08:38:10.875Z</time></trkpt><trkpt lat="42.6775517" lon="-8.987555"><ele>330.8</ele><time>2026-04-17T08:38:11.877Z</time></trkpt><trkpt lat="42.6775367" lon="-8.9874433"><ele>331.0</ele><time>2026-04-17T08:38:14.877Z</time></trkpt><trkpt lat="42.6774067" lon="-8.98752"><ele>331.0</ele><time>2026-04-17T08:38:16.877Z</time></trkpt><trkpt lat="42.67729" lon="-8.9876367"><ele>331.0</ele><time>2026-04-17T08:38:17.876Z</time></trkpt><trkpt lat="42.6771867" lon="-8.9877933"><ele>331.0</ele><time>2026-04-17T08:38:18.876Z</time></trkpt><trkpt lat="42.677075" lon="-8.9879683"><ele>331.0</ele><time>2026-04-17T08:38:19.876Z</time></trkpt><trkpt lat="42.676975" lon="-8.9881"><ele>331.0</ele><time>2026-04-17T08:38:20.876Z</time></trkpt><trkpt lat="42.6768833" lon="-8.9882083"><ele>331.0</ele><time>2026-04-17T08:38:21.877Z</time></trkpt><trkpt lat="42.6767883" lon="-8.9882833"><ele>331.0</ele><time>2026-04-17T08:38:22.876Z</time></trkpt><trkpt lat="42.67667" lon="-8.9883383"><ele>329.6</ele><time>2026-04-17T08:38:23.876Z</time></trkpt><trkpt lat="42.6765583" lon="-8.98836"><ele>328.20000000000005</ele><time>2026-04-17T08:38:24.876Z</time></trkpt><trkpt lat="42.6764367" lon="-8.988375"><ele>326.79999999999995</ele><time>2026-04-17T08:38:25.876Z</time></trkpt><trkpt lat="42.6763333" lon="-8.9883683"><ele>325.4</ele><time>2026-04-17T08:38:26.876Z</time></trkpt><trkpt lat="42.6762367" lon="-8.98834"><ele>324.0</ele><time>2026-04-17T08:38:27.876Z</time></trkpt><trkpt lat="42.67614" lon="-8.988295"><ele>321.5</ele><time>2026-04-17T08:38:28.876Z</time></trkpt><trkpt lat="42.6760517" lon="-8.988215"><ele>319.0</ele><time>2026-04-17T08:38:29.877Z</time></trkpt><trkpt lat="42.675955" lon="-8.9881183"><ele>316.5</ele><time>2026-04-17T08:38:30.877Z</time></trkpt><trkpt lat="42.6758567" lon="-8.9880267"><ele>314.0</ele><time>2026-04-17T08:38:31.876Z</time></trkpt><trkpt lat="42.6757533" lon="-8.987945"><ele>314.0</ele><time>2026-04-17T08:38:32.877Z</time></trkpt><trkpt lat="42.6756617" lon="-8.98787"><ele>314.0</ele><time>2026-04-17T08:38:33.877Z</time></trkpt><trkpt lat="42.6755683" lon="-8.9878117"><ele>314.0</ele><time>2026-04-17T08:38:34.877Z</time></trkpt><trkpt lat="42.6754883" lon="-8.987755"><ele>314.0</ele><time>2026-04-17T08:38:35.876Z</time></trkpt><trkpt lat="42.6754233" lon="-8.987695"><ele>314.0</ele><time>2026-04-17T08:38:36.877Z</time></trkpt><trkpt lat="42.67538" lon="-8.987615"><ele>314.0</ele><time>2026-04-17T08:38:37.877Z</time></trkpt><trkpt lat="42.6753567" lon="-8.987525"><ele>314.0</ele><time>2026-04-17T08:38:38.876Z</time></trkpt><trkpt lat="42.6753667" lon="-8.9874233"><ele>314.0</ele><time>2026-04-17T08:38:39.876Z</time></trkpt><trkpt lat="42.6754167" lon="-8.9873117"><ele>314.0</ele><time>2026-04-17T08:38:40.877Z</time></trkpt><trkpt lat="42.67547" lon="-8.987215"><ele>314.0</ele><time>2026-04-17T08:38:41.876Z</time></trkpt><trkpt lat="42.67556" lon="-8.9871183"><ele>314.0</ele><time>2026-04-17T08:38:42.876Z</time></trkpt><trkpt lat="42.6756883" lon="-8.9870333"><ele>314.5</ele><time>2026-04-17T08:38:43.877Z</time></trkpt><trkpt lat="42.675825" lon="-8.9869567"><ele>315.0</ele><time>2026-04-17T08:38:44.877Z</time></trkpt><trkpt lat="42.67594" lon="-8.986885"><ele>315.5</ele><time>2026-04-17T08:38:45.877Z</time></trkpt><trkpt lat="42.6760517" lon="-8.9868183"><ele>316.0</ele><time>2026-04-17T08:38:46.876Z</time></trkpt><trkpt lat="42.67615" lon="-8.9867417"><ele>316.40000000000003</ele><time>2026-04-17T08:38:47.876Z</time></trkpt><trkpt lat="42.676235" lon="-8.9866567"><ele>316.8</ele><time>2026-04-17T08:38:48.876Z</time></trkpt><trkpt lat="42.6763167" lon="-8.986575"><ele>317.20000000000005</ele><time>2026-04-17T08:38:49.876Z</time></trkpt><trkpt lat="42.6763867" lon="-8.9864883"><ele>317.6</ele><time>2026-04-17T08:38:50.876Z</time></trkpt><trkpt lat="42.67646" lon="-8.98639"><ele>318.0</ele><time>2026-04-17T08:38:51.876Z</time></trkpt><trkpt lat="42.6765233" lon="-8.9863"><ele>318.0</ele><time>2026-04-17T08:38:52.876Z</time></trkpt><trkpt lat="42.6765783" lon="-8.9861917"><ele>318.0</ele><time>2026-04-17T08:38:53.876Z</time></trkpt><trkpt lat="42.6766267" lon="-8.9860567"><ele>318.0</ele><time>2026-04-17T08:38:54.877Z</time></trkpt><trkpt lat="42.6766867" lon="-8.9859033"><ele>318.0</ele><time>2026-04-17T08:38:55.876Z</time></trkpt><trkpt lat="42.6767633" lon="-8.9857467"><ele>319.5</ele><time>2026-04-17T08:38:56.876Z</time></trkpt><trkpt lat="42.676835" lon="-8.985595"><ele>321.0</ele><time>2026-04-17T08:38:57.877Z</time></trkpt><trkpt lat="42.6769017" lon="-8.9854617"><ele>322.5</ele><time>2026-04-17T08:38:58.876Z</time></trkpt><trkpt lat="42.67697" lon="-8.9853333"><ele>324.0</ele><time>2026-04-17T08:38:59.876Z</time></trkpt><trkpt lat="42.677025" lon="-8.9852067"><ele>324.0</ele><time>2026-04-17T08:39:00.876Z</time></trkpt><trkpt lat="42.6770767" lon="-8.985065"><ele>324.0</ele><time>2026-04-17T08:39:01.876Z</time></trkpt><trkpt lat="42.6771317" lon="-8.9849317"><ele>324.0</ele><time>2026-04-17T08:39:02.877Z</time></trkpt><trkpt lat="42.6771767" lon="-8.984795"><ele>324.0</ele><time>2026-04-17T08:39:03.877Z</time></trkpt><trkpt lat="42.67722" lon="-8.98465"><ele>320.75</ele><time>2026-04-17T08:39:04.877Z</time></trkpt><trkpt lat="42.6772633" lon="-8.9845033"><ele>317.5</ele><time>2026-04-17T08:39:05.876Z</time></trkpt><trkpt lat="42.6773067" lon="-8.9843583"><ele>314.25</ele><time>2026-04-17T08:39:06.877Z</time></trkpt><trkpt lat="42.6773633" lon="-8.9842017"><ele>311.0</ele><time>2026-04-17T08:39:07.877Z</time></trkpt><trkpt lat="42.6774283" lon="-8.9840667"><ele>308.25</ele><time>2026-04-17T08:39:08.876Z</time></trkpt><trkpt lat="42.6775017" lon="-8.9839483"><ele>305.5</ele><time>2026-04-17T08:39:09.876Z</time></trkpt><trkpt lat="42.6775883" lon="-8.983855"><ele>302.75</ele><time>2026-04-17T08:39:10.876Z</time></trkpt><trkpt lat="42.6776833" lon="-8.9837733"><ele>300.0</ele><time>2026-04-17T08:39:11.877Z</time></trkpt><trkpt lat="42.6777867" lon="-8.9837083"><ele>300.0</ele><time>2026-04-17T08:39:12.877Z</time></trkpt><trkpt lat="42.6779" lon="-8.9836733"><ele>300.0</ele><time>2026-04-17T08:39:13.876Z</time></trkpt><trkpt lat="42.6780283" lon="-8.9836617"><ele>300.0</ele><time>2026-04-17T08:39:14.876Z</time></trkpt><trkpt lat="42.678145" lon="-8.9836633"><ele>300.0</ele><time>2026-04-17T08:39:15.877Z</time></trkpt><trkpt lat="42.67826" lon="-8.983665"><ele>300.0</ele><time>2026-04-17T08:39:16.877Z</time></trkpt><trkpt lat="42.6783767" lon="-8.983675"><ele>300.0</ele><time>2026-04-17T08:39:17.876Z</time></trkpt><trkpt lat="42.6784867" lon="-8.9836883"><ele>300.0</ele><time>2026-04-17T08:39:18.877Z</time></trkpt><trkpt lat="42.6785867" lon="-8.9837167"><ele>300.0</ele><time>2026-04-17T08:39:19.877Z</time></trkpt><trkpt lat="42.6786783" lon="-8.9837517"><ele>300.0</ele><time>2026-04-17T08:39:20.877Z</time></trkpt><trkpt lat="42.6787583" lon="-8.983785"><ele>318.0</ele><time>2026-04-17T08:39:21.877Z</time></trkpt><trkpt lat="42.67646" lon="-8.98639"><ele>318.0</ele><time>2026-04-17T08:38:51.876Z</time></trkpt><trkpt lat="42.6765233" lon="-8.9863"><ele>318.0</ele><time>2026-04-17T08:38:52.876Z</time></trkpt><trkpt lat="42.6765783" lon="-8.9861917"><ele>318.0</ele><time>2026-04-17T08:38:53.876Z</time></trkpt><trkpt lat="42.6766267" lon="-8.9860567"><ele>318.0</ele><time>2026-04-17T08:38:54.877Z</time></trkpt><trkpt lat="42.6766867" lon="-8.9859033"><ele>318.0</ele><time>2026-04-17T08:38:55.876Z</time></trkpt><trkpt lat="42.6767633" lon="-8.9857467"><ele>319.5</ele><time>2026-04-17T08:38:56.876Z</time></trkpt><trkpt lat="42.676835" lon="-8.985595"><ele>321.0</ele><time>2026-04-17T08:38:57.877Z</time></trkpt><trkpt lat="42.6769017" lon="-8.9854617"><ele>322.5</ele><time>2026-04-17T08:38:58.876Z</time></trkpt><trkpt lat="42.67697" lon="-8.9853333"><ele>324.0</ele><time>2026-04-17T08:38:59.876Z</time></trkpt><trkpt lat="42.677025" lon="-8.9852067"><ele>324.0</ele><time>2026-04-17T08:39:00.876Z</time></trkpt><trkpt lat="42.6770767" lon="-8.985065"><ele>324.0</ele><time>2026-04-17T08:39:01.876Z</time></trkpt><trkpt lat="42.6771317" lon="-8.9849317"><ele>324.0</ele><time>2026-04-17T08:39:02.877Z</time></trkpt><trkpt lat="42.6771767" lon="-8.984795"><ele>324.0</ele><time>2026-04-17T08:39:03.877Z</time></trkpt><trkpt lat="42.67722" lon="-8.98465"><ele>320.75</ele><time>2026-04-17T08:39:04.877Z</time></trkpt><trkpt lat="42.6772633" lon="-8.9845033"><ele>317.5</ele><time>2026-04-17T08:39:05.876Z</time></trkpt><trkpt lat="42.6773067" lon="-8.9843583"><ele>314.25</ele><time>2026-04-17T08:39:06.877Z</time></trkpt><trkpt lat="42.6773633" lon="-8.9842017"><ele>311.0</ele><time>2026-04-17T08:39:07.877Z</time></trkpt><trkpt lat="42.6774283" lon="-8.9840667"><ele>308.25</ele><time>2026-04-17T08:39:08.876Z</time></trkpt><trkpt lat="42.6775017" lon="-8.9839483"><ele>305.5</ele><time>2026-04-17T08:39:09.876Z</time></trkpt><trkpt lat="42.6775883" lon="-8.983855"><ele>302.75</ele><time>2026-04-17T08:39:10.876Z</time></trkpt><trkpt lat="42.6776833" lon="-8.9837733"><ele>300.0</ele><time>2026-04-17T08:39:11.877Z</time></trkpt><trkpt lat="42.6777867" lon="-8.9837083"><ele>300.0</ele><time>2026-04-17T08:39:12.877Z</time></trkpt><trkpt lat="42.6779" lon="-8.9836733"><ele>300.0</ele><time>2026-04-17T08:39:13.876Z</time></trkpt><trkpt lat="42.6780283" lon="-8.9836617"><ele>300.0</ele><time>2026-04-17T08:39:14.876Z</time></trkpt><trkpt lat="42.678145" lon="-8.9836633"><ele>300.0</ele><time>2026-04-17T08:39:15.877Z</time></trkpt><trkpt lat="42.67826" lon="-8.983665"><ele>300.0</ele><time>2026-04-17T08:39:16.877Z</time></trkpt><trkpt lat="42.6783767" lon="-8.983675"><ele>300.0</ele><time>2026-04-17T08:39:17.876Z</time></trkpt><trkpt lat="42.6784867" lon="-8.9836883"><ele>300.0</ele><time>2026-04-17T08:39:18.877Z</time></trkpt><trkpt lat="42.6785867" lon="-8.9837167"><ele>300.0</ele><time>2026-04-17T08:39:19.877Z</time></trkpt><trkpt lat="42.6786783" lon="-8.9837517"><ele>300.0</ele><time>2026-04-17T08:39:20.877Z</time></trkpt><trkpt lat="42.6787583" lon="-8.983785"><ele>300.0</ele><time>2026-04-17T08:39:21.877Z</time></trkpt><trkpt lat="42.6788533" lon="-8.9838267"><ele>300.0</ele><time>2026-04-17T08:39:23.877Z</time></trkpt><trkpt lat="42.6787667" lon="-8.9838867"><ele>300.0</ele><time>2026-04-17T08:39:27.877Z</time></trkpt><trkpt lat="42.6786717" lon="-8.98388"><ele>300.0</ele><time>2026-04-17T08:39:28.876Z</time></trkpt><trkpt lat="42.6785533" lon="-8.9838317"><ele>300.0</ele><time>2026-04-17T08:39:30.877Z</time></trkpt><trkpt lat="42.6784133" lon="-8.983755"><ele>300.0</ele><time>2026-04-17T08:39:31.877Z</time></trkpt><trkpt lat="42.678235" lon="-8.9836517"><ele>300.0</ele><time>2026-04-17T08:39:32.876Z</time></trkpt><trkpt lat="42.6780633" lon="-8.9835217"><ele>300.0</ele><time>2026-04-17T08:39:33.876Z</time></trkpt><trkpt lat="42.6778967" lon="-8.9834033"><ele>294.75</ele><time>2026-04-17T08:39:34.877Z</time></trkpt><trkpt lat="42.6777767" lon="-8.98333"><ele>289.5</ele><time>2026-04-17T08:39:35.877Z</time></trkpt><trkpt lat="42.6776683" lon="-8.9832633"><ele>284.25</ele><time>2026-04-17T08:39:36.877Z</time></trkpt><trkpt lat="42.677565" lon="-8.983175"><ele>279.0</ele><time>2026-04-17T08:39:37.876Z</time></trkpt><trkpt lat="42.6774717" lon="-8.98306"><ele>279.0</ele><time>2026-04-17T08:39:38.876Z</time></trkpt><trkpt lat="42.6773517" lon="-8.9829183"><ele>279.0</ele><time>2026-04-17T08:39:39.877Z</time></trkpt><trkpt lat="42.67729" lon="-8.9827917"><ele>279.0</ele><time>2026-04-17T08:39:40.876Z</time></trkpt><trkpt lat="42.6772583" lon="-8.9826617"><ele>279.0</ele><time>2026-04-17T08:39:41.877Z</time></trkpt><trkpt lat="42.677225" lon="-8.9825333"><ele>275.4</ele><time>2026-04-17T08:39:42.877Z</time></trkpt><trkpt lat="42.6772033" lon="-8.9823883"><ele>271.79999999999995</ele><time>2026-04-17T08:39:43.876Z</time></trkpt><trkpt lat="42.6771717" lon="-8.9822433"><ele>268.20000000000005</ele><time>2026-04-17T08:39:44.876Z</time></trkpt><trkpt lat="42.6771217" lon="-8.9820983"><ele>264.6</ele><time>2026-04-17T08:39:45.876Z</time></trkpt><trkpt lat="42.677075" lon="-8.981995"><ele>261.0</ele><time>2026-04-17T08:39:46.877Z</time></trkpt><trkpt lat="42.6770033" lon="-8.9819233"><ele>260.6</ele><time>2026-04-17T08:39:47.876Z</time></trkpt><trkpt lat="42.6769217" lon="-8.9818517"><ele>260.20000000000005</ele><time>2026-04-17T08:39:48.877Z</time></trkpt><trkpt lat="42.6768333" lon="-8.9817933"><ele>259.79999999999995</ele><time>2026-04-17T08:39:49.876Z</time></trkpt><trkpt lat="42.6767183" lon="-8.98172"><ele>259.4</ele><time>2026-04-17T08:39:50.876Z</time></trkpt><trkpt lat="42.6766217" lon="-8.98166"><ele>259.0</ele><time>2026-04-17T08:39:51.877Z</time></trkpt><trkpt lat="42.67653" lon="-8.98161"><ele>259.0</ele><time>2026-04-17T08:39:52.877Z</time></trkpt><trkpt lat="42.6764083" lon="-8.9815717"><ele>259.0</ele><time>2026-04-17T08:39:53.876Z</time></trkpt><trkpt lat="42.6763067" lon="-8.9815617"><ele>259.0</ele><time>2026-04-17T08:39:54.876Z</time></trkpt><trkpt lat="42.6762017" lon="-8.9816"><ele>259.0</ele><time>2026-04-17T08:39:55.876Z</time></trkpt><trkpt lat="42.6760767" lon="-8.9816717"><ele>256.8</ele><time>2026-04-17T08:39:56.877Z</time></trkpt><trkpt lat="42.6759733" lon="-8.9817517"><ele>254.59999999999997</ele><time>2026-04-17T08:39:57.876Z</time></trkpt><trkpt lat="42.6758883" lon="-8.9818483"><ele>252.4</ele><time>2026-04-17T08:39:58.877Z</time></trkpt><trkpt lat="42.6758133" lon="-8.9819233"><ele>250.2</ele><time>2026-04-17T08:39:59.876Z</time></trkpt><trkpt lat="42.67577" lon="-8.982065"><ele>248.0</ele><time>2026-04-17T08:40:00.876Z</time></trkpt><trkpt lat="42.6757333" lon="-8.9822133"><ele>248.0</ele><time>2026-04-17T08:40:01.876Z</time></trkpt><trkpt lat="42.6757117" lon="-8.9823767"><ele>248.0</ele><time>2026-04-17T08:40:02.876Z</time></trkpt><trkpt lat="42.67573" lon="-8.98256"><ele>248.0</ele><time>2026-04-17T08:40:03.876Z</time></trkpt><trkpt lat="42.6757733" lon="-8.9827167"><ele>248.0</ele><time>2026-04-17T08:40:04.876Z</time></trkpt><trkpt lat="42.67587" lon="-8.982885"><ele>246.8</ele><time>2026-04-17T08:40:05.877Z</time></trkpt><trkpt lat="42.675915" lon="-8.9830317"><ele>245.60000000000002</ele><time>2026-04-17T08:40:06.877Z</time></trkpt><trkpt lat="42.67596" lon="-8.9831767"><ele>244.39999999999998</ele><time>2026-04-17T08:40:07.876Z</time></trkpt><trkpt lat="42.67598" lon="-8.983305"><ele>243.2</ele><time>2026-04-17T08:40:08.877Z</time></trkpt><trkpt lat="42.6759933" lon="-8.983435"><ele>242.0</ele><time>2026-04-17T08:40:09.876Z</time></trkpt><trkpt lat="42.6760033" lon="-8.9835833"><ele>241.2</ele><time>2026-04-17T08:40:10.876Z</time></trkpt><trkpt lat="42.6760017" lon="-8.9837283"><ele>240.39999999999998</ele><time>2026-04-17T08:40:11.876Z</time></trkpt><trkpt lat="42.6759983" lon="-8.9838583"><ele>239.60000000000002</ele><time>2026-04-17T08:40:12.876Z</time></trkpt><trkpt lat="42.6759933" lon="-8.9839917"><ele>238.8</ele><time>2026-04-17T08:40:13.876Z</time></trkpt><trkpt lat="42.6759717" lon="-8.9841017"><ele>238.0</ele><time>2026-04-17T08:40:14.877Z</time></trkpt><trkpt lat="42.6759333" lon="-8.984205"><ele>241.0</ele><time>2026-04-17T08:40:15.876Z</time></trkpt><trkpt lat="42.6758833" lon="-8.984315"><ele>244.0</ele><time>2026-04-17T08:40:16.877Z</time></trkpt><trkpt lat="42.6758217" lon="-8.98443"><ele>247.0</ele><time>2026-04-17T08:40:17.876Z</time></trkpt><trkpt lat="42.6757717" lon="-8.9845367"><ele>250.0</ele><time>2026-04-17T08:40:18.877Z</time></trkpt><trkpt lat="42.67572" lon="-8.98465"><ele>253.0</ele><time>2026-04-17T08:40:19.877Z</time></trkpt><trkpt lat="42.6756717" lon="-8.9847617"><ele>253.0</ele><time>2026-04-17T08:40:20.876Z</time></trkpt><trkpt lat="42.6756183" lon="-8.984865"><ele>253.0</ele><time>2026-04-17T08:40:21.876Z</time></trkpt><trkpt lat="42.6755617" lon="-8.9849467"><ele>253.0</ele><time>2026-04-17T08:40:22.877Z</time></trkpt><trkpt lat="42.6754933" lon="-8.985045"><ele>253.0</ele><time>2026-04-17T08:40:23.877Z</time></trkpt><trkpt lat="42.6754183" lon="-8.9851767"><ele>253.0</ele><time>2026-04-17T08:40:24.876Z</time></trkpt><trkpt lat="42.6753433" lon="-8.9853083"><ele>252.25</ele><time>2026-04-17T08:40:25.876Z</time></trkpt><trkpt lat="42.675245" lon="-8.9853967"><ele>251.5</ele><time>2026-04-17T08:40:26.877Z</time></trkpt><trkpt lat="42.67512" lon="-8.9854717"><ele>250.75</ele><time>2026-04-17T08:40:27.876Z</time></trkpt><trkpt lat="42.6749967" lon="-8.9855533"><ele>250.0</ele><time>2026-04-17T08:40:28.877Z</time></trkpt><trkpt lat="42.6748883" lon="-8.9856067"><ele>250.0</ele><time>2026-04-17T08:40:29.876Z</time></trkpt><trkpt lat="42.6747733" lon="-8.9856467"><ele>250.0</ele><time>2026-04-17T08:40:30.876Z</time></trkpt><trkpt lat="42.6746567" lon="-8.98568"><ele>250.0</ele><time>2026-04-17T08:40:31.876Z</time></trkpt><trkpt lat="42.674545" lon="-8.9856867"><ele>250.0</ele><time>2026-04-17T08:40:32.876Z</time></trkpt><trkpt lat="42.6744333" lon="-8.9857"><ele>247.2</ele><time>2026-04-17T08:40:33.877Z</time></trkpt><trkpt lat="42.6743217" lon="-8.985705"><ele>244.4</ele><time>2026-04-17T08:40:34.876Z</time></trkpt><trkpt lat="42.6742217" lon="-8.9856833"><ele>241.60000000000002</ele><time>2026-04-17T08:40:35.877Z</time></trkpt><trkpt lat="42.6741167" lon="-8.985665"><ele>238.8</ele><time>2026-04-17T08:40:36.876Z</time></trkpt><trkpt lat="42.674015" lon="-8.985625"><ele>236.0</ele><time>2026-04-17T08:40:37.877Z</time></trkpt><trkpt lat="42.67392" lon="-8.98558"><ele>236.0</ele><time>2026-04-17T08:40:38.876Z</time></trkpt><trkpt lat="42.673815" lon="-8.9855183"><ele>236.00000000000003</ele><time>2026-04-17T08:40:39.877Z</time></trkpt><trkpt lat="42.6737133" lon="-8.98548"><ele>236.00000000000003</ele><time>2026-04-17T08:40:40.876Z</time></trkpt><trkpt lat="42.6736117" lon="-8.9854433"><ele>236.0</ele><time>2026-04-17T08:40:41.876Z</time></trkpt><trkpt lat="42.6735183" lon="-8.9854317"><ele>236.0</ele><time>2026-04-17T08:40:42.877Z</time></trkpt><trkpt lat="42.673415" lon="-8.9854183"><ele>234.60000000000002</ele><time>2026-04-17T08:40:43.876Z</time></trkpt><trkpt lat="42.6733067" lon="-8.9854267"><ele>233.20000000000002</ele><time>2026-04-17T08:40:44.876Z</time></trkpt><trkpt lat="42.6731983" lon="-8.9854483"><ele>231.79999999999998</ele><time>2026-04-17T08:40:45.876Z</time></trkpt><trkpt lat="42.673095" lon="-8.9854717"><ele>230.39999999999998</ele><time>2026-04-17T08:40:46.877Z</time></trkpt><trkpt lat="42.6729833" lon="-8.9855033"><ele>229.0</ele><time>2026-04-17T08:40:47.876Z</time></trkpt><trkpt lat="42.6728717" lon="-8.98554"><ele>253.0</ele><time>2026-04-17T08:40:48.876Z</time></trkpt><trkpt lat="42.6757717" lon="-8.9845367"><ele>253.0</ele><time>2026-04-17T08:40:18.877Z</time></trkpt><trkpt lat="42.67572" lon="-8.98465"><ele>253.0</ele><time>2026-04-17T08:40:19.877Z</time></trkpt><trkpt lat="42.6756717" lon="-8.9847617"><ele>253.0</ele><time>2026-04-17T08:40:20.876Z</time></trkpt><trkpt lat="42.6756183" lon="-8.984865"><ele>253.0</ele><time>2026-04-17T08:40:21.876Z</time></trkpt><trkpt lat="42.6755617" lon="-8.9849467"><ele>253.0</ele><time>2026-04-17T08:40:22.877Z</time></trkpt><trkpt lat="42.6754933" lon="-8.985045"><ele>252.25</ele><time>2026-04-17T08:40:23.877Z</time></trkpt><trkpt lat="42.6754183" lon="-8.9851767"><ele>251.5</ele><time>2026-04-17T08:40:24.876Z</time></trkpt><trkpt lat="42.6753433" lon="-8.9853083"><ele>250.75</ele><time>2026-04-17T08:40:25.876Z</time></trkpt><trkpt lat="42.675245" lon="-8.9853967"><ele>250.0</ele><time>2026-04-17T08:40:26.877Z</time></trkpt><trkpt lat="42.67512" lon="-8.9854717"><ele>250.0</ele><time>2026-04-17T08:40:27.876Z</time></trkpt><trkpt lat="42.6749967" lon="-8.9855533"><ele>250.0</ele><time>2026-04-17T08:40:28.877Z</time></trkpt><trkpt lat="42.6748883" lon="-8.9856067"><ele>250.0</ele><time>2026-04-17T08:40:29.876Z</time></trkpt><trkpt lat="42.6747733" lon="-8.9856467"><ele>250.0</ele><time>2026-04-17T08:40:30.876Z</time></trkpt><trkpt lat="42.6746567" lon="-8.98568"><ele>250.0</ele><time>2026-04-17T08:40:31.876Z</time></trkpt><trkpt lat="42.674545" lon="-8.9856867"><ele>250.0</ele><time>2026-04-17T08:40:32.876Z</time></trkpt><trkpt lat="42.6744333" lon="-8.9857"><ele>250.0</ele><time>2026-04-17T08:40:33.877Z</time></trkpt><trkpt lat="42.6743217" lon="-8.985705"><ele>250.0</ele><time>2026-04-17T08:40:34.876Z</time></trkpt><trkpt lat="42.6742217" lon="-8.9856833"><ele>250.0</ele><time>2026-04-17T08:40:35.877Z</time></trkpt><trkpt lat="42.6741167" lon="-8.985665"><ele>247.2</ele><time>2026-04-17T08:40:36.876Z</time></trkpt><trkpt lat="42.674015" lon="-8.985625"><ele>244.4</ele><time>2026-04-17T08:40:37.877Z</time></trkpt><trkpt lat="42.67392" lon="-8.98558"><ele>241.60000000000002</ele><time>2026-04-17T08:40:38.876Z</time></trkpt><trkpt lat="42.673815" lon="-8.9855183"><ele>238.8</ele><time>2026-04-17T08:40:39.877Z</time></trkpt><trkpt lat="42.6737133" lon="-8.98548"><ele>236.0</ele><time>2026-04-17T08:40:40.876Z</time></trkpt><trkpt lat="42.6736117" lon="-8.9854433"><ele>234.60000000000002</ele><time>2026-04-17T08:40:41.876Z</time></trkpt><trkpt lat="42.6735183" lon="-8.9854317"><ele>233.20000000000002</ele><time>2026-04-17T08:40:42.877Z</time></trkpt><trkpt lat="42.673415" lon="-8.9854183"><ele>231.79999999999998</ele><time>2026-04-17T08:40:43.876Z</time></trkpt><trkpt lat="42.6733067" lon="-8.9854267"><ele>230.39999999999998</ele><time>2026-04-17T08:40:44.876Z</time></trkpt><trkpt lat="42.6731983" lon="-8.9854483"><ele>229.0</ele><time>2026-04-17T08:40:45.876Z</time></trkpt><trkpt lat="42.673095" lon="-8.9854717"><ele>229.0</ele><time>2026-04-17T08:40:46.877Z</time></trkpt><trkpt lat="42.6729833" lon="-8.9855033"><ele>229.0</ele><time>2026-04-17T08:40:47.876Z</time></trkpt><trkpt lat="42.6728717" lon="-8.98554"><ele>229.0</ele><time>2026-04-17T08:40:48.876Z</time></trkpt><trkpt lat="42.6727367" lon="-8.98557"><ele>229.0</ele><time>2026-04-17T08:40:49.876Z</time></trkpt><trkpt lat="42.67262" lon="-8.9855967"><ele>226.75</ele><time>2026-04-17T08:40:50.877Z</time></trkpt><trkpt lat="42.6724933" lon="-8.9856183"><ele>224.5</ele><time>2026-04-17T08:40:51.877Z</time></trkpt><trkpt lat="42.672345" lon="-8.985625"><ele>222.25</ele><time>2026-04-17T08:40:52.877Z</time></trkpt><trkpt lat="42.6722233" lon="-8.9856383"><ele>220.0</ele><time>2026-04-17T08:40:53.876Z</time></trkpt><trkpt lat="42.6721" lon="-8.9856567"><ele>220.0</ele><time>2026-04-17T08:40:54.876Z</time></trkpt><trkpt lat="42.6719833" lon="-8.9856717"><ele>220.0</ele><time>2026-04-17T08:40:55.876Z</time></trkpt><trkpt lat="42.671865" lon="-8.9856733"><ele>220.0</ele><time>2026-04-17T08:40:56.876Z</time></trkpt><trkpt lat="42.6717483" lon="-8.9856867"><ele>220.0</ele><time>2026-04-17T08:40:57.877Z</time></trkpt><trkpt lat="42.6716367" lon="-8.9857067"><ele>220.4</ele><time>2026-04-17T08:40:58.876Z</time></trkpt><trkpt lat="42.6715267" lon="-8.9857367"><ele>220.8</ele><time>2026-04-17T08:40:59.876Z</time></trkpt><trkpt lat="42.6714233" lon="-8.9857733"><ele>221.2</ele><time>2026-04-17T08:41:00.877Z</time></trkpt><trkpt lat="42.6713217" lon="-8.9857933"><ele>221.6</ele><time>2026-04-17T08:41:01.876Z</time></trkpt><trkpt lat="42.671235" lon="-8.9858233"><ele>222.0</ele><time>2026-04-17T08:41:02.876Z</time></trkpt><trkpt lat="42.6711267" lon="-8.9858467"><ele>214.75</ele><time>2026-04-17T08:41:03.876Z</time></trkpt><trkpt lat="42.6710267" lon="-8.9858883"><ele>207.5</ele><time>2026-04-17T08:41:04.877Z</time></trkpt><trkpt lat="42.670925" lon="-8.9859583"><ele>200.25</ele><time>2026-04-17T08:41:05.877Z</time></trkpt><trkpt lat="42.6708517" lon="-8.9860583"><ele>193.0</ele><time>2026-04-17T08:41:06.876Z</time></trkpt><trkpt lat="42.6708233" lon="-8.9862283"><ele>193.0</ele><time>2026-04-17T08:41:07.877Z</time></trkpt><trkpt lat="42.6708083" lon="-8.9863983"><ele>193.0</ele><time>2026-04-17T08:41:08.876Z</time></trkpt><trkpt lat="42.6707933" lon="-8.9865483"><ele>193.0</ele><time>2026-04-17T08:41:09.876Z</time></trkpt><trkpt lat="42.6707817" lon="-8.9866933"><ele>193.0</ele><time>2026-04-17T08:41:10.876Z</time></trkpt><trkpt lat="42.67078" lon="-8.986875"><ele>196.2</ele><time>2026-04-17T08:41:11.876Z</time></trkpt><trkpt lat="42.6707133" lon="-8.9869917"><ele>199.4</ele><time>2026-04-17T08:41:12.877Z</time></trkpt><trkpt lat="42.6706467" lon="-8.987075"><ele>202.6</ele><time>2026-04-17T08:41:13.876Z</time></trkpt><trkpt lat="42.6705767" lon="-8.9871383"><ele>205.79999999999998</ele><time>2026-04-17T08:41:14.877Z</time></trkpt><trkpt lat="42.6704917" lon="-8.98717"><ele>209.0</ele><time>2026-04-17T08:41:15.877Z</time></trkpt><trkpt lat="42.670415" lon="-8.9871917"><ele>209.0</ele><time>2026-04-17T08:41:16.877Z</time></trkpt><trkpt lat="42.6703317" lon="-8.9871867"><ele>209.0</ele><time>2026-04-17T08:41:17.876Z</time></trkpt><trkpt lat="42.6702583" lon="-8.987095"><ele>209.0</ele><time>2026-04-17T08:41:18.877Z</time></trkpt><trkpt lat="42.6701933" lon="-8.9869417"><ele>209.0</ele><time>2026-04-17T08:41:19.876Z</time></trkpt><trkpt lat="42.6701383" lon="-8.98673"><ele>206.79999999999998</ele><time>2026-04-17T08:41:20.876Z</time></trkpt><trkpt lat="42.6700933" lon="-8.9865267"><ele>204.6</ele><time>2026-04-17T08:41:21.877Z</time></trkpt><trkpt lat="42.6700383" lon="-8.9863983"><ele>202.4</ele><time>2026-04-17T08:41:22.877Z</time></trkpt><trkpt lat="42.6699833" lon="-8.98629"><ele>200.2</ele><time>2026-04-17T08:41:23.876Z</time></trkpt><trkpt lat="42.6699283" lon="-8.9862217"><ele>198.0</ele><time>2026-04-17T08:41:24.877Z</time></trkpt><trkpt lat="42.6698567" lon="-8.98616"><ele>198.0</ele><time>2026-04-17T08:41:25.876Z</time></trkpt><trkpt lat="42.66979" lon="-8.98607"><ele>198.0</ele><time>2026-04-17T08:41:26.877Z</time></trkpt><trkpt lat="42.6697083" lon="-8.9859833"><ele>198.0</ele><time>2026-04-17T08:41:27.876Z</time></trkpt><trkpt lat="42.6696067" lon="-8.9859133"><ele>198.0</ele><time>2026-04-17T08:41:28.876Z</time></trkpt><trkpt lat="42.6695" lon="-8.9858667"><ele>198.0</ele><time>2026-04-17T08:41:29.877Z</time></trkpt><trkpt lat="42.6693967" lon="-8.9858367"><ele>195.8</ele><time>2026-04-17T08:41:30.876Z</time></trkpt><trkpt lat="42.6693133" lon="-8.9858433"><ele>193.60000000000002</ele><time>2026-04-17T08:41:31.876Z</time></trkpt><trkpt lat="42.66921" lon="-8.9858617"><ele>191.39999999999998</ele><time>2026-04-17T08:41:32.877Z</time></trkpt><trkpt lat="42.6691233" lon="-8.9859317"><ele>189.2</ele><time>2026-04-17T08:41:33.876Z</time></trkpt><trkpt lat="42.669045" lon="-8.9860267"><ele>187.0</ele><time>2026-04-17T08:41:34.877Z</time></trkpt><trkpt lat="42.6689683" lon="-8.9861417"><ele>187.0</ele><time>2026-04-17T08:41:35.876Z</time></trkpt><trkpt lat="42.66889" lon="-8.986255"><ele>187.0</ele><time>2026-04-17T08:41:36.876Z</time></trkpt><trkpt lat="42.668815" lon="-8.9863483"><ele>187.0</ele><time>2026-04-17T08:41:37.876Z</time></trkpt><trkpt lat="42.6687433" lon="-8.9864383"><ele>187.0</ele><time>2026-04-17T08:41:38.877Z</time></trkpt><trkpt lat="42.6686533" lon="-8.9864967"><ele>187.0</ele><time>2026-04-17T08:41:39.877Z</time></trkpt><trkpt lat="42.6685517" lon="-8.986535"><ele>186.39999999999998</ele><time>2026-04-17T08:41:40.876Z</time></trkpt><trkpt lat="42.6684517" lon="-8.9865967"><ele>185.79999999999998</ele><time>2026-04-17T08:41:41.876Z</time></trkpt><trkpt lat="42.6683633" lon="-8.98667"><ele>185.2</ele><time>2026-04-17T08:41:42.877Z</time></trkpt><trkpt lat="42.6682667" lon="-8.9867433"><ele>184.6</ele><time>2026-04-17T08:41:43.876Z</time></trkpt><trkpt lat="42.6681567" lon="-8.98682"><ele>184.0</ele><time>2026-04-17T08:41:44.877Z</time></trkpt><trkpt lat="42.6680667" lon="-8.98688"><ele>184.0</ele><time>2026-04-17T08:41:45.877Z</time></trkpt><trkpt lat="42.6679617" lon="-8.986945"><ele>184.0</ele><time>2026-04-17T08:41:46.876Z</time></trkpt><trkpt lat="42.667855" lon="-8.986975"><ele>184.0</ele><time>2026-04-17T08:41:47.876Z</time></trkpt><trkpt lat="42.6677617" lon="-8.986975"><ele>184.0</ele><time>2026-04-17T08:41:48.876Z</time></trkpt><trkpt lat="42.66767" lon="-8.9869533"><ele>184.0</ele><time>2026-04-17T08:41:49.876Z</time></trkpt><trkpt lat="42.6675717" lon="-8.9869517"><ele>179.6</ele><time>2026-04-17T08:41:50.877Z</time></trkpt><trkpt lat="42.6674833" lon="-8.986955"><ele>175.2</ele><time>2026-04-17T08:41:51.876Z</time></trkpt><trkpt lat="42.667395" lon="-8.9869867"><ele>170.79999999999998</ele><time>2026-04-17T08:41:52.877Z</time></trkpt><trkpt lat="42.6673067" lon="-8.9870267"><ele>166.39999999999998</ele><time>2026-04-17T08:41:53.876Z</time></trkpt><trkpt lat="42.6672117" lon="-8.98707"><ele>162.0</ele><time>2026-04-17T08:41:54.876Z</time></trkpt><trkpt lat="42.66711" lon="-8.9871067"><ele>162.0</ele><time>2026-04-17T08:41:55.877Z</time></trkpt><trkpt lat="42.6670033" lon="-8.987145"><ele>162.0</ele><time>2026-04-17T08:41:56.876Z</time></trkpt><trkpt lat="42.6668917" lon="-8.9871933"><ele>162.0</ele><time>2026-04-17T08:41:57.877Z</time></trkpt><trkpt lat="42.666785" lon="-8.9872367"><ele>162.0</ele><time>2026-04-17T08:41:58.876Z</time></trkpt><trkpt lat="42.6666533" lon="-8.9872883"><ele>163.75</ele><time>2026-04-17T08:41:59.876Z</time></trkpt><trkpt lat="42.6665267" lon="-8.9873333"><ele>165.5</ele><time>2026-04-17T08:42:00.876Z</time></trkpt><trkpt lat="42.666405" lon="-8.9873633"><ele>167.25</ele><time>2026-04-17T08:42:01.876Z</time></trkpt><trkpt lat="42.6662833" lon="-8.987375"><ele>169.0</ele><time>2026-04-17T08:42:02.877Z</time></trkpt><trkpt lat="42.6661717" lon="-8.9874017"><ele>172.5</ele><time>2026-04-17T08:42:03.876Z</time></trkpt><trkpt lat="42.66605" lon="-8.987415"><ele>176.0</ele><time>2026-04-17T08:42:04.877Z</time></trkpt><trkpt lat="42.6659383" lon="-8.987425"><ele>179.5</ele><time>2026-04-17T08:42:05.877Z</time></trkpt><trkpt lat="42.665825" lon="-8.9874283"><ele>183.0</ele><time>2026-04-17T08:42:06.877Z</time></trkpt><trkpt lat="42.6657133" lon="-8.9874217"><ele>183.0</ele><time>2026-04-17T08:42:07.877Z</time></trkpt><trkpt lat="42.6656067" lon="-8.987425"><ele>183.0</ele><time>2026-04-17T08:42:08.877Z</time></trkpt><trkpt lat="42.665495" lon="-8.98741"><ele>183.0</ele><time>2026-04-17T08:42:09.876Z</time></trkpt><trkpt lat="42.6653817" lon="-8.987395"><ele>183.0</ele><time>2026-04-17T08:42:10.877Z</time></trkpt><trkpt lat="42.66528" lon="-8.9873817"><ele>183.0</ele><time>2026-04-17T08:42:11.876Z</time></trkpt><trkpt lat="42.6651983" lon="-8.9873733"><ele>183.2</ele><time>2026-04-17T08:42:12.876Z</time></trkpt><trkpt lat="42.6650983" lon="-8.9873617"><ele>183.4</ele><time>2026-04-17T08:42:13.877Z</time></trkpt><trkpt lat="42.6649933" lon="-8.98735"><ele>183.6</ele><time>2026-04-17T08:42:14.877Z</time></trkpt><trkpt lat="42.6648817" lon="-8.9873333"><ele>183.79999999999998</ele><time>2026-04-17T08:42:15.876Z</time></trkpt><trkpt lat="42.6647633" lon="-8.9873183"><ele>184.0</ele><time>2026-04-17T08:42:16.876Z</time></trkpt><trkpt lat="42.6680667" lon="-8.98688"><ele>184.0</ele><time>2026-04-17T08:41:45.877Z</time></trkpt><trkpt lat="42.6679617" lon="-8.986945"><ele>184.0</ele><time>2026-04-17T08:41:46.876Z</time></trkpt><trkpt lat="42.667855" lon="-8.986975"><ele>184.0</ele><time>2026-04-17T08:41:47.876Z</time></trkpt><trkpt lat="42.6677617" lon="-8.986975"><ele>184.0</ele><time>2026-04-17T08:41:48.876Z</time></trkpt><trkpt lat="42.66767" lon="-8.9869533"><ele>184.0</ele><time>2026-04-17T08:41:49.876Z</time></trkpt><trkpt lat="42.6675717" lon="-8.9869517"><ele>179.6</ele><time>2026-04-17T08:41:50.877Z</time></trkpt><trkpt lat="42.6674833" lon="-8.986955"><ele>175.2</ele><time>2026-04-17T08:41:51.876Z</time></trkpt><trkpt lat="42.667395" lon="-8.9869867"><ele>170.79999999999998</ele><time>2026-04-17T08:41:52.877Z</time></trkpt><trkpt lat="42.6673067" lon="-8.9870267"><ele>166.39999999999998</ele><time>2026-04-17T08:41:53.876Z</time></trkpt><trkpt lat="42.6672117" lon="-8.98707"><ele>162.0</ele><time>2026-04-17T08:41:54.876Z</time></trkpt><trkpt lat="42.66711" lon="-8.9871067"><ele>162.0</ele><time>2026-04-17T08:41:55.877Z</time></trkpt><trkpt lat="42.6670033" lon="-8.987145"><ele>162.0</ele><time>2026-04-17T08:41:56.876Z</time></trkpt><trkpt lat="42.6668917" lon="-8.9871933"><ele>162.0</ele><time>2026-04-17T08:41:57.877Z</time></trkpt><trkpt lat="42.666785" lon="-8.9872367"><ele>162.0</ele><time>2026-04-17T08:41:58.876Z</time></trkpt><trkpt lat="42.6666533" lon="-8.9872883"><ele>163.75</ele><time>2026-04-17T08:41:59.876Z</time></trkpt><trkpt lat="42.6665267" lon="-8.9873333"><ele>165.5</ele><time>2026-04-17T08:42:00.876Z</time></trkpt><trkpt lat="42.666405" lon="-8.9873633"><ele>167.25</ele><time>2026-04-17T08:42:01.876Z</time></trkpt><trkpt lat="42.6662833" lon="-8.987375"><ele>169.0</ele><time>2026-04-17T08:42:02.877Z</time></trkpt><trkpt lat="42.6661717" lon="-8.9874017"><ele>172.5</ele><time>2026-04-17T08:42:03.876Z</time></trkpt><trkpt lat="42.66605" lon="-8.987415"><ele>176.0</ele><time>2026-04-17T08:42:04.877Z</time></trkpt><trkpt lat="42.6659383" lon="-8.987425"><ele>179.5</ele><time>2026-04-17T08:42:05.877Z</time></trkpt><trkpt lat="42.665825" lon="-8.9874283"><ele>183.0</ele><time>2026-04-17T08:42:06.877Z</time></trkpt><trkpt lat="42.6657133" lon="-8.9874217"><ele>183.0</ele><time>2026-04-17T08:42:07.877Z</time></trkpt><trkpt lat="42.6656067" lon="-8.987425"><ele>183.0</ele><time>2026-04-17T08:42:08.877Z</time></trkpt><trkpt lat="42.665495" lon="-8.98741"><ele>183.0</ele><time>2026-04-17T08:42:09.876Z</time></trkpt><trkpt lat="42.6653817" lon="-8.987395"><ele>183.0</ele><time>2026-04-17T08:42:10.877Z</time></trkpt><trkpt lat="42.66528" lon="-8.9873817"><ele>183.0</ele><time>2026-04-17T08:42:11.876Z</time></trkpt><trkpt lat="42.6651983" lon="-8.9873733"><ele>182.4</ele><time>2026-04-17T08:42:12.876Z</time></trkpt><trkpt lat="42.6650983" lon="-8.9873617"><ele>181.8</ele><time>2026-04-17T08:42:13.877Z</time></trkpt><trkpt lat="42.6649933" lon="-8.98735"><ele>181.2</ele><time>2026-04-17T08:42:14.877Z</time></trkpt><trkpt lat="42.6648817" lon="-8.9873333"><ele>180.6</ele><time>2026-04-17T08:42:15.876Z</time></trkpt><trkpt lat="42.6647633" lon="-8.9873183"><ele>180.0</ele><time>2026-04-17T08:42:16.876Z</time></trkpt><trkpt lat="42.6646533" lon="-8.987305"><ele>180.0</ele><time>2026-04-17T08:42:17.877Z</time></trkpt><trkpt lat="42.6645383" lon="-8.98729"><ele>180.0</ele><time>2026-04-17T08:42:18.877Z</time></trkpt><trkpt lat="42.6644267" lon="-8.9872767"><ele>180.0</ele><time>2026-04-17T08:42:19.876Z</time></trkpt><trkpt lat="42.664325" lon="-8.98727"><ele>180.0</ele><time>2026-04-17T08:42:20.877Z</time></trkpt><trkpt lat="42.664215" lon="-8.987275"><ele>180.0</ele><time>2026-04-17T08:42:21.878Z</time></trkpt><trkpt lat="42.6641" lon="-8.987275"><ele>179.5</ele><time>2026-04-17T08:42:22.878Z</time></trkpt><trkpt lat="42.66398" lon="-8.987275"><ele>179.0</ele><time>2026-04-17T08:42:23.878Z</time></trkpt><trkpt lat="42.66385" lon="-8.9872783"><ele>178.5</ele><time>2026-04-17T08:42:24.877Z</time></trkpt><trkpt lat="42.6637183" lon="-8.9872983"><ele>178.0</ele><time>2026-04-17T08:42:25.878Z</time></trkpt><trkpt lat="42.6635867" lon="-8.9873117"><ele>178.0</ele><time>2026-04-17T08:42:26.877Z</time></trkpt><trkpt lat="42.6634567" lon="-8.9873383"><ele>178.0</ele><time>2026-04-17T08:42:27.877Z</time></trkpt><trkpt lat="42.6633483" lon="-8.9873683"><ele>178.0</ele><time>2026-04-17T08:42:28.877Z</time></trkpt><trkpt lat="42.66324" lon="-8.9874067"><ele>178.0</ele><time>2026-04-17T08:42:29.877Z</time></trkpt><trkpt lat="42.66313" lon="-8.9874517"><ele>178.0</ele><time>2026-04-17T08:42:30.877Z</time></trkpt><trkpt lat="42.6629967" lon="-8.98751"><ele>178.0</ele><time>2026-04-17T08:42:31.877Z</time></trkpt><trkpt lat="42.6628867" lon="-8.9875667"><ele>178.0</ele><time>2026-04-17T08:42:32.878Z</time></trkpt><trkpt lat="42.6627733" lon="-8.987625"><ele>178.0</ele><time>2026-04-17T08:42:33.877Z</time></trkpt><trkpt lat="42.6626733" lon="-8.9876867"><ele>173.25</ele><time>2026-04-17T08:42:34.878Z</time></trkpt><trkpt lat="42.66257" lon="-8.9877533"><ele>168.5</ele><time>2026-04-17T08:42:35.878Z</time></trkpt><trkpt lat="42.6624583" lon="-8.98782"><ele>163.75</ele><time>2026-04-17T08:42:36.877Z</time></trkpt><trkpt lat="42.66236" lon="-8.98788"><ele>159.0</ele><time>2026-04-17T08:42:37.878Z</time></trkpt><trkpt lat="42.6622517" lon="-8.9879417"><ele>159.0</ele><time>2026-04-17T08:42:38.877Z</time></trkpt><trkpt lat="42.6621467" lon="-8.9879817"><ele>159.0</ele><time>2026-04-17T08:42:39.878Z</time></trkpt><trkpt lat="42.6620367" lon="-8.988005"><ele>159.0</ele><time>2026-04-17T08:42:40.878Z</time></trkpt><trkpt lat="42.661935" lon="-8.9880167"><ele>159.0</ele><time>2026-04-17T08:42:41.878Z</time></trkpt><trkpt lat="42.6618283" lon="-8.9880217"><ele>159.0</ele><time>2026-04-17T08:42:42.878Z</time></trkpt><trkpt lat="42.66173" lon="-8.98802"><ele>158.4</ele><time>2026-04-17T08:42:43.877Z</time></trkpt><trkpt lat="42.6616283" lon="-8.9880117"><ele>157.8</ele><time>2026-04-17T08:42:44.878Z</time></trkpt><trkpt lat="42.6615367" lon="-8.9880017"><ele>157.2</ele><time>2026-04-17T08:42:45.878Z</time></trkpt><trkpt lat="42.6614333" lon="-8.987995"><ele>156.6</ele><time>2026-04-17T08:42:46.877Z</time></trkpt><trkpt lat="42.661325" lon="-8.9879733"><ele>156.0</ele><time>2026-04-17T08:42:47.877Z</time></trkpt><trkpt lat="42.6612117" lon="-8.98796"><ele>153.75</ele><time>2026-04-17T08:42:48.877Z</time></trkpt><trkpt lat="42.661075" lon="-8.9879633"><ele>151.5</ele><time>2026-04-17T08:42:49.877Z</time></trkpt><trkpt lat="42.6609433" lon="-8.98796"><ele>149.25</ele><time>2026-04-17T08:42:50.877Z</time></trkpt><trkpt lat="42.6608167" lon="-8.9879467"><ele>147.0</ele><time>2026-04-17T08:42:51.877Z</time></trkpt><trkpt lat="42.6606983" lon="-8.9879367"><ele>147.0</ele><time>2026-04-17T08:42:52.877Z</time></trkpt><trkpt lat="42.660575" lon="-8.9879183"><ele>147.0</ele><time>2026-04-17T08:42:53.878Z</time></trkpt><trkpt lat="42.6604667" lon="-8.9879"><ele>147.0</ele><time>2026-04-17T08:42:54.877Z</time></trkpt><trkpt lat="42.66035" lon="-8.987885"><ele>147.0</ele><time>2026-04-17T08:42:55.878Z</time></trkpt><trkpt lat="42.6602383" lon="-8.9878783"><ele>147.25</ele><time>2026-04-17T08:42:56.878Z</time></trkpt><trkpt lat="42.6601233" lon="-8.9878683"><ele>147.5</ele><time>2026-04-17T08:42:57.877Z</time></trkpt><trkpt lat="42.6599967" lon="-8.98785"><ele>147.75</ele><time>2026-04-17T08:42:58.877Z</time></trkpt><trkpt lat="42.659865" lon="-8.9878367"><ele>148.0</ele><time>2026-04-17T08:42:59.877Z</time></trkpt><trkpt lat="42.65974" lon="-8.9878217"><ele>148.0</ele><time>2026-04-17T08:43:00.878Z</time></trkpt><trkpt lat="42.65962" lon="-8.9878117"><ele>148.0</ele><time>2026-04-17T08:43:01.878Z</time></trkpt><trkpt lat="42.6595067" lon="-8.9878"><ele>148.0</ele><time>2026-04-17T08:43:02.877Z</time></trkpt><trkpt lat="42.659395" lon="-8.9877817"><ele>148.0</ele><time>2026-04-17T08:43:03.877Z</time></trkpt><trkpt lat="42.6592733" lon="-8.987755"><ele>147.25</ele><time>2026-04-17T08:43:04.877Z</time></trkpt><trkpt lat="42.659135" lon="-8.9877283"><ele>146.5</ele><time>2026-04-17T08:43:05.877Z</time></trkpt><trkpt lat="42.6590117" lon="-8.987715"><ele>145.75</ele><time>2026-04-17T08:43:06.878Z</time></trkpt><trkpt lat="42.6588867" lon="-8.9876867"><ele>145.0</ele><time>2026-04-17T08:43:07.878Z</time></trkpt><trkpt lat="42.6587517" lon="-8.9876567"><ele>145.0</ele><time>2026-04-17T08:43:08.878Z</time></trkpt><trkpt lat="42.6586267" lon="-8.98762"><ele>145.0</ele><time>2026-04-17T08:43:09.878Z</time></trkpt><trkpt lat="42.6585067" lon="-8.9875767"><ele>145.0</ele><time>2026-04-17T08:43:10.878Z</time></trkpt><trkpt lat="42.6583867" lon="-8.98753"><ele>145.0</ele><time>2026-04-17T08:43:11.878Z</time></trkpt><trkpt lat="42.65827" lon="-8.9874883"><ele>153.25</ele><time>2026-04-17T08:43:12.877Z</time></trkpt><trkpt lat="42.6581467" lon="-8.9874433"><ele>161.5</ele><time>2026-04-17T08:43:13.878Z</time></trkpt><trkpt lat="42.65802" lon="-8.9874067"><ele>169.75</ele><time>2026-04-17T08:43:14.878Z</time></trkpt><trkpt lat="42.6579" lon="-8.987365"><ele>178.0</ele><time>2026-04-17T08:43:15.877Z</time></trkpt><trkpt lat="42.6577833" lon="-8.9873167"><ele>178.0</ele><time>2026-04-17T08:43:16.878Z</time></trkpt><trkpt lat="42.65765" lon="-8.9872733"><ele>178.0</ele><time>2026-04-17T08:43:17.878Z</time></trkpt><trkpt lat="42.6575117" lon="-8.9872217"><ele>178.0</ele><time>2026-04-17T08:43:18.877Z</time></trkpt><trkpt lat="42.657385" lon="-8.987165"><ele>178.0</ele><time>2026-04-17T08:43:19.878Z</time></trkpt><trkpt lat="42.6572683" lon="-8.9871233"><ele>178.0</ele><time>2026-04-17T08:43:20.878Z</time></trkpt><trkpt lat="42.6571567" lon="-8.987085"><ele>178.0</ele><time>2026-04-17T08:43:21.878Z</time></trkpt><trkpt lat="42.657055" lon="-8.987055"><ele>178.0</ele><time>2026-04-17T08:43:22.877Z</time></trkpt><trkpt lat="42.6569483" lon="-8.9870333"><ele>178.0</ele><time>2026-04-17T08:43:23.878Z</time></trkpt><trkpt lat="42.6568467" lon="-8.98703"><ele>178.0</ele><time>2026-04-17T08:43:24.878Z</time></trkpt><trkpt lat="42.6567367" lon="-8.9870533"><ele>176.8</ele><time>2026-04-17T08:43:25.877Z</time></trkpt><trkpt lat="42.6566333" lon="-8.98709"><ele>175.60000000000002</ele><time>2026-04-17T08:43:26.877Z</time></trkpt><trkpt lat="42.656525" lon="-8.98713"><ele>174.39999999999998</ele><time>2026-04-17T08:43:27.878Z</time></trkpt><trkpt lat="42.656415" lon="-8.987155"><ele>173.2</ele><time>2026-04-17T08:43:28.877Z</time></trkpt><trkpt lat="42.6563033" lon="-8.9871817"><ele>172.0</ele><time>2026-04-17T08:43:29.878Z</time></trkpt><trkpt lat="42.656195" lon="-8.98721"><ele>172.39999999999998</ele><time>2026-04-17T08:43:30.878Z</time></trkpt><trkpt lat="42.656095" lon="-8.9872317"><ele>172.79999999999998</ele><time>2026-04-17T08:43:31.877Z</time></trkpt><trkpt lat="42.6559917" lon="-8.9872633"><ele>173.2</ele><time>2026-04-17T08:43:32.878Z</time></trkpt><trkpt lat="42.6558867" lon="-8.9873083"><ele>173.6</ele><time>2026-04-17T08:43:33.878Z</time></trkpt><trkpt lat="42.6557717" lon="-8.9873467"><ele>174.0</ele><time>2026-04-17T08:43:34.878Z</time></trkpt><trkpt lat="42.6556567" lon="-8.98739"><ele>174.0</ele><time>2026-04-17T08:43:35.878Z</time></trkpt><trkpt lat="42.65554" lon="-8.98742"><ele>174.0</ele><time>2026-04-17T08:43:36.877Z</time></trkpt><trkpt lat="42.6554183" lon="-8.9874333"><ele>174.0</ele><time>2026-04-17T08:43:37.878Z</time></trkpt><trkpt lat="42.655315" lon="-8.9874317"><ele>174.0</ele><time>2026-04-17T08:43:38.877Z</time></trkpt><trkpt lat="42.655225" lon="-8.9874383"><ele>174.0</ele><time>2026-04-17T08:43:39.878Z</time></trkpt><trkpt lat="42.6551417" lon="-8.9874483"><ele>175.0</ele><time>2026-04-17T08:43:40.877Z</time></trkpt><trkpt lat="42.65504" lon="-8.9874767"><ele>176.0</ele><time>2026-04-17T08:43:41.878Z</time></trkpt><trkpt lat="42.6549317" lon="-8.987525"><ele>177.0</ele><time>2026-04-17T08:43:42.877Z</time></trkpt><trkpt lat="42.6548233" lon="-8.987585"><ele>178.0</ele><time>2026-04-17T08:43:43.878Z</time></trkpt><trkpt lat="42.6581467" lon="-8.9874433"><ele>178.0</ele><time>2026-04-17T08:43:13.878Z</time></trkpt><trkpt lat="42.65802" lon="-8.9874067"><ele>178.0</ele><time>2026-04-17T08:43:14.878Z</time></trkpt><trkpt lat="42.6579" lon="-8.987365"><ele>178.0</ele><time>2026-04-17T08:43:15.877Z</time></trkpt><trkpt lat="42.6577833" lon="-8.9873167"><ele>178.0</ele><time>2026-04-17T08:43:16.878Z</time></trkpt><trkpt lat="42.65765" lon="-8.9872733"><ele>178.0</ele><time>2026-04-17T08:43:17.878Z</time></trkpt><trkpt lat="42.6575117" lon="-8.9872217"><ele>178.0</ele><time>2026-04-17T08:43:18.877Z</time></trkpt><trkpt lat="42.657385" lon="-8.987165"><ele>178.0</ele><time>2026-04-17T08:43:19.878Z</time></trkpt><trkpt lat="42.6572683" lon="-8.9871233"><ele>178.0</ele><time>2026-04-17T08:43:20.878Z</time></trkpt><trkpt lat="42.6571567" lon="-8.987085"><ele>178.0</ele><time>2026-04-17T08:43:21.878Z</time></trkpt><trkpt lat="42.657055" lon="-8.987055"><ele>178.0</ele><time>2026-04-17T08:43:22.877Z</time></trkpt><trkpt lat="42.6569483" lon="-8.9870333"><ele>178.0</ele><time>2026-04-17T08:43:23.878Z</time></trkpt><trkpt lat="42.6568467" lon="-8.98703"><ele>178.0</ele><time>2026-04-17T08:43:24.878Z</time></trkpt><trkpt lat="42.6567367" lon="-8.9870533"><ele>178.0</ele><time>2026-04-17T08:43:25.877Z</time></trkpt><trkpt lat="42.6566333" lon="-8.98709"><ele>177.2</ele><time>2026-04-17T08:43:26.877Z</time></trkpt><trkpt lat="42.656525" lon="-8.98713"><ele>176.4</ele><time>2026-04-17T08:43:27.878Z</time></trkpt><trkpt lat="42.656415" lon="-8.987155"><ele>175.6</ele><time>2026-04-17T08:43:28.877Z</time></trkpt><trkpt lat="42.6563033" lon="-8.9871817"><ele>174.79999999999998</ele><time>2026-04-17T08:43:29.878Z</time></trkpt><trkpt lat="42.656195" lon="-8.98721"><ele>174.0</ele><time>2026-04-17T08:43:30.878Z</time></trkpt><trkpt lat="42.656095" lon="-8.9872317"><ele>174.0</ele><time>2026-04-17T08:43:31.877Z</time></trkpt><trkpt lat="42.6559917" lon="-8.9872633"><ele>174.0</ele><time>2026-04-17T08:43:32.878Z</time></trkpt><trkpt lat="42.6558867" lon="-8.9873083"><ele>174.0</ele><time>2026-04-17T08:43:33.878Z</time></trkpt><trkpt lat="42.6557717" lon="-8.9873467"><ele>174.0</ele><time>2026-04-17T08:43:34.878Z</time></trkpt><trkpt lat="42.6556567" lon="-8.98739"><ele>174.0</ele><time>2026-04-17T08:43:35.878Z</time></trkpt><trkpt lat="42.65554" lon="-8.98742"><ele>174.0</ele><time>2026-04-17T08:43:36.877Z</time></trkpt><trkpt lat="42.6554183" lon="-8.9874333"><ele>174.0</ele><time>2026-04-17T08:43:37.878Z</time></trkpt><trkpt lat="42.655315" lon="-8.9874317"><ele>174.0</ele><time>2026-04-17T08:43:38.877Z</time></trkpt><trkpt lat="42.655225" lon="-8.9874383"><ele>174.0</ele><time>2026-04-17T08:43:39.878Z</time></trkpt><trkpt lat="42.6551417" lon="-8.9874483"><ele>175.0</ele><time>2026-04-17T08:43:40.877Z</time></trkpt><trkpt lat="42.65504" lon="-8.9874767"><ele>176.0</ele><time>2026-04-17T08:43:41.878Z</time></trkpt><trkpt lat="42.6549317" lon="-8.987525"><ele>177.0</ele><time>2026-04-17T08:43:42.877Z</time></trkpt><trkpt lat="42.6548233" lon="-8.987585"><ele>178.0</ele><time>2026-04-17T08:43:43.878Z</time></trkpt><trkpt lat="42.6547083" lon="-8.9876417"><ele>175.8</ele><time>2026-04-17T08:43:44.878Z</time></trkpt><trkpt lat="42.6546" lon="-8.9876883"><ele>173.60000000000002</ele><time>2026-04-17T08:43:45.878Z</time></trkpt><trkpt lat="42.6544967" lon="-8.9877383"><ele>171.39999999999998</ele><time>2026-04-17T08:43:46.878Z</time></trkpt><trkpt lat="42.6543933" lon="-8.9877867"><ele>169.2</ele><time>2026-04-17T08:43:47.877Z</time></trkpt><trkpt lat="42.654285" lon="-8.9878367"><ele>167.0</ele><time>2026-04-17T08:43:48.878Z</time></trkpt><trkpt lat="42.6541733" lon="-8.9878883"><ele>167.0</ele><time>2026-04-17T08:43:49.877Z</time></trkpt><trkpt lat="42.65406" lon="-8.98793"><ele>167.0</ele><time>2026-04-17T08:43:50.877Z</time></trkpt><trkpt lat="42.653955" lon="-8.98797"><ele>167.0</ele><time>2026-04-17T08:43:51.877Z</time></trkpt><trkpt lat="42.6538617" lon="-8.9879933"><ele>167.0</ele><time>2026-04-17T08:43:52.878Z</time></trkpt><trkpt lat="42.6537733" lon="-8.988005"><ele>167.0</ele><time>2026-04-17T08:43:53.877Z</time></trkpt><trkpt lat="42.653685" lon="-8.9880167"><ele>168.2</ele><time>2026-04-17T08:43:54.878Z</time></trkpt><trkpt lat="42.6535883" lon="-8.9880483"><ele>169.39999999999998</ele><time>2026-04-17T08:43:55.877Z</time></trkpt><trkpt lat="42.653485" lon="-8.9880833"><ele>170.60000000000002</ele><time>2026-04-17T08:43:56.878Z</time></trkpt><trkpt lat="42.6533833" lon="-8.9881233"><ele>171.8</ele><time>2026-04-17T08:43:57.878Z</time></trkpt><trkpt lat="42.653295" lon="-8.9881417"><ele>173.0</ele><time>2026-04-17T08:43:58.877Z</time></trkpt><trkpt lat="42.6532033" lon="-8.9881767"><ele>173.0</ele><time>2026-04-17T08:43:59.878Z</time></trkpt><trkpt lat="42.653105" lon="-8.9882117"><ele>173.0</ele><time>2026-04-17T08:44:00.878Z</time></trkpt><trkpt lat="42.652995" lon="-8.988265"><ele>173.0</ele><time>2026-04-17T08:44:01.877Z</time></trkpt><trkpt lat="42.6528833" lon="-8.98833"><ele>173.0</ele><time>2026-04-17T08:44:02.877Z</time></trkpt><trkpt lat="42.6527833" lon="-8.9883883"><ele>173.0</ele><time>2026-04-17T08:44:03.878Z</time></trkpt><trkpt lat="42.6526817" lon="-8.9884217"><ele>169.20000000000002</ele><time>2026-04-17T08:44:04.877Z</time></trkpt><trkpt lat="42.65258" lon="-8.9884433"><ele>165.4</ele><time>2026-04-17T08:44:05.877Z</time></trkpt><trkpt lat="42.6524867" lon="-8.9884533"><ele>161.60000000000002</ele><time>2026-04-17T08:44:06.877Z</time></trkpt><trkpt lat="42.65239" lon="-8.988465"><ele>157.8</ele><time>2026-04-17T08:44:07.877Z</time></trkpt><trkpt lat="42.65229" lon="-8.98847"><ele>154.0</ele><time>2026-04-17T08:44:08.877Z</time></trkpt><trkpt lat="42.6521817" lon="-8.9884733"><ele>154.0</ele><time>2026-04-17T08:44:09.877Z</time></trkpt><trkpt lat="42.6520783" lon="-8.9884567"><ele>154.0</ele><time>2026-04-17T08:44:10.877Z</time></trkpt><trkpt lat="42.65196" lon="-8.9884583"><ele>154.0</ele><time>2026-04-17T08:44:11.878Z</time></trkpt><trkpt lat="42.651825" lon="-8.98845"><ele>154.0</ele><time>2026-04-17T08:44:12.877Z</time></trkpt><trkpt lat="42.651695" lon="-8.98841"><ele>154.75</ele><time>2026-04-17T08:44:13.878Z</time></trkpt><trkpt lat="42.6515667" lon="-8.988375"><ele>155.5</ele><time>2026-04-17T08:44:14.878Z</time></trkpt><trkpt lat="42.65145" lon="-8.98836"><ele>156.25</ele><time>2026-04-17T08:44:15.878Z</time></trkpt><trkpt lat="42.6513317" lon="-8.988355"><ele>157.0</ele><time>2026-04-17T08:44:16.878Z</time></trkpt><trkpt lat="42.6512183" lon="-8.9883467"><ele>156.6</ele><time>2026-04-17T08:44:17.877Z</time></trkpt><trkpt lat="42.651115" lon="-8.9883283"><ele>156.2</ele><time>2026-04-17T08:44:18.877Z</time></trkpt><trkpt lat="42.6510133" lon="-8.9883183"><ele>155.8</ele><time>2026-04-17T08:44:19.878Z</time></trkpt><trkpt lat="42.650915" lon="-8.9883333"><ele>155.4</ele><time>2026-04-17T08:44:20.878Z</time></trkpt><trkpt lat="42.6508217" lon="-8.9883733"><ele>155.0</ele><time>2026-04-17T08:44:21.877Z</time></trkpt><trkpt lat="42.65074" lon="-8.9884383"><ele>155.0</ele><time>2026-04-17T08:44:22.877Z</time></trkpt><trkpt lat="42.65066" lon="-8.98852"><ele>155.0</ele><time>2026-04-17T08:44:23.878Z</time></trkpt><trkpt lat="42.6505767" lon="-8.9886"><ele>155.0</ele><time>2026-04-17T08:44:24.877Z</time></trkpt><trkpt lat="42.6504883" lon="-8.9886767"><ele>155.0</ele><time>2026-04-17T08:44:25.878Z</time></trkpt><trkpt lat="42.650405" lon="-8.9887467"><ele>155.0</ele><time>2026-04-17T08:44:26.878Z</time></trkpt><trkpt lat="42.6503117" lon="-8.9888267"><ele>154.6</ele><time>2026-04-17T08:44:27.878Z</time></trkpt><trkpt lat="42.6502283" lon="-8.98893"><ele>154.2</ele><time>2026-04-17T08:44:28.877Z</time></trkpt><trkpt lat="42.65016" lon="-8.9890217"><ele>153.8</ele><time>2026-04-17T08:44:29.877Z</time></trkpt><trkpt lat="42.6500883" lon="-8.9891083"><ele>153.4</ele><time>2026-04-17T08:44:30.878Z</time></trkpt><trkpt lat="42.650005" lon="-8.9891867"><ele>153.0</ele><time>2026-04-17T08:44:31.878Z</time></trkpt><trkpt lat="42.6499083" lon="-8.98925"><ele>153.0</ele><time>2026-04-17T08:44:32.877Z</time></trkpt><trkpt lat="42.6497967" lon="-8.9892983"><ele>153.0</ele><time>2026-04-17T08:44:33.877Z</time></trkpt><trkpt lat="42.6496733" lon="-8.9893233"><ele>153.0</ele><time>2026-04-17T08:44:34.878Z</time></trkpt><trkpt lat="42.6495533" lon="-8.9893583"><ele>153.0</ele><time>2026-04-17T08:44:35.877Z</time></trkpt><trkpt lat="42.6494467" lon="-8.989405"><ele>152.6</ele><time>2026-04-17T08:44:36.877Z</time></trkpt><trkpt lat="42.6493467" lon="-8.9894333"><ele>152.20000000000002</ele><time>2026-04-17T08:44:37.877Z</time></trkpt><trkpt lat="42.64924" lon="-8.9894567"><ele>151.8</ele><time>2026-04-17T08:44:38.877Z</time></trkpt><trkpt lat="42.64913" lon="-8.9894633"><ele>151.4</ele><time>2026-04-17T08:44:39.878Z</time></trkpt><trkpt lat="42.6490183" lon="-8.9894667"><ele>151.0</ele><time>2026-04-17T08:44:40.877Z</time></trkpt><trkpt lat="42.6489183" lon="-8.98946"><ele>151.0</ele><time>2026-04-17T08:44:41.877Z</time></trkpt><trkpt lat="42.6488267" lon="-8.9894633"><ele>151.0</ele><time>2026-04-17T08:44:42.878Z</time></trkpt><trkpt lat="42.6487317" lon="-8.98946"><ele>151.0</ele><time>2026-04-17T08:44:43.877Z</time></trkpt><trkpt lat="42.6486267" lon="-8.9894633"><ele>151.0</ele><time>2026-04-17T08:44:44.877Z</time></trkpt><trkpt lat="42.64853" lon="-8.989485"><ele>151.0</ele><time>2026-04-17T08:44:45.878Z</time></trkpt><trkpt lat="42.6484217" lon="-8.9895367"><ele>152.2</ele><time>2026-04-17T08:44:46.878Z</time></trkpt><trkpt lat="42.64832" lon="-8.989605"><ele>153.39999999999998</ele><time>2026-04-17T08:44:47.877Z</time></trkpt><trkpt lat="42.64823" lon="-8.989685"><ele>154.6</ele><time>2026-04-17T08:44:48.878Z</time></trkpt><trkpt lat="42.64815" lon="-8.98977"><ele>155.79999999999998</ele><time>2026-04-17T08:44:49.877Z</time></trkpt><trkpt lat="42.64807" lon="-8.989835"><ele>157.0</ele><time>2026-04-17T08:44:50.878Z</time></trkpt><trkpt lat="42.6479883" lon="-8.9898817"><ele>157.0</ele><time>2026-04-17T08:44:51.878Z</time></trkpt><trkpt lat="42.6479067" lon="-8.9899367"><ele>157.0</ele><time>2026-04-17T08:44:52.878Z</time></trkpt><trkpt lat="42.6478417" lon="-8.9900033"><ele>157.0</ele><time>2026-04-17T08:44:53.878Z</time></trkpt><trkpt lat="42.6477783" lon="-8.9900767"><ele>157.0</ele><time>2026-04-17T08:44:54.877Z</time></trkpt><trkpt lat="42.6477133" lon="-8.9901483"><ele>157.0</ele><time>2026-04-17T08:44:55.878Z</time></trkpt><trkpt lat="42.6476267" lon="-8.9902167"><ele>157.0</ele><time>2026-04-17T08:44:56.877Z</time></trkpt><trkpt lat="42.6475117" lon="-8.9902583"><ele>158.0</ele><time>2026-04-17T08:44:57.877Z</time></trkpt><trkpt lat="42.6474167" lon="-8.9902533"><ele>159.0</ele><time>2026-04-17T08:44:58.878Z</time></trkpt><trkpt lat="42.6473217" lon="-8.990205"><ele>160.0</ele><time>2026-04-17T08:44:59.877Z</time></trkpt><trkpt lat="42.6472317" lon="-8.9901067"><ele>161.0</ele><time>2026-04-17T08:45:00.878Z</time></trkpt><trkpt lat="42.647145" lon="-8.9900017"><ele>162.0</ele><time>2026-04-17T08:45:01.878Z</time></trkpt><trkpt lat="42.6470733" lon="-8.98989"><ele>162.0</ele><time>2026-04-17T08:45:02.878Z</time></trkpt><trkpt lat="42.6469933" lon="-8.9897617"><ele>162.0</ele><time>2026-04-17T08:45:03.877Z</time></trkpt><trkpt lat="42.6469167" lon="-8.98965"><ele>162.0</ele><time>2026-04-17T08:45:04.878Z</time></trkpt><trkpt lat="42.6468367" lon="-8.98955"><ele>162.0</ele><time>2026-04-17T08:45:05.877Z</time></trkpt><trkpt lat="42.6467683" lon="-8.9894517"><ele>162.0</ele><time>2026-04-17T08:45:06.877Z</time></trkpt><trkpt lat="42.6466967" lon="-8.9893767"><ele>161.5</ele><time>2026-04-17T08:45:07.878Z</time></trkpt><trkpt lat="42.6466083" lon="-8.9893117"><ele>161.0</ele><time>2026-04-17T08:45:08.877Z</time></trkpt><trkpt lat="42.6465133" lon="-8.9892383"><ele>160.5</ele><time>2026-04-17T08:45:09.877Z</time></trkpt><trkpt lat="42.6464383" lon="-8.9891483"><ele>160.0</ele><time>2026-04-17T08:45:10.878Z</time></trkpt><trkpt lat="42.6490183" lon="-8.9894667"><ele>159.4</ele><time>2026-04-17T08:44:40.877Z</time></trkpt><trkpt lat="42.6489183" lon="-8.98946"><ele>158.8</ele><time>2026-04-17T08:44:41.877Z</time></trkpt><trkpt lat="42.6488267" lon="-8.9894633"><ele>158.2</ele><time>2026-04-17T08:44:42.878Z</time></trkpt><trkpt lat="42.6487317" lon="-8.98946"><ele>157.6</ele><time>2026-04-17T08:44:43.877Z</time></trkpt><trkpt lat="42.6486267" lon="-8.9894633"><ele>157.0</ele><time>2026-04-17T08:44:44.877Z</time></trkpt><trkpt lat="42.64853" lon="-8.989485"><ele>157.0</ele><time>2026-04-17T08:44:45.878Z</time></trkpt><trkpt lat="42.6484217" lon="-8.9895367"><ele>157.0</ele><time>2026-04-17T08:44:46.878Z</time></trkpt><trkpt lat="42.64832" lon="-8.989605"><ele>157.0</ele><time>2026-04-17T08:44:47.877Z</time></trkpt><trkpt lat="42.64823" lon="-8.989685"><ele>157.0</ele><time>2026-04-17T08:44:48.878Z</time></trkpt><trkpt lat="42.64815" lon="-8.98977"><ele>157.0</ele><time>2026-04-17T08:44:49.877Z</time></trkpt><trkpt lat="42.64807" lon="-8.989835"><ele>157.0</ele><time>2026-04-17T08:44:50.878Z</time></trkpt><trkpt lat="42.6479883" lon="-8.9898817"><ele>157.0</ele><time>2026-04-17T08:44:51.878Z</time></trkpt><trkpt lat="42.6479067" lon="-8.9899367"><ele>157.0</ele><time>2026-04-17T08:44:52.878Z</time></trkpt><trkpt lat="42.6478417" lon="-8.9900033"><ele>157.0</ele><time>2026-04-17T08:44:53.878Z</time></trkpt><trkpt lat="42.6477783" lon="-8.9900767"><ele>157.0</ele><time>2026-04-17T08:44:54.877Z</time></trkpt><trkpt lat="42.6477133" lon="-8.9901483"><ele>157.0</ele><time>2026-04-17T08:44:55.878Z</time></trkpt><trkpt lat="42.6476267" lon="-8.9902167"><ele>158.0</ele><time>2026-04-17T08:44:56.877Z</time></trkpt><trkpt lat="42.6475117" lon="-8.9902583"><ele>159.0</ele><time>2026-04-17T08:44:57.877Z</time></trkpt><trkpt lat="42.6474167" lon="-8.9902533"><ele>160.0</ele><time>2026-04-17T08:44:58.878Z</time></trkpt><trkpt lat="42.6473217" lon="-8.990205"><ele>161.0</ele><time>2026-04-17T08:44:59.877Z</time></trkpt><trkpt lat="42.6472317" lon="-8.9901067"><ele>162.0</ele><time>2026-04-17T08:45:00.878Z</time></trkpt><trkpt lat="42.647145" lon="-8.9900017"><ele>162.0</ele><time>2026-04-17T08:45:01.878Z</time></trkpt><trkpt lat="42.6470733" lon="-8.98989"><ele>162.0</ele><time>2026-04-17T08:45:02.878Z</time></trkpt><trkpt lat="42.6469933" lon="-8.9897617"><ele>162.0</ele><time>2026-04-17T08:45:03.877Z</time></trkpt><trkpt lat="42.6469167" lon="-8.98965"><ele>162.0</ele><time>2026-04-17T08:45:04.878Z</time></trkpt><trkpt lat="42.6468367" lon="-8.98955"><ele>161.6</ele><time>2026-04-17T08:45:05.877Z</time></trkpt><trkpt lat="42.6467683" lon="-8.9894517"><ele>161.2</ele><time>2026-04-17T08:45:06.877Z</time></trkpt><trkpt lat="42.6466967" lon="-8.9893767"><ele>160.8</ele><time>2026-04-17T08:45:07.878Z</time></trkpt><trkpt lat="42.6466083" lon="-8.9893117"><ele>160.4</ele><time>2026-04-17T08:45:08.877Z</time></trkpt><trkpt lat="42.6465133" lon="-8.9892383"><ele>160.0</ele><time>2026-04-17T08:45:09.877Z</time></trkpt><trkpt lat="42.6464383" lon="-8.9891483"><ele>162.83333333333334</ele><time>2026-04-17T08:45:10.878Z</time></trkpt><trkpt lat="42.646365" lon="-8.98907"><ele>165.66666666666669</ele><time>2026-04-17T08:45:11.877Z</time></trkpt><trkpt lat="42.6462967" lon="-8.989005"><ele>168.5</ele><time>2026-04-17T08:45:12.877Z</time></trkpt><trkpt lat="42.6462267" lon="-8.9889683"><ele>171.33333333333334</ele><time>2026-04-17T08:45:13.878Z</time></trkpt><trkpt lat="42.6461417" lon="-8.98896"><ele>174.16666666666666</ele><time>2026-04-17T08:45:14.877Z</time></trkpt><trkpt lat="42.6460483" lon="-8.9889783"><ele>177.0</ele><time>2026-04-17T08:45:15.878Z</time></trkpt><trkpt lat="42.6459517" lon="-8.9890333"><ele>176.75</ele><time>2026-04-17T08:45:16.877Z</time></trkpt><trkpt lat="42.6458583" lon="-8.9891283"><ele>176.5</ele><time>2026-04-17T08:45:17.878Z</time></trkpt><trkpt lat="42.6457533" lon="-8.9892383"><ele>176.25</ele><time>2026-04-17T08:45:18.877Z</time></trkpt><trkpt lat="42.6456517" lon="-8.9893233"><ele>176.0</ele><time>2026-04-17T08:45:19.877Z</time></trkpt><trkpt lat="42.6455383" lon="-8.9893933"><ele>176.0</ele><time>2026-04-17T08:45:20.877Z</time></trkpt><trkpt lat="42.6454217" lon="-8.98942"><ele>176.0</ele><time>2026-04-17T08:45:21.877Z</time></trkpt><trkpt lat="42.6453167" lon="-8.9894367"><ele>176.0</ele><time>2026-04-17T08:45:22.878Z</time></trkpt><trkpt lat="42.6452117" lon="-8.9894817"><ele>176.0</ele><time>2026-04-17T08:45:23.878Z</time></trkpt><trkpt lat="42.645115" lon="-8.9895417"><ele>176.0</ele><time>2026-04-17T08:45:24.878Z</time></trkpt><trkpt lat="42.6450233" lon="-8.9896433"><ele>175.0</ele><time>2026-04-17T08:45:25.878Z</time></trkpt><trkpt lat="42.6449333" lon="-8.989765"><ele>174.0</ele><time>2026-04-17T08:45:26.878Z</time></trkpt><trkpt lat="42.6448467" lon="-8.9898867"><ele>173.0</ele><time>2026-04-17T08:45:27.877Z</time></trkpt><trkpt lat="42.64476" lon="-8.9900133"><ele>172.0</ele><time>2026-04-17T08:45:28.878Z</time></trkpt><trkpt lat="42.6446767" lon="-8.9901433"><ele>172.0</ele><time>2026-04-17T08:45:29.877Z</time></trkpt><trkpt lat="42.6446" lon="-8.990275"><ele>172.0</ele><time>2026-04-17T08:45:30.877Z</time></trkpt><trkpt lat="42.6445233" lon="-8.9903983"><ele>172.0</ele><time>2026-04-17T08:45:31.877Z</time></trkpt><trkpt lat="42.6444417" lon="-8.9905033"><ele>172.0</ele><time>2026-04-17T08:45:32.877Z</time></trkpt><trkpt lat="42.6443667" lon="-8.99058"><ele>172.0</ele><time>2026-04-17T08:45:33.877Z</time></trkpt><trkpt lat="42.6442783" lon="-8.9906267"><ele>172.0</ele><time>2026-04-17T08:45:34.878Z</time></trkpt><trkpt lat="42.64419" lon="-8.9906417"><ele>172.0</ele><time>2026-04-17T08:45:35.877Z</time></trkpt><trkpt lat="42.6440983" lon="-8.9906317"><ele>172.0</ele><time>2026-04-17T08:45:36.878Z</time></trkpt><trkpt lat="42.6440133" lon="-8.9906083"><ele>172.0</ele><time>2026-04-17T08:45:37.878Z</time></trkpt><trkpt lat="42.6439167" lon="-8.9905733"><ele>172.0</ele><time>2026-04-17T08:45:38.878Z</time></trkpt><trkpt lat="42.6438183" lon="-8.9905683"><ele>172.0</ele><time>2026-04-17T08:45:39.878Z</time></trkpt><trkpt lat="42.6437017" lon="-8.9905767"><ele>172.0</ele><time>2026-04-17T08:45:40.877Z</time></trkpt><trkpt lat="42.6436017" lon="-8.9906183"><ele>172.0</ele><time>2026-04-17T08:45:41.877Z</time></trkpt><trkpt lat="42.64351" lon="-8.9907017"><ele>172.0</ele><time>2026-04-17T08:45:42.877Z</time></trkpt><trkpt lat="42.6434033" lon="-8.9908183"><ele>170.0</ele><time>2026-04-17T08:45:43.877Z</time></trkpt><trkpt lat="42.6432833" lon="-8.9909483"><ele>168.0</ele><time>2026-04-17T08:45:44.877Z</time></trkpt><trkpt lat="42.6431733" lon="-8.9910667"><ele>166.0</ele><time>2026-04-17T08:45:45.878Z</time></trkpt><trkpt lat="42.64305" lon="-8.9911783"><ele>164.0</ele><time>2026-04-17T08:45:46.878Z</time></trkpt><trkpt lat="42.64293" lon="-8.9912483"><ele>164.0</ele><time>2026-04-17T08:45:47.878Z</time></trkpt><trkpt lat="42.6428067" lon="-8.9912917"><ele>164.0</ele><time>2026-04-17T08:45:48.877Z</time></trkpt><trkpt lat="42.64269" lon="-8.991315"><ele>164.0</ele><time>2026-04-17T08:45:49.878Z</time></trkpt><trkpt lat="42.642575" lon="-8.9913267"><ele>164.0</ele><time>2026-04-17T08:45:50.877Z</time></trkpt><trkpt lat="42.6424667" lon="-8.991335"><ele>166.5</ele><time>2026-04-17T08:45:51.878Z</time></trkpt><trkpt lat="42.642355" lon="-8.9913417"><ele>169.0</ele><time>2026-04-17T08:45:52.878Z</time></trkpt><trkpt lat="42.642245" lon="-8.9913617"><ele>171.5</ele><time>2026-04-17T08:45:53.877Z</time></trkpt><trkpt lat="42.642135" lon="-8.9914033"><ele>174.0</ele><time>2026-04-17T08:45:54.877Z</time></trkpt><trkpt lat="42.642025" lon="-8.9914517"><ele>178.0</ele><time>2026-04-17T08:45:55.878Z</time></trkpt><trkpt lat="42.6419067" lon="-8.99151"><ele>182.0</ele><time>2026-04-17T08:45:56.877Z</time></trkpt><trkpt lat="42.64179" lon="-8.9915733"><ele>186.0</ele><time>2026-04-17T08:45:57.877Z</time></trkpt><trkpt lat="42.6416817" lon="-8.99162"><ele>190.0</ele><time>2026-04-17T08:45:58.878Z</time></trkpt><trkpt lat="42.6415583" lon="-8.9916683"><ele>187.5</ele><time>2026-04-17T08:45:59.878Z</time></trkpt><trkpt lat="42.64145" lon="-8.9917183"><ele>185.0</ele><time>2026-04-17T08:46:00.878Z</time></trkpt><trkpt lat="42.6413367" lon="-8.9917617"><ele>182.5</ele><time>2026-04-17T08:46:01.877Z</time></trkpt><trkpt lat="42.64122" lon="-8.9917967"><ele>180.0</ele><time>2026-04-17T08:46:02.877Z</time></trkpt><trkpt lat="42.64111" lon="-8.9917983"><ele>180.0</ele><time>2026-04-17T08:46:03.878Z</time></trkpt><trkpt lat="42.640995" lon="-8.9917917"><ele>180.0</ele><time>2026-04-17T08:46:04.877Z</time></trkpt><trkpt lat="42.64087" lon="-8.991775"><ele>180.0</ele><time>2026-04-17T08:46:05.877Z</time></trkpt><trkpt lat="42.6407583" lon="-8.99174"><ele>180.0</ele><time>2026-04-17T08:46:06.878Z</time></trkpt><trkpt lat="42.640645" lon="-8.9916917"><ele>183.4</ele><time>2026-04-17T08:46:07.877Z</time></trkpt><trkpt lat="42.640535" lon="-8.99164"><ele>186.8</ele><time>2026-04-17T08:46:08.878Z</time></trkpt><trkpt lat="42.640435" lon="-8.9916167"><ele>190.2</ele><time>2026-04-17T08:46:09.878Z</time></trkpt><trkpt lat="42.640335" lon="-8.99162"><ele>193.6</ele><time>2026-04-17T08:46:10.878Z</time></trkpt><trkpt lat="42.640225" lon="-8.99164"><ele>197.0</ele><time>2026-04-17T08:46:11.878Z</time></trkpt><trkpt lat="42.6401117" lon="-8.991665"><ele>195.0</ele><time>2026-04-17T08:46:12.878Z</time></trkpt><trkpt lat="42.6399983" lon="-8.9916833"><ele>193.0</ele><time>2026-04-17T08:46:13.877Z</time></trkpt><trkpt lat="42.639885" lon="-8.9917033"><ele>191.0</ele><time>2026-04-17T08:46:14.877Z</time></trkpt><trkpt lat="42.6397817" lon="-8.9917217"><ele>189.0</ele><time>2026-04-17T08:46:15.877Z</time></trkpt><trkpt lat="42.63968" lon="-8.991775"><ele>187.0</ele><time>2026-04-17T08:46:16.878Z</time></trkpt><trkpt lat="42.63958" lon="-8.9918483"><ele>187.0</ele><time>2026-04-17T08:46:17.878Z</time></trkpt><trkpt lat="42.6395033" lon="-8.991955"><ele>187.0</ele><time>2026-04-17T08:46:18.878Z</time></trkpt><trkpt lat="42.639435" lon="-8.9920733"><ele>187.0</ele><time>2026-04-17T08:46:19.877Z</time></trkpt><trkpt lat="42.6393667" lon="-8.99219"><ele>187.0</ele><time>2026-04-17T08:46:20.877Z</time></trkpt><trkpt lat="42.6392783" lon="-8.9923"><ele>190.0</ele><time>2026-04-17T08:46:21.878Z</time></trkpt><trkpt lat="42.6391933" lon="-8.9923933"><ele>193.0</ele><time>2026-04-17T08:46:22.878Z</time></trkpt><trkpt lat="42.639105" lon="-8.9924817"><ele>196.0</ele><time>2026-04-17T08:46:23.877Z</time></trkpt><trkpt lat="42.6390017" lon="-8.9925633"><ele>199.0</ele><time>2026-04-17T08:46:24.878Z</time></trkpt><trkpt lat="42.638885" lon="-8.99264"><ele>199.0</ele><time>2026-04-17T08:46:25.877Z</time></trkpt><trkpt lat="42.6387583" lon="-8.9927033"><ele>199.0</ele><time>2026-04-17T08:46:26.877Z</time></trkpt><trkpt lat="42.63864" lon="-8.9927667"><ele>199.0</ele><time>2026-04-17T08:46:27.878Z</time></trkpt><trkpt lat="42.6385133" lon="-8.9928367"><ele>199.0</ele><time>2026-04-17T08:46:28.877Z</time></trkpt><trkpt lat="42.638375" lon="-8.9929133"><ele>202.0</ele><time>2026-04-17T08:46:29.878Z</time></trkpt><trkpt lat="42.6382633" lon="-8.99298"><ele>205.0</ele><time>2026-04-17T08:46:30.877Z</time></trkpt><trkpt lat="42.63817" lon="-8.993015"><ele>207.99999999999997</ele><time>2026-04-17T08:46:31.877Z</time></trkpt><trkpt lat="42.638105" lon="-8.9930217"><ele>211.0</ele><time>2026-04-17T08:46:32.877Z</time></trkpt><trkpt lat="42.63806" lon="-8.99296"><ele>214.0</ele><time>2026-04-17T08:46:34.879Z</time></trkpt><trkpt lat="42.638115" lon="-8.9928417"><ele>214.0</ele><time>2026-04-17T08:46:36.879Z</time></trkpt><trkpt lat="42.638175" lon="-8.9927517"><ele>214.0</ele><time>2026-04-17T08:46:37.878Z</time></trkpt><trkpt lat="42.640645" lon="-8.9916917"><ele>212.0</ele><time>2026-04-17T08:46:07.877Z</time></trkpt><trkpt lat="42.640535" lon="-8.99164"><ele>209.99999999999997</ele><time>2026-04-17T08:46:08.878Z</time></trkpt><trkpt lat="42.640435" lon="-8.9916167"><ele>208.0</ele><time>2026-04-17T08:46:09.878Z</time></trkpt><trkpt lat="42.640335" lon="-8.99162"><ele>206.0</ele><time>2026-04-17T08:46:10.878Z</time></trkpt><trkpt lat="42.640225" lon="-8.99164"><ele>204.0</ele><time>2026-04-17T08:46:11.878Z</time></trkpt><trkpt lat="42.6401117" lon="-8.991665"><ele>200.6</ele><time>2026-04-17T08:46:12.878Z</time></trkpt><trkpt lat="42.6399983" lon="-8.9916833"><ele>197.2</ele><time>2026-04-17T08:46:13.877Z</time></trkpt><trkpt lat="42.639885" lon="-8.9917033"><ele>193.79999999999998</ele><time>2026-04-17T08:46:14.877Z</time></trkpt><trkpt lat="42.6397817" lon="-8.9917217"><ele>190.39999999999998</ele><time>2026-04-17T08:46:15.877Z</time></trkpt><trkpt lat="42.63968" lon="-8.991775"><ele>187.0</ele><time>2026-04-17T08:46:16.878Z</time></trkpt><trkpt lat="42.63958" lon="-8.9918483"><ele>187.0</ele><time>2026-04-17T08:46:17.878Z</time></trkpt><trkpt lat="42.6395033" lon="-8.991955"><ele>187.0</ele><time>2026-04-17T08:46:18.878Z</time></trkpt><trkpt lat="42.639435" lon="-8.9920733"><ele>187.0</ele><time>2026-04-17T08:46:19.877Z</time></trkpt><trkpt lat="42.6393667" lon="-8.99219"><ele>187.0</ele><time>2026-04-17T08:46:20.877Z</time></trkpt><trkpt lat="42.6392783" lon="-8.9923"><ele>190.0</ele><time>2026-04-17T08:46:21.878Z</time></trkpt><trkpt lat="42.6391933" lon="-8.9923933"><ele>193.0</ele><time>2026-04-17T08:46:22.878Z</time></trkpt><trkpt lat="42.639105" lon="-8.9924817"><ele>196.0</ele><time>2026-04-17T08:46:23.877Z</time></trkpt><trkpt lat="42.6390017" lon="-8.9925633"><ele>199.0</ele><time>2026-04-17T08:46:24.878Z</time></trkpt><trkpt lat="42.638885" lon="-8.99264"><ele>199.0</ele><time>2026-04-17T08:46:25.877Z</time></trkpt><trkpt lat="42.6387583" lon="-8.9927033"><ele>199.0</ele><time>2026-04-17T08:46:26.877Z</time></trkpt><trkpt lat="42.63864" lon="-8.9927667"><ele>199.0</ele><time>2026-04-17T08:46:27.878Z</time></trkpt><trkpt lat="42.6385133" lon="-8.9928367"><ele>199.0</ele><time>2026-04-17T08:46:28.877Z</time></trkpt><trkpt lat="42.638375" lon="-8.9929133"><ele>202.0</ele><time>2026-04-17T08:46:29.878Z</time></trkpt><trkpt lat="42.6382633" lon="-8.99298"><ele>205.0</ele><time>2026-04-17T08:46:30.877Z</time></trkpt><trkpt lat="42.63817" lon="-8.993015"><ele>207.99999999999997</ele><time>2026-04-17T08:46:31.877Z</time></trkpt><trkpt lat="42.638105" lon="-8.9930217"><ele>211.0</ele><time>2026-04-17T08:46:32.877Z</time></trkpt><trkpt lat="42.63806" lon="-8.99296"><ele>214.0</ele><time>2026-04-17T08:46:34.879Z</time></trkpt><trkpt lat="42.638115" lon="-8.9928417"><ele>214.0</ele><time>2026-04-17T08:46:36.879Z</time></trkpt><trkpt lat="42.638175" lon="-8.9927517"><ele>214.0</ele><time>2026-04-17T08:46:37.878Z</time></trkpt><trkpt lat="42.638265" lon="-8.9926167"><ele>214.0</ele><time>2026-04-17T08:46:38.878Z</time></trkpt><trkpt lat="42.63838" lon="-8.99245"><ele>214.0</ele><time>2026-04-17T08:46:39.878Z</time></trkpt><trkpt lat="42.6385383" lon="-8.9922533"><ele>211.33333333333331</ele><time>2026-04-17T08:46:40.879Z</time></trkpt><trkpt lat="42.63867" lon="-8.9920733"><ele>208.66666666666669</ele><time>2026-04-17T08:46:41.878Z</time></trkpt><trkpt lat="42.63879" lon="-8.991885"><ele>206.0</ele><time>2026-04-17T08:46:42.878Z</time></trkpt><trkpt lat="42.638895" lon="-8.991685"><ele>212.0</ele><time>2026-04-17T08:46:43.878Z</time></trkpt><trkpt lat="42.6389967" lon="-8.9914683"><ele>218.0</ele><time>2026-04-17T08:46:44.878Z</time></trkpt><trkpt lat="42.6390867" lon="-8.99128"><ele>224.0</ele><time>2026-04-17T08:46:45.879Z</time></trkpt><trkpt lat="42.6391917" lon="-8.99114"><ele>224.0</ele><time>2026-04-17T08:46:46.879Z</time></trkpt><trkpt lat="42.6393267" lon="-8.991005"><ele>224.0</ele><time>2026-04-17T08:46:47.878Z</time></trkpt><trkpt lat="42.6394933" lon="-8.9908533"><ele>224.0</ele><time>2026-04-17T08:46:48.878Z</time></trkpt><trkpt lat="42.639655" lon="-8.9907"><ele>224.39999999999998</ele><time>2026-04-17T08:46:49.878Z</time></trkpt><trkpt lat="42.63977" lon="-8.990585"><ele>224.79999999999998</ele><time>2026-04-17T08:46:50.878Z</time></trkpt><trkpt lat="42.6398483" lon="-8.9905117"><ele>225.20000000000002</ele><time>2026-04-17T08:46:51.879Z</time></trkpt><trkpt lat="42.639885" lon="-8.9903733"><ele>225.60000000000002</ele><time>2026-04-17T08:46:53.879Z</time></trkpt><trkpt lat="42.6398217" lon="-8.990265"><ele>226.0</ele><time>2026-04-17T08:46:55.878Z</time></trkpt><trkpt lat="42.6397433" lon="-8.9902433"><ele>226.0</ele><time>2026-04-17T08:46:56.879Z</time></trkpt><trkpt lat="42.63967" lon="-8.990235"><ele>226.0</ele><time>2026-04-17T08:46:57.878Z</time></trkpt><trkpt lat="42.639565" lon="-8.9902883"><ele>226.0</ele><time>2026-04-17T08:46:58.878Z</time></trkpt><trkpt lat="42.639435" lon="-8.9903733"><ele>226.0</ele><time>2026-04-17T08:46:59.879Z</time></trkpt><trkpt lat="42.6392833" lon="-8.9904817"><ele>231.5</ele><time>2026-04-17T08:47:00.878Z</time></trkpt><trkpt lat="42.639085" lon="-8.9906167"><ele>237.0</ele><time>2026-04-17T08:47:01.878Z</time></trkpt><trkpt lat="42.6388533" lon="-8.99074"><ele>237.0</ele><time>2026-04-17T08:47:02.879Z</time></trkpt><trkpt lat="42.6386467" lon="-8.990845"><ele>237.0</ele><time>2026-04-17T08:47:03.879Z</time></trkpt><trkpt lat="42.6384567" lon="-8.9909383"><ele>237.0</ele><time>2026-04-17T08:47:04.878Z</time></trkpt><trkpt lat="42.6383133" lon="-8.99098"><ele>237.0</ele><time>2026-04-17T08:47:05.879Z</time></trkpt><trkpt lat="42.6382" lon="-8.990975"><ele>237.0</ele><time>2026-04-17T08:47:06.879Z</time></trkpt><trkpt lat="42.6381067" lon="-8.9909083"><ele>237.0</ele><time>2026-04-17T08:47:07.878Z</time></trkpt><trkpt lat="42.637995" lon="-8.990795"><ele>237.0</ele><time>2026-04-17T08:47:08.878Z</time></trkpt><trkpt lat="42.6378783" lon="-8.990675"><ele>241.0</ele><time>2026-04-17T08:47:09.879Z</time></trkpt><trkpt lat="42.6377683" lon="-8.9905967"><ele>245.0</ele><time>2026-04-17T08:47:10.879Z</time></trkpt><trkpt lat="42.63766" lon="-8.990585"><ele>249.0</ele><time>2026-04-17T08:47:11.878Z</time></trkpt><trkpt lat="42.6375317" lon="-8.9906133"><ele>253.0</ele><time>2026-04-17T08:47:12.879Z</time></trkpt><trkpt lat="42.6374117" lon="-8.9906667"><ele>253.0</ele><time>2026-04-17T08:47:13.878Z</time></trkpt><trkpt lat="42.63728" lon="-8.9907117"><ele>253.0</ele><time>2026-04-17T08:47:14.878Z</time></trkpt><trkpt lat="42.6371483" lon="-8.9907317"><ele>253.0</ele><time>2026-04-17T08:47:15.878Z</time></trkpt><trkpt lat="42.6369967" lon="-8.99071"><ele>253.0</ele><time>2026-04-17T08:47:16.878Z</time></trkpt><trkpt lat="42.636825" lon="-8.9906517"><ele>253.33333333333331</ele><time>2026-04-17T08:47:17.878Z</time></trkpt><trkpt lat="42.6366317" lon="-8.9905783"><ele>253.66666666666669</ele><time>2026-04-17T08:47:18.879Z</time></trkpt><trkpt lat="42.6364267" lon="-8.99051"><ele>254.0</ele><time>2026-04-17T08:47:19.878Z</time></trkpt><trkpt lat="42.636215" lon="-8.9904383"><ele>254.5</ele><time>2026-04-17T08:47:20.878Z</time></trkpt><trkpt lat="42.6359983" lon="-8.9903817"><ele>255.0</ele><time>2026-04-17T08:47:21.878Z</time></trkpt><trkpt lat="42.63577" lon="-8.990315"><ele>255.0</ele><time>2026-04-17T08:47:22.879Z</time></trkpt><trkpt lat="42.6355483" lon="-8.9902617"><ele>255.0</ele><time>2026-04-17T08:47:23.879Z</time></trkpt><trkpt lat="42.6353533" lon="-8.99022"><ele>255.0</ele><time>2026-04-17T08:47:24.878Z</time></trkpt><trkpt lat="42.63518" lon="-8.9902017"><ele>254.4</ele><time>2026-04-17T08:47:25.879Z</time></trkpt><trkpt lat="42.635035" lon="-8.9901783"><ele>253.8</ele><time>2026-04-17T08:47:26.879Z</time></trkpt><trkpt lat="42.6349233" lon="-8.9901433"><ele>253.2</ele><time>2026-04-17T08:47:27.878Z</time></trkpt><trkpt lat="42.634835" lon="-8.990105"><ele>252.6</ele><time>2026-04-17T08:47:28.878Z</time></trkpt><trkpt lat="42.634775" lon="-8.9900567"><ele>252.0</ele><time>2026-04-17T08:47:29.878Z</time></trkpt><trkpt lat="42.63472" lon="-8.989985"><ele>255.75</ele><time>2026-04-17T08:47:30.879Z</time></trkpt><trkpt lat="42.634675" lon="-8.989885"><ele>259.5</ele><time>2026-04-17T08:47:31.879Z</time></trkpt><trkpt lat="42.6346267" lon="-8.9897567"><ele>263.25</ele><time>2026-04-17T08:47:32.879Z</time></trkpt><trkpt lat="42.6345633" lon="-8.9895983"><ele>267.0</ele><time>2026-04-17T08:47:33.878Z</time></trkpt><trkpt lat="42.63449" lon="-8.9894067"><ele>267.2</ele><time>2026-04-17T08:47:34.878Z</time></trkpt><trkpt lat="42.6344133" lon="-8.9892483"><ele>267.4</ele><time>2026-04-17T08:47:35.878Z</time></trkpt><trkpt lat="42.6343367" lon="-8.98915"><ele>267.6</ele><time>2026-04-17T08:47:36.879Z</time></trkpt><trkpt lat="42.634255" lon="-8.9891133"><ele>267.8</ele><time>2026-04-17T08:47:37.878Z</time></trkpt><trkpt lat="42.6341483" lon="-8.9891"><ele>268.0</ele><time>2026-04-17T08:47:38.878Z</time></trkpt><trkpt lat="42.6340267" lon="-8.98908"><ele>268.0</ele><time>2026-04-17T08:47:39.878Z</time></trkpt><trkpt lat="42.6339" lon="-8.9890633"><ele>268.0</ele><time>2026-04-17T08:47:40.879Z</time></trkpt><trkpt lat="42.6337967" lon="-8.989045"><ele>268.0</ele><time>2026-04-17T08:47:41.878Z</time></trkpt><trkpt lat="42.633715" lon="-8.989015"><ele>268.0</ele><time>2026-04-17T08:47:42.878Z</time></trkpt><trkpt lat="42.6336417" lon="-8.9889533"><ele>268.0</ele><time>2026-04-17T08:47:43.879Z</time></trkpt><trkpt lat="42.6335567" lon="-8.9888467"><ele>265.75</ele><time>2026-04-17T08:47:44.879Z</time></trkpt><trkpt lat="42.633465" lon="-8.9887117"><ele>263.5</ele><time>2026-04-17T08:47:45.879Z</time></trkpt><trkpt lat="42.6333683" lon="-8.98856"><ele>261.25</ele><time>2026-04-17T08:47:46.879Z</time></trkpt><trkpt lat="42.63328" lon="-8.988405"><ele>259.0</ele><time>2026-04-17T08:47:47.878Z</time></trkpt><trkpt lat="42.633185" lon="-8.988255"><ele>265.0</ele><time>2026-04-17T08:47:48.879Z</time></trkpt><trkpt lat="42.6330817" lon="-8.9881167"><ele>271.0</ele><time>2026-04-17T08:47:49.879Z</time></trkpt><trkpt lat="42.6329733" lon="-8.9879583"><ele>277.0</ele><time>2026-04-17T08:47:50.878Z</time></trkpt><trkpt lat="42.6328717" lon="-8.987805"><ele>277.75</ele><time>2026-04-17T08:47:51.878Z</time></trkpt><trkpt lat="42.6327867" lon="-8.98765"><ele>278.5</ele><time>2026-04-17T08:47:52.879Z</time></trkpt><trkpt lat="42.6327067" lon="-8.9874783"><ele>279.25</ele><time>2026-04-17T08:47:53.879Z</time></trkpt><trkpt lat="42.6326333" lon="-8.98729"><ele>280.0</ele><time>2026-04-17T08:47:54.879Z</time></trkpt><trkpt lat="42.632545" lon="-8.9870667"><ele>280.0</ele><time>2026-04-17T08:47:55.878Z</time></trkpt><trkpt lat="42.6324583" lon="-8.9868317"><ele>280.0</ele><time>2026-04-17T08:47:56.878Z</time></trkpt><trkpt lat="42.6323567" lon="-8.986605"><ele>280.0</ele><time>2026-04-17T08:47:57.878Z</time></trkpt><trkpt lat="42.6322333" lon="-8.986385"><ele>279.66666666666663</ele><time>2026-04-17T08:47:58.879Z</time></trkpt><trkpt lat="42.6321133" lon="-8.9861883"><ele>279.3333333333333</ele><time>2026-04-17T08:47:59.878Z</time></trkpt><trkpt lat="42.6320067" lon="-8.9860433"><ele>279.0</ele><time>2026-04-17T08:48:00.879Z</time></trkpt><trkpt lat="42.6319017" lon="-8.9859617"><ele>279.0</ele><time>2026-04-17T08:48:01.878Z</time></trkpt><trkpt lat="42.6317867" lon="-8.985945"><ele>279.0</ele><time>2026-04-17T08:48:02.878Z</time></trkpt><trkpt lat="42.6316483" lon="-8.985945"><ele>279.0</ele><time>2026-04-17T08:48:03.878Z</time></trkpt><trkpt lat="42.6315017" lon="-8.985955"><ele>279.0</ele><time>2026-04-17T08:48:04.879Z</time></trkpt><trkpt lat="42.63136" lon="-8.9859533"><ele>279.0</ele><time>2026-04-17T08:48:05.878Z</time></trkpt><trkpt lat="42.6312167" lon="-8.9859317"><ele>279.0</ele><time>2026-04-17T08:48:06.879Z</time></trkpt><trkpt lat="42.6310733" lon="-8.9858483"><ele>279.0</ele><time>2026-04-17T08:48:07.879Z</time></trkpt><trkpt lat="42.63093" lon="-8.9857517"><ele>281.75</ele><time>2026-04-17T08:48:08.878Z</time></trkpt><trkpt lat="42.6308033" lon="-8.9856667"><ele>284.5</ele><time>2026-04-17T08:48:09.879Z</time></trkpt><trkpt lat="42.63067" lon="-8.98561"><ele>287.25</ele><time>2026-04-17T08:48:10.878Z</time></trkpt><trkpt lat="42.6305283" lon="-8.98561"><ele>290.0</ele><time>2026-04-17T08:48:11.879Z</time></trkpt><trkpt lat="42.63038" lon="-8.98564"><ele>289.6666666666667</ele><time>2026-04-17T08:48:12.878Z</time></trkpt><trkpt lat="42.630225" lon="-8.9856567"><ele>289.3333333333333</ele><time>2026-04-17T08:48:13.878Z</time></trkpt><trkpt lat="42.6300533" lon="-8.98565"><ele>289.0</ele><time>2026-04-17T08:48:14.878Z</time></trkpt><trkpt lat="42.629865" lon="-8.9856267"><ele>289.0</ele><time>2026-04-17T08:48:15.879Z</time></trkpt><trkpt lat="42.6296883" lon="-8.9855917"><ele>289.0</ele><time>2026-04-17T08:48:16.878Z</time></trkpt><trkpt lat="42.629535" lon="-8.9855583"><ele>289.0</ele><time>2026-04-17T08:48:17.878Z</time></trkpt><trkpt lat="42.6294183" lon="-8.9855067"><ele>287.25</ele><time>2026-04-17T08:48:18.879Z</time></trkpt><trkpt lat="42.629335" lon="-8.9854467"><ele>285.5</ele><time>2026-04-17T08:48:19.879Z</time></trkpt><trkpt lat="42.6292683" lon="-8.9853567"><ele>283.75</ele><time>2026-04-17T08:48:20.879Z</time></trkpt><trkpt lat="42.6292183" lon="-8.9852183"><ele>282.0</ele><time>2026-04-17T08:48:21.878Z</time></trkpt><trkpt lat="42.6291883" lon="-8.9850167"><ele>285.0</ele><time>2026-04-17T08:48:22.879Z</time></trkpt><trkpt lat="42.629145" lon="-8.9847633"><ele>288.0</ele><time>2026-04-17T08:48:23.878Z</time></trkpt><trkpt lat="42.6290817" lon="-8.98452"><ele>291.0</ele><time>2026-04-17T08:48:24.879Z</time></trkpt><trkpt lat="42.6290217" lon="-8.9842567"><ele>293.0</ele><time>2026-04-17T08:48:25.878Z</time></trkpt><trkpt lat="42.6289667" lon="-8.9839833"><ele>295.0</ele><time>2026-04-17T08:48:26.878Z</time></trkpt><trkpt lat="42.6288933" lon="-8.9837033"><ele>297.0</ele><time>2026-04-17T08:48:27.879Z</time></trkpt><trkpt lat="42.628815" lon="-8.98341"><ele>300.5</ele><time>2026-04-17T08:48:28.879Z</time></trkpt><trkpt lat="42.6287383" lon="-8.9831067"><ele>304.0</ele><time>2026-04-17T08:48:29.879Z</time></trkpt><trkpt lat="42.6286667" lon="-8.9827667"><ele>301.0</ele><time>2026-04-17T08:48:30.878Z</time></trkpt><trkpt lat="42.6286133" lon="-8.98241"><ele>298.0</ele><time>2026-04-17T08:48:31.879Z</time></trkpt><trkpt lat="42.6285617" lon="-8.9820467"><ele>298.0</ele><time>2026-04-17T08:48:32.879Z</time></trkpt><trkpt lat="42.6285" lon="-8.9816717"><ele>298.0</ele><time>2026-04-17T08:48:33.879Z</time></trkpt><trkpt lat="42.62845" lon="-8.9812983"><ele>298.0</ele><time>2026-04-17T08:48:34.879Z</time></trkpt><trkpt lat="42.628405" lon="-8.9809717"><ele>298.0</ele><time>2026-04-17T08:48:35.879Z</time></trkpt><trkpt lat="42.62835" lon="-8.9806717"><ele>299.0</ele><time>2026-04-17T08:48:36.879Z</time></trkpt><trkpt lat="42.6283017" lon="-8.9803933"><ele>300.0</ele><time>2026-04-17T08:48:37.879Z</time></trkpt><trkpt lat="42.6282617" lon="-8.9801467"><ele>301.0</ele><time>2026-04-17T08:48:38.878Z</time></trkpt><trkpt lat="42.6282217" lon="-8.979915"><ele>302.0</ele><time>2026-04-17T08:48:39.878Z</time></trkpt><trkpt lat="42.6281633" lon="-8.9797083"><ele>303.0</ele><time>2026-04-17T08:48:40.878Z</time></trkpt><trkpt lat="42.6280867" lon="-8.979515"><ele>304.0</ele><time>2026-04-17T08:48:41.878Z</time></trkpt><trkpt lat="42.6279883" lon="-8.9793233"><ele>305.0</ele><time>2026-04-17T08:48:42.879Z</time></trkpt><trkpt lat="42.62788" lon="-8.979145"><ele>306.0</ele><time>2026-04-17T08:48:43.878Z</time></trkpt><trkpt lat="42.6277833" lon="-8.978995"><ele>307.0</ele><time>2026-04-17T08:48:44.878Z</time></trkpt><trkpt lat="42.6277233" lon="-8.9788717"><ele>308.0</ele><time>2026-04-17T08:48:45.878Z</time></trkpt><trkpt lat="42.627715" lon="-8.9787183"><ele>306.5</ele><time>2026-04-17T08:48:47.878Z</time></trkpt><trkpt lat="42.6277333" lon="-8.9786133"><ele>305.0</ele><time>2026-04-17T08:48:48.879Z</time></trkpt><trkpt lat="42.6277483" lon="-8.9784633"><ele>303.5</ele><time>2026-04-17T08:48:49.879Z</time></trkpt><trkpt lat="42.627755" lon="-8.9782617"><ele>302.0</ele><time>2026-04-17T08:48:50.878Z</time></trkpt><trkpt lat="42.6277433" lon="-8.9780517"><ele>302.0</ele><time>2026-04-17T08:48:51.879Z</time></trkpt><trkpt lat="42.6277133" lon="-8.977855"><ele>302.0</ele><time>2026-04-17T08:48:52.878Z</time></trkpt><trkpt lat="42.62765" lon="-8.9776683"><ele>302.0</ele><time>2026-04-17T08:48:53.878Z</time></trkpt><trkpt lat="42.6275683" lon="-8.9774683"><ele>305.0</ele><time>2026-04-17T08:48:54.878Z</time></trkpt><trkpt lat="42.62747" lon="-8.977255"><ele>308.0</ele><time>2026-04-17T08:48:55.879Z</time></trkpt><trkpt lat="42.6273483" lon="-8.9770233"><ele>311.0</ele><time>2026-04-17T08:48:56.878Z</time></trkpt><trkpt lat="42.6272317" lon="-8.9767817"><ele>308.6666666666667</ele><time>2026-04-17T08:48:57.878Z</time></trkpt><trkpt lat="42.6271117" lon="-8.97656"><ele>306.3333333333333</ele><time>2026-04-17T08:48:58.878Z</time></trkpt><trkpt lat="42.6269883" lon="-8.9763533"><ele>304.0</ele><time>2026-04-17T08:48:59.879Z</time></trkpt><trkpt lat="42.626845" lon="-8.9761633"><ele>304.0</ele><time>2026-04-17T08:49:00.879Z</time></trkpt><trkpt lat="42.62669" lon="-8.9759867"><ele>304.0</ele><time>2026-04-17T08:49:01.879Z</time></trkpt><trkpt lat="42.6265433" lon="-8.9758183"><ele>304.0</ele><time>2026-04-17T08:49:02.878Z</time></trkpt><trkpt lat="42.6264133" lon="-8.9756683"><ele>303.25</ele><time>2026-04-17T08:49:03.878Z</time></trkpt><trkpt lat="42.6263033" lon="-8.9755383"><ele>302.5</ele><time>2026-04-17T08:49:04.878Z</time></trkpt><trkpt lat="42.6262367" lon="-8.9754117"><ele>301.75</ele><time>2026-04-17T08:49:05.879Z</time></trkpt><trkpt lat="42.626205" lon="-8.9752617"><ele>301.0</ele><time>2026-04-17T08:49:06.879Z</time></trkpt><trkpt lat="42.62835" lon="-8.9806717"><ele>301.0</ele><time>2026-04-17T08:48:36.879Z</time></trkpt><trkpt lat="42.6283017" lon="-8.9803933"><ele>301.0</ele><time>2026-04-17T08:48:37.879Z</time></trkpt><trkpt lat="42.6282617" lon="-8.9801467"><ele>301.0</ele><time>2026-04-17T08:48:38.878Z</time></trkpt><trkpt lat="42.6282217" lon="-8.979915"><ele>302.0</ele><time>2026-04-17T08:48:39.878Z</time></trkpt><trkpt lat="42.6281633" lon="-8.9797083"><ele>303.0</ele><time>2026-04-17T08:48:40.878Z</time></trkpt><trkpt lat="42.6280867" lon="-8.979515"><ele>304.0</ele><time>2026-04-17T08:48:41.878Z</time></trkpt><trkpt lat="42.6279883" lon="-8.9793233"><ele>305.0</ele><time>2026-04-17T08:48:42.879Z</time></trkpt><trkpt lat="42.62788" lon="-8.979145"><ele>306.0</ele><time>2026-04-17T08:48:43.878Z</time></trkpt><trkpt lat="42.6277833" lon="-8.978995"><ele>307.0</ele><time>2026-04-17T08:48:44.878Z</time></trkpt><trkpt lat="42.6277233" lon="-8.9788717"><ele>308.0</ele><time>2026-04-17T08:48:45.878Z</time></trkpt><trkpt lat="42.627715" lon="-8.9787183"><ele>306.5</ele><time>2026-04-17T08:48:47.878Z</time></trkpt><trkpt lat="42.6277333" lon="-8.9786133"><ele>305.0</ele><time>2026-04-17T08:48:48.879Z</time></trkpt><trkpt lat="42.6277483" lon="-8.9784633"><ele>303.5</ele><time>2026-04-17T08:48:49.879Z</time></trkpt><trkpt lat="42.627755" lon="-8.9782617"><ele>302.0</ele><time>2026-04-17T08:48:50.878Z</time></trkpt><trkpt lat="42.6277433" lon="-8.9780517"><ele>302.0</ele><time>2026-04-17T08:48:51.879Z</time></trkpt><trkpt lat="42.6277133" lon="-8.977855"><ele>302.0</ele><time>2026-04-17T08:48:52.878Z</time></trkpt><trkpt lat="42.62765" lon="-8.9776683"><ele>302.0</ele><time>2026-04-17T08:48:53.878Z</time></trkpt><trkpt lat="42.6275683" lon="-8.9774683"><ele>305.0</ele><time>2026-04-17T08:48:54.878Z</time></trkpt><trkpt lat="42.62747" lon="-8.977255"><ele>308.0</ele><time>2026-04-17T08:48:55.879Z</time></trkpt><trkpt lat="42.6273483" lon="-8.9770233"><ele>311.0</ele><time>2026-04-17T08:48:56.878Z</time></trkpt><trkpt lat="42.6272317" lon="-8.9767817"><ele>308.6666666666667</ele><time>2026-04-17T08:48:57.878Z</time></trkpt><trkpt lat="42.6271117" lon="-8.97656"><ele>306.3333333333333</ele><time>2026-04-17T08:48:58.878Z</time></trkpt><trkpt lat="42.6269883" lon="-8.9763533"><ele>304.0</ele><time>2026-04-17T08:48:59.879Z</time></trkpt><trkpt lat="42.626845" lon="-8.9761633"><ele>304.0</ele><time>2026-04-17T08:49:00.879Z</time></trkpt><trkpt lat="42.62669" lon="-8.9759867"><ele>304.0</ele><time>2026-04-17T08:49:01.879Z</time></trkpt><trkpt lat="42.6265433" lon="-8.9758183"><ele>304.0</ele><time>2026-04-17T08:49:02.878Z</time></trkpt><trkpt lat="42.6264133" lon="-8.9756683"><ele>307.5</ele><time>2026-04-17T08:49:03.878Z</time></trkpt><trkpt lat="42.6263033" lon="-8.9755383"><ele>311.0</ele><time>2026-04-17T08:49:04.878Z</time></trkpt><trkpt lat="42.6262367" lon="-8.9754117"><ele>314.5</ele><time>2026-04-17T08:49:05.879Z</time></trkpt><trkpt lat="42.626205" lon="-8.9752617"><ele>318.0</ele><time>2026-04-17T08:49:06.879Z</time></trkpt><trkpt lat="42.6262133" lon="-8.975085"><ele>320.0</ele><time>2026-04-17T08:49:07.878Z</time></trkpt><trkpt lat="42.6262583" lon="-8.9748883"><ele>322.0</ele><time>2026-04-17T08:49:08.878Z</time></trkpt><trkpt lat="42.626325" lon="-8.97467"><ele>324.0</ele><time>2026-04-17T08:49:09.878Z</time></trkpt><trkpt lat="42.6263917" lon="-8.974435"><ele>324.0</ele><time>2026-04-17T08:49:10.878Z</time></trkpt><trkpt lat="42.626445" lon="-8.9742183"><ele>324.0</ele><time>2026-04-17T08:49:11.878Z</time></trkpt><trkpt lat="42.626475" lon="-8.974045"><ele>324.0</ele><time>2026-04-17T08:49:12.879Z</time></trkpt><trkpt lat="42.6264717" lon="-8.973925"><ele>324.0</ele><time>2026-04-17T08:49:13.878Z</time></trkpt><trkpt lat="42.6264583" lon="-8.9738383"><ele>323.75</ele><time>2026-04-17T08:49:14.878Z</time></trkpt><trkpt lat="42.62642" lon="-8.9737617"><ele>323.5</ele><time>2026-04-17T08:49:15.878Z</time></trkpt><trkpt lat="42.6263383" lon="-8.9736833"><ele>323.25</ele><time>2026-04-17T08:49:16.878Z</time></trkpt><trkpt lat="42.6262133" lon="-8.9736083"><ele>323.0</ele><time>2026-04-17T08:49:17.878Z</time></trkpt><trkpt lat="42.6260133" lon="-8.9735"><ele>321.0</ele><time>2026-04-17T08:49:18.879Z</time></trkpt><trkpt lat="42.6258533" lon="-8.973365"><ele>319.0</ele><time>2026-04-17T08:49:19.878Z</time></trkpt><trkpt lat="42.6257067" lon="-8.9731817"><ele>317.0</ele><time>2026-04-17T08:49:20.878Z</time></trkpt><trkpt lat="42.6255617" lon="-8.972985"><ele>317.0</ele><time>2026-04-17T08:49:21.879Z</time></trkpt><trkpt lat="42.6254483" lon="-8.9727933"><ele>317.0</ele><time>2026-04-17T08:49:22.878Z</time></trkpt><trkpt lat="42.6253483" lon="-8.97264"><ele>317.0</ele><time>2026-04-17T08:49:23.878Z</time></trkpt><trkpt lat="42.6252733" lon="-8.9725383"><ele>317.0</ele><time>2026-04-17T08:49:24.878Z</time></trkpt><trkpt lat="42.625205" lon="-8.9724883"><ele>316.6</ele><time>2026-04-17T08:49:25.879Z</time></trkpt><trkpt lat="42.6251367" lon="-8.97247"><ele>316.2</ele><time>2026-04-17T08:49:26.878Z</time></trkpt><trkpt lat="42.6250533" lon="-8.972485"><ele>315.8</ele><time>2026-04-17T08:49:27.878Z</time></trkpt><trkpt lat="42.624945" lon="-8.9725333"><ele>315.4</ele><time>2026-04-17T08:49:28.878Z</time></trkpt><trkpt lat="42.624805" lon="-8.9726033"><ele>315.0</ele><time>2026-04-17T08:49:29.879Z</time></trkpt><trkpt lat="42.6245917" lon="-8.972695"><ele>308.6666666666667</ele><time>2026-04-17T08:49:30.878Z</time></trkpt><trkpt lat="42.6243733" lon="-8.9727667"><ele>302.33333333333337</ele><time>2026-04-17T08:49:31.879Z</time></trkpt><trkpt lat="42.6241783" lon="-8.972835"><ele>296.0</ele><time>2026-04-17T08:49:32.879Z</time></trkpt><trkpt lat="42.6240133" lon="-8.972905"><ele>296.0</ele><time>2026-04-17T08:49:33.878Z</time></trkpt><trkpt lat="42.6238667" lon="-8.9729817"><ele>296.0</ele><time>2026-04-17T08:49:34.878Z</time></trkpt><trkpt lat="42.6237317" lon="-8.973065"><ele>296.0</ele><time>2026-04-17T08:49:35.879Z</time></trkpt><trkpt lat="42.623595" lon="-8.9731467"><ele>295.40000000000003</ele><time>2026-04-17T08:49:36.878Z</time></trkpt><trkpt lat="42.62348" lon="-8.97322"><ele>294.8</ele><time>2026-04-17T08:49:37.879Z</time></trkpt><trkpt lat="42.623395" lon="-8.9732917"><ele>294.20000000000005</ele><time>2026-04-17T08:49:38.878Z</time></trkpt><trkpt lat="42.62334" lon="-8.9733833"><ele>293.6</ele><time>2026-04-17T08:49:39.878Z</time></trkpt><trkpt lat="42.6233117" lon="-8.9735"><ele>293.0</ele><time>2026-04-17T08:49:40.879Z</time></trkpt><trkpt lat="42.6232867" lon="-8.9736317"><ele>293.0</ele><time>2026-04-17T08:49:41.878Z</time></trkpt><trkpt lat="42.62325" lon="-8.9737517"><ele>293.0</ele><time>2026-04-17T08:49:42.879Z</time></trkpt><trkpt lat="42.62318" lon="-8.9738567"><ele>293.0</ele><time>2026-04-17T08:49:43.879Z</time></trkpt><trkpt lat="42.6230767" lon="-8.973945"><ele>293.0</ele><time>2026-04-17T08:49:44.878Z</time></trkpt><trkpt lat="42.6229283" lon="-8.9740167"><ele>293.33333333333337</ele><time>2026-04-17T08:49:45.879Z</time></trkpt><trkpt lat="42.62276" lon="-8.9740633"><ele>293.6666666666667</ele><time>2026-04-17T08:49:46.878Z</time></trkpt><trkpt lat="42.6225817" lon="-8.97411"><ele>294.0</ele><time>2026-04-17T08:49:47.878Z</time></trkpt><trkpt lat="42.6223983" lon="-8.9741567"><ele>288.6666666666667</ele><time>2026-04-17T08:49:48.879Z</time></trkpt><trkpt lat="42.6222083" lon="-8.9741983"><ele>283.33333333333337</ele><time>2026-04-17T08:49:49.879Z</time></trkpt><trkpt lat="42.6220217" lon="-8.9742117"><ele>278.0</ele><time>2026-04-17T08:49:50.878Z</time></trkpt><trkpt lat="42.621855" lon="-8.97419"><ele>284.0</ele><time>2026-04-17T08:49:51.878Z</time></trkpt><trkpt lat="42.6216683" lon="-8.9741533"><ele>290.0</ele><time>2026-04-17T08:49:52.879Z</time></trkpt><trkpt lat="42.6214917" lon="-8.9740867"><ele>296.0</ele><time>2026-04-17T08:49:53.878Z</time></trkpt><trkpt lat="42.6213317" lon="-8.9740183"><ele>296.0</ele><time>2026-04-17T08:49:54.878Z</time></trkpt><trkpt lat="42.6211667" lon="-8.97398"><ele>296.0</ele><time>2026-04-17T08:49:55.879Z</time></trkpt><trkpt lat="42.6210133" lon="-8.9739533"><ele>296.0</ele><time>2026-04-17T08:49:56.878Z</time></trkpt><trkpt lat="42.6208683" lon="-8.9739117"><ele>295.33333333333337</ele><time>2026-04-17T08:49:57.879Z</time></trkpt><trkpt lat="42.62072" lon="-8.9738483"><ele>294.6666666666667</ele><time>2026-04-17T08:49:58.878Z</time></trkpt><trkpt lat="42.620565" lon="-8.9737467"><ele>294.0</ele><time>2026-04-17T08:49:59.878Z</time></trkpt><trkpt lat="42.6204117" lon="-8.973625"><ele>293.75</ele><time>2026-04-17T08:50:00.878Z</time></trkpt><trkpt lat="42.6202767" lon="-8.9735283"><ele>293.5</ele><time>2026-04-17T08:50:01.878Z</time></trkpt><trkpt lat="42.62016" lon="-8.973455"><ele>293.25</ele><time>2026-04-17T08:50:02.879Z</time></trkpt><trkpt lat="42.620055" lon="-8.9734167"><ele>293.0</ele><time>2026-04-17T08:50:03.878Z</time></trkpt><trkpt lat="42.6199467" lon="-8.9734267"><ele>293.0</ele><time>2026-04-17T08:50:04.879Z</time></trkpt><trkpt lat="42.6198417" lon="-8.9734983"><ele>293.0</ele><time>2026-04-17T08:50:05.879Z</time></trkpt><trkpt lat="42.6197183" lon="-8.973615"><ele>293.0</ele><time>2026-04-17T08:50:06.879Z</time></trkpt><trkpt lat="42.6196" lon="-8.97378"><ele>293.0</ele><time>2026-04-17T08:50:07.879Z</time></trkpt><trkpt lat="42.6195033" lon="-8.97395"><ele>294.0</ele><time>2026-04-17T08:50:08.878Z</time></trkpt><trkpt lat="42.61941" lon="-8.974095"><ele>295.0</ele><time>2026-04-17T08:50:09.879Z</time></trkpt><trkpt lat="42.6193133" lon="-8.9742"><ele>296.0</ele><time>2026-04-17T08:50:10.878Z</time></trkpt><trkpt lat="42.6192233" lon="-8.9742517"><ele>297.0</ele><time>2026-04-17T08:50:11.879Z</time></trkpt><trkpt lat="42.6191217" lon="-8.9742633"><ele>297.0</ele><time>2026-04-17T08:50:12.878Z</time></trkpt><trkpt lat="42.6190083" lon="-8.9742317"><ele>297.0</ele><time>2026-04-17T08:50:13.878Z</time></trkpt><trkpt lat="42.6188717" lon="-8.9741467"><ele>297.0</ele><time>2026-04-17T08:50:14.878Z</time></trkpt><trkpt lat="42.61872" lon="-8.9740067"><ele>297.0</ele><time>2026-04-17T08:50:15.879Z</time></trkpt><trkpt lat="42.6185517" lon="-8.97385"><ele>294.3333333333333</ele><time>2026-04-17T08:50:16.878Z</time></trkpt><trkpt lat="42.618385" lon="-8.973715"><ele>291.66666666666663</ele><time>2026-04-17T08:50:17.879Z</time></trkpt><trkpt lat="42.6182417" lon="-8.9736333"><ele>289.0</ele><time>2026-04-17T08:50:18.878Z</time></trkpt><trkpt lat="42.6181017" lon="-8.9735983"><ele>289.0</ele><time>2026-04-17T08:50:19.878Z</time></trkpt><trkpt lat="42.6179617" lon="-8.9736017"><ele>289.0</ele><time>2026-04-17T08:50:20.879Z</time></trkpt><trkpt lat="42.617825" lon="-8.97365"><ele>289.0</ele><time>2026-04-17T08:50:21.879Z</time></trkpt><trkpt lat="42.6176817" lon="-8.9737367"><ele>289.0</ele><time>2026-04-17T08:50:22.879Z</time></trkpt><trkpt lat="42.6175083" lon="-8.9738583"><ele>289.0</ele><time>2026-04-17T08:50:23.878Z</time></trkpt><trkpt lat="42.6173217" lon="-8.974"><ele>289.0</ele><time>2026-04-17T08:50:24.879Z</time></trkpt><trkpt lat="42.61713" lon="-8.974155"><ele>289.0</ele><time>2026-04-17T08:50:25.878Z</time></trkpt><trkpt lat="42.6169217" lon="-8.974335"><ele>289.3333333333333</ele><time>2026-04-17T08:50:26.878Z</time></trkpt><trkpt lat="42.6167233" lon="-8.974505"><ele>289.6666666666667</ele><time>2026-04-17T08:50:27.878Z</time></trkpt><trkpt lat="42.6165433" lon="-8.9746467"><ele>290.0</ele><time>2026-04-17T08:50:28.879Z</time></trkpt><trkpt lat="42.6163717" lon="-8.974795"><ele>290.0</ele><time>2026-04-17T08:50:29.878Z</time></trkpt><trkpt lat="42.6161867" lon="-8.9749533"><ele>290.0</ele><time>2026-04-17T08:50:30.879Z</time></trkpt><trkpt lat="42.6159833" lon="-8.9751183"><ele>290.0</ele><time>2026-04-17T08:50:31.878Z</time></trkpt><trkpt lat="42.6157867" lon="-8.975265"><ele>290.0</ele><time>2026-04-17T08:50:32.879Z</time></trkpt><trkpt lat="42.6156" lon="-8.9753983"><ele>290.0</ele><time>2026-04-17T08:50:33.878Z</time></trkpt><trkpt lat="42.61541" lon="-8.975505"><ele>292.6666666666667</ele><time>2026-04-17T08:50:34.879Z</time></trkpt><trkpt lat="42.6152217" lon="-8.9755867"><ele>295.3333333333333</ele><time>2026-04-17T08:50:35.879Z</time></trkpt><trkpt lat="42.6150383" lon="-8.9756417"><ele>298.0</ele><time>2026-04-17T08:50:36.879Z</time></trkpt><trkpt lat="42.6148767" lon="-8.9757067"><ele>298.0</ele><time>2026-04-17T08:50:37.878Z</time></trkpt><trkpt lat="42.61474" lon="-8.97577"><ele>298.0</ele><time>2026-04-17T08:50:38.878Z</time></trkpt><trkpt lat="42.614605" lon="-8.97585"><ele>298.0</ele><time>2026-04-17T08:50:39.878Z</time></trkpt><trkpt lat="42.614495" lon="-8.975985"><ele>298.0</ele><time>2026-04-17T08:50:40.879Z</time></trkpt><trkpt lat="42.614395" lon="-8.97615"><ele>299.0</ele><time>2026-04-17T08:50:41.879Z</time></trkpt><trkpt lat="42.6143133" lon="-8.9763417"><ele>300.0</ele><time>2026-04-17T08:50:42.878Z</time></trkpt><trkpt lat="42.6142667" lon="-8.9765283"><ele>301.0</ele><time>2026-04-17T08:50:43.878Z</time></trkpt><trkpt lat="42.6142517" lon="-8.9767617"><ele>301.0</ele><time>2026-04-17T08:50:44.878Z</time></trkpt><trkpt lat="42.6142567" lon="-8.9770117"><ele>301.0</ele><time>2026-04-17T08:50:45.879Z</time></trkpt><trkpt lat="42.61429" lon="-8.9773033"><ele>301.0</ele><time>2026-04-17T08:50:46.878Z</time></trkpt><trkpt lat="42.6143217" lon="-8.9775917"><ele>300.3333333333333</ele><time>2026-04-17T08:50:47.878Z</time></trkpt><trkpt lat="42.6143483" lon="-8.9778517"><ele>299.6666666666667</ele><time>2026-04-17T08:50:48.879Z</time></trkpt><trkpt lat="42.6143617" lon="-8.978065"><ele>299.0</ele><time>2026-04-17T08:50:49.879Z</time></trkpt><trkpt lat="42.6143583" lon="-8.9782867"><ele>298.0</ele><time>2026-04-17T08:50:50.879Z</time></trkpt><trkpt lat="42.6143383" lon="-8.9785083"><ele>297.0</ele><time>2026-04-17T08:50:51.88Z</time></trkpt><trkpt lat="42.6143" lon="-8.9787183"><ele>296.0</ele><time>2026-04-17T08:50:52.88Z</time></trkpt><trkpt lat="42.6142517" lon="-8.9788917"><ele>296.0</ele><time>2026-04-17T08:50:53.88Z</time></trkpt><trkpt lat="42.6142083" lon="-8.9790283"><ele>296.0</ele><time>2026-04-17T08:50:54.879Z</time></trkpt><trkpt lat="42.6141767" lon="-8.9791283"><ele>296.0</ele><time>2026-04-17T08:50:55.88Z</time></trkpt><trkpt lat="42.6141267" lon="-8.9792467"><ele>296.0</ele><time>2026-04-17T08:50:57.88Z</time></trkpt><trkpt lat="42.6140583" lon="-8.979125"><ele>296.0</ele><time>2026-04-17T08:51:00.88Z</time></trkpt><trkpt lat="42.61407" lon="-8.9790067"><ele>296.0</ele><time>2026-04-17T08:51:01.88Z</time></trkpt><trkpt lat="42.6140933" lon="-8.9788617"><ele>296.0</ele><time>2026-04-17T08:51:02.88Z</time></trkpt><trkpt lat="42.6141083" lon="-8.9787083"><ele>296.0</ele><time>2026-04-17T08:51:03.879Z</time></trkpt><trkpt lat="42.6141233" lon="-8.9785467"><ele>296.0</ele><time>2026-04-17T08:51:04.879Z</time></trkpt><trkpt lat="42.6141283" lon="-8.97838"><ele>298.0</ele><time>2026-04-17T08:51:05.88Z</time></trkpt><trkpt lat="42.6152217" lon="-8.9755867"><ele>298.0</ele><time>2026-04-17T08:50:35.879Z</time></trkpt><trkpt lat="42.6150383" lon="-8.9756417"><ele>298.0</ele><time>2026-04-17T08:50:36.879Z</time></trkpt><trkpt lat="42.6148767" lon="-8.9757067"><ele>298.0</ele><time>2026-04-17T08:50:37.878Z</time></trkpt><trkpt lat="42.61474" lon="-8.97577"><ele>298.0</ele><time>2026-04-17T08:50:38.878Z</time></trkpt><trkpt lat="42.614605" lon="-8.97585"><ele>298.0</ele><time>2026-04-17T08:50:39.878Z</time></trkpt><trkpt lat="42.614495" lon="-8.975985"><ele>298.0</ele><time>2026-04-17T08:50:40.879Z</time></trkpt><trkpt lat="42.614395" lon="-8.97615"><ele>299.0</ele><time>2026-04-17T08:50:41.879Z</time></trkpt><trkpt lat="42.6143133" lon="-8.9763417"><ele>300.0</ele><time>2026-04-17T08:50:42.878Z</time></trkpt><trkpt lat="42.6142667" lon="-8.9765283"><ele>301.0</ele><time>2026-04-17T08:50:43.878Z</time></trkpt><trkpt lat="42.6142517" lon="-8.9767617"><ele>301.0</ele><time>2026-04-17T08:50:44.878Z</time></trkpt><trkpt lat="42.6142567" lon="-8.9770117"><ele>301.0</ele><time>2026-04-17T08:50:45.879Z</time></trkpt><trkpt lat="42.61429" lon="-8.9773033"><ele>301.0</ele><time>2026-04-17T08:50:46.878Z</time></trkpt><trkpt lat="42.6143217" lon="-8.9775917"><ele>300.3333333333333</ele><time>2026-04-17T08:50:47.878Z</time></trkpt><trkpt lat="42.6143483" lon="-8.9778517"><ele>299.6666666666667</ele><time>2026-04-17T08:50:48.879Z</time></trkpt><trkpt lat="42.6143617" lon="-8.978065"><ele>299.0</ele><time>2026-04-17T08:50:49.879Z</time></trkpt><trkpt lat="42.6143583" lon="-8.9782867"><ele>298.0</ele><time>2026-04-17T08:50:50.879Z</time></trkpt><trkpt lat="42.6143383" lon="-8.9785083"><ele>297.0</ele><time>2026-04-17T08:50:51.88Z</time></trkpt><trkpt lat="42.6143" lon="-8.9787183"><ele>296.0</ele><time>2026-04-17T08:50:52.88Z</time></trkpt><trkpt lat="42.6142517" lon="-8.9788917"><ele>296.0</ele><time>2026-04-17T08:50:53.88Z</time></trkpt><trkpt lat="42.6142083" lon="-8.9790283"><ele>296.0</ele><time>2026-04-17T08:50:54.879Z</time></trkpt><trkpt lat="42.6141767" lon="-8.9791283"><ele>296.0</ele><time>2026-04-17T08:50:55.88Z</time></trkpt><trkpt lat="42.6141267" lon="-8.9792467"><ele>296.0</ele><time>2026-04-17T08:50:57.88Z</time></trkpt><trkpt lat="42.6140583" lon="-8.979125"><ele>296.0</ele><time>2026-04-17T08:51:00.88Z</time></trkpt><trkpt lat="42.61407" lon="-8.9790067"><ele>296.0</ele><time>2026-04-17T08:51:01.88Z</time></trkpt><trkpt lat="42.6140933" lon="-8.9788617"><ele>296.0</ele><time>2026-04-17T08:51:02.88Z</time></trkpt><trkpt lat="42.6141083" lon="-8.9787083"><ele>296.0</ele><time>2026-04-17T08:51:03.879Z</time></trkpt><trkpt lat="42.6141233" lon="-8.9785467"><ele>296.0</ele><time>2026-04-17T08:51:04.879Z</time></trkpt><trkpt lat="42.6141283" lon="-8.97838"><ele>296.75</ele><time>2026-04-17T08:51:05.88Z</time></trkpt><trkpt lat="42.6141233" lon="-8.9782083"><ele>297.5</ele><time>2026-04-17T08:51:06.88Z</time></trkpt><trkpt lat="42.6141083" lon="-8.9780483"><ele>298.25</ele><time>2026-04-17T08:51:07.88Z</time></trkpt><trkpt lat="42.6140867" lon="-8.9778917"><ele>299.0</ele><time>2026-04-17T08:51:08.879Z</time></trkpt><trkpt lat="42.61406" lon="-8.977725"><ele>299.0</ele><time>2026-04-17T08:51:09.879Z</time></trkpt><trkpt lat="42.614025" lon="-8.9775683"><ele>299.0</ele><time>2026-04-17T08:51:10.879Z</time></trkpt><trkpt lat="42.6139883" lon="-8.9774117"><ele>299.0</ele><time>2026-04-17T08:51:11.879Z</time></trkpt><trkpt lat="42.6139467" lon="-8.9772583"><ele>299.0</ele><time>2026-04-17T08:51:12.88Z</time></trkpt><trkpt lat="42.6139033" lon="-8.97711"><ele>299.5</ele><time>2026-04-17T08:51:13.88Z</time></trkpt><trkpt lat="42.6138517" lon="-8.9769683"><ele>300.0</ele><time>2026-04-17T08:51:14.879Z</time></trkpt><trkpt lat="42.613795" lon="-8.97683"><ele>300.5</ele><time>2026-04-17T08:51:15.88Z</time></trkpt><trkpt lat="42.6137333" lon="-8.9766933"><ele>301.0</ele><time>2026-04-17T08:51:16.88Z</time></trkpt><trkpt lat="42.6136667" lon="-8.9765667"><ele>305.0</ele><time>2026-04-17T08:51:17.88Z</time></trkpt><trkpt lat="42.613595" lon="-8.9764383"><ele>309.0</ele><time>2026-04-17T08:51:18.879Z</time></trkpt><trkpt lat="42.61353" lon="-8.9762933"><ele>313.0</ele><time>2026-04-17T08:51:19.879Z</time></trkpt><trkpt lat="42.6134683" lon="-8.97615"><ele>317.0</ele><time>2026-04-17T08:51:20.88Z</time></trkpt><trkpt lat="42.6134133" lon="-8.9760067"><ele>317.0</ele><time>2026-04-17T08:51:21.88Z</time></trkpt><trkpt lat="42.6133767" lon="-8.9758567"><ele>317.0</ele><time>2026-04-17T08:51:22.88Z</time></trkpt><trkpt lat="42.6133683" lon="-8.975705"><ele>317.0</ele><time>2026-04-17T08:51:23.879Z</time></trkpt><trkpt lat="42.6133617" lon="-8.97555"><ele>317.0</ele><time>2026-04-17T08:51:24.879Z</time></trkpt><trkpt lat="42.6133633" lon="-8.9753967"><ele>317.0</ele><time>2026-04-17T08:51:25.879Z</time></trkpt><trkpt lat="42.6133717" lon="-8.97524"><ele>317.0</ele><time>2026-04-17T08:51:26.88Z</time></trkpt><trkpt lat="42.613385" lon="-8.975075"><ele>317.0</ele><time>2026-04-17T08:51:27.88Z</time></trkpt><trkpt lat="42.613405" lon="-8.9749033"><ele>317.0</ele><time>2026-04-17T08:51:28.879Z</time></trkpt><trkpt lat="42.61342" lon="-8.97473"><ele>318.0</ele><time>2026-04-17T08:51:29.88Z</time></trkpt><trkpt lat="42.6134317" lon="-8.97456"><ele>319.0</ele><time>2026-04-17T08:51:30.88Z</time></trkpt><trkpt lat="42.61344" lon="-8.9743967"><ele>320.0</ele><time>2026-04-17T08:51:31.88Z</time></trkpt><trkpt lat="42.6134533" lon="-8.9742317"><ele>321.0</ele><time>2026-04-17T08:51:32.88Z</time></trkpt><trkpt lat="42.6134833" lon="-8.974075"><ele>320.5</ele><time>2026-04-17T08:51:33.88Z</time></trkpt><trkpt lat="42.6135433" lon="-8.9739233"><ele>320.0</ele><time>2026-04-17T08:51:34.879Z</time></trkpt><trkpt lat="42.6136233" lon="-8.9737783"><ele>319.5</ele><time>2026-04-17T08:51:35.88Z</time></trkpt><trkpt lat="42.613705" lon="-8.9736433"><ele>319.0</ele><time>2026-04-17T08:51:36.879Z</time></trkpt><trkpt lat="42.6137983" lon="-8.97353"><ele>319.0</ele><time>2026-04-17T08:51:37.879Z</time></trkpt><trkpt lat="42.61391" lon="-8.9734167"><ele>319.0</ele><time>2026-04-17T08:51:38.88Z</time></trkpt><trkpt lat="42.6140167" lon="-8.9733083"><ele>319.0</ele><time>2026-04-17T08:51:39.88Z</time></trkpt><trkpt lat="42.6141083" lon="-8.9732083"><ele>319.0</ele><time>2026-04-17T08:51:40.88Z</time></trkpt><trkpt lat="42.6141933" lon="-8.97312"><ele>320.75</ele><time>2026-04-17T08:51:41.879Z</time></trkpt><trkpt lat="42.6142833" lon="-8.9730183"><ele>322.5</ele><time>2026-04-17T08:51:42.88Z</time></trkpt><trkpt lat="42.61437" lon="-8.9729183"><ele>324.25</ele><time>2026-04-17T08:51:43.88Z</time></trkpt><trkpt lat="42.6144583" lon="-8.9728133"><ele>326.0</ele><time>2026-04-17T08:51:44.879Z</time></trkpt><trkpt lat="42.6145433" lon="-8.9727083"><ele>326.0</ele><time>2026-04-17T08:51:45.88Z</time></trkpt><trkpt lat="42.6146317" lon="-8.972605"><ele>326.0</ele><time>2026-04-17T08:51:46.88Z</time></trkpt><trkpt lat="42.61472" lon="-8.972505"><ele>326.0</ele><time>2026-04-17T08:51:47.88Z</time></trkpt><trkpt lat="42.6148133" lon="-8.9724133"><ele>326.0</ele><time>2026-04-17T08:51:48.88Z</time></trkpt><trkpt lat="42.6149" lon="-8.9723167"><ele>327.4</ele><time>2026-04-17T08:51:49.879Z</time></trkpt><trkpt lat="42.61499" lon="-8.9722267"><ele>328.8</ele><time>2026-04-17T08:51:50.88Z</time></trkpt><trkpt lat="42.6150833" lon="-8.9721583"><ele>330.2</ele><time>2026-04-17T08:51:51.879Z</time></trkpt><trkpt lat="42.6151817" lon="-8.9721083"><ele>331.59999999999997</ele><time>2026-04-17T08:51:52.879Z</time></trkpt><trkpt lat="42.615285" lon="-8.97208"><ele>333.0</ele><time>2026-04-17T08:51:53.879Z</time></trkpt><trkpt lat="42.6153983" lon="-8.9720833"><ele>334.0</ele><time>2026-04-17T08:51:54.88Z</time></trkpt><trkpt lat="42.6155183" lon="-8.9721017"><ele>335.0</ele><time>2026-04-17T08:51:55.879Z</time></trkpt><trkpt lat="42.615635" lon="-8.9721467"><ele>336.0</ele><time>2026-04-17T08:51:56.88Z</time></trkpt><trkpt lat="42.6157517" lon="-8.9721983"><ele>337.0</ele><time>2026-04-17T08:51:57.879Z</time></trkpt><trkpt lat="42.6158717" lon="-8.9722183"><ele>337.0</ele><time>2026-04-17T08:51:58.88Z</time></trkpt><trkpt lat="42.6159867" lon="-8.9722233"><ele>337.0</ele><time>2026-04-17T08:51:59.879Z</time></trkpt><trkpt lat="42.616105" lon="-8.9722017"><ele>337.0</ele><time>2026-04-17T08:52:00.879Z</time></trkpt><trkpt lat="42.6162167" lon="-8.9721467"><ele>337.0</ele><time>2026-04-17T08:52:01.879Z</time></trkpt><trkpt lat="42.6163017" lon="-8.9720733"><ele>336.40000000000003</ele><time>2026-04-17T08:52:02.88Z</time></trkpt><trkpt lat="42.6163767" lon="-8.97197"><ele>335.8</ele><time>2026-04-17T08:52:03.879Z</time></trkpt><trkpt lat="42.616435" lon="-8.9718517"><ele>335.2</ele><time>2026-04-17T08:52:04.879Z</time></trkpt><trkpt lat="42.6164917" lon="-8.9717383"><ele>334.6</ele><time>2026-04-17T08:52:05.879Z</time></trkpt><trkpt lat="42.6165517" lon="-8.9716133"><ele>334.0</ele><time>2026-04-17T08:52:06.88Z</time></trkpt><trkpt lat="42.6166117" lon="-8.971465"><ele>337.5</ele><time>2026-04-17T08:52:07.879Z</time></trkpt><trkpt lat="42.6166617" lon="-8.971305"><ele>341.0</ele><time>2026-04-17T08:52:08.88Z</time></trkpt><trkpt lat="42.61669" lon="-8.97113"><ele>344.5</ele><time>2026-04-17T08:52:09.879Z</time></trkpt><trkpt lat="42.6166917" lon="-8.97097"><ele>348.0</ele><time>2026-04-17T08:52:10.879Z</time></trkpt><trkpt lat="42.61668" lon="-8.9708067"><ele>349.79999999999995</ele><time>2026-04-17T08:52:11.879Z</time></trkpt><trkpt lat="42.6166633" lon="-8.9706433"><ele>351.6</ele><time>2026-04-17T08:52:12.88Z</time></trkpt><trkpt lat="42.6166517" lon="-8.9704917"><ele>353.4</ele><time>2026-04-17T08:52:13.88Z</time></trkpt><trkpt lat="42.6166533" lon="-8.9703417"><ele>355.20000000000005</ele><time>2026-04-17T08:52:14.879Z</time></trkpt><trkpt lat="42.616655" lon="-8.9702"><ele>357.0</ele><time>2026-04-17T08:52:15.879Z</time></trkpt><trkpt lat="42.6166817" lon="-8.97007"><ele>357.75</ele><time>2026-04-17T08:52:16.88Z</time></trkpt><trkpt lat="42.6167367" lon="-8.9699517"><ele>358.5</ele><time>2026-04-17T08:52:17.88Z</time></trkpt><trkpt lat="42.6168217" lon="-8.969845"><ele>359.25</ele><time>2026-04-17T08:52:18.879Z</time></trkpt><trkpt lat="42.6169217" lon="-8.9697467"><ele>360.0</ele><time>2026-04-17T08:52:19.879Z</time></trkpt><trkpt lat="42.6170183" lon="-8.9696517"><ele>360.5</ele><time>2026-04-17T08:52:20.88Z</time></trkpt><trkpt lat="42.61711" lon="-8.9695583"><ele>361.0</ele><time>2026-04-17T08:52:21.88Z</time></trkpt><trkpt lat="42.617205" lon="-8.969455"><ele>361.5</ele><time>2026-04-17T08:52:22.88Z</time></trkpt><trkpt lat="42.6173083" lon="-8.969365"><ele>362.0</ele><time>2026-04-17T08:52:23.88Z</time></trkpt><trkpt lat="42.6174167" lon="-8.9692967"><ele>362.0</ele><time>2026-04-17T08:52:24.88Z</time></trkpt><trkpt lat="42.6175333" lon="-8.96924"><ele>362.0</ele><time>2026-04-17T08:52:25.88Z</time></trkpt><trkpt lat="42.6176533" lon="-8.9691967"><ele>362.0</ele><time>2026-04-17T08:52:26.879Z</time></trkpt><trkpt lat="42.6177783" lon="-8.9691583"><ele>362.0</ele><time>2026-04-17T08:52:27.88Z</time></trkpt><trkpt lat="42.6178967" lon="-8.9691267"><ele>362.5</ele><time>2026-04-17T08:52:28.879Z</time></trkpt><trkpt lat="42.6180167" lon="-8.9691167"><ele>363.0</ele><time>2026-04-17T08:52:29.879Z</time></trkpt><trkpt lat="42.61813" lon="-8.9691267"><ele>363.5</ele><time>2026-04-17T08:52:30.88Z</time></trkpt><trkpt lat="42.6182483" lon="-8.9691767"><ele>364.0</ele><time>2026-04-17T08:52:31.879Z</time></trkpt><trkpt lat="42.6183567" lon="-8.9692483"><ele>364.0</ele><time>2026-04-17T08:52:32.879Z</time></trkpt><trkpt lat="42.6184633" lon="-8.9693233"><ele>364.0</ele><time>2026-04-17T08:52:33.879Z</time></trkpt><trkpt lat="42.618575" lon="-8.9693983"><ele>364.0</ele><time>2026-04-17T08:52:34.879Z</time></trkpt><trkpt lat="42.6186917" lon="-8.9694583"><ele>364.0</ele><time>2026-04-17T08:52:35.879Z</time></trkpt><trkpt lat="42.6188117" lon="-8.9695017"><ele>365.25</ele><time>2026-04-17T08:52:36.88Z</time></trkpt><trkpt lat="42.618925" lon="-8.9695417"><ele>366.5</ele><time>2026-04-17T08:52:37.879Z</time></trkpt><trkpt lat="42.6190417" lon="-8.9695883"><ele>367.75</ele><time>2026-04-17T08:52:38.88Z</time></trkpt><trkpt lat="42.619155" lon="-8.9696383"><ele>369.0</ele><time>2026-04-17T08:52:39.879Z</time></trkpt><trkpt lat="42.6192717" lon="-8.9696817"><ele>369.0</ele><time>2026-04-17T08:52:40.88Z</time></trkpt><trkpt lat="42.6193867" lon="-8.96971"><ele>369.0</ele><time>2026-04-17T08:52:41.879Z</time></trkpt><trkpt lat="42.6195017" lon="-8.9697183"><ele>369.0</ele><time>2026-04-17T08:52:42.879Z</time></trkpt><trkpt lat="42.61961" lon="-8.9697133"><ele>369.0</ele><time>2026-04-17T08:52:43.879Z</time></trkpt><trkpt lat="42.6197167" lon="-8.9696683"><ele>370.25</ele><time>2026-04-17T08:52:44.879Z</time></trkpt><trkpt lat="42.61982" lon="-8.96959"><ele>371.5</ele><time>2026-04-17T08:52:45.879Z</time></trkpt><trkpt lat="42.6199167" lon="-8.9694817"><ele>372.75</ele><time>2026-04-17T08:52:46.88Z</time></trkpt><trkpt lat="42.6200117" lon="-8.9694033"><ele>374.0</ele><time>2026-04-17T08:52:47.879Z</time></trkpt><trkpt lat="42.6201117" lon="-8.96938"><ele>374.0</ele><time>2026-04-17T08:52:48.88Z</time></trkpt><trkpt lat="42.6202233" lon="-8.96942"><ele>374.0</ele><time>2026-04-17T08:52:49.879Z</time></trkpt><trkpt lat="42.6203267" lon="-8.969545"><ele>374.0</ele><time>2026-04-17T08:52:50.88Z</time></trkpt><trkpt lat="42.620395" lon="-8.9696917"><ele>374.0</ele><time>2026-04-17T08:52:51.879Z</time></trkpt><trkpt lat="42.6204533" lon="-8.9698383"><ele>376.0</ele><time>2026-04-17T08:52:52.879Z</time></trkpt><trkpt lat="42.6205067" lon="-8.9699717"><ele>378.0</ele><time>2026-04-17T08:52:53.879Z</time></trkpt><trkpt lat="42.62057" lon="-8.9701067"><ele>380.0</ele><time>2026-04-17T08:52:54.88Z</time></trkpt><trkpt lat="42.6206483" lon="-8.9702317"><ele>382.0</ele><time>2026-04-17T08:52:55.879Z</time></trkpt><trkpt lat="42.620735" lon="-8.9703117"><ele>378.8</ele><time>2026-04-17T08:52:56.88Z</time></trkpt><trkpt lat="42.6208267" lon="-8.97033"><ele>375.6</ele><time>2026-04-17T08:52:57.879Z</time></trkpt><trkpt lat="42.6209267" lon="-8.9703"><ele>372.40000000000003</ele><time>2026-04-17T08:52:58.879Z</time></trkpt><trkpt lat="42.6210317" lon="-8.97024"><ele>369.20000000000005</ele><time>2026-04-17T08:52:59.879Z</time></trkpt><trkpt lat="42.6211467" lon="-8.9701533"><ele>366.0</ele><time>2026-04-17T08:53:00.879Z</time></trkpt><trkpt lat="42.62126" lon="-8.97006"><ele>365.5</ele><time>2026-04-17T08:53:01.879Z</time></trkpt><trkpt lat="42.62136" lon="-8.9699633"><ele>365.0</ele><time>2026-04-17T08:53:02.879Z</time></trkpt><trkpt lat="42.6214683" lon="-8.9698733"><ele>364.5</ele><time>2026-04-17T08:53:03.88Z</time></trkpt><trkpt lat="42.62158" lon="-8.96979"><ele>364.0</ele><time>2026-04-17T08:53:04.88Z</time></trkpt><trkpt lat="42.618575" lon="-8.9693983"><ele>365.25</ele><time>2026-04-17T08:52:34.879Z</time></trkpt><trkpt lat="42.6186917" lon="-8.9694583"><ele>366.5</ele><time>2026-04-17T08:52:35.879Z</time></trkpt><trkpt lat="42.6188117" lon="-8.9695017"><ele>367.75</ele><time>2026-04-17T08:52:36.88Z</time></trkpt><trkpt lat="42.618925" lon="-8.9695417"><ele>369.0</ele><time>2026-04-17T08:52:37.879Z</time></trkpt><trkpt lat="42.6190417" lon="-8.9695883"><ele>369.0</ele><time>2026-04-17T08:52:38.88Z</time></trkpt><trkpt lat="42.619155" lon="-8.9696383"><ele>369.0</ele><time>2026-04-17T08:52:39.879Z</time></trkpt><trkpt lat="42.6192717" lon="-8.9696817"><ele>369.0</ele><time>2026-04-17T08:52:40.88Z</time></trkpt><trkpt lat="42.6193867" lon="-8.96971"><ele>369.0</ele><time>2026-04-17T08:52:41.879Z</time></trkpt><trkpt lat="42.6195017" lon="-8.9697183"><ele>370.25</ele><time>2026-04-17T08:52:42.879Z</time></trkpt><trkpt lat="42.61961" lon="-8.9697133"><ele>371.5</ele><time>2026-04-17T08:52:43.879Z</time></trkpt><trkpt lat="42.6197167" lon="-8.9696683"><ele>372.75</ele><time>2026-04-17T08:52:44.879Z</time></trkpt><trkpt lat="42.61982" lon="-8.96959"><ele>374.0</ele><time>2026-04-17T08:52:45.879Z</time></trkpt><trkpt lat="42.6199167" lon="-8.9694817"><ele>374.0</ele><time>2026-04-17T08:52:46.88Z</time></trkpt><trkpt lat="42.6200117" lon="-8.9694033"><ele>374.0</ele><time>2026-04-17T08:52:47.879Z</time></trkpt><trkpt lat="42.6201117" lon="-8.96938"><ele>374.0</ele><time>2026-04-17T08:52:48.88Z</time></trkpt><trkpt lat="42.6202233" lon="-8.96942"><ele>374.0</ele><time>2026-04-17T08:52:49.879Z</time></trkpt><trkpt lat="42.6203267" lon="-8.969545"><ele>376.0</ele><time>2026-04-17T08:52:50.88Z</time></trkpt><trkpt lat="42.620395" lon="-8.9696917"><ele>378.0</ele><time>2026-04-17T08:52:51.879Z</time></trkpt><trkpt lat="42.6204533" lon="-8.9698383"><ele>380.0</ele><time>2026-04-17T08:52:52.879Z</time></trkpt><trkpt lat="42.6205067" lon="-8.9699717"><ele>382.0</ele><time>2026-04-17T08:52:53.879Z</time></trkpt><trkpt lat="42.62057" lon="-8.9701067"><ele>378.8</ele><time>2026-04-17T08:52:54.88Z</time></trkpt><trkpt lat="42.6206483" lon="-8.9702317"><ele>375.6</ele><time>2026-04-17T08:52:55.879Z</time></trkpt><trkpt lat="42.620735" lon="-8.9703117"><ele>372.40000000000003</ele><time>2026-04-17T08:52:56.88Z</time></trkpt><trkpt lat="42.6208267" lon="-8.97033"><ele>369.20000000000005</ele><time>2026-04-17T08:52:57.879Z</time></trkpt><trkpt lat="42.6209267" lon="-8.9703"><ele>366.0</ele><time>2026-04-17T08:52:58.879Z</time></trkpt><trkpt lat="42.6210317" lon="-8.97024"><ele>366.0</ele><time>2026-04-17T08:52:59.879Z</time></trkpt><trkpt lat="42.6211467" lon="-8.9701533"><ele>366.0</ele><time>2026-04-17T08:53:00.879Z</time></trkpt><trkpt lat="42.62126" lon="-8.97006"><ele>366.0</ele><time>2026-04-17T08:53:01.879Z</time></trkpt><trkpt lat="42.62136" lon="-8.9699633"><ele>366.0</ele><time>2026-04-17T08:53:02.879Z</time></trkpt><trkpt lat="42.6214683" lon="-8.9698733"><ele>367.0</ele><time>2026-04-17T08:53:03.88Z</time></trkpt><trkpt lat="42.62158" lon="-8.96979"><ele>368.0</ele><time>2026-04-17T08:53:04.88Z</time></trkpt><trkpt lat="42.621685" lon="-8.969705"><ele>369.0</ele><time>2026-04-17T08:53:05.88Z</time></trkpt><trkpt lat="42.6217817" lon="-8.969625"><ele>370.0</ele><time>2026-04-17T08:53:06.88Z</time></trkpt><trkpt lat="42.6218667" lon="-8.9695417"><ele>370.0</ele><time>2026-04-17T08:53:07.88Z</time></trkpt><trkpt lat="42.62195" lon="-8.9694667"><ele>370.0</ele><time>2026-04-17T08:53:08.88Z</time></trkpt><trkpt lat="42.6220317" lon="-8.9693917"><ele>370.0</ele><time>2026-04-17T08:53:09.88Z</time></trkpt><trkpt lat="42.62212" lon="-8.969325"><ele>370.0</ele><time>2026-04-17T08:53:10.879Z</time></trkpt><trkpt lat="42.622205" lon="-8.96925"><ele>370.0</ele><time>2026-04-17T08:53:11.88Z</time></trkpt><trkpt lat="42.622295" lon="-8.96916"><ele>369.6</ele><time>2026-04-17T08:53:12.879Z</time></trkpt><trkpt lat="42.6223717" lon="-8.9690533"><ele>369.2</ele><time>2026-04-17T08:53:13.879Z</time></trkpt><trkpt lat="42.6224567" lon="-8.9689233"><ele>368.79999999999995</ele><time>2026-04-17T08:53:14.88Z</time></trkpt><trkpt lat="42.62253" lon="-8.9688267"><ele>368.4</ele><time>2026-04-17T08:53:15.879Z</time></trkpt><trkpt lat="42.622595" lon="-8.9687133"><ele>368.0</ele><time>2026-04-17T08:53:16.88Z</time></trkpt><trkpt lat="42.6226517" lon="-8.9685833"><ele>368.0</ele><time>2026-04-17T08:53:17.879Z</time></trkpt><trkpt lat="42.6226967" lon="-8.9684483"><ele>368.0</ele><time>2026-04-17T08:53:18.88Z</time></trkpt><trkpt lat="42.6227333" lon="-8.9683067"><ele>368.0</ele><time>2026-04-17T08:53:19.879Z</time></trkpt><trkpt lat="42.6227717" lon="-8.96816"><ele>368.0</ele><time>2026-04-17T08:53:20.88Z</time></trkpt><trkpt lat="42.6228117" lon="-8.9680183"><ele>368.0</ele><time>2026-04-17T08:53:21.879Z</time></trkpt><trkpt lat="42.6228533" lon="-8.9678667"><ele>367.75</ele><time>2026-04-17T08:53:22.879Z</time></trkpt><trkpt lat="42.6228983" lon="-8.9677167"><ele>367.5</ele><time>2026-04-17T08:53:23.879Z</time></trkpt><trkpt lat="42.6229467" lon="-8.9675783"><ele>367.25</ele><time>2026-04-17T08:53:24.879Z</time></trkpt><trkpt lat="42.6230067" lon="-8.9674417"><ele>367.0</ele><time>2026-04-17T08:53:25.879Z</time></trkpt><trkpt lat="42.623075" lon="-8.9673233"><ele>369.5</ele><time>2026-04-17T08:53:26.879Z</time></trkpt><trkpt lat="42.623155" lon="-8.967205"><ele>372.0</ele><time>2026-04-17T08:53:27.879Z</time></trkpt><trkpt lat="42.6232367" lon="-8.9670917"><ele>374.5</ele><time>2026-04-17T08:53:28.88Z</time></trkpt><trkpt lat="42.62332" lon="-8.9669783"><ele>377.0</ele><time>2026-04-17T08:53:29.879Z</time></trkpt><trkpt lat="42.623405" lon="-8.9668667"><ele>377.0</ele><time>2026-04-17T08:53:30.879Z</time></trkpt><trkpt lat="42.6235" lon="-8.9667533"><ele>377.0</ele><time>2026-04-17T08:53:31.879Z</time></trkpt><trkpt lat="42.6236083" lon="-8.966655"><ele>377.0</ele><time>2026-04-17T08:53:32.88Z</time></trkpt><trkpt lat="42.6237233" lon="-8.9665983"><ele>377.0</ele><time>2026-04-17T08:53:33.879Z</time></trkpt><trkpt lat="42.623845" lon="-8.9665567"><ele>379.0</ele><time>2026-04-17T08:53:34.88Z</time></trkpt><trkpt lat="42.6239683" lon="-8.9665283"><ele>381.0</ele><time>2026-04-17T08:53:35.88Z</time></trkpt><trkpt lat="42.6240917" lon="-8.9664833"><ele>383.0</ele><time>2026-04-17T08:53:36.879Z</time></trkpt><trkpt lat="42.6241983" lon="-8.9664583"><ele>385.0</ele><time>2026-04-17T08:53:37.88Z</time></trkpt><trkpt lat="42.6243117" lon="-8.9664267"><ele>385.0</ele><time>2026-04-17T08:53:38.879Z</time></trkpt><trkpt lat="42.6244283" lon="-8.966385"><ele>385.0</ele><time>2026-04-17T08:53:39.88Z</time></trkpt><trkpt lat="42.6245517" lon="-8.9663267"><ele>385.0</ele><time>2026-04-17T08:53:40.88Z</time></trkpt><trkpt lat="42.6246717" lon="-8.9662683"><ele>385.0</ele><time>2026-04-17T08:53:41.879Z</time></trkpt><trkpt lat="42.624785" lon="-8.9662183"><ele>385.2</ele><time>2026-04-17T08:53:42.88Z</time></trkpt><trkpt lat="42.624895" lon="-8.96617"><ele>385.4</ele><time>2026-04-17T08:53:43.88Z</time></trkpt><trkpt lat="42.6249883" lon="-8.9661067"><ele>385.6</ele><time>2026-04-17T08:53:44.879Z</time></trkpt><trkpt lat="42.6250633" lon="-8.9660167"><ele>385.8</ele><time>2026-04-17T08:53:45.88Z</time></trkpt><trkpt lat="42.62513" lon="-8.9658917"><ele>386.0</ele><time>2026-04-17T08:53:46.88Z</time></trkpt><trkpt lat="42.6251817" lon="-8.9657433"><ele>387.25</ele><time>2026-04-17T08:53:47.879Z</time></trkpt><trkpt lat="42.625215" lon="-8.9656133"><ele>388.5</ele><time>2026-04-17T08:53:48.88Z</time></trkpt><trkpt lat="42.62525" lon="-8.965475"><ele>389.75</ele><time>2026-04-17T08:53:49.879Z</time></trkpt><trkpt lat="42.6252817" lon="-8.9653267"><ele>391.0</ele><time>2026-04-17T08:53:50.879Z</time></trkpt><trkpt lat="42.6253167" lon="-8.96516"><ele>392.8</ele><time>2026-04-17T08:53:51.879Z</time></trkpt><trkpt lat="42.6253467" lon="-8.9650117"><ele>394.6</ele><time>2026-04-17T08:53:52.879Z</time></trkpt><trkpt lat="42.62538" lon="-8.964865"><ele>396.4</ele><time>2026-04-17T08:53:53.879Z</time></trkpt><trkpt lat="42.6254133" lon="-8.964725"><ele>398.2</ele><time>2026-04-17T08:53:54.88Z</time></trkpt><trkpt lat="42.62545" lon="-8.9645817"><ele>400.0</ele><time>2026-04-17T08:53:55.88Z</time></trkpt><trkpt lat="42.625485" lon="-8.9644467"><ele>400.0</ele><time>2026-04-17T08:53:56.879Z</time></trkpt><trkpt lat="42.62551" lon="-8.96432"><ele>400.0</ele><time>2026-04-17T08:53:57.88Z</time></trkpt><trkpt lat="42.6255283" lon="-8.964185"><ele>400.0</ele><time>2026-04-17T08:53:58.88Z</time></trkpt><trkpt lat="42.6255117" lon="-8.9640667"><ele>400.0</ele><time>2026-04-17T08:53:59.88Z</time></trkpt><trkpt lat="42.625465" lon="-8.963975"><ele>400.0</ele><time>2026-04-17T08:54:00.88Z</time></trkpt><trkpt lat="42.6253717" lon="-8.963915"><ele>403.25</ele><time>2026-04-17T08:54:01.879Z</time></trkpt><trkpt lat="42.625255" lon="-8.963885"><ele>406.5</ele><time>2026-04-17T08:54:02.879Z</time></trkpt><trkpt lat="42.6251083" lon="-8.9638883"><ele>409.75</ele><time>2026-04-17T08:54:03.879Z</time></trkpt><trkpt lat="42.6249483" lon="-8.9639117"><ele>413.0</ele><time>2026-04-17T08:54:04.879Z</time></trkpt><trkpt lat="42.6248067" lon="-8.9639467"><ele>413.0</ele><time>2026-04-17T08:54:05.879Z</time></trkpt><trkpt lat="42.6246767" lon="-8.963985"><ele>413.0</ele><time>2026-04-17T08:54:06.879Z</time></trkpt><trkpt lat="42.6245483" lon="-8.9640267"><ele>413.0</ele><time>2026-04-17T08:54:07.88Z</time></trkpt><trkpt lat="42.62443" lon="-8.9640633"><ele>413.0</ele><time>2026-04-17T08:54:08.879Z</time></trkpt><trkpt lat="42.624315" lon="-8.9640967"><ele>413.5</ele><time>2026-04-17T08:54:09.88Z</time></trkpt><trkpt lat="42.6242017" lon="-8.9641317"><ele>414.0</ele><time>2026-04-17T08:54:10.879Z</time></trkpt><trkpt lat="42.6240917" lon="-8.9641717"><ele>414.5</ele><time>2026-04-17T08:54:11.879Z</time></trkpt><trkpt lat="42.623985" lon="-8.9642217"><ele>415.0</ele><time>2026-04-17T08:54:12.879Z</time></trkpt><trkpt lat="42.6238783" lon="-8.964285"><ele>415.0</ele><time>2026-04-17T08:54:13.879Z</time></trkpt><trkpt lat="42.6237767" lon="-8.9643667"><ele>415.0</ele><time>2026-04-17T08:54:14.879Z</time></trkpt><trkpt lat="42.6236817" lon="-8.9644567"><ele>415.0</ele><time>2026-04-17T08:54:15.879Z</time></trkpt><trkpt lat="42.6235983" lon="-8.9645483"><ele>415.0</ele><time>2026-04-17T08:54:16.879Z</time></trkpt><trkpt lat="42.623495" lon="-8.96463"><ele>417.0</ele><time>2026-04-17T08:54:17.879Z</time></trkpt><trkpt lat="42.6233933" lon="-8.9647067"><ele>419.0</ele><time>2026-04-17T08:54:18.879Z</time></trkpt><trkpt lat="42.6232917" lon="-8.9647667"><ele>421.0</ele><time>2026-04-17T08:54:19.879Z</time></trkpt><trkpt lat="42.6231917" lon="-8.9647867"><ele>423.0</ele><time>2026-04-17T08:54:20.88Z</time></trkpt><trkpt lat="42.6231" lon="-8.96476"><ele>425.0</ele><time>2026-04-17T08:54:21.88Z</time></trkpt><trkpt lat="42.6230283" lon="-8.9646817"><ele>425.0</ele><time>2026-04-17T08:54:22.879Z</time></trkpt><trkpt lat="42.6229817" lon="-8.96458"><ele>425.0</ele><time>2026-04-17T08:54:23.879Z</time></trkpt><trkpt lat="42.62296" lon="-8.9644783"><ele>425.0</ele><time>2026-04-17T08:54:24.879Z</time></trkpt><trkpt lat="42.622965" lon="-8.9643567"><ele>425.0</ele><time>2026-04-17T08:54:25.879Z</time></trkpt><trkpt lat="42.6230083" lon="-8.9642033"><ele>425.0</ele><time>2026-04-17T08:54:26.88Z</time></trkpt><trkpt lat="42.623075" lon="-8.9640317"><ele>428.66666666666663</ele><time>2026-04-17T08:54:27.88Z</time></trkpt><trkpt lat="42.62316" lon="-8.96384"><ele>432.33333333333337</ele><time>2026-04-17T08:54:28.879Z</time></trkpt><trkpt lat="42.6232383" lon="-8.9636483"><ele>436.0</ele><time>2026-04-17T08:54:29.88Z</time></trkpt><trkpt lat="42.6233067" lon="-8.9634767"><ele>438.5</ele><time>2026-04-17T08:54:30.879Z</time></trkpt><trkpt lat="42.62337" lon="-8.963305"><ele>441.0</ele><time>2026-04-17T08:54:31.88Z</time></trkpt><trkpt lat="42.6253717" lon="-8.963915"><ele>434.0</ele><time>2026-04-17T08:54:01.879Z</time></trkpt><trkpt lat="42.625255" lon="-8.963885"><ele>427.0</ele><time>2026-04-17T08:54:02.879Z</time></trkpt><trkpt lat="42.6251083" lon="-8.9638883"><ele>420.0</ele><time>2026-04-17T08:54:03.879Z</time></trkpt><trkpt lat="42.6249483" lon="-8.9639117"><ele>413.0</ele><time>2026-04-17T08:54:04.879Z</time></trkpt><trkpt lat="42.6248067" lon="-8.9639467"><ele>413.0</ele><time>2026-04-17T08:54:05.879Z</time></trkpt><trkpt lat="42.6246767" lon="-8.963985"><ele>413.0</ele><time>2026-04-17T08:54:06.879Z</time></trkpt><trkpt lat="42.6245483" lon="-8.9640267"><ele>413.0</ele><time>2026-04-17T08:54:07.88Z</time></trkpt><trkpt lat="42.62443" lon="-8.9640633"><ele>413.0</ele><time>2026-04-17T08:54:08.879Z</time></trkpt><trkpt lat="42.624315" lon="-8.9640967"><ele>413.5</ele><time>2026-04-17T08:54:09.88Z</time></trkpt><trkpt lat="42.6242017" lon="-8.9641317"><ele>414.0</ele><time>2026-04-17T08:54:10.879Z</time></trkpt><trkpt lat="42.6240917" lon="-8.9641717"><ele>414.5</ele><time>2026-04-17T08:54:11.879Z</time></trkpt><trkpt lat="42.623985" lon="-8.9642217"><ele>415.0</ele><time>2026-04-17T08:54:12.879Z</time></trkpt><trkpt lat="42.6238783" lon="-8.964285"><ele>415.0</ele><time>2026-04-17T08:54:13.879Z</time></trkpt><trkpt lat="42.6237767" lon="-8.9643667"><ele>415.0</ele><time>2026-04-17T08:54:14.879Z</time></trkpt><trkpt lat="42.6236817" lon="-8.9644567"><ele>415.0</ele><time>2026-04-17T08:54:15.879Z</time></trkpt><trkpt lat="42.6235983" lon="-8.9645483"><ele>415.0</ele><time>2026-04-17T08:54:16.879Z</time></trkpt><trkpt lat="42.623495" lon="-8.96463"><ele>417.0</ele><time>2026-04-17T08:54:17.879Z</time></trkpt><trkpt lat="42.6233933" lon="-8.9647067"><ele>419.0</ele><time>2026-04-17T08:54:18.879Z</time></trkpt><trkpt lat="42.6232917" lon="-8.9647667"><ele>421.0</ele><time>2026-04-17T08:54:19.879Z</time></trkpt><trkpt lat="42.6231917" lon="-8.9647867"><ele>423.0</ele><time>2026-04-17T08:54:20.88Z</time></trkpt><trkpt lat="42.6231" lon="-8.96476"><ele>425.0</ele><time>2026-04-17T08:54:21.88Z</time></trkpt><trkpt lat="42.6230283" lon="-8.9646817"><ele>425.0</ele><time>2026-04-17T08:54:22.879Z</time></trkpt><trkpt lat="42.6229817" lon="-8.96458"><ele>425.0</ele><time>2026-04-17T08:54:23.879Z</time></trkpt><trkpt lat="42.62296" lon="-8.9644783"><ele>425.0</ele><time>2026-04-17T08:54:24.879Z</time></trkpt><trkpt lat="42.622965" lon="-8.9643567"><ele>425.0</ele><time>2026-04-17T08:54:25.879Z</time></trkpt><trkpt lat="42.6230083" lon="-8.9642033"><ele>425.0</ele><time>2026-04-17T08:54:26.88Z</time></trkpt><trkpt lat="42.623075" lon="-8.9640317"><ele>428.66666666666663</ele><time>2026-04-17T08:54:27.88Z</time></trkpt><trkpt lat="42.62316" lon="-8.96384"><ele>432.33333333333337</ele><time>2026-04-17T08:54:28.879Z</time></trkpt><trkpt lat="42.6232383" lon="-8.9636483"><ele>436.0</ele><time>2026-04-17T08:54:29.88Z</time></trkpt><trkpt lat="42.6233067" lon="-8.9634767"><ele>437.25</ele><time>2026-04-17T08:54:30.879Z</time></trkpt><trkpt lat="42.62337" lon="-8.963305"><ele>438.5</ele><time>2026-04-17T08:54:31.88Z</time></trkpt><trkpt lat="42.6234317" lon="-8.96316"><ele>439.75</ele><time>2026-04-17T08:54:32.879Z</time></trkpt><trkpt lat="42.6235017" lon="-8.9630217"><ele>441.0</ele><time>2026-04-17T08:54:33.88Z</time></trkpt><trkpt lat="42.62358" lon="-8.9628967"><ele>441.8</ele><time>2026-04-17T08:54:34.88Z</time></trkpt><trkpt lat="42.6236517" lon="-8.9627917"><ele>442.6</ele><time>2026-04-17T08:54:35.88Z</time></trkpt><trkpt lat="42.623705" lon="-8.9626733"><ele>443.4</ele><time>2026-04-17T08:54:36.88Z</time></trkpt><trkpt lat="42.6237183" lon="-8.9625583"><ele>444.2</ele><time>2026-04-17T08:54:37.879Z</time></trkpt><trkpt lat="42.6236967" lon="-8.962465"><ele>445.0</ele><time>2026-04-17T08:54:38.88Z</time></trkpt><trkpt lat="42.62358" lon="-8.9624"><ele>444.0</ele><time>2026-04-17T08:54:40.88Z</time></trkpt><trkpt lat="42.6234833" lon="-8.9624483"><ele>443.0</ele><time>2026-04-17T08:54:41.879Z</time></trkpt><trkpt lat="42.6233617" lon="-8.962555"><ele>442.0</ele><time>2026-04-17T08:54:42.88Z</time></trkpt><trkpt lat="42.6232" lon="-8.962695"><ele>441.0</ele><time>2026-04-17T08:54:43.88Z</time></trkpt><trkpt lat="42.6230583" lon="-8.9628183"><ele>441.0</ele><time>2026-04-17T08:54:44.879Z</time></trkpt><trkpt lat="42.6229533" lon="-8.96287"><ele>441.0</ele><time>2026-04-17T08:54:45.879Z</time></trkpt><trkpt lat="42.62287" lon="-8.9628617"><ele>441.0</ele><time>2026-04-17T08:54:46.879Z</time></trkpt><trkpt lat="42.6228067" lon="-8.9628033"><ele>441.0</ele><time>2026-04-17T08:54:47.88Z</time></trkpt><trkpt lat="42.6227717" lon="-8.9626817"><ele>441.0</ele><time>2026-04-17T08:54:48.879Z</time></trkpt><trkpt lat="42.6227667" lon="-8.9625217"><ele>443.75</ele><time>2026-04-17T08:54:49.88Z</time></trkpt><trkpt lat="42.6227883" lon="-8.96234"><ele>446.5</ele><time>2026-04-17T08:54:50.879Z</time></trkpt><trkpt lat="42.6228083" lon="-8.9621633"><ele>449.25</ele><time>2026-04-17T08:54:51.88Z</time></trkpt><trkpt lat="42.6228333" lon="-8.962015"><ele>452.0</ele><time>2026-04-17T08:54:52.879Z</time></trkpt><trkpt lat="42.6228717" lon="-8.96187"><ele>452.0</ele><time>2026-04-17T08:54:53.879Z</time></trkpt><trkpt lat="42.6229267" lon="-8.9617333"><ele>452.0</ele><time>2026-04-17T08:54:54.88Z</time></trkpt><trkpt lat="42.6229967" lon="-8.9616067"><ele>452.0</ele><time>2026-04-17T08:54:55.879Z</time></trkpt><trkpt lat="42.6230717" lon="-8.96149"><ele>452.0</ele><time>2026-04-17T08:54:56.88Z</time></trkpt><trkpt lat="42.6231483" lon="-8.9613583"><ele>454.75</ele><time>2026-04-17T08:54:57.879Z</time></trkpt><trkpt lat="42.62322" lon="-8.961235"><ele>457.5</ele><time>2026-04-17T08:54:58.879Z</time></trkpt><trkpt lat="42.6232967" lon="-8.9611133"><ele>460.25</ele><time>2026-04-17T08:54:59.879Z</time></trkpt><trkpt lat="42.62337" lon="-8.96098"><ele>463.0</ele><time>2026-04-17T08:55:00.88Z</time></trkpt><trkpt lat="42.623445" lon="-8.9608483"><ele>463.0</ele><time>2026-04-17T08:55:01.879Z</time></trkpt><trkpt lat="42.6235017" lon="-8.9607183"><ele>463.0</ele><time>2026-04-17T08:55:02.88Z</time></trkpt><trkpt lat="42.62355" lon="-8.9605717"><ele>463.0</ele><time>2026-04-17T08:55:03.879Z</time></trkpt><trkpt lat="42.6235933" lon="-8.9604283"><ele>463.0</ele><time>2026-04-17T08:55:04.88Z</time></trkpt><trkpt lat="42.6236417" lon="-8.960295"><ele>466.0</ele><time>2026-04-17T08:55:05.88Z</time></trkpt><trkpt lat="42.6236967" lon="-8.9601533"><ele>469.0</ele><time>2026-04-17T08:55:06.88Z</time></trkpt><trkpt lat="42.62376" lon="-8.9600217"><ele>472.0</ele><time>2026-04-17T08:55:07.88Z</time></trkpt><trkpt lat="42.6238383" lon="-8.9598883"><ele>475.0</ele><time>2026-04-17T08:55:08.881Z</time></trkpt><trkpt lat="42.6239183" lon="-8.9597767"><ele>477.0</ele><time>2026-04-17T08:55:09.88Z</time></trkpt><trkpt lat="42.623995" lon="-8.959665"><ele>479.0</ele><time>2026-04-17T08:55:10.88Z</time></trkpt><trkpt lat="42.6240683" lon="-8.9595483"><ele>481.0</ele><time>2026-04-17T08:55:11.881Z</time></trkpt><trkpt lat="42.6241417" lon="-8.9594317"><ele>483.0</ele><time>2026-04-17T08:55:12.88Z</time></trkpt><trkpt lat="42.62422" lon="-8.9593217"><ele>483.0</ele><time>2026-04-17T08:55:13.881Z</time></trkpt><trkpt lat="42.6243067" lon="-8.95922"><ele>483.0</ele><time>2026-04-17T08:55:14.88Z</time></trkpt><trkpt lat="42.6244033" lon="-8.9591267"><ele>483.0</ele><time>2026-04-17T08:55:15.881Z</time></trkpt><trkpt lat="42.6245017" lon="-8.9590417"><ele>483.0</ele><time>2026-04-17T08:55:16.881Z</time></trkpt><trkpt lat="42.6246033" lon="-8.95898"><ele>483.0</ele><time>2026-04-17T08:55:17.881Z</time></trkpt><trkpt lat="42.6247067" lon="-8.958935"><ele>482.99999999999994</ele><time>2026-04-17T08:55:18.88Z</time></trkpt><trkpt lat="42.6248167" lon="-8.9589267"><ele>482.99999999999994</ele><time>2026-04-17T08:55:19.88Z</time></trkpt><trkpt lat="42.6249233" lon="-8.9589467"><ele>483.0</ele><time>2026-04-17T08:55:20.88Z</time></trkpt><trkpt lat="42.62503" lon="-8.95898"><ele>483.0</ele><time>2026-04-17T08:55:21.88Z</time></trkpt><trkpt lat="42.6251367" lon="-8.959025"><ele>483.0</ele><time>2026-04-17T08:55:22.88Z</time></trkpt><trkpt lat="42.6252433" lon="-8.95908"><ele>483.0</ele><time>2026-04-17T08:55:23.881Z</time></trkpt><trkpt lat="42.6253433" lon="-8.9591467"><ele>483.0</ele><time>2026-04-17T08:55:24.88Z</time></trkpt><trkpt lat="42.6254417" lon="-8.9592283"><ele>483.0</ele><time>2026-04-17T08:55:25.88Z</time></trkpt><trkpt lat="42.6255317" lon="-8.959315"><ele>483.75</ele><time>2026-04-17T08:55:26.88Z</time></trkpt><trkpt lat="42.625615" lon="-8.9594133"><ele>484.5</ele><time>2026-04-17T08:55:27.881Z</time></trkpt><trkpt lat="42.6256967" lon="-8.9595183"><ele>485.25</ele><time>2026-04-17T08:55:28.881Z</time></trkpt><trkpt lat="42.6257817" lon="-8.9596233"><ele>486.0</ele><time>2026-04-17T08:55:29.881Z</time></trkpt><trkpt lat="42.6258667" lon="-8.9597467"><ele>486.0</ele><time>2026-04-17T08:55:30.881Z</time></trkpt><trkpt lat="42.62595" lon="-8.9598467"><ele>486.0</ele><time>2026-04-17T08:55:31.881Z</time></trkpt><trkpt lat="42.6260483" lon="-8.9599433"><ele>486.0</ele><time>2026-04-17T08:55:32.88Z</time></trkpt><trkpt lat="42.62615" lon="-8.9600233"><ele>486.0</ele><time>2026-04-17T08:55:33.88Z</time></trkpt><trkpt lat="42.6262583" lon="-8.96009"><ele>485.75</ele><time>2026-04-17T08:55:34.881Z</time></trkpt><trkpt lat="42.62637" lon="-8.9601567"><ele>485.5</ele><time>2026-04-17T08:55:35.88Z</time></trkpt><trkpt lat="42.6264733" lon="-8.9602183"><ele>485.25</ele><time>2026-04-17T08:55:36.881Z</time></trkpt><trkpt lat="42.6265783" lon="-8.9602867"><ele>485.0</ele><time>2026-04-17T08:55:37.88Z</time></trkpt><trkpt lat="42.6266833" lon="-8.9603433"><ele>485.0</ele><time>2026-04-17T08:55:38.88Z</time></trkpt><trkpt lat="42.6267917" lon="-8.9604083"><ele>485.0</ele><time>2026-04-17T08:55:39.88Z</time></trkpt><trkpt lat="42.6269033" lon="-8.9604667"><ele>485.0</ele><time>2026-04-17T08:55:40.88Z</time></trkpt><trkpt lat="42.62701" lon="-8.960535"><ele>485.0</ele><time>2026-04-17T08:55:41.881Z</time></trkpt><trkpt lat="42.6271067" lon="-8.9606133"><ele>485.16666666666663</ele><time>2026-04-17T08:55:42.88Z</time></trkpt><trkpt lat="42.6271867" lon="-8.9607017"><ele>485.3333333333333</ele><time>2026-04-17T08:55:43.881Z</time></trkpt><trkpt lat="42.6272383" lon="-8.960785"><ele>485.5</ele><time>2026-04-17T08:55:44.88Z</time></trkpt><trkpt lat="42.6272783" lon="-8.9608733"><ele>485.66666666666663</ele><time>2026-04-17T08:55:45.88Z</time></trkpt><trkpt lat="42.6273217" lon="-8.9609617"><ele>485.8333333333333</ele><time>2026-04-17T08:55:46.881Z</time></trkpt><trkpt lat="42.6273617" lon="-8.961065"><ele>486.0</ele><time>2026-04-17T08:55:47.881Z</time></trkpt><trkpt lat="42.6274017" lon="-8.961165"><ele>485.6</ele><time>2026-04-17T08:55:48.88Z</time></trkpt><trkpt lat="42.6274533" lon="-8.9612817"><ele>485.20000000000005</ele><time>2026-04-17T08:55:49.881Z</time></trkpt><trkpt lat="42.6275" lon="-8.961395"><ele>484.79999999999995</ele><time>2026-04-17T08:55:50.88Z</time></trkpt><trkpt lat="42.6275467" lon="-8.961525"><ele>484.4</ele><time>2026-04-17T08:55:51.881Z</time></trkpt><trkpt lat="42.6276017" lon="-8.96165"><ele>484.0</ele><time>2026-04-17T08:55:52.88Z</time></trkpt><trkpt lat="42.6276683" lon="-8.9617683"><ele>481.75</ele><time>2026-04-17T08:55:53.88Z</time></trkpt><trkpt lat="42.6277583" lon="-8.9618433"><ele>479.5</ele><time>2026-04-17T08:55:54.88Z</time></trkpt><trkpt lat="42.6278583" lon="-8.9619"><ele>477.25</ele><time>2026-04-17T08:55:55.88Z</time></trkpt><trkpt lat="42.6279767" lon="-8.9619417"><ele>475.0</ele><time>2026-04-17T08:55:56.88Z</time></trkpt><trkpt lat="42.62809" lon="-8.9619567"><ele>475.0</ele><time>2026-04-17T08:55:57.88Z</time></trkpt><trkpt lat="42.6282083" lon="-8.9619733"><ele>475.0</ele><time>2026-04-17T08:55:58.88Z</time></trkpt><trkpt lat="42.6256967" lon="-8.9595183"><ele>477.75</ele><time>2026-04-17T08:55:28.881Z</time></trkpt><trkpt lat="42.6257817" lon="-8.9596233"><ele>480.5</ele><time>2026-04-17T08:55:29.881Z</time></trkpt><trkpt lat="42.6258667" lon="-8.9597467"><ele>483.25</ele><time>2026-04-17T08:55:30.881Z</time></trkpt><trkpt lat="42.62595" lon="-8.9598467"><ele>486.0</ele><time>2026-04-17T08:55:31.881Z</time></trkpt><trkpt lat="42.6260483" lon="-8.9599433"><ele>485.75</ele><time>2026-04-17T08:55:32.88Z</time></trkpt><trkpt lat="42.62615" lon="-8.9600233"><ele>485.5</ele><time>2026-04-17T08:55:33.88Z</time></trkpt><trkpt lat="42.6262583" lon="-8.96009"><ele>485.25</ele><time>2026-04-17T08:55:34.881Z</time></trkpt><trkpt lat="42.62637" lon="-8.9601567"><ele>485.0</ele><time>2026-04-17T08:55:35.88Z</time></trkpt><trkpt lat="42.6264733" lon="-8.9602183"><ele>485.0</ele><time>2026-04-17T08:55:36.881Z</time></trkpt><trkpt lat="42.6265783" lon="-8.9602867"><ele>485.0</ele><time>2026-04-17T08:55:37.88Z</time></trkpt><trkpt lat="42.6266833" lon="-8.9603433"><ele>485.0</ele><time>2026-04-17T08:55:38.88Z</time></trkpt><trkpt lat="42.6267917" lon="-8.9604083"><ele>485.0</ele><time>2026-04-17T08:55:39.88Z</time></trkpt><trkpt lat="42.6269033" lon="-8.9604667"><ele>485.2</ele><time>2026-04-17T08:55:40.88Z</time></trkpt><trkpt lat="42.62701" lon="-8.960535"><ele>485.4</ele><time>2026-04-17T08:55:41.881Z</time></trkpt><trkpt lat="42.6271067" lon="-8.9606133"><ele>485.6</ele><time>2026-04-17T08:55:42.88Z</time></trkpt><trkpt lat="42.6271867" lon="-8.9607017"><ele>485.8</ele><time>2026-04-17T08:55:43.881Z</time></trkpt><trkpt lat="42.6272383" lon="-8.960785"><ele>486.0</ele><time>2026-04-17T08:55:44.88Z</time></trkpt><trkpt lat="42.6272783" lon="-8.9608733"><ele>485.6666666666667</ele><time>2026-04-17T08:55:45.88Z</time></trkpt><trkpt lat="42.6273217" lon="-8.9609617"><ele>485.33333333333337</ele><time>2026-04-17T08:55:46.881Z</time></trkpt><trkpt lat="42.6273617" lon="-8.961065"><ele>485.0</ele><time>2026-04-17T08:55:47.881Z</time></trkpt><trkpt lat="42.6274017" lon="-8.961165"><ele>484.6666666666667</ele><time>2026-04-17T08:55:48.88Z</time></trkpt><trkpt lat="42.6274533" lon="-8.9612817"><ele>484.33333333333337</ele><time>2026-04-17T08:55:49.881Z</time></trkpt><trkpt lat="42.6275" lon="-8.961395"><ele>484.0</ele><time>2026-04-17T08:55:50.88Z</time></trkpt><trkpt lat="42.6275467" lon="-8.961525"><ele>484.0</ele><time>2026-04-17T08:55:51.881Z</time></trkpt><trkpt lat="42.6276017" lon="-8.96165"><ele>484.0</ele><time>2026-04-17T08:55:52.88Z</time></trkpt><trkpt lat="42.6276683" lon="-8.9617683"><ele>484.0</ele><time>2026-04-17T08:55:53.88Z</time></trkpt><trkpt lat="42.6277583" lon="-8.9618433"><ele>484.0</ele><time>2026-04-17T08:55:54.88Z</time></trkpt><trkpt lat="42.6278583" lon="-8.9619"><ele>484.0</ele><time>2026-04-17T08:55:55.88Z</time></trkpt><trkpt lat="42.6279767" lon="-8.9619417"><ele>481.75</ele><time>2026-04-17T08:55:56.88Z</time></trkpt><trkpt lat="42.62809" lon="-8.9619567"><ele>479.5</ele><time>2026-04-17T08:55:57.88Z</time></trkpt><trkpt lat="42.6282083" lon="-8.9619733"><ele>477.25</ele><time>2026-04-17T08:55:58.88Z</time></trkpt><trkpt lat="42.6283233" lon="-8.9619833"><ele>475.0</ele><time>2026-04-17T08:55:59.881Z</time></trkpt><trkpt lat="42.62844" lon="-8.9619883"><ele>475.0</ele><time>2026-04-17T08:56:00.88Z</time></trkpt><trkpt lat="42.6285567" lon="-8.9620033"><ele>475.0</ele><time>2026-04-17T08:56:01.88Z</time></trkpt><trkpt lat="42.628675" lon="-8.9620167"><ele>475.0</ele><time>2026-04-17T08:56:02.88Z</time></trkpt><trkpt lat="42.62879" lon="-8.9620433"><ele>475.0</ele><time>2026-04-17T08:56:03.88Z</time></trkpt><trkpt lat="42.6289033" lon="-8.9620783"><ele>475.5</ele><time>2026-04-17T08:56:04.88Z</time></trkpt><trkpt lat="42.62902" lon="-8.96214"><ele>476.0</ele><time>2026-04-17T08:56:05.881Z</time></trkpt><trkpt lat="42.62913" lon="-8.9622133"><ele>476.5</ele><time>2026-04-17T08:56:06.88Z</time></trkpt><trkpt lat="42.62923" lon="-8.9622717"><ele>477.0</ele><time>2026-04-17T08:56:07.881Z</time></trkpt><trkpt lat="42.629335" lon="-8.9623383"><ele>477.0</ele><time>2026-04-17T08:56:08.88Z</time></trkpt><trkpt lat="42.6294417" lon="-8.9624083"><ele>477.0</ele><time>2026-04-17T08:56:09.88Z</time></trkpt><trkpt lat="42.6295483" lon="-8.9624817"><ele>477.0</ele><time>2026-04-17T08:56:10.88Z</time></trkpt><trkpt lat="42.62966" lon="-8.962555"><ele>477.0</ele><time>2026-04-17T08:56:11.88Z</time></trkpt><trkpt lat="42.6297717" lon="-8.9626283"><ele>475.5</ele><time>2026-04-17T08:56:12.88Z</time></trkpt><trkpt lat="42.6298783" lon="-8.9626983"><ele>474.0</ele><time>2026-04-17T08:56:13.881Z</time></trkpt><trkpt lat="42.6299867" lon="-8.9627617"><ele>472.5</ele><time>2026-04-17T08:56:14.881Z</time></trkpt><trkpt lat="42.6300983" lon="-8.9628283"><ele>471.0</ele><time>2026-04-17T08:56:15.88Z</time></trkpt><trkpt lat="42.63021" lon="-8.962895"><ele>472.5</ele><time>2026-04-17T08:56:16.881Z</time></trkpt><trkpt lat="42.6303217" lon="-8.9629683"><ele>474.0</ele><time>2026-04-17T08:56:17.88Z</time></trkpt><trkpt lat="42.6304367" lon="-8.9630367"><ele>475.5</ele><time>2026-04-17T08:56:18.88Z</time></trkpt><trkpt lat="42.63055" lon="-8.9631033"><ele>477.0</ele><time>2026-04-17T08:56:19.88Z</time></trkpt><trkpt lat="42.630665" lon="-8.96317"><ele>477.0</ele><time>2026-04-17T08:56:20.881Z</time></trkpt><trkpt lat="42.6307783" lon="-8.9632333"><ele>477.0</ele><time>2026-04-17T08:56:21.88Z</time></trkpt><trkpt lat="42.630895" lon="-8.9632867"><ele>477.0</ele><time>2026-04-17T08:56:22.88Z</time></trkpt><trkpt lat="42.6310083" lon="-8.96333"><ele>477.0</ele><time>2026-04-17T08:56:23.881Z</time></trkpt><trkpt lat="42.6311217" lon="-8.963375"><ele>478.25</ele><time>2026-04-17T08:56:24.88Z</time></trkpt><trkpt lat="42.6312367" lon="-8.9634233"><ele>479.5</ele><time>2026-04-17T08:56:25.881Z</time></trkpt><trkpt lat="42.6313533" lon="-8.9634783"><ele>480.75</ele><time>2026-04-17T08:56:26.881Z</time></trkpt><trkpt lat="42.6314717" lon="-8.9635283"><ele>482.0</ele><time>2026-04-17T08:56:27.88Z</time></trkpt><trkpt lat="42.63159" lon="-8.963585"><ele>482.0</ele><time>2026-04-17T08:56:28.88Z</time></trkpt><trkpt lat="42.631705" lon="-8.963645"><ele>482.0</ele><time>2026-04-17T08:56:29.88Z</time></trkpt><trkpt lat="42.6318217" lon="-8.9636983"><ele>482.0</ele><time>2026-04-17T08:56:30.881Z</time></trkpt><trkpt lat="42.6319367" lon="-8.9637433"><ele>482.0</ele><time>2026-04-17T08:56:31.88Z</time></trkpt><trkpt lat="42.63205" lon="-8.963795"><ele>483.0</ele><time>2026-04-17T08:56:32.881Z</time></trkpt><trkpt lat="42.63217" lon="-8.963855"><ele>484.0</ele><time>2026-04-17T08:56:33.881Z</time></trkpt><trkpt lat="42.6322867" lon="-8.9639067"><ele>485.0</ele><time>2026-04-17T08:56:34.88Z</time></trkpt><trkpt lat="42.6324" lon="-8.96395"><ele>486.0</ele><time>2026-04-17T08:56:35.88Z</time></trkpt><trkpt lat="42.6325083" lon="-8.963995"><ele>486.0</ele><time>2026-04-17T08:56:36.881Z</time></trkpt><trkpt lat="42.6326217" lon="-8.9640467"><ele>486.0</ele><time>2026-04-17T08:56:37.881Z</time></trkpt><trkpt lat="42.6327383" lon="-8.9640967"><ele>486.0</ele><time>2026-04-17T08:56:38.88Z</time></trkpt><trkpt lat="42.6328567" lon="-8.964145"><ele>486.0</ele><time>2026-04-17T08:56:39.881Z</time></trkpt><trkpt lat="42.6329683" lon="-8.9641917"><ele>486.0</ele><time>2026-04-17T08:56:40.881Z</time></trkpt><trkpt lat="42.6330833" lon="-8.964235"><ele>486.0</ele><time>2026-04-17T08:56:41.88Z</time></trkpt><trkpt lat="42.6331967" lon="-8.964275"><ele>486.0</ele><time>2026-04-17T08:56:42.88Z</time></trkpt><trkpt lat="42.6333083" lon="-8.9643267"><ele>486.0</ele><time>2026-04-17T08:56:43.881Z</time></trkpt><trkpt lat="42.633415" lon="-8.9643767"><ele>486.0</ele><time>2026-04-17T08:56:44.88Z</time></trkpt><trkpt lat="42.6335333" lon="-8.964435"><ele>486.0</ele><time>2026-04-17T08:56:45.881Z</time></trkpt><trkpt lat="42.6336417" lon="-8.9645017"><ele>486.0</ele><time>2026-04-17T08:56:46.88Z</time></trkpt><trkpt lat="42.6337317" lon="-8.9645817"><ele>486.0</ele><time>2026-04-17T08:56:47.881Z</time></trkpt><trkpt lat="42.633825" lon="-8.9646883"><ele>486.0</ele><time>2026-04-17T08:56:48.88Z</time></trkpt><trkpt lat="42.6339117" lon="-8.9647967"><ele>486.0</ele><time>2026-04-17T08:56:49.88Z</time></trkpt><trkpt lat="42.63399" lon="-8.9649083"><ele>486.0</ele><time>2026-04-17T08:56:50.881Z</time></trkpt><trkpt lat="42.63406" lon="-8.9650167"><ele>486.0</ele><time>2026-04-17T08:56:51.88Z</time></trkpt><trkpt lat="42.6341317" lon="-8.965125"><ele>486.0</ele><time>2026-04-17T08:56:52.88Z</time></trkpt><trkpt lat="42.6342" lon="-8.96524"><ele>486.0</ele><time>2026-04-17T08:56:53.88Z</time></trkpt><trkpt lat="42.6342767" lon="-8.96535"><ele>486.0</ele><time>2026-04-17T08:56:54.88Z</time></trkpt><trkpt lat="42.6343567" lon="-8.9654667"><ele>486.0</ele><time>2026-04-17T08:56:55.881Z</time></trkpt><trkpt lat="42.6344367" lon="-8.9655883"><ele>486.0</ele><time>2026-04-17T08:56:56.881Z</time></trkpt><trkpt lat="42.6345133" lon="-8.9657083"><ele>487.0</ele><time>2026-04-17T08:56:57.881Z</time></trkpt><trkpt lat="42.6345917" lon="-8.9658317"><ele>488.0</ele><time>2026-04-17T08:56:58.88Z</time></trkpt><trkpt lat="42.634675" lon="-8.965965"><ele>489.0</ele><time>2026-04-17T08:56:59.881Z</time></trkpt><trkpt lat="42.6347583" lon="-8.96609"><ele>490.0</ele><time>2026-04-17T08:57:00.881Z</time></trkpt><trkpt lat="42.6348433" lon="-8.9662167"><ele>490.0</ele><time>2026-04-17T08:57:01.88Z</time></trkpt><trkpt lat="42.6349217" lon="-8.96633"><ele>490.0</ele><time>2026-04-17T08:57:02.88Z</time></trkpt><trkpt lat="42.6350017" lon="-8.9664417"><ele>490.0</ele><time>2026-04-17T08:57:03.88Z</time></trkpt><trkpt lat="42.6350883" lon="-8.966565"><ele>490.0</ele><time>2026-04-17T08:57:04.88Z</time></trkpt><trkpt lat="42.63517" lon="-8.9666817"><ele>490.25</ele><time>2026-04-17T08:57:05.881Z</time></trkpt><trkpt lat="42.6352517" lon="-8.9667933"><ele>490.5</ele><time>2026-04-17T08:57:06.88Z</time></trkpt><trkpt lat="42.6353283" lon="-8.9669117"><ele>490.75</ele><time>2026-04-17T08:57:07.88Z</time></trkpt><trkpt lat="42.6354133" lon="-8.9670033"><ele>491.0</ele><time>2026-04-17T08:57:08.881Z</time></trkpt><trkpt lat="42.6355067" lon="-8.96709"><ele>491.0</ele><time>2026-04-17T08:57:09.88Z</time></trkpt><trkpt lat="42.6356017" lon="-8.9671717"><ele>491.0</ele><time>2026-04-17T08:57:10.88Z</time></trkpt><trkpt lat="42.6357017" lon="-8.9672317"><ele>491.0</ele><time>2026-04-17T08:57:11.88Z</time></trkpt><trkpt lat="42.6358083" lon="-8.9673017"><ele>491.0</ele><time>2026-04-17T08:57:12.88Z</time></trkpt><trkpt lat="42.6359167" lon="-8.96737"><ele>491.0</ele><time>2026-04-17T08:57:13.88Z</time></trkpt><trkpt lat="42.63602" lon="-8.967445"><ele>491.0</ele><time>2026-04-17T08:57:14.881Z</time></trkpt><trkpt lat="42.6361233" lon="-8.96752"><ele>491.0</ele><time>2026-04-17T08:57:15.88Z</time></trkpt><trkpt lat="42.636225" lon="-8.9675933"><ele>491.0</ele><time>2026-04-17T08:57:16.881Z</time></trkpt><trkpt lat="42.636325" lon="-8.9676667"><ele>492.0</ele><time>2026-04-17T08:57:17.88Z</time></trkpt><trkpt lat="42.6364283" lon="-8.967735"><ele>493.0</ele><time>2026-04-17T08:57:18.88Z</time></trkpt><trkpt lat="42.6365283" lon="-8.9678067"><ele>494.0</ele><time>2026-04-17T08:57:19.88Z</time></trkpt><trkpt lat="42.6366283" lon="-8.9678783"><ele>495.0</ele><time>2026-04-17T08:57:20.881Z</time></trkpt><trkpt lat="42.6367367" lon="-8.9679617"><ele>495.0</ele><time>2026-04-17T08:57:21.881Z</time></trkpt><trkpt lat="42.6368417" lon="-8.9680417"><ele>495.0</ele><time>2026-04-17T08:57:22.881Z</time></trkpt><trkpt lat="42.63695" lon="-8.9681083"><ele>495.0</ele><time>2026-04-17T08:57:23.88Z</time></trkpt><trkpt lat="42.6370567" lon="-8.96818"><ele>495.0</ele><time>2026-04-17T08:57:24.881Z</time></trkpt><trkpt lat="42.637165" lon="-8.9682567"><ele>486.0</ele><time>2026-04-17T08:57:25.881Z</time></trkpt><trkpt lat="42.6343567" lon="-8.9654667"><ele>486.0</ele><time>2026-04-17T08:56:55.881Z</time></trkpt><trkpt lat="42.6344367" lon="-8.9655883"><ele>486.0</ele><time>2026-04-17T08:56:56.881Z</time></trkpt><trkpt lat="42.6345133" lon="-8.9657083"><ele>486.0</ele><time>2026-04-17T08:56:57.881Z</time></trkpt><trkpt lat="42.6345917" lon="-8.9658317"><ele>486.0</ele><time>2026-04-17T08:56:58.88Z</time></trkpt><trkpt lat="42.634675" lon="-8.965965"><ele>487.0</ele><time>2026-04-17T08:56:59.881Z</time></trkpt><trkpt lat="42.6347583" lon="-8.96609"><ele>488.0</ele><time>2026-04-17T08:57:00.881Z</time></trkpt><trkpt lat="42.6348433" lon="-8.9662167"><ele>489.0</ele><time>2026-04-17T08:57:01.88Z</time></trkpt><trkpt lat="42.6349217" lon="-8.96633"><ele>490.0</ele><time>2026-04-17T08:57:02.88Z</time></trkpt><trkpt lat="42.6350017" lon="-8.9664417"><ele>490.0</ele><time>2026-04-17T08:57:03.88Z</time></trkpt><trkpt lat="42.6350883" lon="-8.966565"><ele>490.0</ele><time>2026-04-17T08:57:04.88Z</time></trkpt><trkpt lat="42.63517" lon="-8.9666817"><ele>490.0</ele><time>2026-04-17T08:57:05.881Z</time></trkpt><trkpt lat="42.6352517" lon="-8.9667933"><ele>490.0</ele><time>2026-04-17T08:57:06.88Z</time></trkpt><trkpt lat="42.6353283" lon="-8.9669117"><ele>490.2</ele><time>2026-04-17T08:57:07.88Z</time></trkpt><trkpt lat="42.6354133" lon="-8.9670033"><ele>490.4</ele><time>2026-04-17T08:57:08.881Z</time></trkpt><trkpt lat="42.6355067" lon="-8.96709"><ele>490.6</ele><time>2026-04-17T08:57:09.88Z</time></trkpt><trkpt lat="42.6356017" lon="-8.9671717"><ele>490.8</ele><time>2026-04-17T08:57:10.88Z</time></trkpt><trkpt lat="42.6357017" lon="-8.9672317"><ele>491.0</ele><time>2026-04-17T08:57:11.88Z</time></trkpt><trkpt lat="42.6358083" lon="-8.9673017"><ele>491.0</ele><time>2026-04-17T08:57:12.88Z</time></trkpt><trkpt lat="42.6359167" lon="-8.96737"><ele>491.0</ele><time>2026-04-17T08:57:13.88Z</time></trkpt><trkpt lat="42.63602" lon="-8.967445"><ele>491.0</ele><time>2026-04-17T08:57:14.881Z</time></trkpt><trkpt lat="42.6361233" lon="-8.96752"><ele>491.0</ele><time>2026-04-17T08:57:15.88Z</time></trkpt><trkpt lat="42.636225" lon="-8.9675933"><ele>492.0</ele><time>2026-04-17T08:57:16.881Z</time></trkpt><trkpt lat="42.636325" lon="-8.9676667"><ele>493.0</ele><time>2026-04-17T08:57:17.88Z</time></trkpt><trkpt lat="42.6364283" lon="-8.967735"><ele>494.0</ele><time>2026-04-17T08:57:18.88Z</time></trkpt><trkpt lat="42.6365283" lon="-8.9678067"><ele>495.0</ele><time>2026-04-17T08:57:19.88Z</time></trkpt><trkpt lat="42.6366283" lon="-8.9678783"><ele>495.0</ele><time>2026-04-17T08:57:20.881Z</time></trkpt><trkpt lat="42.6367367" lon="-8.9679617"><ele>495.0</ele><time>2026-04-17T08:57:21.881Z</time></trkpt><trkpt lat="42.6368417" lon="-8.9680417"><ele>495.0</ele><time>2026-04-17T08:57:22.881Z</time></trkpt><trkpt lat="42.63695" lon="-8.9681083"><ele>495.0</ele><time>2026-04-17T08:57:23.88Z</time></trkpt><trkpt lat="42.6370567" lon="-8.96818"><ele>495.75</ele><time>2026-04-17T08:57:24.881Z</time></trkpt><trkpt lat="42.637165" lon="-8.9682567"><ele>496.5</ele><time>2026-04-17T08:57:25.881Z</time></trkpt><trkpt lat="42.6372683" lon="-8.9683233"><ele>497.25</ele><time>2026-04-17T08:57:26.881Z</time></trkpt><trkpt lat="42.63737" lon="-8.9683967"><ele>498.0</ele><time>2026-04-17T08:57:27.881Z</time></trkpt><trkpt lat="42.6374767" lon="-8.968465"><ele>498.0</ele><time>2026-04-17T08:57:28.88Z</time></trkpt><trkpt lat="42.637585" lon="-8.9685483"><ele>498.0</ele><time>2026-04-17T08:57:29.88Z</time></trkpt><trkpt lat="42.6376933" lon="-8.9686183"><ele>498.0</ele><time>2026-04-17T08:57:30.881Z</time></trkpt><trkpt lat="42.6378017" lon="-8.9686933"><ele>498.0</ele><time>2026-04-17T08:57:31.88Z</time></trkpt><trkpt lat="42.6379017" lon="-8.9687683"><ele>499.5</ele><time>2026-04-17T08:57:32.881Z</time></trkpt><trkpt lat="42.6380017" lon="-8.9688333"><ele>501.0</ele><time>2026-04-17T08:57:33.881Z</time></trkpt><trkpt lat="42.6381083" lon="-8.9689033"><ele>502.5</ele><time>2026-04-17T08:57:34.881Z</time></trkpt><trkpt lat="42.63821" lon="-8.9689817"><ele>504.0</ele><time>2026-04-17T08:57:35.881Z</time></trkpt><trkpt lat="42.6383117" lon="-8.9690583"><ele>504.0</ele><time>2026-04-17T08:57:36.881Z</time></trkpt><trkpt lat="42.63841" lon="-8.969135"><ele>504.0</ele><time>2026-04-17T08:57:37.881Z</time></trkpt><trkpt lat="42.6385133" lon="-8.969205"><ele>504.0</ele><time>2026-04-17T08:57:38.881Z</time></trkpt><trkpt lat="42.6386217" lon="-8.969285"><ele>504.0</ele><time>2026-04-17T08:57:39.88Z</time></trkpt><trkpt lat="42.638735" lon="-8.9693517"><ele>505.75</ele><time>2026-04-17T08:57:40.88Z</time></trkpt><trkpt lat="42.6388483" lon="-8.9694133"><ele>507.5</ele><time>2026-04-17T08:57:41.881Z</time></trkpt><trkpt lat="42.63896" lon="-8.9694817"><ele>509.25</ele><time>2026-04-17T08:57:42.881Z</time></trkpt><trkpt lat="42.639075" lon="-8.9695517"><ele>511.0</ele><time>2026-04-17T08:57:43.881Z</time></trkpt><trkpt lat="42.6391833" lon="-8.9696267"><ele>511.0</ele><time>2026-04-17T08:57:44.881Z</time></trkpt><trkpt lat="42.6392983" lon="-8.9697033"><ele>511.0</ele><time>2026-04-17T08:57:45.88Z</time></trkpt><trkpt lat="42.6394083" lon="-8.9697817"><ele>511.0</ele><time>2026-04-17T08:57:46.881Z</time></trkpt><trkpt lat="42.6395117" lon="-8.9698533"><ele>511.0</ele><time>2026-04-17T08:57:47.88Z</time></trkpt><trkpt lat="42.6396183" lon="-8.969925"><ele>510.75</ele><time>2026-04-17T08:57:48.881Z</time></trkpt><trkpt lat="42.6397217" lon="-8.9699933"><ele>510.5</ele><time>2026-04-17T08:57:49.881Z</time></trkpt><trkpt lat="42.6398317" lon="-8.9700617"><ele>510.25</ele><time>2026-04-17T08:57:50.88Z</time></trkpt><trkpt lat="42.6399367" lon="-8.970135"><ele>510.0</ele><time>2026-04-17T08:57:51.881Z</time></trkpt><trkpt lat="42.6400433" lon="-8.970205"><ele>510.0</ele><time>2026-04-17T08:57:52.881Z</time></trkpt><trkpt lat="42.6401383" lon="-8.9702667"><ele>510.0</ele><time>2026-04-17T08:57:53.88Z</time></trkpt><trkpt lat="42.64024" lon="-8.97032"><ele>510.0</ele><time>2026-04-17T08:57:54.881Z</time></trkpt><trkpt lat="42.6403483" lon="-8.9703433"><ele>510.0</ele><time>2026-04-17T08:57:55.881Z</time></trkpt><trkpt lat="42.6404533" lon="-8.970315"><ele>510.0</ele><time>2026-04-17T08:57:56.88Z</time></trkpt><trkpt lat="42.64056" lon="-8.9702583"><ele>510.2</ele><time>2026-04-17T08:57:57.88Z</time></trkpt><trkpt lat="42.6406517" lon="-8.9701917"><ele>510.4</ele><time>2026-04-17T08:57:58.88Z</time></trkpt><trkpt lat="42.640745" lon="-8.970125"><ele>510.6</ele><time>2026-04-17T08:57:59.88Z</time></trkpt><trkpt lat="42.640845" lon="-8.9700483"><ele>510.8</ele><time>2026-04-17T08:58:00.88Z</time></trkpt><trkpt lat="42.6409433" lon="-8.969975"><ele>511.0</ele><time>2026-04-17T08:58:01.881Z</time></trkpt><trkpt lat="42.6410533" lon="-8.9699"><ele>511.5</ele><time>2026-04-17T08:58:02.881Z</time></trkpt><trkpt lat="42.6411633" lon="-8.9698217"><ele>512.0</ele><time>2026-04-17T08:58:03.88Z</time></trkpt><trkpt lat="42.6412817" lon="-8.9697383"><ele>512.5</ele><time>2026-04-17T08:58:04.881Z</time></trkpt><trkpt lat="42.6413917" lon="-8.969665"><ele>513.0</ele><time>2026-04-17T08:58:05.881Z</time></trkpt><trkpt lat="42.6414983" lon="-8.9695983"><ele>513.0</ele><time>2026-04-17T08:58:06.881Z</time></trkpt><trkpt lat="42.64161" lon="-8.969525"><ele>513.0</ele><time>2026-04-17T08:58:07.881Z</time></trkpt><trkpt lat="42.6417233" lon="-8.9694633"><ele>513.0</ele><time>2026-04-17T08:58:08.88Z</time></trkpt><trkpt lat="42.6418367" lon="-8.9693983"><ele>513.0</ele><time>2026-04-17T08:58:09.88Z</time></trkpt><trkpt lat="42.64195" lon="-8.969335"><ele>512.5</ele><time>2026-04-17T08:58:10.881Z</time></trkpt><trkpt lat="42.64206" lon="-8.9692683"><ele>512.0</ele><time>2026-04-17T08:58:11.881Z</time></trkpt><trkpt lat="42.6421633" lon="-8.969195"><ele>511.5</ele><time>2026-04-17T08:58:12.881Z</time></trkpt><trkpt lat="42.64227" lon="-8.9691283"><ele>511.0</ele><time>2026-04-17T08:58:13.881Z</time></trkpt><trkpt lat="42.64238" lon="-8.969055"><ele>510.20000000000005</ele><time>2026-04-17T08:58:14.88Z</time></trkpt><trkpt lat="42.6424817" lon="-8.9689867"><ele>509.40000000000003</ele><time>2026-04-17T08:58:15.881Z</time></trkpt><trkpt lat="42.6425767" lon="-8.96892"><ele>508.6</ele><time>2026-04-17T08:58:16.88Z</time></trkpt><trkpt lat="42.64267" lon="-8.96884"><ele>507.8</ele><time>2026-04-17T08:58:17.881Z</time></trkpt><trkpt lat="42.6427683" lon="-8.96877"><ele>507.0</ele><time>2026-04-17T08:58:18.88Z</time></trkpt><trkpt lat="42.642875" lon="-8.9687133"><ele>507.0</ele><time>2026-04-17T08:58:19.881Z</time></trkpt><trkpt lat="42.6429867" lon="-8.9686517"><ele>507.0</ele><time>2026-04-17T08:58:20.88Z</time></trkpt><trkpt lat="42.6430933" lon="-8.968585"><ele>507.0</ele><time>2026-04-17T08:58:21.881Z</time></trkpt><trkpt lat="42.643195" lon="-8.968515"><ele>507.0</ele><time>2026-04-17T08:58:22.88Z</time></trkpt><trkpt lat="42.6432983" lon="-8.96844"><ele>507.0</ele><time>2026-04-17T08:58:23.88Z</time></trkpt><trkpt lat="42.6433917" lon="-8.9683783"><ele>507.0</ele><time>2026-04-17T08:58:24.881Z</time></trkpt><trkpt lat="42.643495" lon="-8.96831"><ele>507.0</ele><time>2026-04-17T08:58:25.88Z</time></trkpt><trkpt lat="42.6436083" lon="-8.9682267"><ele>507.0</ele><time>2026-04-17T08:58:26.881Z</time></trkpt><trkpt lat="42.6437217" lon="-8.968155"><ele>505.25</ele><time>2026-04-17T08:58:27.88Z</time></trkpt><trkpt lat="42.6438317" lon="-8.96808"><ele>503.5</ele><time>2026-04-17T08:58:28.881Z</time></trkpt><trkpt lat="42.643935" lon="-8.968025"><ele>501.75</ele><time>2026-04-17T08:58:29.881Z</time></trkpt><trkpt lat="42.644035" lon="-8.9679717"><ele>500.0</ele><time>2026-04-17T08:58:30.881Z</time></trkpt><trkpt lat="42.644135" lon="-8.9678983"><ele>500.0</ele><time>2026-04-17T08:58:31.88Z</time></trkpt><trkpt lat="42.6442467" lon="-8.967825"><ele>500.0</ele><time>2026-04-17T08:58:32.88Z</time></trkpt><trkpt lat="42.6443617" lon="-8.9677517"><ele>500.0</ele><time>2026-04-17T08:58:33.881Z</time></trkpt><trkpt lat="42.6444717" lon="-8.967675"><ele>500.0</ele><time>2026-04-17T08:58:34.88Z</time></trkpt><trkpt lat="42.6445833" lon="-8.967595"><ele>498.0</ele><time>2026-04-17T08:58:35.881Z</time></trkpt><trkpt lat="42.6446917" lon="-8.967515"><ele>496.0</ele><time>2026-04-17T08:58:36.88Z</time></trkpt><trkpt lat="42.6448" lon="-8.96744"><ele>494.0</ele><time>2026-04-17T08:58:37.88Z</time></trkpt><trkpt lat="42.64491" lon="-8.9673667"><ele>492.0</ele><time>2026-04-17T08:58:38.88Z</time></trkpt><trkpt lat="42.6450283" lon="-8.9672817"><ele>492.0</ele><time>2026-04-17T08:58:39.88Z</time></trkpt><trkpt lat="42.6451417" lon="-8.9672067"><ele>492.0</ele><time>2026-04-17T08:58:40.88Z</time></trkpt><trkpt lat="42.64525" lon="-8.96714"><ele>492.0</ele><time>2026-04-17T08:58:41.88Z</time></trkpt><trkpt lat="42.6453433" lon="-8.9670717"><ele>492.0</ele><time>2026-04-17T08:58:42.88Z</time></trkpt><trkpt lat="42.6454417" lon="-8.9670083"><ele>492.25</ele><time>2026-04-17T08:58:43.881Z</time></trkpt><trkpt lat="42.6455383" lon="-8.9669333"><ele>492.5</ele><time>2026-04-17T08:58:44.88Z</time></trkpt><trkpt lat="42.64564" lon="-8.966865"><ele>492.75</ele><time>2026-04-17T08:58:45.88Z</time></trkpt><trkpt lat="42.6457467" lon="-8.9667933"><ele>493.0</ele><time>2026-04-17T08:58:46.881Z</time></trkpt><trkpt lat="42.64586" lon="-8.96671"><ele>492.75</ele><time>2026-04-17T08:58:47.88Z</time></trkpt><trkpt lat="42.645995" lon="-8.9666367"><ele>492.5</ele><time>2026-04-17T08:58:48.88Z</time></trkpt><trkpt lat="42.6461383" lon="-8.96657"><ele>492.25</ele><time>2026-04-17T08:58:49.88Z</time></trkpt><trkpt lat="42.6462567" lon="-8.9665433"><ele>492.0</ele><time>2026-04-17T08:58:50.88Z</time></trkpt><trkpt lat="42.64636" lon="-8.9665883"><ele>493.66666666666663</ele><time>2026-04-17T08:58:51.88Z</time></trkpt><trkpt lat="42.6464717" lon="-8.9667133"><ele>495.3333333333333</ele><time>2026-04-17T08:58:52.881Z</time></trkpt><trkpt lat="42.6466033" lon="-8.9668683"><ele>497.0</ele><time>2026-04-17T08:58:53.88Z</time></trkpt><trkpt lat="42.64675" lon="-8.9670517"><ele>497.0</ele><time>2026-04-17T08:58:54.88Z</time></trkpt><trkpt lat="42.64691" lon="-8.9672383"><ele>497.0</ele><time>2026-04-17T08:58:55.881Z</time></trkpt><trkpt lat="42.6470767" lon="-8.9674033"><ele>497.0</ele><time>2026-04-17T08:58:56.881Z</time></trkpt><trkpt lat="42.6472367" lon="-8.9675483"><ele>497.3333333333333</ele><time>2026-04-17T08:58:57.881Z</time></trkpt><trkpt lat="42.647405" lon="-8.9676733"><ele>497.66666666666663</ele><time>2026-04-17T08:58:58.88Z</time></trkpt><trkpt lat="42.6475667" lon="-8.96776"><ele>498.0</ele><time>2026-04-17T08:58:59.88Z</time></trkpt><trkpt lat="42.647725" lon="-8.9677983"><ele>499.66666666666663</ele><time>2026-04-17T08:59:00.881Z</time></trkpt><trkpt lat="42.6478867" lon="-8.9677933"><ele>501.3333333333333</ele><time>2026-04-17T08:59:01.88Z</time></trkpt><trkpt lat="42.6480633" lon="-8.9677417"><ele>503.0</ele><time>2026-04-17T08:59:02.881Z</time></trkpt><trkpt lat="42.6482433" lon="-8.9676667"><ele>503.0</ele><time>2026-04-17T08:59:03.881Z</time></trkpt><trkpt lat="42.6484267" lon="-8.9676"><ele>503.0</ele><time>2026-04-17T08:59:04.88Z</time></trkpt><trkpt lat="42.6486133" lon="-8.96757"><ele>503.0</ele><time>2026-04-17T08:59:05.88Z</time></trkpt><trkpt lat="42.648815" lon="-8.967565"><ele>504.0</ele><time>2026-04-17T08:59:06.88Z</time></trkpt><trkpt lat="42.6490333" lon="-8.967595"><ele>505.0</ele><time>2026-04-17T08:59:07.881Z</time></trkpt><trkpt lat="42.6492467" lon="-8.9676117"><ele>506.0</ele><time>2026-04-17T08:59:08.881Z</time></trkpt><trkpt lat="42.6494583" lon="-8.9676167"><ele>505.0</ele><time>2026-04-17T08:59:09.881Z</time></trkpt><trkpt lat="42.649635" lon="-8.9676133"><ele>504.0</ele><time>2026-04-17T08:59:10.88Z</time></trkpt><trkpt lat="42.649775" lon="-8.967605"><ele>503.0</ele><time>2026-04-17T08:59:11.88Z</time></trkpt><trkpt lat="42.6498783" lon="-8.9676117"><ele>502.0</ele><time>2026-04-17T08:59:12.88Z</time></trkpt><trkpt lat="42.649965" lon="-8.96765"><ele>502.0</ele><time>2026-04-17T08:59:13.88Z</time></trkpt><trkpt lat="42.6500317" lon="-8.9677267"><ele>502.0</ele><time>2026-04-17T08:59:14.881Z</time></trkpt><trkpt lat="42.6500933" lon="-8.9678417"><ele>502.0</ele><time>2026-04-17T08:59:15.88Z</time></trkpt><trkpt lat="42.6501717" lon="-8.9680083"><ele>502.0</ele><time>2026-04-17T08:59:16.88Z</time></trkpt><trkpt lat="42.6502817" lon="-8.9681933"><ele>500.6666666666667</ele><time>2026-04-17T08:59:17.88Z</time></trkpt><trkpt lat="42.650425" lon="-8.9683867"><ele>499.33333333333337</ele><time>2026-04-17T08:59:18.881Z</time></trkpt><trkpt lat="42.650575" lon="-8.9685917"><ele>498.0</ele><time>2026-04-17T08:59:19.881Z</time></trkpt><trkpt lat="42.6507183" lon="-8.968785"><ele>498.0</ele><time>2026-04-17T08:59:20.881Z</time></trkpt><trkpt lat="42.6508633" lon="-8.9689583"><ele>498.0</ele><time>2026-04-17T08:59:21.881Z</time></trkpt><trkpt lat="42.651015" lon="-8.9691033"><ele>498.0</ele><time>2026-04-17T08:59:22.88Z</time></trkpt><trkpt lat="42.6511533" lon="-8.9692267"><ele>498.25</ele><time>2026-04-17T08:59:23.88Z</time></trkpt><trkpt lat="42.651295" lon="-8.9693167"><ele>498.5</ele><time>2026-04-17T08:59:24.881Z</time></trkpt><trkpt lat="42.65143" lon="-8.9693533"><ele>498.75</ele><time>2026-04-17T08:59:25.881Z</time></trkpt><trkpt lat="42.6515633" lon="-8.9693633"><ele>499.0</ele><time>2026-04-17T08:59:26.88Z</time></trkpt><trkpt lat="42.65171" lon="-8.9693467"><ele>499.0</ele><time>2026-04-17T08:59:27.881Z</time></trkpt><trkpt lat="42.65187" lon="-8.9693133"><ele>499.0</ele><time>2026-04-17T08:59:28.88Z</time></trkpt><trkpt lat="42.6520233" lon="-8.969255"><ele>499.0</ele><time>2026-04-17T08:59:29.881Z</time></trkpt><trkpt lat="42.6521817" lon="-8.9691617"><ele>497.33333333333337</ele><time>2026-04-17T08:59:30.881Z</time></trkpt><trkpt lat="42.6523467" lon="-8.969065"><ele>495.66666666666663</ele><time>2026-04-17T08:59:31.881Z</time></trkpt><trkpt lat="42.6525083" lon="-8.9689867"><ele>494.0</ele><time>2026-04-17T08:59:32.881Z</time></trkpt><trkpt lat="42.652685" lon="-8.9689317"><ele>495.0</ele><time>2026-04-17T08:59:33.882Z</time></trkpt><trkpt lat="42.6528717" lon="-8.9688933"><ele>496.0</ele><time>2026-04-17T08:59:34.881Z</time></trkpt><trkpt lat="42.65305" lon="-8.9688733"><ele>497.0</ele><time>2026-04-17T08:59:35.881Z</time></trkpt><trkpt lat="42.6532233" lon="-8.9688517"><ele>497.0</ele><time>2026-04-17T08:59:36.881Z</time></trkpt><trkpt lat="42.65342" lon="-8.9688283"><ele>497.0</ele><time>2026-04-17T08:59:37.881Z</time></trkpt><trkpt lat="42.653635" lon="-8.9688017"><ele>497.0</ele><time>2026-04-17T08:59:38.881Z</time></trkpt><trkpt lat="42.65386" lon="-8.968765"><ele>495.66666666666663</ele><time>2026-04-17T08:59:39.881Z</time></trkpt><trkpt lat="42.6540633" lon="-8.9687317"><ele>494.33333333333337</ele><time>2026-04-17T08:59:40.882Z</time></trkpt><trkpt lat="42.654265" lon="-8.9687033"><ele>493.0</ele><time>2026-04-17T08:59:41.882Z</time></trkpt><trkpt lat="42.654475" lon="-8.9686933"><ele>491.33333333333337</ele><time>2026-04-17T08:59:42.881Z</time></trkpt><trkpt lat="42.6546917" lon="-8.9686967"><ele>489.66666666666663</ele><time>2026-04-17T08:59:43.882Z</time></trkpt><trkpt lat="42.654895" lon="-8.96871"><ele>488.0</ele><time>2026-04-17T08:59:44.881Z</time></trkpt><trkpt lat="42.6550917" lon="-8.9687317"><ele>488.0</ele><time>2026-04-17T08:59:45.882Z</time></trkpt><trkpt lat="42.6552867" lon="-8.9687617"><ele>488.0</ele><time>2026-04-17T08:59:46.882Z</time></trkpt><trkpt lat="42.6554683" lon="-8.9688017"><ele>488.0</ele><time>2026-04-17T08:59:47.882Z</time></trkpt><trkpt lat="42.655635" lon="-8.96886"><ele>487.75</ele><time>2026-04-17T08:59:48.881Z</time></trkpt><trkpt lat="42.6557717" lon="-8.9689233"><ele>487.5</ele><time>2026-04-17T08:59:49.881Z</time></trkpt><trkpt lat="42.655885" lon="-8.9689717"><ele>487.25</ele><time>2026-04-17T08:59:50.881Z</time></trkpt><trkpt lat="42.65596" lon="-8.96899"><ele>487.0</ele><time>2026-04-17T08:59:51.882Z</time></trkpt><trkpt lat="42.656065" lon="-8.968925"><ele>487.0</ele><time>2026-04-17T08:59:53.881Z</time></trkpt><trkpt lat="42.6560967" lon="-8.9688283"><ele>487.0</ele><time>2026-04-17T08:59:54.882Z</time></trkpt><trkpt lat="42.65612" lon="-8.968675"><ele>487.0</ele><time>2026-04-17T08:59:55.882Z</time></trkpt><trkpt lat="42.656175" lon="-8.9685033"><ele>487.0</ele><time>2026-04-17T08:59:56.881Z</time></trkpt><trkpt lat="42.656255" lon="-8.9683617"><ele>484.75</ele><time>2026-04-17T08:59:57.881Z</time></trkpt><trkpt lat="42.6563567" lon="-8.9682533"><ele>482.5</ele><time>2026-04-17T08:59:58.882Z</time></trkpt><trkpt lat="42.6564867" lon="-8.9681767"><ele>480.25</ele><time>2026-04-17T08:59:59.882Z</time></trkpt><trkpt lat="42.65662" lon="-8.9681633"><ele>478.0</ele><time>2026-04-17T09:00:00.881Z</time></trkpt><trkpt lat="42.6567767" lon="-8.968185"><ele>478.33333333333337</ele><time>2026-04-17T09:00:01.881Z</time></trkpt><trkpt lat="42.6569667" lon="-8.9682333"><ele>478.66666666666663</ele><time>2026-04-17T09:00:02.881Z</time></trkpt><trkpt lat="42.6571767" lon="-8.9682817"><ele>479.0</ele><time>2026-04-17T09:00:03.881Z</time></trkpt><trkpt lat="42.6573967" lon="-8.968325"><ele>476.0</ele><time>2026-04-17T09:00:04.881Z</time></trkpt><trkpt lat="42.6576333" lon="-8.9683667"><ele>473.0</ele><time>2026-04-17T09:00:05.882Z</time></trkpt><trkpt lat="42.65788" lon="-8.9684233"><ele>472.0</ele><time>2026-04-17T09:00:06.881Z</time></trkpt><trkpt lat="42.6581133" lon="-8.9684717"><ele>471.0</ele><time>2026-04-17T09:00:07.882Z</time></trkpt><trkpt lat="42.6583517" lon="-8.9685317"><ele>471.0</ele><time>2026-04-17T09:00:08.882Z</time></trkpt><trkpt lat="42.6585783" lon="-8.968565"><ele>471.0</ele><time>2026-04-17T09:00:09.882Z</time></trkpt><trkpt lat="42.6588083" lon="-8.96862"><ele>473.0</ele><time>2026-04-17T09:00:10.881Z</time></trkpt><trkpt lat="42.6590283" lon="-8.9686933"><ele>475.0</ele><time>2026-04-17T09:00:11.881Z</time></trkpt><trkpt lat="42.659245" lon="-8.9687817"><ele>475.5</ele><time>2026-04-17T09:00:12.882Z</time></trkpt><trkpt lat="42.6594583" lon="-8.968895"><ele>476.0</ele><time>2026-04-17T09:00:13.882Z</time></trkpt><trkpt lat="42.6596767" lon="-8.9690067"><ele>476.0</ele><time>2026-04-17T09:00:14.882Z</time></trkpt><trkpt lat="42.65989" lon="-8.9691067"><ele>476.0</ele><time>2026-04-17T09:00:15.882Z</time></trkpt><trkpt lat="42.6600983" lon="-8.9692033"><ele>476.0</ele><time>2026-04-17T09:00:16.881Z</time></trkpt><trkpt lat="42.6602817" lon="-8.9692783"><ele>471.3333333333333</ele><time>2026-04-17T09:00:17.881Z</time></trkpt><trkpt lat="42.6604567" lon="-8.9693517"><ele>466.66666666666663</ele><time>2026-04-17T09:00:18.881Z</time></trkpt><trkpt lat="42.660625" lon="-8.9694083"><ele>462.0</ele><time>2026-04-17T09:00:19.881Z</time></trkpt><trkpt lat="42.6607833" lon="-8.96948"><ele>462.0</ele><time>2026-04-17T09:00:20.881Z</time></trkpt><trkpt lat="42.6609217" lon="-8.9695633"><ele>462.0</ele><time>2026-04-17T09:00:21.881Z</time></trkpt><trkpt lat="42.66104" lon="-8.9696417"><ele>462.0</ele><time>2026-04-17T09:00:22.882Z</time></trkpt><trkpt lat="42.66114" lon="-8.9697233"><ele>462.0</ele><time>2026-04-17T09:00:23.882Z</time></trkpt><trkpt lat="42.66125" lon="-8.9698183"><ele>464.0</ele><time>2026-04-17T09:00:24.881Z</time></trkpt><trkpt lat="42.6613883" lon="-8.969945"><ele>466.0</ele><time>2026-04-17T09:00:25.882Z</time></trkpt><trkpt lat="42.6615467" lon="-8.9700833"><ele>468.0</ele><time>2026-04-17T09:00:26.881Z</time></trkpt><trkpt lat="42.6617183" lon="-8.9701883"><ele>466.66666666666663</ele><time>2026-04-17T09:00:27.882Z</time></trkpt><trkpt lat="42.661895" lon="-8.9702683"><ele>465.3333333333333</ele><time>2026-04-17T09:00:28.882Z</time></trkpt><trkpt lat="42.6620933" lon="-8.9703683"><ele>464.0</ele><time>2026-04-17T09:00:29.882Z</time></trkpt><trkpt lat="42.6623" lon="-8.970465"><ele>464.0</ele><time>2026-04-17T09:00:30.882Z</time></trkpt><trkpt lat="42.662475" lon="-8.9705617"><ele>464.0</ele><time>2026-04-17T09:00:31.882Z</time></trkpt><trkpt lat="42.6626283" lon="-8.9706683"><ele>464.0</ele><time>2026-04-17T09:00:32.881Z</time></trkpt><trkpt lat="42.662765" lon="-8.9708067"><ele>458.3333333333333</ele><time>2026-04-17T09:00:33.881Z</time></trkpt><trkpt lat="42.6629017" lon="-8.9709067"><ele>452.66666666666663</ele><time>2026-04-17T09:00:34.881Z</time></trkpt><trkpt lat="42.66304" lon="-8.9709817"><ele>447.0</ele><time>2026-04-17T09:00:35.881Z</time></trkpt><trkpt lat="42.663195" lon="-8.9710333"><ele>447.0</ele><time>2026-04-17T09:00:36.882Z</time></trkpt><trkpt lat="42.66336" lon="-8.9710567"><ele>447.0</ele><time>2026-04-17T09:00:37.881Z</time></trkpt><trkpt lat="42.6635283" lon="-8.97107"><ele>447.0</ele><time>2026-04-17T09:00:38.882Z</time></trkpt><trkpt lat="42.66369" lon="-8.971085"><ele>446.66666666666663</ele><time>2026-04-17T09:00:39.881Z</time></trkpt><trkpt lat="42.66384" lon="-8.9711183"><ele>446.3333333333333</ele><time>2026-04-17T09:00:40.882Z</time></trkpt><trkpt lat="42.663995" lon="-8.9711717"><ele>446.0</ele><time>2026-04-17T09:00:41.881Z</time></trkpt><trkpt lat="42.6641583" lon="-8.9712267"><ele>446.0</ele><time>2026-04-17T09:00:42.882Z</time></trkpt><trkpt lat="42.66432" lon="-8.9712767"><ele>446.0</ele><time>2026-04-17T09:00:43.882Z</time></trkpt><trkpt lat="42.66448" lon="-8.9713083"><ele>446.0</ele><time>2026-04-17T09:00:44.881Z</time></trkpt><trkpt lat="42.6646267" lon="-8.97132"><ele>445.75</ele><time>2026-04-17T09:00:45.881Z</time></trkpt><trkpt lat="42.6647583" lon="-8.9713233"><ele>445.5</ele><time>2026-04-17T09:00:46.881Z</time></trkpt><trkpt lat="42.6649083" lon="-8.9713417"><ele>445.25</ele><time>2026-04-17T09:00:47.882Z</time></trkpt><trkpt lat="42.66507" lon="-8.9713867"><ele>445.0</ele><time>2026-04-17T09:00:48.882Z</time></trkpt><trkpt lat="42.665245" lon="-8.9714367"><ele>445.0</ele><time>2026-04-17T09:00:49.881Z</time></trkpt><trkpt lat="42.6654067" lon="-8.9714717"><ele>445.0</ele><time>2026-04-17T09:00:50.881Z</time></trkpt><trkpt lat="42.6655633" lon="-8.97149"><ele>445.0</ele><time>2026-04-17T09:00:51.881Z</time></trkpt><trkpt lat="42.66574" lon="-8.9714983"><ele>445.0</ele><time>2026-04-17T09:00:52.882Z</time></trkpt><trkpt lat="42.6659433" lon="-8.9714883"><ele>445.0</ele><time>2026-04-17T09:00:53.881Z</time></trkpt><trkpt lat="42.6661667" lon="-8.971465"><ele>445.0</ele><time>2026-04-17T09:00:54.882Z</time></trkpt><trkpt lat="42.66641" lon="-8.9714367"><ele>443.0</ele><time>2026-04-17T09:00:55.882Z</time></trkpt><trkpt lat="42.6666383" lon="-8.9714033"><ele>441.0</ele><time>2026-04-17T09:00:56.882Z</time></trkpt><trkpt lat="42.6668633" lon="-8.97136"><ele>438.66666666666663</ele><time>2026-04-17T09:00:57.881Z</time></trkpt><trkpt lat="42.66708" lon="-8.9713083"><ele>436.3333333333333</ele><time>2026-04-17T09:00:58.882Z</time></trkpt><trkpt lat="42.6672983" lon="-8.971245"><ele>434.0</ele><time>2026-04-17T09:00:59.881Z</time></trkpt><trkpt lat="42.6675133" lon="-8.9712033"><ele>434.0</ele><time>2026-04-17T09:01:00.881Z</time></trkpt><trkpt lat="42.6677333" lon="-8.9711617"><ele>434.0</ele><time>2026-04-17T09:01:01.882Z</time></trkpt><trkpt lat="42.66796" lon="-8.9711133"><ele>431.66666666666663</ele><time>2026-04-17T09:01:02.881Z</time></trkpt><trkpt lat="42.6681683" lon="-8.9710567"><ele>429.33333333333337</ele><time>2026-04-17T09:01:03.881Z</time></trkpt><trkpt lat="42.6683583" lon="-8.971005"><ele>427.0</ele><time>2026-04-17T09:01:04.881Z</time></trkpt><trkpt lat="42.6685333" lon="-8.9709717"><ele>427.0</ele><time>2026-04-17T09:01:05.881Z</time></trkpt><trkpt lat="42.668695" lon="-8.9709667"><ele>427.0</ele><time>2026-04-17T09:01:06.882Z</time></trkpt><trkpt lat="42.6688733" lon="-8.9709933"><ele>427.0</ele><time>2026-04-17T09:01:07.881Z</time></trkpt><trkpt lat="42.6690633" lon="-8.9710583"><ele>427.0</ele><time>2026-04-17T09:01:08.881Z</time></trkpt><trkpt lat="42.669265" lon="-8.971145"><ele>427.0</ele><time>2026-04-17T09:01:09.882Z</time></trkpt><trkpt lat="42.6694867" lon="-8.9712333"><ele>427.0</ele><time>2026-04-17T09:01:10.881Z</time></trkpt><trkpt lat="42.6697217" lon="-8.9713"><ele>429.6666666666667</ele><time>2026-04-17T09:01:11.882Z</time></trkpt><trkpt lat="42.66995" lon="-8.9713717"><ele>432.33333333333337</ele><time>2026-04-17T09:01:12.882Z</time></trkpt><trkpt lat="42.6701583" lon="-8.9714433"><ele>435.0</ele><time>2026-04-17T09:01:13.881Z</time></trkpt><trkpt lat="42.670335" lon="-8.9714967"><ele>437.0</ele><time>2026-04-17T09:01:14.882Z</time></trkpt><trkpt lat="42.6704933" lon="-8.97152"><ele>439.0</ele><time>2026-04-17T09:01:15.881Z</time></trkpt><trkpt lat="42.670655" lon="-8.9715217"><ele>441.0</ele><time>2026-04-17T09:01:16.882Z</time></trkpt><trkpt lat="42.6708417" lon="-8.9714867"><ele>441.0</ele><time>2026-04-17T09:01:17.881Z</time></trkpt><trkpt lat="42.6710433" lon="-8.971445"><ele>441.0</ele><time>2026-04-17T09:01:18.882Z</time></trkpt><trkpt lat="42.6712417" lon="-8.9713983"><ele>441.0</ele><time>2026-04-17T09:01:19.881Z</time></trkpt><trkpt lat="42.6714233" lon="-8.9713533"><ele>443.66666666666663</ele><time>2026-04-17T09:01:20.881Z</time></trkpt><trkpt lat="42.67159" lon="-8.9713183"><ele>446.3333333333333</ele><time>2026-04-17T09:01:21.881Z</time></trkpt><trkpt lat="42.6717483" lon="-8.9712633"><ele>449.0</ele><time>2026-04-17T09:01:22.882Z</time></trkpt><trkpt lat="42.67189" lon="-8.97121"><ele>446.66666666666663</ele><time>2026-04-17T09:01:23.881Z</time></trkpt><trkpt lat="42.67204" lon="-8.9711283"><ele>444.33333333333337</ele><time>2026-04-17T09:01:24.881Z</time></trkpt><trkpt lat="42.6721767" lon="-8.971035"><ele>442.0</ele><time>2026-04-17T09:01:25.882Z</time></trkpt><trkpt lat="42.6723017" lon="-8.9709233"><ele>444.5</ele><time>2026-04-17T09:01:26.882Z</time></trkpt><trkpt lat="42.6724183" lon="-8.9708067"><ele>447.0</ele><time>2026-04-17T09:01:27.882Z</time></trkpt><trkpt lat="42.6725383" lon="-8.9706983"><ele>449.5</ele><time>2026-04-17T09:01:28.881Z</time></trkpt><trkpt lat="42.6726467" lon="-8.970595"><ele>452.0</ele><time>2026-04-17T09:01:29.882Z</time></trkpt><trkpt lat="42.6727433" lon="-8.97053"><ele>453.20000000000005</ele><time>2026-04-17T09:01:30.881Z</time></trkpt><trkpt lat="42.672845" lon="-8.9704933"><ele>454.40000000000003</ele><time>2026-04-17T09:01:31.882Z</time></trkpt><trkpt lat="42.6729433" lon="-8.9704783"><ele>455.59999999999997</ele><time>2026-04-17T09:01:32.881Z</time></trkpt><trkpt lat="42.6730533" lon="-8.9704667"><ele>456.79999999999995</ele><time>2026-04-17T09:01:33.881Z</time></trkpt><trkpt lat="42.6731833" lon="-8.9704683"><ele>458.0</ele><time>2026-04-17T09:01:34.882Z</time></trkpt><trkpt lat="42.6733283" lon="-8.970475"><ele>458.0</ele><time>2026-04-17T09:01:35.881Z</time></trkpt><trkpt lat="42.6734733" lon="-8.9704883"><ele>458.0</ele><time>2026-04-17T09:01:36.882Z</time></trkpt><trkpt lat="42.6736" lon="-8.9705133"><ele>458.0</ele><time>2026-04-17T09:01:37.881Z</time></trkpt><trkpt lat="42.673735" lon="-8.9705283"><ele>458.0</ele><time>2026-04-17T09:01:38.882Z</time></trkpt><trkpt lat="42.673885" lon="-8.9705467"><ele>462.0</ele><time>2026-04-17T09:01:39.881Z</time></trkpt><trkpt lat="42.6740383" lon="-8.970555"><ele>466.0</ele><time>2026-04-17T09:01:40.882Z</time></trkpt><trkpt lat="42.67419" lon="-8.97056"><ele>470.0</ele><time>2026-04-17T09:01:41.881Z</time></trkpt><trkpt lat="42.6743417" lon="-8.97056"><ele>473.66666666666663</ele><time>2026-04-17T09:01:42.882Z</time></trkpt><trkpt lat="42.6744917" lon="-8.97056"><ele>477.33333333333337</ele><time>2026-04-17T09:01:43.881Z</time></trkpt><trkpt lat="42.67466" lon="-8.97057"><ele>481.0</ele><time>2026-04-17T09:01:44.881Z</time></trkpt><trkpt lat="42.6748167" lon="-8.9705833"><ele>481.0</ele><time>2026-04-17T09:01:45.881Z</time></trkpt><trkpt lat="42.6749583" lon="-8.9706"><ele>481.0</ele><time>2026-04-17T09:01:46.881Z</time></trkpt><trkpt lat="42.6750917" lon="-8.97063"><ele>481.0</ele><time>2026-04-17T09:01:47.882Z</time></trkpt><trkpt lat="42.6752317" lon="-8.9706783"><ele>481.0</ele><time>2026-04-17T09:01:48.882Z</time></trkpt><trkpt lat="42.6753783" lon="-8.9707333"><ele>482.25</ele><time>2026-04-17T09:01:49.881Z</time></trkpt><trkpt lat="42.6755217" lon="-8.97078"><ele>483.5</ele><time>2026-04-17T09:01:50.881Z</time></trkpt><trkpt lat="42.6756517" lon="-8.9708083"><ele>484.75</ele><time>2026-04-17T09:01:51.881Z</time></trkpt><trkpt lat="42.6757633" lon="-8.9708183"><ele>486.0</ele><time>2026-04-17T09:01:52.882Z</time></trkpt><trkpt lat="42.6758517" lon="-8.9708"><ele>486.0</ele><time>2026-04-17T09:01:53.882Z</time></trkpt><trkpt lat="42.675935" lon="-8.9707417"><ele>486.0</ele><time>2026-04-17T09:01:54.881Z</time></trkpt><trkpt lat="42.6760183" lon="-8.9706383"><ele>486.0</ele><time>2026-04-17T09:01:55.882Z</time></trkpt><trkpt lat="42.6761133" lon="-8.970505"><ele>486.0</ele><time>2026-04-17T09:01:56.882Z</time></trkpt><trkpt lat="42.6762283" lon="-8.9703667"><ele>484.66666666666663</ele><time>2026-04-17T09:01:57.881Z</time></trkpt><trkpt lat="42.67636" lon="-8.970225"><ele>483.3333333333333</ele><time>2026-04-17T09:01:58.882Z</time></trkpt><trkpt lat="42.6765" lon="-8.9700933"><ele>482.0</ele><time>2026-04-17T09:01:59.882Z</time></trkpt><trkpt lat="42.67665" lon="-8.9699533"><ele>485.0</ele><time>2026-04-17T09:02:00.881Z</time></trkpt><trkpt lat="42.67681" lon="-8.9697917"><ele>488.0</ele><time>2026-04-17T09:02:01.882Z</time></trkpt><trkpt lat="42.67698" lon="-8.9696267"><ele>491.0</ele><time>2026-04-17T09:02:02.882Z</time></trkpt><trkpt lat="42.6771533" lon="-8.9694683"><ele>491.0</ele><time>2026-04-17T09:02:03.882Z</time></trkpt><trkpt lat="42.6773217" lon="-8.969325"><ele>491.0</ele><time>2026-04-17T09:02:04.881Z</time></trkpt><trkpt lat="42.677465" lon="-8.9691817"><ele>491.0</ele><time>2026-04-17T09:02:05.882Z</time></trkpt><trkpt lat="42.6776083" lon="-8.9690133"><ele>493.66666666666663</ele><time>2026-04-17T09:02:06.881Z</time></trkpt><trkpt lat="42.6777483" lon="-8.968845"><ele>496.33333333333337</ele><time>2026-04-17T09:02:07.882Z</time></trkpt><trkpt lat="42.67788" lon="-8.9686817"><ele>499.0</ele><time>2026-04-17T09:02:08.881Z</time></trkpt><trkpt lat="42.6779983" lon="-8.9685117"><ele>499.0</ele><time>2026-04-17T09:02:09.882Z</time></trkpt><trkpt lat="42.678105" lon="-8.9683683"><ele>499.0</ele><time>2026-04-17T09:02:10.881Z</time></trkpt><trkpt lat="42.67817" lon="-8.96824"><ele>499.0</ele><time>2026-04-17T09:02:11.881Z</time></trkpt><trkpt lat="42.6782117" lon="-8.968115"><ele>499.0</ele><time>2026-04-17T09:02:12.881Z</time></trkpt><trkpt lat="42.6782367" lon="-8.967955"><ele>502.5</ele><time>2026-04-17T09:02:13.882Z</time></trkpt><trkpt lat="42.6782433" lon="-8.9677767"><ele>506.0</ele><time>2026-04-17T09:02:14.881Z</time></trkpt><trkpt lat="42.678255" lon="-8.9675917"><ele>509.5</ele><time>2026-04-17T09:02:15.882Z</time></trkpt><trkpt lat="42.6782783" lon="-8.9674317"><ele>513.0</ele><time>2026-04-17T09:02:16.882Z</time></trkpt><trkpt lat="42.678315" lon="-8.9672917"><ele>515.0</ele><time>2026-04-17T09:02:17.882Z</time></trkpt><trkpt lat="42.6783683" lon="-8.9671683"><ele>517.0</ele><time>2026-04-17T09:02:18.881Z</time></trkpt><trkpt lat="42.6784417" lon="-8.96706"><ele>519.0</ele><time>2026-04-17T09:02:19.881Z</time></trkpt><trkpt lat="42.6785317" lon="-8.9669483"><ele>521.0</ele><time>2026-04-17T09:02:20.882Z</time></trkpt><trkpt lat="42.6786417" lon="-8.96683"><ele>521.0</ele><time>2026-04-17T09:02:21.882Z</time></trkpt><trkpt lat="42.67875" lon="-8.9667183"><ele>521.0</ele><time>2026-04-17T09:02:22.882Z</time></trkpt><trkpt lat="42.6788417" lon="-8.96661"><ele>521.0</ele><time>2026-04-17T09:02:23.881Z</time></trkpt><trkpt lat="42.6789217" lon="-8.9664983"><ele>521.0</ele><time>2026-04-17T09:02:24.882Z</time></trkpt><trkpt lat="42.6790183" lon="-8.9663917"><ele>523.6</ele><time>2026-04-17T09:02:25.881Z</time></trkpt><trkpt lat="42.679105" lon="-8.9663133"><ele>526.2</ele><time>2026-04-17T09:02:26.881Z</time></trkpt><trkpt lat="42.6791783" lon="-8.9662283"><ele>528.8</ele><time>2026-04-17T09:02:27.881Z</time></trkpt><trkpt lat="42.679235" lon="-8.9661333"><ele>531.4</ele><time>2026-04-17T09:02:28.881Z</time></trkpt><trkpt lat="42.67928" lon="-8.9660283"><ele>534.0</ele><time>2026-04-17T09:02:29.881Z</time></trkpt><trkpt lat="42.6793117" lon="-8.9659117"><ele>533.2</ele><time>2026-04-17T09:02:30.881Z</time></trkpt><trkpt lat="42.6793433" lon="-8.9657817"><ele>532.4</ele><time>2026-04-17T09:02:31.881Z</time></trkpt><trkpt lat="42.6793867" lon="-8.9656417"><ele>531.6</ele><time>2026-04-17T09:02:32.881Z</time></trkpt><trkpt lat="42.6794333" lon="-8.9655067"><ele>530.8</ele><time>2026-04-17T09:02:33.881Z</time></trkpt><trkpt lat="42.67947" lon="-8.965375"><ele>530.0</ele><time>2026-04-17T09:02:34.882Z</time></trkpt><trkpt lat="42.6794833" lon="-8.9652483"><ele>530.0</ele><time>2026-04-17T09:02:35.881Z</time></trkpt><trkpt lat="42.679475" lon="-8.965095"><ele>530.0</ele><time>2026-04-17T09:02:36.881Z</time></trkpt><trkpt lat="42.679445" lon="-8.9649117"><ele>530.0</ele><time>2026-04-17T09:02:37.882Z</time></trkpt><trkpt lat="42.679415" lon="-8.964725"><ele>530.0</ele><time>2026-04-17T09:02:38.881Z</time></trkpt><trkpt lat="42.6793867" lon="-8.9645383"><ele>535.3333333333333</ele><time>2026-04-17T09:02:39.881Z</time></trkpt><trkpt lat="42.679375" lon="-8.96435"><ele>540.6666666666666</ele><time>2026-04-17T09:02:40.881Z</time></trkpt><trkpt lat="42.6793917" lon="-8.9641417"><ele>546.0</ele><time>2026-04-17T09:02:41.881Z</time></trkpt><trkpt lat="42.6794217" lon="-8.9639083"><ele>542.0</ele><time>2026-04-17T09:02:42.882Z</time></trkpt><trkpt lat="42.6794583" lon="-8.9636867"><ele>538.0</ele><time>2026-04-17T09:02:43.881Z</time></trkpt><trkpt lat="42.6794967" lon="-8.9634883"><ele>534.0</ele><time>2026-04-17T09:02:44.882Z</time></trkpt><trkpt lat="42.6795417" lon="-8.9633317"><ele>530.0</ele><time>2026-04-17T09:02:45.881Z</time></trkpt><trkpt lat="42.6795967" lon="-8.9632"><ele>530.0</ele><time>2026-04-17T09:02:46.881Z</time></trkpt><trkpt lat="42.6796717" lon="-8.96309"><ele>530.0</ele><time>2026-04-17T09:02:47.882Z</time></trkpt><trkpt lat="42.6797767" lon="-8.963005"><ele>530.0</ele><time>2026-04-17T09:02:48.882Z</time></trkpt><trkpt lat="42.6799" lon="-8.9629483"><ele>530.0</ele><time>2026-04-17T09:02:49.881Z</time></trkpt><trkpt lat="42.6800517" lon="-8.962885"><ele>530.0</ele><time>2026-04-17T09:02:50.881Z</time></trkpt><trkpt lat="42.6801983" lon="-8.962835"><ele>530.0</ele><time>2026-04-17T09:02:51.882Z</time></trkpt><trkpt lat="42.6803333" lon="-8.9627983"><ele>530.0</ele><time>2026-04-17T09:02:52.882Z</time></trkpt><trkpt lat="42.6804483" lon="-8.9627883"><ele>530.0</ele><time>2026-04-17T09:02:53.882Z</time></trkpt><trkpt lat="42.6805433" lon="-8.9628083"><ele>529.2</ele><time>2026-04-17T09:02:54.882Z</time></trkpt><trkpt lat="42.6806317" lon="-8.9628533"><ele>528.4</ele><time>2026-04-17T09:02:55.882Z</time></trkpt><trkpt lat="42.680725" lon="-8.96292"><ele>527.6</ele><time>2026-04-17T09:02:56.881Z</time></trkpt><trkpt lat="42.6808233" lon="-8.96299"><ele>526.8</ele><time>2026-04-17T09:02:57.881Z</time></trkpt><trkpt lat="42.6809233" lon="-8.96307"><ele>526.0</ele><time>2026-04-17T09:02:58.882Z</time></trkpt><trkpt lat="42.681045" lon="-8.9631483"><ele>527.6666666666667</ele><time>2026-04-17T09:02:59.881Z</time></trkpt><trkpt lat="42.6811917" lon="-8.9632217"><ele>529.3333333333334</ele><time>2026-04-17T09:03:00.881Z</time></trkpt><trkpt lat="42.68134" lon="-8.9633067"><ele>531.0</ele><time>2026-04-17T09:03:01.881Z</time></trkpt><trkpt lat="42.6814767" lon="-8.9633933"><ele>526.6666666666666</ele><time>2026-04-17T09:03:02.881Z</time></trkpt><trkpt lat="42.681615" lon="-8.9634783"><ele>522.3333333333333</ele><time>2026-04-17T09:03:03.881Z</time></trkpt><trkpt lat="42.681755" lon="-8.9635633"><ele>518.0</ele><time>2026-04-17T09:03:04.881Z</time></trkpt><trkpt lat="42.6818883" lon="-8.9636533"><ele>518.3333333333333</ele><time>2026-04-17T09:03:05.882Z</time></trkpt><trkpt lat="42.6820267" lon="-8.9637367"><ele>518.6666666666666</ele><time>2026-04-17T09:03:06.882Z</time></trkpt><trkpt lat="42.6821833" lon="-8.9638233"><ele>519.0</ele><time>2026-04-17T09:03:07.882Z</time></trkpt><trkpt lat="42.682345" lon="-8.963905"><ele>519.0</ele><time>2026-04-17T09:03:08.881Z</time></trkpt><trkpt lat="42.6825067" lon="-8.9639867"><ele>519.0</ele><time>2026-04-17T09:03:09.882Z</time></trkpt><trkpt lat="42.6826633" lon="-8.96405"><ele>519.0</ele><time>2026-04-17T09:03:10.881Z</time></trkpt><trkpt lat="42.6828283" lon="-8.96409"><ele>517.3333333333334</ele><time>2026-04-17T09:03:11.881Z</time></trkpt><trkpt lat="42.683" lon="-8.9641167"><ele>515.6666666666667</ele><time>2026-04-17T09:03:12.881Z</time></trkpt><trkpt lat="42.6831767" lon="-8.964135"><ele>514.0</ele><time>2026-04-17T09:03:13.881Z</time></trkpt><trkpt lat="42.6833533" lon="-8.9641483"><ele>514.0</ele><time>2026-04-17T09:03:14.881Z</time></trkpt><trkpt lat="42.68353" lon="-8.964155"><ele>514.0</ele><time>2026-04-17T09:03:15.881Z</time></trkpt><trkpt lat="42.6837" lon="-8.9641883"><ele>514.0</ele><time>2026-04-17T09:03:16.881Z</time></trkpt><trkpt lat="42.6838683" lon="-8.96424"><ele>506.0</ele><time>2026-04-17T09:03:17.882Z</time></trkpt><trkpt lat="42.6840617" lon="-8.9643"><ele>498.0</ele><time>2026-04-17T09:03:18.881Z</time></trkpt><trkpt lat="42.6842517" lon="-8.9643617"><ele>490.0</ele><time>2026-04-17T09:03:19.881Z</time></trkpt><trkpt lat="42.6844267" lon="-8.9644283"><ele>491.0</ele><time>2026-04-17T09:03:20.882Z</time></trkpt><trkpt lat="42.6845867" lon="-8.96449"><ele>492.0</ele><time>2026-04-17T09:03:21.881Z</time></trkpt><trkpt lat="42.6847383" lon="-8.9645517"><ele>493.0</ele><time>2026-04-17T09:03:22.882Z</time></trkpt><trkpt lat="42.6848633" lon="-8.9646233"><ele>493.0</ele><time>2026-04-17T09:03:23.882Z</time></trkpt><trkpt lat="42.6849667" lon="-8.9647"><ele>493.0</ele><time>2026-04-17T09:03:24.882Z</time></trkpt><trkpt lat="42.685055" lon="-8.9648"><ele>493.0</ele><time>2026-04-17T09:03:25.881Z</time></trkpt><trkpt lat="42.6851483" lon="-8.964925"><ele>493.0</ele><time>2026-04-17T09:03:26.881Z</time></trkpt><trkpt lat="42.6852517" lon="-8.965055"><ele>490.25</ele><time>2026-04-17T09:03:27.882Z</time></trkpt><trkpt lat="42.6853517" lon="-8.9651767"><ele>487.5</ele><time>2026-04-17T09:03:28.881Z</time></trkpt><trkpt lat="42.6854733" lon="-8.9652733"><ele>484.75</ele><time>2026-04-17T09:03:29.881Z</time></trkpt><trkpt lat="42.68561" lon="-8.96536"><ele>482.0</ele><time>2026-04-17T09:03:30.881Z</time></trkpt><trkpt lat="42.6857583" lon="-8.965435"><ele>482.0</ele><time>2026-04-17T09:03:31.881Z</time></trkpt><trkpt lat="42.6858983" lon="-8.9655067"><ele>482.0</ele><time>2026-04-17T09:03:32.882Z</time></trkpt><trkpt lat="42.6860183" lon="-8.9655717"><ele>482.0</ele><time>2026-04-17T09:03:33.882Z</time></trkpt><trkpt lat="42.6861333" lon="-8.9656667"><ele>482.0</ele><time>2026-04-17T09:03:34.882Z</time></trkpt><trkpt lat="42.6862517" lon="-8.9658"><ele>479.0</ele><time>2026-04-17T09:03:35.881Z</time></trkpt><trkpt lat="42.686365" lon="-8.9659617"><ele>476.0</ele><time>2026-04-17T09:03:36.881Z</time></trkpt><trkpt lat="42.68648" lon="-8.9661133"><ele>473.0</ele><time>2026-04-17T09:03:37.882Z</time></trkpt><trkpt lat="42.6865933" lon="-8.9662483"><ele>473.0</ele><time>2026-04-17T09:03:38.882Z</time></trkpt><trkpt lat="42.6867083" lon="-8.9663617"><ele>473.0</ele><time>2026-04-17T09:03:39.881Z</time></trkpt><trkpt lat="42.686825" lon="-8.96645"><ele>473.0</ele><time>2026-04-17T09:03:40.881Z</time></trkpt><trkpt lat="42.6869633" lon="-8.966495"><ele>473.0</ele><time>2026-04-17T09:03:41.881Z</time></trkpt><trkpt lat="42.6870833" lon="-8.9665083"><ele>472.75</ele><time>2026-04-17T09:03:42.882Z</time></trkpt><trkpt lat="42.6872033" lon="-8.9664917"><ele>472.5</ele><time>2026-04-17T09:03:43.881Z</time></trkpt><trkpt lat="42.6873167" lon="-8.9664433"><ele>472.25</ele><time>2026-04-17T09:03:44.881Z</time></trkpt><trkpt lat="42.6874283" lon="-8.966375"><ele>472.0</ele><time>2026-04-17T09:03:45.882Z</time></trkpt><trkpt lat="42.6875467" lon="-8.9663333"><ele>472.0</ele><time>2026-04-17T09:03:46.881Z</time></trkpt><trkpt lat="42.6876717" lon="-8.9663083"><ele>472.0</ele><time>2026-04-17T09:03:47.881Z</time></trkpt><trkpt lat="42.6877917" lon="-8.9663"><ele>472.0</ele><time>2026-04-17T09:03:48.882Z</time></trkpt><trkpt lat="42.6879067" lon="-8.9662867"><ele>472.0</ele><time>2026-04-17T09:03:49.881Z</time></trkpt><trkpt lat="42.68802" lon="-8.9662633"><ele>471.25</ele><time>2026-04-17T09:03:50.881Z</time></trkpt><trkpt lat="42.6881233" lon="-8.9662683"><ele>470.5</ele><time>2026-04-17T09:03:51.881Z</time></trkpt><trkpt lat="42.68823" lon="-8.9662933"><ele>469.75</ele><time>2026-04-17T09:03:52.881Z</time></trkpt><trkpt lat="42.6883517" lon="-8.966345"><ele>469.0</ele><time>2026-04-17T09:03:53.882Z</time></trkpt><trkpt lat="42.6884917" lon="-8.9664217"><ele>469.0</ele><time>2026-04-17T09:03:54.881Z</time></trkpt><trkpt lat="42.6886333" lon="-8.96649"><ele>469.0</ele><time>2026-04-17T09:03:55.881Z</time></trkpt><trkpt lat="42.6887817" lon="-8.9665383"><ele>469.0</ele><time>2026-04-17T09:03:56.881Z</time></trkpt><trkpt lat="42.6889167" lon="-8.9665967"><ele>469.0</ele><time>2026-04-17T09:03:57.881Z</time></trkpt><trkpt lat="42.6890467" lon="-8.9666617"><ele>467.33333333333337</ele><time>2026-04-17T09:03:58.881Z</time></trkpt><trkpt lat="42.6891883" lon="-8.966735"><ele>465.66666666666663</ele><time>2026-04-17T09:03:59.881Z</time></trkpt><trkpt lat="42.6893367" lon="-8.96682"><ele>464.0</ele><time>2026-04-17T09:04:00.882Z</time></trkpt><trkpt lat="42.689475" lon="-8.9669083"><ele>462.75</ele><time>2026-04-17T09:04:01.882Z</time></trkpt><trkpt lat="42.689605" lon="-8.966995"><ele>461.5</ele><time>2026-04-17T09:04:02.882Z</time></trkpt><trkpt lat="42.6897233" lon="-8.9670817"><ele>460.25</ele><time>2026-04-17T09:04:03.882Z</time></trkpt><trkpt lat="42.6898333" lon="-8.9671717"><ele>459.0</ele><time>2026-04-17T09:04:04.883Z</time></trkpt><trkpt lat="42.6899417" lon="-8.9672783"><ele>459.0</ele><time>2026-04-17T09:04:05.882Z</time></trkpt><trkpt lat="42.69004" lon="-8.96743"><ele>459.0</ele><time>2026-04-17T09:04:06.882Z</time></trkpt><trkpt lat="42.6901467" lon="-8.9675917"><ele>459.0</ele><time>2026-04-17T09:04:07.883Z</time></trkpt><trkpt lat="42.69025" lon="-8.9677333"><ele>458.0</ele><time>2026-04-17T09:04:08.883Z</time></trkpt><trkpt lat="42.6903767" lon="-8.9678367"><ele>457.0</ele><time>2026-04-17T09:04:09.882Z</time></trkpt><trkpt lat="42.6904933" lon="-8.96796"><ele>456.0</ele><time>2026-04-17T09:04:10.883Z</time></trkpt><trkpt lat="42.6905917" lon="-8.9680667"><ele>455.0</ele><time>2026-04-17T09:04:11.882Z</time></trkpt><trkpt lat="42.690645" lon="-8.9681483"><ele>455.0</ele><time>2026-04-17T09:04:12.883Z</time></trkpt><trkpt lat="42.69059" lon="-8.968265"><ele>455.0</ele><time>2026-04-17T09:04:24.883Z</time></trkpt><trkpt lat="42.6905817" lon="-8.9683917"><ele>455.0</ele><time>2026-04-17T09:04:25.882Z</time></trkpt><trkpt lat="42.6905917" lon="-8.968555"><ele>455.0</ele><time>2026-04-17T09:04:26.883Z</time></trkpt><trkpt lat="42.6906267" lon="-8.9687383"><ele>453.25</ele><time>2026-04-17T09:04:27.882Z</time></trkpt><trkpt lat="42.6906867" lon="-8.9689367"><ele>451.5</ele><time>2026-04-17T09:04:28.883Z</time></trkpt><trkpt lat="42.6907483" lon="-8.9691"><ele>449.75</ele><time>2026-04-17T09:04:29.882Z</time></trkpt><trkpt lat="42.6907983" lon="-8.96923"><ele>448.0</ele><time>2026-04-17T09:04:30.883Z</time></trkpt><trkpt lat="42.6908233" lon="-8.9693167"><ele>448.00000000000006</ele><time>2026-04-17T09:04:31.882Z</time></trkpt><trkpt lat="42.6908633" lon="-8.9694083"><ele>448.0</ele><time>2026-04-17T09:04:33.882Z</time></trkpt><trkpt lat="42.6909283" lon="-8.96929"><ele>448.0</ele><time>2026-04-17T09:04:37.882Z</time></trkpt><trkpt lat="42.6909717" lon="-8.969225"><ele>448.0</ele><time>2026-04-17T09:04:38.882Z</time></trkpt><trkpt lat="42.6910267" lon="-8.9691383"><ele>448.00000000000006</ele><time>2026-04-17T09:04:39.883Z</time></trkpt><trkpt lat="42.6910917" lon="-8.9690433"><ele>448.0</ele><time>2026-04-17T09:04:40.882Z</time></trkpt><trkpt lat="42.691165" lon="-8.9689483"><ele>450.0</ele><time>2026-04-17T09:04:41.882Z</time></trkpt><trkpt lat="42.6912517" lon="-8.968845"><ele>452.0</ele><time>2026-04-17T09:04:42.883Z</time></trkpt><trkpt lat="42.6913483" lon="-8.9687233"><ele>454.0</ele><time>2026-04-17T09:04:43.882Z</time></trkpt><trkpt lat="42.69148" lon="-8.968575"><ele>456.0</ele><time>2026-04-17T09:04:44.883Z</time></trkpt><trkpt lat="42.69163" lon="-8.9684283"><ele>458.66666666666663</ele><time>2026-04-17T09:04:45.883Z</time></trkpt><trkpt lat="42.691785" lon="-8.9682917"><ele>461.3333333333333</ele><time>2026-04-17T09:04:46.883Z</time></trkpt><trkpt lat="42.6919417" lon="-8.9681533"><ele>464.0</ele><time>2026-04-17T09:04:47.883Z</time></trkpt><trkpt lat="42.6920633" lon="-8.9680333"><ele>465.25</ele><time>2026-04-17T09:04:48.883Z</time></trkpt><trkpt lat="42.6921417" lon="-8.9678917"><ele>466.5</ele><time>2026-04-17T09:04:49.882Z</time></trkpt><trkpt lat="42.6921817" lon="-8.9677317"><ele>467.75</ele><time>2026-04-17T09:04:50.882Z</time></trkpt><trkpt lat="42.6922" lon="-8.9675567"><ele>469.0</ele><time>2026-04-17T09:04:51.882Z</time></trkpt><trkpt lat="42.6922133" lon="-8.9673483"><ele>471.6666666666667</ele><time>2026-04-17T09:04:52.882Z</time></trkpt><trkpt lat="42.692235" lon="-8.96711"><ele>474.33333333333337</ele><time>2026-04-17T09:04:53.883Z</time></trkpt><trkpt lat="42.6922617" lon="-8.966875"><ele>477.0</ele><time>2026-04-17T09:04:54.882Z</time></trkpt><trkpt lat="42.6922983" lon="-8.9666867"><ele>478.20000000000005</ele><time>2026-04-17T09:04:55.882Z</time></trkpt><trkpt lat="42.692335" lon="-8.9665433"><ele>479.40000000000003</ele><time>2026-04-17T09:04:56.882Z</time></trkpt><trkpt lat="42.6923783" lon="-8.966455"><ele>480.59999999999997</ele><time>2026-04-17T09:04:57.883Z</time></trkpt><trkpt lat="42.69243" lon="-8.9664017"><ele>481.79999999999995</ele><time>2026-04-17T09:04:58.882Z</time></trkpt><trkpt lat="42.692555" lon="-8.9663733"><ele>483.0</ele><time>2026-04-17T09:05:00.882Z</time></trkpt><trkpt lat="42.69264" lon="-8.966385"><ele>485.75</ele><time>2026-04-17T09:05:01.882Z</time></trkpt><trkpt lat="42.6927583" lon="-8.9664167"><ele>488.5</ele><time>2026-04-17T09:05:02.883Z</time></trkpt><trkpt lat="42.69288" lon="-8.9664583"><ele>491.25</ele><time>2026-04-17T09:05:03.882Z</time></trkpt><trkpt lat="42.6930083" lon="-8.9665067"><ele>494.0</ele><time>2026-04-17T09:05:04.882Z</time></trkpt><trkpt lat="42.69313" lon="-8.9665417"><ele>494.0</ele><time>2026-04-17T09:05:05.882Z</time></trkpt><trkpt lat="42.693245" lon="-8.9665683"><ele>494.0</ele><time>2026-04-17T09:05:06.883Z</time></trkpt><trkpt lat="42.69337" lon="-8.966585"><ele>494.0</ele><time>2026-04-17T09:05:07.882Z</time></trkpt><trkpt lat="42.6934933" lon="-8.9665817"><ele>494.0</ele><time>2026-04-17T09:05:08.882Z</time></trkpt><trkpt lat="42.693615" lon="-8.96657"><ele>494.25</ele><time>2026-04-17T09:05:09.883Z</time></trkpt><trkpt lat="42.6937233" lon="-8.9665183"><ele>494.5</ele><time>2026-04-17T09:05:10.883Z</time></trkpt><trkpt lat="42.69383" lon="-8.9664417"><ele>494.75</ele><time>2026-04-17T09:05:11.883Z</time></trkpt><trkpt lat="42.693935" lon="-8.9663383"><ele>495.0</ele><time>2026-04-17T09:05:12.883Z</time></trkpt><trkpt lat="42.69403" lon="-8.9661933"><ele>495.0</ele><time>2026-04-17T09:05:13.883Z</time></trkpt><trkpt lat="42.6941267" lon="-8.966045"><ele>495.0</ele><time>2026-04-17T09:05:14.883Z</time></trkpt><trkpt lat="42.69422" lon="-8.9659017"><ele>495.0</ele><time>2026-04-17T09:05:15.883Z</time></trkpt><trkpt lat="42.6943217" lon="-8.9657383"><ele>495.0</ele><time>2026-04-17T09:05:16.882Z</time></trkpt><trkpt lat="42.6944183" lon="-8.96558"><ele>495.75</ele><time>2026-04-17T09:05:17.882Z</time></trkpt><trkpt lat="42.694505" lon="-8.9654367"><ele>496.5</ele><time>2026-04-17T09:05:18.882Z</time></trkpt><trkpt lat="42.6946" lon="-8.9652867"><ele>497.25</ele><time>2026-04-17T09:05:19.883Z</time></trkpt><trkpt lat="42.6946883" lon="-8.965155"><ele>498.0</ele><time>2026-04-17T09:05:20.882Z</time></trkpt><trkpt lat="42.6947783" lon="-8.96504"><ele>500.75</ele><time>2026-04-17T09:05:21.882Z</time></trkpt><trkpt lat="42.6948667" lon="-8.964925"><ele>503.5</ele><time>2026-04-17T09:05:22.882Z</time></trkpt><trkpt lat="42.6949667" lon="-8.964805"><ele>506.25</ele><time>2026-04-17T09:05:23.883Z</time></trkpt><trkpt lat="42.6950767" lon="-8.96469"><ele>509.0</ele><time>2026-04-17T09:05:24.882Z</time></trkpt><trkpt lat="42.69518" lon="-8.964575"><ele>510.25</ele><time>2026-04-17T09:05:25.883Z</time></trkpt><trkpt lat="42.6952817" lon="-8.964455"><ele>511.5</ele><time>2026-04-17T09:05:26.883Z</time></trkpt><trkpt lat="42.69537" lon="-8.9643433"><ele>512.75</ele><time>2026-04-17T09:05:27.883Z</time></trkpt><trkpt lat="42.6954483" lon="-8.96424"><ele>514.0</ele><time>2026-04-17T09:05:28.882Z</time></trkpt><trkpt lat="42.695505" lon="-8.964145"><ele>514.0</ele><time>2026-04-17T09:05:29.882Z</time></trkpt><trkpt lat="42.69555" lon="-8.9640583"><ele>514.0</ele><time>2026-04-17T09:05:30.882Z</time></trkpt><trkpt lat="42.6955983" lon="-8.9639767"><ele>514.0</ele><time>2026-04-17T09:05:31.882Z</time></trkpt><trkpt lat="42.6956467" lon="-8.9638733"><ele>514.0</ele><time>2026-04-17T09:05:32.882Z</time></trkpt><trkpt lat="42.6956883" lon="-8.9637633"><ele>514.0</ele><time>2026-04-17T09:05:33.883Z</time></trkpt><trkpt lat="42.6957367" lon="-8.96365"><ele>514.0</ele><time>2026-04-17T09:05:34.882Z</time></trkpt><trkpt lat="42.69579" lon="-8.96353"><ele>514.0</ele><time>2026-04-17T09:05:35.882Z</time></trkpt><trkpt lat="42.695855" lon="-8.96341"><ele>514.0</ele><time>2026-04-17T09:05:36.882Z</time></trkpt><trkpt lat="42.69592" lon="-8.9632817"><ele>514.0</ele><time>2026-04-17T09:05:37.883Z</time></trkpt><trkpt lat="42.69598" lon="-8.9631583"><ele>514.0</ele><time>2026-04-17T09:05:38.883Z</time></trkpt><trkpt lat="42.6960367" lon="-8.96305"><ele>514.0</ele><time>2026-04-17T09:05:39.882Z</time></trkpt><trkpt lat="42.69608" lon="-8.9629367"><ele>512.4</ele><time>2026-04-17T09:05:40.883Z</time></trkpt><trkpt lat="42.6961217" lon="-8.9628167"><ele>510.79999999999995</ele><time>2026-04-17T09:05:41.882Z</time></trkpt><trkpt lat="42.69616" lon="-8.9627"><ele>509.20000000000005</ele><time>2026-04-17T09:05:42.882Z</time></trkpt><trkpt lat="42.6961917" lon="-8.9625683"><ele>507.6</ele><time>2026-04-17T09:05:43.882Z</time></trkpt><trkpt lat="42.6962233" lon="-8.9624383"><ele>506.0</ele><time>2026-04-17T09:05:44.883Z</time></trkpt><trkpt lat="42.6962633" lon="-8.9623033"><ele>510.25</ele><time>2026-04-17T09:05:45.883Z</time></trkpt><trkpt lat="42.6963067" lon="-8.9621683"><ele>514.5</ele><time>2026-04-17T09:05:46.882Z</time></trkpt><trkpt lat="42.6963683" lon="-8.9620283"><ele>518.75</ele><time>2026-04-17T09:05:47.883Z</time></trkpt><trkpt lat="42.6964417" lon="-8.9618867"><ele>523.0</ele><time>2026-04-17T09:05:48.883Z</time></trkpt><trkpt lat="42.6965067" lon="-8.96175"><ele>527.25</ele><time>2026-04-17T09:05:49.883Z</time></trkpt><trkpt lat="42.6965717" lon="-8.9615967"><ele>531.5</ele><time>2026-04-17T09:05:50.883Z</time></trkpt><trkpt lat="42.696645" lon="-8.9614367"><ele>535.75</ele><time>2026-04-17T09:05:51.882Z</time></trkpt><trkpt lat="42.6967183" lon="-8.9612617"><ele>540.0</ele><time>2026-04-17T09:05:52.882Z</time></trkpt><trkpt lat="42.696785" lon="-8.9611017"><ele>540.0</ele><time>2026-04-17T09:05:53.882Z</time></trkpt><trkpt lat="42.696845" lon="-8.9609533"><ele>540.0</ele><time>2026-04-17T09:05:54.883Z</time></trkpt><trkpt lat="42.696895" lon="-8.9608133"><ele>540.0</ele><time>2026-04-17T09:05:55.882Z</time></trkpt><trkpt lat="42.69694" lon="-8.9606783"><ele>540.0</ele><time>2026-04-17T09:05:56.882Z</time></trkpt><trkpt lat="42.6969783" lon="-8.9605383"><ele>540.8</ele><time>2026-04-17T09:05:57.883Z</time></trkpt><trkpt lat="42.6970133" lon="-8.9603883"><ele>541.6</ele><time>2026-04-17T09:05:58.883Z</time></trkpt><trkpt lat="42.6970417" lon="-8.9602467"><ele>542.4</ele><time>2026-04-17T09:05:59.882Z</time></trkpt><trkpt lat="42.6970617" lon="-8.9601067"><ele>543.2</ele><time>2026-04-17T09:06:00.883Z</time></trkpt><trkpt lat="42.6970667" lon="-8.95998"><ele>544.0</ele><time>2026-04-17T09:06:01.883Z</time></trkpt><trkpt lat="42.697065" lon="-8.959855"><ele>544.0</ele><time>2026-04-17T09:06:02.883Z</time></trkpt><trkpt lat="42.6970433" lon="-8.9597283"><ele>544.0</ele><time>2026-04-17T09:06:03.883Z</time></trkpt><trkpt lat="42.69702" lon="-8.9595867"><ele>544.0</ele><time>2026-04-17T09:06:04.883Z</time></trkpt><trkpt lat="42.6969883" lon="-8.95945"><ele>544.0</ele><time>2026-04-17T09:06:05.882Z</time></trkpt><trkpt lat="42.6969517" lon="-8.95931"><ele>544.0</ele><time>2026-04-17T09:06:06.882Z</time></trkpt><trkpt lat="42.696895" lon="-8.9591633"><ele>553.5</ele><time>2026-04-17T09:06:07.882Z</time></trkpt><trkpt lat="42.6968383" lon="-8.9590117"><ele>563.0</ele><time>2026-04-17T09:06:08.883Z</time></trkpt><trkpt lat="42.6967733" lon="-8.95886"><ele>572.5</ele><time>2026-04-17T09:06:09.883Z</time></trkpt><trkpt lat="42.6967067" lon="-8.9587033"><ele>582.0</ele><time>2026-04-17T09:06:10.882Z</time></trkpt><trkpt lat="42.6966483" lon="-8.9585517"><ele>582.0</ele><time>2026-04-17T09:06:11.883Z</time></trkpt><trkpt lat="42.6966083" lon="-8.958385"><ele>582.0</ele><time>2026-04-17T09:06:12.883Z</time></trkpt><trkpt lat="42.6965833" lon="-8.95821"><ele>582.0</ele><time>2026-04-17T09:06:13.883Z</time></trkpt><trkpt lat="42.696565" lon="-8.958015"><ele>582.0</ele><time>2026-04-17T09:06:14.883Z</time></trkpt><trkpt lat="42.6965567" lon="-8.95782"><ele>582.0</ele><time>2026-04-17T09:06:15.882Z</time></trkpt><trkpt lat="42.6965283" lon="-8.9576583"><ele>582.0</ele><time>2026-04-17T09:06:16.882Z</time></trkpt><trkpt lat="42.6964817" lon="-8.95752"><ele>582.0</ele><time>2026-04-17T09:06:17.882Z</time></trkpt><trkpt lat="42.6964217" lon="-8.9573967"><ele>582.0</ele><time>2026-04-17T09:06:18.883Z</time></trkpt><trkpt lat="42.6963433" lon="-8.957275"><ele>582.0</ele><time>2026-04-17T09:06:19.883Z</time></trkpt><trkpt lat="42.6962433" lon="-8.957145"><ele>582.0</ele><time>2026-04-17T09:06:20.882Z</time></trkpt><trkpt lat="42.6961217" lon="-8.9570083"><ele>582.0</ele><time>2026-04-17T09:06:21.883Z</time></trkpt><trkpt lat="42.6959867" lon="-8.9568833"><ele>583.3333333333334</ele><time>2026-04-17T09:06:22.882Z</time></trkpt><trkpt lat="42.6958367" lon="-8.9567367"><ele>584.6666666666667</ele><time>2026-04-17T09:06:23.883Z</time></trkpt><trkpt lat="42.6956817" lon="-8.9565683"><ele>586.0</ele><time>2026-04-17T09:06:24.882Z</time></trkpt><trkpt lat="42.6955067" lon="-8.95639"><ele>586.0</ele><time>2026-04-17T09:06:25.882Z</time></trkpt><trkpt lat="42.69532" lon="-8.9562"><ele>586.0</ele><time>2026-04-17T09:06:26.883Z</time></trkpt><trkpt lat="42.69515" lon="-8.9560133"><ele>586.6666666666667</ele><time>2026-04-17T09:06:27.882Z</time></trkpt><trkpt lat="42.694995" lon="-8.95585"><ele>587.3333333333334</ele><time>2026-04-17T09:06:28.882Z</time></trkpt><trkpt lat="42.6948617" lon="-8.9557133"><ele>588.0</ele><time>2026-04-17T09:06:29.882Z</time></trkpt><trkpt lat="42.6947317" lon="-8.9555783"><ele>588.0</ele><time>2026-04-17T09:06:30.883Z</time></trkpt><trkpt lat="42.694595" lon="-8.9554383"><ele>588.0</ele><time>2026-04-17T09:06:31.882Z</time></trkpt><trkpt lat="42.6944383" lon="-8.9552883"><ele>588.0</ele><time>2026-04-17T09:06:32.883Z</time></trkpt><trkpt lat="42.694265" lon="-8.9551267"><ele>586.6666666666666</ele><time>2026-04-17T09:06:33.883Z</time></trkpt><trkpt lat="42.6940883" lon="-8.9549683"><ele>585.3333333333333</ele><time>2026-04-17T09:06:34.883Z</time></trkpt><trkpt lat="42.6939367" lon="-8.9548183"><ele>584.0</ele><time>2026-04-17T09:06:35.882Z</time></trkpt><trkpt lat="42.6938" lon="-8.9546817"><ele>584.0</ele><time>2026-04-17T09:06:36.883Z</time></trkpt><trkpt lat="42.69368" lon="-8.9545633"><ele>584.0</ele><time>2026-04-17T09:06:37.883Z</time></trkpt><trkpt lat="42.6935717" lon="-8.95446"><ele>584.0</ele><time>2026-04-17T09:06:38.882Z</time></trkpt><trkpt lat="42.6934683" lon="-8.95439"><ele>584.0</ele><time>2026-04-17T09:06:39.882Z</time></trkpt><trkpt lat="42.6933583" lon="-8.9543533"><ele>583.5</ele><time>2026-04-17T09:06:40.883Z</time></trkpt><trkpt lat="42.6932517" lon="-8.9543633"><ele>583.0</ele><time>2026-04-17T09:06:41.883Z</time></trkpt><trkpt lat="42.6931317" lon="-8.9543967"><ele>582.5</ele><time>2026-04-17T09:06:42.882Z</time></trkpt><trkpt lat="42.6929867" lon="-8.954435"><ele>582.0</ele><time>2026-04-17T09:06:43.882Z</time></trkpt><trkpt lat="42.692815" lon="-8.9544767"><ele>583.3333333333334</ele><time>2026-04-17T09:06:44.882Z</time></trkpt><trkpt lat="42.6926133" lon="-8.95451"><ele>584.6666666666667</ele><time>2026-04-17T09:06:45.883Z</time></trkpt><trkpt lat="42.6923983" lon="-8.95454"><ele>586.0</ele><time>2026-04-17T09:06:46.882Z</time></trkpt><trkpt lat="42.6921733" lon="-8.9545483"><ele>586.0</ele><time>2026-04-17T09:06:47.882Z</time></trkpt><trkpt lat="42.6919417" lon="-8.9545417"><ele>586.0</ele><time>2026-04-17T09:06:48.883Z</time></trkpt><trkpt lat="42.69172" lon="-8.95453"><ele>588.6666666666667</ele><time>2026-04-17T09:06:49.883Z</time></trkpt><trkpt lat="42.691515" lon="-8.9545133"><ele>591.3333333333334</ele><time>2026-04-17T09:06:50.883Z</time></trkpt><trkpt lat="42.69131" lon="-8.9545017"><ele>594.0</ele><time>2026-04-17T09:06:51.882Z</time></trkpt><trkpt lat="42.69112" lon="-8.9544883"><ele>595.6666666666666</ele><time>2026-04-17T09:06:52.882Z</time></trkpt><trkpt lat="42.690945" lon="-8.95448"><ele>597.3333333333333</ele><time>2026-04-17T09:06:53.882Z</time></trkpt><trkpt lat="42.6907767" lon="-8.9544717"><ele>599.0</ele><time>2026-04-17T09:06:54.882Z</time></trkpt><trkpt lat="42.6906317" lon="-8.9544633"><ele>599.0</ele><time>2026-04-17T09:06:55.882Z</time></trkpt><trkpt lat="42.690495" lon="-8.9544533"><ele>599.0</ele><time>2026-04-17T09:06:56.883Z</time></trkpt><trkpt lat="42.690365" lon="-8.95446"><ele>599.0</ele><time>2026-04-17T09:06:57.883Z</time></trkpt><trkpt lat="42.6902283" lon="-8.9544783"><ele>599.0</ele><time>2026-04-17T09:06:58.883Z</time></trkpt><trkpt lat="42.6900817" lon="-8.9545167"><ele>599.5</ele><time>2026-04-17T09:06:59.882Z</time></trkpt><trkpt lat="42.689945" lon="-8.9545633"><ele>600.0</ele><time>2026-04-17T09:07:00.883Z</time></trkpt><trkpt lat="42.6898133" lon="-8.9546483"><ele>600.5</ele><time>2026-04-17T09:07:01.883Z</time></trkpt><trkpt lat="42.689685" lon="-8.95476"><ele>601.0</ele><time>2026-04-17T09:07:02.883Z</time></trkpt><trkpt lat="42.6895533" lon="-8.9548983"><ele>603.3333333333334</ele><time>2026-04-17T09:07:03.883Z</time></trkpt><trkpt lat="42.6894083" lon="-8.9550667"><ele>605.6666666666666</ele><time>2026-04-17T09:07:04.883Z</time></trkpt><trkpt lat="42.6892567" lon="-8.955245"><ele>608.0</ele><time>2026-04-17T09:07:05.882Z</time></trkpt><trkpt lat="42.6891117" lon="-8.9554383"><ele>608.0</ele><time>2026-04-17T09:07:06.882Z</time></trkpt><trkpt lat="42.6889633" lon="-8.95562"><ele>608.0</ele><time>2026-04-17T09:07:07.882Z</time></trkpt><trkpt lat="42.688815" lon="-8.9558083"><ele>608.0</ele><time>2026-04-17T09:07:08.883Z</time></trkpt><trkpt lat="42.6886533" lon="-8.956005"><ele>610.5</ele><time>2026-04-17T09:07:09.883Z</time></trkpt><trkpt lat="42.688485" lon="-8.9561983"><ele>613.0</ele><time>2026-04-17T09:07:10.882Z</time></trkpt><trkpt lat="42.688305" lon="-8.9564017"><ele>613.0</ele><time>2026-04-17T09:07:11.882Z</time></trkpt><trkpt lat="42.6881367" lon="-8.956595"><ele>613.0</ele><time>2026-04-17T09:07:12.883Z</time></trkpt><trkpt lat="42.6879767" lon="-8.9567717"><ele>613.0</ele><time>2026-04-17T09:07:13.882Z</time></trkpt><trkpt lat="42.6878217" lon="-8.9569483"><ele>613.0</ele><time>2026-04-17T09:07:14.883Z</time></trkpt><trkpt lat="42.68767" lon="-8.9571133"><ele>613.0</ele><time>2026-04-17T09:07:15.882Z</time></trkpt><trkpt lat="42.6875333" lon="-8.957265"><ele>613.0</ele><time>2026-04-17T09:07:16.882Z</time></trkpt><trkpt lat="42.6874033" lon="-8.9573933"><ele>613.0</ele><time>2026-04-17T09:07:17.882Z</time></trkpt><trkpt lat="42.6872833" lon="-8.957475"><ele>613.0</ele><time>2026-04-17T09:07:18.883Z</time></trkpt><trkpt lat="42.687165" lon="-8.9575233"><ele>613.0</ele><time>2026-04-17T09:07:19.882Z</time></trkpt><trkpt lat="42.687045" lon="-8.9575267"><ele>613.0</ele><time>2026-04-17T09:07:20.882Z</time></trkpt><trkpt lat="42.686905" lon="-8.95751"><ele>612.3333333333334</ele><time>2026-04-17T09:07:21.882Z</time></trkpt><trkpt lat="42.6867417" lon="-8.9574883"><ele>611.6666666666666</ele><time>2026-04-17T09:07:22.883Z</time></trkpt><trkpt lat="42.68656" lon="-8.9574733"><ele>611.0</ele><time>2026-04-17T09:07:23.882Z</time></trkpt><trkpt lat="42.6863617" lon="-8.9574633"><ele>611.0</ele><time>2026-04-17T09:07:24.883Z</time></trkpt><trkpt lat="42.6861433" lon="-8.9574667"><ele>611.0</ele><time>2026-04-17T09:07:25.882Z</time></trkpt><trkpt lat="42.6859433" lon="-8.95748"><ele>611.0</ele><time>2026-04-17T09:07:26.882Z</time></trkpt><trkpt lat="42.685745" lon="-8.9575"><ele>610.6666666666666</ele><time>2026-04-17T09:07:27.882Z</time></trkpt><trkpt lat="42.6855633" lon="-8.9574967"><ele>610.3333333333334</ele><time>2026-04-17T09:07:28.882Z</time></trkpt><trkpt lat="42.6853933" lon="-8.9574817"><ele>610.0</ele><time>2026-04-17T09:07:29.882Z</time></trkpt><trkpt lat="42.685235" lon="-8.9574367"><ele>612.0</ele><time>2026-04-17T09:07:30.883Z</time></trkpt><trkpt lat="42.68508" lon="-8.95735"><ele>614.0</ele><time>2026-04-17T09:07:31.883Z</time></trkpt><trkpt lat="42.6849233" lon="-8.9572667"><ele>616.0</ele><time>2026-04-17T09:07:32.882Z</time></trkpt><trkpt lat="42.6847617" lon="-8.9571733"><ele>616.0</ele><time>2026-04-17T09:07:33.882Z</time></trkpt><trkpt lat="42.6846" lon="-8.957085"><ele>616.0</ele><time>2026-04-17T09:07:34.882Z</time></trkpt><trkpt lat="42.68447" lon="-8.9570133"><ele>616.0</ele><time>2026-04-17T09:07:35.883Z</time></trkpt><trkpt lat="42.684355" lon="-8.956975"><ele>616.0</ele><time>2026-04-17T09:07:36.882Z</time></trkpt><trkpt lat="42.6842467" lon="-8.9569583"><ele>619.5</ele><time>2026-04-17T09:07:37.882Z</time></trkpt><trkpt lat="42.6841283" lon="-8.956975"><ele>623.0</ele><time>2026-04-17T09:07:38.882Z</time></trkpt><trkpt lat="42.6840117" lon="-8.957"><ele>626.5</ele><time>2026-04-17T09:07:39.883Z</time></trkpt><trkpt lat="42.68389" lon="-8.9570233"><ele>630.0</ele><time>2026-04-17T09:07:40.882Z</time></trkpt><trkpt lat="42.683775" lon="-8.9570417"><ele>630.0</ele><time>2026-04-17T09:07:41.882Z</time></trkpt><trkpt lat="42.6836733" lon="-8.9570733"><ele>630.0</ele><time>2026-04-17T09:07:42.883Z</time></trkpt><trkpt lat="42.6835883" lon="-8.95712"><ele>630.0</ele><time>2026-04-17T09:07:43.882Z</time></trkpt><trkpt lat="42.6835117" lon="-8.957185"><ele>630.0</ele><time>2026-04-17T09:07:44.882Z</time></trkpt><trkpt lat="42.683435" lon="-8.9572833"><ele>630.0</ele><time>2026-04-17T09:07:45.883Z</time></trkpt><trkpt lat="42.6833733" lon="-8.9574067"><ele>630.2</ele><time>2026-04-17T09:07:46.883Z</time></trkpt><trkpt lat="42.683345" lon="-8.9575467"><ele>630.4</ele><time>2026-04-17T09:07:47.882Z</time></trkpt><trkpt lat="42.6833183" lon="-8.9576783"><ele>630.6</ele><time>2026-04-17T09:07:48.883Z</time></trkpt><trkpt lat="42.6833033" lon="-8.95781"><ele>630.8</ele><time>2026-04-17T09:07:49.882Z</time></trkpt><trkpt lat="42.6832833" lon="-8.957935"><ele>631.0</ele><time>2026-04-17T09:07:50.882Z</time></trkpt><trkpt lat="42.6832533" lon="-8.95806"><ele>631.0</ele><time>2026-04-17T09:07:51.882Z</time></trkpt><trkpt lat="42.6832017" lon="-8.9581433"><ele>631.0</ele><time>2026-04-17T09:07:52.882Z</time></trkpt><trkpt lat="42.6831217" lon="-8.9582117"><ele>631.0</ele><time>2026-04-17T09:07:53.882Z</time></trkpt><trkpt lat="42.6830017" lon="-8.9582467"><ele>631.0</ele><time>2026-04-17T09:07:54.882Z</time></trkpt><trkpt lat="42.6828517" lon="-8.9582833"><ele>629.6666666666667</ele><time>2026-04-17T09:07:55.883Z</time></trkpt><trkpt lat="42.68268" lon="-8.958315"><ele>628.3333333333334</ele><time>2026-04-17T09:07:56.883Z</time></trkpt><trkpt lat="42.682485" lon="-8.9583783"><ele>627.0</ele><time>2026-04-17T09:07:57.883Z</time></trkpt><trkpt lat="42.6822867" lon="-8.9584617"><ele>625.3333333333334</ele><time>2026-04-17T09:07:58.883Z</time></trkpt><trkpt lat="42.6820967" lon="-8.958545"><ele>623.6666666666667</ele><time>2026-04-17T09:07:59.882Z</time></trkpt><trkpt lat="42.6819333" lon="-8.958635"><ele>622.0</ele><time>2026-04-17T09:08:00.882Z</time></trkpt><trkpt lat="42.68178" lon="-8.9587333"><ele>622.0</ele><time>2026-04-17T09:08:01.883Z</time></trkpt><trkpt lat="42.6816467" lon="-8.9588583"><ele>622.0</ele><time>2026-04-17T09:08:02.883Z</time></trkpt><trkpt lat="42.681525" lon="-8.95898"><ele>622.0</ele><time>2026-04-17T09:08:03.883Z</time></trkpt><trkpt lat="42.681405" lon="-8.9590933"><ele>619.3333333333334</ele><time>2026-04-17T09:08:04.883Z</time></trkpt><trkpt lat="42.6812717" lon="-8.9592183"><ele>616.6666666666666</ele><time>2026-04-17T09:08:05.883Z</time></trkpt><trkpt lat="42.6811033" lon="-8.95936"><ele>614.0</ele><time>2026-04-17T09:08:06.883Z</time></trkpt><trkpt lat="42.6809467" lon="-8.95949"><ele>612.3333333333333</ele><time>2026-04-17T09:08:07.882Z</time></trkpt><trkpt lat="42.6808" lon="-8.959595"><ele>610.6666666666666</ele><time>2026-04-17T09:08:08.883Z</time></trkpt><trkpt lat="42.68066" lon="-8.959695"><ele>609.0</ele><time>2026-04-17T09:08:09.882Z</time></trkpt><trkpt lat="42.6805217" lon="-8.9597617"><ele>609.0</ele><time>2026-04-17T09:08:10.883Z</time></trkpt><trkpt lat="42.6803717" lon="-8.9597717"><ele>609.0</ele><time>2026-04-17T09:08:11.882Z</time></trkpt><trkpt lat="42.68022" lon="-8.9597767"><ele>609.0</ele><time>2026-04-17T09:08:12.882Z</time></trkpt><trkpt lat="42.6800667" lon="-8.9597417"><ele>607.6666666666666</ele><time>2026-04-17T09:08:13.883Z</time></trkpt><trkpt lat="42.67991" lon="-8.9596633"><ele>606.3333333333333</ele><time>2026-04-17T09:08:14.882Z</time></trkpt><trkpt lat="42.6797533" lon="-8.9595633"><ele>605.0</ele><time>2026-04-17T09:08:15.883Z</time></trkpt><trkpt lat="42.679595" lon="-8.959465"><ele>605.0</ele><time>2026-04-17T09:08:16.883Z</time></trkpt><trkpt lat="42.6794483" lon="-8.9593683"><ele>605.0</ele><time>2026-04-17T09:08:17.882Z</time></trkpt><trkpt lat="42.6793267" lon="-8.959305"><ele>605.0</ele><time>2026-04-17T09:08:18.882Z</time></trkpt><trkpt lat="42.67921" lon="-8.9592567"><ele>605.0</ele><time>2026-04-17T09:08:19.882Z</time></trkpt><trkpt lat="42.6790717" lon="-8.9592517"><ele>605.0</ele><time>2026-04-17T09:08:20.883Z</time></trkpt><trkpt lat="42.6789167" lon="-8.9592567"><ele>605.0</ele><time>2026-04-17T09:08:21.882Z</time></trkpt><trkpt lat="42.67875" lon="-8.9592583"><ele>605.0</ele><time>2026-04-17T09:08:22.882Z</time></trkpt><trkpt lat="42.6786083" lon="-8.95922"><ele>609.0</ele><time>2026-04-17T09:08:23.883Z</time></trkpt><trkpt lat="42.678445" lon="-8.95916"><ele>613.0</ele><time>2026-04-17T09:08:24.882Z</time></trkpt><trkpt lat="42.6782483" lon="-8.95911"><ele>617.0</ele><time>2026-04-17T09:08:25.883Z</time></trkpt><trkpt lat="42.67803" lon="-8.9590833"><ele>617.0</ele><time>2026-04-17T09:08:26.883Z</time></trkpt><trkpt lat="42.6777817" lon="-8.9590617"><ele>617.0</ele><time>2026-04-17T09:08:27.882Z</time></trkpt><trkpt lat="42.6775067" lon="-8.9590333"><ele>615.0</ele><time>2026-04-17T09:08:28.883Z</time></trkpt><trkpt lat="42.6772517" lon="-8.9589967"><ele>613.0</ele><time>2026-04-17T09:08:29.883Z</time></trkpt><trkpt lat="42.6770167" lon="-8.958955"><ele>613.5</ele><time>2026-04-17T09:08:30.883Z</time></trkpt><trkpt lat="42.6768017" lon="-8.95892"><ele>614.0</ele><time>2026-04-17T09:08:31.883Z</time></trkpt><trkpt lat="42.6765667" lon="-8.9588833"><ele>614.0</ele><time>2026-04-17T09:08:32.882Z</time></trkpt><trkpt lat="42.6763317" lon="-8.9588367"><ele>614.0</ele><time>2026-04-17T09:08:33.882Z</time></trkpt><trkpt lat="42.6761067" lon="-8.9587867"><ele>614.3333333333333</ele><time>2026-04-17T09:08:34.883Z</time></trkpt><trkpt lat="42.6758967" lon="-8.9587567"><ele>614.6666666666666</ele><time>2026-04-17T09:08:35.883Z</time></trkpt><trkpt lat="42.6757017" lon="-8.958755"><ele>615.0</ele><time>2026-04-17T09:08:36.882Z</time></trkpt><trkpt lat="42.67551" lon="-8.9587783"><ele>615.0</ele><time>2026-04-17T09:08:37.882Z</time></trkpt><trkpt lat="42.67535" lon="-8.9588233"><ele>615.0</ele><time>2026-04-17T09:08:38.883Z</time></trkpt><trkpt lat="42.6751917" lon="-8.9589067"><ele>615.0</ele><time>2026-04-17T09:08:39.883Z</time></trkpt><trkpt lat="42.6750417" lon="-8.9589983"><ele>618.6666666666666</ele><time>2026-04-17T09:08:40.883Z</time></trkpt><trkpt lat="42.6748933" lon="-8.9590933"><ele>622.3333333333333</ele><time>2026-04-17T09:08:41.884Z</time></trkpt><trkpt lat="42.6747417" lon="-8.95918"><ele>626.0</ele><time>2026-04-17T09:08:42.883Z</time></trkpt><trkpt lat="42.674595" lon="-8.9592817"><ele>627.6666666666666</ele><time>2026-04-17T09:08:43.884Z</time></trkpt><trkpt lat="42.674455" lon="-8.95938"><ele>629.3333333333334</ele><time>2026-04-17T09:08:44.883Z</time></trkpt><trkpt lat="42.6743067" lon="-8.9594817"><ele>631.0</ele><time>2026-04-17T09:08:45.884Z</time></trkpt><trkpt lat="42.67419" lon="-8.959595"><ele>634.25</ele><time>2026-04-17T09:08:46.883Z</time></trkpt><trkpt lat="42.6741033" lon="-8.9597333"><ele>637.5</ele><time>2026-04-17T09:08:47.884Z</time></trkpt><trkpt lat="42.674055" lon="-8.9598883"><ele>640.75</ele><time>2026-04-17T09:08:48.884Z</time></trkpt><trkpt lat="42.6740117" lon="-8.9600633"><ele>644.0</ele><time>2026-04-17T09:08:49.883Z</time></trkpt><trkpt lat="42.6739583" lon="-8.9602267"><ele>644.75</ele><time>2026-04-17T09:08:50.883Z</time></trkpt><trkpt lat="42.6738867" lon="-8.9604033"><ele>645.5</ele><time>2026-04-17T09:08:51.884Z</time></trkpt><trkpt lat="42.6738183" lon="-8.9605717"><ele>646.25</ele><time>2026-04-17T09:08:52.884Z</time></trkpt><trkpt lat="42.6737617" lon="-8.9607233"><ele>647.0</ele><time>2026-04-17T09:08:53.884Z</time></trkpt><trkpt lat="42.6737333" lon="-8.9608317"><ele>646.2</ele><time>2026-04-17T09:08:54.884Z</time></trkpt><trkpt lat="42.6737283" lon="-8.9609217"><ele>645.4000000000001</ele><time>2026-04-17T09:08:55.883Z</time></trkpt><trkpt lat="42.6738017" lon="-8.9610667"><ele>644.5999999999999</ele><time>2026-04-17T09:08:57.884Z</time></trkpt><trkpt lat="42.673885" lon="-8.96115"><ele>643.8</ele><time>2026-04-17T09:08:58.884Z</time></trkpt><trkpt lat="42.67395" lon="-8.9612333"><ele>643.0</ele><time>2026-04-17T09:08:59.883Z</time></trkpt><trkpt lat="42.6739967" lon="-8.9613467"><ele>643.0</ele><time>2026-04-17T09:09:00.884Z</time></trkpt><trkpt lat="42.674035" lon="-8.9614917"><ele>643.0</ele><time>2026-04-17T09:09:01.884Z</time></trkpt><trkpt lat="42.6740617" lon="-8.9616767"><ele>643.0</ele><time>2026-04-17T09:09:02.884Z</time></trkpt><trkpt lat="42.6740783" lon="-8.9619133"><ele>643.0</ele><time>2026-04-17T09:09:03.883Z</time></trkpt><trkpt lat="42.6740917" lon="-8.9621733"><ele>639.6666666666667</ele><time>2026-04-17T09:09:04.884Z</time></trkpt><trkpt lat="42.6741117" lon="-8.9624433"><ele>636.3333333333334</ele><time>2026-04-17T09:09:05.883Z</time></trkpt><trkpt lat="42.6741283" lon="-8.9627017"><ele>633.0</ele><time>2026-04-17T09:09:06.883Z</time></trkpt><trkpt lat="42.6741583" lon="-8.9629383"><ele>631.75</ele><time>2026-04-17T09:09:07.883Z</time></trkpt><trkpt lat="42.67418" lon="-8.96314"><ele>630.5</ele><time>2026-04-17T09:09:08.883Z</time></trkpt><trkpt lat="42.6741983" lon="-8.9633133"><ele>629.25</ele><time>2026-04-17T09:09:09.883Z</time></trkpt><trkpt lat="42.6742" lon="-8.9634633"><ele>628.0</ele><time>2026-04-17T09:09:10.883Z</time></trkpt><trkpt lat="42.6741883" lon="-8.9635817"><ele>626.4</ele><time>2026-04-17T09:09:11.883Z</time></trkpt><trkpt lat="42.6741667" lon="-8.963675"><ele>624.8</ele><time>2026-04-17T09:09:12.883Z</time></trkpt><trkpt lat="42.67408" lon="-8.9637367"><ele>623.2</ele><time>2026-04-17T09:09:14.884Z</time></trkpt><trkpt lat="42.6740033" lon="-8.9637333"><ele>621.6</ele><time>2026-04-17T09:09:15.884Z</time></trkpt><trkpt lat="42.6738933" lon="-8.9637167"><ele>620.0</ele><time>2026-04-17T09:09:16.883Z</time></trkpt><trkpt lat="42.6737417" lon="-8.96369"><ele>618.3333333333333</ele><time>2026-04-17T09:09:17.884Z</time></trkpt><trkpt lat="42.673535" lon="-8.9636467"><ele>616.6666666666666</ele><time>2026-04-17T09:09:18.884Z</time></trkpt><trkpt lat="42.67333" lon="-8.96363"><ele>615.0</ele><time>2026-04-17T09:09:19.884Z</time></trkpt><trkpt lat="42.6731383" lon="-8.9636167"><ele>615.0</ele><time>2026-04-17T09:09:20.884Z</time></trkpt><trkpt lat="42.67294" lon="-8.963615"><ele>615.0</ele><time>2026-04-17T09:09:21.883Z</time></trkpt><trkpt lat="42.6727367" lon="-8.9636083"><ele>615.0</ele><time>2026-04-17T09:09:22.884Z</time></trkpt><trkpt lat="42.6725283" lon="-8.9636017"><ele>613.3333333333334</ele><time>2026-04-17T09:09:23.884Z</time></trkpt><trkpt lat="42.6723283" lon="-8.96357"><ele>611.6666666666667</ele><time>2026-04-17T09:09:24.884Z</time></trkpt><trkpt lat="42.67212" lon="-8.9635483"><ele>610.0</ele><time>2026-04-17T09:09:25.883Z</time></trkpt><trkpt lat="42.6719133" lon="-8.9635283"><ele>608.6666666666667</ele><time>2026-04-17T09:09:26.884Z</time></trkpt><trkpt lat="42.6717033" lon="-8.9635067"><ele>607.3333333333334</ele><time>2026-04-17T09:09:27.883Z</time></trkpt><trkpt lat="42.6715083" lon="-8.9634783"><ele>606.0</ele><time>2026-04-17T09:09:28.883Z</time></trkpt><trkpt lat="42.6713417" lon="-8.96344"><ele>606.0</ele><time>2026-04-17T09:09:29.884Z</time></trkpt><trkpt lat="42.6712067" lon="-8.9634"><ele>606.0</ele><time>2026-04-17T09:09:30.883Z</time></trkpt><trkpt lat="42.6711083" lon="-8.96335"><ele>606.0</ele><time>2026-04-17T09:09:31.883Z</time></trkpt><trkpt lat="42.6710333" lon="-8.9632633"><ele>606.0</ele><time>2026-04-17T09:09:32.883Z</time></trkpt><trkpt lat="42.6709717" lon="-8.96315"><ele>606.0</ele><time>2026-04-17T09:09:33.884Z</time></trkpt><trkpt lat="42.67092" lon="-8.9630067"><ele>606.0</ele><time>2026-04-17T09:09:34.883Z</time></trkpt><trkpt lat="42.6708633" lon="-8.962825"><ele>606.0</ele><time>2026-04-17T09:09:35.883Z</time></trkpt><trkpt lat="42.67079" lon="-8.9626133"><ele>606.0</ele><time>2026-04-17T09:09:36.883Z</time></trkpt><trkpt lat="42.670705" lon="-8.9623767"><ele>607.0</ele><time>2026-04-17T09:09:37.883Z</time></trkpt><trkpt lat="42.6706183" lon="-8.9621067"><ele>608.0</ele><time>2026-04-17T09:09:38.884Z</time></trkpt><trkpt lat="42.6705417" lon="-8.9618433"><ele>609.0</ele><time>2026-04-17T09:09:39.884Z</time></trkpt><trkpt lat="42.6704833" lon="-8.9615967"><ele>610.3333333333334</ele><time>2026-04-17T09:09:40.883Z</time></trkpt><trkpt lat="42.670435" lon="-8.961325"><ele>611.6666666666667</ele><time>2026-04-17T09:09:41.884Z</time></trkpt><trkpt lat="42.6703767" lon="-8.9610217"><ele>613.0</ele><time>2026-04-17T09:09:42.883Z</time></trkpt><trkpt lat="42.6703333" lon="-8.96072"><ele>614.6666666666667</ele><time>2026-04-17T09:09:43.883Z</time></trkpt><trkpt lat="42.6702917" lon="-8.9604433"><ele>616.3333333333334</ele><time>2026-04-17T09:09:44.883Z</time></trkpt><trkpt lat="42.67025" lon="-8.9602167"><ele>618.0</ele><time>2026-04-17T09:09:45.883Z</time></trkpt><trkpt lat="42.6702033" lon="-8.9600167"><ele>618.75</ele><time>2026-04-17T09:09:46.883Z</time></trkpt><trkpt lat="42.6701383" lon="-8.959875"><ele>619.5</ele><time>2026-04-17T09:09:47.883Z</time></trkpt><trkpt lat="42.6700533" lon="-8.9597783"><ele>620.25</ele><time>2026-04-17T09:09:48.883Z</time></trkpt><trkpt lat="42.6699367" lon="-8.9597467"><ele>621.0</ele><time>2026-04-17T09:09:49.884Z</time></trkpt><trkpt lat="42.6698" lon="-8.9597567"><ele>621.0</ele><time>2026-04-17T09:09:50.883Z</time></trkpt><trkpt lat="42.669635" lon="-8.9598067"><ele>621.0</ele><time>2026-04-17T09:09:51.884Z</time></trkpt><trkpt lat="42.66945" lon="-8.9598517"><ele>621.0</ele><time>2026-04-17T09:09:52.884Z</time></trkpt><trkpt lat="42.6692617" lon="-8.9598833"><ele>621.0</ele><time>2026-04-17T09:09:53.884Z</time></trkpt><trkpt lat="42.669055" lon="-8.9599017"><ele>621.0</ele><time>2026-04-17T09:09:54.883Z</time></trkpt><trkpt lat="42.6688467" lon="-8.9599017"><ele>621.0</ele><time>2026-04-17T09:09:55.884Z</time></trkpt><trkpt lat="42.6686317" lon="-8.959895"><ele>620.0</ele><time>2026-04-17T09:09:56.884Z</time></trkpt><trkpt lat="42.6684167" lon="-8.9598783"><ele>619.0</ele><time>2026-04-17T09:09:57.883Z</time></trkpt><trkpt lat="42.6681917" lon="-8.95985"><ele>618.0</ele><time>2026-04-17T09:09:58.883Z</time></trkpt><trkpt lat="42.6679617" lon="-8.9598267"><ele>616.5</ele><time>2026-04-17T09:09:59.884Z</time></trkpt><trkpt lat="42.6677233" lon="-8.9597983"><ele>615.0</ele><time>2026-04-17T09:10:00.883Z</time></trkpt><trkpt lat="42.6674917" lon="-8.9597783"><ele>615.0</ele><time>2026-04-17T09:10:01.884Z</time></trkpt><trkpt lat="42.66728" lon="-8.9597617"><ele>615.0</ele><time>2026-04-17T09:10:02.884Z</time></trkpt><trkpt lat="42.6670883" lon="-8.9597867"><ele>615.0</ele><time>2026-04-17T09:10:03.883Z</time></trkpt><trkpt lat="42.666885" lon="-8.9598483"><ele>615.6666666666666</ele><time>2026-04-17T09:10:04.883Z</time></trkpt><trkpt lat="42.6666817" lon="-8.9599167"><ele>616.3333333333333</ele><time>2026-04-17T09:10:05.883Z</time></trkpt><trkpt lat="42.6665083" lon="-8.9599933"><ele>617.0</ele><time>2026-04-17T09:10:06.883Z</time></trkpt><trkpt lat="42.6663617" lon="-8.9600633"><ele>617.0</ele><time>2026-04-17T09:10:07.883Z</time></trkpt><trkpt lat="42.6662317" lon="-8.9601417"><ele>617.0</ele><time>2026-04-17T09:10:08.884Z</time></trkpt><trkpt lat="42.66614" lon="-8.96024"><ele>617.0</ele><time>2026-04-17T09:10:09.883Z</time></trkpt><trkpt lat="42.66607" lon="-8.9603733"><ele>617.0</ele><time>2026-04-17T09:10:10.883Z</time></trkpt><trkpt lat="42.66603" lon="-8.960545"><ele>618.3333333333333</ele><time>2026-04-17T09:10:11.884Z</time></trkpt><trkpt lat="42.6659983" lon="-8.9607567"><ele>619.6666666666666</ele><time>2026-04-17T09:10:12.884Z</time></trkpt><trkpt lat="42.6659783" lon="-8.9609883"><ele>621.0</ele><time>2026-04-17T09:10:13.883Z</time></trkpt><trkpt lat="42.6659467" lon="-8.9612567"><ele>621.0</ele><time>2026-04-17T09:10:14.883Z</time></trkpt><trkpt lat="42.6659133" lon="-8.9615583"><ele>621.0</ele><time>2026-04-17T09:10:15.884Z</time></trkpt><trkpt lat="42.6658833" lon="-8.9618433"><ele>621.0</ele><time>2026-04-17T09:10:16.883Z</time></trkpt><trkpt lat="42.6658483" lon="-8.9621183"><ele>621.0</ele><time>2026-04-17T09:10:17.883Z</time></trkpt><trkpt lat="42.66581" lon="-8.9623517"><ele>621.0</ele><time>2026-04-17T09:10:18.883Z</time></trkpt><trkpt lat="42.6657567" lon="-8.962535"><ele>621.0</ele><time>2026-04-17T09:10:19.884Z</time></trkpt><trkpt lat="42.6657083" lon="-8.9626917"><ele>621.0</ele><time>2026-04-17T09:10:20.883Z</time></trkpt><trkpt lat="42.665645" lon="-8.9628317"><ele>621.0</ele><time>2026-04-17T09:10:21.883Z</time></trkpt><trkpt lat="42.6655467" lon="-8.962925"><ele>621.0</ele><time>2026-04-17T09:10:22.884Z</time></trkpt><trkpt lat="42.6654133" lon="-8.963015"><ele>621.0</ele><time>2026-04-17T09:10:23.884Z</time></trkpt><trkpt lat="42.665245" lon="-8.96309"><ele>621.0</ele><time>2026-04-17T09:10:24.883Z</time></trkpt><trkpt lat="42.6650633" lon="-8.9631767"><ele>621.3333333333334</ele><time>2026-04-17T09:10:25.884Z</time></trkpt><trkpt lat="42.6648783" lon="-8.9632583"><ele>621.6666666666667</ele><time>2026-04-17T09:10:26.884Z</time></trkpt><trkpt lat="42.664705" lon="-8.9633433"><ele>622.0</ele><time>2026-04-17T09:10:27.884Z</time></trkpt><trkpt lat="42.6645533" lon="-8.9634133"><ele>622.8000000000001</ele><time>2026-04-17T09:10:28.883Z</time></trkpt><trkpt lat="42.6644167" lon="-8.9634533"><ele>623.6</ele><time>2026-04-17T09:10:29.884Z</time></trkpt><trkpt lat="42.664325" lon="-8.9634633"><ele>624.4000000000001</ele><time>2026-04-17T09:10:30.884Z</time></trkpt><trkpt lat="42.664225" lon="-8.9634033"><ele>625.2</ele><time>2026-04-17T09:10:32.883Z</time></trkpt><trkpt lat="42.6641883" lon="-8.9633317"><ele>626.0</ele><time>2026-04-17T09:10:33.884Z</time></trkpt><trkpt lat="42.6641417" lon="-8.9632267"><ele>626.0</ele><time>2026-04-17T09:10:34.884Z</time></trkpt><trkpt lat="42.6640767" lon="-8.96309"><ele>626.0</ele><time>2026-04-17T09:10:35.884Z</time></trkpt><trkpt lat="42.6639733" lon="-8.96294"><ele>626.0</ele><time>2026-04-17T09:10:36.883Z</time></trkpt><trkpt lat="42.66385" lon="-8.9627883"><ele>626.0</ele><time>2026-04-17T09:10:37.884Z</time></trkpt><trkpt lat="42.6637333" lon="-8.9626283"><ele>626.5</ele><time>2026-04-17T09:10:38.884Z</time></trkpt><trkpt lat="42.66362" lon="-8.96249"><ele>627.0</ele><time>2026-04-17T09:10:39.883Z</time></trkpt><trkpt lat="42.6635233" lon="-8.96236"><ele>627.5</ele><time>2026-04-17T09:10:40.883Z</time></trkpt><trkpt lat="42.6634467" lon="-8.96225"><ele>628.0</ele><time>2026-04-17T09:10:41.883Z</time></trkpt><trkpt lat="42.6633667" lon="-8.9621633"><ele>626.75</ele><time>2026-04-17T09:10:42.883Z</time></trkpt><trkpt lat="42.6632733" lon="-8.9620767"><ele>625.5</ele><time>2026-04-17T09:10:43.883Z</time></trkpt><trkpt lat="42.6631667" lon="-8.9619783"><ele>624.25</ele><time>2026-04-17T09:10:44.884Z</time></trkpt><trkpt lat="42.66305" lon="-8.9618733"><ele>623.0</ele><time>2026-04-17T09:10:45.884Z</time></trkpt><trkpt lat="42.66293" lon="-8.9617617"><ele>620.6666666666666</ele><time>2026-04-17T09:10:46.883Z</time></trkpt><trkpt lat="42.6628" lon="-8.96166"><ele>618.3333333333334</ele><time>2026-04-17T09:10:47.883Z</time></trkpt><trkpt lat="42.66266" lon="-8.9615483"><ele>616.0</ele><time>2026-04-17T09:10:48.883Z</time></trkpt><trkpt lat="42.6625117" lon="-8.9614333"><ele>616.0</ele><time>2026-04-17T09:10:49.883Z</time></trkpt><trkpt lat="42.6623617" lon="-8.9613133"><ele>616.0</ele><time>2026-04-17T09:10:50.884Z</time></trkpt><trkpt lat="42.66221" lon="-8.9611967"><ele>616.0</ele><time>2026-04-17T09:10:51.884Z</time></trkpt><trkpt lat="42.6620717" lon="-8.96108"><ele>613.75</ele><time>2026-04-17T09:10:52.883Z</time></trkpt><trkpt lat="42.661935" lon="-8.960985"><ele>611.5</ele><time>2026-04-17T09:10:53.883Z</time></trkpt><trkpt lat="42.6618133" lon="-8.9608833"><ele>609.25</ele><time>2026-04-17T09:10:54.883Z</time></trkpt><trkpt lat="42.6616883" lon="-8.96079"><ele>607.0</ele><time>2026-04-17T09:10:55.884Z</time></trkpt><trkpt lat="42.6615683" lon="-8.960715"><ele>607.0</ele><time>2026-04-17T09:10:56.884Z</time></trkpt><trkpt lat="42.6614517" lon="-8.9606667"><ele>607.0</ele><time>2026-04-17T09:10:57.884Z</time></trkpt><trkpt lat="42.661325" lon="-8.9606233"><ele>607.0</ele><time>2026-04-17T09:10:58.884Z</time></trkpt><trkpt lat="42.6612033" lon="-8.9606033"><ele>607.0</ele><time>2026-04-17T09:10:59.884Z</time></trkpt><trkpt lat="42.6610817" lon="-8.960585"><ele>603.75</ele><time>2026-04-17T09:11:00.884Z</time></trkpt><trkpt lat="42.6609533" lon="-8.9605683"><ele>600.5</ele><time>2026-04-17T09:11:01.884Z</time></trkpt><trkpt lat="42.6608283" lon="-8.960565"><ele>597.25</ele><time>2026-04-17T09:11:02.884Z</time></trkpt><trkpt lat="42.6607067" lon="-8.96056"><ele>594.0</ele><time>2026-04-17T09:11:03.884Z</time></trkpt><trkpt lat="42.660575" lon="-8.9605683"><ele>594.0</ele><time>2026-04-17T09:11:04.884Z</time></trkpt><trkpt lat="42.660445" lon="-8.960585"><ele>594.0</ele><time>2026-04-17T09:11:05.884Z</time></trkpt><trkpt lat="42.6603117" lon="-8.960605"><ele>594.0</ele><time>2026-04-17T09:11:06.884Z</time></trkpt><trkpt lat="42.660195" lon="-8.9606217"><ele>594.0</ele><time>2026-04-17T09:11:07.883Z</time></trkpt><trkpt lat="42.66009" lon="-8.960635"><ele>591.0</ele><time>2026-04-17T09:11:08.884Z</time></trkpt><trkpt lat="42.6599867" lon="-8.9606467"><ele>588.0</ele><time>2026-04-17T09:11:09.883Z</time></trkpt><trkpt lat="42.6598867" lon="-8.96065"><ele>585.0</ele><time>2026-04-17T09:11:10.884Z</time></trkpt><trkpt lat="42.6597783" lon="-8.9606383"><ele>582.0</ele><time>2026-04-17T09:11:11.884Z</time></trkpt><trkpt lat="42.6596533" lon="-8.9606167"><ele>579.0</ele><time>2026-04-17T09:11:12.883Z</time></trkpt><trkpt lat="42.6595317" lon="-8.9605983"><ele>575.8</ele><time>2026-04-17T09:11:13.884Z</time></trkpt><trkpt lat="42.6594217" lon="-8.9605717"><ele>572.5999999999999</ele><time>2026-04-17T09:11:14.883Z</time></trkpt><trkpt lat="42.6593417" lon="-8.960555"><ele>569.4</ele><time>2026-04-17T09:11:15.884Z</time></trkpt><trkpt lat="42.65928" lon="-8.9605317"><ele>566.1999999999999</ele><time>2026-04-17T09:11:16.883Z</time></trkpt><trkpt lat="42.65918" lon="-8.9604933"><ele>563.0</ele><time>2026-04-17T09:11:18.884Z</time></trkpt><trkpt lat="42.65907" lon="-8.96046"><ele>563.0</ele><time>2026-04-17T09:11:20.883Z</time></trkpt><trkpt lat="42.6590067" lon="-8.9604383"><ele>563.0</ele><time>2026-04-17T09:11:21.884Z</time></trkpt><trkpt lat="42.6589467" lon="-8.9604117"><ele>563.0</ele><time>2026-04-17T09:11:22.884Z</time></trkpt><trkpt lat="42.6588867" lon="-8.960375"><ele>563.0</ele><time>2026-04-17T09:11:23.884Z</time></trkpt><trkpt lat="42.6588283" lon="-8.9603317"><ele>563.0</ele><time>2026-04-17T09:11:24.883Z</time></trkpt><trkpt lat="42.6587567" lon="-8.96029"><ele>563.0</ele><time>2026-04-17T09:11:25.884Z</time></trkpt><trkpt lat="42.6586767" lon="-8.9602333"><ele>563.0</ele><time>2026-04-17T09:11:26.884Z</time></trkpt><trkpt lat="42.6585833" lon="-8.960165"><ele>561.5</ele><time>2026-04-17T09:11:27.883Z</time></trkpt><trkpt lat="42.6584783" lon="-8.9601117"><ele>560.0</ele><time>2026-04-17T09:11:28.883Z</time></trkpt><trkpt lat="42.6583533" lon="-8.9600583"><ele>558.5</ele><time>2026-04-17T09:11:29.884Z</time></trkpt><trkpt lat="42.6582283" lon="-8.9600067"><ele>557.0</ele><time>2026-04-17T09:11:30.883Z</time></trkpt><trkpt lat="42.658095" lon="-8.959945"><ele>557.0</ele><time>2026-04-17T09:11:31.883Z</time></trkpt><trkpt lat="42.6579667" lon="-8.9598883"><ele>557.0</ele><time>2026-04-17T09:11:32.884Z</time></trkpt><trkpt lat="42.6578367" lon="-8.9598367"><ele>557.0</ele><time>2026-04-17T09:11:33.883Z</time></trkpt><trkpt lat="42.657715" lon="-8.9597783"><ele>557.0</ele><time>2026-04-17T09:11:34.884Z</time></trkpt><trkpt lat="42.6575883" lon="-8.9597183"><ele>552.75</ele><time>2026-04-17T09:11:35.884Z</time></trkpt><trkpt lat="42.657465" lon="-8.9596617"><ele>548.5</ele><time>2026-04-17T09:11:36.884Z</time></trkpt><trkpt lat="42.6573417" lon="-8.95961"><ele>544.25</ele><time>2026-04-17T09:11:37.884Z</time></trkpt><trkpt lat="42.6572217" lon="-8.9595717"><ele>540.0</ele><time>2026-04-17T09:11:38.883Z</time></trkpt><trkpt lat="42.6571017" lon="-8.9595417"><ele>540.0</ele><time>2026-04-17T09:11:39.883Z</time></trkpt><trkpt lat="42.656985" lon="-8.9594967"><ele>540.0</ele><time>2026-04-17T09:11:40.883Z</time></trkpt><trkpt lat="42.6568667" lon="-8.9594483"><ele>540.0</ele><time>2026-04-17T09:11:41.884Z</time></trkpt><trkpt lat="42.6567467" lon="-8.95939"><ele>540.0</ele><time>2026-04-17T09:11:42.883Z</time></trkpt><trkpt lat="42.65663" lon="-8.9593483"><ele>541.75</ele><time>2026-04-17T09:11:43.883Z</time></trkpt><trkpt lat="42.6565067" lon="-8.9592967"><ele>543.5</ele><time>2026-04-17T09:11:44.884Z</time></trkpt><trkpt lat="42.6563683" lon="-8.959235"><ele>545.25</ele><time>2026-04-17T09:11:45.884Z</time></trkpt><trkpt lat="42.65625" lon="-8.9591783"><ele>547.0</ele><time>2026-04-17T09:11:46.884Z</time></trkpt><trkpt lat="42.6561383" lon="-8.9591283"><ele>544.0</ele><time>2026-04-17T09:11:47.883Z</time></trkpt><trkpt lat="42.65603" lon="-8.9590867"><ele>541.0</ele><time>2026-04-17T09:11:48.884Z</time></trkpt><trkpt lat="42.65592" lon="-8.9590683"><ele>538.0</ele><time>2026-04-17T09:11:49.884Z</time></trkpt><trkpt lat="42.6557833" lon="-8.9590717"><ele>535.0</ele><time>2026-04-17T09:11:50.883Z</time></trkpt><trkpt lat="42.6556267" lon="-8.9590933"><ele>535.0</ele><time>2026-04-17T09:11:51.883Z</time></trkpt><trkpt lat="42.6554533" lon="-8.959135"><ele>535.0</ele><time>2026-04-17T09:11:52.883Z</time></trkpt><trkpt lat="42.655275" lon="-8.9591833"><ele>535.0</ele><time>2026-04-17T09:11:53.883Z</time></trkpt><trkpt lat="42.65508" lon="-8.9592217"><ele>531.3333333333334</ele><time>2026-04-17T09:11:54.884Z</time></trkpt><trkpt lat="42.6549067" lon="-8.959255"><ele>527.6666666666666</ele><time>2026-04-17T09:11:55.884Z</time></trkpt><trkpt lat="42.6547367" lon="-8.959295"><ele>524.0</ele><time>2026-04-17T09:11:56.883Z</time></trkpt><trkpt lat="42.6546" lon="-8.9593483"><ele>524.25</ele><time>2026-04-17T09:11:57.884Z</time></trkpt><trkpt lat="42.6544533" lon="-8.95942"><ele>524.5</ele><time>2026-04-17T09:11:58.883Z</time></trkpt><trkpt lat="42.654315" lon="-8.9594917"><ele>524.75</ele><time>2026-04-17T09:11:59.883Z</time></trkpt><trkpt lat="42.6541867" lon="-8.9595533"><ele>525.0</ele><time>2026-04-17T09:12:00.884Z</time></trkpt><trkpt lat="42.6540567" lon="-8.9596"><ele>525.0</ele><time>2026-04-17T09:12:01.884Z</time></trkpt><trkpt lat="42.6539383" lon="-8.9596233"><ele>525.0</ele><time>2026-04-17T09:12:02.883Z</time></trkpt><trkpt lat="42.65382" lon="-8.95961"><ele>525.0</ele><time>2026-04-17T09:12:03.883Z</time></trkpt><trkpt lat="42.653715" lon="-8.9595733"><ele>525.0</ele><time>2026-04-17T09:12:04.884Z</time></trkpt><trkpt lat="42.6536317" lon="-8.9594967"><ele>525.0</ele><time>2026-04-17T09:12:05.884Z</time></trkpt><trkpt lat="42.6535517" lon="-8.95939"><ele>524.5</ele><time>2026-04-17T09:12:06.884Z</time></trkpt><trkpt lat="42.65349" lon="-8.9592733"><ele>524.0</ele><time>2026-04-17T09:12:07.884Z</time></trkpt><trkpt lat="42.65344" lon="-8.959145"><ele>523.5</ele><time>2026-04-17T09:12:08.883Z</time></trkpt><trkpt lat="42.6533933" lon="-8.9589967"><ele>523.0</ele><time>2026-04-17T09:12:09.883Z</time></trkpt><trkpt lat="42.65334" lon="-8.9588483"><ele>523.0</ele><time>2026-04-17T09:12:10.883Z</time></trkpt><trkpt lat="42.6533" lon="-8.9587317"><ele>523.0</ele><time>2026-04-17T09:12:11.883Z</time></trkpt><trkpt lat="42.6532667" lon="-8.9586467"><ele>523.0</ele><time>2026-04-17T09:12:12.884Z</time></trkpt><trkpt lat="42.653195" lon="-8.958575"><ele>523.0</ele><time>2026-04-17T09:12:14.883Z</time></trkpt><trkpt lat="42.6530833" lon="-8.958645"><ele>523.0</ele><time>2026-04-17T09:12:16.883Z</time></trkpt><trkpt lat="42.653005" lon="-8.9587483"><ele>523.0</ele><time>2026-04-17T09:12:17.883Z</time></trkpt><trkpt lat="42.6529433" lon="-8.958875"><ele>523.0</ele><time>2026-04-17T09:12:18.883Z</time></trkpt><trkpt lat="42.6529183" lon="-8.959045"><ele>523.0</ele><time>2026-04-17T09:12:19.883Z</time></trkpt><trkpt lat="42.6529033" lon="-8.9592317"><ele>523.0</ele><time>2026-04-17T09:12:20.884Z</time></trkpt><trkpt lat="42.6528867" lon="-8.9594033"><ele>521.8333333333334</ele><time>2026-04-17T09:12:21.884Z</time></trkpt><trkpt lat="42.65286" lon="-8.95955"><ele>520.6666666666667</ele><time>2026-04-17T09:12:22.884Z</time></trkpt><trkpt lat="42.6528333" lon="-8.9596783"><ele>519.5</ele><time>2026-04-17T09:12:23.884Z</time></trkpt><trkpt lat="42.652805" lon="-8.959785"><ele>518.3333333333334</ele><time>2026-04-17T09:12:24.883Z</time></trkpt><trkpt lat="42.6527733" lon="-8.9598667"><ele>517.1666666666666</ele><time>2026-04-17T09:12:25.883Z</time></trkpt><trkpt lat="42.652725" lon="-8.959935"><ele>516.0</ele><time>2026-04-17T09:12:26.884Z</time></trkpt><trkpt lat="42.652655" lon="-8.9599983"><ele>515.0</ele><time>2026-04-17T09:12:27.883Z</time></trkpt><trkpt lat="42.6525733" lon="-8.96005"><ele>514.0</ele><time>2026-04-17T09:12:28.884Z</time></trkpt><trkpt lat="42.65249" lon="-8.9600833"><ele>513.0</ele><time>2026-04-17T09:12:29.883Z</time></trkpt><trkpt lat="42.6524117" lon="-8.960095"><ele>512.0</ele><time>2026-04-17T09:12:30.883Z</time></trkpt><trkpt lat="42.6523467" lon="-8.9600683"><ele>511.0</ele><time>2026-04-17T09:12:31.883Z</time></trkpt><trkpt lat="42.6522833" lon="-8.9600167"><ele>510.0</ele><time>2026-04-17T09:12:32.884Z</time></trkpt><trkpt lat="42.6522283" lon="-8.9599283"><ele>510.0</ele><time>2026-04-17T09:12:33.884Z</time></trkpt><trkpt lat="42.652185" lon="-8.9598217"><ele>510.0</ele><time>2026-04-17T09:12:34.883Z</time></trkpt><trkpt lat="42.6521367" lon="-8.9597333"><ele>510.0</ele><time>2026-04-17T09:12:35.884Z</time></trkpt><trkpt lat="42.6520833" lon="-8.9596683"><ele>510.0</ele><time>2026-04-17T09:12:36.883Z</time></trkpt><trkpt lat="42.6520267" lon="-8.9596267"><ele>510.0</ele><time>2026-04-17T09:12:37.884Z</time></trkpt><trkpt lat="42.65189" lon="-8.9596633"><ele>510.0</ele><time>2026-04-17T09:12:39.883Z</time></trkpt><trkpt lat="42.6518" lon="-8.95976"><ele>510.0</ele><time>2026-04-17T09:12:40.883Z</time></trkpt><trkpt lat="42.6516867" lon="-8.95988"><ele>510.0</ele><time>2026-04-17T09:12:41.883Z</time></trkpt><trkpt lat="42.6515333" lon="-8.9600083"><ele>510.0</ele><time>2026-04-17T09:12:42.883Z</time></trkpt><trkpt lat="42.6514017" lon="-8.9601167"><ele>508.75</ele><time>2026-04-17T09:12:43.884Z</time></trkpt><trkpt lat="42.6512867" lon="-8.96021"><ele>507.5</ele><time>2026-04-17T09:12:44.884Z</time></trkpt><trkpt lat="42.6511783" lon="-8.9602967"><ele>506.25</ele><time>2026-04-17T09:12:45.883Z</time></trkpt><trkpt lat="42.6510767" lon="-8.9603783"><ele>505.0</ele><time>2026-04-17T09:12:46.883Z</time></trkpt><trkpt lat="42.650965" lon="-8.9604667"><ele>505.0</ele><time>2026-04-17T09:12:47.884Z</time></trkpt><trkpt lat="42.65085" lon="-8.9605467"><ele>505.0</ele><time>2026-04-17T09:12:48.884Z</time></trkpt><trkpt lat="42.6507433" lon="-8.96064"><ele>505.0</ele><time>2026-04-17T09:12:49.883Z</time></trkpt><trkpt lat="42.65062" lon="-8.96072"><ele>505.0</ele><time>2026-04-17T09:12:50.883Z</time></trkpt><trkpt lat="42.6505117" lon="-8.96081"><ele>504.25</ele><time>2026-04-17T09:12:51.883Z</time></trkpt><trkpt lat="42.6503883" lon="-8.9609183"><ele>503.5</ele><time>2026-04-17T09:12:52.883Z</time></trkpt><trkpt lat="42.6502517" lon="-8.9610183"><ele>502.75</ele><time>2026-04-17T09:12:53.884Z</time></trkpt><trkpt lat="42.650125" lon="-8.961115"><ele>502.0</ele><time>2026-04-17T09:12:54.883Z</time></trkpt><trkpt lat="42.650015" lon="-8.9611983"><ele>502.0</ele><time>2026-04-17T09:12:55.883Z</time></trkpt><trkpt lat="42.6499083" lon="-8.9612917"><ele>502.0</ele><time>2026-04-17T09:12:56.884Z</time></trkpt><trkpt lat="42.649785" lon="-8.9614017"><ele>502.0</ele><time>2026-04-17T09:12:57.883Z</time></trkpt><trkpt lat="42.64964" lon="-8.9615333"><ele>502.0</ele><time>2026-04-17T09:12:58.883Z</time></trkpt><trkpt lat="42.64948" lon="-8.96167"><ele>502.0</ele><time>2026-04-17T09:12:59.884Z</time></trkpt><trkpt lat="42.649295" lon="-8.9618117"><ele>502.0</ele><time>2026-04-17T09:13:00.883Z</time></trkpt><trkpt lat="42.6491233" lon="-8.9619433"><ele>502.0</ele><time>2026-04-17T09:13:01.883Z</time></trkpt><trkpt lat="42.6489833" lon="-8.96205"><ele>502.0</ele><time>2026-04-17T09:13:02.883Z</time></trkpt><trkpt lat="42.648875" lon="-8.9621167"><ele>502.00000000000006</ele><time>2026-04-17T09:13:03.883Z</time></trkpt><trkpt lat="42.6487917" lon="-8.9621517"><ele>502.00000000000006</ele><time>2026-04-17T09:13:04.883Z</time></trkpt><trkpt lat="42.648725" lon="-8.9621483"><ele>502.0</ele><time>2026-04-17T09:13:05.884Z</time></trkpt><trkpt lat="42.6486167" lon="-8.96209"><ele>502.0</ele><time>2026-04-17T09:13:07.884Z</time></trkpt><trkpt lat="42.64857" lon="-8.9620283"><ele>502.20000000000005</ele><time>2026-04-17T09:13:08.884Z</time></trkpt><trkpt lat="42.6485183" lon="-8.9618867"><ele>502.40000000000003</ele><time>2026-04-17T09:13:10.884Z</time></trkpt><trkpt lat="42.64852" lon="-8.9617983"><ele>502.59999999999997</ele><time>2026-04-17T09:13:11.884Z</time></trkpt><trkpt lat="42.64855" lon="-8.961675"><ele>502.79999999999995</ele><time>2026-04-17T09:13:12.883Z</time></trkpt><trkpt lat="42.6486083" lon="-8.9615217"><ele>503.0</ele><time>2026-04-17T09:13:13.883Z</time></trkpt><trkpt lat="42.6486733" lon="-8.961375"><ele>503.0</ele><time>2026-04-17T09:13:14.884Z</time></trkpt><trkpt lat="42.6487533" lon="-8.96123"><ele>503.0</ele><time>2026-04-17T09:13:15.884Z</time></trkpt><trkpt lat="42.6488333" lon="-8.9611033"><ele>503.0</ele><time>2026-04-17T09:13:16.883Z</time></trkpt><trkpt lat="42.64892" lon="-8.9609933"><ele>503.0</ele><time>2026-04-17T09:13:17.883Z</time></trkpt><trkpt lat="42.6490267" lon="-8.96089"><ele>505.2</ele><time>2026-04-17T09:13:18.884Z</time></trkpt><trkpt lat="42.6491167" lon="-8.9608067"><ele>507.4</ele><time>2026-04-17T09:13:19.885Z</time></trkpt><trkpt lat="42.6492033" lon="-8.9607317"><ele>509.59999999999997</ele><time>2026-04-17T09:13:20.884Z</time></trkpt><trkpt lat="42.6492867" lon="-8.9606683"><ele>511.79999999999995</ele><time>2026-04-17T09:13:21.885Z</time></trkpt><trkpt lat="42.6493683" lon="-8.96061"><ele>514.0</ele><time>2026-04-17T09:13:22.885Z</time></trkpt><trkpt lat="42.6494517" lon="-8.9605517"><ele>513.5</ele><time>2026-04-17T09:13:23.884Z</time></trkpt><trkpt lat="42.6495267" lon="-8.9604933"><ele>513.0</ele><time>2026-04-17T09:13:24.885Z</time></trkpt><trkpt lat="42.6495983" lon="-8.9604333"><ele>512.5</ele><time>2026-04-17T09:13:25.885Z</time></trkpt><trkpt lat="42.6496683" lon="-8.9603717"><ele>512.0</ele><time>2026-04-17T09:13:26.885Z</time></trkpt><trkpt lat="42.6497383" lon="-8.9603117"><ele>511.50000000000006</ele><time>2026-04-17T09:13:27.885Z</time></trkpt><trkpt lat="42.6498033" lon="-8.960255"><ele>511.0</ele><time>2026-04-17T09:13:28.884Z</time></trkpt><trkpt lat="42.6498733" lon="-8.9602067"><ele>511.00000000000006</ele><time>2026-04-17T09:13:29.885Z</time></trkpt><trkpt lat="42.6499583" lon="-8.9601583"><ele>511.0</ele><time>2026-04-17T09:13:30.884Z</time></trkpt><trkpt lat="42.6500383" lon="-8.9601083"><ele>511.0</ele><time>2026-04-17T09:13:31.885Z</time></trkpt><trkpt lat="42.65011" lon="-8.9600567"><ele>511.0</ele><time>2026-04-17T09:13:32.885Z</time></trkpt><trkpt lat="42.65018" lon="-8.9600033"><ele>511.00000000000006</ele><time>2026-04-17T09:13:33.884Z</time></trkpt><trkpt lat="42.6502567" lon="-8.95995"><ele>511.0</ele><time>2026-04-17T09:13:34.884Z</time></trkpt><trkpt lat="42.65033" lon="-8.9598917"><ele>512.0</ele><time>2026-04-17T09:13:35.884Z</time></trkpt><trkpt lat="42.6504067" lon="-8.959825"><ele>513.0</ele><time>2026-04-17T09:13:36.885Z</time></trkpt><trkpt lat="42.6504883" lon="-8.9597583"><ele>514.0</ele><time>2026-04-17T09:13:37.884Z</time></trkpt><trkpt lat="42.6505683" lon="-8.9597"><ele>515.0</ele><time>2026-04-17T09:13:38.884Z</time></trkpt><trkpt lat="42.6506383" lon="-8.9596467"><ele>516.0</ele><time>2026-04-17T09:13:39.884Z</time></trkpt><trkpt lat="42.650705" lon="-8.9595783"><ele>517.0</ele><time>2026-04-17T09:13:40.884Z</time></trkpt><trkpt lat="42.6507717" lon="-8.9595033"><ele>499.0</ele><time>2026-04-17T09:13:41.884Z</time></trkpt><trkpt lat="42.6485183" lon="-8.9618867"><ele>499.0</ele><time>2026-04-17T09:13:10.884Z</time></trkpt><trkpt lat="42.64852" lon="-8.9617983"><ele>499.0</ele><time>2026-04-17T09:13:11.884Z</time></trkpt><trkpt lat="42.64855" lon="-8.961675"><ele>499.0</ele><time>2026-04-17T09:13:12.883Z</time></trkpt><trkpt lat="42.6486083" lon="-8.9615217"><ele>499.0</ele><time>2026-04-17T09:13:13.883Z</time></trkpt><trkpt lat="42.6486733" lon="-8.961375"><ele>499.0</ele><time>2026-04-17T09:13:14.884Z</time></trkpt><trkpt lat="42.6487533" lon="-8.96123"><ele>500.0</ele><time>2026-04-17T09:13:15.884Z</time></trkpt><trkpt lat="42.6488333" lon="-8.9611033"><ele>501.0</ele><time>2026-04-17T09:13:16.883Z</time></trkpt><trkpt lat="42.64892" lon="-8.9609933"><ele>502.0</ele><time>2026-04-17T09:13:17.883Z</time></trkpt><trkpt lat="42.6490267" lon="-8.96089"><ele>503.0</ele><time>2026-04-17T09:13:18.884Z</time></trkpt><trkpt lat="42.6491167" lon="-8.9608067"><ele>504.59999999999997</ele><time>2026-04-17T09:13:19.885Z</time></trkpt><trkpt lat="42.6492033" lon="-8.9607317"><ele>506.19999999999993</ele><time>2026-04-17T09:13:20.884Z</time></trkpt><trkpt lat="42.6492867" lon="-8.9606683"><ele>507.8</ele><time>2026-04-17T09:13:21.885Z</time></trkpt><trkpt lat="42.6493683" lon="-8.96061"><ele>509.4</ele><time>2026-04-17T09:13:22.885Z</time></trkpt><trkpt lat="42.6494517" lon="-8.9605517"><ele>511.0</ele><time>2026-04-17T09:13:23.884Z</time></trkpt><trkpt lat="42.6495267" lon="-8.9604933"><ele>511.00000000000006</ele><time>2026-04-17T09:13:24.885Z</time></trkpt><trkpt lat="42.6495983" lon="-8.9604333"><ele>511.0</ele><time>2026-04-17T09:13:25.885Z</time></trkpt><trkpt lat="42.6496683" lon="-8.9603717"><ele>511.0</ele><time>2026-04-17T09:13:26.885Z</time></trkpt><trkpt lat="42.6497383" lon="-8.9603117"><ele>511.0</ele><time>2026-04-17T09:13:27.885Z</time></trkpt><trkpt lat="42.6498033" lon="-8.960255"><ele>511.00000000000006</ele><time>2026-04-17T09:13:28.884Z</time></trkpt><trkpt lat="42.6498733" lon="-8.9602067"><ele>511.0</ele><time>2026-04-17T09:13:29.885Z</time></trkpt><trkpt lat="42.6499583" lon="-8.9601583"><ele>511.00000000000006</ele><time>2026-04-17T09:13:30.884Z</time></trkpt><trkpt lat="42.6500383" lon="-8.9601083"><ele>511.0</ele><time>2026-04-17T09:13:31.885Z</time></trkpt><trkpt lat="42.65011" lon="-8.9600567"><ele>511.0</ele><time>2026-04-17T09:13:32.885Z</time></trkpt><trkpt lat="42.65018" lon="-8.9600033"><ele>511.0</ele><time>2026-04-17T09:13:33.884Z</time></trkpt><trkpt lat="42.6502567" lon="-8.95995"><ele>511.00000000000006</ele><time>2026-04-17T09:13:34.884Z</time></trkpt><trkpt lat="42.65033" lon="-8.9598917"><ele>511.0</ele><time>2026-04-17T09:13:35.884Z</time></trkpt><trkpt lat="42.6504067" lon="-8.959825"><ele>512.0</ele><time>2026-04-17T09:13:36.885Z</time></trkpt><trkpt lat="42.6504883" lon="-8.9597583"><ele>513.0</ele><time>2026-04-17T09:13:37.884Z</time></trkpt><trkpt lat="42.6505683" lon="-8.9597"><ele>514.0</ele><time>2026-04-17T09:13:38.884Z</time></trkpt><trkpt lat="42.6506383" lon="-8.9596467"><ele>515.0</ele><time>2026-04-17T09:13:39.884Z</time></trkpt><trkpt lat="42.650705" lon="-8.9595783"><ele>516.0</ele><time>2026-04-17T09:13:40.884Z</time></trkpt><trkpt lat="42.6507717" lon="-8.9595033"><ele>517.0</ele><time>2026-04-17T09:13:41.884Z</time></trkpt><trkpt lat="42.650845" lon="-8.9594217"><ele>517.0</ele><time>2026-04-17T09:13:42.885Z</time></trkpt><trkpt lat="42.6509217" lon="-8.9593267"><ele>517.0</ele><time>2026-04-17T09:13:43.885Z</time></trkpt><trkpt lat="42.6509967" lon="-8.9592283"><ele>517.0</ele><time>2026-04-17T09:13:44.885Z</time></trkpt><trkpt lat="42.6510633" lon="-8.9591267"><ele>517.0</ele><time>2026-04-17T09:13:45.884Z</time></trkpt><trkpt lat="42.651135" lon="-8.9590183"><ele>517.0</ele><time>2026-04-17T09:13:46.885Z</time></trkpt><trkpt lat="42.6512" lon="-8.95891"><ele>517.4</ele><time>2026-04-17T09:13:47.885Z</time></trkpt><trkpt lat="42.65126" lon="-8.9588"><ele>517.8000000000001</ele><time>2026-04-17T09:13:48.885Z</time></trkpt><trkpt lat="42.651305" lon="-8.9586733"><ele>518.2</ele><time>2026-04-17T09:13:49.885Z</time></trkpt><trkpt lat="42.6513667" lon="-8.9585567"><ele>518.6</ele><time>2026-04-17T09:13:50.885Z</time></trkpt><trkpt lat="42.65141" lon="-8.9584217"><ele>519.0</ele><time>2026-04-17T09:13:51.884Z</time></trkpt><trkpt lat="42.651445" lon="-8.95828"><ele>520.6</ele><time>2026-04-17T09:13:52.885Z</time></trkpt><trkpt lat="42.6514783" lon="-8.9581467"><ele>522.2</ele><time>2026-04-17T09:13:53.884Z</time></trkpt><trkpt lat="42.6515117" lon="-8.9580167"><ele>523.8000000000001</ele><time>2026-04-17T09:13:54.885Z</time></trkpt><trkpt lat="42.651555" lon="-8.9578883"><ele>525.4</ele><time>2026-04-17T09:13:55.884Z</time></trkpt><trkpt lat="42.6515883" lon="-8.9577633"><ele>527.0</ele><time>2026-04-17T09:13:56.884Z</time></trkpt><trkpt lat="42.65163" lon="-8.9576483"><ele>529.4</ele><time>2026-04-17T09:13:57.884Z</time></trkpt><trkpt lat="42.6516633" lon="-8.957535"><ele>531.8000000000001</ele><time>2026-04-17T09:13:58.885Z</time></trkpt><trkpt lat="42.6516967" lon="-8.9574167"><ele>534.2</ele><time>2026-04-17T09:13:59.885Z</time></trkpt><trkpt lat="42.6517267" lon="-8.957305"><ele>536.6</ele><time>2026-04-17T09:14:00.885Z</time></trkpt><trkpt lat="42.651765" lon="-8.9571867"><ele>539.0</ele><time>2026-04-17T09:14:01.885Z</time></trkpt><trkpt lat="42.6518117" lon="-8.9570667"><ele>539.0</ele><time>2026-04-17T09:14:02.885Z</time></trkpt><trkpt lat="42.651855" lon="-8.9569417"><ele>539.0</ele><time>2026-04-17T09:14:03.885Z</time></trkpt><trkpt lat="42.6518983" lon="-8.9568217"><ele>539.0</ele><time>2026-04-17T09:14:04.885Z</time></trkpt><trkpt lat="42.6519267" lon="-8.9567117"><ele>539.0</ele><time>2026-04-17T09:14:05.884Z</time></trkpt><trkpt lat="42.651955" lon="-8.95659"><ele>539.0</ele><time>2026-04-17T09:14:06.884Z</time></trkpt><trkpt lat="42.6519833" lon="-8.9564633"><ele>538.2</ele><time>2026-04-17T09:14:07.885Z</time></trkpt><trkpt lat="42.652015" lon="-8.95633"><ele>537.4</ele><time>2026-04-17T09:14:08.884Z</time></trkpt><trkpt lat="42.6520433" lon="-8.9561933"><ele>536.6</ele><time>2026-04-17T09:14:09.885Z</time></trkpt><trkpt lat="42.652065" lon="-8.9560617"><ele>535.8</ele><time>2026-04-17T09:14:10.884Z</time></trkpt><trkpt lat="42.6521083" lon="-8.95594"><ele>535.0</ele><time>2026-04-17T09:14:11.885Z</time></trkpt><trkpt lat="42.652125" lon="-8.955825"><ele>535.0</ele><time>2026-04-17T09:14:12.885Z</time></trkpt><trkpt lat="42.6521433" lon="-8.9557133"><ele>535.0</ele><time>2026-04-17T09:14:13.884Z</time></trkpt><trkpt lat="42.652165" lon="-8.9555983"><ele>535.0</ele><time>2026-04-17T09:14:14.884Z</time></trkpt><trkpt lat="42.6521867" lon="-8.955495"><ele>535.0</ele><time>2026-04-17T09:14:15.884Z</time></trkpt><trkpt lat="42.6522083" lon="-8.95538"><ele>535.0</ele><time>2026-04-17T09:14:16.884Z</time></trkpt><trkpt lat="42.6522367" lon="-8.955255"><ele>535.0</ele><time>2026-04-17T09:14:17.885Z</time></trkpt><trkpt lat="42.6522683" lon="-8.95516"><ele>535.0</ele><time>2026-04-17T09:14:18.885Z</time></trkpt><trkpt lat="42.6522917" lon="-8.955045"><ele>535.0</ele><time>2026-04-17T09:14:19.884Z</time></trkpt><trkpt lat="42.6523133" lon="-8.95493"><ele>535.0</ele><time>2026-04-17T09:14:20.885Z</time></trkpt><trkpt lat="42.6523367" lon="-8.9548233"><ele>535.0</ele><time>2026-04-17T09:14:21.885Z</time></trkpt><trkpt lat="42.6523683" lon="-8.954715"><ele>535.0</ele><time>2026-04-17T09:14:22.884Z</time></trkpt><trkpt lat="42.6524017" lon="-8.9545967"><ele>535.0</ele><time>2026-04-17T09:14:23.885Z</time></trkpt><trkpt lat="42.6524267" lon="-8.9544717"><ele>535.5</ele><time>2026-04-17T09:14:24.884Z</time></trkpt><trkpt lat="42.6524433" lon="-8.9543483"><ele>536.0</ele><time>2026-04-17T09:14:25.885Z</time></trkpt><trkpt lat="42.652465" lon="-8.9542317"><ele>536.5</ele><time>2026-04-17T09:14:26.885Z</time></trkpt><trkpt lat="42.652485" lon="-8.9541217"><ele>537.0</ele><time>2026-04-17T09:14:27.884Z</time></trkpt><trkpt lat="42.6525067" lon="-8.9540117"><ele>537.5</ele><time>2026-04-17T09:14:28.884Z</time></trkpt><trkpt lat="42.6525283" lon="-8.9538983"><ele>538.0</ele><time>2026-04-17T09:14:29.884Z</time></trkpt><trkpt lat="42.6525617" lon="-8.9538033"><ele>538.0</ele><time>2026-04-17T09:14:30.884Z</time></trkpt><trkpt lat="42.6526033" lon="-8.953725"><ele>538.0</ele><time>2026-04-17T09:14:31.884Z</time></trkpt><trkpt lat="42.6526517" lon="-8.9536533"><ele>538.0</ele><time>2026-04-17T09:14:32.884Z</time></trkpt><trkpt lat="42.65271" lon="-8.9535867"><ele>538.0</ele><time>2026-04-17T09:14:33.884Z</time></trkpt><trkpt lat="42.6527783" lon="-8.95352"><ele>538.0</ele><time>2026-04-17T09:14:34.884Z</time></trkpt><trkpt lat="42.6528567" lon="-8.953445"><ele>538.0</ele><time>2026-04-17T09:14:35.885Z</time></trkpt><trkpt lat="42.65293" lon="-8.95337"><ele>536.8333333333334</ele><time>2026-04-17T09:14:36.885Z</time></trkpt><trkpt lat="42.6530017" lon="-8.9533033"><ele>535.6666666666667</ele><time>2026-04-17T09:14:37.884Z</time></trkpt><trkpt lat="42.653075" lon="-8.9532417"><ele>534.5</ele><time>2026-04-17T09:14:38.884Z</time></trkpt><trkpt lat="42.6531433" lon="-8.9531883"><ele>533.3333333333334</ele><time>2026-04-17T09:14:39.884Z</time></trkpt><trkpt lat="42.6532067" lon="-8.953125"><ele>532.1666666666666</ele><time>2026-04-17T09:14:40.885Z</time></trkpt><trkpt lat="42.6532733" lon="-8.9530583"><ele>531.0</ele><time>2026-04-17T09:14:41.884Z</time></trkpt><trkpt lat="42.6533483" lon="-8.9529917"><ele>531.0</ele><time>2026-04-17T09:14:42.885Z</time></trkpt><trkpt lat="42.6534217" lon="-8.95294"><ele>531.0</ele><time>2026-04-17T09:14:43.884Z</time></trkpt><trkpt lat="42.6535017" lon="-8.952885"><ele>531.0</ele><time>2026-04-17T09:14:44.885Z</time></trkpt><trkpt lat="42.65358" lon="-8.95283"><ele>531.0</ele><time>2026-04-17T09:14:45.884Z</time></trkpt><trkpt lat="42.653645" lon="-8.9527883"><ele>531.0</ele><time>2026-04-17T09:14:46.884Z</time></trkpt><trkpt lat="42.6537083" lon="-8.95275"><ele>531.0</ele><time>2026-04-17T09:14:47.885Z</time></trkpt><trkpt lat="42.6537733" lon="-8.9527167"><ele>531.0</ele><time>2026-04-17T09:14:48.885Z</time></trkpt><trkpt lat="42.6538483" lon="-8.9526883"><ele>531.0</ele><time>2026-04-17T09:14:49.884Z</time></trkpt><trkpt lat="42.6539233" lon="-8.9526467"><ele>531.0</ele><time>2026-04-17T09:14:50.884Z</time></trkpt><trkpt lat="42.6539833" lon="-8.9526033"><ele>531.0</ele><time>2026-04-17T09:14:51.885Z</time></trkpt><trkpt lat="42.6540567" lon="-8.952545"><ele>531.0</ele><time>2026-04-17T09:14:52.884Z</time></trkpt><trkpt lat="42.6541417" lon="-8.9524983"><ele>531.0</ele><time>2026-04-17T09:14:53.884Z</time></trkpt><trkpt lat="42.6542283" lon="-8.9524517"><ele>531.0</ele><time>2026-04-17T09:14:54.884Z</time></trkpt><trkpt lat="42.654325" lon="-8.9523883"><ele>531.0</ele><time>2026-04-17T09:14:55.884Z</time></trkpt><trkpt lat="42.6544133" lon="-8.9523317"><ele>531.0</ele><time>2026-04-17T09:14:56.884Z</time></trkpt><trkpt lat="42.6544883" lon="-8.9522817"><ele>531.0</ele><time>2026-04-17T09:14:57.885Z</time></trkpt><trkpt lat="42.6545733" lon="-8.9522283"><ele>531.0</ele><time>2026-04-17T09:14:58.884Z</time></trkpt><trkpt lat="42.654665" lon="-8.95216"><ele>530.3333333333334</ele><time>2026-04-17T09:14:59.884Z</time></trkpt><trkpt lat="42.6547433" lon="-8.9521083"><ele>529.6666666666666</ele><time>2026-04-17T09:15:00.884Z</time></trkpt><trkpt lat="42.65483" lon="-8.9520617"><ele>529.0</ele><time>2026-04-17T09:15:01.885Z</time></trkpt><trkpt lat="42.6549117" lon="-8.95203"><ele>528.3333333333333</ele><time>2026-04-17T09:15:02.884Z</time></trkpt><trkpt lat="42.65499" lon="-8.952025"><ele>527.6666666666666</ele><time>2026-04-17T09:15:03.884Z</time></trkpt><trkpt lat="42.6550733" lon="-8.9520367"><ele>527.0</ele><time>2026-04-17T09:15:04.884Z</time></trkpt><trkpt lat="42.6551733" lon="-8.95206"><ele>527.0</ele><time>2026-04-17T09:15:05.885Z</time></trkpt><trkpt lat="42.6552667" lon="-8.9520967"><ele>527.0</ele><time>2026-04-17T09:15:06.884Z</time></trkpt><trkpt lat="42.6553617" lon="-8.9521233"><ele>527.0</ele><time>2026-04-17T09:15:07.885Z</time></trkpt><trkpt lat="42.6554517" lon="-8.9521283"><ele>527.0</ele><time>2026-04-17T09:15:08.884Z</time></trkpt><trkpt lat="42.6555367" lon="-8.9520867"><ele>527.0</ele><time>2026-04-17T09:15:09.884Z</time></trkpt><trkpt lat="42.6556117" lon="-8.952025"><ele>527.4</ele><time>2026-04-17T09:15:10.884Z</time></trkpt><trkpt lat="42.6556817" lon="-8.9519417"><ele>527.8000000000001</ele><time>2026-04-17T09:15:11.884Z</time></trkpt><trkpt lat="42.6557417" lon="-8.951835"><ele>528.2</ele><time>2026-04-17T09:15:12.884Z</time></trkpt><trkpt lat="42.6558017" lon="-8.951735"><ele>528.6</ele><time>2026-04-17T09:15:13.884Z</time></trkpt><trkpt lat="42.655865" lon="-8.9516417"><ele>529.0</ele><time>2026-04-17T09:15:14.884Z</time></trkpt><trkpt lat="42.65594" lon="-8.9515617"><ele>529.6</ele><time>2026-04-17T09:15:15.884Z</time></trkpt><trkpt lat="42.65601" lon="-8.9514867"><ele>530.2</ele><time>2026-04-17T09:15:16.884Z</time></trkpt><trkpt lat="42.65609" lon="-8.951425"><ele>530.8000000000001</ele><time>2026-04-17T09:15:17.885Z</time></trkpt><trkpt lat="42.6561767" lon="-8.9513517"><ele>531.4</ele><time>2026-04-17T09:15:18.885Z</time></trkpt><trkpt lat="42.6562717" lon="-8.95128"><ele>532.0</ele><time>2026-04-17T09:15:19.885Z</time></trkpt><trkpt lat="42.6563617" lon="-8.95122"><ele>532.1666666666667</ele><time>2026-04-17T09:15:20.884Z</time></trkpt><trkpt lat="42.6564417" lon="-8.951165"><ele>532.3333333333334</ele><time>2026-04-17T09:15:21.885Z</time></trkpt><trkpt lat="42.6565133" lon="-8.951125"><ele>532.5</ele><time>2026-04-17T09:15:22.884Z</time></trkpt><trkpt lat="42.656595" lon="-8.951095"><ele>532.6666666666666</ele><time>2026-04-17T09:15:23.884Z</time></trkpt><trkpt lat="42.656675" lon="-8.9510717"><ele>532.8333333333333</ele><time>2026-04-17T09:15:24.884Z</time></trkpt><trkpt lat="42.65675" lon="-8.9510483"><ele>533.0</ele><time>2026-04-17T09:15:25.884Z</time></trkpt><trkpt lat="42.6568217" lon="-8.9510317"><ele>533.0</ele><time>2026-04-17T09:15:26.885Z</time></trkpt><trkpt lat="42.6568933" lon="-8.9510167"><ele>533.0</ele><time>2026-04-17T09:15:27.884Z</time></trkpt><trkpt lat="42.6569733" lon="-8.951005"><ele>533.0</ele><time>2026-04-17T09:15:28.884Z</time></trkpt><trkpt lat="42.6570767" lon="-8.951025"><ele>533.0</ele><time>2026-04-17T09:15:29.884Z</time></trkpt><trkpt lat="42.657205" lon="-8.95107"><ele>533.0</ele><time>2026-04-17T09:15:30.885Z</time></trkpt><trkpt lat="42.657355" lon="-8.9511417"><ele>534.0</ele><time>2026-04-17T09:15:31.884Z</time></trkpt><trkpt lat="42.657525" lon="-8.9512367"><ele>535.0</ele><time>2026-04-17T09:15:32.885Z</time></trkpt><trkpt lat="42.657725" lon="-8.9513267"><ele>536.0</ele><time>2026-04-17T09:15:33.884Z</time></trkpt><trkpt lat="42.6579317" lon="-8.9513967"><ele>537.3333333333333</ele><time>2026-04-17T09:15:34.885Z</time></trkpt><trkpt lat="42.658135" lon="-8.9514483"><ele>538.6666666666666</ele><time>2026-04-17T09:15:35.884Z</time></trkpt><trkpt lat="42.6583383" lon="-8.951495"><ele>540.0</ele><time>2026-04-17T09:15:36.885Z</time></trkpt><trkpt lat="42.65854" lon="-8.9515083"><ele>541.6666666666666</ele><time>2026-04-17T09:15:37.885Z</time></trkpt><trkpt lat="42.658745" lon="-8.9515233"><ele>543.3333333333333</ele><time>2026-04-17T09:15:38.884Z</time></trkpt><trkpt lat="42.6589283" lon="-8.95155"><ele>545.0</ele><time>2026-04-17T09:15:39.884Z</time></trkpt><trkpt lat="42.659085" lon="-8.9515917"><ele>545.0</ele><time>2026-04-17T09:15:40.884Z</time></trkpt><trkpt lat="42.6592217" lon="-8.951645"><ele>545.0</ele><time>2026-04-17T09:15:41.884Z</time></trkpt><trkpt lat="42.65935" lon="-8.951755"><ele>545.0</ele><time>2026-04-17T09:15:42.885Z</time></trkpt><trkpt lat="42.659475" lon="-8.9518933"><ele>545.0</ele><time>2026-04-17T09:15:43.884Z</time></trkpt><trkpt lat="42.659615" lon="-8.95206"><ele>545.0</ele><time>2026-04-17T09:15:44.885Z</time></trkpt><trkpt lat="42.6597367" lon="-8.95224"><ele>545.0</ele><time>2026-04-17T09:15:45.885Z</time></trkpt><trkpt lat="42.659845" lon="-8.9524583"><ele>548.6666666666666</ele><time>2026-04-17T09:15:46.884Z</time></trkpt><trkpt lat="42.65995" lon="-8.9526433"><ele>552.3333333333334</ele><time>2026-04-17T09:15:47.884Z</time></trkpt><trkpt lat="42.660065" lon="-8.9527867"><ele>556.0</ele><time>2026-04-17T09:15:48.885Z</time></trkpt><trkpt lat="42.660185" lon="-8.9528867"><ele>555.5</ele><time>2026-04-17T09:15:49.884Z</time></trkpt><trkpt lat="42.6603167" lon="-8.9529517"><ele>555.0</ele><time>2026-04-17T09:15:50.885Z</time></trkpt><trkpt lat="42.66043" lon="-8.9529333"><ele>554.5</ele><time>2026-04-17T09:15:51.885Z</time></trkpt><trkpt lat="42.66054" lon="-8.9528767"><ele>554.0</ele><time>2026-04-17T09:15:52.884Z</time></trkpt><trkpt lat="42.660665" lon="-8.9527867"><ele>554.0</ele><time>2026-04-17T09:15:53.885Z</time></trkpt><trkpt lat="42.6607933" lon="-8.9526867"><ele>554.0</ele><time>2026-04-17T09:15:54.884Z</time></trkpt><trkpt lat="42.6609283" lon="-8.95263"><ele>554.0</ele><time>2026-04-17T09:15:55.885Z</time></trkpt><trkpt lat="42.6610667" lon="-8.9526017"><ele>554.0</ele><time>2026-04-17T09:15:56.884Z</time></trkpt><trkpt lat="42.6612183" lon="-8.9525917"><ele>553.3333333333333</ele><time>2026-04-17T09:15:57.884Z</time></trkpt><trkpt lat="42.6613767" lon="-8.9525833"><ele>552.6666666666666</ele><time>2026-04-17T09:15:58.884Z</time></trkpt><trkpt lat="42.6615383" lon="-8.9525817"><ele>552.0</ele><time>2026-04-17T09:15:59.885Z</time></trkpt><trkpt lat="42.661705" lon="-8.9525733"><ele>552.0</ele><time>2026-04-17T09:16:00.884Z</time></trkpt><trkpt lat="42.6618733" lon="-8.95258"><ele>552.0</ele><time>2026-04-17T09:16:01.885Z</time></trkpt><trkpt lat="42.6620367" lon="-8.952585"><ele>552.0</ele><time>2026-04-17T09:16:02.885Z</time></trkpt><trkpt lat="42.6621983" lon="-8.9525867"><ele>551.0</ele><time>2026-04-17T09:16:03.885Z</time></trkpt><trkpt lat="42.6623533" lon="-8.9525817"><ele>550.0</ele><time>2026-04-17T09:16:04.885Z</time></trkpt><trkpt lat="42.6624883" lon="-8.95257"><ele>549.0</ele><time>2026-04-17T09:16:05.885Z</time></trkpt><trkpt lat="42.6626033" lon="-8.9525583"><ele>548.0</ele><time>2026-04-17T09:16:06.884Z</time></trkpt><trkpt lat="42.6626867" lon="-8.952555"><ele>548.0</ele><time>2026-04-17T09:16:07.885Z</time></trkpt><trkpt lat="42.6627517" lon="-8.9525667"><ele>548.0</ele><time>2026-04-17T09:16:08.884Z</time></trkpt><trkpt lat="42.6628167" lon="-8.9525717"><ele>548.0</ele><time>2026-04-17T09:16:10.884Z</time></trkpt><trkpt lat="42.66288" lon="-8.9525817"><ele>548.0</ele><time>2026-04-17T09:19:31.885Z</time></trkpt><trkpt lat="42.6629933" lon="-8.9525967"><ele>548.0</ele><time>2026-04-17T09:19:32.886Z</time></trkpt><trkpt lat="42.6631417" lon="-8.9526183"><ele>546.25</ele><time>2026-04-17T09:19:33.886Z</time></trkpt><trkpt lat="42.6632933" lon="-8.95263"><ele>544.5</ele><time>2026-04-17T09:19:34.885Z</time></trkpt><trkpt lat="42.6634317" lon="-8.9526233"><ele>542.75</ele><time>2026-04-17T09:19:35.885Z</time></trkpt><trkpt lat="42.66353" lon="-8.9525833"><ele>541.0</ele><time>2026-04-17T09:19:36.885Z</time></trkpt><trkpt lat="42.6636117" lon="-8.9525067"><ele>540.4</ele><time>2026-04-17T09:19:37.885Z</time></trkpt><trkpt lat="42.6636667" lon="-8.9524"><ele>539.8</ele><time>2026-04-17T09:19:38.886Z</time></trkpt><trkpt lat="42.6637017" lon="-8.952255"><ele>539.1999999999999</ele><time>2026-04-17T09:19:39.886Z</time></trkpt><trkpt lat="42.6637283" lon="-8.9521117"><ele>538.6</ele><time>2026-04-17T09:19:40.886Z</time></trkpt><trkpt lat="42.6637467" lon="-8.9519683"><ele>538.0</ele><time>2026-04-17T09:19:41.886Z</time></trkpt><trkpt lat="42.6637683" lon="-8.9518233"><ele>535.75</ele><time>2026-04-17T09:19:42.885Z</time></trkpt><trkpt lat="42.6638017" lon="-8.9516817"><ele>533.5</ele><time>2026-04-17T09:19:43.886Z</time></trkpt><trkpt lat="42.6638383" lon="-8.9515417"><ele>531.25</ele><time>2026-04-17T09:19:44.885Z</time></trkpt><trkpt lat="42.6638667" lon="-8.951395"><ele>529.0</ele><time>2026-04-17T09:19:45.885Z</time></trkpt><trkpt lat="42.6638983" lon="-8.951225"><ele>529.0</ele><time>2026-04-17T09:19:46.885Z</time></trkpt><trkpt lat="42.6639267" lon="-8.9510533"><ele>529.0</ele><time>2026-04-17T09:19:47.885Z</time></trkpt><trkpt lat="42.66396" lon="-8.9508717"><ele>529.0</ele><time>2026-04-17T09:19:48.885Z</time></trkpt><trkpt lat="42.6639817" lon="-8.9507017"><ele>529.0</ele><time>2026-04-17T09:19:49.885Z</time></trkpt><trkpt lat="42.6639817" lon="-8.95053"><ele>526.5</ele><time>2026-04-17T09:19:50.886Z</time></trkpt><trkpt lat="42.6639583" lon="-8.9503583"><ele>524.0</ele><time>2026-04-17T09:19:51.885Z</time></trkpt><trkpt lat="42.6639" lon="-8.9502017"><ele>521.5</ele><time>2026-04-17T09:19:52.885Z</time></trkpt><trkpt lat="42.663825" lon="-8.9500533"><ele>519.0</ele><time>2026-04-17T09:19:53.885Z</time></trkpt><trkpt lat="42.66374" lon="-8.9499033"><ele>518.5</ele><time>2026-04-17T09:19:54.886Z</time></trkpt><trkpt lat="42.66366" lon="-8.9497533"><ele>518.0</ele><time>2026-04-17T09:19:55.885Z</time></trkpt><trkpt lat="42.66359" lon="-8.9495883"><ele>517.5</ele><time>2026-04-17T09:19:56.885Z</time></trkpt><trkpt lat="42.6635333" lon="-8.9494033"><ele>517.0</ele><time>2026-04-17T09:19:57.885Z</time></trkpt><trkpt lat="42.6634933" lon="-8.949185"><ele>515.3333333333334</ele><time>2026-04-17T09:19:58.886Z</time></trkpt><trkpt lat="42.663465" lon="-8.94896"><ele>513.6666666666666</ele><time>2026-04-17T09:19:59.885Z</time></trkpt><trkpt lat="42.66344" lon="-8.94873"><ele>512.0</ele><time>2026-04-17T09:20:00.885Z</time></trkpt><trkpt lat="42.6634383" lon="-8.9485"><ele>510.0</ele><time>2026-04-17T09:20:01.885Z</time></trkpt><trkpt lat="42.6634567" lon="-8.9482817"><ele>508.0</ele><time>2026-04-17T09:20:02.886Z</time></trkpt><trkpt lat="42.663495" lon="-8.9480567"><ele>506.0</ele><time>2026-04-17T09:20:03.885Z</time></trkpt><trkpt lat="42.6635483" lon="-8.9478283"><ele>507.3333333333333</ele><time>2026-04-17T09:20:04.885Z</time></trkpt><trkpt lat="42.663625" lon="-8.947605"><ele>508.66666666666663</ele><time>2026-04-17T09:20:05.885Z</time></trkpt><trkpt lat="42.6637" lon="-8.947385"><ele>510.0</ele><time>2026-04-17T09:20:06.886Z</time></trkpt><trkpt lat="42.6637617" lon="-8.94718"><ele>506.66666666666663</ele><time>2026-04-17T09:20:07.886Z</time></trkpt><trkpt lat="42.6637917" lon="-8.946985"><ele>503.3333333333333</ele><time>2026-04-17T09:20:08.886Z</time></trkpt><trkpt lat="42.6638033" lon="-8.9467867"><ele>500.0</ele><time>2026-04-17T09:20:09.885Z</time></trkpt><trkpt lat="42.663805" lon="-8.946565"><ele>497.0</ele><time>2026-04-17T09:20:10.885Z</time></trkpt><trkpt lat="42.6638133" lon="-8.94634"><ele>494.0</ele><time>2026-04-17T09:20:11.885Z</time></trkpt><trkpt lat="42.663835" lon="-8.94614"><ele>491.0</ele><time>2026-04-17T09:20:12.885Z</time></trkpt><trkpt lat="42.6638833" lon="-8.945955"><ele>490.5</ele><time>2026-04-17T09:20:13.886Z</time></trkpt><trkpt lat="42.6638983" lon="-8.945795"><ele>490.0</ele><time>2026-04-17T09:20:14.885Z</time></trkpt><trkpt lat="42.6638667" lon="-8.9456617"><ele>489.5</ele><time>2026-04-17T09:20:15.885Z</time></trkpt><trkpt lat="42.6638083" lon="-8.9455233"><ele>489.0</ele><time>2026-04-17T09:20:16.886Z</time></trkpt><trkpt lat="42.6637367" lon="-8.9453567"><ele>489.0</ele><time>2026-04-17T09:20:17.885Z</time></trkpt><trkpt lat="42.6636517" lon="-8.9451533"><ele>489.0</ele><time>2026-04-17T09:20:18.885Z</time></trkpt><trkpt lat="42.6635733" lon="-8.9449267"><ele>489.0</ele><time>2026-04-17T09:20:19.886Z</time></trkpt><trkpt lat="42.663485" lon="-8.9446933"><ele>490.33333333333337</ele><time>2026-04-17T09:20:20.885Z</time></trkpt><trkpt lat="42.6634067" lon="-8.9444717"><ele>491.6666666666667</ele><time>2026-04-17T09:20:21.885Z</time></trkpt><trkpt lat="42.66331" lon="-8.9442733"><ele>493.0</ele><time>2026-04-17T09:20:22.886Z</time></trkpt><trkpt lat="42.663195" lon="-8.9440917"><ele>490.0</ele><time>2026-04-17T09:20:23.886Z</time></trkpt><trkpt lat="42.66307" lon="-8.9439367"><ele>487.0</ele><time>2026-04-17T09:20:24.886Z</time></trkpt><trkpt lat="42.6629283" lon="-8.9438067"><ele>484.0</ele><time>2026-04-17T09:20:25.886Z</time></trkpt><trkpt lat="42.662785" lon="-8.9437067"><ele>484.5</ele><time>2026-04-17T09:20:26.885Z</time></trkpt><trkpt lat="42.66265" lon="-8.9436167"><ele>485.0</ele><time>2026-04-17T09:20:27.885Z</time></trkpt><trkpt lat="42.6625617" lon="-8.94352"><ele>485.5</ele><time>2026-04-17T09:20:28.886Z</time></trkpt><trkpt lat="42.6624967" lon="-8.9434083"><ele>486.0</ele><time>2026-04-17T09:20:29.886Z</time></trkpt><trkpt lat="42.6624433" lon="-8.9432467"><ele>484.75</ele><time>2026-04-17T09:20:30.886Z</time></trkpt><trkpt lat="42.6623817" lon="-8.9430883"><ele>483.5</ele><time>2026-04-17T09:20:31.886Z</time></trkpt><trkpt lat="42.6622917" lon="-8.9429567"><ele>482.25</ele><time>2026-04-17T09:20:32.885Z</time></trkpt><trkpt lat="42.6621767" lon="-8.942855"><ele>481.0</ele><time>2026-04-17T09:20:33.885Z</time></trkpt><trkpt lat="42.66203" lon="-8.94279"><ele>481.33333333333337</ele><time>2026-04-17T09:20:34.886Z</time></trkpt><trkpt lat="42.6618617" lon="-8.9427133"><ele>481.66666666666663</ele><time>2026-04-17T09:20:35.886Z</time></trkpt><trkpt lat="42.661685" lon="-8.9426383"><ele>482.0</ele><time>2026-04-17T09:20:36.886Z</time></trkpt><trkpt lat="42.66153" lon="-8.9425517"><ele>483.40000000000003</ele><time>2026-04-17T09:20:37.885Z</time></trkpt><trkpt lat="42.6614067" lon="-8.9424567"><ele>484.80000000000007</ele><time>2026-04-17T09:20:38.886Z</time></trkpt><trkpt lat="42.66132" lon="-8.9423583"><ele>486.2</ele><time>2026-04-17T09:20:39.885Z</time></trkpt><trkpt lat="42.6612467" lon="-8.9422767"><ele>487.6</ele><time>2026-04-17T09:20:40.885Z</time></trkpt><trkpt lat="42.6611867" lon="-8.94224"><ele>489.0</ele><time>2026-04-17T09:20:41.885Z</time></trkpt><trkpt lat="42.66108" lon="-8.9422517"><ele>489.4</ele><time>2026-04-17T09:20:43.886Z</time></trkpt><trkpt lat="42.6610167" lon="-8.9422967"><ele>489.79999999999995</ele><time>2026-04-17T09:20:44.885Z</time></trkpt><trkpt lat="42.660955" lon="-8.9423567"><ele>490.20000000000005</ele><time>2026-04-17T09:20:45.885Z</time></trkpt><trkpt lat="42.66088" lon="-8.942415"><ele>490.6</ele><time>2026-04-17T09:20:46.886Z</time></trkpt><trkpt lat="42.6607883" lon="-8.9424933"><ele>491.0</ele><time>2026-04-17T09:20:47.886Z</time></trkpt><trkpt lat="42.66067" lon="-8.9425867"><ele>491.3333333333333</ele><time>2026-04-17T09:20:48.885Z</time></trkpt><trkpt lat="42.66053" lon="-8.9426767"><ele>491.66666666666663</ele><time>2026-04-17T09:20:49.886Z</time></trkpt><trkpt lat="42.6603733" lon="-8.94276"><ele>492.0</ele><time>2026-04-17T09:20:50.885Z</time></trkpt><trkpt lat="42.66021" lon="-8.9428267"><ele>492.0</ele><time>2026-04-17T09:20:51.886Z</time></trkpt><trkpt lat="42.6600617" lon="-8.9428433"><ele>492.0</ele><time>2026-04-17T09:20:52.886Z</time></trkpt><trkpt lat="42.6599017" lon="-8.9428333"><ele>492.0</ele><time>2026-04-17T09:20:53.886Z</time></trkpt><trkpt lat="42.659715" lon="-8.94281"><ele>492.0</ele><time>2026-04-17T09:20:54.885Z</time></trkpt><trkpt lat="42.65951" lon="-8.9427717"><ele>492.0</ele><time>2026-04-17T09:20:55.885Z</time></trkpt><trkpt lat="42.659305" lon="-8.9426933"><ele>492.0</ele><time>2026-04-17T09:20:56.886Z</time></trkpt><trkpt lat="42.6590967" lon="-8.9425933"><ele>495.0</ele><time>2026-04-17T09:20:57.885Z</time></trkpt><trkpt lat="42.6589083" lon="-8.9424883"><ele>498.0</ele><time>2026-04-17T09:20:58.886Z</time></trkpt><trkpt lat="42.658745" lon="-8.9423967"><ele>501.0</ele><time>2026-04-17T09:20:59.886Z</time></trkpt><trkpt lat="42.65859" lon="-8.9423033"><ele>501.33333333333337</ele><time>2026-04-17T09:21:00.885Z</time></trkpt><trkpt lat="42.65841" lon="-8.94219"><ele>501.6666666666667</ele><time>2026-04-17T09:21:01.885Z</time></trkpt><trkpt lat="42.658215" lon="-8.942065"><ele>502.0</ele><time>2026-04-17T09:21:02.885Z</time></trkpt><trkpt lat="42.6579917" lon="-8.9419433"><ele>497.5</ele><time>2026-04-17T09:21:03.886Z</time></trkpt><trkpt lat="42.657755" lon="-8.9418317"><ele>493.0</ele><time>2026-04-17T09:21:04.885Z</time></trkpt><trkpt lat="42.657525" lon="-8.941725"><ele>495.6666666666667</ele><time>2026-04-17T09:21:05.886Z</time></trkpt><trkpt lat="42.65731" lon="-8.9416283"><ele>498.33333333333337</ele><time>2026-04-17T09:21:06.886Z</time></trkpt><trkpt lat="42.6570983" lon="-8.9415483"><ele>501.0</ele><time>2026-04-17T09:21:07.885Z</time></trkpt><trkpt lat="42.6568883" lon="-8.94149"><ele>502.33333333333337</ele><time>2026-04-17T09:21:08.885Z</time></trkpt><trkpt lat="42.6566983" lon="-8.9414633"><ele>503.6666666666667</ele><time>2026-04-17T09:21:09.885Z</time></trkpt><trkpt lat="42.65654" lon="-8.9414267"><ele>505.0</ele><time>2026-04-17T09:21:10.886Z</time></trkpt><trkpt lat="42.656395" lon="-8.9413733"><ele>505.0</ele><time>2026-04-17T09:21:11.885Z</time></trkpt><trkpt lat="42.656255" lon="-8.941265"><ele>505.0</ele><time>2026-04-17T09:21:12.885Z</time></trkpt><trkpt lat="42.65613" lon="-8.9411183"><ele>505.0</ele><time>2026-04-17T09:21:13.885Z</time></trkpt><trkpt lat="42.6560167" lon="-8.9410167"><ele>504.2</ele><time>2026-04-17T09:21:14.885Z</time></trkpt><trkpt lat="42.65594" lon="-8.9409783"><ele>503.4</ele><time>2026-04-17T09:21:15.886Z</time></trkpt><trkpt lat="42.6558717" lon="-8.941"><ele>502.6</ele><time>2026-04-17T09:21:16.886Z</time></trkpt><trkpt lat="42.6558017" lon="-8.9410483"><ele>501.8</ele><time>2026-04-17T09:21:17.885Z</time></trkpt><trkpt lat="42.6557117" lon="-8.9411233"><ele>501.0</ele><time>2026-04-17T09:21:18.885Z</time></trkpt><trkpt lat="42.6555967" lon="-8.941185"><ele>501.0</ele><time>2026-04-17T09:21:19.886Z</time></trkpt><trkpt lat="42.6554533" lon="-8.941205"><ele>501.0</ele><time>2026-04-17T09:21:20.885Z</time></trkpt><trkpt lat="42.6553117" lon="-8.941185"><ele>501.0</ele><time>2026-04-17T09:21:21.885Z</time></trkpt><trkpt lat="42.6552017" lon="-8.94113"><ele>501.0</ele><time>2026-04-17T09:21:22.886Z</time></trkpt><trkpt lat="42.655095" lon="-8.9410617"><ele>499.0</ele><time>2026-04-17T09:21:23.885Z</time></trkpt><trkpt lat="42.6550033" lon="-8.9409533"><ele>497.0</ele><time>2026-04-17T09:21:24.885Z</time></trkpt><trkpt lat="42.654945" lon="-8.9408117"><ele>495.0</ele><time>2026-04-17T09:21:25.885Z</time></trkpt><trkpt lat="42.65491" lon="-8.9406417"><ele>493.0</ele><time>2026-04-17T09:21:26.886Z</time></trkpt><trkpt lat="42.65488" lon="-8.94045"><ele>498.0</ele><time>2026-04-17T09:21:27.885Z</time></trkpt><trkpt lat="42.6548233" lon="-8.9402767"><ele>503.0</ele><time>2026-04-17T09:21:28.886Z</time></trkpt><trkpt lat="42.6547283" lon="-8.9401483"><ele>508.0</ele><time>2026-04-17T09:21:29.886Z</time></trkpt><trkpt lat="42.6546" lon="-8.9400233"><ele>513.0</ele><time>2026-04-17T09:21:30.886Z</time></trkpt><trkpt lat="42.654455" lon="-8.9399017"><ele>512.6666666666666</ele><time>2026-04-17T09:21:31.885Z</time></trkpt><trkpt lat="42.6543133" lon="-8.9398183"><ele>512.3333333333333</ele><time>2026-04-17T09:21:32.886Z</time></trkpt><trkpt lat="42.6541533" lon="-8.93978"><ele>512.0</ele><time>2026-04-17T09:21:33.885Z</time></trkpt><trkpt lat="42.6539833" lon="-8.9397883"><ele>512.0</ele><time>2026-04-17T09:21:34.885Z</time></trkpt><trkpt lat="42.6537883" lon="-8.9398483"><ele>512.0</ele><time>2026-04-17T09:21:35.885Z</time></trkpt><trkpt lat="42.6535833" lon="-8.9399083"><ele>512.0</ele><time>2026-04-17T09:21:36.886Z</time></trkpt><trkpt lat="42.6533583" lon="-8.9399983"><ele>503.0</ele><time>2026-04-17T09:21:37.885Z</time></trkpt><trkpt lat="42.6531317" lon="-8.9401067"><ele>494.0</ele><time>2026-04-17T09:21:38.885Z</time></trkpt><trkpt lat="42.652935" lon="-8.940235"><ele>495.0</ele><time>2026-04-17T09:21:39.886Z</time></trkpt><trkpt lat="42.65277" lon="-8.9403567"><ele>496.0</ele><time>2026-04-17T09:21:40.886Z</time></trkpt><trkpt lat="42.65262" lon="-8.94045"><ele>497.0</ele><time>2026-04-17T09:21:41.885Z</time></trkpt><trkpt lat="42.65249" lon="-8.9405183"><ele>497.0</ele><time>2026-04-17T09:21:42.885Z</time></trkpt><trkpt lat="42.6523483" lon="-8.9405483"><ele>497.0</ele><time>2026-04-17T09:21:43.886Z</time></trkpt><trkpt lat="42.652185" lon="-8.94055"><ele>497.0</ele><time>2026-04-17T09:21:44.886Z</time></trkpt><trkpt lat="42.6519967" lon="-8.9405367"><ele>497.3333333333333</ele><time>2026-04-17T09:21:45.886Z</time></trkpt><trkpt lat="42.6517917" lon="-8.9404917"><ele>497.66666666666663</ele><time>2026-04-17T09:21:46.886Z</time></trkpt><trkpt lat="42.6515817" lon="-8.9404417"><ele>498.0</ele><time>2026-04-17T09:21:47.886Z</time></trkpt><trkpt lat="42.6513883" lon="-8.9404083"><ele>498.0</ele><time>2026-04-17T09:21:48.885Z</time></trkpt><trkpt lat="42.6512467" lon="-8.940395"><ele>497.99999999999994</ele><time>2026-04-17T09:21:49.886Z</time></trkpt><trkpt lat="42.6511483" lon="-8.9403917"><ele>497.99999999999994</ele><time>2026-04-17T09:21:50.885Z</time></trkpt><trkpt lat="42.6510617" lon="-8.9404217"><ele>498.0</ele><time>2026-04-17T09:21:52.885Z</time></trkpt><trkpt lat="42.6510083" lon="-8.9405033"><ele>498.0</ele><time>2026-04-17T09:21:55.886Z</time></trkpt><trkpt lat="42.6509433" lon="-8.940535"><ele>498.0</ele><time>2026-04-17T09:21:56.885Z</time></trkpt><trkpt lat="42.6508483" lon="-8.9405833"><ele>498.0</ele><time>2026-04-17T09:21:57.886Z</time></trkpt><trkpt lat="42.65073" lon="-8.9406667"><ele>498.0</ele><time>2026-04-17T09:21:58.886Z</time></trkpt><trkpt lat="42.650585" lon="-8.9407817"><ele>498.0</ele><time>2026-04-17T09:21:59.885Z</time></trkpt><trkpt lat="42.65046" lon="-8.9408733"><ele>495.5</ele><time>2026-04-17T09:22:00.885Z</time></trkpt><trkpt lat="42.6503333" lon="-8.940945"><ele>493.0</ele><time>2026-04-17T09:22:01.885Z</time></trkpt><trkpt lat="42.6502167" lon="-8.9409933"><ele>490.5</ele><time>2026-04-17T09:22:02.885Z</time></trkpt><trkpt lat="42.6501233" lon="-8.9410467"><ele>488.0</ele><time>2026-04-17T09:22:03.886Z</time></trkpt><trkpt lat="42.6500517" lon="-8.9411283"><ele>487.75</ele><time>2026-04-17T09:22:04.885Z</time></trkpt><trkpt lat="42.65" lon="-8.9412517"><ele>487.5</ele><time>2026-04-17T09:22:05.885Z</time></trkpt><trkpt lat="42.6499533" lon="-8.9414433"><ele>487.25</ele><time>2026-04-17T09:22:06.885Z</time></trkpt><trkpt lat="42.6498917" lon="-8.941685"><ele>487.0</ele><time>2026-04-17T09:22:07.885Z</time></trkpt><trkpt lat="42.6498283" lon="-8.94193"><ele>485.25</ele><time>2026-04-17T09:22:08.885Z</time></trkpt><trkpt lat="42.64976" lon="-8.942145"><ele>483.5</ele><time>2026-04-17T09:22:09.885Z</time></trkpt><trkpt lat="42.6496833" lon="-8.9423067"><ele>481.75</ele><time>2026-04-17T09:22:10.885Z</time></trkpt><trkpt lat="42.6496333" lon="-8.9424117"><ele>480.0</ele><time>2026-04-17T09:22:11.885Z</time></trkpt><trkpt lat="42.6495433" lon="-8.9424717"><ele>480.0</ele><time>2026-04-17T09:22:13.886Z</time></trkpt><trkpt lat="42.649475" lon="-8.94247"><ele>480.0</ele><time>2026-04-17T09:22:14.886Z</time></trkpt><trkpt lat="42.6493883" lon="-8.9424817"><ele>480.0</ele><time>2026-04-17T09:22:15.885Z</time></trkpt><trkpt lat="42.64928" lon="-8.9425133"><ele>480.0</ele><time>2026-04-17T09:22:16.885Z</time></trkpt><trkpt lat="42.6491717" lon="-8.942545"><ele>480.0</ele><time>2026-04-17T09:22:17.885Z</time></trkpt><trkpt lat="42.6490633" lon="-8.9425967"><ele>481.0</ele><time>2026-04-17T09:22:18.885Z</time></trkpt><trkpt lat="42.6489667" lon="-8.9426783"><ele>482.0</ele><time>2026-04-17T09:22:19.886Z</time></trkpt><trkpt lat="42.648865" lon="-8.9427867"><ele>483.0</ele><time>2026-04-17T09:22:20.885Z</time></trkpt><trkpt lat="42.6487733" lon="-8.94294"><ele>484.0</ele><time>2026-04-17T09:22:21.886Z</time></trkpt><trkpt lat="42.6486783" lon="-8.9430983"><ele>481.0</ele><time>2026-04-17T09:22:22.885Z</time></trkpt><trkpt lat="42.6485667" lon="-8.943255"><ele>478.0</ele><time>2026-04-17T09:22:23.885Z</time></trkpt><trkpt lat="42.648415" lon="-8.94338"><ele>475.0</ele><time>2026-04-17T09:22:24.885Z</time></trkpt><trkpt lat="42.648255" lon="-8.9434917"><ele>475.0</ele><time>2026-04-17T09:22:25.885Z</time></trkpt><trkpt lat="42.648095" lon="-8.9436433"><ele>475.0</ele><time>2026-04-17T09:22:26.885Z</time></trkpt><trkpt lat="42.6479567" lon="-8.943805"><ele>475.0</ele><time>2026-04-17T09:22:27.885Z</time></trkpt><trkpt lat="42.6478333" lon="-8.9439583"><ele>472.25</ele><time>2026-04-17T09:22:28.886Z</time></trkpt><trkpt lat="42.6477367" lon="-8.94409"><ele>469.5</ele><time>2026-04-17T09:22:29.885Z</time></trkpt><trkpt lat="42.6476717" lon="-8.9442367"><ele>466.75</ele><time>2026-04-17T09:22:30.885Z</time></trkpt><trkpt lat="42.6476417" lon="-8.9444067"><ele>464.0</ele><time>2026-04-17T09:22:31.885Z</time></trkpt><trkpt lat="42.6476117" lon="-8.944585"><ele>464.0</ele><time>2026-04-17T09:22:32.886Z</time></trkpt><trkpt lat="42.6475633" lon="-8.9447617"><ele>464.0</ele><time>2026-04-17T09:22:33.886Z</time></trkpt><trkpt lat="42.647495" lon="-8.9449317"><ele>464.0</ele><time>2026-04-17T09:22:34.886Z</time></trkpt><trkpt lat="42.6474017" lon="-8.9450833"><ele>464.0</ele><time>2026-04-17T09:22:35.886Z</time></trkpt><trkpt lat="42.6473033" lon="-8.9452067"><ele>460.5</ele><time>2026-04-17T09:22:36.885Z</time></trkpt><trkpt lat="42.6471983" lon="-8.9453067"><ele>457.0</ele><time>2026-04-17T09:22:37.885Z</time></trkpt><trkpt lat="42.647075" lon="-8.94538"><ele>453.5</ele><time>2026-04-17T09:22:38.885Z</time></trkpt><trkpt lat="42.6469233" lon="-8.94542"><ele>450.0</ele><time>2026-04-17T09:22:39.885Z</time></trkpt><trkpt lat="42.64677" lon="-8.9454367"><ele>449.4</ele><time>2026-04-17T09:22:40.885Z</time></trkpt><trkpt lat="42.6466333" lon="-8.945455"><ele>448.8</ele><time>2026-04-17T09:22:41.885Z</time></trkpt><trkpt lat="42.646535" lon="-8.9454333"><ele>448.20000000000005</ele><time>2026-04-17T09:22:42.886Z</time></trkpt><trkpt lat="42.64646" lon="-8.94538"><ele>447.6</ele><time>2026-04-17T09:22:43.885Z</time></trkpt><trkpt lat="42.6464" lon="-8.9452833"><ele>447.0</ele><time>2026-04-17T09:22:44.886Z</time></trkpt><trkpt lat="42.646345" lon="-8.94514"><ele>448.25</ele><time>2026-04-17T09:22:45.886Z</time></trkpt><trkpt lat="42.6463117" lon="-8.9449633"><ele>449.5</ele><time>2026-04-17T09:22:46.885Z</time></trkpt><trkpt lat="42.6462783" lon="-8.9447817"><ele>450.75</ele><time>2026-04-17T09:22:47.886Z</time></trkpt><trkpt lat="42.6462617" lon="-8.9446117"><ele>452.0</ele><time>2026-04-17T09:22:48.885Z</time></trkpt><trkpt lat="42.6462483" lon="-8.9444533"><ele>452.0</ele><time>2026-04-17T09:22:49.885Z</time></trkpt><trkpt lat="42.64623" lon="-8.9443167"><ele>452.00000000000006</ele><time>2026-04-17T09:22:50.886Z</time></trkpt><trkpt lat="42.6461983" lon="-8.944195"><ele>452.00000000000006</ele><time>2026-04-17T09:22:51.886Z</time></trkpt><trkpt lat="42.6461383" lon="-8.944115"><ele>452.0</ele><time>2026-04-17T09:22:52.887Z</time></trkpt><trkpt lat="42.6460567" lon="-8.94405"><ele>452.0</ele><time>2026-04-17T09:22:53.887Z</time></trkpt><trkpt lat="42.6459567" lon="-8.9439967"><ele>448.8</ele><time>2026-04-17T09:22:54.887Z</time></trkpt><trkpt lat="42.6458783" lon="-8.943925"><ele>445.6</ele><time>2026-04-17T09:22:55.886Z</time></trkpt><trkpt lat="42.6458367" lon="-8.9438317"><ele>442.40000000000003</ele><time>2026-04-17T09:22:56.886Z</time></trkpt><trkpt lat="42.6458233" lon="-8.9436983"><ele>439.20000000000005</ele><time>2026-04-17T09:22:57.887Z</time></trkpt><trkpt lat="42.6458367" lon="-8.9435317"><ele>436.0</ele><time>2026-04-17T09:22:58.886Z</time></trkpt><trkpt lat="42.6459017" lon="-8.943325"><ele>438.0</ele><time>2026-04-17T09:22:59.886Z</time></trkpt><trkpt lat="42.6459717" lon="-8.9431233"><ele>440.0</ele><time>2026-04-17T09:23:00.886Z</time></trkpt><trkpt lat="42.64605" lon="-8.942925"><ele>442.0</ele><time>2026-04-17T09:23:01.887Z</time></trkpt><trkpt lat="42.6461433" lon="-8.9427383"><ele>442.0</ele><time>2026-04-17T09:23:02.886Z</time></trkpt><trkpt lat="42.6462367" lon="-8.94257"><ele>442.0</ele><time>2026-04-17T09:23:03.887Z</time></trkpt><trkpt lat="42.64632" lon="-8.9424267"><ele>442.0</ele><time>2026-04-17T09:23:04.886Z</time></trkpt><trkpt lat="42.6463883" lon="-8.9422983"><ele>442.0</ele><time>2026-04-17T09:23:05.886Z</time></trkpt><trkpt lat="42.646435" lon="-8.9421767"><ele>439.0</ele><time>2026-04-17T09:23:06.887Z</time></trkpt><trkpt lat="42.64646" lon="-8.9420767"><ele>436.00000000000006</ele><time>2026-04-17T09:23:07.886Z</time></trkpt><trkpt lat="42.64644" lon="-8.9419733"><ele>433.00000000000006</ele><time>2026-04-17T09:23:08.886Z</time></trkpt><trkpt lat="42.6463833" lon="-8.9418767"><ele>430.0</ele><time>2026-04-17T09:23:09.887Z</time></trkpt><trkpt lat="42.646285" lon="-8.941765"><ele>427.0</ele><time>2026-04-17T09:23:10.886Z</time></trkpt><trkpt lat="42.6461533" lon="-8.9416417"><ele>418.0</ele><time>2026-04-17T09:23:11.886Z</time></trkpt><trkpt lat="42.6459933" lon="-8.94156"><ele>409.0</ele><time>2026-04-17T09:23:12.887Z</time></trkpt><trkpt lat="42.645835" lon="-8.9415017"><ele>400.0</ele><time>2026-04-17T09:23:13.886Z</time></trkpt><trkpt lat="42.6456767" lon="-8.9414483"><ele>400.0</ele><time>2026-04-17T09:23:14.886Z</time></trkpt><trkpt lat="42.64552" lon="-8.941385"><ele>400.0</ele><time>2026-04-17T09:23:15.887Z</time></trkpt><trkpt lat="42.6453483" lon="-8.9413317"><ele>400.0</ele><time>2026-04-17T09:23:16.886Z</time></trkpt><trkpt lat="42.64517" lon="-8.9412617"><ele>398.33333333333337</ele><time>2026-04-17T09:23:17.887Z</time></trkpt><trkpt lat="42.645005" lon="-8.94115"><ele>396.66666666666663</ele><time>2026-04-17T09:23:18.886Z</time></trkpt><trkpt lat="42.644845" lon="-8.9409917"><ele>395.0</ele><time>2026-04-17T09:23:19.887Z</time></trkpt><trkpt lat="42.6446967" lon="-8.9408367"><ele>395.0</ele><time>2026-04-17T09:23:20.887Z</time></trkpt><trkpt lat="42.6445583" lon="-8.9406917"><ele>395.0</ele><time>2026-04-17T09:23:21.887Z</time></trkpt><trkpt lat="42.6444517" lon="-8.9405883"><ele>395.0</ele><time>2026-04-17T09:23:22.886Z</time></trkpt><trkpt lat="42.6443483" lon="-8.9404917"><ele>395.0</ele><time>2026-04-17T09:23:23.886Z</time></trkpt><trkpt lat="42.64422" lon="-8.9404467"><ele>388.0</ele><time>2026-04-17T09:23:24.886Z</time></trkpt><trkpt lat="42.644075" lon="-8.9404283"><ele>381.0</ele><time>2026-04-17T09:23:25.886Z</time></trkpt><trkpt lat="42.643945" lon="-8.9403867"><ele>374.0</ele><time>2026-04-17T09:23:26.886Z</time></trkpt><trkpt lat="42.6438017" lon="-8.940325"><ele>367.0</ele><time>2026-04-17T09:23:27.886Z</time></trkpt><trkpt lat="42.64367" lon="-8.94025"><ele>367.0</ele><time>2026-04-17T09:23:28.887Z</time></trkpt><trkpt lat="42.64354" lon="-8.9401817"><ele>367.0</ele><time>2026-04-17T09:23:29.886Z</time></trkpt><trkpt lat="42.6434167" lon="-8.940115"><ele>367.0</ele><time>2026-04-17T09:23:30.886Z</time></trkpt><trkpt lat="42.6433067" lon="-8.94005"><ele>367.0</ele><time>2026-04-17T09:23:31.887Z</time></trkpt><trkpt lat="42.6432" lon="-8.9399633"><ele>367.0</ele><time>2026-04-17T09:23:32.886Z</time></trkpt><trkpt lat="42.6430883" lon="-8.9398383"><ele>367.0</ele><time>2026-04-17T09:23:33.887Z</time></trkpt><trkpt lat="42.642965" lon="-8.9397183"><ele>367.0</ele><time>2026-04-17T09:23:34.886Z</time></trkpt><trkpt lat="42.64285" lon="-8.93961"><ele>367.0</ele><time>2026-04-17T09:23:35.886Z</time></trkpt><trkpt lat="42.6427583" lon="-8.93951"><ele>363.20000000000005</ele><time>2026-04-17T09:23:36.887Z</time></trkpt><trkpt lat="42.6426967" lon="-8.9394133"><ele>359.4</ele><time>2026-04-17T09:23:37.887Z</time></trkpt><trkpt lat="42.642625" lon="-8.939325"><ele>355.6</ele><time>2026-04-17T09:23:38.886Z</time></trkpt><trkpt lat="42.642545" lon="-8.939255"><ele>351.79999999999995</ele><time>2026-04-17T09:23:39.886Z</time></trkpt><trkpt lat="42.64245" lon="-8.93923"><ele>348.0</ele><time>2026-04-17T09:23:40.886Z</time></trkpt><trkpt lat="42.64235" lon="-8.9392667"><ele>348.0</ele><time>2026-04-17T09:23:41.887Z</time></trkpt><trkpt lat="42.6422533" lon="-8.9393417"><ele>348.0</ele><time>2026-04-17T09:23:42.886Z</time></trkpt><trkpt lat="42.642165" lon="-8.9394367"><ele>348.0</ele><time>2026-04-17T09:23:43.886Z</time></trkpt><trkpt lat="42.6420917" lon="-8.9395233"><ele>348.0</ele><time>2026-04-17T09:23:44.886Z</time></trkpt><trkpt lat="42.6420133" lon="-8.9396"><ele>348.0</ele><time>2026-04-17T09:23:45.886Z</time></trkpt><trkpt lat="42.6419217" lon="-8.939655"><ele>343.5</ele><time>2026-04-17T09:23:46.887Z</time></trkpt><trkpt lat="42.6418133" lon="-8.9396717"><ele>339.0</ele><time>2026-04-17T09:23:47.887Z</time></trkpt><trkpt lat="42.6416783" lon="-8.93966"><ele>334.5</ele><time>2026-04-17T09:23:48.886Z</time></trkpt><trkpt lat="42.64155" lon="-8.939625"><ele>330.0</ele><time>2026-04-17T09:23:49.886Z</time></trkpt><trkpt lat="42.64145" lon="-8.9396033"><ele>330.0</ele><time>2026-04-17T09:23:50.886Z</time></trkpt><trkpt lat="42.64137" lon="-8.939615"><ele>330.0</ele><time>2026-04-17T09:23:51.886Z</time></trkpt><trkpt lat="42.6413067" lon="-8.9396617"><ele>330.0</ele><time>2026-04-17T09:23:52.886Z</time></trkpt><trkpt lat="42.6412733" lon="-8.93981"><ele>330.0</ele><time>2026-04-17T09:23:54.886Z</time></trkpt><trkpt lat="42.6413033" lon="-8.9399517"><ele>330.0</ele><time>2026-04-17T09:23:55.887Z</time></trkpt><trkpt lat="42.641315" lon="-8.9400967"><ele>326.6</ele><time>2026-04-17T09:23:56.886Z</time></trkpt><trkpt lat="42.64129" lon="-8.94023"><ele>323.2</ele><time>2026-04-17T09:23:57.886Z</time></trkpt><trkpt lat="42.6412333" lon="-8.9403367"><ele>319.8</ele><time>2026-04-17T09:23:58.887Z</time></trkpt><trkpt lat="42.641155" lon="-8.94041"><ele>316.4</ele><time>2026-04-17T09:23:59.886Z</time></trkpt><trkpt lat="42.6410383" lon="-8.940445"><ele>313.0</ele><time>2026-04-17T09:24:00.887Z</time></trkpt><trkpt lat="42.6408683" lon="-8.94042"><ele>309.75</ele><time>2026-04-17T09:24:01.886Z</time></trkpt><trkpt lat="42.6407017" lon="-8.940375"><ele>306.5</ele><time>2026-04-17T09:24:02.886Z</time></trkpt><trkpt lat="42.6405567" lon="-8.940335"><ele>303.25</ele><time>2026-04-17T09:24:03.887Z</time></trkpt><trkpt lat="42.640435" lon="-8.94029"><ele>300.0</ele><time>2026-04-17T09:24:04.886Z</time></trkpt><trkpt lat="42.640335" lon="-8.9402417"><ele>298.6</ele><time>2026-04-17T09:24:05.886Z</time></trkpt><trkpt lat="42.640275" lon="-8.9401583"><ele>297.2</ele><time>2026-04-17T09:24:06.887Z</time></trkpt><trkpt lat="42.64024" lon="-8.940035"><ele>295.8</ele><time>2026-04-17T09:24:07.887Z</time></trkpt><trkpt lat="42.6402117" lon="-8.9398967"><ele>294.4</ele><time>2026-04-17T09:24:08.887Z</time></trkpt><trkpt lat="42.6401683" lon="-8.9397833"><ele>293.0</ele><time>2026-04-17T09:24:09.886Z</time></trkpt><trkpt lat="42.6401183" lon="-8.9397"><ele>296.5</ele><time>2026-04-17T09:24:10.887Z</time></trkpt><trkpt lat="42.6400417" lon="-8.939635"><ele>300.0</ele><time>2026-04-17T09:24:11.886Z</time></trkpt><trkpt lat="42.639945" lon="-8.9395883"><ele>303.5</ele><time>2026-04-17T09:24:12.886Z</time></trkpt><trkpt lat="42.6398033" lon="-8.9395617"><ele>307.0</ele><time>2026-04-17T09:24:13.887Z</time></trkpt><trkpt lat="42.6396183" lon="-8.9395317"><ele>301.66666666666663</ele><time>2026-04-17T09:24:14.886Z</time></trkpt><trkpt lat="42.6394117" lon="-8.939495"><ele>296.3333333333333</ele><time>2026-04-17T09:24:15.887Z</time></trkpt><trkpt lat="42.639215" lon="-8.9394567"><ele>291.0</ele><time>2026-04-17T09:24:16.886Z</time></trkpt><trkpt lat="42.6390383" lon="-8.9394333"><ele>291.0</ele><time>2026-04-17T09:24:17.886Z</time></trkpt><trkpt lat="42.6388867" lon="-8.9394333"><ele>291.0</ele><time>2026-04-17T09:24:18.887Z</time></trkpt><trkpt lat="42.6387617" lon="-8.939455"><ele>291.0</ele><time>2026-04-17T09:24:19.887Z</time></trkpt><trkpt lat="42.6386567" lon="-8.939495"><ele>291.0</ele><time>2026-04-17T09:24:20.886Z</time></trkpt><trkpt lat="42.6385583" lon="-8.9395733"><ele>288.0</ele><time>2026-04-17T09:24:21.886Z</time></trkpt><trkpt lat="42.6384633" lon="-8.9396683"><ele>285.0</ele><time>2026-04-17T09:24:22.887Z</time></trkpt><trkpt lat="42.6383583" lon="-8.9397683"><ele>282.0</ele><time>2026-04-17T09:24:23.887Z</time></trkpt><trkpt lat="42.6382417" lon="-8.93985"><ele>279.0</ele><time>2026-04-17T09:24:24.886Z</time></trkpt><trkpt lat="42.638125" lon="-8.9399117"><ele>279.0</ele><time>2026-04-17T09:24:25.887Z</time></trkpt><trkpt lat="42.6379983" lon="-8.93996"><ele>279.0</ele><time>2026-04-17T09:24:26.886Z</time></trkpt><trkpt lat="42.6378733" lon="-8.9399983"><ele>279.0</ele><time>2026-04-17T09:24:27.886Z</time></trkpt><trkpt lat="42.63776" lon="-8.9400417"><ele>279.0</ele><time>2026-04-17T09:24:28.886Z</time></trkpt><trkpt lat="42.6376683" lon="-8.940065"><ele>276.6666666666667</ele><time>2026-04-17T09:24:29.887Z</time></trkpt><trkpt lat="42.6375983" lon="-8.9400783"><ele>274.3333333333333</ele><time>2026-04-17T09:24:30.886Z</time></trkpt><trkpt lat="42.6374817" lon="-8.9400583"><ele>272.0</ele><time>2026-04-17T09:24:32.887Z</time></trkpt><trkpt lat="42.637425" lon="-8.9400083"><ele>269.66666666666663</ele><time>2026-04-17T09:24:33.886Z</time></trkpt><trkpt lat="42.6373867" lon="-8.9399283"><ele>267.3333333333333</ele><time>2026-04-17T09:24:34.886Z</time></trkpt><trkpt lat="42.63736" lon="-8.939805"><ele>265.0</ele><time>2026-04-17T09:24:35.886Z</time></trkpt><trkpt lat="42.63736" lon="-8.9396583"><ele>265.0</ele><time>2026-04-17T09:24:36.887Z</time></trkpt><trkpt lat="42.63737" lon="-8.93947"><ele>265.0</ele><time>2026-04-17T09:24:37.886Z</time></trkpt><trkpt lat="42.63743" lon="-8.93924"><ele>265.0</ele><time>2026-04-17T09:24:38.886Z</time></trkpt><trkpt lat="42.6375333" lon="-8.939015"><ele>266.3333333333333</ele><time>2026-04-17T09:24:39.887Z</time></trkpt><trkpt lat="42.6376333" lon="-8.938825"><ele>267.6666666666667</ele><time>2026-04-17T09:24:40.887Z</time></trkpt><trkpt lat="42.6377633" lon="-8.938685"><ele>269.0</ele><time>2026-04-17T09:24:41.887Z</time></trkpt><trkpt lat="42.6379083" lon="-8.9385933"><ele>273.33333333333337</ele><time>2026-04-17T09:24:42.886Z</time></trkpt><trkpt lat="42.6380533" lon="-8.938525"><ele>277.6666666666667</ele><time>2026-04-17T09:24:43.886Z</time></trkpt><trkpt lat="42.6382533" lon="-8.93852"><ele>282.0</ele><time>2026-04-17T09:24:44.887Z</time></trkpt><trkpt lat="42.6384567" lon="-8.9385417"><ele>282.3333333333333</ele><time>2026-04-17T09:24:45.886Z</time></trkpt><trkpt lat="42.6386433" lon="-8.9385517"><ele>282.66666666666663</ele><time>2026-04-17T09:24:46.886Z</time></trkpt><trkpt lat="42.6388333" lon="-8.9385817"><ele>283.0</ele><time>2026-04-17T09:24:47.887Z</time></trkpt><trkpt lat="42.63902" lon="-8.9386117"><ele>283.0</ele><time>2026-04-17T09:24:48.887Z</time></trkpt><trkpt lat="42.6391917" lon="-8.9386333"><ele>283.0</ele><time>2026-04-17T09:24:49.887Z</time></trkpt><trkpt lat="42.63937" lon="-8.9386233"><ele>283.0</ele><time>2026-04-17T09:24:50.886Z</time></trkpt><trkpt lat="42.6395367" lon="-8.9385667"><ele>280.25</ele><time>2026-04-17T09:24:51.887Z</time></trkpt><trkpt lat="42.639685" lon="-8.9385117"><ele>277.5</ele><time>2026-04-17T09:24:52.886Z</time></trkpt><trkpt lat="42.6397917" lon="-8.9384283"><ele>274.75</ele><time>2026-04-17T09:24:53.887Z</time></trkpt><trkpt lat="42.6398867" lon="-8.9383283"><ele>272.0</ele><time>2026-04-17T09:24:54.887Z</time></trkpt><trkpt lat="42.6399617" lon="-8.9382433"><ele>272.0</ele><time>2026-04-17T09:24:55.886Z</time></trkpt><trkpt lat="42.6400667" lon="-8.938185"><ele>272.0</ele><time>2026-04-17T09:24:56.887Z</time></trkpt><trkpt lat="42.6401867" lon="-8.9381633"><ele>272.0</ele><time>2026-04-17T09:24:57.886Z</time></trkpt><trkpt lat="42.640325" lon="-8.9381717"><ele>272.0</ele><time>2026-04-17T09:24:58.887Z</time></trkpt><trkpt lat="42.6404567" lon="-8.93818"><ele>277.33333333333337</ele><time>2026-04-17T09:24:59.887Z</time></trkpt><trkpt lat="42.640595" lon="-8.9381417"><ele>282.6666666666667</ele><time>2026-04-17T09:25:00.887Z</time></trkpt><trkpt lat="42.6407383" lon="-8.93805"><ele>288.0</ele><time>2026-04-17T09:25:01.887Z</time></trkpt><trkpt lat="42.640875" lon="-8.93792"><ele>288.0</ele><time>2026-04-17T09:25:02.886Z</time></trkpt><trkpt lat="42.6410233" lon="-8.9377783"><ele>288.0</ele><time>2026-04-17T09:25:03.887Z</time></trkpt><trkpt lat="42.6411767" lon="-8.9376367"><ele>288.0</ele><time>2026-04-17T09:25:04.887Z</time></trkpt><trkpt lat="42.6413567" lon="-8.9375"><ele>285.6666666666667</ele><time>2026-04-17T09:25:05.887Z</time></trkpt><trkpt lat="42.6415467" lon="-8.9373633"><ele>283.33333333333337</ele><time>2026-04-17T09:25:06.886Z</time></trkpt><trkpt lat="42.6417167" lon="-8.9372517"><ele>281.0</ele><time>2026-04-17T09:25:07.887Z</time></trkpt><trkpt lat="42.641915" lon="-8.937155"><ele>287.0</ele><time>2026-04-17T09:25:08.886Z</time></trkpt><trkpt lat="42.6421017" lon="-8.9370483"><ele>293.0</ele><time>2026-04-17T09:25:09.886Z</time></trkpt><trkpt lat="42.64226" lon="-8.9369533"><ele>299.0</ele><time>2026-04-17T09:25:10.886Z</time></trkpt><trkpt lat="42.642405" lon="-8.9368483"><ele>299.0</ele><time>2026-04-17T09:25:11.887Z</time></trkpt><trkpt lat="42.6425467" lon="-8.9367233"><ele>299.0</ele><time>2026-04-17T09:25:12.887Z</time></trkpt><trkpt lat="42.6426883" lon="-8.9366017"><ele>299.0</ele><time>2026-04-17T09:25:13.887Z</time></trkpt><trkpt lat="42.6428417" lon="-8.9364617"><ele>295.6666666666667</ele><time>2026-04-17T09:25:14.887Z</time></trkpt><trkpt lat="42.6430133" lon="-8.9363183"><ele>292.3333333333333</ele><time>2026-04-17T09:25:15.887Z</time></trkpt><trkpt lat="42.6431817" lon="-8.936175"><ele>289.0</ele><time>2026-04-17T09:25:16.886Z</time></trkpt><trkpt lat="42.643315" lon="-8.93606"><ele>289.0</ele><time>2026-04-17T09:25:17.886Z</time></trkpt><trkpt lat="42.64342" lon="-8.93596"><ele>289.0</ele><time>2026-04-17T09:25:18.887Z</time></trkpt><trkpt lat="42.6434917" lon="-8.9358683"><ele>289.0</ele><time>2026-04-17T09:25:19.887Z</time></trkpt><trkpt lat="42.6435367" lon="-8.935765"><ele>289.0</ele><time>2026-04-17T09:25:20.886Z</time></trkpt><trkpt lat="42.64354" lon="-8.9356517"><ele>289.0</ele><time>2026-04-17T09:25:21.886Z</time></trkpt><trkpt lat="42.643545" lon="-8.9355017"><ele>283.25</ele><time>2026-04-17T09:25:22.886Z</time></trkpt><trkpt lat="42.6435683" lon="-8.9353367"><ele>277.5</ele><time>2026-04-17T09:25:23.887Z</time></trkpt><trkpt lat="42.6436117" lon="-8.9351767"><ele>271.75</ele><time>2026-04-17T09:25:24.886Z</time></trkpt><trkpt lat="42.64367" lon="-8.9350517"><ele>266.0</ele><time>2026-04-17T09:25:25.887Z</time></trkpt><trkpt lat="42.6437467" lon="-8.93495"><ele>266.0</ele><time>2026-04-17T09:25:26.886Z</time></trkpt><trkpt lat="42.6438367" lon="-8.9348783"><ele>266.0</ele><time>2026-04-17T09:25:27.887Z</time></trkpt><trkpt lat="42.6439483" lon="-8.934825"><ele>266.0</ele><time>2026-04-17T09:25:28.886Z</time></trkpt><trkpt lat="42.6440867" lon="-8.9347733"><ele>266.0</ele><time>2026-04-17T09:25:29.886Z</time></trkpt><trkpt lat="42.6442383" lon="-8.9347033"><ele>266.0</ele><time>2026-04-17T09:25:30.886Z</time></trkpt><trkpt lat="42.6443983" lon="-8.9346083"><ele>266.0</ele><time>2026-04-17T09:25:31.886Z</time></trkpt><trkpt lat="42.6445783" lon="-8.934505"><ele>266.0</ele><time>2026-04-17T09:25:32.887Z</time></trkpt><trkpt lat="42.64475" lon="-8.934405"><ele>269.6666666666667</ele><time>2026-04-17T09:25:33.887Z</time></trkpt><trkpt lat="42.6449133" lon="-8.9343217"><ele>273.3333333333333</ele><time>2026-04-17T09:25:34.887Z</time></trkpt><trkpt lat="42.64507" lon="-8.9342467"><ele>277.0</ele><time>2026-04-17T09:25:35.887Z</time></trkpt><trkpt lat="42.6452267" lon="-8.9341883"><ele>273.3333333333333</ele><time>2026-04-17T09:25:36.886Z</time></trkpt><trkpt lat="42.6454033" lon="-8.9341367"><ele>269.6666666666667</ele><time>2026-04-17T09:25:37.886Z</time></trkpt><trkpt lat="42.64558" lon="-8.9341017"><ele>266.0</ele><time>2026-04-17T09:25:38.886Z</time></trkpt><trkpt lat="42.6457483" lon="-8.934125"><ele>266.0</ele><time>2026-04-17T09:25:39.886Z</time></trkpt><trkpt lat="42.645905" lon="-8.934125"><ele>266.0</ele><time>2026-04-17T09:25:40.887Z</time></trkpt><trkpt lat="42.6460417" lon="-8.9341267"><ele>266.0</ele><time>2026-04-17T09:25:41.887Z</time></trkpt><trkpt lat="42.6461433" lon="-8.9341617"><ele>266.0</ele><time>2026-04-17T09:25:42.886Z</time></trkpt><trkpt lat="42.6462167" lon="-8.9340833"><ele>269.0</ele><time>2026-04-17T09:25:43.887Z</time></trkpt><trkpt lat="42.6463017" lon="-8.9339733"><ele>272.0</ele><time>2026-04-17T09:25:44.887Z</time></trkpt><trkpt lat="42.646415" lon="-8.9338883"><ele>275.0</ele><time>2026-04-17T09:25:45.886Z</time></trkpt><trkpt lat="42.6465633" lon="-8.9338517"><ele>278.0</ele><time>2026-04-17T09:25:46.887Z</time></trkpt><trkpt lat="42.6467317" lon="-8.9338433"><ele>278.0</ele><time>2026-04-17T09:25:47.886Z</time></trkpt><trkpt lat="42.6469333" lon="-8.9338467"><ele>278.0</ele><time>2026-04-17T09:25:48.887Z</time></trkpt><trkpt lat="42.6471567" lon="-8.93387"><ele>278.0</ele><time>2026-04-17T09:25:49.887Z</time></trkpt><trkpt lat="42.6473967" lon="-8.9338967"><ele>282.5</ele><time>2026-04-17T09:25:50.886Z</time></trkpt><trkpt lat="42.6476333" lon="-8.9339133"><ele>287.0</ele><time>2026-04-17T09:25:51.886Z</time></trkpt><trkpt lat="42.6478683" lon="-8.9339267"><ele>290.5</ele><time>2026-04-17T09:25:52.887Z</time></trkpt><trkpt lat="42.6481083" lon="-8.93393"><ele>294.0</ele><time>2026-04-17T09:25:53.886Z</time></trkpt><trkpt lat="42.6483367" lon="-8.9339417"><ele>294.0</ele><time>2026-04-17T09:25:54.886Z</time></trkpt><trkpt lat="42.648555" lon="-8.9339433"><ele>294.0</ele><time>2026-04-17T09:25:55.887Z</time></trkpt><trkpt lat="42.6487567" lon="-8.933965"><ele>294.0</ele><time>2026-04-17T09:25:56.886Z</time></trkpt><trkpt lat="42.648975" lon="-8.9339933"><ele>295.6666666666667</ele><time>2026-04-17T09:25:57.887Z</time></trkpt><trkpt lat="42.649185" lon="-8.9340183"><ele>297.33333333333337</ele><time>2026-04-17T09:25:58.886Z</time></trkpt><trkpt lat="42.6493767" lon="-8.9340633"><ele>299.0</ele><time>2026-04-17T09:25:59.886Z</time></trkpt><trkpt lat="42.6495383" lon="-8.9341283"><ele>300.0</ele><time>2026-04-17T09:26:00.887Z</time></trkpt><trkpt lat="42.649685" lon="-8.93418"><ele>301.0</ele><time>2026-04-17T09:26:01.886Z</time></trkpt><trkpt lat="42.6498117" lon="-8.93421"><ele>302.0</ele><time>2026-04-17T09:26:02.887Z</time></trkpt><trkpt lat="42.6499283" lon="-8.9342083"><ele>303.0</ele><time>2026-04-17T09:26:03.887Z</time></trkpt><trkpt lat="42.650075" lon="-8.934165"><ele>303.0</ele><time>2026-04-17T09:26:04.886Z</time></trkpt><trkpt lat="42.650245" lon="-8.93411"><ele>303.0</ele><time>2026-04-17T09:26:05.887Z</time></trkpt><trkpt lat="42.650415" lon="-8.9340733"><ele>303.0</ele><time>2026-04-17T09:26:06.886Z</time></trkpt><trkpt lat="42.6505667" lon="-8.93407"><ele>305.0</ele><time>2026-04-17T09:26:07.887Z</time></trkpt><trkpt lat="42.6507433" lon="-8.9340833"><ele>307.0</ele><time>2026-04-17T09:26:08.887Z</time></trkpt><trkpt lat="42.6509133" lon="-8.9341033"><ele>309.0</ele><time>2026-04-17T09:26:09.887Z</time></trkpt><trkpt lat="42.6510683" lon="-8.9340883"><ele>310.0</ele><time>2026-04-17T09:26:10.886Z</time></trkpt><trkpt lat="42.65121" lon="-8.9340533"><ele>311.0</ele><time>2026-04-17T09:26:11.886Z</time></trkpt><trkpt lat="42.6513467" lon="-8.9340283"><ele>312.0</ele><time>2026-04-17T09:26:12.887Z</time></trkpt><trkpt lat="42.6514817" lon="-8.9340267"><ele>313.0</ele><time>2026-04-17T09:26:13.887Z</time></trkpt><trkpt lat="42.65161" lon="-8.9340817"><ele>313.0</ele><time>2026-04-17T09:26:14.887Z</time></trkpt><trkpt lat="42.65176" lon="-8.9341683"><ele>313.0</ele><time>2026-04-17T09:26:15.886Z</time></trkpt><trkpt lat="42.65193" lon="-8.9342583"><ele>313.0</ele><time>2026-04-17T09:26:16.887Z</time></trkpt><trkpt lat="42.6521033" lon="-8.9343383"><ele>323.0</ele><time>2026-04-17T09:26:17.886Z</time></trkpt><trkpt lat="42.6522733" lon="-8.9344"><ele>333.0</ele><time>2026-04-17T09:26:18.886Z</time></trkpt><trkpt lat="42.6524267" lon="-8.9344233"><ele>343.0</ele><time>2026-04-17T09:26:19.887Z</time></trkpt><trkpt lat="42.652595" lon="-8.9344317"><ele>343.0</ele><time>2026-04-17T09:26:20.887Z</time></trkpt><trkpt lat="42.6527783" lon="-8.9344367"><ele>343.0</ele><time>2026-04-17T09:26:21.887Z</time></trkpt><trkpt lat="42.6529783" lon="-8.934445"><ele>343.0</ele><time>2026-04-17T09:26:22.886Z</time></trkpt><trkpt lat="42.6531867" lon="-8.9344733"><ele>344.66666666666663</ele><time>2026-04-17T09:26:23.886Z</time></trkpt><trkpt lat="42.653395" lon="-8.9345283"><ele>346.3333333333333</ele><time>2026-04-17T09:26:24.886Z</time></trkpt><trkpt lat="42.653595" lon="-8.9346"><ele>348.0</ele><time>2026-04-17T09:26:25.887Z</time></trkpt><trkpt lat="42.6537933" lon="-8.93469"><ele>348.3333333333333</ele><time>2026-04-17T09:26:26.886Z</time></trkpt><trkpt lat="42.653985" lon="-8.9347883"><ele>348.66666666666663</ele><time>2026-04-17T09:26:27.886Z</time></trkpt><trkpt lat="42.654175" lon="-8.93488"><ele>349.0</ele><time>2026-04-17T09:26:28.887Z</time></trkpt><trkpt lat="42.654355" lon="-8.9349633"><ele>348.3333333333333</ele><time>2026-04-17T09:26:29.887Z</time></trkpt><trkpt lat="42.6545267" lon="-8.935025"><ele>347.6666666666667</ele><time>2026-04-17T09:26:30.886Z</time></trkpt><trkpt lat="42.65469" lon="-8.9350883"><ele>347.0</ele><time>2026-04-17T09:26:31.886Z</time></trkpt><trkpt lat="42.6548067" lon="-8.93515"><ele>352.20000000000005</ele><time>2026-04-17T09:26:32.887Z</time></trkpt><trkpt lat="42.6548917" lon="-8.9352183"><ele>357.4</ele><time>2026-04-17T09:26:33.887Z</time></trkpt><trkpt lat="42.6549383" lon="-8.9353033"><ele>362.6</ele><time>2026-04-17T09:26:34.887Z</time></trkpt><trkpt lat="42.65492" lon="-8.93546"><ele>367.79999999999995</ele><time>2026-04-17T09:26:36.886Z</time></trkpt><trkpt lat="42.65485" lon="-8.93551"><ele>373.0</ele><time>2026-04-17T09:26:37.887Z</time></trkpt><trkpt lat="42.65475" lon="-8.935535"><ele>373.0</ele><time>2026-04-17T09:26:38.886Z</time></trkpt><trkpt lat="42.65461" lon="-8.9355233"><ele>373.0</ele><time>2026-04-17T09:26:39.887Z</time></trkpt><trkpt lat="42.6544333" lon="-8.9354983"><ele>373.0</ele><time>2026-04-17T09:26:40.887Z</time></trkpt><trkpt lat="42.6542083" lon="-8.93549"><ele>375.0</ele><time>2026-04-17T09:26:41.886Z</time></trkpt><trkpt lat="42.6539783" lon="-8.9355067"><ele>377.0</ele><time>2026-04-17T09:26:42.886Z</time></trkpt><trkpt lat="42.6537333" lon="-8.9355267"><ele>378.0</ele><time>2026-04-17T09:26:43.887Z</time></trkpt><trkpt lat="42.6534933" lon="-8.935555"><ele>379.0</ele><time>2026-04-17T09:26:44.886Z</time></trkpt><trkpt lat="42.6532917" lon="-8.935585"><ele>380.0</ele><time>2026-04-17T09:26:45.886Z</time></trkpt><trkpt lat="42.6530983" lon="-8.935625"><ele>380.0</ele><time>2026-04-17T09:26:46.887Z</time></trkpt><trkpt lat="42.652895" lon="-8.9356867"><ele>380.0</ele><time>2026-04-17T09:26:47.887Z</time></trkpt><trkpt lat="42.65267" lon="-8.9357733"><ele>380.0</ele><time>2026-04-17T09:26:48.887Z</time></trkpt><trkpt lat="42.6524383" lon="-8.935875"><ele>388.5</ele><time>2026-04-17T09:26:49.887Z</time></trkpt><trkpt lat="42.6521983" lon="-8.9359883"><ele>397.0</ele><time>2026-04-17T09:26:50.886Z</time></trkpt><trkpt lat="42.6519517" lon="-8.9361067"><ele>397.0</ele><time>2026-04-17T09:26:51.886Z</time></trkpt><trkpt lat="42.6517017" lon="-8.93622"><ele>397.0</ele><time>2026-04-17T09:26:52.886Z</time></trkpt><trkpt lat="42.651455" lon="-8.9363267"><ele>397.0</ele><time>2026-04-17T09:26:53.886Z</time></trkpt><trkpt lat="42.651245" lon="-8.9364217"><ele>397.0</ele><time>2026-04-17T09:26:54.886Z</time></trkpt><trkpt lat="42.6510333" lon="-8.9364867"><ele>397.0</ele><time>2026-04-17T09:26:55.886Z</time></trkpt><trkpt lat="42.6508133" lon="-8.9365233"><ele>395.6666666666667</ele><time>2026-04-17T09:26:56.887Z</time></trkpt><trkpt lat="42.650615" lon="-8.93655"><ele>394.33333333333337</ele><time>2026-04-17T09:26:57.887Z</time></trkpt><trkpt lat="42.6504333" lon="-8.936575"><ele>393.0</ele><time>2026-04-17T09:26:58.887Z</time></trkpt><trkpt lat="42.65028" lon="-8.9366017"><ele>392.0</ele><time>2026-04-17T09:26:59.886Z</time></trkpt><trkpt lat="42.6501733" lon="-8.9366217"><ele>391.0</ele><time>2026-04-17T09:27:00.886Z</time></trkpt><trkpt lat="42.650095" lon="-8.93672"><ele>390.0</ele><time>2026-04-17T09:27:02.886Z</time></trkpt><trkpt lat="42.6501517" lon="-8.93681"><ele>389.0</ele><time>2026-04-17T09:27:04.886Z</time></trkpt><trkpt lat="42.6502383" lon="-8.9368517"><ele>388.0</ele><time>2026-04-17T09:27:05.887Z</time></trkpt><trkpt lat="42.6503567" lon="-8.9368983"><ele>399.6666666666667</ele><time>2026-04-17T09:27:06.887Z</time></trkpt><trkpt lat="42.6505033" lon="-8.93694"><ele>411.33333333333337</ele><time>2026-04-17T09:27:07.886Z</time></trkpt><trkpt lat="42.650685" lon="-8.9369733"><ele>423.0</ele><time>2026-04-17T09:27:08.886Z</time></trkpt><trkpt lat="42.6508767" lon="-8.9369983"><ele>423.0</ele><time>2026-04-17T09:27:09.886Z</time></trkpt><trkpt lat="42.651095" lon="-8.9369967"><ele>423.0</ele><time>2026-04-17T09:27:10.886Z</time></trkpt><trkpt lat="42.651335" lon="-8.9369833"><ele>427.5</ele><time>2026-04-17T09:27:11.887Z</time></trkpt><trkpt lat="42.6515883" lon="-8.9369633"><ele>432.0</ele><time>2026-04-17T09:27:12.887Z</time></trkpt><trkpt lat="42.6518617" lon="-8.9369467"><ele>434.5</ele><time>2026-04-17T09:27:13.887Z</time></trkpt><trkpt lat="42.6521433" lon="-8.9369333"><ele>437.0</ele><time>2026-04-17T09:27:14.887Z</time></trkpt><trkpt lat="42.6524283" lon="-8.93692"><ele>437.0</ele><time>2026-04-17T09:27:15.887Z</time></trkpt><trkpt lat="42.6526933" lon="-8.9369183"><ele>437.0</ele><time>2026-04-17T09:27:16.886Z</time></trkpt><trkpt lat="42.6529317" lon="-8.9369167"><ele>440.0</ele><time>2026-04-17T09:27:17.887Z</time></trkpt><trkpt lat="42.6531533" lon="-8.9369067"><ele>443.0</ele><time>2026-04-17T09:27:18.887Z</time></trkpt><trkpt lat="42.6533683" lon="-8.9369117"><ele>446.0</ele><time>2026-04-17T09:27:19.886Z</time></trkpt><trkpt lat="42.653565" lon="-8.93692"><ele>444.3333333333333</ele><time>2026-04-17T09:27:20.886Z</time></trkpt><trkpt lat="42.6537633" lon="-8.9369467"><ele>442.66666666666663</ele><time>2026-04-17T09:27:21.886Z</time></trkpt><trkpt lat="42.653965" lon="-8.9370067"><ele>441.0</ele><time>2026-04-17T09:27:22.886Z</time></trkpt><trkpt lat="42.6541717" lon="-8.9371017"><ele>441.0</ele><time>2026-04-17T09:27:23.886Z</time></trkpt><trkpt lat="42.654385" lon="-8.93723"><ele>441.0</ele><time>2026-04-17T09:27:24.887Z</time></trkpt><trkpt lat="42.6545817" lon="-8.9373567"><ele>438.5</ele><time>2026-04-17T09:27:25.886Z</time></trkpt><trkpt lat="42.654785" lon="-8.9374933"><ele>436.0</ele><time>2026-04-17T09:27:26.886Z</time></trkpt><trkpt lat="42.6549867" lon="-8.937645"><ele>438.6666666666667</ele><time>2026-04-17T09:27:27.886Z</time></trkpt><trkpt lat="42.65518" lon="-8.9377883"><ele>441.33333333333337</ele><time>2026-04-17T09:27:28.886Z</time></trkpt><trkpt lat="42.6553717" lon="-8.9379317"><ele>444.0</ele><time>2026-04-17T09:27:29.887Z</time></trkpt><trkpt lat="42.65556" lon="-8.9380833"><ele>444.0</ele><time>2026-04-17T09:27:30.886Z</time></trkpt><trkpt lat="42.6557417" lon="-8.9382483"><ele>444.0</ele><time>2026-04-17T09:27:31.886Z</time></trkpt><trkpt lat="42.6559267" lon="-8.9384133"><ele>444.0</ele><time>2026-04-17T09:27:32.886Z</time></trkpt><trkpt lat="42.6561317" lon="-8.9385667"><ele>449.5</ele><time>2026-04-17T09:27:33.886Z</time></trkpt><trkpt lat="42.6563567" lon="-8.93872"><ele>455.0</ele><time>2026-04-17T09:27:34.887Z</time></trkpt><trkpt lat="42.65659" lon="-8.93888"><ele>455.0</ele><time>2026-04-17T09:27:35.887Z</time></trkpt><trkpt lat="42.656825" lon="-8.939045"><ele>455.0</ele><time>2026-04-17T09:27:36.887Z</time></trkpt><trkpt lat="42.65705" lon="-8.9392017"><ele>458.66666666666663</ele><time>2026-04-17T09:27:37.886Z</time></trkpt><trkpt lat="42.6572683" lon="-8.9393317"><ele>462.33333333333337</ele><time>2026-04-17T09:27:38.886Z</time></trkpt><trkpt lat="42.6574483" lon="-8.93943"><ele>466.0</ele><time>2026-04-17T09:27:39.887Z</time></trkpt><trkpt lat="42.6576067" lon="-8.939535"><ele>466.0</ele><time>2026-04-17T09:27:40.886Z</time></trkpt><trkpt lat="42.6577633" lon="-8.9396533"><ele>466.0</ele><time>2026-04-17T09:27:41.887Z</time></trkpt><trkpt lat="42.6579267" lon="-8.9397867"><ele>466.0</ele><time>2026-04-17T09:27:42.887Z</time></trkpt><trkpt lat="42.6580983" lon="-8.9399433"><ele>468.6666666666667</ele><time>2026-04-17T09:27:43.886Z</time></trkpt><trkpt lat="42.65827" lon="-8.9401017"><ele>471.33333333333337</ele><time>2026-04-17T09:27:44.887Z</time></trkpt><trkpt lat="42.658455" lon="-8.9402183"><ele>474.0</ele><time>2026-04-17T09:27:45.886Z</time></trkpt><trkpt lat="42.6586483" lon="-8.9403183"><ele>474.0</ele><time>2026-04-17T09:27:46.886Z</time></trkpt><trkpt lat="42.65885" lon="-8.9404217"><ele>474.0</ele><time>2026-04-17T09:27:47.886Z</time></trkpt><trkpt lat="42.6590617" lon="-8.940545"><ele>474.0</ele><time>2026-04-17T09:27:48.887Z</time></trkpt><trkpt lat="42.6592733" lon="-8.94069"><ele>471.5</ele><time>2026-04-17T09:27:49.887Z</time></trkpt><trkpt lat="42.6594733" lon="-8.9408467"><ele>469.0</ele><time>2026-04-17T09:27:50.888Z</time></trkpt><trkpt lat="42.6596667" lon="-8.941025"><ele>472.6666666666667</ele><time>2026-04-17T09:27:51.887Z</time></trkpt><trkpt lat="42.6598467" lon="-8.94119"><ele>476.33333333333337</ele><time>2026-04-17T09:27:52.888Z</time></trkpt><trkpt lat="42.6600267" lon="-8.9413517"><ele>480.0</ele><time>2026-04-17T09:27:53.887Z</time></trkpt><trkpt lat="42.66019" lon="-8.9414917"><ele>481.33333333333337</ele><time>2026-04-17T09:27:54.887Z</time></trkpt><trkpt lat="42.6603583" lon="-8.9416"><ele>482.6666666666667</ele><time>2026-04-17T09:27:55.887Z</time></trkpt><trkpt lat="42.6605217" lon="-8.941665"><ele>484.0</ele><time>2026-04-17T09:27:56.888Z</time></trkpt><trkpt lat="42.6606583" lon="-8.941695"><ele>484.0</ele><time>2026-04-17T09:27:57.887Z</time></trkpt><trkpt lat="42.6607683" lon="-8.9416833"><ele>484.0</ele><time>2026-04-17T09:27:58.888Z</time></trkpt><trkpt lat="42.6608467" lon="-8.941605"><ele>484.0</ele><time>2026-04-17T09:27:59.888Z</time></trkpt><trkpt lat="42.6609117" lon="-8.9414767"><ele>484.0</ele><time>2026-04-17T09:28:00.887Z</time></trkpt><trkpt lat="42.660975" lon="-8.94133"><ele>484.0</ele><time>2026-04-17T09:28:01.888Z</time></trkpt><trkpt lat="42.6610567" lon="-8.9412067"><ele>485.50000000000006</ele><time>2026-04-17T09:28:02.887Z</time></trkpt><trkpt lat="42.6611333" lon="-8.94115"><ele>487.0</ele><time>2026-04-17T09:28:03.888Z</time></trkpt><trkpt lat="42.661215" lon="-8.9411433"><ele>488.5</ele><time>2026-04-17T09:28:04.887Z</time></trkpt><trkpt lat="42.66128" lon="-8.941175"><ele>490.0</ele><time>2026-04-17T09:28:05.887Z</time></trkpt><trkpt lat="42.6613217" lon="-8.9412467"><ele>491.50000000000006</ele><time>2026-04-17T09:28:06.887Z</time></trkpt><trkpt lat="42.6613267" lon="-8.9413867"><ele>493.0</ele><time>2026-04-17T09:28:07.887Z</time></trkpt><trkpt lat="42.6613167" lon="-8.94156"><ele>492.0</ele><time>2026-04-17T09:28:08.888Z</time></trkpt><trkpt lat="42.66129" lon="-8.941775"><ele>491.0</ele><time>2026-04-17T09:28:09.888Z</time></trkpt><trkpt lat="42.661275" lon="-8.9419417"><ele>490.0</ele><time>2026-04-17T09:28:10.888Z</time></trkpt><trkpt lat="42.6612733" lon="-8.9420533"><ele>489.0</ele><time>2026-04-17T09:28:11.888Z</time></trkpt><trkpt lat="42.6613" lon="-8.9421683"><ele>489.0</ele><time>2026-04-17T09:28:13.887Z</time></trkpt><trkpt lat="42.6613767" lon="-8.9421933"><ele>489.0</ele><time>2026-04-17T09:28:15.888Z</time></trkpt><trkpt lat="42.66144" lon="-8.9421767"><ele>489.0</ele><time>2026-04-17T09:28:16.887Z</time></trkpt><trkpt lat="42.661545" lon="-8.942145"><ele>489.0</ele><time>2026-04-17T09:28:17.888Z</time></trkpt><trkpt lat="42.6616867" lon="-8.9420867"><ele>489.0</ele><time>2026-04-17T09:28:18.888Z</time></trkpt><trkpt lat="42.6618817" lon="-8.9419883"><ele>489.0</ele><time>2026-04-17T09:28:19.887Z</time></trkpt><trkpt lat="42.66208" lon="-8.94189"><ele>489.0</ele><time>2026-04-17T09:28:20.887Z</time></trkpt><trkpt lat="42.662275" lon="-8.9417967"><ele>489.0</ele><time>2026-04-17T09:28:21.888Z</time></trkpt><trkpt lat="42.662455" lon="-8.9417383"><ele>491.0</ele><time>2026-04-17T09:28:22.887Z</time></trkpt><trkpt lat="42.6626167" lon="-8.941695"><ele>493.0</ele><time>2026-04-17T09:28:23.888Z</time></trkpt><trkpt lat="42.6627583" lon="-8.9416583"><ele>495.0</ele><time>2026-04-17T09:28:24.888Z</time></trkpt><trkpt lat="42.6628983" lon="-8.9416467"><ele>497.0</ele><time>2026-04-17T09:28:25.887Z</time></trkpt><trkpt lat="42.6630317" lon="-8.941645"><ele>497.0</ele><time>2026-04-17T09:28:26.888Z</time></trkpt><trkpt lat="42.6631633" lon="-8.94165"><ele>497.0</ele><time>2026-04-17T09:28:27.887Z</time></trkpt><trkpt lat="42.663305" lon="-8.94163"><ele>497.0</ele><time>2026-04-17T09:28:28.887Z</time></trkpt><trkpt lat="42.66346" lon="-8.9415933"><ele>497.0</ele><time>2026-04-17T09:28:29.888Z</time></trkpt><trkpt lat="42.663635" lon="-8.941535"><ele>496.66666666666663</ele><time>2026-04-17T09:28:30.888Z</time></trkpt><trkpt lat="42.6638117" lon="-8.941465"><ele>496.33333333333337</ele><time>2026-04-17T09:28:31.887Z</time></trkpt><trkpt lat="42.6639817" lon="-8.9414183"><ele>496.0</ele><time>2026-04-17T09:28:32.888Z</time></trkpt><trkpt lat="42.664135" lon="-8.9413967"><ele>496.0</ele><time>2026-04-17T09:28:33.888Z</time></trkpt><trkpt lat="42.66427" lon="-8.9413783"><ele>496.0</ele><time>2026-04-17T09:28:34.887Z</time></trkpt><trkpt lat="42.664355" lon="-8.9413283"><ele>496.0</ele><time>2026-04-17T09:28:35.888Z</time></trkpt><trkpt lat="42.664425" lon="-8.94126"><ele>496.0</ele><time>2026-04-17T09:28:36.887Z</time></trkpt><trkpt lat="42.66447" lon="-8.94116"><ele>496.0</ele><time>2026-04-17T09:28:37.887Z</time></trkpt><trkpt lat="42.664535" lon="-8.94105"><ele>496.5</ele><time>2026-04-17T09:28:38.888Z</time></trkpt><trkpt lat="42.66461" lon="-8.9409367"><ele>497.0</ele><time>2026-04-17T09:28:39.887Z</time></trkpt><trkpt lat="42.6647017" lon="-8.940875"><ele>497.5</ele><time>2026-04-17T09:28:40.888Z</time></trkpt><trkpt lat="42.664825" lon="-8.9408683"><ele>498.0</ele><time>2026-04-17T09:28:41.887Z</time></trkpt><trkpt lat="42.66497" lon="-8.9408867"><ele>498.0</ele><time>2026-04-17T09:28:42.888Z</time></trkpt><trkpt lat="42.6651483" lon="-8.9409617"><ele>498.0</ele><time>2026-04-17T09:28:43.888Z</time></trkpt><trkpt lat="42.6653283" lon="-8.9410617"><ele>498.0</ele><time>2026-04-17T09:28:44.888Z</time></trkpt><trkpt lat="42.665525" lon="-8.9411983"><ele>498.0</ele><time>2026-04-17T09:28:45.888Z</time></trkpt><trkpt lat="42.665705" lon="-8.9413317"><ele>498.0</ele><time>2026-04-17T09:28:46.888Z</time></trkpt><trkpt lat="42.66589" lon="-8.9414517"><ele>498.0</ele><time>2026-04-17T09:28:47.887Z</time></trkpt><trkpt lat="42.66606" lon="-8.9415567"><ele>497.33333333333337</ele><time>2026-04-17T09:28:48.888Z</time></trkpt><trkpt lat="42.6662367" lon="-8.9416567"><ele>496.6666666666667</ele><time>2026-04-17T09:28:49.888Z</time></trkpt><trkpt lat="42.6664267" lon="-8.9417333"><ele>496.0</ele><time>2026-04-17T09:28:50.887Z</time></trkpt><trkpt lat="42.6666233" lon="-8.9417967"><ele>496.0</ele><time>2026-04-17T09:28:51.887Z</time></trkpt><trkpt lat="42.6668133" lon="-8.9418683"><ele>496.0</ele><time>2026-04-17T09:28:52.887Z</time></trkpt><trkpt lat="42.6669933" lon="-8.94195"><ele>496.0</ele><time>2026-04-17T09:28:53.888Z</time></trkpt><trkpt lat="42.667165" lon="-8.942005"><ele>496.75</ele><time>2026-04-17T09:28:54.887Z</time></trkpt><trkpt lat="42.6673283" lon="-8.9420217"><ele>497.5</ele><time>2026-04-17T09:28:55.888Z</time></trkpt><trkpt lat="42.6674683" lon="-8.9420033"><ele>498.25</ele><time>2026-04-17T09:28:56.888Z</time></trkpt><trkpt lat="42.667595" lon="-8.9419467"><ele>499.0</ele><time>2026-04-17T09:28:57.887Z</time></trkpt><trkpt lat="42.66771" lon="-8.9418583"><ele>498.25</ele><time>2026-04-17T09:28:58.888Z</time></trkpt><trkpt lat="42.6678217" lon="-8.9417983"><ele>497.5</ele><time>2026-04-17T09:28:59.887Z</time></trkpt><trkpt lat="42.6679383" lon="-8.9417983"><ele>496.75</ele><time>2026-04-17T09:29:00.887Z</time></trkpt><trkpt lat="42.66806" lon="-8.94183"><ele>496.0</ele><time>2026-04-17T09:29:01.888Z</time></trkpt><trkpt lat="42.668205" lon="-8.94188"><ele>496.0</ele><time>2026-04-17T09:29:02.888Z</time></trkpt><trkpt lat="42.66837" lon="-8.9419233"><ele>496.0</ele><time>2026-04-17T09:29:03.887Z</time></trkpt><trkpt lat="42.6685367" lon="-8.94193"><ele>496.0</ele><time>2026-04-17T09:29:04.888Z</time></trkpt><trkpt lat="42.6687017" lon="-8.9419067"><ele>499.33333333333337</ele><time>2026-04-17T09:29:05.888Z</time></trkpt><trkpt lat="42.6688517" lon="-8.941895"><ele>502.66666666666663</ele><time>2026-04-17T09:29:06.887Z</time></trkpt><trkpt lat="42.6690067" lon="-8.9418933"><ele>506.0</ele><time>2026-04-17T09:29:07.888Z</time></trkpt><trkpt lat="42.6691667" lon="-8.9419067"><ele>506.0</ele><time>2026-04-17T09:29:08.888Z</time></trkpt><trkpt lat="42.6693283" lon="-8.9419333"><ele>506.0</ele><time>2026-04-17T09:29:09.888Z</time></trkpt><trkpt lat="42.669475" lon="-8.94195"><ele>506.0</ele><time>2026-04-17T09:29:10.887Z</time></trkpt><trkpt lat="42.6696117" lon="-8.94196"><ele>506.0</ele><time>2026-04-17T09:29:11.887Z</time></trkpt><trkpt lat="42.6697217" lon="-8.941945"><ele>507.25</ele><time>2026-04-17T09:29:12.887Z</time></trkpt><trkpt lat="42.6698217" lon="-8.9418917"><ele>508.5</ele><time>2026-04-17T09:29:13.887Z</time></trkpt><trkpt lat="42.6699217" lon="-8.9418"><ele>509.75</ele><time>2026-04-17T09:29:14.887Z</time></trkpt><trkpt lat="42.6700167" lon="-8.9416817"><ele>511.0</ele><time>2026-04-17T09:29:15.888Z</time></trkpt><trkpt lat="42.6701167" lon="-8.9415183"><ele>512.0</ele><time>2026-04-17T09:29:16.888Z</time></trkpt><trkpt lat="42.6702283" lon="-8.9413233"><ele>513.0</ele><time>2026-04-17T09:29:17.888Z</time></trkpt><trkpt lat="42.6703283" lon="-8.9411367"><ele>514.0</ele><time>2026-04-17T09:29:18.888Z</time></trkpt><trkpt lat="42.6704117" lon="-8.940955"><ele>515.0</ele><time>2026-04-17T09:29:19.888Z</time></trkpt><trkpt lat="42.6704583" lon="-8.940785"><ele>516.0</ele><time>2026-04-17T09:29:20.887Z</time></trkpt><trkpt lat="42.6704617" lon="-8.9406433"><ele>517.0</ele><time>2026-04-17T09:29:21.888Z</time></trkpt><trkpt lat="42.670435" lon="-8.9405533"><ele>518.0</ele><time>2026-04-17T09:29:22.887Z</time></trkpt><trkpt lat="42.6703767" lon="-8.94046"><ele>519.0</ele><time>2026-04-17T09:29:23.888Z</time></trkpt><trkpt lat="42.6702883" lon="-8.940365"><ele>519.0</ele><time>2026-04-17T09:29:24.888Z</time></trkpt><trkpt lat="42.6701467" lon="-8.94026"><ele>519.0</ele><time>2026-04-17T09:29:25.887Z</time></trkpt><trkpt lat="42.6699833" lon="-8.9401433"><ele>519.0</ele><time>2026-04-17T09:29:26.888Z</time></trkpt><trkpt lat="42.6698383" lon="-8.9400183"><ele>518.4</ele><time>2026-04-17T09:29:27.888Z</time></trkpt><trkpt lat="42.6697367" lon="-8.9399033"><ele>517.8</ele><time>2026-04-17T09:29:28.887Z</time></trkpt><trkpt lat="42.6696883" lon="-8.939815"><ele>517.2</ele><time>2026-04-17T09:29:29.888Z</time></trkpt><trkpt lat="42.6696767" lon="-8.93967"><ele>516.6</ele><time>2026-04-17T09:29:31.888Z</time></trkpt><trkpt lat="42.6697017" lon="-8.9395767"><ele>516.0</ele><time>2026-04-17T09:29:32.888Z</time></trkpt><trkpt lat="42.6697467" lon="-8.9394383"><ele>516.0</ele><time>2026-04-17T09:29:33.887Z</time></trkpt><trkpt lat="42.6697967" lon="-8.9392533"><ele>516.0</ele><time>2026-04-17T09:29:34.887Z</time></trkpt><trkpt lat="42.6698517" lon="-8.93903"><ele>516.0</ele><time>2026-04-17T09:29:35.887Z</time></trkpt><trkpt lat="42.6699067" lon="-8.9388117"><ele>516.0</ele><time>2026-04-17T09:29:36.887Z</time></trkpt><trkpt lat="42.66993" lon="-8.9386217"><ele>516.0</ele><time>2026-04-17T09:29:37.888Z</time></trkpt><trkpt lat="42.6699183" lon="-8.9384633"><ele>516.0</ele><time>2026-04-17T09:29:38.888Z</time></trkpt><trkpt lat="42.66986" lon="-8.9383233"><ele>516.0</ele><time>2026-04-17T09:29:39.887Z</time></trkpt><trkpt lat="42.669765" lon="-8.9381683"><ele>516.0</ele><time>2026-04-17T09:29:40.888Z</time></trkpt><trkpt lat="42.669645" lon="-8.938015"><ele>516.0</ele><time>2026-04-17T09:29:41.887Z</time></trkpt><trkpt lat="42.66953" lon="-8.9378633"><ele>516.0</ele><time>2026-04-17T09:29:42.887Z</time></trkpt><trkpt lat="42.66944" lon="-8.93771"><ele>514.25</ele><time>2026-04-17T09:29:43.887Z</time></trkpt><trkpt lat="42.6693817" lon="-8.9375833"><ele>512.5</ele><time>2026-04-17T09:29:44.888Z</time></trkpt><trkpt lat="42.66935" lon="-8.937445"><ele>510.75</ele><time>2026-04-17T09:29:45.888Z</time></trkpt><trkpt lat="42.6693517" lon="-8.9373017"><ele>509.0</ele><time>2026-04-17T09:29:46.888Z</time></trkpt><trkpt lat="42.6693683" lon="-8.93712"><ele>507.66666666666663</ele><time>2026-04-17T09:29:47.887Z</time></trkpt><trkpt lat="42.669395" lon="-8.9369267"><ele>506.33333333333337</ele><time>2026-04-17T09:29:48.887Z</time></trkpt><trkpt lat="42.6694133" lon="-8.936725"><ele>505.0</ele><time>2026-04-17T09:29:49.888Z</time></trkpt><trkpt lat="42.669415" lon="-8.9365133"><ele>504.25</ele><time>2026-04-17T09:29:50.887Z</time></trkpt><trkpt lat="42.669415" lon="-8.9363267"><ele>503.5</ele><time>2026-04-17T09:29:51.887Z</time></trkpt><trkpt lat="42.669415" lon="-8.9361617"><ele>502.75</ele><time>2026-04-17T09:29:52.888Z</time></trkpt><trkpt lat="42.6694183" lon="-8.9360067"><ele>502.0</ele><time>2026-04-17T09:29:53.887Z</time></trkpt><trkpt lat="42.6694283" lon="-8.9358833"><ele>502.0</ele><time>2026-04-17T09:29:54.887Z</time></trkpt><trkpt lat="42.6694767" lon="-8.935745"><ele>502.0</ele><time>2026-04-17T09:29:56.888Z</time></trkpt><trkpt lat="42.6696283" lon="-8.9357017"><ele>502.0</ele><time>2026-04-17T09:29:58.887Z</time></trkpt><trkpt lat="42.6697567" lon="-8.935735"><ele>502.0</ele><time>2026-04-17T09:29:59.888Z</time></trkpt><trkpt lat="42.6699" lon="-8.9357783"><ele>502.0</ele><time>2026-04-17T09:30:00.888Z</time></trkpt><trkpt lat="42.67003" lon="-8.9358033"><ele>502.0</ele><time>2026-04-17T09:30:01.887Z</time></trkpt><trkpt lat="42.6701517" lon="-8.9358133"><ele>502.0</ele><time>2026-04-17T09:30:02.887Z</time></trkpt><trkpt lat="42.6702633" lon="-8.93583"><ele>502.0</ele><time>2026-04-17T09:30:03.887Z</time></trkpt><trkpt lat="42.6703867" lon="-8.9358567"><ele>503.40000000000003</ele><time>2026-04-17T09:30:04.888Z</time></trkpt><trkpt lat="42.67051" lon="-8.9358817"><ele>504.80000000000007</ele><time>2026-04-17T09:30:05.888Z</time></trkpt><trkpt lat="42.670615" lon="-8.93589"><ele>506.2</ele><time>2026-04-17T09:30:06.888Z</time></trkpt><trkpt lat="42.670695" lon="-8.935865"><ele>507.6</ele><time>2026-04-17T09:30:07.887Z</time></trkpt><trkpt lat="42.6707533" lon="-8.9357933"><ele>509.0</ele><time>2026-04-17T09:30:08.888Z</time></trkpt><trkpt lat="42.670805" lon="-8.9356883"><ele>509.0</ele><time>2026-04-17T09:30:09.887Z</time></trkpt><trkpt lat="42.6708317" lon="-8.9355217"><ele>509.0</ele><time>2026-04-17T09:30:10.887Z</time></trkpt><trkpt lat="42.670845" lon="-8.9353733"><ele>509.0</ele><time>2026-04-17T09:30:11.887Z</time></trkpt><trkpt lat="42.6708383" lon="-8.9352"><ele>509.0</ele><time>2026-04-17T09:30:12.888Z</time></trkpt><trkpt lat="42.6708233" lon="-8.9350033"><ele>507.25</ele><time>2026-04-17T09:30:13.887Z</time></trkpt><trkpt lat="42.6708067" lon="-8.9347983"><ele>505.5</ele><time>2026-04-17T09:30:14.887Z</time></trkpt><trkpt lat="42.6707783" lon="-8.9346017"><ele>503.75</ele><time>2026-04-17T09:30:15.888Z</time></trkpt><trkpt lat="42.6707317" lon="-8.9344317"><ele>502.0</ele><time>2026-04-17T09:30:16.887Z</time></trkpt><trkpt lat="42.670655" lon="-8.934265"><ele>503.33333333333337</ele><time>2026-04-17T09:30:17.887Z</time></trkpt><trkpt lat="42.6705583" lon="-8.9340817"><ele>504.66666666666663</ele><time>2026-04-17T09:30:18.887Z</time></trkpt><trkpt lat="42.6704617" lon="-8.9338867"><ele>506.0</ele><time>2026-04-17T09:30:19.887Z</time></trkpt><trkpt lat="42.67036" lon="-8.9336933"><ele>504.0</ele><time>2026-04-17T09:30:20.887Z</time></trkpt><trkpt lat="42.67027" lon="-8.9335283"><ele>502.0</ele><time>2026-04-17T09:30:21.887Z</time></trkpt><trkpt lat="42.6702" lon="-8.9333933"><ele>500.0</ele><time>2026-04-17T09:30:22.887Z</time></trkpt><trkpt lat="42.6701567" lon="-8.9332767"><ele>498.0</ele><time>2026-04-17T09:30:23.887Z</time></trkpt><trkpt lat="42.6701283" lon="-8.9331883"><ele>496.0</ele><time>2026-04-17T09:30:24.887Z</time></trkpt><trkpt lat="42.6701517" lon="-8.93306"><ele>496.0</ele><time>2026-04-17T09:30:26.887Z</time></trkpt><trkpt lat="42.6702633" lon="-8.933055"><ele>496.0</ele><time>2026-04-17T09:30:28.888Z</time></trkpt><trkpt lat="42.6703783" lon="-8.9331517"><ele>496.0</ele><time>2026-04-17T09:30:29.887Z</time></trkpt><trkpt lat="42.6704817" lon="-8.93323"><ele>496.0</ele><time>2026-04-17T09:30:30.888Z</time></trkpt><trkpt lat="42.6706283" lon="-8.9333483"><ele>498.5</ele><time>2026-04-17T09:30:31.887Z</time></trkpt><trkpt lat="42.6707717" lon="-8.9334567"><ele>501.0</ele><time>2026-04-17T09:30:32.887Z</time></trkpt><trkpt lat="42.67089" lon="-8.933535"><ele>503.5</ele><time>2026-04-17T09:30:33.888Z</time></trkpt><trkpt lat="42.6709783" lon="-8.933585"><ele>506.0</ele><time>2026-04-17T09:30:34.888Z</time></trkpt><trkpt lat="42.6710467" lon="-8.9335983"><ele>511.0</ele><time>2026-04-17T09:30:35.887Z</time></trkpt><trkpt lat="42.671125" lon="-8.9335067"><ele>516.0</ele><time>2026-04-17T09:30:37.887Z</time></trkpt><trkpt lat="42.6711317" lon="-8.9333567"><ele>521.0</ele><time>2026-04-17T09:30:38.888Z</time></trkpt><trkpt lat="42.67113" lon="-8.93313"><ele>526.0</ele><time>2026-04-17T09:30:39.887Z</time></trkpt><trkpt lat="42.671155" lon="-8.93285"><ele>526.0</ele><time>2026-04-17T09:30:40.888Z</time></trkpt><trkpt lat="42.67121" lon="-8.9326467"><ele>526.0</ele><time>2026-04-17T09:30:41.888Z</time></trkpt><trkpt lat="42.6713033" lon="-8.9324983"><ele>526.0</ele><time>2026-04-17T09:30:42.888Z</time></trkpt><trkpt lat="42.6714433" lon="-8.9323733"><ele>527.3333333333334</ele><time>2026-04-17T09:30:43.887Z</time></trkpt><trkpt lat="42.6716133" lon="-8.9322467"><ele>528.6666666666666</ele><time>2026-04-17T09:30:44.887Z</time></trkpt><trkpt lat="42.671805" lon="-8.932125"><ele>530.0</ele><time>2026-04-17T09:30:45.887Z</time></trkpt><trkpt lat="42.6719667" lon="-8.931985"><ele>530.0</ele><time>2026-04-17T09:30:46.888Z</time></trkpt><trkpt lat="42.6720983" lon="-8.9318683"><ele>530.0</ele><time>2026-04-17T09:30:47.888Z</time></trkpt><trkpt lat="42.67223" lon="-8.9317867"><ele>530.0</ele><time>2026-04-17T09:30:48.887Z</time></trkpt><trkpt lat="42.6723467" lon="-8.93172"><ele>530.0</ele><time>2026-04-17T09:30:49.887Z</time></trkpt><trkpt lat="42.6724617" lon="-8.931655"><ele>530.75</ele><time>2026-04-17T09:30:50.888Z</time></trkpt><trkpt lat="42.6725733" lon="-8.931575"><ele>531.5</ele><time>2026-04-17T09:30:51.887Z</time></trkpt><trkpt lat="42.6726783" lon="-8.9314633"><ele>532.25</ele><time>2026-04-17T09:30:52.888Z</time></trkpt><trkpt lat="42.6727767" lon="-8.931325"><ele>533.0</ele><time>2026-04-17T09:30:53.888Z</time></trkpt><trkpt lat="42.6728883" lon="-8.931175"><ele>533.0</ele><time>2026-04-17T09:30:54.887Z</time></trkpt><trkpt lat="42.6730067" lon="-8.93102"><ele>533.0</ele><time>2026-04-17T09:30:55.888Z</time></trkpt><trkpt lat="42.6731017" lon="-8.93088"><ele>533.0</ele><time>2026-04-17T09:30:56.888Z</time></trkpt><trkpt lat="42.673175" lon="-8.93074"><ele>533.0</ele><time>2026-04-17T09:30:57.887Z</time></trkpt><trkpt lat="42.6732083" lon="-8.9305833"><ele>529.75</ele><time>2026-04-17T09:30:58.888Z</time></trkpt><trkpt lat="42.67319" lon="-8.930435"><ele>526.5</ele><time>2026-04-17T09:30:59.888Z</time></trkpt><trkpt lat="42.6731267" lon="-8.9302933"><ele>523.25</ele><time>2026-04-17T09:31:00.887Z</time></trkpt><trkpt lat="42.6730333" lon="-8.9301467"><ele>520.0</ele><time>2026-04-17T09:31:01.888Z</time></trkpt><trkpt lat="42.6729167" lon="-8.9300283"><ele>517.5</ele><time>2026-04-17T09:31:02.887Z</time></trkpt><trkpt lat="42.672795" lon="-8.9299233"><ele>515.0</ele><time>2026-04-17T09:31:03.888Z</time></trkpt><trkpt lat="42.6726583" lon="-8.9298517"><ele>512.5</ele><time>2026-04-17T09:31:04.887Z</time></trkpt><trkpt lat="42.6725183" lon="-8.9298017"><ele>510.0</ele><time>2026-04-17T09:31:05.888Z</time></trkpt><trkpt lat="42.6723633" lon="-8.929775"><ele>507.33333333333337</ele><time>2026-04-17T09:31:06.887Z</time></trkpt><trkpt lat="42.6722033" lon="-8.9297517"><ele>504.6666666666667</ele><time>2026-04-17T09:31:07.888Z</time></trkpt><trkpt lat="42.6720317" lon="-8.92971"><ele>502.0</ele><time>2026-04-17T09:31:08.887Z</time></trkpt><trkpt lat="42.671855" lon="-8.9296567"><ele>502.0</ele><time>2026-04-17T09:31:09.887Z</time></trkpt><trkpt lat="42.67168" lon="-8.9295883"><ele>502.0</ele><time>2026-04-17T09:31:10.888Z</time></trkpt><trkpt lat="42.6715233" lon="-8.9295117"><ele>502.0</ele><time>2026-04-17T09:31:11.887Z</time></trkpt><trkpt lat="42.67138" lon="-8.9294117"><ele>502.0</ele><time>2026-04-17T09:31:12.887Z</time></trkpt><trkpt lat="42.6712517" lon="-8.9292983"><ele>502.0</ele><time>2026-04-17T09:31:13.887Z</time></trkpt><trkpt lat="42.6711367" lon="-8.9291683"><ele>502.0</ele><time>2026-04-17T09:31:14.888Z</time></trkpt><trkpt lat="42.6710367" lon="-8.92902"><ele>502.5</ele><time>2026-04-17T09:31:15.888Z</time></trkpt><trkpt lat="42.6709717" lon="-8.928855"><ele>503.0</ele><time>2026-04-17T09:31:16.887Z</time></trkpt><trkpt lat="42.670925" lon="-8.9286633"><ele>503.5</ele><time>2026-04-17T09:31:17.888Z</time></trkpt><trkpt lat="42.670905" lon="-8.9284433"><ele>504.0</ele><time>2026-04-17T09:31:18.888Z</time></trkpt><trkpt lat="42.6709233" lon="-8.92822"><ele>504.66666666666663</ele><time>2026-04-17T09:31:19.888Z</time></trkpt><trkpt lat="42.670965" lon="-8.9279683"><ele>505.3333333333333</ele><time>2026-04-17T09:31:20.887Z</time></trkpt><trkpt lat="42.6709967" lon="-8.9276967"><ele>506.0</ele><time>2026-04-17T09:31:21.888Z</time></trkpt><trkpt lat="42.6710183" lon="-8.92744"><ele>506.66666666666663</ele><time>2026-04-17T09:31:22.887Z</time></trkpt><trkpt lat="42.6710317" lon="-8.9272117"><ele>507.33333333333337</ele><time>2026-04-17T09:31:23.887Z</time></trkpt><trkpt lat="42.6710317" lon="-8.92699"><ele>508.0</ele><time>2026-04-17T09:31:24.888Z</time></trkpt><trkpt lat="42.6710133" lon="-8.9267617"><ele>509.0</ele><time>2026-04-17T09:31:25.888Z</time></trkpt><trkpt lat="42.671" lon="-8.9265433"><ele>510.0</ele><time>2026-04-17T09:31:26.887Z</time></trkpt><trkpt lat="42.6710083" lon="-8.926335"><ele>511.0</ele><time>2026-04-17T09:31:27.887Z</time></trkpt><trkpt lat="42.6710383" lon="-8.926155"><ele>511.0</ele><time>2026-04-17T09:31:28.888Z</time></trkpt><trkpt lat="42.6710917" lon="-8.9259917"><ele>511.0</ele><time>2026-04-17T09:31:29.887Z</time></trkpt><trkpt lat="42.67117" lon="-8.92582"><ele>511.0</ele><time>2026-04-17T09:31:30.887Z</time></trkpt><trkpt lat="42.6712567" lon="-8.9256617"><ele>511.0</ele><time>2026-04-17T09:31:31.888Z</time></trkpt><trkpt lat="42.6713483" lon="-8.92552"><ele>510.20000000000005</ele><time>2026-04-17T09:31:32.887Z</time></trkpt><trkpt lat="42.67145" lon="-8.9254133"><ele>509.40000000000003</ele><time>2026-04-17T09:31:33.887Z</time></trkpt><trkpt lat="42.6715433" lon="-8.9253317"><ele>508.6</ele><time>2026-04-17T09:31:34.887Z</time></trkpt><trkpt lat="42.6716317" lon="-8.9252617"><ele>507.8</ele><time>2026-04-17T09:31:35.888Z</time></trkpt><trkpt lat="42.6716917" lon="-8.9252"><ele>507.0</ele><time>2026-04-17T09:31:36.888Z</time></trkpt><trkpt lat="42.6717267" lon="-8.9250717"><ele>504.40000000000003</ele><time>2026-04-17T09:31:38.887Z</time></trkpt><trkpt lat="42.671645" lon="-8.92496"><ele>501.80000000000007</ele><time>2026-04-17T09:31:40.887Z</time></trkpt><trkpt lat="42.6715717" lon="-8.9249217"><ele>499.2</ele><time>2026-04-17T09:31:41.888Z</time></trkpt><trkpt lat="42.671475" lon="-8.9248867"><ele>496.6</ele><time>2026-04-17T09:31:42.887Z</time></trkpt><trkpt lat="42.6713483" lon="-8.9248533"><ele>494.0</ele><time>2026-04-17T09:31:43.887Z</time></trkpt><trkpt lat="42.6712283" lon="-8.9248283"><ele>494.0</ele><time>2026-04-17T09:31:44.887Z</time></trkpt><trkpt lat="42.6711183" lon="-8.9248017"><ele>494.0</ele><time>2026-04-17T09:31:45.887Z</time></trkpt><trkpt lat="42.6710117" lon="-8.92477"><ele>494.0</ele><time>2026-04-17T09:31:46.888Z</time></trkpt><trkpt lat="42.670925" lon="-8.92472"><ele>494.0</ele><time>2026-04-17T09:31:47.887Z</time></trkpt><trkpt lat="42.67085" lon="-8.9246567"><ele>494.0</ele><time>2026-04-17T09:31:48.888Z</time></trkpt><trkpt lat="42.6707867" lon="-8.9245617"><ele>494.3333333333333</ele><time>2026-04-17T09:31:49.887Z</time></trkpt><trkpt lat="42.6707333" lon="-8.9244483"><ele>494.66666666666663</ele><time>2026-04-17T09:31:50.887Z</time></trkpt><trkpt lat="42.6706967" lon="-8.924335"><ele>495.0</ele><time>2026-04-17T09:31:51.887Z</time></trkpt><trkpt lat="42.6706667" lon="-8.9242317"><ele>495.33333333333337</ele><time>2026-04-17T09:31:52.888Z</time></trkpt><trkpt lat="42.6706383" lon="-8.9241283"><ele>495.6666666666667</ele><time>2026-04-17T09:31:53.887Z</time></trkpt><trkpt lat="42.6706233" lon="-8.9240383"><ele>496.0</ele><time>2026-04-17T09:31:54.887Z</time></trkpt><trkpt lat="42.670625" lon="-8.9239133"><ele>492.83333333333337</ele><time>2026-04-17T09:31:56.887Z</time></trkpt><trkpt lat="42.6707" lon="-8.923895"><ele>489.6666666666667</ele><time>2026-04-17T09:31:58.887Z</time></trkpt><trkpt lat="42.6707633" lon="-8.9239117"><ele>486.5</ele><time>2026-04-17T09:31:59.887Z</time></trkpt><trkpt lat="42.6708433" lon="-8.9239333"><ele>483.33333333333337</ele><time>2026-04-17T09:32:00.888Z</time></trkpt><trkpt lat="42.6709483" lon="-8.92396"><ele>480.1666666666667</ele><time>2026-04-17T09:32:01.888Z</time></trkpt><trkpt lat="42.6710667" lon="-8.923975"><ele>477.0</ele><time>2026-04-17T09:32:02.888Z</time></trkpt><trkpt lat="42.6711917" lon="-8.923975"><ele>476.5</ele><time>2026-04-17T09:32:03.887Z</time></trkpt><trkpt lat="42.671315" lon="-8.92397"><ele>476.0</ele><time>2026-04-17T09:32:04.887Z</time></trkpt><trkpt lat="42.6714233" lon="-8.9239567"><ele>475.5</ele><time>2026-04-17T09:32:05.888Z</time></trkpt><trkpt lat="42.671535" lon="-8.9239517"><ele>475.0</ele><time>2026-04-17T09:32:06.888Z</time></trkpt><trkpt lat="42.6716483" lon="-8.9239483"><ele>475.0</ele><time>2026-04-17T09:32:07.887Z</time></trkpt><trkpt lat="42.67176" lon="-8.9239483"><ele>475.0</ele><time>2026-04-17T09:32:08.888Z</time></trkpt><trkpt lat="42.67187" lon="-8.9239367"><ele>475.0</ele><time>2026-04-17T09:32:09.887Z</time></trkpt><trkpt lat="42.6719683" lon="-8.9239083"><ele>475.0</ele><time>2026-04-17T09:32:10.888Z</time></trkpt><trkpt lat="42.6720567" lon="-8.92387"><ele>475.0</ele><time>2026-04-17T09:32:11.888Z</time></trkpt><trkpt lat="42.6721267" lon="-8.9238017"><ele>474.4</ele><time>2026-04-17T09:32:12.887Z</time></trkpt><trkpt lat="42.6721733" lon="-8.9237317"><ele>473.8</ele><time>2026-04-17T09:32:13.887Z</time></trkpt><trkpt lat="42.6722083" lon="-8.9236083"><ele>473.20000000000005</ele><time>2026-04-17T09:32:15.887Z</time></trkpt><trkpt lat="42.6721833" lon="-8.9234217"><ele>472.6</ele><time>2026-04-17T09:32:17.887Z</time></trkpt><trkpt lat="42.672135" lon="-8.9232667"><ele>472.0</ele><time>2026-04-17T09:32:18.887Z</time></trkpt><trkpt lat="42.6720567" lon="-8.9230717"><ele>472.0</ele><time>2026-04-17T09:32:19.887Z</time></trkpt><trkpt lat="42.67198" lon="-8.9228967"><ele>472.0</ele><time>2026-04-17T09:32:20.887Z</time></trkpt><trkpt lat="42.6719183" lon="-8.9227333"><ele>472.0</ele><time>2026-04-17T09:32:21.888Z</time></trkpt><trkpt lat="42.671875" lon="-8.9225933"><ele>472.0</ele><time>2026-04-17T09:32:22.887Z</time></trkpt><trkpt lat="42.67185" lon="-8.9224733"><ele>471.0</ele><time>2026-04-17T09:32:23.887Z</time></trkpt><trkpt lat="42.67184" lon="-8.9223683"><ele>470.00000000000006</ele><time>2026-04-17T09:32:24.888Z</time></trkpt><trkpt lat="42.67187" lon="-8.9221983"><ele>469.00000000000006</ele><time>2026-04-17T09:32:26.888Z</time></trkpt><trkpt lat="42.67191" lon="-8.9221067"><ele>468.0</ele><time>2026-04-17T09:32:27.888Z</time></trkpt><trkpt lat="42.67197" lon="-8.921995"><ele>467.0</ele><time>2026-04-17T09:32:28.887Z</time></trkpt><trkpt lat="42.67205" lon="-8.9218633"><ele>463.0</ele><time>2026-04-17T09:32:29.887Z</time></trkpt><trkpt lat="42.67214" lon="-8.92173"><ele>459.0</ele><time>2026-04-17T09:32:30.887Z</time></trkpt><trkpt lat="42.6722283" lon="-8.9216083"><ele>455.0</ele><time>2026-04-17T09:32:31.888Z</time></trkpt><trkpt lat="42.6723017" lon="-8.9214967"><ele>451.0</ele><time>2026-04-17T09:32:32.887Z</time></trkpt><trkpt lat="42.67236" lon="-8.92138"><ele>451.0</ele><time>2026-04-17T09:32:33.887Z</time></trkpt><trkpt lat="42.6724017" lon="-8.9212417"><ele>451.0</ele><time>2026-04-17T09:32:34.887Z</time></trkpt><trkpt lat="42.672425" lon="-8.92107"><ele>451.0</ele><time>2026-04-17T09:32:35.888Z</time></trkpt><trkpt lat="42.6724617" lon="-8.9208783"><ele>451.0</ele><time>2026-04-17T09:32:36.887Z</time></trkpt><trkpt lat="42.6725033" lon="-8.920685"><ele>447.0</ele><time>2026-04-17T09:32:37.887Z</time></trkpt><trkpt lat="42.6725367" lon="-8.9204867"><ele>443.0</ele><time>2026-04-17T09:32:38.887Z</time></trkpt><trkpt lat="42.6725667" lon="-8.9203183"><ele>439.0</ele><time>2026-04-17T09:32:39.887Z</time></trkpt><trkpt lat="42.6725833" lon="-8.920145"><ele>435.0</ele><time>2026-04-17T09:32:40.887Z</time></trkpt><trkpt lat="42.672595" lon="-8.919955"><ele>433.0</ele><time>2026-04-17T09:32:41.887Z</time></trkpt><trkpt lat="42.6726" lon="-8.9197517"><ele>431.0</ele><time>2026-04-17T09:32:42.888Z</time></trkpt><trkpt lat="42.672615" lon="-8.919565"><ele>429.0</ele><time>2026-04-17T09:32:43.887Z</time></trkpt><trkpt lat="42.672645" lon="-8.9194067"><ele>427.0</ele><time>2026-04-17T09:32:44.888Z</time></trkpt><trkpt lat="42.6727" lon="-8.9192683"><ele>428.0</ele><time>2026-04-17T09:32:45.887Z</time></trkpt><trkpt lat="42.6727667" lon="-8.9191517"><ele>429.0</ele><time>2026-04-17T09:32:46.888Z</time></trkpt><trkpt lat="42.67287" lon="-8.9190517"><ele>430.0</ele><time>2026-04-17T09:32:47.887Z</time></trkpt><trkpt lat="42.672995" lon="-8.9189667"><ele>431.0</ele><time>2026-04-17T09:32:48.887Z</time></trkpt><trkpt lat="42.67312" lon="-8.9189"><ele>431.0</ele><time>2026-04-17T09:32:49.887Z</time></trkpt><trkpt lat="42.67324" lon="-8.9188783"><ele>431.0</ele><time>2026-04-17T09:32:50.888Z</time></trkpt><trkpt lat="42.673365" lon="-8.9188633"><ele>431.0</ele><time>2026-04-17T09:32:51.889Z</time></trkpt><trkpt lat="42.6734883" lon="-8.91887"><ele>431.0</ele><time>2026-04-17T09:32:52.888Z</time></trkpt><trkpt lat="42.6736033" lon="-8.9188967"><ele>429.5</ele><time>2026-04-17T09:32:53.889Z</time></trkpt><trkpt lat="42.673715" lon="-8.9189133"><ele>428.0</ele><time>2026-04-17T09:32:54.888Z</time></trkpt><trkpt lat="42.6738267" lon="-8.918925"><ele>426.5</ele><time>2026-04-17T09:32:55.888Z</time></trkpt><trkpt lat="42.6739483" lon="-8.91892"><ele>425.0</ele><time>2026-04-17T09:32:56.889Z</time></trkpt><trkpt lat="42.6740733" lon="-8.9189217"><ele>425.0</ele><time>2026-04-17T09:32:57.889Z</time></trkpt><trkpt lat="42.6741933" lon="-8.918925"><ele>425.0</ele><time>2026-04-17T09:32:58.889Z</time></trkpt><trkpt lat="42.6743" lon="-8.91895"><ele>425.0</ele><time>2026-04-17T09:32:59.889Z</time></trkpt><trkpt lat="42.6744017" lon="-8.919005"><ele>425.0</ele><time>2026-04-17T09:33:00.889Z</time></trkpt><trkpt lat="42.6745133" lon="-8.9190733"><ele>423.66666666666663</ele><time>2026-04-17T09:33:01.889Z</time></trkpt><trkpt lat="42.6746483" lon="-8.91913"><ele>422.33333333333337</ele><time>2026-04-17T09:33:02.889Z</time></trkpt><trkpt lat="42.6748033" lon="-8.9191617"><ele>421.0</ele><time>2026-04-17T09:33:03.888Z</time></trkpt><trkpt lat="42.674975" lon="-8.919165"><ele>421.0</ele><time>2026-04-17T09:33:04.889Z</time></trkpt><trkpt lat="42.67516" lon="-8.9191633"><ele>421.0</ele><time>2026-04-17T09:33:05.888Z</time></trkpt><trkpt lat="42.67535" lon="-8.91916"><ele>421.0</ele><time>2026-04-17T09:33:06.888Z</time></trkpt><trkpt lat="42.67551" lon="-8.9191267"><ele>423.33333333333337</ele><time>2026-04-17T09:33:07.889Z</time></trkpt><trkpt lat="42.6756617" lon="-8.919085"><ele>425.66666666666663</ele><time>2026-04-17T09:33:08.888Z</time></trkpt><trkpt lat="42.6758183" lon="-8.919045"><ele>428.0</ele><time>2026-04-17T09:33:09.888Z</time></trkpt><trkpt lat="42.6759833" lon="-8.9190133"><ele>427.3333333333333</ele><time>2026-04-17T09:33:10.889Z</time></trkpt><trkpt lat="42.676155" lon="-8.9189883"><ele>426.66666666666663</ele><time>2026-04-17T09:33:11.889Z</time></trkpt><trkpt lat="42.67632" lon="-8.9189783"><ele>426.0</ele><time>2026-04-17T09:33:12.889Z</time></trkpt><trkpt lat="42.676495" lon="-8.9189817"><ele>426.0</ele><time>2026-04-17T09:33:13.888Z</time></trkpt><trkpt lat="42.676665" lon="-8.9189967"><ele>426.0</ele><time>2026-04-17T09:33:14.888Z</time></trkpt><trkpt lat="42.67683" lon="-8.919025"><ele>426.0</ele><time>2026-04-17T09:33:15.888Z</time></trkpt><trkpt lat="42.6769767" lon="-8.9190167"><ele>430.0</ele><time>2026-04-17T09:33:16.888Z</time></trkpt><trkpt lat="42.6770933" lon="-8.9189633"><ele>434.0</ele><time>2026-04-17T09:33:17.889Z</time></trkpt><trkpt lat="42.677215" lon="-8.9188783"><ele>438.0</ele><time>2026-04-17T09:33:18.888Z</time></trkpt><trkpt lat="42.6773483" lon="-8.9187767"><ele>442.0</ele><time>2026-04-17T09:33:19.889Z</time></trkpt><trkpt lat="42.6774783" lon="-8.9186783"><ele>442.0</ele><time>2026-04-17T09:33:20.888Z</time></trkpt><trkpt lat="42.67761" lon="-8.9186033"><ele>442.0</ele><time>2026-04-17T09:33:21.889Z</time></trkpt><trkpt lat="42.6777383" lon="-8.9185167"><ele>442.0</ele><time>2026-04-17T09:33:22.888Z</time></trkpt><trkpt lat="42.6778667" lon="-8.9184383"><ele>442.0</ele><time>2026-04-17T09:33:23.888Z</time></trkpt><trkpt lat="42.6780033" lon="-8.9183583"><ele>441.6666666666667</ele><time>2026-04-17T09:33:24.889Z</time></trkpt><trkpt lat="42.678145" lon="-8.918285"><ele>441.33333333333337</ele><time>2026-04-17T09:33:25.888Z</time></trkpt><trkpt lat="42.67828" lon="-8.9181883"><ele>441.0</ele><time>2026-04-17T09:33:26.888Z</time></trkpt><trkpt lat="42.6784033" lon="-8.9180717"><ele>441.0</ele><time>2026-04-17T09:33:27.888Z</time></trkpt><trkpt lat="42.6784983" lon="-8.917915"><ele>441.0</ele><time>2026-04-17T09:33:28.889Z</time></trkpt><trkpt lat="42.6785817" lon="-8.9177367"><ele>441.0</ele><time>2026-04-17T09:33:29.889Z</time></trkpt><trkpt lat="42.6786633" lon="-8.91758"><ele>441.0</ele><time>2026-04-17T09:33:30.889Z</time></trkpt><trkpt lat="42.6787683" lon="-8.9174567"><ele>441.75</ele><time>2026-04-17T09:33:31.889Z</time></trkpt><trkpt lat="42.678895" lon="-8.9173483"><ele>442.5</ele><time>2026-04-17T09:33:32.888Z</time></trkpt><trkpt lat="42.6790283" lon="-8.917245"><ele>443.25</ele><time>2026-04-17T09:33:33.889Z</time></trkpt><trkpt lat="42.6791383" lon="-8.9171383"><ele>444.0</ele><time>2026-04-17T09:33:34.889Z</time></trkpt><trkpt lat="42.679205" lon="-8.9170083"><ele>444.0</ele><time>2026-04-17T09:33:35.889Z</time></trkpt><trkpt lat="42.679245" lon="-8.9168283"><ele>444.0</ele><time>2026-04-17T09:33:36.888Z</time></trkpt><trkpt lat="42.679285" lon="-8.9166617"><ele>444.0</ele><time>2026-04-17T09:33:37.888Z</time></trkpt><trkpt lat="42.6793333" lon="-8.9164933"><ele>444.0</ele><time>2026-04-17T09:33:38.888Z</time></trkpt><trkpt lat="42.6793933" lon="-8.9163383"><ele>445.25</ele><time>2026-04-17T09:33:39.888Z</time></trkpt><trkpt lat="42.6794617" lon="-8.9162083"><ele>446.5</ele><time>2026-04-17T09:33:40.889Z</time></trkpt><trkpt lat="42.679535" lon="-8.9160983"><ele>447.75</ele><time>2026-04-17T09:33:41.888Z</time></trkpt><trkpt lat="42.679625" lon="-8.915985"><ele>449.0</ele><time>2026-04-17T09:33:42.888Z</time></trkpt><trkpt lat="42.67972" lon="-8.9158917"><ele>443.6</ele><time>2026-04-17T09:33:43.888Z</time></trkpt><trkpt lat="42.6798017" lon="-8.9158083"><ele>438.2</ele><time>2026-04-17T09:33:44.889Z</time></trkpt><trkpt lat="42.679865" lon="-8.9157367"><ele>432.8</ele><time>2026-04-17T09:33:45.889Z</time></trkpt><trkpt lat="42.6799267" lon="-8.915605"><ele>427.40000000000003</ele><time>2026-04-17T09:33:47.888Z</time></trkpt><trkpt lat="42.6799" lon="-8.9154717"><ele>422.0</ele><time>2026-04-17T09:33:49.888Z</time></trkpt><trkpt lat="42.6798367" lon="-8.915425"><ele>422.0</ele><time>2026-04-17T09:33:50.888Z</time></trkpt><trkpt lat="42.6797283" lon="-8.9154067"><ele>422.0</ele><time>2026-04-17T09:33:51.888Z</time></trkpt><trkpt lat="42.679595" lon="-8.9154283"><ele>422.0</ele><time>2026-04-17T09:33:52.888Z</time></trkpt><trkpt lat="42.6794833" lon="-8.915445"><ele>422.0</ele><time>2026-04-17T09:33:53.889Z</time></trkpt><trkpt lat="42.679385" lon="-8.91546"><ele>419.20000000000005</ele><time>2026-04-17T09:33:54.889Z</time></trkpt><trkpt lat="42.6793217" lon="-8.915455"><ele>416.4</ele><time>2026-04-17T09:33:55.888Z</time></trkpt><trkpt lat="42.6792717" lon="-8.915365"><ele>413.6</ele><time>2026-04-17T09:33:57.889Z</time></trkpt><trkpt lat="42.679295" lon="-8.9152783"><ele>410.79999999999995</ele><time>2026-04-17T09:33:58.889Z</time></trkpt><trkpt lat="42.6793667" lon="-8.9151667"><ele>408.0</ele><time>2026-04-17T09:33:59.888Z</time></trkpt><trkpt lat="42.6794617" lon="-8.9150417"><ele>404.33333333333337</ele><time>2026-04-17T09:34:00.889Z</time></trkpt><trkpt lat="42.67959" lon="-8.9149183"><ele>400.6666666666667</ele><time>2026-04-17T09:34:01.888Z</time></trkpt><trkpt lat="42.679755" lon="-8.9148183"><ele>397.0</ele><time>2026-04-17T09:34:02.888Z</time></trkpt><trkpt lat="42.679935" lon="-8.9147417"><ele>397.0</ele><time>2026-04-17T09:34:03.889Z</time></trkpt><trkpt lat="42.680125" lon="-8.914695"><ele>397.0</ele><time>2026-04-17T09:34:04.888Z</time></trkpt><trkpt lat="42.68031" lon="-8.914665"><ele>397.0</ele><time>2026-04-17T09:34:05.889Z</time></trkpt><trkpt lat="42.6804817" lon="-8.91463"><ele>396.6666666666667</ele><time>2026-04-17T09:34:06.889Z</time></trkpt><trkpt lat="42.6806383" lon="-8.9146067"><ele>396.33333333333337</ele><time>2026-04-17T09:34:07.889Z</time></trkpt><trkpt lat="42.6807817" lon="-8.9145617"><ele>396.0</ele><time>2026-04-17T09:34:08.889Z</time></trkpt><trkpt lat="42.6809217" lon="-8.9145033"><ele>396.0</ele><time>2026-04-17T09:34:09.889Z</time></trkpt><trkpt lat="42.6810517" lon="-8.91445"><ele>396.0</ele><time>2026-04-17T09:34:10.888Z</time></trkpt><trkpt lat="42.6811767" lon="-8.9143883"><ele>396.0</ele><time>2026-04-17T09:34:11.889Z</time></trkpt><trkpt lat="42.6812883" lon="-8.9143233"><ele>396.0</ele><time>2026-04-17T09:34:12.889Z</time></trkpt><trkpt lat="42.6813783" lon="-8.91424"><ele>390.20000000000005</ele><time>2026-04-17T09:34:13.888Z</time></trkpt><trkpt lat="42.681465" lon="-8.9141467"><ele>384.40000000000003</ele><time>2026-04-17T09:34:14.889Z</time></trkpt><trkpt lat="42.6815333" lon="-8.9140483"><ele>378.6</ele><time>2026-04-17T09:34:15.889Z</time></trkpt><trkpt lat="42.6816017" lon="-8.913945"><ele>372.8</ele><time>2026-04-17T09:34:16.888Z</time></trkpt><trkpt lat="42.6816717" lon="-8.9138433"><ele>367.0</ele><time>2026-04-17T09:34:17.889Z</time></trkpt><trkpt lat="42.6817517" lon="-8.913755"><ele>367.0</ele><time>2026-04-17T09:34:18.889Z</time></trkpt><trkpt lat="42.6818467" lon="-8.9136917"><ele>367.0</ele><time>2026-04-17T09:34:19.889Z</time></trkpt><trkpt lat="42.6819633" lon="-8.9136433"><ele>367.0</ele><time>2026-04-17T09:34:20.888Z</time></trkpt><trkpt lat="42.6820783" lon="-8.9136083"><ele>367.0</ele><time>2026-04-17T09:34:21.888Z</time></trkpt><trkpt lat="42.682175" lon="-8.91358"><ele>367.0</ele><time>2026-04-17T09:34:22.888Z</time></trkpt><trkpt lat="42.68225" lon="-8.9135667"><ele>365.0</ele><time>2026-04-17T09:34:23.888Z</time></trkpt><trkpt lat="42.6823317" lon="-8.9134933"><ele>363.0</ele><time>2026-04-17T09:34:25.888Z</time></trkpt><trkpt lat="42.6823383" lon="-8.9133717"><ele>361.0</ele><time>2026-04-17T09:34:27.888Z</time></trkpt><trkpt lat="42.682305" lon="-8.9132417"><ele>359.0</ele><time>2026-04-17T09:34:28.888Z</time></trkpt><trkpt lat="42.6822583" lon="-8.9131033"><ele>357.0</ele><time>2026-04-17T09:34:29.888Z</time></trkpt><trkpt lat="42.6822167" lon="-8.9129833"><ele>353.8333333333333</ele><time>2026-04-17T09:34:30.889Z</time></trkpt><trkpt lat="42.6821867" lon="-8.9128733"><ele>350.6666666666667</ele><time>2026-04-17T09:34:31.889Z</time></trkpt><trkpt lat="42.6821717" lon="-8.912785"><ele>347.5</ele><time>2026-04-17T09:34:32.888Z</time></trkpt><trkpt lat="42.6822017" lon="-8.91267"><ele>344.33333333333337</ele><time>2026-04-17T09:34:34.888Z</time></trkpt><trkpt lat="42.682265" lon="-8.912665"><ele>341.1666666666667</ele><time>2026-04-17T09:34:35.888Z</time></trkpt><trkpt lat="42.6823433" lon="-8.9126967"><ele>338.0</ele><time>2026-04-17T09:34:36.889Z</time></trkpt><trkpt lat="42.6824067" lon="-8.912725"><ele>338.0</ele><time>2026-04-17T09:34:37.889Z</time></trkpt><trkpt lat="42.6824917" lon="-8.9127083"><ele>338.0</ele><time>2026-04-17T09:34:39.889Z</time></trkpt><trkpt lat="42.6824817" lon="-8.9125717"><ele>338.0</ele><time>2026-04-17T09:34:41.888Z</time></trkpt><trkpt lat="42.682435" lon="-8.9124483"><ele>338.0</ele><time>2026-04-17T09:34:42.888Z</time></trkpt><trkpt lat="42.6823667" lon="-8.9123283"><ele>338.0</ele><time>2026-04-17T09:34:43.888Z</time></trkpt><trkpt lat="42.682295" lon="-8.9122383"><ele>335.0</ele><time>2026-04-17T09:34:44.888Z</time></trkpt><trkpt lat="42.68221" lon="-8.912205"><ele>332.0</ele><time>2026-04-17T09:34:45.889Z</time></trkpt><trkpt lat="42.6821067" lon="-8.9122267"><ele>329.0</ele><time>2026-04-17T09:34:46.889Z</time></trkpt><trkpt lat="42.6819817" lon="-8.9122833"><ele>326.0</ele><time>2026-04-17T09:34:47.888Z</time></trkpt><trkpt lat="42.6818433" lon="-8.91236"><ele>324.33333333333337</ele><time>2026-04-17T09:34:48.888Z</time></trkpt><trkpt lat="42.6816783" lon="-8.9124683"><ele>322.6666666666667</ele><time>2026-04-17T09:34:49.888Z</time></trkpt><trkpt lat="42.681515" lon="-8.9125667"><ele>321.0</ele><time>2026-04-17T09:34:50.889Z</time></trkpt><trkpt lat="42.6813783" lon="-8.9126517"><ele>321.0</ele><time>2026-04-17T09:34:51.888Z</time></trkpt><trkpt lat="42.6812633" lon="-8.912725"><ele>321.0</ele><time>2026-04-17T09:34:52.888Z</time></trkpt><trkpt lat="42.6811983" lon="-8.912775"><ele>321.0</ele><time>2026-04-17T09:34:53.889Z</time></trkpt><trkpt lat="42.681225" lon="-8.9126783"><ele>321.0</ele><time>2026-04-17T09:34:58.889Z</time></trkpt><trkpt lat="42.6813233" lon="-8.9126167"><ele>321.0</ele><time>2026-04-17T09:34:59.888Z</time></trkpt><trkpt lat="42.68145" lon="-8.9125583"><ele>321.0</ele><time>2026-04-17T09:35:00.888Z</time></trkpt><trkpt lat="42.6816183" lon="-8.9124817"><ele>321.0</ele><time>2026-04-17T09:35:01.889Z</time></trkpt><trkpt lat="42.6817883" lon="-8.9124033"><ele>321.0</ele><time>2026-04-17T09:35:02.888Z</time></trkpt><trkpt lat="42.6819317" lon="-8.9123167"><ele>322.0</ele><time>2026-04-17T09:35:03.888Z</time></trkpt><trkpt lat="42.6820383" lon="-8.9122467"><ele>323.0</ele><time>2026-04-17T09:35:04.888Z</time></trkpt><trkpt lat="42.6821217" lon="-8.9121833"><ele>324.0</ele><time>2026-04-17T09:35:05.889Z</time></trkpt><trkpt lat="42.6821967" lon="-8.912125"><ele>325.0</ele><time>2026-04-17T09:35:06.888Z</time></trkpt><trkpt lat="42.68226" lon="-8.912065"><ele>326.0</ele><time>2026-04-17T09:35:07.888Z</time></trkpt><trkpt lat="42.6823383" lon="-8.9120233"><ele>326.0</ele><time>2026-04-17T09:35:08.889Z</time></trkpt><trkpt lat="42.682415" lon="-8.9120017"><ele>326.0</ele><time>2026-04-17T09:35:09.888Z</time></trkpt><trkpt lat="42.6825" lon="-8.912025"><ele>326.0</ele><time>2026-04-17T09:35:10.888Z</time></trkpt><trkpt lat="42.6826017" lon="-8.9120933"><ele>326.0</ele><time>2026-04-17T09:35:11.889Z</time></trkpt><trkpt lat="42.6827067" lon="-8.912205"><ele>326.0</ele><time>2026-04-17T09:35:12.888Z</time></trkpt><trkpt lat="42.6828117" lon="-8.9123767"><ele>324.40000000000003</ele><time>2026-04-17T09:35:13.888Z</time></trkpt><trkpt lat="42.682895" lon="-8.9125267"><ele>322.8</ele><time>2026-04-17T09:35:14.888Z</time></trkpt><trkpt lat="42.6829767" lon="-8.9126567"><ele>321.20000000000005</ele><time>2026-04-17T09:35:15.888Z</time></trkpt><trkpt lat="42.68304" lon="-8.91272"><ele>319.6</ele><time>2026-04-17T09:35:16.888Z</time></trkpt><trkpt lat="42.6831233" lon="-8.91276"><ele>318.0</ele><time>2026-04-17T09:35:18.889Z</time></trkpt><trkpt lat="42.6831567" lon="-8.912655"><ele>313.75</ele><time>2026-04-17T09:35:20.888Z</time></trkpt><trkpt lat="42.6831467" lon="-8.9125333"><ele>309.5</ele><time>2026-04-17T09:35:21.889Z</time></trkpt><trkpt lat="42.6831233" lon="-8.91236"><ele>305.25</ele><time>2026-04-17T09:35:22.888Z</time></trkpt><trkpt lat="42.6830967" lon="-8.91214"><ele>301.0</ele><time>2026-04-17T09:35:23.889Z</time></trkpt><trkpt lat="42.68305" lon="-8.9118867"><ele>297.0</ele><time>2026-04-17T09:35:24.888Z</time></trkpt><trkpt lat="42.683" lon="-8.9116467"><ele>293.0</ele><time>2026-04-17T09:35:25.888Z</time></trkpt><trkpt lat="42.6829517" lon="-8.9114483"><ele>289.0</ele><time>2026-04-17T09:35:26.889Z</time></trkpt><trkpt lat="42.6828967" lon="-8.9112617"><ele>289.0</ele><time>2026-04-17T09:35:27.889Z</time></trkpt><trkpt lat="42.6828533" lon="-8.9110967"><ele>289.0</ele><time>2026-04-17T09:35:28.889Z</time></trkpt><trkpt lat="42.6828133" lon="-8.9109517"><ele>289.0</ele><time>2026-04-17T09:35:29.888Z</time></trkpt><trkpt lat="42.6827867" lon="-8.91082"><ele>289.0</ele><time>2026-04-17T09:35:30.888Z</time></trkpt><trkpt lat="42.6827717" lon="-8.9107133"><ele>289.0</ele><time>2026-04-17T09:35:31.889Z</time></trkpt><trkpt lat="42.6827733" lon="-8.91062"><ele>286.4</ele><time>2026-04-17T09:35:32.888Z</time></trkpt><trkpt lat="42.6828383" lon="-8.9105083"><ele>283.79999999999995</ele><time>2026-04-17T09:35:34.888Z</time></trkpt><trkpt lat="42.6829133" lon="-8.9104767"><ele>281.20000000000005</ele><time>2026-04-17T09:35:35.889Z</time></trkpt><trkpt lat="42.683005" lon="-8.91048"><ele>278.6</ele><time>2026-04-17T09:35:36.888Z</time></trkpt><trkpt lat="42.68312" lon="-8.910535"><ele>276.0</ele><time>2026-04-17T09:35:37.889Z</time></trkpt><trkpt lat="42.6832367" lon="-8.9106233"><ele>276.0</ele><time>2026-04-17T09:35:38.888Z</time></trkpt><trkpt lat="42.6833583" lon="-8.9107467"><ele>276.0</ele><time>2026-04-17T09:35:39.889Z</time></trkpt><trkpt lat="42.6834867" lon="-8.9108383"><ele>276.0</ele><time>2026-04-17T09:35:40.888Z</time></trkpt><trkpt lat="42.68361" lon="-8.9108983"><ele>276.0</ele><time>2026-04-17T09:35:41.888Z</time></trkpt><trkpt lat="42.6837233" lon="-8.9109483"><ele>275.6</ele><time>2026-04-17T09:35:42.889Z</time></trkpt><trkpt lat="42.683825" lon="-8.9110133"><ele>275.20000000000005</ele><time>2026-04-17T09:35:43.889Z</time></trkpt><trkpt lat="42.6839167" lon="-8.9110667"><ele>274.79999999999995</ele><time>2026-04-17T09:35:44.889Z</time></trkpt><trkpt lat="42.68399" lon="-8.9111417"><ele>274.4</ele><time>2026-04-17T09:35:45.888Z</time></trkpt><trkpt lat="42.6840467" lon="-8.91122"><ele>274.0</ele><time>2026-04-17T09:35:46.888Z</time></trkpt><trkpt lat="42.6840817" lon="-8.9113033"><ele>274.0</ele><time>2026-04-17T09:35:47.888Z</time></trkpt><trkpt lat="42.6841" lon="-8.911395"><ele>274.0</ele><time>2026-04-17T09:35:48.889Z</time></trkpt><trkpt lat="42.6841517" lon="-8.91151"><ele>274.0</ele><time>2026-04-17T09:35:50.888Z</time></trkpt><trkpt lat="42.6842683" lon="-8.9115317"><ele>274.0</ele><time>2026-04-17T09:35:52.888Z</time></trkpt><trkpt lat="42.6843567" lon="-8.9115033"><ele>274.0</ele><time>2026-04-17T09:35:53.888Z</time></trkpt><trkpt lat="42.6844883" lon="-8.9114433"><ele>276.66666666666663</ele><time>2026-04-17T09:35:54.888Z</time></trkpt><trkpt lat="42.684665" lon="-8.9113833"><ele>279.3333333333333</ele><time>2026-04-17T09:35:55.889Z</time></trkpt><trkpt lat="42.6848683" lon="-8.9113333"><ele>282.0</ele><time>2026-04-17T09:35:56.888Z</time></trkpt><trkpt lat="42.6850617" lon="-8.9112983"><ele>282.0</ele><time>2026-04-17T09:35:57.888Z</time></trkpt><trkpt lat="42.6852283" lon="-8.9112717"><ele>282.0</ele><time>2026-04-17T09:35:58.889Z</time></trkpt><trkpt lat="42.685365" lon="-8.91127"><ele>282.0</ele><time>2026-04-17T09:35:59.888Z</time></trkpt><trkpt lat="42.6854917" lon="-8.9113283"><ele>282.0</ele><time>2026-04-17T09:36:00.888Z</time></trkpt><trkpt lat="42.6856033" lon="-8.91143"><ele>283.75</ele><time>2026-04-17T09:36:01.888Z</time></trkpt><trkpt lat="42.6857" lon="-8.9115733"><ele>285.5</ele><time>2026-04-17T09:36:02.888Z</time></trkpt><trkpt lat="42.6858017" lon="-8.911705"><ele>287.25</ele><time>2026-04-17T09:36:03.889Z</time></trkpt><trkpt lat="42.6859017" lon="-8.9118"><ele>289.0</ele><time>2026-04-17T09:36:04.888Z</time></trkpt><trkpt lat="42.686015" lon="-8.9118517"><ele>293.75</ele><time>2026-04-17T09:36:05.889Z</time></trkpt><trkpt lat="42.6861383" lon="-8.911865"><ele>298.5</ele><time>2026-04-17T09:36:06.889Z</time></trkpt><trkpt lat="42.6862683" lon="-8.9118167"><ele>303.25</ele><time>2026-04-17T09:36:07.888Z</time></trkpt><trkpt lat="42.6863967" lon="-8.91172"><ele>308.0</ele><time>2026-04-17T09:36:08.889Z</time></trkpt><trkpt lat="42.6865217" lon="-8.9116067"><ele>308.0</ele><time>2026-04-17T09:36:09.888Z</time></trkpt><trkpt lat="42.68664" lon="-8.9114583"><ele>308.0</ele><time>2026-04-17T09:36:10.888Z</time></trkpt><trkpt lat="42.6867567" lon="-8.9113217"><ele>308.0</ele><time>2026-04-17T09:36:11.888Z</time></trkpt><trkpt lat="42.6868583" lon="-8.9112217"><ele>308.0</ele><time>2026-04-17T09:36:12.889Z</time></trkpt><trkpt lat="42.6869467" lon="-8.9111567"><ele>308.25</ele><time>2026-04-17T09:36:13.888Z</time></trkpt><trkpt lat="42.6870433" lon="-8.911125"><ele>308.5</ele><time>2026-04-17T09:36:14.888Z</time></trkpt><trkpt lat="42.6871517" lon="-8.9111233"><ele>308.75</ele><time>2026-04-17T09:36:15.889Z</time></trkpt><trkpt lat="42.6872817" lon="-8.9111317"><ele>309.0</ele><time>2026-04-17T09:36:16.889Z</time></trkpt><trkpt lat="42.6874167" lon="-8.911135"><ele>309.0</ele><time>2026-04-17T09:36:17.888Z</time></trkpt><trkpt lat="42.6875383" lon="-8.9111317"><ele>309.0</ele><time>2026-04-17T09:36:18.889Z</time></trkpt><trkpt lat="42.6876333" lon="-8.91112"><ele>309.0</ele><time>2026-04-17T09:36:19.889Z</time></trkpt><trkpt lat="42.6877383" lon="-8.91103"><ele>309.0</ele><time>2026-04-17T09:36:21.888Z</time></trkpt><trkpt lat="42.6877767" lon="-8.9108567"><ele>307.1666666666667</ele><time>2026-04-17T09:36:23.888Z</time></trkpt><trkpt lat="42.687775" lon="-8.9107167"><ele>305.3333333333333</ele><time>2026-04-17T09:36:24.888Z</time></trkpt><trkpt lat="42.6877683" lon="-8.9105967"><ele>303.5</ele><time>2026-04-17T09:36:25.889Z</time></trkpt><trkpt lat="42.6877683" lon="-8.9105033"><ele>301.66666666666663</ele><time>2026-04-17T09:36:26.888Z</time></trkpt><trkpt lat="42.68778" lon="-8.9104183"><ele>299.8333333333333</ele><time>2026-04-17T09:36:27.889Z</time></trkpt><trkpt lat="42.68773" lon="-8.910355"><ele>298.0</ele><time>2026-04-17T09:36:29.888Z</time></trkpt><trkpt lat="42.6876033" lon="-8.91027"><ele>297.0</ele><time>2026-04-17T09:36:31.889Z</time></trkpt><trkpt lat="42.6875267" lon="-8.9101833"><ele>296.0</ele><time>2026-04-17T09:36:32.888Z</time></trkpt><trkpt lat="42.687435" lon="-8.9100617"><ele>295.0</ele><time>2026-04-17T09:36:33.889Z</time></trkpt><trkpt lat="42.6873467" lon="-8.9099217"><ele>294.0</ele><time>2026-04-17T09:36:34.888Z</time></trkpt><trkpt lat="42.6872467" lon="-8.9097617"><ele>290.75</ele><time>2026-04-17T09:36:35.888Z</time></trkpt><trkpt lat="42.6871467" lon="-8.9096017"><ele>287.5</ele><time>2026-04-17T09:36:36.889Z</time></trkpt><trkpt lat="42.68704" lon="-8.909475"><ele>284.25</ele><time>2026-04-17T09:36:37.888Z</time></trkpt><trkpt lat="42.6869367" lon="-8.909375"><ele>281.0</ele><time>2026-04-17T09:36:38.888Z</time></trkpt><trkpt lat="42.6868383" lon="-8.909285"><ele>281.0</ele><time>2026-04-17T09:36:39.889Z</time></trkpt><trkpt lat="42.6866917" lon="-8.9092517"><ele>281.0</ele><time>2026-04-17T09:36:40.888Z</time></trkpt><trkpt lat="42.6865417" lon="-8.9092183"><ele>281.0</ele><time>2026-04-17T09:36:41.888Z</time></trkpt><trkpt lat="42.6863917" lon="-8.90918"><ele>275.75</ele><time>2026-04-17T09:36:42.888Z</time></trkpt><trkpt lat="42.686245" lon="-8.909135"><ele>270.5</ele><time>2026-04-17T09:36:43.888Z</time></trkpt><trkpt lat="42.6861" lon="-8.9090967"><ele>265.25</ele><time>2026-04-17T09:36:44.888Z</time></trkpt><trkpt lat="42.68597" lon="-8.9090683"><ele>260.0</ele><time>2026-04-17T09:36:45.888Z</time></trkpt><trkpt lat="42.6858483" lon="-8.90904"><ele>259.6</ele><time>2026-04-17T09:36:46.888Z</time></trkpt><trkpt lat="42.6857383" lon="-8.9090267"><ele>259.2</ele><time>2026-04-17T09:36:47.888Z</time></trkpt><trkpt lat="42.6856533" lon="-8.9090017"><ele>258.8</ele><time>2026-04-17T09:36:48.889Z</time></trkpt><trkpt lat="42.6855783" lon="-8.9089533"><ele>258.4</ele><time>2026-04-17T09:36:49.888Z</time></trkpt><trkpt lat="42.685505" lon="-8.9088717"><ele>258.0</ele><time>2026-04-17T09:36:50.888Z</time></trkpt><trkpt lat="42.68548" lon="-8.9087433"><ele>258.0</ele><time>2026-04-17T09:36:51.889Z</time></trkpt><trkpt lat="42.6854683" lon="-8.9085817"><ele>258.0</ele><time>2026-04-17T09:36:52.888Z</time></trkpt><trkpt lat="42.6854417" lon="-8.90842"><ele>258.0</ele><time>2026-04-17T09:36:53.889Z</time></trkpt><trkpt lat="42.6853983" lon="-8.9082733"><ele>258.0</ele><time>2026-04-17T09:36:54.889Z</time></trkpt><trkpt lat="42.685325" lon="-8.90813"><ele>252.25</ele><time>2026-04-17T09:36:55.888Z</time></trkpt><trkpt lat="42.6852333" lon="-8.908"><ele>246.5</ele><time>2026-04-17T09:36:56.888Z</time></trkpt><trkpt lat="42.6851167" lon="-8.9078817"><ele>240.75</ele><time>2026-04-17T09:36:57.889Z</time></trkpt><trkpt lat="42.684985" lon="-8.90776"><ele>235.0</ele><time>2026-04-17T09:36:58.888Z</time></trkpt><trkpt lat="42.6848317" lon="-8.90766"><ele>232.75</ele><time>2026-04-17T09:36:59.888Z</time></trkpt><trkpt lat="42.6846917" lon="-8.9075417"><ele>230.5</ele><time>2026-04-17T09:37:00.888Z</time></trkpt><trkpt lat="42.684555" lon="-8.90744"><ele>228.25</ele><time>2026-04-17T09:37:01.889Z</time></trkpt><trkpt lat="42.6844433" lon="-8.9073583"><ele>226.0</ele><time>2026-04-17T09:37:02.889Z</time></trkpt><trkpt lat="42.6843383" lon="-8.9072967"><ele>224.8</ele><time>2026-04-17T09:37:03.889Z</time></trkpt><trkpt lat="42.6842417" lon="-8.9072383"><ele>223.60000000000002</ele><time>2026-04-17T09:37:04.888Z</time></trkpt><trkpt lat="42.6841517" lon="-8.9071617"><ele>222.4</ele><time>2026-04-17T09:37:05.889Z</time></trkpt><trkpt lat="42.684075" lon="-8.907065"><ele>221.2</ele><time>2026-04-17T09:37:06.889Z</time></trkpt><trkpt lat="42.684005" lon="-8.9069483"><ele>220.0</ele><time>2026-04-17T09:37:07.888Z</time></trkpt><trkpt lat="42.68395" lon="-8.9068267"><ele>218.75</ele><time>2026-04-17T09:37:08.888Z</time></trkpt><trkpt lat="42.683915" lon="-8.906675"><ele>217.5</ele><time>2026-04-17T09:37:09.889Z</time></trkpt><trkpt lat="42.68388" lon="-8.9065067"><ele>216.25</ele><time>2026-04-17T09:37:10.889Z</time></trkpt><trkpt lat="42.68388" lon="-8.90631"><ele>215.0</ele><time>2026-04-17T09:37:11.888Z</time></trkpt><trkpt lat="42.6839067" lon="-8.9060917"><ele>211.5</ele><time>2026-04-17T09:37:12.889Z</time></trkpt><trkpt lat="42.6839483" lon="-8.9059083"><ele>208.0</ele><time>2026-04-17T09:37:13.889Z</time></trkpt><trkpt lat="42.684005" lon="-8.9057583"><ele>204.5</ele><time>2026-04-17T09:37:14.889Z</time></trkpt><trkpt lat="42.6840783" lon="-8.9056233"><ele>201.0</ele><time>2026-04-17T09:37:15.889Z</time></trkpt><trkpt lat="42.6841567" lon="-8.9055183"><ele>201.0</ele><time>2026-04-17T09:37:16.888Z</time></trkpt><trkpt lat="42.6842617" lon="-8.9054333"><ele>201.0</ele><time>2026-04-17T09:37:17.888Z</time></trkpt><trkpt lat="42.68438" lon="-8.9053333"><ele>201.0</ele><time>2026-04-17T09:37:18.888Z</time></trkpt><trkpt lat="42.68452" lon="-8.90524"><ele>201.0</ele><time>2026-04-17T09:37:19.889Z</time></trkpt><trkpt lat="42.684675" lon="-8.9051483"><ele>196.5</ele><time>2026-04-17T09:37:20.888Z</time></trkpt><trkpt lat="42.6848217" lon="-8.9050633"><ele>192.0</ele><time>2026-04-17T09:37:21.888Z</time></trkpt><trkpt lat="42.68496" lon="-8.9049917"><ele>187.5</ele><time>2026-04-17T09:37:22.889Z</time></trkpt><trkpt lat="42.6850783" lon="-8.9049233"><ele>183.0</ele><time>2026-04-17T09:37:23.889Z</time></trkpt><trkpt lat="42.68518" lon="-8.9048433"><ele>183.0</ele><time>2026-04-17T09:37:24.888Z</time></trkpt><trkpt lat="42.6852567" lon="-8.9047633"><ele>183.0</ele><time>2026-04-17T09:37:25.889Z</time></trkpt><trkpt lat="42.6853183" lon="-8.904685"><ele>183.0</ele><time>2026-04-17T09:37:26.889Z</time></trkpt><trkpt lat="42.6853617" lon="-8.9046117"><ele>183.0</ele><time>2026-04-17T09:37:27.888Z</time></trkpt><trkpt lat="42.6853883" lon="-8.9045067"><ele>183.0</ele><time>2026-04-17T09:37:29.888Z</time></trkpt><trkpt lat="42.6852733" lon="-8.9044067"><ele>183.0</ele><time>2026-04-17T09:37:31.888Z</time></trkpt><trkpt lat="42.685145" lon="-8.9043033"><ele>183.0</ele><time>2026-04-17T09:37:32.888Z</time></trkpt><trkpt lat="42.685015" lon="-8.9042333"><ele>183.0</ele><time>2026-04-17T09:37:33.888Z</time></trkpt><trkpt lat="42.6848617" lon="-8.9041733"><ele>183.0</ele><time>2026-04-17T09:37:34.888Z</time></trkpt><trkpt lat="42.6847067" lon="-8.9041033"><ele>174.66666666666666</ele><time>2026-04-17T09:37:35.888Z</time></trkpt><trkpt lat="42.6845567" lon="-8.9040233"><ele>166.33333333333331</ele><time>2026-04-17T09:37:36.888Z</time></trkpt><trkpt lat="42.6844083" lon="-8.9039433"><ele>158.0</ele><time>2026-04-17T09:37:37.889Z</time></trkpt><trkpt lat="42.68426" lon="-8.903875"><ele>156.75</ele><time>2026-04-17T09:37:38.889Z</time></trkpt><trkpt lat="42.684125" lon="-8.9038217"><ele>155.5</ele><time>2026-04-17T09:37:39.888Z</time></trkpt><trkpt lat="42.68401" lon="-8.9037683"><ele>154.25</ele><time>2026-04-17T09:37:40.888Z</time></trkpt><trkpt lat="42.6839317" lon="-8.9037"><ele>153.0</ele><time>2026-04-17T09:37:41.889Z</time></trkpt><trkpt lat="42.6838517" lon="-8.9036217"><ele>153.0</ele><time>2026-04-17T09:37:42.888Z</time></trkpt><trkpt lat="42.6837717" lon="-8.9035433"><ele>153.0</ele><time>2026-04-17T09:37:43.888Z</time></trkpt><trkpt lat="42.6836933" lon="-8.9034733"><ele>153.0</ele><time>2026-04-17T09:37:44.888Z</time></trkpt><trkpt lat="42.6836017" lon="-8.90343"><ele>153.0</ele><time>2026-04-17T09:37:45.888Z</time></trkpt><trkpt lat="42.6835" lon="-8.9034017"><ele>153.0</ele><time>2026-04-17T09:37:46.888Z</time></trkpt><trkpt lat="42.68341" lon="-8.90338"><ele>149.33333333333334</ele><time>2026-04-17T09:37:47.888Z</time></trkpt><trkpt lat="42.6833233" lon="-8.90335"><ele>145.66666666666666</ele><time>2026-04-17T09:37:48.889Z</time></trkpt><trkpt lat="42.68325" lon="-8.9033167"><ele>142.0</ele><time>2026-04-17T09:37:49.888Z</time></trkpt><trkpt lat="42.6831933" lon="-8.9032717"><ele>138.33333333333331</ele><time>2026-04-17T09:37:50.889Z</time></trkpt><trkpt lat="42.6831383" lon="-8.903215"><ele>134.66666666666666</ele><time>2026-04-17T09:37:51.889Z</time></trkpt><trkpt lat="42.683095" lon="-8.903135"><ele>131.0</ele><time>2026-04-17T09:37:52.889Z</time></trkpt><trkpt lat="42.6830483" lon="-8.9030333"><ele>131.0</ele><time>2026-04-17T09:37:53.889Z</time></trkpt><trkpt lat="42.6830133" lon="-8.9029167"><ele>131.0</ele><time>2026-04-17T09:37:54.889Z</time></trkpt><trkpt lat="42.682975" lon="-8.90281"><ele>131.0</ele><time>2026-04-17T09:37:55.89Z</time></trkpt><trkpt lat="42.6829367" lon="-8.90265"><ele>131.0</ele><time>2026-04-17T09:37:56.89Z</time></trkpt><trkpt lat="42.6828983" lon="-8.9025183"><ele>131.0</ele><time>2026-04-17T09:37:57.889Z</time></trkpt><trkpt lat="42.6828667" lon="-8.902395"><ele>131.0</ele><time>2026-04-17T09:37:58.89Z</time></trkpt><trkpt lat="42.68284" lon="-8.902275"><ele>131.0</ele><time>2026-04-17T09:37:59.889Z</time></trkpt><trkpt lat="42.6828183" lon="-8.9021467"><ele>131.0</ele><time>2026-04-17T09:38:00.889Z</time></trkpt><trkpt lat="42.6827967" lon="-8.901995"><ele>131.0</ele><time>2026-04-17T09:38:01.889Z</time></trkpt><trkpt lat="42.6827817" lon="-8.90184"><ele>131.0</ele><time>2026-04-17T09:38:02.89Z</time></trkpt><trkpt lat="42.6827667" lon="-8.901685"><ele>128.5</ele><time>2026-04-17T09:38:03.89Z</time></trkpt><trkpt lat="42.682755" lon="-8.9015017"><ele>126.0</ele><time>2026-04-17T09:38:04.89Z</time></trkpt><trkpt lat="42.682735" lon="-8.9013033"><ele>123.5</ele><time>2026-04-17T09:38:05.89Z</time></trkpt><trkpt lat="42.68272" lon="-8.901105"><ele>121.0</ele><time>2026-04-17T09:38:06.89Z</time></trkpt><trkpt lat="42.6827017" lon="-8.9009133"><ele>120.5</ele><time>2026-04-17T09:38:07.89Z</time></trkpt><trkpt lat="42.6826733" lon="-8.9007467"><ele>120.0</ele><time>2026-04-17T09:38:08.89Z</time></trkpt><trkpt lat="42.6826283" lon="-8.9005917"><ele>119.5</ele><time>2026-04-17T09:38:09.889Z</time></trkpt><trkpt lat="42.682575" lon="-8.9004333"><ele>119.0</ele><time>2026-04-17T09:38:10.89Z</time></trkpt><trkpt lat="42.682475" lon="-8.9002783"><ele>119.0</ele><time>2026-04-17T09:38:11.889Z</time></trkpt><trkpt lat="42.6823883" lon="-8.9001433"><ele>119.0</ele><time>2026-04-17T09:38:12.89Z</time></trkpt><trkpt lat="42.6823117" lon="-8.9000183"><ele>119.0</ele><time>2026-04-17T09:38:13.889Z</time></trkpt><trkpt lat="42.6822467" lon="-8.8998883"><ele>119.0</ele><time>2026-04-17T09:38:14.89Z</time></trkpt><trkpt lat="42.6822233" lon="-8.8997117"><ele>119.6</ele><time>2026-04-17T09:38:15.889Z</time></trkpt><trkpt lat="42.6822083" lon="-8.8995567"><ele>120.2</ele><time>2026-04-17T09:38:16.889Z</time></trkpt><trkpt lat="42.68218" lon="-8.8994233"><ele>120.79999999999998</ele><time>2026-04-17T09:38:17.89Z</time></trkpt><trkpt lat="42.6821483" lon="-8.8993133"><ele>121.39999999999999</ele><time>2026-04-17T09:38:18.889Z</time></trkpt><trkpt lat="42.6820933" lon="-8.899205"><ele>122.0</ele><time>2026-04-17T09:38:19.89Z</time></trkpt><trkpt lat="42.6820167" lon="-8.8991033"><ele>123.39999999999999</ele><time>2026-04-17T09:38:20.889Z</time></trkpt><trkpt lat="42.6819333" lon="-8.89904"><ele>124.79999999999998</ele><time>2026-04-17T09:38:21.889Z</time></trkpt><trkpt lat="42.681815" lon="-8.89898"><ele>126.2</ele><time>2026-04-17T09:38:22.889Z</time></trkpt><trkpt lat="42.6817117" lon="-8.8989283"><ele>127.6</ele><time>2026-04-17T09:38:23.889Z</time></trkpt><trkpt lat="42.6816233" lon="-8.8988817"><ele>129.0</ele><time>2026-04-17T09:38:24.889Z</time></trkpt><trkpt lat="42.681545" lon="-8.89883"><ele>124.4</ele><time>2026-04-17T09:38:25.889Z</time></trkpt><trkpt lat="42.6815183" lon="-8.8987517"><ele>119.80000000000001</ele><time>2026-04-17T09:38:26.889Z</time></trkpt><trkpt lat="42.6815067" lon="-8.8986267"><ele>115.19999999999999</ele><time>2026-04-17T09:38:27.889Z</time></trkpt><trkpt lat="42.6815117" lon="-8.8984783"><ele>110.6</ele><time>2026-04-17T09:38:28.89Z</time></trkpt><trkpt lat="42.6815417" lon="-8.8983167"><ele>106.0</ele><time>2026-04-17T09:38:29.889Z</time></trkpt><trkpt lat="42.6815733" lon="-8.8981483"><ele>105.0</ele><time>2026-04-17T09:38:30.889Z</time></trkpt><trkpt lat="42.68161" lon="-8.897985"><ele>104.0</ele><time>2026-04-17T09:38:31.889Z</time></trkpt><trkpt lat="42.68163" lon="-8.8978233"><ele>103.0</ele><time>2026-04-17T09:38:32.89Z</time></trkpt><trkpt lat="42.6816367" lon="-8.8976567"><ele>102.0</ele><time>2026-04-17T09:38:33.889Z</time></trkpt><trkpt lat="42.6816333" lon="-8.8975117"><ele>99.8</ele><time>2026-04-17T09:38:34.889Z</time></trkpt><trkpt lat="42.6816183" lon="-8.8973767"><ele>97.6</ele><time>2026-04-17T09:38:35.89Z</time></trkpt><trkpt lat="42.6816" lon="-8.8972533"><ele>95.39999999999999</ele><time>2026-04-17T09:38:36.89Z</time></trkpt><trkpt lat="42.681585" lon="-8.89713"><ele>93.19999999999999</ele><time>2026-04-17T09:38:37.889Z</time></trkpt><trkpt lat="42.68152" lon="-8.89702"><ele>91.0</ele><time>2026-04-17T09:38:39.89Z</time></trkpt><trkpt lat="42.68146" lon="-8.89699"><ele>91.0</ele><time>2026-04-17T09:38:40.89Z</time></trkpt><trkpt lat="42.681405" lon="-8.8969483"><ele>91.0</ele><time>2026-04-17T09:38:41.889Z</time></trkpt><trkpt lat="42.6813217" lon="-8.89686"><ele>91.0</ele><time>2026-04-17T09:38:43.89Z</time></trkpt><trkpt lat="42.6813117" lon="-8.896775"><ele>91.0</ele><time>2026-04-17T09:38:45.889Z</time></trkpt><trkpt lat="42.6812483" lon="-8.89673"><ele>91.0</ele><time>2026-04-17T09:38:48.89Z</time></trkpt><trkpt lat="42.6811717" lon="-8.89677"><ele>91.0</ele><time>2026-04-17T09:38:50.889Z</time></trkpt><trkpt lat="42.6811017" lon="-8.89674"><ele>89.85714285714286</ele><time>2026-04-17T09:38:52.889Z</time></trkpt><trkpt lat="42.681125" lon="-8.8966217"><ele>88.71428571428572</ele><time>2026-04-17T09:38:54.89Z</time></trkpt><trkpt lat="42.6811683" lon="-8.896535"><ele>87.57142857142857</ele><time>2026-04-17T09:38:55.889Z</time></trkpt><trkpt lat="42.681215" lon="-8.8964633"><ele>86.42857142857143</ele><time>2026-04-17T09:38:56.889Z</time></trkpt><trkpt lat="42.6812583" lon="-8.896385"><ele>85.28571428571429</ele><time>2026-04-17T09:38:57.89Z</time></trkpt><trkpt lat="42.6812917" lon="-8.8962983"><ele>84.14285714285714</ele><time>2026-04-17T09:38:58.889Z</time></trkpt><trkpt lat="42.6813183" lon="-8.89622"><ele>83.0</ele><time>2026-04-17T09:38:59.89Z</time></trkpt><trkpt lat="42.6813583" lon="-8.8961433"><ele>83.0</ele><time>2026-04-17T09:39:00.89Z</time></trkpt><trkpt lat="42.6814117" lon="-8.8960767"><ele>83.0</ele><time>2026-04-17T09:39:01.889Z</time></trkpt><trkpt lat="42.68149" lon="-8.8960183"><ele>83.0</ele><time>2026-04-17T09:39:02.889Z</time></trkpt><trkpt lat="42.6815833" lon="-8.89598"><ele>83.0</ele><time>2026-04-17T09:39:03.889Z</time></trkpt><trkpt lat="42.68167" lon="-8.895935"><ele>83.0</ele><time>2026-04-17T09:39:04.889Z</time></trkpt><trkpt lat="42.6817517" lon="-8.8958867"><ele>83.0</ele><time>2026-04-17T09:39:05.89Z</time></trkpt><trkpt lat="42.6818217" lon="-8.8958317"><ele>81.83333333333334</ele><time>2026-04-17T09:39:06.889Z</time></trkpt><trkpt lat="42.6818933" lon="-8.89577"><ele>80.66666666666667</ele><time>2026-04-17T09:39:07.889Z</time></trkpt><trkpt lat="42.681965" lon="-8.8956967"><ele>79.5</ele><time>2026-04-17T09:39:08.889Z</time></trkpt><trkpt lat="42.6820317" lon="-8.895615"><ele>78.33333333333333</ele><time>2026-04-17T09:39:09.889Z</time></trkpt><trkpt lat="42.6820967" lon="-8.8955267"><ele>77.16666666666666</ele><time>2026-04-17T09:39:10.89Z</time></trkpt><trkpt lat="42.68215" lon="-8.8954317"><ele>76.0</ele><time>2026-04-17T09:39:11.89Z</time></trkpt><trkpt lat="42.6822083" lon="-8.8953467"><ele>76.0</ele><time>2026-04-17T09:39:12.889Z</time></trkpt><trkpt lat="42.6822967" lon="-8.8952817"><ele>76.0</ele><time>2026-04-17T09:39:13.889Z</time></trkpt><trkpt lat="42.6823833" lon="-8.8952333"><ele>76.0</ele><time>2026-04-17T09:39:14.89Z</time></trkpt><trkpt lat="42.6824717" lon="-8.8951983"><ele>76.0</ele><time>2026-04-17T09:39:15.89Z</time></trkpt><trkpt lat="42.682555" lon="-8.8951717"><ele>76.0</ele><time>2026-04-17T09:39:16.889Z</time></trkpt><trkpt lat="42.68264" lon="-8.8951517"><ele>76.0</ele><time>2026-04-17T09:39:17.89Z</time></trkpt><trkpt lat="42.6827183" lon="-8.8951267"><ele>76.0</ele><time>2026-04-17T09:39:18.889Z</time></trkpt><trkpt lat="42.6828033" lon="-8.895105"><ele>76.0</ele><time>2026-04-17T09:39:19.89Z</time></trkpt><trkpt lat="42.682895" lon="-8.8950817"><ele>76.0</ele><time>2026-04-17T09:39:20.89Z</time></trkpt><trkpt lat="42.682985" lon="-8.8950467"><ele>76.0</ele><time>2026-04-17T09:39:21.89Z</time></trkpt><trkpt lat="42.6830717" lon="-8.8950017"><ele>76.0</ele><time>2026-04-17T09:39:22.889Z</time></trkpt><trkpt lat="42.683155" lon="-8.8949533"><ele>74.33333333333333</ele><time>2026-04-17T09:39:23.889Z</time></trkpt><trkpt lat="42.6832267" lon="-8.8948917"><ele>72.66666666666666</ele><time>2026-04-17T09:39:24.889Z</time></trkpt><trkpt lat="42.68329" lon="-8.894815"><ele>71.0</ele><time>2026-04-17T09:39:25.89Z</time></trkpt><trkpt lat="42.6833417" lon="-8.8947183"><ele>69.33333333333333</ele><time>2026-04-17T09:39:26.889Z</time></trkpt><trkpt lat="42.6833717" lon="-8.8946117"><ele>67.66666666666667</ele><time>2026-04-17T09:39:27.89Z</time></trkpt><trkpt lat="42.6833833" lon="-8.8945017"><ele>66.0</ele><time>2026-04-17T09:39:28.89Z</time></trkpt><trkpt lat="42.6833633" lon="-8.8944083"><ele>66.0</ele><time>2026-04-17T09:39:29.89Z</time></trkpt><trkpt lat="42.683305" lon="-8.8943383"><ele>66.0</ele><time>2026-04-17T09:39:30.889Z</time></trkpt><trkpt lat="42.6832283" lon="-8.8942783"><ele>66.0</ele><time>2026-04-17T09:39:31.889Z</time></trkpt><trkpt lat="42.6831233" lon="-8.8942617"><ele>66.0</ele><time>2026-04-17T09:39:32.89Z</time></trkpt><trkpt lat="42.6830133" lon="-8.894245"><ele>66.0</ele><time>2026-04-17T09:39:33.889Z</time></trkpt><trkpt lat="42.6828883" lon="-8.8942333"><ele>65.2</ele><time>2026-04-17T09:39:34.889Z</time></trkpt><trkpt lat="42.68277" lon="-8.8942283"><ele>64.39999999999999</ele><time>2026-04-17T09:39:35.889Z</time></trkpt><trkpt lat="42.6826717" lon="-8.8942233"><ele>63.6</ele><time>2026-04-17T09:39:36.889Z</time></trkpt><trkpt lat="42.6825817" lon="-8.894205"><ele>62.8</ele><time>2026-04-17T09:39:37.889Z</time></trkpt><trkpt lat="42.6824867" lon="-8.894195"><ele>62.0</ele><time>2026-04-17T09:39:38.889Z</time></trkpt><trkpt lat="42.682395" lon="-8.894175"><ele>61.66666666666667</ele><time>2026-04-17T09:39:39.89Z</time></trkpt><trkpt lat="42.6823133" lon="-8.8941567"><ele>61.333333333333336</ele><time>2026-04-17T09:39:40.889Z</time></trkpt><trkpt lat="42.682225" lon="-8.894135"><ele>61.0</ele><time>2026-04-17T09:39:41.889Z</time></trkpt><trkpt lat="42.68214" lon="-8.8941117"><ele>60.66666666666667</ele><time>2026-04-17T09:39:42.889Z</time></trkpt><trkpt lat="42.682055" lon="-8.8940867"><ele>60.333333333333336</ele><time>2026-04-17T09:39:43.889Z</time></trkpt><trkpt lat="42.6819817" lon="-8.894065"><ele>60.0</ele><time>2026-04-17T09:39:44.89Z</time></trkpt><trkpt lat="42.6819" lon="-8.8940283"><ele>58.333333333333336</ele><time>2026-04-17T09:39:45.89Z</time></trkpt><trkpt lat="42.6818283" lon="-8.89398"><ele>56.66666666666667</ele><time>2026-04-17T09:39:46.889Z</time></trkpt><trkpt lat="42.6817583" lon="-8.8939283"><ele>55.0</ele><time>2026-04-17T09:39:47.89Z</time></trkpt><trkpt lat="42.6817033" lon="-8.8938717"><ele>53.333333333333336</ele><time>2026-04-17T09:39:48.889Z</time></trkpt><trkpt lat="42.6816633" lon="-8.893805"><ele>51.66666666666667</ele><time>2026-04-17T09:39:49.889Z</time></trkpt><trkpt lat="42.68163" lon="-8.8936317"><ele>50.0</ele><time>2026-04-17T09:39:51.889Z</time></trkpt><trkpt lat="42.68164" lon="-8.8935167"><ele>50.8</ele><time>2026-04-17T09:39:52.89Z</time></trkpt><trkpt lat="42.6816683" lon="-8.8933867"><ele>51.6</ele><time>2026-04-17T09:39:53.889Z</time></trkpt><trkpt lat="42.68171" lon="-8.8932667"><ele>52.400000000000006</ele><time>2026-04-17T09:39:54.889Z</time></trkpt><trkpt lat="42.6817483" lon="-8.893145"><ele>53.2</ele><time>2026-04-17T09:39:55.889Z</time></trkpt><trkpt lat="42.6817883" lon="-8.8930233"><ele>54.0</ele><time>2026-04-17T09:39:56.889Z</time></trkpt><trkpt lat="42.6818367" lon="-8.8929033"><ele>54.0</ele><time>2026-04-17T09:39:57.889Z</time></trkpt><trkpt lat="42.681905" lon="-8.8927717"><ele>54.0</ele><time>2026-04-17T09:39:58.89Z</time></trkpt><trkpt lat="42.682" lon="-8.8926117"><ele>54.0</ele><time>2026-04-17T09:39:59.889Z</time></trkpt><trkpt lat="42.682115" lon="-8.8924383"><ele>54.0</ele><time>2026-04-17T09:40:00.89Z</time></trkpt><trkpt lat="42.6822633" lon="-8.8922633"><ele>55.33333333333333</ele><time>2026-04-17T09:40:01.889Z</time></trkpt><trkpt lat="42.6824267" lon="-8.89211"><ele>56.666666666666664</ele><time>2026-04-17T09:40:02.889Z</time></trkpt><trkpt lat="42.6825983" lon="-8.8919717"><ele>58.0</ele><time>2026-04-17T09:40:03.889Z</time></trkpt><trkpt lat="42.6827783" lon="-8.89186"><ele>58.666666666666664</ele><time>2026-04-17T09:40:04.89Z</time></trkpt><trkpt lat="42.6829633" lon="-8.89178"><ele>59.33333333333333</ele><time>2026-04-17T09:40:05.89Z</time></trkpt><trkpt lat="42.6831583" lon="-8.8917"><ele>60.0</ele><time>2026-04-17T09:40:06.89Z</time></trkpt><trkpt lat="42.683365" lon="-8.89161"><ele>60.0</ele><time>2026-04-17T09:40:07.889Z</time></trkpt><trkpt lat="42.6835833" lon="-8.8915083"><ele>60.0</ele><time>2026-04-17T09:40:08.889Z</time></trkpt><trkpt lat="42.6837967" lon="-8.8914183"><ele>62.0</ele><time>2026-04-17T09:40:09.89Z</time></trkpt><trkpt lat="42.6839767" lon="-8.8913183"><ele>64.0</ele><time>2026-04-17T09:40:10.889Z</time></trkpt><trkpt lat="42.6841183" lon="-8.8912517"><ele>66.0</ele><time>2026-04-17T09:40:11.889Z</time></trkpt><trkpt lat="42.6842333" lon="-8.891225"><ele>66.0</ele><time>2026-04-17T09:40:12.889Z</time></trkpt><trkpt lat="42.684345" lon="-8.8912433"><ele>66.0</ele><time>2026-04-17T09:40:13.89Z</time></trkpt><trkpt lat="42.6844833" lon="-8.8913017"><ele>66.0</ele><time>2026-04-17T09:40:14.889Z</time></trkpt><trkpt lat="42.6846267" lon="-8.891395"><ele>66.0</ele><time>2026-04-17T09:40:15.89Z</time></trkpt><trkpt lat="42.684785" lon="-8.8915317"><ele>68.0</ele><time>2026-04-17T09:40:16.89Z</time></trkpt><trkpt lat="42.6849333" lon="-8.8916667"><ele>70.0</ele><time>2026-04-17T09:40:17.89Z</time></trkpt><trkpt lat="42.6850683" lon="-8.8917933"><ele>72.0</ele><time>2026-04-17T09:40:18.889Z</time></trkpt><trkpt lat="42.68518" lon="-8.8919067"><ele>72.0</ele><time>2026-04-17T09:40:19.889Z</time></trkpt><trkpt lat="42.6852433" lon="-8.891985"><ele>72.0</ele><time>2026-04-17T09:40:20.89Z</time></trkpt><trkpt lat="42.6853417" lon="-8.8919917"><ele>72.0</ele><time>2026-04-17T09:40:33.89Z</time></trkpt><trkpt lat="42.685445" lon="-8.89194"><ele>72.0</ele><time>2026-04-17T09:40:34.89Z</time></trkpt><trkpt lat="42.6855683" lon="-8.8918883"><ele>72.0</ele><time>2026-04-17T09:40:35.889Z</time></trkpt><trkpt lat="42.6857183" lon="-8.8918767"><ele>72.0</ele><time>2026-04-17T09:40:36.889Z</time></trkpt><trkpt lat="42.68588" lon="-8.8919117"><ele>72.0</ele><time>2026-04-17T09:40:37.89Z</time></trkpt><trkpt lat="42.686045" lon="-8.89196"><ele>72.0</ele><time>2026-04-17T09:40:38.89Z</time></trkpt><trkpt lat="42.686185" lon="-8.892025"><ele>73.66666666666667</ele><time>2026-04-17T09:40:39.889Z</time></trkpt><trkpt lat="42.68632" lon="-8.8921333"><ele>75.33333333333334</ele><time>2026-04-17T09:40:40.889Z</time></trkpt><trkpt lat="42.6864533" lon="-8.89226"><ele>77.0</ele><time>2026-04-17T09:40:41.889Z</time></trkpt><trkpt lat="42.68659" lon="-8.89243"><ele>79.33333333333334</ele><time>2026-04-17T09:40:42.889Z</time></trkpt><trkpt lat="42.686745" lon="-8.8926133"><ele>81.66666666666667</ele><time>2026-04-17T09:40:43.89Z</time></trkpt><trkpt lat="42.6869017" lon="-8.892765"><ele>84.0</ele><time>2026-04-17T09:40:44.89Z</time></trkpt><trkpt lat="42.6870667" lon="-8.8929183"><ele>84.0</ele><time>2026-04-17T09:40:45.889Z</time></trkpt><trkpt lat="42.6872317" lon="-8.8930917"><ele>84.0</ele><time>2026-04-17T09:40:46.889Z</time></trkpt><trkpt lat="42.6873967" lon="-8.8932417"><ele>84.0</ele><time>2026-04-17T09:40:47.89Z</time></trkpt><trkpt lat="42.6875533" lon="-8.8933633"><ele>86.33333333333333</ele><time>2026-04-17T09:40:48.89Z</time></trkpt><trkpt lat="42.687705" lon="-8.8934617"><ele>88.66666666666666</ele><time>2026-04-17T09:40:49.89Z</time></trkpt><trkpt lat="42.6878533" lon="-8.893565"><ele>91.0</ele><time>2026-04-17T09:40:50.889Z</time></trkpt><trkpt lat="42.6880033" lon="-8.893655"><ele>91.0</ele><time>2026-04-17T09:40:51.89Z</time></trkpt><trkpt lat="42.68813" lon="-8.8937517"><ele>91.0</ele><time>2026-04-17T09:40:52.89Z</time></trkpt><trkpt lat="42.6882167" lon="-8.89386"><ele>91.0</ele><time>2026-04-17T09:40:53.89Z</time></trkpt><trkpt lat="42.6882783" lon="-8.8939867"><ele>91.0</ele><time>2026-04-17T09:40:54.889Z</time></trkpt><trkpt lat="42.6883333" lon="-8.894125"><ele>91.0</ele><time>2026-04-17T09:40:55.889Z</time></trkpt><trkpt lat="42.6883817" lon="-8.894235"><ele>91.0</ele><time>2026-04-17T09:40:56.889Z</time></trkpt><trkpt lat="42.68844" lon="-8.8942933"><ele>91.0</ele><time>2026-04-17T09:40:57.889Z</time></trkpt><trkpt lat="42.6885617" lon="-8.89429"><ele>91.0</ele><time>2026-04-17T09:40:59.889Z</time></trkpt><trkpt lat="42.6886233" lon="-8.8942283"><ele>91.0</ele><time>2026-04-17T09:41:00.89Z</time></trkpt><trkpt lat="42.6886833" lon="-8.894125"><ele>93.5</ele><time>2026-04-17T09:41:01.889Z</time></trkpt><trkpt lat="42.6887567" lon="-8.8939933"><ele>96.0</ele><time>2026-04-17T09:41:02.889Z</time></trkpt><trkpt lat="42.6888567" lon="-8.8938517"><ele>98.5</ele><time>2026-04-17T09:41:03.889Z</time></trkpt><trkpt lat="42.6889883" lon="-8.8937267"><ele>101.0</ele><time>2026-04-17T09:41:04.889Z</time></trkpt><trkpt lat="42.6891567" lon="-8.89363"><ele>101.0</ele><time>2026-04-17T09:41:05.889Z</time></trkpt><trkpt lat="42.6893283" lon="-8.893565"><ele>101.0</ele><time>2026-04-17T09:41:06.889Z</time></trkpt><trkpt lat="42.68947" lon="-8.8934867"><ele>101.0</ele><time>2026-04-17T09:41:07.889Z</time></trkpt><trkpt lat="42.6895967" lon="-8.8934267"><ele>100.19999999999999</ele><time>2026-04-17T09:41:08.89Z</time></trkpt><trkpt lat="42.68971" lon="-8.8933517"><ele>99.39999999999999</ele><time>2026-04-17T09:41:09.89Z</time></trkpt><trkpt lat="42.6898067" lon="-8.8932767"><ele>98.6</ele><time>2026-04-17T09:41:10.89Z</time></trkpt><trkpt lat="42.6899133" lon="-8.8932333"><ele>97.8</ele><time>2026-04-17T09:41:11.89Z</time></trkpt><trkpt lat="42.690005" lon="-8.8931783"><ele>97.0</ele><time>2026-04-17T09:41:12.889Z</time></trkpt><trkpt lat="42.6900783" lon="-8.893145"><ele>97.0</ele><time>2026-04-17T09:41:13.889Z</time></trkpt><trkpt lat="42.69014" lon="-8.893125"><ele>97.0</ele><time>2026-04-17T09:41:14.89Z</time></trkpt><trkpt lat="42.690235" lon="-8.8931483"><ele>97.0</ele><time>2026-04-17T09:41:16.889Z</time></trkpt><trkpt lat="42.690275" lon="-8.8933317"><ele>97.0</ele><time>2026-04-17T09:41:18.89Z</time></trkpt><trkpt lat="42.6903017" lon="-8.8934717"><ele>97.0</ele><time>2026-04-17T09:41:19.889Z</time></trkpt><trkpt lat="42.6903383" lon="-8.8936267"><ele>98.33333333333334</ele><time>2026-04-17T09:41:20.89Z</time></trkpt><trkpt lat="42.6903767" lon="-8.8938533"><ele>99.66666666666666</ele><time>2026-04-17T09:41:21.889Z</time></trkpt><trkpt lat="42.6904067" lon="-8.89406"><ele>101.0</ele><time>2026-04-17T09:41:22.889Z</time></trkpt><trkpt lat="42.6904317" lon="-8.8942567"><ele>99.19999999999999</ele><time>2026-04-17T09:41:23.89Z</time></trkpt><trkpt lat="42.6904417" lon="-8.8944017"><ele>97.39999999999999</ele><time>2026-04-17T09:41:24.89Z</time></trkpt><trkpt lat="42.6904633" lon="-8.89449"><ele>95.6</ele><time>2026-04-17T09:41:25.889Z</time></trkpt><trkpt lat="42.6905233" lon="-8.8945933"><ele>93.8</ele><time>2026-04-17T09:41:27.889Z</time></trkpt><trkpt lat="42.6906467" lon="-8.8945417"><ele>92.0</ele><time>2026-04-17T09:41:29.889Z</time></trkpt><trkpt lat="42.6907517" lon="-8.89446"><ele>92.0</ele><time>2026-04-17T09:41:30.889Z</time></trkpt><trkpt lat="42.6908817" lon="-8.8943733"><ele>92.0</ele><time>2026-04-17T09:41:31.89Z</time></trkpt><trkpt lat="42.6910367" lon="-8.894285"><ele>92.0</ele><time>2026-04-17T09:41:32.889Z</time></trkpt><trkpt lat="42.691195" lon="-8.8941967"><ele>90.66666666666667</ele><time>2026-04-17T09:41:33.889Z</time></trkpt><trkpt lat="42.6913333" lon="-8.8940983"><ele>89.33333333333333</ele><time>2026-04-17T09:41:34.889Z</time></trkpt><trkpt lat="42.6914667" lon="-8.8940017"><ele>88.0</ele><time>2026-04-17T09:41:35.889Z</time></trkpt><trkpt lat="42.691605" lon="-8.8939067"><ele>88.0</ele><time>2026-04-17T09:41:36.889Z</time></trkpt><trkpt lat="42.6917533" lon="-8.8938283"><ele>88.0</ele><time>2026-04-17T09:41:37.889Z</time></trkpt><trkpt lat="42.6919067" lon="-8.8937383"><ele>88.0</ele><time>2026-04-17T09:41:38.889Z</time></trkpt><trkpt lat="42.6920483" lon="-8.893615"><ele>88.5</ele><time>2026-04-17T09:41:39.889Z</time></trkpt><trkpt lat="42.6921683" lon="-8.8935183"><ele>89.0</ele><time>2026-04-17T09:41:40.89Z</time></trkpt><trkpt lat="42.6922767" lon="-8.8934517"><ele>89.5</ele><time>2026-04-17T09:41:41.889Z</time></trkpt><trkpt lat="42.69239" lon="-8.8934183"><ele>90.0</ele><time>2026-04-17T09:41:42.889Z</time></trkpt><trkpt lat="42.6925017" lon="-8.8934567"><ele>89.75</ele><time>2026-04-17T09:41:43.89Z</time></trkpt><trkpt lat="42.6926217" lon="-8.89352"><ele>89.5</ele><time>2026-04-17T09:41:44.89Z</time></trkpt><trkpt lat="42.6927533" lon="-8.89359"><ele>89.25</ele><time>2026-04-17T09:41:45.89Z</time></trkpt><trkpt lat="42.6928833" lon="-8.8936483"><ele>89.0</ele><time>2026-04-17T09:41:46.889Z</time></trkpt><trkpt lat="42.69299" lon="-8.8936967"><ele>89.0</ele><time>2026-04-17T09:41:47.89Z</time></trkpt><trkpt lat="42.6930583" lon="-8.8937283"><ele>89.0</ele><time>2026-04-17T09:41:48.889Z</time></trkpt><trkpt lat="42.693125" lon="-8.8937283"><ele>89.0</ele><time>2026-04-17T09:41:50.89Z</time></trkpt><trkpt lat="42.6930983" lon="-8.8936467"><ele>89.0</ele><time>2026-04-17T09:41:52.889Z</time></trkpt><trkpt lat="42.6929983" lon="-8.89355"><ele>89.0</ele><time>2026-04-17T09:41:54.89Z</time></trkpt><trkpt lat="42.6929083" lon="-8.89347"><ele>89.0</ele><time>2026-04-17T09:41:55.89Z</time></trkpt><trkpt lat="42.6928067" lon="-8.8933717"><ele>89.33333333333334</ele><time>2026-04-17T09:41:56.89Z</time></trkpt><trkpt lat="42.6926933" lon="-8.8932617"><ele>89.66666666666667</ele><time>2026-04-17T09:41:57.889Z</time></trkpt><trkpt lat="42.6925717" lon="-8.8931317"><ele>90.0</ele><time>2026-04-17T09:41:58.89Z</time></trkpt><trkpt lat="42.6924317" lon="-8.8929817"><ele>90.0</ele><time>2026-04-17T09:41:59.889Z</time></trkpt><trkpt lat="42.6922933" lon="-8.8928233"><ele>90.0</ele><time>2026-04-17T09:42:00.89Z</time></trkpt><trkpt lat="42.692145" lon="-8.8926717"><ele>90.0</ele><time>2026-04-17T09:42:01.89Z</time></trkpt><trkpt lat="42.6920033" lon="-8.89252"><ele>92.33333333333334</ele><time>2026-04-17T09:42:02.889Z</time></trkpt><trkpt lat="42.6918667" lon="-8.89236"><ele>94.66666666666667</ele><time>2026-04-17T09:42:03.89Z</time></trkpt><trkpt lat="42.69173" lon="-8.89221"><ele>97.0</ele><time>2026-04-17T09:42:04.889Z</time></trkpt><trkpt lat="42.691575" lon="-8.8920683"><ele>97.0</ele><time>2026-04-17T09:42:05.889Z</time></trkpt><trkpt lat="42.6914" lon="-8.8919617"><ele>97.0</ele><time>2026-04-17T09:42:06.889Z</time></trkpt><trkpt lat="42.6911983" lon="-8.891865"><ele>97.0</ele><time>2026-04-17T09:42:07.89Z</time></trkpt><trkpt lat="42.6909783" lon="-8.8917533"><ele>100.5</ele><time>2026-04-17T09:42:08.889Z</time></trkpt><trkpt lat="42.6907633" lon="-8.8916433"><ele>104.0</ele><time>2026-04-17T09:42:09.89Z</time></trkpt><trkpt lat="42.6905567" lon="-8.8915383"><ele>104.0</ele><time>2026-04-17T09:42:10.889Z</time></trkpt><trkpt lat="42.6903767" lon="-8.8914433"><ele>104.0</ele><time>2026-04-17T09:42:11.89Z</time></trkpt><trkpt lat="42.6902183" lon="-8.8913683"><ele>104.0</ele><time>2026-04-17T09:42:12.889Z</time></trkpt><trkpt lat="42.690065" lon="-8.8913283"><ele>101.0</ele><time>2026-04-17T09:42:13.89Z</time></trkpt><trkpt lat="42.6899183" lon="-8.8913067"><ele>98.0</ele><time>2026-04-17T09:42:14.889Z</time></trkpt><trkpt lat="42.6897683" lon="-8.8913267"><ele>95.0</ele><time>2026-04-17T09:42:15.889Z</time></trkpt><trkpt lat="42.6896183" lon="-8.8913717"><ele>95.0</ele><time>2026-04-17T09:42:16.889Z</time></trkpt><trkpt lat="42.68947" lon="-8.8914617"><ele>95.0</ele><time>2026-04-17T09:42:17.889Z</time></trkpt><trkpt lat="42.6893317" lon="-8.8915567"><ele>95.0</ele><time>2026-04-17T09:42:18.889Z</time></trkpt><trkpt lat="42.689185" lon="-8.8916433"><ele>93.25</ele><time>2026-04-17T09:42:19.889Z</time></trkpt><trkpt lat="42.6890533" lon="-8.8917167"><ele>91.5</ele><time>2026-04-17T09:42:20.889Z</time></trkpt><trkpt lat="42.68893" lon="-8.8917567"><ele>89.75</ele><time>2026-04-17T09:42:21.889Z</time></trkpt><trkpt lat="42.6888033" lon="-8.8917467"><ele>88.0</ele><time>2026-04-17T09:42:22.89Z</time></trkpt><trkpt lat="42.6887167" lon="-8.8917183"><ele>88.0</ele><time>2026-04-17T09:42:23.89Z</time></trkpt><trkpt lat="42.68866" lon="-8.891655"><ele>88.0</ele><time>2026-04-17T09:42:24.89Z</time></trkpt><trkpt lat="42.68862" lon="-8.8915817"><ele>88.0</ele><time>2026-04-17T09:42:25.889Z</time></trkpt><trkpt lat="42.6886117" lon="-8.89148"><ele>88.0</ele><time>2026-04-17T09:42:26.889Z</time></trkpt><trkpt lat="42.6886417" lon="-8.8913533"><ele>88.0</ele><time>2026-04-17T09:42:27.889Z</time></trkpt><trkpt lat="42.6886933" lon="-8.8912033"><ele>88.0</ele><time>2026-04-17T09:42:28.889Z</time></trkpt><trkpt lat="42.6887667" lon="-8.8910117"><ele>88.33333333333333</ele><time>2026-04-17T09:42:29.89Z</time></trkpt><trkpt lat="42.6888567" lon="-8.890795"><ele>88.66666666666667</ele><time>2026-04-17T09:42:30.89Z</time></trkpt><trkpt lat="42.6889417" lon="-8.8905883"><ele>89.0</ele><time>2026-04-17T09:42:31.889Z</time></trkpt><trkpt lat="42.6890167" lon="-8.89041"><ele>89.0</ele><time>2026-04-17T09:42:32.89Z</time></trkpt><trkpt lat="42.689065" lon="-8.8902833"><ele>89.0</ele><time>2026-04-17T09:42:33.889Z</time></trkpt><trkpt lat="42.68909" lon="-8.8901983"><ele>89.0</ele><time>2026-04-17T09:42:34.89Z</time></trkpt><trkpt lat="42.689095" lon="-8.89009"><ele>89.0</ele><time>2026-04-17T09:42:36.89Z</time></trkpt><trkpt lat="42.6890317" lon="-8.8900067"><ele>89.0</ele><time>2026-04-17T09:42:38.89Z</time></trkpt><trkpt lat="42.6889717" lon="-8.8899583"><ele>89.0</ele><time>2026-04-17T09:42:39.889Z</time></trkpt><trkpt lat="42.6889067" lon="-8.889895"><ele>85.33333333333334</ele><time>2026-04-17T09:42:40.889Z</time></trkpt><trkpt lat="42.6887683" lon="-8.8898383"><ele>81.66666666666667</ele><time>2026-04-17T09:42:41.89Z</time></trkpt><trkpt lat="42.6885983" lon="-8.889775"><ele>78.0</ele><time>2026-04-17T09:42:42.89Z</time></trkpt><trkpt lat="42.68841" lon="-8.889725"><ele>75.5</ele><time>2026-04-17T09:42:43.89Z</time></trkpt><trkpt lat="42.6881883" lon="-8.8896867"><ele>73.0</ele><time>2026-04-17T09:42:44.89Z</time></trkpt><trkpt lat="42.6879567" lon="-8.8896633"><ele>73.66666666666666</ele><time>2026-04-17T09:42:45.889Z</time></trkpt><trkpt lat="42.6877383" lon="-8.8896633"><ele>74.33333333333333</ele><time>2026-04-17T09:42:46.889Z</time></trkpt><trkpt lat="42.6875517" lon="-8.8896483"><ele>75.0</ele><time>2026-04-17T09:42:47.889Z</time></trkpt><trkpt lat="42.6873733" lon="-8.8896167"><ele>75.0</ele><time>2026-04-17T09:42:48.89Z</time></trkpt><trkpt lat="42.6871983" lon="-8.889565"><ele>75.0</ele><time>2026-04-17T09:42:49.89Z</time></trkpt><trkpt lat="42.6870133" lon="-8.889485"><ele>75.0</ele><time>2026-04-17T09:42:50.889Z</time></trkpt><trkpt lat="42.68683" lon="-8.889405"><ele>74.66666666666667</ele><time>2026-04-17T09:42:51.889Z</time></trkpt><trkpt lat="42.6866283" lon="-8.889315"><ele>74.33333333333334</ele><time>2026-04-17T09:42:52.889Z</time></trkpt><trkpt lat="42.6864267" lon="-8.8892133"><ele>74.0</ele><time>2026-04-17T09:42:53.891Z</time></trkpt><trkpt lat="42.686235" lon="-8.8891183"><ele>77.0</ele><time>2026-04-17T09:42:54.89Z</time></trkpt><trkpt lat="42.686065" lon="-8.8890267"><ele>80.0</ele><time>2026-04-17T09:42:55.891Z</time></trkpt><trkpt lat="42.6859217" lon="-8.8889533"><ele>83.0</ele><time>2026-04-17T09:42:56.891Z</time></trkpt><trkpt lat="42.6858233" lon="-8.8888967"><ele>86.0</ele><time>2026-04-17T09:42:57.89Z</time></trkpt><trkpt lat="42.685775" lon="-8.8888067"><ele>86.0</ele><time>2026-04-17T09:42:59.891Z</time></trkpt><trkpt lat="42.6858133" lon="-8.8887183"><ele>86.0</ele><time>2026-04-17T09:43:01.891Z</time></trkpt><trkpt lat="42.68594" lon="-8.8886317"><ele>86.0</ele><time>2026-04-17T09:43:03.89Z</time></trkpt><trkpt lat="42.686035" lon="-8.8885633"><ele>86.0</ele><time>2026-04-17T09:43:04.89Z</time></trkpt><trkpt lat="42.686175" lon="-8.8884717"><ele>92.66666666666667</ele><time>2026-04-17T09:43:05.891Z</time></trkpt><trkpt lat="42.6863567" lon="-8.8883883"><ele>99.33333333333334</ele><time>2026-04-17T09:43:06.891Z</time></trkpt><trkpt lat="42.68659" lon="-8.88829"><ele>106.0</ele><time>2026-04-17T09:43:07.89Z</time></trkpt><trkpt lat="42.6868533" lon="-8.8881783"><ele>106.5</ele><time>2026-04-17T09:43:08.891Z</time></trkpt><trkpt lat="42.6871167" lon="-8.8880383"><ele>107.0</ele><time>2026-04-17T09:43:09.891Z</time></trkpt><trkpt lat="42.687385" lon="-8.8879183"><ele>107.0</ele><time>2026-04-17T09:43:10.89Z</time></trkpt><trkpt lat="42.68763" lon="-8.887825"><ele>107.0</ele><time>2026-04-17T09:43:11.89Z</time></trkpt><trkpt lat="42.68786" lon="-8.8877567"><ele>108.33333333333333</ele><time>2026-04-17T09:43:12.891Z</time></trkpt><trkpt lat="42.68806" lon="-8.8877133"><ele>109.66666666666666</ele><time>2026-04-17T09:43:13.89Z</time></trkpt><trkpt lat="42.68824" lon="-8.887665"><ele>111.0</ele><time>2026-04-17T09:43:14.891Z</time></trkpt><trkpt lat="42.6883733" lon="-8.88764"><ele>111.0</ele><time>2026-04-17T09:43:15.89Z</time></trkpt><trkpt lat="42.6885033" lon="-8.887625"><ele>111.0</ele><time>2026-04-17T09:43:16.89Z</time></trkpt><trkpt lat="42.6886333" lon="-8.8876167"><ele>111.0</ele><time>2026-04-17T09:43:17.891Z</time></trkpt><trkpt lat="42.68877" lon="-8.8875883"><ele>111.0</ele><time>2026-04-17T09:43:18.89Z</time></trkpt><trkpt lat="42.68892" lon="-8.88755"><ele>116.0</ele><time>2026-04-17T09:43:19.89Z</time></trkpt><trkpt lat="42.68908" lon="-8.8874983"><ele>121.0</ele><time>2026-04-17T09:43:20.891Z</time></trkpt><trkpt lat="42.68924" lon="-8.8874133"><ele>126.0</ele><time>2026-04-17T09:43:21.891Z</time></trkpt><trkpt lat="42.6894117" lon="-8.8872917"><ele>126.0</ele><time>2026-04-17T09:43:22.891Z</time></trkpt><trkpt lat="42.6895983" lon="-8.887165"><ele>126.0</ele><time>2026-04-17T09:43:23.89Z</time></trkpt><trkpt lat="42.6897833" lon="-8.8870517"><ele>126.0</ele><time>2026-04-17T09:43:24.891Z</time></trkpt><trkpt lat="42.68996" lon="-8.8869617"><ele>126.0</ele><time>2026-04-17T09:43:25.891Z</time></trkpt><trkpt lat="42.6901267" lon="-8.8869117"><ele>126.0</ele><time>2026-04-17T09:43:26.891Z</time></trkpt><trkpt lat="42.6902717" lon="-8.8868733"><ele>126.0</ele><time>2026-04-17T09:43:27.89Z</time></trkpt><trkpt lat="42.690405" lon="-8.88685"><ele>126.33333333333333</ele><time>2026-04-17T09:43:28.89Z</time></trkpt><trkpt lat="42.690515" lon="-8.886855"><ele>126.66666666666666</ele><time>2026-04-17T09:43:29.891Z</time></trkpt><trkpt lat="42.6905967" lon="-8.8868883"><ele>127.0</ele><time>2026-04-17T09:43:30.89Z</time></trkpt><trkpt lat="42.69067" lon="-8.8869483"><ele>127.33333333333333</ele><time>2026-04-17T09:43:31.89Z</time></trkpt><trkpt lat="42.690725" lon="-8.8870167"><ele>127.66666666666666</ele><time>2026-04-17T09:43:32.891Z</time></trkpt><trkpt lat="42.6907967" lon="-8.88705"><ele>128.0</ele><time>2026-04-17T09:43:33.89Z</time></trkpt><trkpt lat="42.6908917" lon="-8.8870717"><ele>128.0</ele><time>2026-04-17T09:43:34.89Z</time></trkpt><trkpt lat="42.6910067" lon="-8.8870717"><ele>128.0</ele><time>2026-04-17T09:43:35.891Z</time></trkpt><trkpt lat="42.6911183" lon="-8.8870483"><ele>128.0</ele><time>2026-04-17T09:43:36.891Z</time></trkpt><trkpt lat="42.6912117" lon="-8.8870183"><ele>128.0</ele><time>2026-04-17T09:43:37.891Z</time></trkpt><trkpt lat="42.6912933" lon="-8.88698"><ele>128.0</ele><time>2026-04-17T09:43:38.891Z</time></trkpt><trkpt lat="42.6913733" lon="-8.8869417"><ele>129.33333333333331</ele><time>2026-04-17T09:43:39.891Z</time></trkpt><trkpt lat="42.6914383" lon="-8.886915"><ele>130.66666666666666</ele><time>2026-04-17T09:43:40.89Z</time></trkpt><trkpt lat="42.6915033" lon="-8.886885"><ele>132.0</ele><time>2026-04-17T09:43:41.89Z</time></trkpt><trkpt lat="42.6914017" lon="-8.8869033"><ele>133.33333333333334</ele><time>2026-04-17T09:43:52.891Z</time></trkpt><trkpt lat="42.69131" lon="-8.8869417"><ele>134.66666666666669</ele><time>2026-04-17T09:43:53.89Z</time></trkpt><trkpt lat="42.6912317" lon="-8.8869683"><ele>136.0</ele><time>2026-04-17T09:43:54.89Z</time></trkpt><trkpt lat="42.691145" lon="-8.88699"><ele>134.8</ele><time>2026-04-17T09:43:56.89Z</time></trkpt><trkpt lat="42.6910767" lon="-8.8869817"><ele>133.6</ele><time>2026-04-17T09:43:58.89Z</time></trkpt><trkpt lat="42.6909683" lon="-8.88686"><ele>132.4</ele><time>2026-04-17T09:44:00.891Z</time></trkpt><trkpt lat="42.6909167" lon="-8.8867233"><ele>131.2</ele><time>2026-04-17T09:44:01.89Z</time></trkpt><trkpt lat="42.69086" lon="-8.8865917"><ele>130.0</ele><time>2026-04-17T09:44:02.891Z</time></trkpt><trkpt lat="42.690775" lon="-8.88645"><ele>130.0</ele><time>2026-04-17T09:44:03.89Z</time></trkpt><trkpt lat="42.6906683" lon="-8.8863533"><ele>130.0</ele><time>2026-04-17T09:44:04.891Z</time></trkpt><trkpt lat="42.6905617" lon="-8.8862783"><ele>130.0</ele><time>2026-04-17T09:44:05.891Z</time></trkpt><trkpt lat="42.6904433" lon="-8.8862417"><ele>130.0</ele><time>2026-04-17T09:44:06.891Z</time></trkpt><trkpt lat="42.6903" lon="-8.8862367"><ele>130.66666666666669</ele><time>2026-04-17T09:44:07.89Z</time></trkpt><trkpt lat="42.69013" lon="-8.8862467"><ele>131.33333333333334</ele><time>2026-04-17T09:44:08.891Z</time></trkpt><trkpt lat="42.68994" lon="-8.88626"><ele>132.0</ele><time>2026-04-17T09:44:09.89Z</time></trkpt><trkpt lat="42.6897367" lon="-8.88625"><ele>132.0</ele><time>2026-04-17T09:44:10.89Z</time></trkpt><trkpt lat="42.68954" lon="-8.8862517"><ele>132.0</ele><time>2026-04-17T09:44:11.891Z</time></trkpt><trkpt lat="42.6893483" lon="-8.88627"><ele>132.0</ele><time>2026-04-17T09:44:12.89Z</time></trkpt><trkpt lat="42.6891583" lon="-8.886305"><ele>133.0</ele><time>2026-04-17T09:44:13.891Z</time></trkpt><trkpt lat="42.6889783" lon="-8.8863333"><ele>134.0</ele><time>2026-04-17T09:44:14.891Z</time></trkpt><trkpt lat="42.688795" lon="-8.88637"><ele>135.0</ele><time>2026-04-17T09:44:15.891Z</time></trkpt><trkpt lat="42.688605" lon="-8.8864167"><ele>130.0</ele><time>2026-04-17T09:44:16.891Z</time></trkpt><trkpt lat="42.688395" lon="-8.88648"><ele>125.0</ele><time>2026-04-17T09:44:17.891Z</time></trkpt><trkpt lat="42.6881783" lon="-8.8865367"><ele>120.0</ele><time>2026-04-17T09:44:18.89Z</time></trkpt><trkpt lat="42.6879917" lon="-8.8865867"><ele>120.0</ele><time>2026-04-17T09:44:19.891Z</time></trkpt><trkpt lat="42.68784" lon="-8.8866233"><ele>120.0</ele><time>2026-04-17T09:44:20.89Z</time></trkpt><trkpt lat="42.6877317" lon="-8.886675"><ele>120.0</ele><time>2026-04-17T09:44:21.89Z</time></trkpt><trkpt lat="42.6876583" lon="-8.8867533"><ele>120.0</ele><time>2026-04-17T09:44:22.89Z</time></trkpt><trkpt lat="42.6876033" lon="-8.8868517"><ele>120.66666666666667</ele><time>2026-04-17T09:44:23.891Z</time></trkpt><trkpt lat="42.6875517" lon="-8.8869217"><ele>121.33333333333334</ele><time>2026-04-17T09:44:24.891Z</time></trkpt><trkpt lat="42.6874667" lon="-8.8869517"><ele>122.0</ele><time>2026-04-17T09:44:26.89Z</time></trkpt><trkpt lat="42.6873467" lon="-8.8869117"><ele>122.66666666666667</ele><time>2026-04-17T09:44:28.89Z</time></trkpt><trkpt lat="42.6872783" lon="-8.8868933"><ele>123.33333333333334</ele><time>2026-04-17T09:44:29.891Z</time></trkpt><trkpt lat="42.6871933" lon="-8.8868667"><ele>124.0</ele><time>2026-04-17T09:44:30.891Z</time></trkpt><trkpt lat="42.6870983" lon="-8.88681"><ele>124.4</ele><time>2026-04-17T09:44:31.89Z</time></trkpt><trkpt lat="42.68701" lon="-8.886735"><ele>124.80000000000001</ele><time>2026-04-17T09:44:32.89Z</time></trkpt><trkpt lat="42.686925" lon="-8.88664"><ele>125.19999999999999</ele><time>2026-04-17T09:44:33.89Z</time></trkpt><trkpt lat="42.686855" lon="-8.8865317"><ele>125.6</ele><time>2026-04-17T09:44:34.89Z</time></trkpt><trkpt lat="42.6867933" lon="-8.8864167"><ele>126.0</ele><time>2026-04-17T09:44:35.89Z</time></trkpt><trkpt lat="42.6867433" lon="-8.8863033"><ele>127.0</ele><time>2026-04-17T09:44:36.89Z</time></trkpt><trkpt lat="42.6867217" lon="-8.88617"><ele>128.0</ele><time>2026-04-17T09:44:37.89Z</time></trkpt><trkpt lat="42.6867233" lon="-8.8860317"><ele>129.0</ele><time>2026-04-17T09:44:38.891Z</time></trkpt><trkpt lat="42.686725" lon="-8.88589"><ele>130.0</ele><time>2026-04-17T09:44:39.89Z</time></trkpt><trkpt lat="42.6867133" lon="-8.88577"><ele>131.0</ele><time>2026-04-17T09:44:40.891Z</time></trkpt><trkpt lat="42.6866933" lon="-8.8856883"><ele>132.25</ele><time>2026-04-17T09:44:41.89Z</time></trkpt><trkpt lat="42.6865833" lon="-8.885645"><ele>133.5</ele><time>2026-04-17T09:44:43.89Z</time></trkpt><trkpt lat="42.68649" lon="-8.8856683"><ele>134.75</ele><time>2026-04-17T09:44:44.891Z</time></trkpt><trkpt lat="42.6863667" lon="-8.8856883"><ele>136.0</ele><time>2026-04-17T09:44:45.89Z</time></trkpt><trkpt lat="42.68624" lon="-8.885685"><ele>136.0</ele><time>2026-04-17T09:44:46.89Z</time></trkpt><trkpt lat="42.6861233" lon="-8.8856617"><ele>136.0</ele><time>2026-04-17T09:44:47.891Z</time></trkpt><trkpt lat="42.6860067" lon="-8.8856267"><ele>136.0</ele><time>2026-04-17T09:44:48.891Z</time></trkpt><trkpt lat="42.68589" lon="-8.8855867"><ele>136.0</ele><time>2026-04-17T09:44:49.891Z</time></trkpt><trkpt lat="42.6857733" lon="-8.8855517"><ele>136.2</ele><time>2026-04-17T09:44:50.89Z</time></trkpt><trkpt lat="42.6856683" lon="-8.8855167"><ele>136.39999999999998</ele><time>2026-04-17T09:44:51.891Z</time></trkpt><trkpt lat="42.6855633" lon="-8.8854867"><ele>136.6</ele><time>2026-04-17T09:44:52.891Z</time></trkpt><trkpt lat="42.685465" lon="-8.8854517"><ele>136.79999999999998</ele><time>2026-04-17T09:44:53.891Z</time></trkpt><trkpt lat="42.6853667" lon="-8.8853983"><ele>137.0</ele><time>2026-04-17T09:44:54.891Z</time></trkpt><trkpt lat="42.6852817" lon="-8.885335"><ele>135.6</ele><time>2026-04-17T09:44:55.891Z</time></trkpt><trkpt lat="42.6852117" lon="-8.88525"><ele>134.2</ele><time>2026-04-17T09:44:56.89Z</time></trkpt><trkpt lat="42.6851433" lon="-8.8851367"><ele>132.8</ele><time>2026-04-17T09:44:57.89Z</time></trkpt><trkpt lat="42.68509" lon="-8.885"><ele>131.4</ele><time>2026-04-17T09:44:58.891Z</time></trkpt><trkpt lat="42.68505" lon="-8.884875"><ele>130.0</ele><time>2026-04-17T09:44:59.891Z</time></trkpt><trkpt lat="42.6850067" lon="-8.8847733"><ele>130.0</ele><time>2026-04-17T09:45:00.89Z</time></trkpt><trkpt lat="42.684975" lon="-8.884695"><ele>130.0</ele><time>2026-04-17T09:45:01.891Z</time></trkpt><trkpt lat="42.6849833" lon="-8.8845817"><ele>130.0</ele><time>2026-04-17T09:45:03.891Z</time></trkpt><trkpt lat="42.68512" lon="-8.88455"><ele>130.0</ele><time>2026-04-17T09:45:05.891Z</time></trkpt><trkpt lat="42.6852333" lon="-8.88457"><ele>130.0</ele><time>2026-04-17T09:45:06.891Z</time></trkpt><trkpt lat="42.6853467" lon="-8.884585"><ele>132.6</ele><time>2026-04-17T09:45:07.891Z</time></trkpt><trkpt lat="42.685455" lon="-8.8845817"><ele>135.2</ele><time>2026-04-17T09:45:08.891Z</time></trkpt><trkpt lat="42.6855617" lon="-8.884575"><ele>137.8</ele><time>2026-04-17T09:45:09.891Z</time></trkpt><trkpt lat="42.6856717" lon="-8.8845617"><ele>140.4</ele><time>2026-04-17T09:45:10.891Z</time></trkpt><trkpt lat="42.685775" lon="-8.8845633"><ele>143.0</ele><time>2026-04-17T09:45:11.891Z</time></trkpt><trkpt lat="42.6858867" lon="-8.88456"><ele>143.0</ele><time>2026-04-17T09:45:12.89Z</time></trkpt><trkpt lat="42.686" lon="-8.88455"><ele>143.0</ele><time>2026-04-17T09:45:13.89Z</time></trkpt><trkpt lat="42.6861133" lon="-8.88455"><ele>143.0</ele><time>2026-04-17T09:45:14.89Z</time></trkpt><trkpt lat="42.68623" lon="-8.88455"><ele>143.0</ele><time>2026-04-17T09:45:15.891Z</time></trkpt><trkpt lat="42.6863383" lon="-8.8845583"><ele>144.25</ele><time>2026-04-17T09:45:16.89Z</time></trkpt><trkpt lat="42.6864633" lon="-8.8845467"><ele>145.5</ele><time>2026-04-17T09:45:17.891Z</time></trkpt><trkpt lat="42.6865833" lon="-8.88454"><ele>146.75</ele><time>2026-04-17T09:45:18.891Z</time></trkpt><trkpt lat="42.6867017" lon="-8.8845483"><ele>148.0</ele><time>2026-04-17T09:45:19.89Z</time></trkpt><trkpt lat="42.6868233" lon="-8.8845417"><ele>147.4</ele><time>2026-04-17T09:45:20.891Z</time></trkpt><trkpt lat="42.6869417" lon="-8.884535"><ele>146.8</ele><time>2026-04-17T09:45:21.891Z</time></trkpt><trkpt lat="42.687055" lon="-8.8845367"><ele>146.2</ele><time>2026-04-17T09:45:22.891Z</time></trkpt><trkpt lat="42.6871617" lon="-8.884545"><ele>145.6</ele><time>2026-04-17T09:45:23.891Z</time></trkpt><trkpt lat="42.6872667" lon="-8.8845567"><ele>145.0</ele><time>2026-04-17T09:45:24.89Z</time></trkpt><trkpt lat="42.6873683" lon="-8.8845617"><ele>145.0</ele><time>2026-04-17T09:45:25.891Z</time></trkpt><trkpt lat="42.6874617" lon="-8.8845633"><ele>145.0</ele><time>2026-04-17T09:45:26.891Z</time></trkpt><trkpt lat="42.687545" lon="-8.8845717"><ele>145.0</ele><time>2026-04-17T09:45:27.89Z</time></trkpt><trkpt lat="42.6876383" lon="-8.8845883"><ele>145.0</ele><time>2026-04-17T09:45:28.89Z</time></trkpt><trkpt lat="42.68773" lon="-8.8846"><ele>145.0</ele><time>2026-04-17T09:45:29.891Z</time></trkpt><trkpt lat="42.6878117" lon="-8.8845967"><ele>145.0</ele><time>2026-04-17T09:45:30.89Z</time></trkpt><trkpt lat="42.6878833" lon="-8.8845917"><ele>145.2</ele><time>2026-04-17T09:45:31.891Z</time></trkpt><trkpt lat="42.68799" lon="-8.8845567"><ele>145.4</ele><time>2026-04-17T09:45:33.891Z</time></trkpt><trkpt lat="42.6880267" lon="-8.8844533"><ele>145.6</ele><time>2026-04-17T09:45:35.89Z</time></trkpt><trkpt lat="42.68809" lon="-8.88433"><ele>145.8</ele><time>2026-04-17T09:45:37.891Z</time></trkpt><trkpt lat="42.6881417" lon="-8.8842483"><ele>146.0</ele><time>2026-04-17T09:45:38.89Z</time></trkpt><trkpt lat="42.6881933" lon="-8.8841433"><ele>150.75</ele><time>2026-04-17T09:45:39.891Z</time></trkpt><trkpt lat="42.6882633" lon="-8.8840333"><ele>155.5</ele><time>2026-04-17T09:45:40.89Z</time></trkpt><trkpt lat="42.6883367" lon="-8.8839067"><ele>160.25</ele><time>2026-04-17T09:45:41.891Z</time></trkpt><trkpt lat="42.6884117" lon="-8.8837817"><ele>165.0</ele><time>2026-04-17T09:45:42.891Z</time></trkpt><trkpt lat="42.6884767" lon="-8.8836583"><ele>165.0</ele><time>2026-04-17T09:45:43.89Z</time></trkpt><trkpt lat="42.6885467" lon="-8.8835233"><ele>165.0</ele><time>2026-04-17T09:45:44.891Z</time></trkpt><trkpt lat="42.6886267" lon="-8.8833683"><ele>165.0</ele><time>2026-04-17T09:45:45.89Z</time></trkpt><trkpt lat="42.6887117" lon="-8.88321"><ele>165.0</ele><time>2026-04-17T09:45:46.89Z</time></trkpt><trkpt lat="42.6888017" lon="-8.8830933"><ele>168.0</ele><time>2026-04-17T09:45:47.89Z</time></trkpt><trkpt lat="42.6889083" lon="-8.8830017"><ele>171.0</ele><time>2026-04-17T09:45:48.891Z</time></trkpt><trkpt lat="42.6890117" lon="-8.8829667"><ele>174.0</ele><time>2026-04-17T09:45:49.891Z</time></trkpt><trkpt lat="42.6891417" lon="-8.8829317"><ele>177.0</ele><time>2026-04-17T09:45:50.891Z</time></trkpt><trkpt lat="42.689295" lon="-8.88289"><ele>177.66666666666666</ele><time>2026-04-17T09:45:51.89Z</time></trkpt><trkpt lat="42.6894667" lon="-8.882815"><ele>178.33333333333331</ele><time>2026-04-17T09:45:52.89Z</time></trkpt><trkpt lat="42.6896267" lon="-8.8827233"><ele>179.0</ele><time>2026-04-17T09:45:53.89Z</time></trkpt><trkpt lat="42.68978" lon="-8.8826383"><ele>185.33333333333331</ele><time>2026-04-17T09:45:54.89Z</time></trkpt><trkpt lat="42.6899317" lon="-8.882565"><ele>191.66666666666666</ele><time>2026-04-17T09:45:55.89Z</time></trkpt><trkpt lat="42.6900867" lon="-8.8824967"><ele>198.0</ele><time>2026-04-17T09:45:56.89Z</time></trkpt><trkpt lat="42.6902383" lon="-8.8824317"><ele>196.5</ele><time>2026-04-17T09:45:57.89Z</time></trkpt><trkpt lat="42.6903767" lon="-8.8823517"><ele>195.0</ele><time>2026-04-17T09:45:58.891Z</time></trkpt><trkpt lat="42.6905083" lon="-8.882265"><ele>193.5</ele><time>2026-04-17T09:45:59.891Z</time></trkpt><trkpt lat="42.6906317" lon="-8.8821867"><ele>192.0</ele><time>2026-04-17T09:46:00.891Z</time></trkpt><trkpt lat="42.6907633" lon="-8.8821283"><ele>192.0</ele><time>2026-04-17T09:46:01.891Z</time></trkpt><trkpt lat="42.6909183" lon="-8.8820783"><ele>192.0</ele><time>2026-04-17T09:46:02.89Z</time></trkpt><trkpt lat="42.69109" lon="-8.88202"><ele>192.0</ele><time>2026-04-17T09:46:03.89Z</time></trkpt><trkpt lat="42.6912717" lon="-8.8819633"><ele>192.66666666666669</ele><time>2026-04-17T09:46:04.89Z</time></trkpt><trkpt lat="42.691455" lon="-8.881915"><ele>193.33333333333334</ele><time>2026-04-17T09:46:05.89Z</time></trkpt><trkpt lat="42.6916467" lon="-8.8818817"><ele>194.0</ele><time>2026-04-17T09:46:06.89Z</time></trkpt><trkpt lat="42.6918567" lon="-8.8818533"><ele>198.33333333333334</ele><time>2026-04-17T09:46:07.891Z</time></trkpt><trkpt lat="42.69207" lon="-8.88182"><ele>202.66666666666669</ele><time>2026-04-17T09:46:08.89Z</time></trkpt><trkpt lat="42.6922833" lon="-8.881785"><ele>207.0</ele><time>2026-04-17T09:46:09.89Z</time></trkpt><trkpt lat="42.692495" lon="-8.8817333"><ele>214.0</ele><time>2026-04-17T09:46:10.891Z</time></trkpt><trkpt lat="42.6927067" lon="-8.8816517"><ele>221.0</ele><time>2026-04-17T09:46:11.89Z</time></trkpt><trkpt lat="42.69292" lon="-8.8815717"><ele>228.0</ele><time>2026-04-17T09:46:12.891Z</time></trkpt><trkpt lat="42.693115" lon="-8.8815233"><ele>230.25</ele><time>2026-04-17T09:46:13.89Z</time></trkpt><trkpt lat="42.6932767" lon="-8.88149"><ele>232.5</ele><time>2026-04-17T09:46:14.89Z</time></trkpt><trkpt lat="42.6933967" lon="-8.8814633"><ele>234.75</ele><time>2026-04-17T09:46:15.891Z</time></trkpt><trkpt lat="42.6935117" lon="-8.881465"><ele>237.0</ele><time>2026-04-17T09:46:16.89Z</time></trkpt><trkpt lat="42.693595" lon="-8.8814917"><ele>237.75</ele><time>2026-04-17T09:46:17.891Z</time></trkpt><trkpt lat="42.6936883" lon="-8.8815433"><ele>238.5</ele><time>2026-04-17T09:46:18.89Z</time></trkpt><trkpt lat="42.69379" lon="-8.8816533"><ele>239.25</ele><time>2026-04-17T09:46:19.891Z</time></trkpt><trkpt lat="42.6939233" lon="-8.8817933"><ele>240.0</ele><time>2026-04-17T09:46:20.89Z</time></trkpt><trkpt lat="42.6940783" lon="-8.8819417"><ele>236.0</ele><time>2026-04-17T09:46:21.89Z</time></trkpt><trkpt lat="42.6942567" lon="-8.88209"><ele>232.0</ele><time>2026-04-17T09:46:22.89Z</time></trkpt><trkpt lat="42.6944367" lon="-8.8822117"><ele>228.0</ele><time>2026-04-17T09:46:23.89Z</time></trkpt><trkpt lat="42.6946183" lon="-8.882315"><ele>228.0</ele><time>2026-04-17T09:46:24.89Z</time></trkpt><trkpt lat="42.6948167" lon="-8.8824"><ele>228.0</ele><time>2026-04-17T09:46:25.891Z</time></trkpt><trkpt lat="42.6950467" lon="-8.8824567"><ele>228.0</ele><time>2026-04-17T09:46:26.89Z</time></trkpt><trkpt lat="42.695295" lon="-8.8824933"><ele>229.33333333333331</ele><time>2026-04-17T09:46:27.89Z</time></trkpt><trkpt lat="42.6955217" lon="-8.882545"><ele>230.66666666666666</ele><time>2026-04-17T09:46:28.89Z</time></trkpt><trkpt lat="42.6957367" lon="-8.882595"><ele>232.0</ele><time>2026-04-17T09:46:29.89Z</time></trkpt><trkpt lat="42.6959233" lon="-8.8826717"><ele>234.25</ele><time>2026-04-17T09:46:30.891Z</time></trkpt><trkpt lat="42.696085" lon="-8.8827667"><ele>236.5</ele><time>2026-04-17T09:46:31.891Z</time></trkpt><trkpt lat="42.6962133" lon="-8.8828633"><ele>238.75</ele><time>2026-04-17T09:46:32.89Z</time></trkpt><trkpt lat="42.6963033" lon="-8.8829533"><ele>241.0</ele><time>2026-04-17T09:46:33.891Z</time></trkpt><trkpt lat="42.6963883" lon="-8.8830667"><ele>241.0</ele><time>2026-04-17T09:46:34.891Z</time></trkpt><trkpt lat="42.69644" lon="-8.8832083"><ele>241.0</ele><time>2026-04-17T09:46:35.89Z</time></trkpt><trkpt lat="42.6964433" lon="-8.883375"><ele>241.0</ele><time>2026-04-17T09:46:36.891Z</time></trkpt><trkpt lat="42.6964433" lon="-8.8836067"><ele>241.0</ele><time>2026-04-17T09:46:37.891Z</time></trkpt><trkpt lat="42.6964583" lon="-8.8838633"><ele>238.66666666666666</ele><time>2026-04-17T09:46:38.891Z</time></trkpt><trkpt lat="42.6965017" lon="-8.8841283"><ele>236.33333333333331</ele><time>2026-04-17T09:46:39.89Z</time></trkpt><trkpt lat="42.69658" lon="-8.8843817"><ele>234.0</ele><time>2026-04-17T09:46:40.89Z</time></trkpt><trkpt lat="42.6966817" lon="-8.88459"><ele>234.33333333333331</ele><time>2026-04-17T09:46:41.891Z</time></trkpt><trkpt lat="42.6967733" lon="-8.88477"><ele>234.66666666666666</ele><time>2026-04-17T09:46:42.891Z</time></trkpt><trkpt lat="42.6968883" lon="-8.8849183"><ele>235.0</ele><time>2026-04-17T09:46:43.891Z</time></trkpt><trkpt lat="42.697025" lon="-8.8850483"><ele>228.33333333333331</ele><time>2026-04-17T09:46:44.89Z</time></trkpt><trkpt lat="42.69719" lon="-8.88516"><ele>221.66666666666669</ele><time>2026-04-17T09:46:45.891Z</time></trkpt><trkpt lat="42.6973733" lon="-8.8852283"><ele>215.0</ele><time>2026-04-17T09:46:46.89Z</time></trkpt><trkpt lat="42.6975983" lon="-8.88527"><ele>216.5</ele><time>2026-04-17T09:46:47.891Z</time></trkpt><trkpt lat="42.6978417" lon="-8.8853017"><ele>218.0</ele><time>2026-04-17T09:46:48.89Z</time></trkpt><trkpt lat="42.698065" lon="-8.8853283"><ele>218.0</ele><time>2026-04-17T09:46:49.89Z</time></trkpt><trkpt lat="42.698285" lon="-8.88535"><ele>218.0</ele><time>2026-04-17T09:46:50.89Z</time></trkpt><trkpt lat="42.6984933" lon="-8.8853933"><ele>218.0</ele><time>2026-04-17T09:46:51.89Z</time></trkpt><trkpt lat="42.6987" lon="-8.8854633"><ele>222.5</ele><time>2026-04-17T09:46:52.891Z</time></trkpt><trkpt lat="42.6989133" lon="-8.8855583"><ele>227.0</ele><time>2026-04-17T09:46:53.891Z</time></trkpt><trkpt lat="42.6991367" lon="-8.8856467"><ele>227.0</ele><time>2026-04-17T09:46:54.89Z</time></trkpt><trkpt lat="42.699365" lon="-8.8857117"><ele>227.0</ele><time>2026-04-17T09:46:55.89Z</time></trkpt><trkpt lat="42.6995983" lon="-8.8857717"><ele>228.33333333333334</ele><time>2026-04-17T09:46:56.89Z</time></trkpt><trkpt lat="42.69981" lon="-8.8858383"><ele>229.66666666666669</ele><time>2026-04-17T09:46:57.891Z</time></trkpt><trkpt lat="42.700005" lon="-8.8859183"><ele>231.0</ele><time>2026-04-17T09:46:58.89Z</time></trkpt><trkpt lat="42.7001567" lon="-8.8859983"><ele>232.4</ele><time>2026-04-17T09:46:59.89Z</time></trkpt><trkpt lat="42.7002817" lon="-8.886065"><ele>233.8</ele><time>2026-04-17T09:47:00.891Z</time></trkpt><trkpt lat="42.7003517" lon="-8.88614"><ele>235.20000000000002</ele><time>2026-04-17T09:47:01.891Z</time></trkpt><trkpt lat="42.7004" lon="-8.886215"><ele>236.60000000000002</ele><time>2026-04-17T09:47:02.89Z</time></trkpt><trkpt lat="42.7004233" lon="-8.8863733"><ele>238.0</ele><time>2026-04-17T09:47:04.89Z</time></trkpt><trkpt lat="42.7003867" lon="-8.8864433"><ele>238.0</ele><time>2026-04-17T09:47:05.891Z</time></trkpt><trkpt lat="42.7003733" lon="-8.886545"><ele>238.0</ele><time>2026-04-17T09:47:06.89Z</time></trkpt><trkpt lat="42.7002783" lon="-8.88666"><ele>238.0</ele><time>2026-04-17T09:47:07.89Z</time></trkpt><trkpt lat="42.700195" lon="-8.88676"><ele>238.0</ele><time>2026-04-17T09:47:08.89Z</time></trkpt><trkpt lat="42.7000667" lon="-8.8868533"><ele>236.16666666666666</ele><time>2026-04-17T09:47:09.891Z</time></trkpt><trkpt lat="42.7000183" lon="-8.88694"><ele>234.33333333333331</ele><time>2026-04-17T09:47:10.891Z</time></trkpt><trkpt lat="42.6999933" lon="-8.8870233"><ele>232.5</ele><time>2026-04-17T09:47:11.891Z</time></trkpt><trkpt lat="42.70005" lon="-8.8871333"><ele>230.66666666666669</ele><time>2026-04-17T09:47:13.89Z</time></trkpt><trkpt lat="42.7001167" lon="-8.8872033"><ele>228.83333333333334</ele><time>2026-04-17T09:47:14.89Z</time></trkpt><trkpt lat="42.7002183" lon="-8.8872367"><ele>227.0</ele><time>2026-04-17T09:47:15.89Z</time></trkpt><trkpt lat="42.70035" lon="-8.8872833"><ele>226.75</ele><time>2026-04-17T09:47:16.891Z</time></trkpt><trkpt lat="42.7005017" lon="-8.8872967"><ele>226.5</ele><time>2026-04-17T09:47:17.89Z</time></trkpt><trkpt lat="42.7006233" lon="-8.8873133"><ele>226.25</ele><time>2026-04-17T09:47:18.89Z</time></trkpt><trkpt lat="42.7007617" lon="-8.8872917"><ele>226.0</ele><time>2026-04-17T09:47:19.891Z</time></trkpt><trkpt lat="42.700895" lon="-8.88724"><ele>224.5</ele><time>2026-04-17T09:47:20.89Z</time></trkpt><trkpt lat="42.7011033" lon="-8.8870367"><ele>223.0</ele><time>2026-04-17T09:47:21.89Z</time></trkpt><trkpt lat="42.7012817" lon="-8.886895"><ele>223.0</ele><time>2026-04-17T09:47:22.891Z</time></trkpt><trkpt lat="42.7014483" lon="-8.8868267"><ele>223.0</ele><time>2026-04-17T09:47:23.89Z</time></trkpt><trkpt lat="42.7016217" lon="-8.8867967"><ele>223.0</ele><time>2026-04-17T09:47:24.891Z</time></trkpt><trkpt lat="42.70181" lon="-8.8868133"><ele>226.66666666666666</ele><time>2026-04-17T09:47:25.89Z</time></trkpt><trkpt lat="42.7020067" lon="-8.8868333"><ele>230.33333333333331</ele><time>2026-04-17T09:47:26.891Z</time></trkpt><trkpt lat="42.702205" lon="-8.8868617"><ele>234.0</ele><time>2026-04-17T09:47:27.89Z</time></trkpt><trkpt lat="42.7023783" lon="-8.8868667"><ele>234.0</ele><time>2026-04-17T09:47:28.891Z</time></trkpt><trkpt lat="42.702525" lon="-8.8868583"><ele>233.99999999999997</ele><time>2026-04-17T09:47:29.891Z</time></trkpt><trkpt lat="42.7026533" lon="-8.8868567"><ele>233.99999999999997</ele><time>2026-04-17T09:47:30.89Z</time></trkpt><trkpt lat="42.7027383" lon="-8.8868533"><ele>234.0</ele><time>2026-04-17T09:47:31.891Z</time></trkpt><trkpt lat="42.7028233" lon="-8.8868483"><ele>234.0</ele><time>2026-04-17T09:47:32.891Z</time></trkpt><trkpt lat="42.7028967" lon="-8.8868383"><ele>234.66666666666666</ele><time>2026-04-17T09:47:33.89Z</time></trkpt><trkpt lat="42.70298" lon="-8.8868167"><ele>235.33333333333331</ele><time>2026-04-17T09:47:34.89Z</time></trkpt><trkpt lat="42.7030617" lon="-8.8867883"><ele>236.0</ele><time>2026-04-17T09:47:35.891Z</time></trkpt><trkpt lat="42.7031283" lon="-8.88675"><ele>236.66666666666666</ele><time>2026-04-17T09:47:36.891Z</time></trkpt><trkpt lat="42.7031967" lon="-8.88671"><ele>237.33333333333331</ele><time>2026-04-17T09:47:37.891Z</time></trkpt><trkpt lat="42.70328" lon="-8.8866717"><ele>238.0</ele><time>2026-04-17T09:47:38.891Z</time></trkpt><trkpt lat="42.7033867" lon="-8.8866217"><ele>243.25</ele><time>2026-04-17T09:47:39.89Z</time></trkpt><trkpt lat="42.7035017" lon="-8.88658"><ele>248.5</ele><time>2026-04-17T09:47:40.89Z</time></trkpt><trkpt lat="42.7036233" lon="-8.886545"><ele>253.75</ele><time>2026-04-17T09:47:41.891Z</time></trkpt><trkpt lat="42.7037533" lon="-8.8865133"><ele>259.0</ele><time>2026-04-17T09:47:42.89Z</time></trkpt><trkpt lat="42.7038917" lon="-8.8864883"><ele>259.0</ele><time>2026-04-17T09:47:43.891Z</time></trkpt><trkpt lat="42.704055" lon="-8.8864917"><ele>259.0</ele><time>2026-04-17T09:47:44.891Z</time></trkpt><trkpt lat="42.7042317" lon="-8.88651"><ele>259.0</ele><time>2026-04-17T09:47:45.89Z</time></trkpt><trkpt lat="42.7044283" lon="-8.886535"><ele>259.3333333333333</ele><time>2026-04-17T09:47:46.891Z</time></trkpt><trkpt lat="42.7046333" lon="-8.8865583"><ele>259.6666666666667</ele><time>2026-04-17T09:47:47.89Z</time></trkpt><trkpt lat="42.7048467" lon="-8.88659"><ele>260.0</ele><time>2026-04-17T09:47:48.891Z</time></trkpt><trkpt lat="42.7050467" lon="-8.8866133"><ele>260.0</ele><time>2026-04-17T09:47:49.891Z</time></trkpt><trkpt lat="42.705235" lon="-8.88663"><ele>260.0</ele><time>2026-04-17T09:47:50.89Z</time></trkpt><trkpt lat="42.705425" lon="-8.8866333"><ele>260.0</ele><time>2026-04-17T09:47:51.89Z</time></trkpt><trkpt lat="42.7056133" lon="-8.8866417"><ele>259.6666666666667</ele><time>2026-04-17T09:47:52.891Z</time></trkpt><trkpt lat="42.70581" lon="-8.8866683"><ele>259.3333333333333</ele><time>2026-04-17T09:47:53.891Z</time></trkpt><trkpt lat="42.7060183" lon="-8.8867017"><ele>259.0</ele><time>2026-04-17T09:47:54.891Z</time></trkpt><trkpt lat="42.7062283" lon="-8.8867417"><ele>254.66666666666666</ele><time>2026-04-17T09:47:55.891Z</time></trkpt><trkpt lat="42.70644" lon="-8.8867833"><ele>250.33333333333331</ele><time>2026-04-17T09:47:56.89Z</time></trkpt><trkpt lat="42.7066433" lon="-8.8868333"><ele>246.0</ele><time>2026-04-17T09:47:57.89Z</time></trkpt><trkpt lat="42.7068517" lon="-8.8868833"><ele>248.33333333333331</ele><time>2026-04-17T09:47:58.891Z</time></trkpt><trkpt lat="42.7070483" lon="-8.8869283"><ele>250.66666666666666</ele><time>2026-04-17T09:47:59.89Z</time></trkpt><trkpt lat="42.7072583" lon="-8.8869583"><ele>253.0</ele><time>2026-04-17T09:48:00.89Z</time></trkpt><trkpt lat="42.7074583" lon="-8.887"><ele>253.0</ele><time>2026-04-17T09:48:01.89Z</time></trkpt><trkpt lat="42.707645" lon="-8.887035"><ele>253.0</ele><time>2026-04-17T09:48:02.891Z</time></trkpt><trkpt lat="42.7078017" lon="-8.8871"><ele>253.0</ele><time>2026-04-17T09:48:03.89Z</time></trkpt><trkpt lat="42.7079317" lon="-8.8871333"><ele>255.25</ele><time>2026-04-17T09:48:04.89Z</time></trkpt><trkpt lat="42.7080533" lon="-8.88715"><ele>257.5</ele><time>2026-04-17T09:48:05.89Z</time></trkpt><trkpt lat="42.70817" lon="-8.887135"><ele>259.75</ele><time>2026-04-17T09:48:06.89Z</time></trkpt><trkpt lat="42.7083217" lon="-8.8871033"><ele>262.0</ele><time>2026-04-17T09:48:07.89Z</time></trkpt><trkpt lat="42.70849" lon="-8.8870483"><ele>262.66666666666663</ele><time>2026-04-17T09:48:08.891Z</time></trkpt><trkpt lat="42.7086683" lon="-8.8869883"><ele>263.3333333333333</ele><time>2026-04-17T09:48:09.89Z</time></trkpt><trkpt lat="42.708845" lon="-8.88692"><ele>264.0</ele><time>2026-04-17T09:48:10.891Z</time></trkpt><trkpt lat="42.7090133" lon="-8.8868433"><ele>264.0</ele><time>2026-04-17T09:48:11.891Z</time></trkpt><trkpt lat="42.709185" lon="-8.886765"><ele>264.0</ele><time>2026-04-17T09:48:12.89Z</time></trkpt><trkpt lat="42.7093533" lon="-8.886675"><ele>264.0</ele><time>2026-04-17T09:48:13.89Z</time></trkpt><trkpt lat="42.7095017" lon="-8.8865683"><ele>264.8</ele><time>2026-04-17T09:48:14.89Z</time></trkpt><trkpt lat="42.7096117" lon="-8.8864917"><ele>265.59999999999997</ele><time>2026-04-17T09:48:15.89Z</time></trkpt><trkpt lat="42.7096833" lon="-8.8864183"><ele>266.4</ele><time>2026-04-17T09:48:16.891Z</time></trkpt><trkpt lat="42.7097283" lon="-8.88634"><ele>267.2</ele><time>2026-04-17T09:48:19.89Z</time></trkpt><trkpt lat="42.7096383" lon="-8.88623"><ele>268.0</ele><time>2026-04-17T09:48:22.89Z</time></trkpt><trkpt lat="42.7095633" lon="-8.8861633"><ele>268.0</ele><time>2026-04-17T09:48:23.89Z</time></trkpt><trkpt lat="42.7094717" lon="-8.8861"><ele>268.0</ele><time>2026-04-17T09:48:24.892Z</time></trkpt><trkpt lat="42.709415" lon="-8.8860533"><ele>268.0</ele><time>2026-04-17T09:48:25.891Z</time></trkpt><trkpt lat="42.7093583" lon="-8.886005"><ele>268.0</ele><time>2026-04-17T09:48:26.891Z</time></trkpt><trkpt lat="42.7092917" lon="-8.885955"><ele>268.0</ele><time>2026-04-17T09:48:27.892Z</time></trkpt><trkpt lat="42.709195" lon="-8.8859033"><ele>268.0</ele><time>2026-04-17T09:48:28.892Z</time></trkpt><trkpt lat="42.7090767" lon="-8.88585"><ele>271.0</ele><time>2026-04-17T09:48:29.891Z</time></trkpt><trkpt lat="42.7088967" lon="-8.8858217"><ele>274.0</ele><time>2026-04-17T09:48:30.891Z</time></trkpt><trkpt lat="42.7086883" lon="-8.8858067"><ele>277.0</ele><time>2026-04-17T09:48:31.891Z</time></trkpt><trkpt lat="42.7085117" lon="-8.8857967"><ele>278.3333333333333</ele><time>2026-04-17T09:48:32.892Z</time></trkpt><trkpt lat="42.7083317" lon="-8.88579"><ele>279.6666666666667</ele><time>2026-04-17T09:48:33.891Z</time></trkpt><trkpt lat="42.7081783" lon="-8.8857567"><ele>281.0</ele><time>2026-04-17T09:48:34.892Z</time></trkpt><trkpt lat="42.7080517" lon="-8.8856883"><ele>281.0</ele><time>2026-04-17T09:48:35.891Z</time></trkpt><trkpt lat="42.7079367" lon="-8.8855833"><ele>281.0</ele><time>2026-04-17T09:48:36.891Z</time></trkpt><trkpt lat="42.707805" lon="-8.8854717"><ele>281.0</ele><time>2026-04-17T09:48:37.892Z</time></trkpt><trkpt lat="42.7076467" lon="-8.8853717"><ele>280.33333333333337</ele><time>2026-04-17T09:48:38.892Z</time></trkpt><trkpt lat="42.7074633" lon="-8.88527"><ele>279.6666666666667</ele><time>2026-04-17T09:48:39.892Z</time></trkpt><trkpt lat="42.7072683" lon="-8.8851567"><ele>279.0</ele><time>2026-04-17T09:48:40.892Z</time></trkpt><trkpt lat="42.7070483" lon="-8.8850067"><ele>283.0</ele><time>2026-04-17T09:48:41.891Z</time></trkpt><trkpt lat="42.706835" lon="-8.8848517"><ele>287.0</ele><time>2026-04-17T09:48:42.892Z</time></trkpt><trkpt lat="42.7066267" lon="-8.884725"><ele>287.0</ele><time>2026-04-17T09:48:43.891Z</time></trkpt><trkpt lat="42.7064483" lon="-8.8846133"><ele>287.0</ele><time>2026-04-17T09:48:44.891Z</time></trkpt><trkpt lat="42.70627" lon="-8.884515"><ele>287.0</ele><time>2026-04-17T09:48:45.891Z</time></trkpt><trkpt lat="42.706075" lon="-8.8844183"><ele>286.33333333333337</ele><time>2026-04-17T09:48:46.891Z</time></trkpt><trkpt lat="42.7058733" lon="-8.8843017"><ele>285.6666666666667</ele><time>2026-04-17T09:48:47.891Z</time></trkpt><trkpt lat="42.7056533" lon="-8.8842167"><ele>285.0</ele><time>2026-04-17T09:48:48.892Z</time></trkpt><trkpt lat="42.7054383" lon="-8.8841733"><ele>288.0</ele><time>2026-04-17T09:48:49.892Z</time></trkpt><trkpt lat="42.7052067" lon="-8.8841583"><ele>291.0</ele><time>2026-04-17T09:48:50.892Z</time></trkpt><trkpt lat="42.7049633" lon="-8.884115"><ele>291.0</ele><time>2026-04-17T09:48:51.892Z</time></trkpt><trkpt lat="42.70472" lon="-8.8840433"><ele>291.0</ele><time>2026-04-17T09:48:52.891Z</time></trkpt><trkpt lat="42.7044967" lon="-8.88398"><ele>291.0</ele><time>2026-04-17T09:48:53.892Z</time></trkpt><trkpt lat="42.70428" lon="-8.8838917"><ele>291.0</ele><time>2026-04-17T09:48:54.891Z</time></trkpt><trkpt lat="42.70406" lon="-8.8837767"><ele>291.0</ele><time>2026-04-17T09:48:55.891Z</time></trkpt><trkpt lat="42.7038317" lon="-8.883675"><ele>291.0</ele><time>2026-04-17T09:48:56.891Z</time></trkpt><trkpt lat="42.7036133" lon="-8.8835517"><ele>289.0</ele><time>2026-04-17T09:48:57.891Z</time></trkpt><trkpt lat="42.7033933" lon="-8.88341"><ele>287.0</ele><time>2026-04-17T09:48:58.891Z</time></trkpt><trkpt lat="42.7031683" lon="-8.88326"><ele>287.0</ele><time>2026-04-17T09:48:59.891Z</time></trkpt><trkpt lat="42.702945" lon="-8.8831183"><ele>287.0</ele><time>2026-04-17T09:49:00.891Z</time></trkpt><trkpt lat="42.7027367" lon="-8.8829917"><ele>289.0</ele><time>2026-04-17T09:49:01.891Z</time></trkpt><trkpt lat="42.7025383" lon="-8.88289"><ele>291.0</ele><time>2026-04-17T09:49:02.891Z</time></trkpt><trkpt lat="42.7023467" lon="-8.8827933"><ele>293.0</ele><time>2026-04-17T09:49:03.892Z</time></trkpt><trkpt lat="42.70216" lon="-8.8826883"><ele>291.0</ele><time>2026-04-17T09:49:04.892Z</time></trkpt><trkpt lat="42.7019767" lon="-8.8825683"><ele>289.0</ele><time>2026-04-17T09:49:05.891Z</time></trkpt><trkpt lat="42.7018" lon="-8.88246"><ele>287.0</ele><time>2026-04-17T09:49:06.892Z</time></trkpt><trkpt lat="42.7016483" lon="-8.8824"><ele>285.75</ele><time>2026-04-17T09:49:07.892Z</time></trkpt><trkpt lat="42.7015017" lon="-8.8823483"><ele>284.5</ele><time>2026-04-17T09:49:08.892Z</time></trkpt><trkpt lat="42.7013717" lon="-8.8822933"><ele>283.25</ele><time>2026-04-17T09:49:09.891Z</time></trkpt><trkpt lat="42.7012517" lon="-8.8822283"><ele>282.0</ele><time>2026-04-17T09:49:10.891Z</time></trkpt><trkpt lat="42.7011467" lon="-8.8821567"><ele>282.0</ele><time>2026-04-17T09:49:11.891Z</time></trkpt><trkpt lat="42.7010583" lon="-8.8821167"><ele>282.0</ele><time>2026-04-17T09:49:12.891Z</time></trkpt><trkpt lat="42.7009783" lon="-8.882075"><ele>282.0</ele><time>2026-04-17T09:49:13.891Z</time></trkpt><trkpt lat="42.7008933" lon="-8.8820267"><ele>282.0</ele><time>2026-04-17T09:49:15.892Z</time></trkpt><trkpt lat="42.7009583" lon="-8.8819667"><ele>282.0</ele><time>2026-04-17T09:49:19.891Z</time></trkpt><trkpt lat="42.7010217" lon="-8.8819583"><ele>282.0</ele><time>2026-04-17T09:49:20.892Z</time></trkpt><trkpt lat="42.7011017" lon="-8.8819583"><ele>282.0</ele><time>2026-04-17T09:49:21.892Z</time></trkpt><trkpt lat="42.7012067" lon="-8.8819467"><ele>282.0</ele><time>2026-04-17T09:49:22.891Z</time></trkpt><trkpt lat="42.7013183" lon="-8.8819517"><ele>282.0</ele><time>2026-04-17T09:49:23.891Z</time></trkpt><trkpt lat="42.7014717" lon="-8.8819283"><ele>282.0</ele><time>2026-04-17T09:49:24.892Z</time></trkpt><trkpt lat="42.701705" lon="-8.8818867"><ele>284.5</ele><time>2026-04-17T09:49:25.891Z</time></trkpt><trkpt lat="42.702" lon="-8.8818383"><ele>287.0</ele><time>2026-04-17T09:49:26.892Z</time></trkpt><trkpt lat="42.702315" lon="-8.8817867"><ele>280.5</ele><time>2026-04-17T09:49:27.891Z</time></trkpt><trkpt lat="42.7025783" lon="-8.8817383"><ele>274.0</ele><time>2026-04-17T09:49:28.891Z</time></trkpt><trkpt lat="42.70281" lon="-8.8816833"><ele>272.0</ele><time>2026-04-17T09:49:29.891Z</time></trkpt><trkpt lat="42.7030583" lon="-8.8816417"><ele>270.0</ele><time>2026-04-17T09:49:30.891Z</time></trkpt><trkpt lat="42.70328" lon="-8.8816217"><ele>270.0</ele><time>2026-04-17T09:49:31.891Z</time></trkpt><trkpt lat="42.7034783" lon="-8.8816117"><ele>270.0</ele><time>2026-04-17T09:49:32.891Z</time></trkpt><trkpt lat="42.7036633" lon="-8.8816083"><ele>270.0</ele><time>2026-04-17T09:49:33.891Z</time></trkpt><trkpt lat="42.7038467" lon="-8.8816217"><ele>269.3333333333333</ele><time>2026-04-17T09:49:34.892Z</time></trkpt><trkpt lat="42.7040383" lon="-8.8816617"><ele>268.66666666666663</ele><time>2026-04-17T09:49:35.891Z</time></trkpt><trkpt lat="42.7042417" lon="-8.881715"><ele>268.0</ele><time>2026-04-17T09:49:36.891Z</time></trkpt><trkpt lat="42.7044417" lon="-8.8817683"><ele>268.0</ele><time>2026-04-17T09:49:37.892Z</time></trkpt><trkpt lat="42.70464" lon="-8.881815"><ele>268.0</ele><time>2026-04-17T09:49:38.892Z</time></trkpt><trkpt lat="42.7048533" lon="-8.8818467"><ele>268.0</ele><time>2026-04-17T09:49:39.891Z</time></trkpt><trkpt lat="42.7050667" lon="-8.88186"><ele>265.3333333333333</ele><time>2026-04-17T09:49:40.891Z</time></trkpt><trkpt lat="42.70528" lon="-8.881885"><ele>262.6666666666667</ele><time>2026-04-17T09:49:41.892Z</time></trkpt><trkpt lat="42.7054883" lon="-8.88191"><ele>260.0</ele><time>2026-04-17T09:49:42.892Z</time></trkpt><trkpt lat="42.7057033" lon="-8.8819417"><ele>260.0</ele><time>2026-04-17T09:49:43.891Z</time></trkpt><trkpt lat="42.70592" lon="-8.8819767"><ele>260.0</ele><time>2026-04-17T09:49:44.892Z</time></trkpt><trkpt lat="42.7061333" lon="-8.8820233"><ele>260.0</ele><time>2026-04-17T09:49:45.891Z</time></trkpt><trkpt lat="42.706335" lon="-8.88205"><ele>256.33333333333337</ele><time>2026-04-17T09:49:46.891Z</time></trkpt><trkpt lat="42.7065283" lon="-8.8820633"><ele>252.66666666666669</ele><time>2026-04-17T09:49:47.891Z</time></trkpt><trkpt lat="42.7066983" lon="-8.8820533"><ele>249.0</ele><time>2026-04-17T09:49:48.892Z</time></trkpt><trkpt lat="42.70686" lon="-8.88205"><ele>246.33333333333331</ele><time>2026-04-17T09:49:49.891Z</time></trkpt><trkpt lat="42.7070233" lon="-8.88205"><ele>243.66666666666666</ele><time>2026-04-17T09:49:50.891Z</time></trkpt><trkpt lat="42.7071983" lon="-8.88208"><ele>241.0</ele><time>2026-04-17T09:49:51.892Z</time></trkpt><trkpt lat="42.70736" lon="-8.882125"><ele>241.0</ele><time>2026-04-17T09:49:52.892Z</time></trkpt><trkpt lat="42.7075133" lon="-8.88219"><ele>241.0</ele><time>2026-04-17T09:49:53.891Z</time></trkpt><trkpt lat="42.7076533" lon="-8.88227"><ele>241.0</ele><time>2026-04-17T09:49:54.892Z</time></trkpt><trkpt lat="42.7077533" lon="-8.8823333"><ele>241.0</ele><time>2026-04-17T09:49:55.891Z</time></trkpt><trkpt lat="42.7078517" lon="-8.882405"><ele>238.4</ele><time>2026-04-17T09:49:56.891Z</time></trkpt><trkpt lat="42.707915" lon="-8.88244"><ele>235.8</ele><time>2026-04-17T09:49:57.891Z</time></trkpt><trkpt lat="42.7079933" lon="-8.8824867"><ele>233.20000000000002</ele><time>2026-04-17T09:49:59.892Z</time></trkpt><trkpt lat="42.70795" lon="-8.8823883"><ele>230.60000000000002</ele><time>2026-04-17T09:50:02.892Z</time></trkpt><trkpt lat="42.707895" lon="-8.8822983"><ele>228.0</ele><time>2026-04-17T09:50:03.891Z</time></trkpt><trkpt lat="42.70781" lon="-8.8821717"><ele>224.0</ele><time>2026-04-17T09:50:04.891Z</time></trkpt><trkpt lat="42.7077033" lon="-8.8820217"><ele>220.0</ele><time>2026-04-17T09:50:05.892Z</time></trkpt><trkpt lat="42.7075567" lon="-8.8818633"><ele>216.0</ele><time>2026-04-17T09:50:06.892Z</time></trkpt><trkpt lat="42.7073967" lon="-8.8816933"><ele>216.0</ele><time>2026-04-17T09:50:07.892Z</time></trkpt><trkpt lat="42.70721" lon="-8.88152"><ele>216.0</ele><time>2026-04-17T09:50:08.892Z</time></trkpt><trkpt lat="42.707025" lon="-8.8813417"><ele>214.33333333333331</ele><time>2026-04-17T09:50:09.892Z</time></trkpt><trkpt lat="42.70684" lon="-8.8811667"><ele>212.66666666666666</ele><time>2026-04-17T09:50:10.892Z</time></trkpt><trkpt lat="42.706665" lon="-8.88098"><ele>211.0</ele><time>2026-04-17T09:50:11.891Z</time></trkpt><trkpt lat="42.706505" lon="-8.8808367"><ele>211.0</ele><time>2026-04-17T09:50:12.892Z</time></trkpt><trkpt lat="42.7063867" lon="-8.880725"><ele>211.0</ele><time>2026-04-17T09:50:13.891Z</time></trkpt><trkpt lat="42.70631" lon="-8.8806617"><ele>211.0</ele><time>2026-04-17T09:50:14.892Z</time></trkpt><trkpt lat="42.7062617" lon="-8.88059"><ele>211.0</ele><time>2026-04-17T09:50:17.892Z</time></trkpt><trkpt lat="42.7063633" lon="-8.8805333"><ele>211.0</ele><time>2026-04-17T09:50:20.892Z</time></trkpt><trkpt lat="42.706435" lon="-8.880515"><ele>211.0</ele><time>2026-04-17T09:50:21.891Z</time></trkpt><trkpt lat="42.7065467" lon="-8.8805117"><ele>211.0</ele><time>2026-04-17T09:50:22.892Z</time></trkpt><trkpt lat="42.70668" lon="-8.880545"><ele>211.0</ele><time>2026-04-17T09:50:23.892Z</time></trkpt><trkpt lat="42.706795" lon="-8.88056"><ele>211.0</ele><time>2026-04-17T09:50:24.892Z</time></trkpt><trkpt lat="42.7069017" lon="-8.8805667"><ele>207.20000000000002</ele><time>2026-04-17T09:50:25.892Z</time></trkpt><trkpt lat="42.7070283" lon="-8.8805717"><ele>203.4</ele><time>2026-04-17T09:50:26.891Z</time></trkpt><trkpt lat="42.7071217" lon="-8.8805267"><ele>199.6</ele><time>2026-04-17T09:50:27.891Z</time></trkpt><trkpt lat="42.707175" lon="-8.88042"><ele>195.8</ele><time>2026-04-17T09:50:28.892Z</time></trkpt><trkpt lat="42.7072217" lon="-8.8802967"><ele>192.0</ele><time>2026-04-17T09:50:29.892Z</time></trkpt><trkpt lat="42.7072533" lon="-8.8801283"><ele>189.0</ele><time>2026-04-17T09:50:30.892Z</time></trkpt><trkpt lat="42.707275" lon="-8.8799817"><ele>186.0</ele><time>2026-04-17T09:50:31.891Z</time></trkpt><trkpt lat="42.7072767" lon="-8.8798533"><ele>183.0</ele><time>2026-04-17T09:50:32.891Z</time></trkpt><trkpt lat="42.7072683" lon="-8.8797317"><ele>180.0</ele><time>2026-04-17T09:50:33.892Z</time></trkpt><trkpt lat="42.7072167" lon="-8.87962"><ele>177.0</ele><time>2026-04-17T09:50:34.891Z</time></trkpt><trkpt lat="42.7071383" lon="-8.8795083"><ele>177.0</ele><time>2026-04-17T09:50:35.891Z</time></trkpt><trkpt lat="42.7070483" lon="-8.8793933"><ele>177.0</ele><time>2026-04-17T09:50:36.891Z</time></trkpt><trkpt lat="42.7069717" lon="-8.8792983"><ele>177.0</ele><time>2026-04-17T09:50:37.892Z</time></trkpt><trkpt lat="42.7069217" lon="-8.8792183"><ele>177.0</ele><time>2026-04-17T09:50:38.891Z</time></trkpt><trkpt lat="42.7068817" lon="-8.879135"><ele>177.0</ele><time>2026-04-17T09:50:40.892Z</time></trkpt><trkpt lat="42.706985" lon="-8.8790467"><ele>173.25</ele><time>2026-04-17T09:50:43.891Z</time></trkpt><trkpt lat="42.7070867" lon="-8.8789983"><ele>169.5</ele><time>2026-04-17T09:50:44.891Z</time></trkpt><trkpt lat="42.707225" lon="-8.8789267"><ele>165.75</ele><time>2026-04-17T09:50:45.891Z</time></trkpt><trkpt lat="42.7073717" lon="-8.8788633"><ele>162.0</ele><time>2026-04-17T09:50:46.891Z</time></trkpt><trkpt lat="42.7074917" lon="-8.8788083"><ele>162.0</ele><time>2026-04-17T09:50:47.891Z</time></trkpt><trkpt lat="42.7076" lon="-8.878755"><ele>162.0</ele><time>2026-04-17T09:50:48.892Z</time></trkpt><trkpt lat="42.7076933" lon="-8.878715"><ele>162.0</ele><time>2026-04-17T09:50:49.892Z</time></trkpt><trkpt lat="42.7077833" lon="-8.8786917"><ele>162.0</ele><time>2026-04-17T09:50:50.892Z</time></trkpt><trkpt lat="42.7078667" lon="-8.87869"><ele>162.0</ele><time>2026-04-17T09:50:51.892Z</time></trkpt><trkpt lat="42.70795" lon="-8.8787217"><ele>160.16666666666666</ele><time>2026-04-17T09:50:52.891Z</time></trkpt><trkpt lat="42.7080367" lon="-8.8787617"><ele>158.33333333333334</ele><time>2026-04-17T09:50:53.891Z</time></trkpt><trkpt lat="42.7081167" lon="-8.87879"><ele>156.5</ele><time>2026-04-17T09:50:54.891Z</time></trkpt><trkpt lat="42.7081833" lon="-8.8787817"><ele>154.66666666666669</ele><time>2026-04-17T09:50:55.892Z</time></trkpt><trkpt lat="42.70824" lon="-8.87874"><ele>152.83333333333334</ele><time>2026-04-17T09:50:56.892Z</time></trkpt><trkpt lat="42.7083" lon="-8.8786767"><ele>151.0</ele><time>2026-04-17T09:50:57.892Z</time></trkpt><trkpt lat="42.7083767" lon="-8.8785817"><ele>151.0</ele><time>2026-04-17T09:50:58.892Z</time></trkpt><trkpt lat="42.7084817" lon="-8.8784517"><ele>151.0</ele><time>2026-04-17T09:50:59.892Z</time></trkpt><trkpt lat="42.708585" lon="-8.878325"><ele>151.0</ele><time>2026-04-17T09:51:00.892Z</time></trkpt><trkpt lat="42.7086667" lon="-8.8782267"><ele>151.0</ele><time>2026-04-17T09:51:01.891Z</time></trkpt><trkpt lat="42.7087483" lon="-8.87814"><ele>146.0</ele><time>2026-04-17T09:51:02.891Z</time></trkpt><trkpt lat="42.7088367" lon="-8.87807"><ele>141.0</ele><time>2026-04-17T09:51:03.892Z</time></trkpt><trkpt lat="42.7089167" lon="-8.8780333"><ele>136.0</ele><time>2026-04-17T09:51:04.891Z</time></trkpt><trkpt lat="42.7090017" lon="-8.8780317"><ele>131.0</ele><time>2026-04-17T09:51:05.892Z</time></trkpt><trkpt lat="42.7091017" lon="-8.878065"><ele>126.0</ele><time>2026-04-17T09:51:06.891Z</time></trkpt><trkpt lat="42.7091983" lon="-8.8781217"><ele>126.0</ele><time>2026-04-17T09:51:07.892Z</time></trkpt><trkpt lat="42.709305" lon="-8.8781717"><ele>126.0</ele><time>2026-04-17T09:51:08.892Z</time></trkpt><trkpt lat="42.7094333" lon="-8.8782017"><ele>126.0</ele><time>2026-04-17T09:51:09.892Z</time></trkpt><trkpt lat="42.709565" lon="-8.8781917"><ele>126.0</ele><time>2026-04-17T09:51:10.891Z</time></trkpt><trkpt lat="42.709695" lon="-8.8781467"><ele>125.0</ele><time>2026-04-17T09:51:11.891Z</time></trkpt><trkpt lat="42.7098133" lon="-8.8780883"><ele>124.0</ele><time>2026-04-17T09:51:12.891Z</time></trkpt><trkpt lat="42.7099133" lon="-8.8780017"><ele>123.0</ele><time>2026-04-17T09:51:13.891Z</time></trkpt><trkpt lat="42.7099917" lon="-8.8779017"><ele>122.0</ele><time>2026-04-17T09:51:14.891Z</time></trkpt><trkpt lat="42.71006" lon="-8.877785"><ele>121.99999999999999</ele><time>2026-04-17T09:51:15.891Z</time></trkpt><trkpt lat="42.7100917" lon="-8.87767"><ele>122.0</ele><time>2026-04-17T09:51:16.891Z</time></trkpt><trkpt lat="42.7101033" lon="-8.8775633"><ele>122.0</ele><time>2026-04-17T09:51:17.891Z</time></trkpt><trkpt lat="42.7100967" lon="-8.8774683"><ele>122.0</ele><time>2026-04-17T09:51:18.892Z</time></trkpt><trkpt lat="42.7101017" lon="-8.877375"><ele>121.99999999999999</ele><time>2026-04-17T09:51:19.892Z</time></trkpt><trkpt lat="42.7101317" lon="-8.8772667"><ele>122.0</ele><time>2026-04-17T09:51:20.892Z</time></trkpt><trkpt lat="42.7101817" lon="-8.87717"><ele>119.99999999999999</ele><time>2026-04-17T09:51:21.892Z</time></trkpt><trkpt lat="42.7102317" lon="-8.8770683"><ele>118.0</ele><time>2026-04-17T09:51:22.892Z</time></trkpt><trkpt lat="42.7102917" lon="-8.8769817"><ele>116.0</ele><time>2026-04-17T09:51:23.891Z</time></trkpt><trkpt lat="42.7103567" lon="-8.8769183"><ele>114.0</ele><time>2026-04-17T09:51:24.892Z</time></trkpt><trkpt lat="42.7104367" lon="-8.87687"><ele>111.99999999999999</ele><time>2026-04-17T09:51:25.891Z</time></trkpt><trkpt lat="42.71053" lon="-8.8768383"><ele>110.0</ele><time>2026-04-17T09:51:26.891Z</time></trkpt><trkpt lat="42.7106333" lon="-8.8768517"><ele>108.2</ele><time>2026-04-17T09:51:27.891Z</time></trkpt><trkpt lat="42.710745" lon="-8.8768833"><ele>106.4</ele><time>2026-04-17T09:51:28.892Z</time></trkpt><trkpt lat="42.710845" lon="-8.8769083"><ele>104.6</ele><time>2026-04-17T09:51:29.892Z</time></trkpt><trkpt lat="42.7109483" lon="-8.87694"><ele>102.8</ele><time>2026-04-17T09:51:30.891Z</time></trkpt><trkpt lat="42.7110567" lon="-8.8769767"><ele>101.0</ele><time>2026-04-17T09:51:31.892Z</time></trkpt><trkpt lat="42.7111783" lon="-8.87703"><ele>100.0</ele><time>2026-04-17T09:51:32.892Z</time></trkpt><trkpt lat="42.7113167" lon="-8.8770933"><ele>99.0</ele><time>2026-04-17T09:51:33.892Z</time></trkpt><trkpt lat="42.7114533" lon="-8.8771633"><ele>98.0</ele><time>2026-04-17T09:51:34.891Z</time></trkpt><trkpt lat="42.7115867" lon="-8.8772317"><ele>97.0</ele><time>2026-04-17T09:51:35.891Z</time></trkpt><trkpt lat="42.7116717" lon="-8.8772567"><ele>97.0</ele><time>2026-04-17T09:51:36.891Z</time></trkpt><trkpt lat="42.7117417" lon="-8.8772533"><ele>97.0</ele><time>2026-04-17T09:51:38.892Z</time></trkpt><trkpt lat="42.7117367" lon="-8.8771467"><ele>97.0</ele><time>2026-04-17T09:51:40.892Z</time></trkpt><trkpt lat="42.711715" lon="-8.8769983"><ele>97.0</ele><time>2026-04-17T09:51:41.891Z</time></trkpt><trkpt lat="42.7116717" lon="-8.876855"><ele>97.0</ele><time>2026-04-17T09:51:42.892Z</time></trkpt><trkpt lat="42.71161" lon="-8.8766967"><ele>96.66666666666667</ele><time>2026-04-17T09:51:43.892Z</time></trkpt><trkpt lat="42.7115" lon="-8.8765083"><ele>96.33333333333334</ele><time>2026-04-17T09:51:44.891Z</time></trkpt><trkpt lat="42.7113533" lon="-8.8763117"><ele>96.0</ele><time>2026-04-17T09:51:45.891Z</time></trkpt><trkpt lat="42.711225" lon="-8.876135"><ele>96.0</ele><time>2026-04-17T09:51:46.892Z</time></trkpt><trkpt lat="42.71113" lon="-8.8759933"><ele>96.0</ele><time>2026-04-17T09:51:47.892Z</time></trkpt><trkpt lat="42.7110767" lon="-8.8758833"><ele>96.0</ele><time>2026-04-17T09:51:48.891Z</time></trkpt><trkpt lat="42.71108" lon="-8.87577"><ele>96.0</ele><time>2026-04-17T09:51:50.891Z</time></trkpt><trkpt lat="42.7111733" lon="-8.8756533"><ele>96.0</ele><time>2026-04-17T09:51:52.892Z</time></trkpt><trkpt lat="42.7112567" lon="-8.8755733"><ele>96.0</ele><time>2026-04-17T09:51:53.892Z</time></trkpt><trkpt lat="42.7113467" lon="-8.87548"><ele>96.0</ele><time>2026-04-17T09:51:54.892Z</time></trkpt><trkpt lat="42.7114167" lon="-8.87538"><ele>96.0</ele><time>2026-04-17T09:51:55.891Z</time></trkpt><trkpt lat="42.7114733" lon="-8.8752517"><ele>96.0</ele><time>2026-04-17T09:51:56.891Z</time></trkpt><trkpt lat="42.7115283" lon="-8.8751067"><ele>96.0</ele><time>2026-04-17T09:51:57.892Z</time></trkpt><trkpt lat="42.7115667" lon="-8.8749517"><ele>93.0</ele><time>2026-04-17T09:51:58.891Z</time></trkpt><trkpt lat="42.7116117" lon="-8.87481"><ele>90.0</ele><time>2026-04-17T09:51:59.891Z</time></trkpt><trkpt lat="42.7116833" lon="-8.8746767"><ele>87.0</ele><time>2026-04-17T09:52:00.891Z</time></trkpt><trkpt lat="42.71177" lon="-8.8745467"><ele>84.0</ele><time>2026-04-17T09:52:01.891Z</time></trkpt><trkpt lat="42.71187" lon="-8.87441"><ele>85.33333333333333</ele><time>2026-04-17T09:52:02.891Z</time></trkpt><trkpt lat="42.7119683" lon="-8.8742567"><ele>86.66666666666666</ele><time>2026-04-17T09:52:03.892Z</time></trkpt><trkpt lat="42.7120833" lon="-8.8741"><ele>88.0</ele><time>2026-04-17T09:52:04.891Z</time></trkpt><trkpt lat="42.7122117" lon="-8.873955"><ele>88.0</ele><time>2026-04-17T09:52:05.892Z</time></trkpt><trkpt lat="42.712335" lon="-8.8738017"><ele>88.0</ele><time>2026-04-17T09:52:06.891Z</time></trkpt><trkpt lat="42.7124667" lon="-8.8736483"><ele>88.0</ele><time>2026-04-17T09:52:07.892Z</time></trkpt><trkpt lat="42.712595" lon="-8.8734933"><ele>87.66666666666666</ele><time>2026-04-17T09:52:08.892Z</time></trkpt><trkpt lat="42.7127217" lon="-8.8733533"><ele>87.33333333333333</ele><time>2026-04-17T09:52:09.891Z</time></trkpt><trkpt lat="42.71284" lon="-8.8732167"><ele>87.0</ele><time>2026-04-17T09:52:10.892Z</time></trkpt><trkpt lat="42.7129667" lon="-8.8730933"><ele>87.0</ele><time>2026-04-17T09:52:11.891Z</time></trkpt><trkpt lat="42.7131267" lon="-8.8729533"><ele>87.0</ele><time>2026-04-17T09:52:12.892Z</time></trkpt><trkpt lat="42.71331" lon="-8.8727917"><ele>87.0</ele><time>2026-04-17T09:52:13.891Z</time></trkpt><trkpt lat="42.7135067" lon="-8.8726433"><ele>87.66666666666667</ele><time>2026-04-17T09:52:14.892Z</time></trkpt><trkpt lat="42.7136967" lon="-8.8724967"><ele>88.33333333333334</ele><time>2026-04-17T09:52:15.892Z</time></trkpt><trkpt lat="42.7138667" lon="-8.8724017"><ele>89.0</ele><time>2026-04-17T09:52:16.891Z</time></trkpt><trkpt lat="42.7140383" lon="-8.8723133"><ele>89.0</ele><time>2026-04-17T09:52:17.892Z</time></trkpt><trkpt lat="42.7141883" lon="-8.8722567"><ele>89.0</ele><time>2026-04-17T09:52:18.891Z</time></trkpt><trkpt lat="42.71431" lon="-8.8722083"><ele>89.0</ele><time>2026-04-17T09:52:19.892Z</time></trkpt><trkpt lat="42.7143967" lon="-8.872185"><ele>89.0</ele><time>2026-04-17T09:52:20.891Z</time></trkpt><trkpt lat="42.7143567" lon="-8.8720817"><ele>89.0</ele><time>2026-04-17T09:52:25.892Z</time></trkpt><trkpt lat="42.714225" lon="-8.8720267"><ele>89.0</ele><time>2026-04-17T09:52:27.891Z</time></trkpt><trkpt lat="42.7141467" lon="-8.87199"><ele>89.0</ele><time>2026-04-17T09:52:28.891Z</time></trkpt><trkpt lat="42.7140617" lon="-8.8719517"><ele>89.0</ele><time>2026-04-17T09:52:29.891Z</time></trkpt><trkpt lat="42.71399" lon="-8.8718983"><ele>89.0</ele><time>2026-04-17T09:52:30.891Z</time></trkpt><trkpt lat="42.713935" lon="-8.8718283"><ele>89.4</ele><time>2026-04-17T09:52:31.891Z</time></trkpt><trkpt lat="42.71391" lon="-8.8717233"><ele>89.80000000000001</ele><time>2026-04-17T09:52:32.891Z</time></trkpt><trkpt lat="42.7139" lon="-8.8715767"><ele>90.19999999999999</ele><time>2026-04-17T09:52:33.892Z</time></trkpt><trkpt lat="42.7138817" lon="-8.8714133"><ele>90.6</ele><time>2026-04-17T09:52:34.892Z</time></trkpt><trkpt lat="42.7138467" lon="-8.8712417"><ele>91.0</ele><time>2026-04-17T09:52:35.892Z</time></trkpt><trkpt lat="42.7137933" lon="-8.8710667"><ele>90.25</ele><time>2026-04-17T09:52:36.892Z</time></trkpt><trkpt lat="42.7137133" lon="-8.8709033"><ele>89.5</ele><time>2026-04-17T09:52:37.892Z</time></trkpt><trkpt lat="42.713605" lon="-8.8707517"><ele>88.75</ele><time>2026-04-17T09:52:38.892Z</time></trkpt><trkpt lat="42.713485" lon="-8.87063"><ele>88.0</ele><time>2026-04-17T09:52:39.892Z</time></trkpt><trkpt lat="42.713355" lon="-8.8705117"><ele>88.0</ele><time>2026-04-17T09:52:40.891Z</time></trkpt><trkpt lat="42.7132533" lon="-8.87039"><ele>88.0</ele><time>2026-04-17T09:52:41.891Z</time></trkpt><trkpt lat="42.7131867" lon="-8.87026"><ele>88.0</ele><time>2026-04-17T09:52:42.892Z</time></trkpt><trkpt lat="42.7131383" lon="-8.8701067"><ele>88.0</ele><time>2026-04-17T09:52:43.891Z</time></trkpt><trkpt lat="42.7131067" lon="-8.8699167"><ele>88.0</ele><time>2026-04-17T09:52:44.891Z</time></trkpt><trkpt lat="42.7130933" lon="-8.86968"><ele>88.0</ele><time>2026-04-17T09:52:45.891Z</time></trkpt><trkpt lat="42.7131133" lon="-8.8694083"><ele>88.0</ele><time>2026-04-17T09:52:46.892Z</time></trkpt><trkpt lat="42.7131133" lon="-8.869175"><ele>88.0</ele><time>2026-04-17T09:52:47.892Z</time></trkpt><trkpt lat="42.7130967" lon="-8.86898"><ele>88.0</ele><time>2026-04-17T09:52:48.891Z</time></trkpt><trkpt lat="42.7130517" lon="-8.868805"><ele>88.0</ele><time>2026-04-17T09:52:49.891Z</time></trkpt><trkpt lat="42.71298" lon="-8.8686483"><ele>88.0</ele><time>2026-04-17T09:52:50.891Z</time></trkpt><trkpt lat="42.7129117" lon="-8.8684983"><ele>86.5</ele><time>2026-04-17T09:52:51.892Z</time></trkpt><trkpt lat="42.7128533" lon="-8.8683583"><ele>85.0</ele><time>2026-04-17T09:52:52.891Z</time></trkpt><trkpt lat="42.7128083" lon="-8.8682017"><ele>83.5</ele><time>2026-04-17T09:52:53.892Z</time></trkpt><trkpt lat="42.7127733" lon="-8.86802"><ele>82.0</ele><time>2026-04-17T09:52:54.891Z</time></trkpt><trkpt lat="42.7127733" lon="-8.8678317"><ele>82.0</ele><time>2026-04-17T09:52:55.891Z</time></trkpt><trkpt lat="42.71278" lon="-8.8676483"><ele>82.0</ele><time>2026-04-17T09:52:56.891Z</time></trkpt><trkpt lat="42.71278" lon="-8.8674717"><ele>82.0</ele><time>2026-04-17T09:52:57.891Z</time></trkpt><trkpt lat="42.71276" lon="-8.867325"><ele>82.0</ele><time>2026-04-17T09:52:58.892Z</time></trkpt><trkpt lat="42.7127083" lon="-8.8671833"><ele>76.0</ele><time>2026-04-17T09:52:59.891Z</time></trkpt><trkpt lat="42.7126067" lon="-8.8670533"><ele>70.0</ele><time>2026-04-17T09:53:00.891Z</time></trkpt><trkpt lat="42.7124683" lon="-8.8669133"><ele>64.0</ele><time>2026-04-17T09:53:01.891Z</time></trkpt><trkpt lat="42.712335" lon="-8.8667683"><ele>63.75</ele><time>2026-04-17T09:53:02.891Z</time></trkpt><trkpt lat="42.71222" lon="-8.8666467"><ele>63.5</ele><time>2026-04-17T09:53:03.891Z</time></trkpt><trkpt lat="42.71211" lon="-8.8665633"><ele>63.25</ele><time>2026-04-17T09:53:04.892Z</time></trkpt><trkpt lat="42.7120067" lon="-8.86652"><ele>63.0</ele><time>2026-04-17T09:53:05.891Z</time></trkpt><trkpt lat="42.7119" lon="-8.86651"><ele>61.8</ele><time>2026-04-17T09:53:06.891Z</time></trkpt><trkpt lat="42.711785" lon="-8.86649"><ele>60.599999999999994</ele><time>2026-04-17T09:53:07.892Z</time></trkpt><trkpt lat="42.7116733" lon="-8.8664483"><ele>59.400000000000006</ele><time>2026-04-17T09:53:08.892Z</time></trkpt><trkpt lat="42.7115717" lon="-8.86639"><ele>58.2</ele><time>2026-04-17T09:53:09.892Z</time></trkpt><trkpt lat="42.7115" lon="-8.8663117"><ele>57.0</ele><time>2026-04-17T09:53:10.891Z</time></trkpt><trkpt lat="42.7114417" lon="-8.866225"><ele>57.0</ele><time>2026-04-17T09:53:11.891Z</time></trkpt><trkpt lat="42.711405" lon="-8.8661283"><ele>57.0</ele><time>2026-04-17T09:53:12.891Z</time></trkpt><trkpt lat="42.7113867" lon="-8.866005"><ele>57.0</ele><time>2026-04-17T09:53:13.892Z</time></trkpt><trkpt lat="42.7113983" lon="-8.86584"><ele>57.0</ele><time>2026-04-17T09:53:14.891Z</time></trkpt><trkpt lat="42.7114217" lon="-8.8656083"><ele>57.0</ele><time>2026-04-17T09:53:15.891Z</time></trkpt><trkpt lat="42.7114167" lon="-8.865435"><ele>57.0</ele><time>2026-04-17T09:53:16.891Z</time></trkpt><trkpt lat="42.7114033" lon="-8.86527"><ele>57.0</ele><time>2026-04-17T09:53:17.892Z</time></trkpt><trkpt lat="42.7113833" lon="-8.86512"><ele>57.0</ele><time>2026-04-17T09:53:18.891Z</time></trkpt><trkpt lat="42.7113467" lon="-8.8649917"><ele>56.0</ele><time>2026-04-17T09:53:19.892Z</time></trkpt><trkpt lat="42.7112783" lon="-8.8648933"><ele>55.0</ele><time>2026-04-17T09:53:20.892Z</time></trkpt><trkpt lat="42.7111983" lon="-8.8648233"><ele>54.0</ele><time>2026-04-17T09:53:21.891Z</time></trkpt><trkpt lat="42.71115" lon="-8.8647367"><ele>53.0</ele><time>2026-04-17T09:53:22.892Z</time></trkpt><trkpt lat="42.71111" lon="-8.864645"><ele>52.0</ele><time>2026-04-17T09:53:23.891Z</time></trkpt><trkpt lat="42.7110933" lon="-8.86453"><ele>51.0</ele><time>2026-04-17T09:53:24.892Z</time></trkpt><trkpt lat="42.7110983" lon="-8.86439"><ele>49.599999999999994</ele><time>2026-04-17T09:53:25.892Z</time></trkpt><trkpt lat="42.7111267" lon="-8.8642417"><ele>48.2</ele><time>2026-04-17T09:53:26.891Z</time></trkpt><trkpt lat="42.71118" lon="-8.8641183"><ele>46.8</ele><time>2026-04-17T09:53:27.892Z</time></trkpt><trkpt lat="42.711245" lon="-8.8640233"><ele>45.400000000000006</ele><time>2026-04-17T09:53:28.891Z</time></trkpt><trkpt lat="42.7113233" lon="-8.8639467"><ele>44.0</ele><time>2026-04-17T09:53:29.892Z</time></trkpt><trkpt lat="42.711385" lon="-8.8638983"><ele>44.0</ele><time>2026-04-17T09:53:30.892Z</time></trkpt><trkpt lat="42.7114433" lon="-8.8638417"><ele>44.0</ele><time>2026-04-17T09:53:31.892Z</time></trkpt><trkpt lat="42.7114917" lon="-8.863755"><ele>44.0</ele><time>2026-04-17T09:53:32.891Z</time></trkpt><trkpt lat="42.7115233" lon="-8.8636667"><ele>44.0</ele><time>2026-04-17T09:53:33.892Z</time></trkpt><trkpt lat="42.7115367" lon="-8.86358"><ele>44.0</ele><time>2026-04-17T09:53:34.891Z</time></trkpt><trkpt lat="42.7113967" lon="-8.8633617"><ele>43.2</ele><time>2026-04-17T09:53:36.892Z</time></trkpt><trkpt lat="42.71133" lon="-8.8632433"><ele>42.400000000000006</ele><time>2026-04-17T09:53:37.892Z</time></trkpt><trkpt lat="42.7112983" lon="-8.8631217"><ele>41.6</ele><time>2026-04-17T09:53:38.891Z</time></trkpt><trkpt lat="42.711285" lon="-8.8629967"><ele>40.8</ele><time>2026-04-17T09:53:39.891Z</time></trkpt><trkpt lat="42.7112967" lon="-8.8628817"><ele>40.0</ele><time>2026-04-17T09:53:40.891Z</time></trkpt><trkpt lat="42.7113333" lon="-8.8627433"><ele>40.0</ele><time>2026-04-17T09:53:41.892Z</time></trkpt><trkpt lat="42.7113983" lon="-8.862615"><ele>40.0</ele><time>2026-04-17T09:53:42.891Z</time></trkpt><trkpt lat="42.7114967" lon="-8.8625383"><ele>40.0</ele><time>2026-04-17T09:53:43.892Z</time></trkpt><trkpt lat="42.7116233" lon="-8.8625033"><ele>40.0</ele><time>2026-04-17T09:53:44.891Z</time></trkpt><trkpt lat="42.7117833" lon="-8.8625"><ele>43.333333333333336</ele><time>2026-04-17T09:53:45.891Z</time></trkpt><trkpt lat="42.71197" lon="-8.8625017"><ele>46.66666666666667</ele><time>2026-04-17T09:53:46.891Z</time></trkpt><trkpt lat="42.7121733" lon="-8.8624883"><ele>50.0</ele><time>2026-04-17T09:53:47.892Z</time></trkpt><trkpt lat="42.7124133" lon="-8.8624867"><ele>50.0</ele><time>2026-04-17T09:53:48.892Z</time></trkpt><trkpt lat="42.712635" lon="-8.862495"><ele>50.0</ele><time>2026-04-17T09:53:49.892Z</time></trkpt><trkpt lat="42.7128317" lon="-8.8624917"><ele>50.0</ele><time>2026-04-17T09:53:50.892Z</time></trkpt><trkpt lat="42.7130117" lon="-8.8624567"><ele>52.0</ele><time>2026-04-17T09:53:51.892Z</time></trkpt><trkpt lat="42.7131767" lon="-8.86241"><ele>54.0</ele><time>2026-04-17T09:53:52.892Z</time></trkpt><trkpt lat="42.713335" lon="-8.862355"><ele>56.0</ele><time>2026-04-17T09:53:53.893Z</time></trkpt><trkpt lat="42.713475" lon="-8.8622733"><ele>58.75</ele><time>2026-04-17T09:53:54.893Z</time></trkpt><trkpt lat="42.71361" lon="-8.862205"><ele>61.5</ele><time>2026-04-17T09:53:55.892Z</time></trkpt><trkpt lat="42.7137517" lon="-8.862165"><ele>64.25</ele><time>2026-04-17T09:53:56.892Z</time></trkpt><trkpt lat="42.7138917" lon="-8.8621633"><ele>67.0</ele><time>2026-04-17T09:53:57.892Z</time></trkpt><trkpt lat="42.7140367" lon="-8.8622083"><ele>67.0</ele><time>2026-04-17T09:53:58.892Z</time></trkpt><trkpt lat="42.7142033" lon="-8.8622817"><ele>67.0</ele><time>2026-04-17T09:53:59.892Z</time></trkpt><trkpt lat="42.714405" lon="-8.86236"><ele>67.0</ele><time>2026-04-17T09:54:00.892Z</time></trkpt><trkpt lat="42.7146033" lon="-8.8624283"><ele>68.0</ele><time>2026-04-17T09:54:01.893Z</time></trkpt><trkpt lat="42.7147633" lon="-8.8624767"><ele>69.0</ele><time>2026-04-17T09:54:02.892Z</time></trkpt><trkpt lat="42.71488" lon="-8.8624933"><ele>70.0</ele><time>2026-04-17T09:54:03.893Z</time></trkpt><trkpt lat="42.7149733" lon="-8.8624967"><ele>71.0</ele><time>2026-04-17T09:54:04.892Z</time></trkpt><trkpt lat="42.71504" lon="-8.8625217"><ele>72.0</ele><time>2026-04-17T09:54:05.893Z</time></trkpt><trkpt lat="42.7151" lon="-8.8625667"><ele>72.2</ele><time>2026-04-17T09:54:06.893Z</time></trkpt><trkpt lat="42.715155" lon="-8.8626333"><ele>72.4</ele><time>2026-04-17T09:54:07.893Z</time></trkpt><trkpt lat="42.71522" lon="-8.8627267"><ele>72.6</ele><time>2026-04-17T09:54:08.893Z</time></trkpt><trkpt lat="42.71531" lon="-8.8628317"><ele>72.8</ele><time>2026-04-17T09:54:09.892Z</time></trkpt><trkpt lat="42.7154117" lon="-8.8629433"><ele>73.0</ele><time>2026-04-17T09:54:10.892Z</time></trkpt><trkpt lat="42.7155383" lon="-8.86306"><ele>73.0</ele><time>2026-04-17T09:54:11.892Z</time></trkpt><trkpt lat="42.7156983" lon="-8.86319"><ele>73.0</ele><time>2026-04-17T09:54:12.892Z</time></trkpt><trkpt lat="42.7158733" lon="-8.8633133"><ele>73.0</ele><time>2026-04-17T09:54:13.892Z</time></trkpt><trkpt lat="42.7160417" lon="-8.8634117"><ele>70.33333333333333</ele><time>2026-04-17T09:54:14.893Z</time></trkpt><trkpt lat="42.7162117" lon="-8.8634667"><ele>67.66666666666667</ele><time>2026-04-17T09:54:15.893Z</time></trkpt><trkpt lat="42.716375" lon="-8.8635183"><ele>65.0</ele><time>2026-04-17T09:54:16.893Z</time></trkpt><trkpt lat="42.7165233" lon="-8.8635933"><ele>65.0</ele><time>2026-04-17T09:54:17.893Z</time></trkpt><trkpt lat="42.7166583" lon="-8.8637067"><ele>65.0</ele><time>2026-04-17T09:54:18.892Z</time></trkpt><trkpt lat="42.7167733" lon="-8.8638317"><ele>65.0</ele><time>2026-04-17T09:54:19.893Z</time></trkpt><trkpt lat="42.71686" lon="-8.8639267"><ele>65.0</ele><time>2026-04-17T09:54:20.893Z</time></trkpt><trkpt lat="42.71691" lon="-8.8640067"><ele>64.0</ele><time>2026-04-17T09:54:21.893Z</time></trkpt><trkpt lat="42.7169533" lon="-8.8641067"><ele>63.0</ele><time>2026-04-17T09:54:22.893Z</time></trkpt><trkpt lat="42.71698" lon="-8.8642067"><ele>62.0</ele><time>2026-04-17T09:54:23.892Z</time></trkpt><trkpt lat="42.7169867" lon="-8.86431"><ele>61.0</ele><time>2026-04-17T09:54:24.892Z</time></trkpt><trkpt lat="42.7169633" lon="-8.86444"><ele>60.0</ele><time>2026-04-17T09:54:25.892Z</time></trkpt><trkpt lat="42.7168683" lon="-8.8646283"><ele>60.0</ele><time>2026-04-17T09:54:26.892Z</time></trkpt><trkpt lat="42.71676" lon="-8.8647867"><ele>60.0</ele><time>2026-04-17T09:54:27.892Z</time></trkpt><trkpt lat="42.7167167" lon="-8.86495"><ele>60.0</ele><time>2026-04-17T09:54:28.893Z</time></trkpt><trkpt lat="42.7166867" lon="-8.8651233"><ele>60.0</ele><time>2026-04-17T09:54:29.892Z</time></trkpt><trkpt lat="42.7166833" lon="-8.8653"><ele>61.25</ele><time>2026-04-17T09:54:30.893Z</time></trkpt><trkpt lat="42.7167167" lon="-8.8654883"><ele>62.5</ele><time>2026-04-17T09:54:31.893Z</time></trkpt><trkpt lat="42.7168" lon="-8.8656383"><ele>63.75</ele><time>2026-04-17T09:54:32.892Z</time></trkpt><trkpt lat="42.7168967" lon="-8.8657933"><ele>65.0</ele><time>2026-04-17T09:54:33.893Z</time></trkpt><trkpt lat="42.7170067" lon="-8.86593"><ele>62.66666666666667</ele><time>2026-04-17T09:54:34.893Z</time></trkpt><trkpt lat="42.71716" lon="-8.866065"><ele>60.33333333333333</ele><time>2026-04-17T09:54:35.892Z</time></trkpt><trkpt lat="42.7173267" lon="-8.8662367"><ele>58.0</ele><time>2026-04-17T09:54:36.893Z</time></trkpt><trkpt lat="42.7174983" lon="-8.86644"><ele>58.0</ele><time>2026-04-17T09:54:37.893Z</time></trkpt><trkpt lat="42.71766" lon="-8.8666183"><ele>58.0</ele><time>2026-04-17T09:54:38.893Z</time></trkpt><trkpt lat="42.7178183" lon="-8.8667867"><ele>58.0</ele><time>2026-04-17T09:54:39.892Z</time></trkpt><trkpt lat="42.7179633" lon="-8.866945"><ele>61.5</ele><time>2026-04-17T09:54:40.893Z</time></trkpt><trkpt lat="42.7180883" lon="-8.86708"><ele>65.0</ele><time>2026-04-17T09:54:41.892Z</time></trkpt><trkpt lat="42.71818" lon="-8.86721"><ele>68.5</ele><time>2026-04-17T09:54:42.892Z</time></trkpt><trkpt lat="42.71825" lon="-8.8673583"><ele>72.0</ele><time>2026-04-17T09:54:43.892Z</time></trkpt><trkpt lat="42.7183167" lon="-8.86751"><ele>73.75</ele><time>2026-04-17T09:54:44.893Z</time></trkpt><trkpt lat="42.7183983" lon="-8.8676417"><ele>75.5</ele><time>2026-04-17T09:54:45.892Z</time></trkpt><trkpt lat="42.7184867" lon="-8.8677517"><ele>77.25</ele><time>2026-04-17T09:54:46.893Z</time></trkpt><trkpt lat="42.718605" lon="-8.8678367"><ele>79.0</ele><time>2026-04-17T09:54:47.892Z</time></trkpt><trkpt lat="42.718735" lon="-8.8678983"><ele>79.0</ele><time>2026-04-17T09:54:48.893Z</time></trkpt><trkpt lat="42.7188617" lon="-8.8679617"><ele>79.0</ele><time>2026-04-17T09:54:49.892Z</time></trkpt><trkpt lat="42.718975" lon="-8.8680267"><ele>79.0</ele><time>2026-04-17T09:54:50.892Z</time></trkpt><trkpt lat="42.71907" lon="-8.8680983"><ele>79.0</ele><time>2026-04-17T09:54:51.893Z</time></trkpt><trkpt lat="42.7191483" lon="-8.8681917"><ele>79.0</ele><time>2026-04-17T09:54:52.892Z</time></trkpt><trkpt lat="42.7192383" lon="-8.8683033"><ele>79.0</ele><time>2026-04-17T09:54:53.892Z</time></trkpt><trkpt lat="42.7193233" lon="-8.8684267"><ele>79.0</ele><time>2026-04-17T09:54:54.892Z</time></trkpt><trkpt lat="42.7194" lon="-8.8685683"><ele>79.0</ele><time>2026-04-17T09:54:55.892Z</time></trkpt><trkpt lat="42.71947" lon="-8.8687367"><ele>78.66666666666666</ele><time>2026-04-17T09:54:56.893Z</time></trkpt><trkpt lat="42.7195433" lon="-8.8689117"><ele>78.33333333333333</ele><time>2026-04-17T09:54:57.892Z</time></trkpt><trkpt lat="42.719605" lon="-8.8691067"><ele>78.0</ele><time>2026-04-17T09:54:58.892Z</time></trkpt><trkpt lat="42.7196633" lon="-8.86929"><ele>81.0</ele><time>2026-04-17T09:54:59.892Z</time></trkpt><trkpt lat="42.7197383" lon="-8.8695"><ele>84.0</ele><time>2026-04-17T09:55:00.892Z</time></trkpt><trkpt lat="42.719815" lon="-8.8697083"><ele>87.0</ele><time>2026-04-17T09:55:01.893Z</time></trkpt><trkpt lat="42.71989" lon="-8.869895"><ele>87.0</ele><time>2026-04-17T09:55:02.892Z</time></trkpt><trkpt lat="42.719965" lon="-8.87006"><ele>87.0</ele><time>2026-04-17T09:55:03.892Z</time></trkpt><trkpt lat="42.7200133" lon="-8.8701933"><ele>87.0</ele><time>2026-04-17T09:55:04.893Z</time></trkpt><trkpt lat="42.7200433" lon="-8.870325"><ele>87.0</ele><time>2026-04-17T09:55:05.892Z</time></trkpt><trkpt lat="42.720055" lon="-8.8704483"><ele>87.0</ele><time>2026-04-17T09:55:06.892Z</time></trkpt><trkpt lat="42.72005" lon="-8.8705633"><ele>88.0</ele><time>2026-04-17T09:55:07.892Z</time></trkpt><trkpt lat="42.720025" lon="-8.8706533"><ele>89.0</ele><time>2026-04-17T09:55:08.893Z</time></trkpt><trkpt lat="42.7199317" lon="-8.8707733"><ele>90.0</ele><time>2026-04-17T09:55:10.893Z</time></trkpt><trkpt lat="42.7198583" lon="-8.870815"><ele>91.0</ele><time>2026-04-17T09:55:11.892Z</time></trkpt><trkpt lat="42.7197633" lon="-8.870845"><ele>92.0</ele><time>2026-04-17T09:55:12.892Z</time></trkpt><trkpt lat="42.7196517" lon="-8.8708517"><ele>92.0</ele><time>2026-04-17T09:55:13.892Z</time></trkpt><trkpt lat="42.71953" lon="-8.8708617"><ele>92.0</ele><time>2026-04-17T09:55:14.892Z</time></trkpt><trkpt lat="42.71941" lon="-8.8708867"><ele>92.0</ele><time>2026-04-17T09:55:15.893Z</time></trkpt><trkpt lat="42.719295" lon="-8.8709317"><ele>92.0</ele><time>2026-04-17T09:55:16.892Z</time></trkpt><trkpt lat="42.7192083" lon="-8.8709983"><ele>95.16666666666667</ele><time>2026-04-17T09:55:17.892Z</time></trkpt><trkpt lat="42.7191383" lon="-8.8710567"><ele>98.33333333333334</ele><time>2026-04-17T09:55:18.893Z</time></trkpt><trkpt lat="42.719065" lon="-8.8711483"><ele>101.5</ele><time>2026-04-17T09:55:20.892Z</time></trkpt><trkpt lat="42.71908" lon="-8.871255"><ele>104.66666666666667</ele><time>2026-04-17T09:55:22.892Z</time></trkpt><trkpt lat="42.719145" lon="-8.871305"><ele>107.83333333333333</ele><time>2026-04-17T09:55:23.893Z</time></trkpt><trkpt lat="42.719225" lon="-8.8713567"><ele>111.0</ele><time>2026-04-17T09:55:24.892Z</time></trkpt><trkpt lat="42.71933" lon="-8.8713883"><ele>111.0</ele><time>2026-04-17T09:55:25.893Z</time></trkpt><trkpt lat="42.7194383" lon="-8.871415"><ele>111.0</ele><time>2026-04-17T09:55:26.892Z</time></trkpt><trkpt lat="42.71954" lon="-8.8714617"><ele>111.0</ele><time>2026-04-17T09:55:27.893Z</time></trkpt><trkpt lat="42.7196783" lon="-8.871505"><ele>111.0</ele><time>2026-04-17T09:55:28.893Z</time></trkpt><trkpt lat="42.7198817" lon="-8.8715017"><ele>111.0</ele><time>2026-04-17T09:55:29.892Z</time></trkpt><trkpt lat="42.7200433" lon="-8.8715217"><ele>111.0</ele><time>2026-04-17T09:55:30.893Z</time></trkpt><trkpt lat="42.7201883" lon="-8.8715633"><ele>111.0</ele><time>2026-04-17T09:55:31.892Z</time></trkpt><trkpt lat="42.7203" lon="-8.8716417"><ele>111.0</ele><time>2026-04-17T09:55:32.892Z</time></trkpt><trkpt lat="42.7204083" lon="-8.871765"><ele>115.0</ele><time>2026-04-17T09:55:33.892Z</time></trkpt><trkpt lat="42.7205283" lon="-8.8719233"><ele>119.0</ele><time>2026-04-17T09:55:34.892Z</time></trkpt><trkpt lat="42.72067" lon="-8.8720633"><ele>123.0</ele><time>2026-04-17T09:55:35.892Z</time></trkpt><trkpt lat="42.7208367" lon="-8.8721983"><ele>123.0</ele><time>2026-04-17T09:55:36.893Z</time></trkpt><trkpt lat="42.7210233" lon="-8.8723083"><ele>123.0</ele><time>2026-04-17T09:55:37.893Z</time></trkpt><trkpt lat="42.7212133" lon="-8.872415"><ele>123.0</ele><time>2026-04-17T09:55:38.893Z</time></trkpt><trkpt lat="42.72139" lon="-8.8725083"><ele>120.33333333333334</ele><time>2026-04-17T09:55:39.892Z</time></trkpt><trkpt lat="42.7215467" lon="-8.8725983"><ele>117.66666666666667</ele><time>2026-04-17T09:55:40.892Z</time></trkpt><trkpt lat="42.7217017" lon="-8.8727133"><ele>115.0</ele><time>2026-04-17T09:55:41.893Z</time></trkpt><trkpt lat="42.7218483" lon="-8.8728633"><ele>116.33333333333334</ele><time>2026-04-17T09:55:42.893Z</time></trkpt><trkpt lat="42.7220017" lon="-8.8730533"><ele>117.66666666666666</ele><time>2026-04-17T09:55:43.892Z</time></trkpt><trkpt lat="42.7221467" lon="-8.873265"><ele>119.0</ele><time>2026-04-17T09:55:44.893Z</time></trkpt><trkpt lat="42.7222967" lon="-8.8735017"><ele>125.33333333333333</ele><time>2026-04-17T09:55:45.892Z</time></trkpt><trkpt lat="42.7224267" lon="-8.87373"><ele>131.66666666666666</ele><time>2026-04-17T09:55:46.892Z</time></trkpt><trkpt lat="42.722545" lon="-8.873955"><ele>138.0</ele><time>2026-04-17T09:55:47.893Z</time></trkpt><trkpt lat="42.72265" lon="-8.8741867"><ele>139.0</ele><time>2026-04-17T09:55:48.892Z</time></trkpt><trkpt lat="42.722765" lon="-8.874415"><ele>140.0</ele><time>2026-04-17T09:55:49.892Z</time></trkpt><trkpt lat="42.7228917" lon="-8.8746283"><ele>141.0</ele><time>2026-04-17T09:55:50.893Z</time></trkpt><trkpt lat="42.7230083" lon="-8.874805"><ele>141.0</ele><time>2026-04-17T09:55:51.893Z</time></trkpt><trkpt lat="42.7231367" lon="-8.874955"><ele>141.0</ele><time>2026-04-17T09:55:52.893Z</time></trkpt><trkpt lat="42.7232917" lon="-8.87507"><ele>141.0</ele><time>2026-04-17T09:55:53.892Z</time></trkpt><trkpt lat="42.723455" lon="-8.8751883"><ele>144.66666666666666</ele><time>2026-04-17T09:55:54.892Z</time></trkpt><trkpt lat="42.7236133" lon="-8.87528"><ele>148.33333333333331</ele><time>2026-04-17T09:55:55.893Z</time></trkpt><trkpt lat="42.7237833" lon="-8.8753683"><ele>152.0</ele><time>2026-04-17T09:55:56.893Z</time></trkpt><trkpt lat="42.7239633" lon="-8.8754433"><ele>152.0</ele><time>2026-04-17T09:55:57.893Z</time></trkpt><trkpt lat="42.7241717" lon="-8.8755117"><ele>152.0</ele><time>2026-04-17T09:55:58.892Z</time></trkpt><trkpt lat="42.7243783" lon="-8.8756117"><ele>152.0</ele><time>2026-04-17T09:55:59.892Z</time></trkpt><trkpt lat="42.7245783" lon="-8.87571"><ele>150.33333333333331</ele><time>2026-04-17T09:56:00.893Z</time></trkpt><trkpt lat="42.7247517" lon="-8.8758117"><ele>148.66666666666666</ele><time>2026-04-17T09:56:01.893Z</time></trkpt><trkpt lat="42.7249017" lon="-8.8759333"><ele>147.0</ele><time>2026-04-17T09:56:02.892Z</time></trkpt><trkpt lat="42.7250367" lon="-8.8760367"><ele>149.25</ele><time>2026-04-17T09:56:03.893Z</time></trkpt><trkpt lat="42.725135" lon="-8.87613"><ele>151.5</ele><time>2026-04-17T09:56:04.892Z</time></trkpt><trkpt lat="42.7252117" lon="-8.8762467"><ele>153.75</ele><time>2026-04-17T09:56:05.892Z</time></trkpt><trkpt lat="42.7252733" lon="-8.8763933"><ele>156.0</ele><time>2026-04-17T09:56:06.892Z</time></trkpt><trkpt lat="42.72536" lon="-8.87654"><ele>156.0</ele><time>2026-04-17T09:56:07.893Z</time></trkpt><trkpt lat="42.725485" lon="-8.87664"><ele>156.0</ele><time>2026-04-17T09:56:08.893Z</time></trkpt><trkpt lat="42.7256317" lon="-8.8767083"><ele>156.0</ele><time>2026-04-17T09:56:09.893Z</time></trkpt><trkpt lat="42.7258033" lon="-8.8767933"><ele>158.66666666666666</ele><time>2026-04-17T09:56:10.893Z</time></trkpt><trkpt lat="42.7259733" lon="-8.8768783"><ele>161.33333333333331</ele><time>2026-04-17T09:56:11.892Z</time></trkpt><trkpt lat="42.7261133" lon="-8.8769083"><ele>164.0</ele><time>2026-04-17T09:56:12.892Z</time></trkpt><trkpt lat="42.72624" lon="-8.8769183"><ele>164.0</ele><time>2026-04-17T09:56:13.892Z</time></trkpt><trkpt lat="42.726365" lon="-8.876865"><ele>164.0</ele><time>2026-04-17T09:56:14.892Z</time></trkpt><trkpt lat="42.7265083" lon="-8.8768017"><ele>164.0</ele><time>2026-04-17T09:56:15.892Z</time></trkpt><trkpt lat="42.7266483" lon="-8.8767417"><ele>164.0</ele><time>2026-04-17T09:56:16.892Z</time></trkpt><trkpt lat="42.7267617" lon="-8.8767017"><ele>162.2</ele><time>2026-04-17T09:56:17.892Z</time></trkpt><trkpt lat="42.7268517" lon="-8.8766783"><ele>160.39999999999998</ele><time>2026-04-17T09:56:18.893Z</time></trkpt><trkpt lat="42.7269317" lon="-8.87661"><ele>158.6</ele><time>2026-04-17T09:56:20.892Z</time></trkpt><trkpt lat="42.726925" lon="-8.87648"><ele>156.8</ele><time>2026-04-17T09:56:22.893Z</time></trkpt><trkpt lat="42.7269333" lon="-8.8763317"><ele>155.0</ele><time>2026-04-17T09:56:24.893Z</time></trkpt><trkpt lat="42.726945" lon="-8.8762417"><ele>155.0</ele><time>2026-04-17T09:56:25.892Z</time></trkpt><trkpt lat="42.726945" lon="-8.876135"><ele>155.0</ele><time>2026-04-17T09:56:26.892Z</time></trkpt><trkpt lat="42.7269283" lon="-8.8759967"><ele>155.0</ele><time>2026-04-17T09:56:27.893Z</time></trkpt><trkpt lat="42.726915" lon="-8.8758583"><ele>155.0</ele><time>2026-04-17T09:56:28.893Z</time></trkpt><trkpt lat="42.7269133" lon="-8.8757383"><ele>155.0</ele><time>2026-04-17T09:56:29.893Z</time></trkpt><trkpt lat="42.7269183" lon="-8.8756333"><ele>155.0</ele><time>2026-04-17T09:56:30.892Z</time></trkpt><trkpt lat="42.7269367" lon="-8.87555"><ele>156.6</ele><time>2026-04-17T09:56:31.893Z</time></trkpt><trkpt lat="42.727005" lon="-8.8754133"><ele>158.2</ele><time>2026-04-17T09:56:33.893Z</time></trkpt><trkpt lat="42.727055" lon="-8.8753117"><ele>159.8</ele><time>2026-04-17T09:56:35.892Z</time></trkpt><trkpt lat="42.72706" lon="-8.87516"><ele>161.4</ele><time>2026-04-17T09:56:37.892Z</time></trkpt><trkpt lat="42.727025" lon="-8.875055"><ele>163.0</ele><time>2026-04-17T09:56:38.893Z</time></trkpt><trkpt lat="42.7269867" lon="-8.874945"><ele>161.5</ele><time>2026-04-17T09:56:39.893Z</time></trkpt><trkpt lat="42.72693" lon="-8.87481"><ele>160.0</ele><time>2026-04-17T09:56:40.892Z</time></trkpt><trkpt lat="42.7268683" lon="-8.8746683"><ele>158.5</ele><time>2026-04-17T09:56:41.893Z</time></trkpt><trkpt lat="42.726805" lon="-8.8745217"><ele>157.0</ele><time>2026-04-17T09:56:42.892Z</time></trkpt><trkpt lat="42.7267467" lon="-8.8743817"><ele>158.5</ele><time>2026-04-17T09:56:43.892Z</time></trkpt><trkpt lat="42.7266883" lon="-8.874265"><ele>160.0</ele><time>2026-04-17T09:56:44.892Z</time></trkpt><trkpt lat="42.726625" lon="-8.8741833"><ele>161.5</ele><time>2026-04-17T09:56:45.892Z</time></trkpt><trkpt lat="42.7265667" lon="-8.874115"><ele>163.0</ele><time>2026-04-17T09:56:46.893Z</time></trkpt><trkpt lat="42.7265033" lon="-8.87405"><ele>164.5</ele><time>2026-04-17T09:56:47.893Z</time></trkpt><trkpt lat="42.7264433" lon="-8.87399"><ele>166.0</ele><time>2026-04-17T09:56:48.892Z</time></trkpt><trkpt lat="42.7263833" lon="-8.873915"><ele>166.0</ele><time>2026-04-17T09:56:49.893Z</time></trkpt><trkpt lat="42.7263267" lon="-8.8738217"><ele>166.0</ele><time>2026-04-17T09:56:50.892Z</time></trkpt><trkpt lat="42.7262633" lon="-8.873715"><ele>166.0</ele><time>2026-04-17T09:56:51.892Z</time></trkpt><trkpt lat="42.7262133" lon="-8.8735917"><ele>166.0</ele><time>2026-04-17T09:56:52.892Z</time></trkpt><trkpt lat="42.726165" lon="-8.8734817"><ele>166.0</ele><time>2026-04-17T09:56:53.893Z</time></trkpt><trkpt lat="42.7260833" lon="-8.873365"><ele>165.25</ele><time>2026-04-17T09:56:54.892Z</time></trkpt><trkpt lat="42.7259933" lon="-8.873245"><ele>164.5</ele><time>2026-04-17T09:56:55.892Z</time></trkpt><trkpt lat="42.7258933" lon="-8.87312"><ele>163.75</ele><time>2026-04-17T09:56:56.893Z</time></trkpt><trkpt lat="42.7257983" lon="-8.8729867"><ele>163.0</ele><time>2026-04-17T09:56:57.892Z</time></trkpt><trkpt lat="42.7257167" lon="-8.8728483"><ele>163.0</ele><time>2026-04-17T09:56:58.893Z</time></trkpt><trkpt lat="42.7256417" lon="-8.8727083"><ele>163.0</ele><time>2026-04-17T09:56:59.892Z</time></trkpt><trkpt lat="42.72558" lon="-8.8725717"><ele>163.0</ele><time>2026-04-17T09:57:00.892Z</time></trkpt><trkpt lat="42.725535" lon="-8.8724417"><ele>163.0</ele><time>2026-04-17T09:57:01.892Z</time></trkpt><trkpt lat="42.7255067" lon="-8.872315"><ele>163.0</ele><time>2026-04-17T09:57:02.893Z</time></trkpt><trkpt lat="42.72549" lon="-8.8721883"><ele>165.2857142857143</ele><time>2026-04-17T09:57:03.893Z</time></trkpt><trkpt lat="42.7254817" lon="-8.8720817"><ele>167.57142857142856</ele><time>2026-04-17T09:57:04.892Z</time></trkpt><trkpt lat="42.7254933" lon="-8.8719683"><ele>169.85714285714286</ele><time>2026-04-17T09:57:05.893Z</time></trkpt><trkpt lat="42.72552" lon="-8.87187"><ele>172.14285714285717</ele><time>2026-04-17T09:57:06.893Z</time></trkpt><trkpt lat="42.725555" lon="-8.871785"><ele>174.42857142857144</ele><time>2026-04-17T09:57:07.892Z</time></trkpt><trkpt lat="42.7255967" lon="-8.8717067"><ele>176.71428571428572</ele><time>2026-04-17T09:57:08.893Z</time></trkpt><trkpt lat="42.7256517" lon="-8.871665"><ele>179.0</ele><time>2026-04-17T09:57:09.892Z</time></trkpt><trkpt lat="42.7257233" lon="-8.871625"><ele>180.5</ele><time>2026-04-17T09:57:10.893Z</time></trkpt><trkpt lat="42.725815" lon="-8.8716067"><ele>182.0</ele><time>2026-04-17T09:57:11.892Z</time></trkpt><trkpt lat="42.7258817" lon="-8.8716"><ele>183.5</ele><time>2026-04-17T09:57:12.893Z</time></trkpt><trkpt lat="42.72598" lon="-8.8715417"><ele>185.0</ele><time>2026-04-17T09:57:14.892Z</time></trkpt><trkpt lat="42.7260083" lon="-8.8714467"><ele>186.5</ele><time>2026-04-17T09:57:15.893Z</time></trkpt><trkpt lat="42.726035" lon="-8.8713633"><ele>188.0</ele><time>2026-04-17T09:57:16.892Z</time></trkpt><trkpt lat="42.7260633" lon="-8.8712733"><ele>189.2</ele><time>2026-04-17T09:57:17.893Z</time></trkpt><trkpt lat="42.72611" lon="-8.8711917"><ele>190.4</ele><time>2026-04-17T09:57:18.893Z</time></trkpt><trkpt lat="42.7261667" lon="-8.8711233"><ele>191.6</ele><time>2026-04-17T09:57:19.892Z</time></trkpt><trkpt lat="42.7262417" lon="-8.8710617"><ele>192.79999999999998</ele><time>2026-04-17T09:57:20.893Z</time></trkpt><trkpt lat="42.72634" lon="-8.871005"><ele>194.0</ele><time>2026-04-17T09:57:21.892Z</time></trkpt><trkpt lat="42.72649" lon="-8.870955"><ele>194.5</ele><time>2026-04-17T09:57:22.893Z</time></trkpt><trkpt lat="42.7266317" lon="-8.8709067"><ele>195.0</ele><time>2026-04-17T09:57:23.893Z</time></trkpt><trkpt lat="42.7267483" lon="-8.8708533"><ele>195.5</ele><time>2026-04-17T09:57:24.892Z</time></trkpt><trkpt lat="42.7268683" lon="-8.8707733"><ele>196.0</ele><time>2026-04-17T09:57:25.892Z</time></trkpt><trkpt lat="42.72699" lon="-8.8706733"><ele>196.5</ele><time>2026-04-17T09:57:26.893Z</time></trkpt><trkpt lat="42.7271" lon="-8.8705617"><ele>197.0</ele><time>2026-04-17T09:57:27.893Z</time></trkpt><trkpt lat="42.7272033" lon="-8.8704483"><ele>197.5</ele><time>2026-04-17T09:57:28.892Z</time></trkpt><trkpt lat="42.727295" lon="-8.87033"><ele>198.0</ele><time>2026-04-17T09:57:29.892Z</time></trkpt><trkpt lat="42.727355" lon="-8.870205"><ele>196.8</ele><time>2026-04-17T09:57:30.893Z</time></trkpt><trkpt lat="42.72739" lon="-8.8700617"><ele>195.60000000000002</ele><time>2026-04-17T09:57:31.892Z</time></trkpt><trkpt lat="42.7274" lon="-8.869915"><ele>194.39999999999998</ele><time>2026-04-17T09:57:32.892Z</time></trkpt><trkpt lat="42.7273967" lon="-8.8697917"><ele>193.2</ele><time>2026-04-17T09:57:33.892Z</time></trkpt><trkpt lat="42.7273733" lon="-8.8697083"><ele>192.0</ele><time>2026-04-17T09:57:34.893Z</time></trkpt><trkpt lat="42.727325" lon="-8.86961"><ele>192.0</ele><time>2026-04-17T09:57:36.892Z</time></trkpt><trkpt lat="42.7274183" lon="-8.8695467"><ele>192.0</ele><time>2026-04-17T09:57:39.893Z</time></trkpt><trkpt lat="42.72751" lon="-8.8695367"><ele>192.0</ele><time>2026-04-17T09:57:40.892Z</time></trkpt><trkpt lat="42.7276233" lon="-8.8695417"><ele>192.0</ele><time>2026-04-17T09:57:41.892Z</time></trkpt><trkpt lat="42.7277617" lon="-8.869545"><ele>192.0</ele><time>2026-04-17T09:57:42.893Z</time></trkpt><trkpt lat="42.7278883" lon="-8.86955"><ele>189.6</ele><time>2026-04-17T09:57:43.893Z</time></trkpt><trkpt lat="42.728" lon="-8.86956"><ele>187.2</ele><time>2026-04-17T09:57:44.892Z</time></trkpt><trkpt lat="42.7281033" lon="-8.8695683"><ele>184.8</ele><time>2026-04-17T09:57:45.893Z</time></trkpt><trkpt lat="42.7282133" lon="-8.86957"><ele>182.4</ele><time>2026-04-17T09:57:46.892Z</time></trkpt><trkpt lat="42.7283167" lon="-8.86957"><ele>180.0</ele><time>2026-04-17T09:57:47.892Z</time></trkpt><trkpt lat="42.72841" lon="-8.8695633"><ele>180.0</ele><time>2026-04-17T09:57:48.892Z</time></trkpt><trkpt lat="42.7284967" lon="-8.8695533"><ele>180.0</ele><time>2026-04-17T09:57:49.892Z</time></trkpt><trkpt lat="42.7285833" lon="-8.8695417"><ele>180.0</ele><time>2026-04-17T09:57:50.893Z</time></trkpt><trkpt lat="42.72867" lon="-8.8695417"><ele>180.0</ele><time>2026-04-17T09:57:51.893Z</time></trkpt><trkpt lat="42.7287517" lon="-8.8695317"><ele>180.0</ele><time>2026-04-17T09:57:52.893Z</time></trkpt><trkpt lat="42.7288317" lon="-8.869505"><ele>180.0</ele><time>2026-04-17T09:57:53.893Z</time></trkpt><trkpt lat="42.7289017" lon="-8.86948"><ele>178.16666666666666</ele><time>2026-04-17T09:57:54.893Z</time></trkpt><trkpt lat="42.728965" lon="-8.8694483"><ele>176.33333333333334</ele><time>2026-04-17T09:57:55.893Z</time></trkpt><trkpt lat="42.729025" lon="-8.8694067"><ele>174.5</ele><time>2026-04-17T09:57:56.892Z</time></trkpt><trkpt lat="42.7290867" lon="-8.8693717"><ele>172.66666666666669</ele><time>2026-04-17T09:57:57.893Z</time></trkpt><trkpt lat="42.72916" lon="-8.8693433"><ele>170.83333333333334</ele><time>2026-04-17T09:57:58.892Z</time></trkpt><trkpt lat="42.72925" lon="-8.869335"><ele>169.0</ele><time>2026-04-17T09:57:59.893Z</time></trkpt><trkpt lat="42.72936" lon="-8.86934"><ele>168.25</ele><time>2026-04-17T09:58:00.892Z</time></trkpt><trkpt lat="42.729475" lon="-8.8693517"><ele>167.5</ele><time>2026-04-17T09:58:01.892Z</time></trkpt><trkpt lat="42.7295883" lon="-8.8693467"><ele>166.75</ele><time>2026-04-17T09:58:02.893Z</time></trkpt><trkpt lat="42.7297217" lon="-8.8693333"><ele>166.0</ele><time>2026-04-17T09:58:03.893Z</time></trkpt><trkpt lat="42.7298433" lon="-8.8692917"><ele>168.75</ele><time>2026-04-17T09:58:04.893Z</time></trkpt><trkpt lat="42.7299783" lon="-8.8692667"><ele>171.5</ele><time>2026-04-17T09:58:05.892Z</time></trkpt><trkpt lat="42.7301233" lon="-8.8692367"><ele>174.25</ele><time>2026-04-17T09:58:06.893Z</time></trkpt><trkpt lat="42.7302683" lon="-8.8691933"><ele>177.0</ele><time>2026-04-17T09:58:07.892Z</time></trkpt><trkpt lat="42.7304067" lon="-8.8691583"><ele>177.5</ele><time>2026-04-17T09:58:08.892Z</time></trkpt><trkpt lat="42.7305417" lon="-8.8691483"><ele>178.0</ele><time>2026-04-17T09:58:09.892Z</time></trkpt><trkpt lat="42.7306783" lon="-8.8691433"><ele>178.5</ele><time>2026-04-17T09:58:10.893Z</time></trkpt><trkpt lat="42.730795" lon="-8.8691417"><ele>179.0</ele><time>2026-04-17T09:58:11.892Z</time></trkpt><trkpt lat="42.7308917" lon="-8.8691233"><ele>179.0</ele><time>2026-04-17T09:58:12.892Z</time></trkpt><trkpt lat="42.731" lon="-8.869095"><ele>179.0</ele><time>2026-04-17T09:58:13.893Z</time></trkpt><trkpt lat="42.731125" lon="-8.869085"><ele>179.0</ele><time>2026-04-17T09:58:14.892Z</time></trkpt><trkpt lat="42.73126" lon="-8.8690683"><ele>179.0</ele><time>2026-04-17T09:58:15.893Z</time></trkpt><trkpt lat="42.731405" lon="-8.869065"><ele>177.5</ele><time>2026-04-17T09:58:16.893Z</time></trkpt><trkpt lat="42.731545" lon="-8.8690767"><ele>176.0</ele><time>2026-04-17T09:58:17.893Z</time></trkpt><trkpt lat="42.7316717" lon="-8.8690983"><ele>174.5</ele><time>2026-04-17T09:58:18.892Z</time></trkpt><trkpt lat="42.7317783" lon="-8.86911"><ele>173.0</ele><time>2026-04-17T09:58:19.892Z</time></trkpt><trkpt lat="42.7318783" lon="-8.8690933"><ele>172.60000000000002</ele><time>2026-04-17T09:58:20.892Z</time></trkpt><trkpt lat="42.7319767" lon="-8.86905"><ele>172.20000000000002</ele><time>2026-04-17T09:58:21.892Z</time></trkpt><trkpt lat="42.73206" lon="-8.8690117"><ele>171.8</ele><time>2026-04-17T09:58:22.892Z</time></trkpt><trkpt lat="42.7321483" lon="-8.868995"><ele>171.4</ele><time>2026-04-17T09:58:23.893Z</time></trkpt><trkpt lat="42.7322383" lon="-8.8690083"><ele>171.0</ele><time>2026-04-17T09:58:24.892Z</time></trkpt><trkpt lat="42.73233" lon="-8.8690333"><ele>171.0</ele><time>2026-04-17T09:58:25.892Z</time></trkpt><trkpt lat="42.732425" lon="-8.86905"><ele>171.0</ele><time>2026-04-17T09:58:26.892Z</time></trkpt><trkpt lat="42.7325467" lon="-8.86905"><ele>171.0</ele><time>2026-04-17T09:58:27.893Z</time></trkpt><trkpt lat="42.7326667" lon="-8.8690317"><ele>171.0</ele><time>2026-04-17T09:58:28.892Z</time></trkpt><trkpt lat="42.7327883" lon="-8.8690067"><ele>168.75</ele><time>2026-04-17T09:58:29.893Z</time></trkpt><trkpt lat="42.73292" lon="-8.8689617"><ele>166.5</ele><time>2026-04-17T09:58:30.893Z</time></trkpt><trkpt lat="42.7330583" lon="-8.8689083"><ele>164.25</ele><time>2026-04-17T09:58:31.893Z</time></trkpt><trkpt lat="42.7332017" lon="-8.8688583"><ele>162.0</ele><time>2026-04-17T09:58:32.892Z</time></trkpt><trkpt lat="42.7333183" lon="-8.8688217"><ele>162.0</ele><time>2026-04-17T09:58:33.893Z</time></trkpt><trkpt lat="42.733425" lon="-8.8687883"><ele>162.0</ele><time>2026-04-17T09:58:34.893Z</time></trkpt><trkpt lat="42.7334967" lon="-8.8687183"><ele>162.0</ele><time>2026-04-17T09:58:35.893Z</time></trkpt><trkpt lat="42.7335533" lon="-8.8686683"><ele>162.0</ele><time>2026-04-17T09:58:36.893Z</time></trkpt><trkpt lat="42.7336" lon="-8.8686033"><ele>162.0</ele><time>2026-04-17T09:58:37.893Z</time></trkpt><trkpt lat="42.7336467" lon="-8.8685167"><ele>162.0</ele><time>2026-04-17T09:58:38.893Z</time></trkpt><trkpt lat="42.733685" lon="-8.868425"><ele>163.0</ele><time>2026-04-17T09:58:39.893Z</time></trkpt><trkpt lat="42.7337117" lon="-8.8682917"><ele>164.0</ele><time>2026-04-17T09:58:41.892Z</time></trkpt><trkpt lat="42.7336617" lon="-8.8681783"><ele>165.0</ele><time>2026-04-17T09:58:43.892Z</time></trkpt><trkpt lat="42.73367" lon="-8.86805"><ele>166.0</ele><time>2026-04-17T09:58:45.893Z</time></trkpt><trkpt lat="42.73371" lon="-8.86798"><ele>167.0</ele><time>2026-04-17T09:58:46.893Z</time></trkpt><trkpt lat="42.7337767" lon="-8.8679033"><ele>168.0</ele><time>2026-04-17T09:58:47.893Z</time></trkpt><trkpt lat="42.7338683" lon="-8.86785"><ele>168.0</ele><time>2026-04-17T09:58:48.893Z</time></trkpt><trkpt lat="42.7339867" lon="-8.86781"><ele>168.0</ele><time>2026-04-17T09:58:49.893Z</time></trkpt><trkpt lat="42.7340767" lon="-8.867775"><ele>168.0</ele><time>2026-04-17T09:58:50.893Z</time></trkpt><trkpt lat="42.734145" lon="-8.8676817"><ele>168.0</ele><time>2026-04-17T09:58:52.892Z</time></trkpt><trkpt lat="42.7340883" lon="-8.8675767"><ele>168.0</ele><time>2026-04-17T09:58:55.893Z</time></trkpt><trkpt lat="42.7340083" lon="-8.8675483"><ele>169.66666666666666</ele><time>2026-04-17T09:58:56.893Z</time></trkpt><trkpt lat="42.7338667" lon="-8.8675"><ele>171.33333333333331</ele><time>2026-04-17T09:58:57.892Z</time></trkpt><trkpt lat="42.7336683" lon="-8.86745"><ele>173.0</ele><time>2026-04-17T09:58:58.893Z</time></trkpt><trkpt lat="42.7334383" lon="-8.8673983"><ele>175.66666666666666</ele><time>2026-04-17T09:58:59.893Z</time></trkpt><trkpt lat="42.73322" lon="-8.8673683"><ele>178.33333333333334</ele><time>2026-04-17T09:59:00.892Z</time></trkpt><trkpt lat="42.7330133" lon="-8.8673733"><ele>181.0</ele><time>2026-04-17T09:59:01.892Z</time></trkpt><trkpt lat="42.73282" lon="-8.86739"><ele>185.33333333333334</ele><time>2026-04-17T09:59:02.893Z</time></trkpt><trkpt lat="42.7326483" lon="-8.8674317"><ele>189.66666666666669</ele><time>2026-04-17T09:59:03.892Z</time></trkpt><trkpt lat="42.7324733" lon="-8.8674933"><ele>194.0</ele><time>2026-04-17T09:59:04.893Z</time></trkpt><trkpt lat="42.7323367" lon="-8.86757"><ele>190.5</ele><time>2026-04-17T09:59:05.892Z</time></trkpt><trkpt lat="42.7322267" lon="-8.8676633"><ele>187.0</ele><time>2026-04-17T09:59:06.892Z</time></trkpt><trkpt lat="42.7321167" lon="-8.8677483"><ele>183.5</ele><time>2026-04-17T09:59:07.892Z</time></trkpt><trkpt lat="42.732005" lon="-8.867805"><ele>180.0</ele><time>2026-04-17T09:59:08.892Z</time></trkpt><trkpt lat="42.731895" lon="-8.867825"><ele>182.5</ele><time>2026-04-17T09:59:09.892Z</time></trkpt><trkpt lat="42.7317783" lon="-8.8678233"><ele>185.0</ele><time>2026-04-17T09:59:10.892Z</time></trkpt><trkpt lat="42.73164" lon="-8.86783"><ele>187.5</ele><time>2026-04-17T09:59:11.893Z</time></trkpt><trkpt lat="42.7315" lon="-8.8678317"><ele>190.0</ele><time>2026-04-17T09:59:12.893Z</time></trkpt><trkpt lat="42.731385" lon="-8.8678333"><ele>190.0</ele><time>2026-04-17T09:59:13.894Z</time></trkpt><trkpt lat="42.7313133" lon="-8.8678017"><ele>190.0</ele><time>2026-04-17T09:59:14.893Z</time></trkpt><trkpt lat="42.7312417" lon="-8.8677017"><ele>190.0</ele><time>2026-04-17T09:59:16.894Z</time></trkpt><trkpt lat="42.7312933" lon="-8.8675283"><ele>190.0</ele><time>2026-04-17T09:59:18.894Z</time></trkpt><trkpt lat="42.73133" lon="-8.8674317"><ele>190.0</ele><time>2026-04-17T09:59:19.894Z</time></trkpt><trkpt lat="42.73135" lon="-8.8673283"><ele>193.4</ele><time>2026-04-17T09:59:20.894Z</time></trkpt><trkpt lat="42.7313217" lon="-8.86725"><ele>196.8</ele><time>2026-04-17T09:59:21.893Z</time></trkpt><trkpt lat="42.731265" lon="-8.8671917"><ele>200.2</ele><time>2026-04-17T09:59:22.893Z</time></trkpt><trkpt lat="42.7311867" lon="-8.8671617"><ele>203.6</ele><time>2026-04-17T09:59:23.894Z</time></trkpt><trkpt lat="42.7310817" lon="-8.8671733"><ele>207.0</ele><time>2026-04-17T09:59:24.894Z</time></trkpt><trkpt lat="42.7309517" lon="-8.8671983"><ele>209.5</ele><time>2026-04-17T09:59:25.894Z</time></trkpt><trkpt lat="42.7308017" lon="-8.86719"><ele>212.0</ele><time>2026-04-17T09:59:26.894Z</time></trkpt><trkpt lat="42.7306717" lon="-8.867155"><ele>214.5</ele><time>2026-04-17T09:59:27.893Z</time></trkpt><trkpt lat="42.73058" lon="-8.867095"><ele>217.0</ele><time>2026-04-17T09:59:28.893Z</time></trkpt><trkpt lat="42.7305117" lon="-8.8669633"><ele>217.0</ele><time>2026-04-17T09:59:30.893Z</time></trkpt><trkpt lat="42.7305567" lon="-8.8668317"><ele>217.0</ele><time>2026-04-17T09:59:32.893Z</time></trkpt><trkpt lat="42.7306333" lon="-8.8667617"><ele>217.0</ele><time>2026-04-17T09:59:33.893Z</time></trkpt><trkpt lat="42.73077" lon="-8.866675"><ele>217.0</ele><time>2026-04-17T09:59:34.894Z</time></trkpt><trkpt lat="42.7309317" lon="-8.8665717"><ele>219.0</ele><time>2026-04-17T09:59:35.894Z</time></trkpt><trkpt lat="42.7310917" lon="-8.8664483"><ele>221.0</ele><time>2026-04-17T09:59:36.893Z</time></trkpt><trkpt lat="42.7312267" lon="-8.86632"><ele>223.0</ele><time>2026-04-17T09:59:37.894Z</time></trkpt><trkpt lat="42.7313167" lon="-8.8661667"><ele>222.99999999999997</ele><time>2026-04-17T09:59:38.893Z</time></trkpt><trkpt lat="42.7313633" lon="-8.8660217"><ele>223.0</ele><time>2026-04-17T09:59:39.894Z</time></trkpt><trkpt lat="42.7313683" lon="-8.8659083"><ele>223.0</ele><time>2026-04-17T09:59:40.893Z</time></trkpt><trkpt lat="42.73135" lon="-8.8658117"><ele>223.0</ele><time>2026-04-17T09:59:41.893Z</time></trkpt><trkpt lat="42.7313033" lon="-8.8657483"><ele>222.99999999999997</ele><time>2026-04-17T09:59:42.893Z</time></trkpt><trkpt lat="42.731235" lon="-8.8657217"><ele>223.0</ele><time>2026-04-17T09:59:43.894Z</time></trkpt><trkpt lat="42.7311383" lon="-8.865745"><ele>229.75</ele><time>2026-04-17T09:59:44.894Z</time></trkpt><trkpt lat="42.7310183" lon="-8.8658067"><ele>236.5</ele><time>2026-04-17T09:59:45.893Z</time></trkpt><trkpt lat="42.7308733" lon="-8.865885"><ele>243.25</ele><time>2026-04-17T09:59:46.893Z</time></trkpt><trkpt lat="42.7307283" lon="-8.8659183"><ele>250.0</ele><time>2026-04-17T09:59:47.893Z</time></trkpt><trkpt lat="42.7306" lon="-8.8659033"><ele>250.0</ele><time>2026-04-17T09:59:48.894Z</time></trkpt><trkpt lat="42.730485" lon="-8.8658367"><ele>250.0</ele><time>2026-04-17T09:59:49.894Z</time></trkpt><trkpt lat="42.7303783" lon="-8.8657383"><ele>250.0</ele><time>2026-04-17T09:59:50.894Z</time></trkpt><trkpt lat="42.7302683" lon="-8.8656283"><ele>250.0</ele><time>2026-04-17T09:59:51.893Z</time></trkpt><trkpt lat="42.7301583" lon="-8.8655033"><ele>252.5</ele><time>2026-04-17T09:59:52.894Z</time></trkpt><trkpt lat="42.73005" lon="-8.86538"><ele>255.0</ele><time>2026-04-17T09:59:53.893Z</time></trkpt><trkpt lat="42.7299267" lon="-8.8652817"><ele>257.5</ele><time>2026-04-17T09:59:54.894Z</time></trkpt><trkpt lat="42.7297833" lon="-8.8651917"><ele>260.0</ele><time>2026-04-17T09:59:55.893Z</time></trkpt><trkpt lat="42.7296367" lon="-8.8651217"><ele>260.75</ele><time>2026-04-17T09:59:56.893Z</time></trkpt><trkpt lat="42.7295083" lon="-8.8650883"><ele>261.5</ele><time>2026-04-17T09:59:57.894Z</time></trkpt><trkpt lat="42.729405" lon="-8.8650983"><ele>262.25</ele><time>2026-04-17T09:59:58.893Z</time></trkpt><trkpt lat="42.72931" lon="-8.8651617"><ele>263.0</ele><time>2026-04-17T09:59:59.894Z</time></trkpt><trkpt lat="42.7291983" lon="-8.8652883"><ele>263.0</ele><time>2026-04-17T10:00:00.893Z</time></trkpt><trkpt lat="42.7290783" lon="-8.8653983"><ele>263.0</ele><time>2026-04-17T10:00:01.893Z</time></trkpt><trkpt lat="42.7289617" lon="-8.865465"><ele>263.0</ele><time>2026-04-17T10:00:02.893Z</time></trkpt><trkpt lat="42.72886" lon="-8.86548"><ele>263.0</ele><time>2026-04-17T10:00:03.893Z</time></trkpt><trkpt lat="42.728755" lon="-8.8654333"><ele>263.0</ele><time>2026-04-17T10:00:04.893Z</time></trkpt><trkpt lat="42.7286533" lon="-8.86535"><ele>263.0</ele><time>2026-04-17T10:00:05.894Z</time></trkpt><trkpt lat="42.7285717" lon="-8.8652433"><ele>263.0</ele><time>2026-04-17T10:00:06.893Z</time></trkpt><trkpt lat="42.72851" lon="-8.8650967"><ele>263.0</ele><time>2026-04-17T10:00:07.893Z</time></trkpt><trkpt lat="42.7284467" lon="-8.8649217"><ele>266.33333333333337</ele><time>2026-04-17T10:00:08.894Z</time></trkpt><trkpt lat="42.728375" lon="-8.8647333"><ele>269.6666666666667</ele><time>2026-04-17T10:00:09.894Z</time></trkpt><trkpt lat="42.7282917" lon="-8.8645267"><ele>273.0</ele><time>2026-04-17T10:00:10.894Z</time></trkpt><trkpt lat="42.72821" lon="-8.8643133"><ele>274.6</ele><time>2026-04-17T10:00:11.894Z</time></trkpt><trkpt lat="42.728135" lon="-8.8641217"><ele>276.20000000000005</ele><time>2026-04-17T10:00:12.894Z</time></trkpt><trkpt lat="42.7280667" lon="-8.8639933"><ele>277.8</ele><time>2026-04-17T10:00:13.893Z</time></trkpt><trkpt lat="42.7279967" lon="-8.8639567"><ele>279.40000000000003</ele><time>2026-04-17T10:00:14.893Z</time></trkpt><trkpt lat="42.7279083" lon="-8.8639567"><ele>281.0</ele><time>2026-04-17T10:00:15.893Z</time></trkpt><trkpt lat="42.72778" lon="-8.86397"><ele>280.33333333333337</ele><time>2026-04-17T10:00:16.893Z</time></trkpt><trkpt lat="42.7276183" lon="-8.8639933"><ele>279.6666666666667</ele><time>2026-04-17T10:00:17.894Z</time></trkpt><trkpt lat="42.7274467" lon="-8.864005"><ele>279.0</ele><time>2026-04-17T10:00:18.894Z</time></trkpt><trkpt lat="42.7272783" lon="-8.8640067"><ele>279.0</ele><time>2026-04-17T10:00:19.894Z</time></trkpt><trkpt lat="42.7271383" lon="-8.863995"><ele>279.0</ele><time>2026-04-17T10:00:20.893Z</time></trkpt><trkpt lat="42.7270117" lon="-8.86396"><ele>279.0</ele><time>2026-04-17T10:00:21.893Z</time></trkpt><trkpt lat="42.7269117" lon="-8.8639133"><ele>279.0</ele><time>2026-04-17T10:00:22.893Z</time></trkpt><trkpt lat="42.7268467" lon="-8.86385"><ele>279.59999999999997</ele><time>2026-04-17T10:00:23.893Z</time></trkpt><trkpt lat="42.7267917" lon="-8.8637683"><ele>280.2</ele><time>2026-04-17T10:00:24.893Z</time></trkpt><trkpt lat="42.7267683" lon="-8.8636217"><ele>280.79999999999995</ele><time>2026-04-17T10:00:26.894Z</time></trkpt><trkpt lat="42.72683" lon="-8.8634917"><ele>281.4</ele><time>2026-04-17T10:00:28.893Z</time></trkpt><trkpt lat="42.7269067" lon="-8.8634217"><ele>282.0</ele><time>2026-04-17T10:00:29.894Z</time></trkpt><trkpt lat="42.7270367" lon="-8.863345"><ele>282.0</ele><time>2026-04-17T10:00:30.893Z</time></trkpt><trkpt lat="42.7271617" lon="-8.8632517"><ele>282.0</ele><time>2026-04-17T10:00:31.893Z</time></trkpt><trkpt lat="42.727285" lon="-8.8631817"><ele>282.0</ele><time>2026-04-17T10:00:32.893Z</time></trkpt><trkpt lat="42.7274067" lon="-8.8631433"><ele>282.0</ele><time>2026-04-17T10:00:33.893Z</time></trkpt><trkpt lat="42.7275383" lon="-8.8631333"><ele>282.0</ele><time>2026-04-17T10:00:34.893Z</time></trkpt><trkpt lat="42.72767" lon="-8.86312"><ele>282.0</ele><time>2026-04-17T10:00:35.893Z</time></trkpt><trkpt lat="42.7277867" lon="-8.8631"><ele>282.0</ele><time>2026-04-17T10:00:36.893Z</time></trkpt><trkpt lat="42.7278717" lon="-8.8630283"><ele>282.0</ele><time>2026-04-17T10:00:37.893Z</time></trkpt><trkpt lat="42.72796" lon="-8.8629417"><ele>282.25</ele><time>2026-04-17T10:00:38.894Z</time></trkpt><trkpt lat="42.7280517" lon="-8.8628417"><ele>282.5</ele><time>2026-04-17T10:00:39.893Z</time></trkpt><trkpt lat="42.7281717" lon="-8.86274"><ele>282.75</ele><time>2026-04-17T10:00:40.894Z</time></trkpt><trkpt lat="42.7283333" lon="-8.8626283"><ele>283.0</ele><time>2026-04-17T10:00:41.893Z</time></trkpt><trkpt lat="42.72849" lon="-8.8625417"><ele>284.0</ele><time>2026-04-17T10:00:42.893Z</time></trkpt><trkpt lat="42.7286517" lon="-8.8624367"><ele>285.0</ele><time>2026-04-17T10:00:43.893Z</time></trkpt><trkpt lat="42.7288267" lon="-8.862305"><ele>286.0</ele><time>2026-04-17T10:00:44.894Z</time></trkpt><trkpt lat="42.7290083" lon="-8.86216"><ele>286.0</ele><time>2026-04-17T10:00:45.893Z</time></trkpt><trkpt lat="42.72918" lon="-8.8620117"><ele>286.0</ele><time>2026-04-17T10:00:46.893Z</time></trkpt><trkpt lat="42.729335" lon="-8.8618617"><ele>286.0</ele><time>2026-04-17T10:00:47.894Z</time></trkpt><trkpt lat="42.729475" lon="-8.86172"><ele>287.0</ele><time>2026-04-17T10:00:48.894Z</time></trkpt><trkpt lat="42.7296017" lon="-8.8615883"><ele>288.0</ele><time>2026-04-17T10:00:49.893Z</time></trkpt><trkpt lat="42.7297183" lon="-8.8614817"><ele>289.0</ele><time>2026-04-17T10:00:50.894Z</time></trkpt><trkpt lat="42.7298267" lon="-8.861405"><ele>290.0</ele><time>2026-04-17T10:00:51.893Z</time></trkpt><trkpt lat="42.7299483" lon="-8.8613567"><ele>290.0</ele><time>2026-04-17T10:00:52.894Z</time></trkpt><trkpt lat="42.7300767" lon="-8.8613267"><ele>290.0</ele><time>2026-04-17T10:00:53.893Z</time></trkpt><trkpt lat="42.7302167" lon="-8.8612983"><ele>290.0</ele><time>2026-04-17T10:00:54.894Z</time></trkpt><trkpt lat="42.7303717" lon="-8.8612833"><ele>290.0</ele><time>2026-04-17T10:00:55.893Z</time></trkpt><trkpt lat="42.730545" lon="-8.861255"><ele>290.0</ele><time>2026-04-17T10:00:56.893Z</time></trkpt><trkpt lat="42.7306883" lon="-8.8612183"><ele>290.0</ele><time>2026-04-17T10:00:57.893Z</time></trkpt><trkpt lat="42.730815" lon="-8.8611633"><ele>290.0</ele><time>2026-04-17T10:00:58.894Z</time></trkpt><trkpt lat="42.73093" lon="-8.86109"><ele>290.0</ele><time>2026-04-17T10:00:59.893Z</time></trkpt><trkpt lat="42.731015" lon="-8.8609883"><ele>290.0</ele><time>2026-04-17T10:01:00.894Z</time></trkpt><trkpt lat="42.7311083" lon="-8.860845"><ele>290.0</ele><time>2026-04-17T10:01:01.894Z</time></trkpt><trkpt lat="42.7312" lon="-8.8606583"><ele>290.0</ele><time>2026-04-17T10:01:02.893Z</time></trkpt><trkpt lat="42.7312867" lon="-8.860485"><ele>290.0</ele><time>2026-04-17T10:01:03.894Z</time></trkpt><trkpt lat="42.7313617" lon="-8.8603233"><ele>290.0</ele><time>2026-04-17T10:01:04.894Z</time></trkpt><trkpt lat="42.7314217" lon="-8.8601633"><ele>290.0</ele><time>2026-04-17T10:01:05.894Z</time></trkpt><trkpt lat="42.73146" lon="-8.8600167"><ele>290.0</ele><time>2026-04-17T10:01:06.894Z</time></trkpt><trkpt lat="42.731475" lon="-8.8598833"><ele>289.0</ele><time>2026-04-17T10:01:07.893Z</time></trkpt><trkpt lat="42.7314717" lon="-8.8597617"><ele>288.0</ele><time>2026-04-17T10:01:08.894Z</time></trkpt><trkpt lat="42.7314567" lon="-8.8596483"><ele>287.0</ele><time>2026-04-17T10:01:09.893Z</time></trkpt><trkpt lat="42.731425" lon="-8.8595433"><ele>286.0</ele><time>2026-04-17T10:01:10.893Z</time></trkpt><trkpt lat="42.731375" lon="-8.8594417"><ele>285.0</ele><time>2026-04-17T10:01:11.894Z</time></trkpt><trkpt lat="42.7313283" lon="-8.8593417"><ele>284.0</ele><time>2026-04-17T10:01:12.893Z</time></trkpt><trkpt lat="42.73128" lon="-8.8592533"><ele>282.8</ele><time>2026-04-17T10:01:13.894Z</time></trkpt><trkpt lat="42.731225" lon="-8.8591733"><ele>281.59999999999997</ele><time>2026-04-17T10:01:14.893Z</time></trkpt><trkpt lat="42.7311483" lon="-8.859075"><ele>280.4</ele><time>2026-04-17T10:01:16.893Z</time></trkpt><trkpt lat="42.7311067" lon="-8.8589183"><ele>279.2</ele><time>2026-04-17T10:01:18.893Z</time></trkpt><trkpt lat="42.7311317" lon="-8.8587367"><ele>278.0</ele><time>2026-04-17T10:01:20.893Z</time></trkpt><trkpt lat="42.7311833" lon="-8.85865"><ele>278.0</ele><time>2026-04-17T10:01:21.894Z</time></trkpt><trkpt lat="42.7312567" lon="-8.8585733"><ele>278.0</ele><time>2026-04-17T10:01:22.893Z</time></trkpt><trkpt lat="42.7313367" lon="-8.8585167"><ele>278.0</ele><time>2026-04-17T10:01:23.893Z</time></trkpt><trkpt lat="42.731435" lon="-8.8584533"><ele>278.0</ele><time>2026-04-17T10:01:24.894Z</time></trkpt><trkpt lat="42.7315533" lon="-8.8583917"><ele>278.0</ele><time>2026-04-17T10:01:25.893Z</time></trkpt><trkpt lat="42.7316717" lon="-8.8583267"><ele>277.5</ele><time>2026-04-17T10:01:26.894Z</time></trkpt><trkpt lat="42.7317833" lon="-8.858245"><ele>277.0</ele><time>2026-04-17T10:01:27.893Z</time></trkpt><trkpt lat="42.731885" lon="-8.8581567"><ele>276.5</ele><time>2026-04-17T10:01:28.893Z</time></trkpt><trkpt lat="42.7319867" lon="-8.85807"><ele>276.0</ele><time>2026-04-17T10:01:29.893Z</time></trkpt><trkpt lat="42.732075" lon="-8.857985"><ele>276.0</ele><time>2026-04-17T10:01:30.894Z</time></trkpt><trkpt lat="42.7321583" lon="-8.85791"><ele>276.0</ele><time>2026-04-17T10:01:31.893Z</time></trkpt><trkpt lat="42.73224" lon="-8.8578367"><ele>276.0</ele><time>2026-04-17T10:01:32.893Z</time></trkpt><trkpt lat="42.73233" lon="-8.8577567"><ele>276.0</ele><time>2026-04-17T10:01:33.893Z</time></trkpt><trkpt lat="42.7324333" lon="-8.8576717"><ele>276.0</ele><time>2026-04-17T10:01:34.894Z</time></trkpt><trkpt lat="42.7325367" lon="-8.8575833"><ele>273.2</ele><time>2026-04-17T10:01:35.894Z</time></trkpt><trkpt lat="42.7326317" lon="-8.8574967"><ele>270.40000000000003</ele><time>2026-04-17T10:01:36.894Z</time></trkpt><trkpt lat="42.73272" lon="-8.8574283"><ele>267.6</ele><time>2026-04-17T10:01:37.893Z</time></trkpt><trkpt lat="42.7328083" lon="-8.8573667"><ele>264.8</ele><time>2026-04-17T10:01:38.894Z</time></trkpt><trkpt lat="42.7328917" lon="-8.8573017"><ele>262.0</ele><time>2026-04-17T10:01:39.893Z</time></trkpt><trkpt lat="42.7329683" lon="-8.8572417"><ele>262.0</ele><time>2026-04-17T10:01:40.894Z</time></trkpt><trkpt lat="42.7330417" lon="-8.8571867"><ele>262.0</ele><time>2026-04-17T10:01:41.893Z</time></trkpt><trkpt lat="42.7331067" lon="-8.8571317"><ele>262.0</ele><time>2026-04-17T10:01:42.894Z</time></trkpt><trkpt lat="42.7332183" lon="-8.8570567"><ele>262.0</ele><time>2026-04-17T10:01:44.893Z</time></trkpt><trkpt lat="42.7332783" lon="-8.8570167"><ele>262.0</ele><time>2026-04-17T10:01:45.894Z</time></trkpt><trkpt lat="42.7333383" lon="-8.8569767"><ele>262.0</ele><time>2026-04-17T10:01:46.893Z</time></trkpt><trkpt lat="42.733405" lon="-8.8569133"><ele>262.0</ele><time>2026-04-17T10:01:47.893Z</time></trkpt><trkpt lat="42.73347" lon="-8.85686"><ele>262.0</ele><time>2026-04-17T10:01:48.893Z</time></trkpt><trkpt lat="42.73354" lon="-8.8568067"><ele>262.0</ele><time>2026-04-17T10:01:49.893Z</time></trkpt><trkpt lat="42.7336133" lon="-8.8567583"><ele>262.0</ele><time>2026-04-17T10:01:50.893Z</time></trkpt><trkpt lat="42.73369" lon="-8.8567133"><ele>262.0</ele><time>2026-04-17T10:01:51.893Z</time></trkpt><trkpt lat="42.73377" lon="-8.8566817"><ele>262.0</ele><time>2026-04-17T10:01:52.893Z</time></trkpt><trkpt lat="42.7338517" lon="-8.85665"><ele>259.5</ele><time>2026-04-17T10:01:53.893Z</time></trkpt><trkpt lat="42.733935" lon="-8.85662"><ele>257.0</ele><time>2026-04-17T10:01:54.894Z</time></trkpt><trkpt lat="42.7340167" lon="-8.8565883"><ele>254.5</ele><time>2026-04-17T10:01:55.893Z</time></trkpt><trkpt lat="42.7340967" lon="-8.8565733"><ele>252.0</ele><time>2026-04-17T10:01:56.893Z</time></trkpt><trkpt lat="42.7341783" lon="-8.8565733"><ele>249.49999999999997</ele><time>2026-04-17T10:01:57.893Z</time></trkpt><trkpt lat="42.7342567" lon="-8.8566033"><ele>247.0</ele><time>2026-04-17T10:01:58.894Z</time></trkpt><trkpt lat="42.73433" lon="-8.8566517"><ele>246.0</ele><time>2026-04-17T10:01:59.893Z</time></trkpt><trkpt lat="42.7343933" lon="-8.8567183"><ele>245.0</ele><time>2026-04-17T10:02:00.893Z</time></trkpt><trkpt lat="42.73445" lon="-8.8568067"><ele>244.0</ele><time>2026-04-17T10:02:01.894Z</time></trkpt><trkpt lat="42.7345083" lon="-8.8569067"><ele>243.0</ele><time>2026-04-17T10:02:02.894Z</time></trkpt><trkpt lat="42.7345533" lon="-8.8570267"><ele>242.0</ele><time>2026-04-17T10:02:03.894Z</time></trkpt><trkpt lat="42.7345783" lon="-8.8571633"><ele>242.0</ele><time>2026-04-17T10:02:04.893Z</time></trkpt><trkpt lat="42.7345883" lon="-8.8573133"><ele>242.0</ele><time>2026-04-17T10:02:05.894Z</time></trkpt><trkpt lat="42.73461" lon="-8.8574517"><ele>242.0</ele><time>2026-04-17T10:02:06.893Z</time></trkpt><trkpt lat="42.7346517" lon="-8.85757"><ele>242.0</ele><time>2026-04-17T10:02:07.893Z</time></trkpt><trkpt lat="42.7347183" lon="-8.857675"><ele>242.0</ele><time>2026-04-17T10:02:08.893Z</time></trkpt><trkpt lat="42.7347867" lon="-8.8577617"><ele>243.0</ele><time>2026-04-17T10:02:09.894Z</time></trkpt><trkpt lat="42.73486" lon="-8.8578267"><ele>244.0</ele><time>2026-04-17T10:02:10.894Z</time></trkpt><trkpt lat="42.7349317" lon="-8.8578783"><ele>245.0</ele><time>2026-04-17T10:02:11.893Z</time></trkpt><trkpt lat="42.73502" lon="-8.8579183"><ele>246.0</ele><time>2026-04-17T10:02:12.894Z</time></trkpt><trkpt lat="42.73512" lon="-8.857965"><ele>247.0</ele><time>2026-04-17T10:02:13.893Z</time></trkpt><trkpt lat="42.735235" lon="-8.857965"><ele>247.0</ele><time>2026-04-17T10:02:14.893Z</time></trkpt><trkpt lat="42.7353517" lon="-8.85794"><ele>247.0</ele><time>2026-04-17T10:02:15.893Z</time></trkpt><trkpt lat="42.7354533" lon="-8.85793"><ele>247.0</ele><time>2026-04-17T10:02:16.893Z</time></trkpt><trkpt lat="42.7355633" lon="-8.85793"><ele>247.0</ele><time>2026-04-17T10:02:17.893Z</time></trkpt><trkpt lat="42.73567" lon="-8.8579483"><ele>247.0</ele><time>2026-04-17T10:02:18.894Z</time></trkpt><trkpt lat="42.7357783" lon="-8.8579683"><ele>247.0</ele><time>2026-04-17T10:02:19.894Z</time></trkpt><trkpt lat="42.735885" lon="-8.85798"><ele>247.0</ele><time>2026-04-17T10:02:20.894Z</time></trkpt><trkpt lat="42.7359967" lon="-8.8579667"><ele>247.0</ele><time>2026-04-17T10:02:21.893Z</time></trkpt><trkpt lat="42.7361167" lon="-8.8579467"><ele>247.0</ele><time>2026-04-17T10:02:22.893Z</time></trkpt><trkpt lat="42.736235" lon="-8.8579333"><ele>245.0</ele><time>2026-04-17T10:02:23.894Z</time></trkpt><trkpt lat="42.7363433" lon="-8.8579167"><ele>243.0</ele><time>2026-04-17T10:02:24.894Z</time></trkpt><trkpt lat="42.7364583" lon="-8.8579"><ele>241.0</ele><time>2026-04-17T10:02:25.893Z</time></trkpt><trkpt lat="42.7365733" lon="-8.8578767"><ele>239.0</ele><time>2026-04-17T10:02:26.893Z</time></trkpt><trkpt lat="42.7366883" lon="-8.85785"><ele>239.0</ele><time>2026-04-17T10:02:27.894Z</time></trkpt><trkpt lat="42.7368017" lon="-8.8578217"><ele>238.99999999999997</ele><time>2026-04-17T10:02:28.893Z</time></trkpt><trkpt lat="42.7369067" lon="-8.857805"><ele>238.99999999999997</ele><time>2026-04-17T10:02:29.894Z</time></trkpt><trkpt lat="42.7370117" lon="-8.8578083"><ele>239.0</ele><time>2026-04-17T10:02:30.893Z</time></trkpt><trkpt lat="42.7371117" lon="-8.8578317"><ele>239.0</ele><time>2026-04-17T10:02:31.894Z</time></trkpt><trkpt lat="42.7372167" lon="-8.8578733"><ele>235.5</ele><time>2026-04-17T10:02:32.893Z</time></trkpt><trkpt lat="42.7373317" lon="-8.8579317"><ele>232.0</ele><time>2026-04-17T10:02:33.893Z</time></trkpt><trkpt lat="42.7374433" lon="-8.8579833"><ele>228.5</ele><time>2026-04-17T10:02:34.893Z</time></trkpt><trkpt lat="42.737555" lon="-8.8580433"><ele>225.0</ele><time>2026-04-17T10:02:35.893Z</time></trkpt><trkpt lat="42.737665" lon="-8.858095"><ele>222.6</ele><time>2026-04-17T10:02:36.893Z</time></trkpt><trkpt lat="42.7377633" lon="-8.8581317"><ele>220.2</ele><time>2026-04-17T10:02:37.893Z</time></trkpt><trkpt lat="42.7378583" lon="-8.8581683"><ele>217.8</ele><time>2026-04-17T10:02:38.894Z</time></trkpt><trkpt lat="42.7379583" lon="-8.858205"><ele>215.4</ele><time>2026-04-17T10:02:39.894Z</time></trkpt><trkpt lat="42.7380667" lon="-8.85823"><ele>213.0</ele><time>2026-04-17T10:02:40.894Z</time></trkpt><trkpt lat="42.7381683" lon="-8.8582567"><ele>213.0</ele><time>2026-04-17T10:02:41.894Z</time></trkpt><trkpt lat="42.7382633" lon="-8.8582783"><ele>213.0</ele><time>2026-04-17T10:02:42.894Z</time></trkpt><trkpt lat="42.7383433" lon="-8.8582917"><ele>213.0</ele><time>2026-04-17T10:02:43.893Z</time></trkpt><trkpt lat="42.7384383" lon="-8.8583217"><ele>213.0</ele><time>2026-04-17T10:02:44.893Z</time></trkpt><trkpt lat="42.738535" lon="-8.8583567"><ele>213.0</ele><time>2026-04-17T10:02:45.893Z</time></trkpt><trkpt lat="42.7386383" lon="-8.8584"><ele>214.2</ele><time>2026-04-17T10:02:46.894Z</time></trkpt><trkpt lat="42.7387433" lon="-8.858435"><ele>215.4</ele><time>2026-04-17T10:02:47.893Z</time></trkpt><trkpt lat="42.7388567" lon="-8.8584633"><ele>216.59999999999997</ele><time>2026-04-17T10:02:48.894Z</time></trkpt><trkpt lat="42.7389617" lon="-8.8584567"><ele>217.79999999999998</ele><time>2026-04-17T10:02:49.894Z</time></trkpt><trkpt lat="42.7390733" lon="-8.858455"><ele>219.0</ele><time>2026-04-17T10:02:50.894Z</time></trkpt><trkpt lat="42.7391833" lon="-8.85846"><ele>219.0</ele><time>2026-04-17T10:02:51.893Z</time></trkpt><trkpt lat="42.7392917" lon="-8.8584683"><ele>219.0</ele><time>2026-04-17T10:02:52.894Z</time></trkpt><trkpt lat="42.739415" lon="-8.85849"><ele>219.0</ele><time>2026-04-17T10:02:53.894Z</time></trkpt><trkpt lat="42.7395283" lon="-8.8585117"><ele>219.0</ele><time>2026-04-17T10:02:54.893Z</time></trkpt><trkpt lat="42.7396417" lon="-8.858525"><ele>216.5</ele><time>2026-04-17T10:02:55.893Z</time></trkpt><trkpt lat="42.7397617" lon="-8.8585333"><ele>214.0</ele><time>2026-04-17T10:02:56.894Z</time></trkpt><trkpt lat="42.739895" lon="-8.8585333"><ele>211.5</ele><time>2026-04-17T10:02:57.893Z</time></trkpt><trkpt lat="42.740015" lon="-8.8585417"><ele>209.0</ele><time>2026-04-17T10:02:58.894Z</time></trkpt><trkpt lat="42.7401317" lon="-8.8585317"><ele>208.6</ele><time>2026-04-17T10:02:59.893Z</time></trkpt><trkpt lat="42.74023" lon="-8.8585267"><ele>208.2</ele><time>2026-04-17T10:03:00.893Z</time></trkpt><trkpt lat="42.7402967" lon="-8.8585067"><ele>207.79999999999998</ele><time>2026-04-17T10:03:01.893Z</time></trkpt><trkpt lat="42.7403267" lon="-8.858425"><ele>207.39999999999998</ele><time>2026-04-17T10:03:03.894Z</time></trkpt><trkpt lat="42.7402233" lon="-8.8583167"><ele>207.0</ele><time>2026-04-17T10:03:05.893Z</time></trkpt><trkpt lat="42.74005" lon="-8.85823"><ele>203.66666666666669</ele><time>2026-04-17T10:03:06.894Z</time></trkpt><trkpt lat="42.7398983" lon="-8.858135"><ele>200.33333333333334</ele><time>2026-04-17T10:03:07.893Z</time></trkpt><trkpt lat="42.7397683" lon="-8.8580433"><ele>197.0</ele><time>2026-04-17T10:03:08.894Z</time></trkpt><trkpt lat="42.7396433" lon="-8.8579683"><ele>197.0</ele><time>2026-04-17T10:03:09.893Z</time></trkpt><trkpt lat="42.7395183" lon="-8.8578917"><ele>197.0</ele><time>2026-04-17T10:03:10.894Z</time></trkpt><trkpt lat="42.739395" lon="-8.8578117"><ele>197.0</ele><time>2026-04-17T10:03:11.894Z</time></trkpt><trkpt lat="42.7392733" lon="-8.8577333"><ele>197.0</ele><time>2026-04-17T10:03:12.894Z</time></trkpt><trkpt lat="42.7391567" lon="-8.857675"><ele>198.75</ele><time>2026-04-17T10:03:13.894Z</time></trkpt><trkpt lat="42.7390433" lon="-8.857635"><ele>200.5</ele><time>2026-04-17T10:03:14.894Z</time></trkpt><trkpt lat="42.7389217" lon="-8.8576"><ele>202.25</ele><time>2026-04-17T10:03:15.893Z</time></trkpt><trkpt lat="42.73881" lon="-8.8575567"><ele>204.0</ele><time>2026-04-17T10:03:16.893Z</time></trkpt><trkpt lat="42.7386933" lon="-8.8574917"><ele>202.75</ele><time>2026-04-17T10:03:17.894Z</time></trkpt><trkpt lat="42.7385867" lon="-8.8574183"><ele>201.5</ele><time>2026-04-17T10:03:18.894Z</time></trkpt><trkpt lat="42.7384817" lon="-8.8573383"><ele>200.25</ele><time>2026-04-17T10:03:19.894Z</time></trkpt><trkpt lat="42.7383767" lon="-8.8572617"><ele>199.0</ele><time>2026-04-17T10:03:20.894Z</time></trkpt><trkpt lat="42.738265" lon="-8.85719"><ele>199.0</ele><time>2026-04-17T10:03:21.894Z</time></trkpt><trkpt lat="42.7381517" lon="-8.8571167"><ele>199.0</ele><time>2026-04-17T10:03:22.893Z</time></trkpt><trkpt lat="42.7380417" lon="-8.8570417"><ele>199.0</ele><time>2026-04-17T10:03:23.893Z</time></trkpt><trkpt lat="42.7379283" lon="-8.8569583"><ele>199.0</ele><time>2026-04-17T10:03:24.893Z</time></trkpt><trkpt lat="42.7378283" lon="-8.8568717"><ele>199.0</ele><time>2026-04-17T10:03:25.893Z</time></trkpt><trkpt lat="42.7377333" lon="-8.8567883"><ele>199.0</ele><time>2026-04-17T10:03:26.894Z</time></trkpt><trkpt lat="42.737655" lon="-8.856695"><ele>199.0</ele><time>2026-04-17T10:03:27.894Z</time></trkpt><trkpt lat="42.7376117" lon="-8.8565683"><ele>199.0</ele><time>2026-04-17T10:03:28.893Z</time></trkpt><trkpt lat="42.737575" lon="-8.8564217"><ele>199.0</ele><time>2026-04-17T10:03:29.893Z</time></trkpt><trkpt lat="42.73755" lon="-8.8562633"><ele>197.25</ele><time>2026-04-17T10:03:30.894Z</time></trkpt><trkpt lat="42.7375483" lon="-8.8561067"><ele>195.5</ele><time>2026-04-17T10:03:31.894Z</time></trkpt><trkpt lat="42.7375533" lon="-8.8559517"><ele>193.75</ele><time>2026-04-17T10:03:32.894Z</time></trkpt><trkpt lat="42.7375617" lon="-8.8557933"><ele>192.0</ele><time>2026-04-17T10:03:33.894Z</time></trkpt><trkpt lat="42.73757" lon="-8.855635"><ele>191.0</ele><time>2026-04-17T10:03:34.894Z</time></trkpt><trkpt lat="42.73758" lon="-8.85547"><ele>190.0</ele><time>2026-04-17T10:03:35.893Z</time></trkpt><trkpt lat="42.737595" lon="-8.8552983"><ele>189.0</ele><time>2026-04-17T10:03:36.894Z</time></trkpt><trkpt lat="42.7376133" lon="-8.8551317"><ele>188.0</ele><time>2026-04-17T10:03:37.893Z</time></trkpt><trkpt lat="42.7376267" lon="-8.85496"><ele>187.25</ele><time>2026-04-17T10:03:38.894Z</time></trkpt><trkpt lat="42.7376467" lon="-8.8547917"><ele>186.5</ele><time>2026-04-17T10:03:39.893Z</time></trkpt><trkpt lat="42.73768" lon="-8.8546417"><ele>185.75</ele><time>2026-04-17T10:03:40.893Z</time></trkpt><trkpt lat="42.737735" lon="-8.8545033"><ele>185.0</ele><time>2026-04-17T10:03:41.894Z</time></trkpt><trkpt lat="42.737795" lon="-8.8543633"><ele>184.0</ele><time>2026-04-17T10:03:42.894Z</time></trkpt><trkpt lat="42.73786" lon="-8.8542283"><ele>183.0</ele><time>2026-04-17T10:03:43.894Z</time></trkpt><trkpt lat="42.7379233" lon="-8.854085"><ele>182.0</ele><time>2026-04-17T10:03:44.893Z</time></trkpt><trkpt lat="42.7379783" lon="-8.8539417"><ele>181.0</ele><time>2026-04-17T10:03:45.894Z</time></trkpt><trkpt lat="42.7380283" lon="-8.8537933"><ele>181.0</ele><time>2026-04-17T10:03:46.894Z</time></trkpt><trkpt lat="42.7380717" lon="-8.8536367"><ele>181.0</ele><time>2026-04-17T10:03:47.893Z</time></trkpt><trkpt lat="42.7381" lon="-8.85348"><ele>181.0</ele><time>2026-04-17T10:03:48.894Z</time></trkpt><trkpt lat="42.7381117" lon="-8.8533233"><ele>181.0</ele><time>2026-04-17T10:03:49.894Z</time></trkpt><trkpt lat="42.73811" lon="-8.85317"><ele>179.20000000000002</ele><time>2026-04-17T10:03:50.894Z</time></trkpt><trkpt lat="42.738095" lon="-8.8530183"><ele>177.4</ele><time>2026-04-17T10:03:51.893Z</time></trkpt><trkpt lat="42.7380717" lon="-8.8528767"><ele>175.6</ele><time>2026-04-17T10:03:52.893Z</time></trkpt><trkpt lat="42.738075" lon="-8.8527583"><ele>173.8</ele><time>2026-04-17T10:03:53.893Z</time></trkpt><trkpt lat="42.7381033" lon="-8.8526433"><ele>172.0</ele><time>2026-04-17T10:03:54.894Z</time></trkpt><trkpt lat="42.7381483" lon="-8.85254"><ele>171.8</ele><time>2026-04-17T10:03:55.893Z</time></trkpt><trkpt lat="42.7382183" lon="-8.85246"><ele>171.6</ele><time>2026-04-17T10:03:56.893Z</time></trkpt><trkpt lat="42.7383083" lon="-8.8524067"><ele>171.4</ele><time>2026-04-17T10:03:57.894Z</time></trkpt><trkpt lat="42.7383967" lon="-8.8523467"><ele>171.20000000000002</ele><time>2026-04-17T10:03:58.894Z</time></trkpt><trkpt lat="42.738475" lon="-8.85229"><ele>171.0</ele><time>2026-04-17T10:03:59.894Z</time></trkpt><trkpt lat="42.73856" lon="-8.85222"><ele>170.60000000000002</ele><time>2026-04-17T10:04:00.894Z</time></trkpt><trkpt lat="42.7386533" lon="-8.85216"><ele>170.2</ele><time>2026-04-17T10:04:01.894Z</time></trkpt><trkpt lat="42.7387533" lon="-8.85209"><ele>169.8</ele><time>2026-04-17T10:04:02.893Z</time></trkpt><trkpt lat="42.7388517" lon="-8.8520233"><ele>169.39999999999998</ele><time>2026-04-17T10:04:03.893Z</time></trkpt><trkpt lat="42.73895" lon="-8.851955"><ele>169.0</ele><time>2026-04-17T10:04:04.894Z</time></trkpt><trkpt lat="42.7390533" lon="-8.8518783"><ele>167.75</ele><time>2026-04-17T10:04:05.893Z</time></trkpt><trkpt lat="42.73915" lon="-8.8517867"><ele>166.5</ele><time>2026-04-17T10:04:06.894Z</time></trkpt><trkpt lat="42.739245" lon="-8.8516883"><ele>165.25</ele><time>2026-04-17T10:04:07.893Z</time></trkpt><trkpt lat="42.7393417" lon="-8.851585"><ele>164.0</ele><time>2026-04-17T10:04:08.893Z</time></trkpt><trkpt lat="42.7394367" lon="-8.85147"><ele>164.0</ele><time>2026-04-17T10:04:09.894Z</time></trkpt><trkpt lat="42.7395333" lon="-8.851345"><ele>164.0</ele><time>2026-04-17T10:04:10.894Z</time></trkpt><trkpt lat="42.7396317" lon="-8.8512167"><ele>164.0</ele><time>2026-04-17T10:04:11.893Z</time></trkpt><trkpt lat="42.7397317" lon="-8.85109"><ele>164.0</ele><time>2026-04-17T10:04:12.894Z</time></trkpt><trkpt lat="42.739825" lon="-8.8509633"><ele>168.0</ele><time>2026-04-17T10:04:13.894Z</time></trkpt><trkpt lat="42.73991" lon="-8.850845"><ele>172.0</ele><time>2026-04-17T10:04:14.893Z</time></trkpt><trkpt lat="42.7399833" lon="-8.8507317"><ele>176.0</ele><time>2026-04-17T10:04:15.894Z</time></trkpt><trkpt lat="42.7400533" lon="-8.85062"><ele>180.0</ele><time>2026-04-17T10:04:16.893Z</time></trkpt><trkpt lat="42.7401233" lon="-8.85052"><ele>184.0</ele><time>2026-04-17T10:04:17.893Z</time></trkpt><trkpt lat="42.7402017" lon="-8.850435"><ele>186.0</ele><time>2026-04-17T10:04:18.894Z</time></trkpt><trkpt lat="42.74029" lon="-8.8503667"><ele>188.0</ele><time>2026-04-17T10:04:19.893Z</time></trkpt><trkpt lat="42.7403833" lon="-8.8503"><ele>190.0</ele><time>2026-04-17T10:04:20.894Z</time></trkpt><trkpt lat="42.7404817" lon="-8.8502333"><ele>192.0</ele><time>2026-04-17T10:04:21.894Z</time></trkpt><trkpt lat="42.740585" lon="-8.850175"><ele>194.0</ele><time>2026-04-17T10:04:22.893Z</time></trkpt><trkpt lat="42.740685" lon="-8.850115"><ele>194.0</ele><time>2026-04-17T10:04:23.894Z</time></trkpt><trkpt lat="42.740785" lon="-8.85005"><ele>194.0</ele><time>2026-04-17T10:04:24.894Z</time></trkpt><trkpt lat="42.7408867" lon="-8.84998"><ele>194.0</ele><time>2026-04-17T10:04:25.893Z</time></trkpt><trkpt lat="42.7410017" lon="-8.8499083"><ele>194.0</ele><time>2026-04-17T10:04:26.894Z</time></trkpt><trkpt lat="42.7411133" lon="-8.8498333"><ele>191.0</ele><time>2026-04-17T10:04:27.893Z</time></trkpt><trkpt lat="42.7412133" lon="-8.8497317"><ele>188.0</ele><time>2026-04-17T10:04:28.894Z</time></trkpt><trkpt lat="42.7413" lon="-8.849615"><ele>185.0</ele><time>2026-04-17T10:04:29.894Z</time></trkpt><trkpt lat="42.7413467" lon="-8.8495217"><ele>182.0</ele><time>2026-04-17T10:04:30.894Z</time></trkpt><trkpt lat="42.741275" lon="-8.8494817"><ele>179.0</ele><time>2026-04-17T10:04:34.895Z</time></trkpt><trkpt lat="42.74122" lon="-8.8495283"><ele>179.0</ele><time>2026-04-17T10:04:35.895Z</time></trkpt><trkpt lat="42.7411367" lon="-8.8495783"><ele>179.0</ele><time>2026-04-17T10:04:36.895Z</time></trkpt><trkpt lat="42.7410483" lon="-8.8496117"><ele>179.0</ele><time>2026-04-17T10:04:37.894Z</time></trkpt><trkpt lat="42.740955" lon="-8.8496283"><ele>179.0</ele><time>2026-04-17T10:04:38.895Z</time></trkpt><trkpt lat="42.7408667" lon="-8.8496217"><ele>179.0</ele><time>2026-04-17T10:04:39.894Z</time></trkpt><trkpt lat="42.7407733" lon="-8.8496217"><ele>182.75</ele><time>2026-04-17T10:04:40.895Z</time></trkpt><trkpt lat="42.7406767" lon="-8.8496217"><ele>186.5</ele><time>2026-04-17T10:04:41.894Z</time></trkpt><trkpt lat="42.7405683" lon="-8.849635"><ele>190.25</ele><time>2026-04-17T10:04:42.894Z</time></trkpt><trkpt lat="42.7404483" lon="-8.8496633"><ele>194.0</ele><time>2026-04-17T10:04:43.894Z</time></trkpt><trkpt lat="42.7403083" lon="-8.8497083"><ele>199.66666666666669</ele><time>2026-04-17T10:04:44.895Z</time></trkpt><trkpt lat="42.7401467" lon="-8.8497583"><ele>205.33333333333331</ele><time>2026-04-17T10:04:45.894Z</time></trkpt><trkpt lat="42.739975" lon="-8.8498033"><ele>211.0</ele><time>2026-04-17T10:04:46.895Z</time></trkpt><trkpt lat="42.7397883" lon="-8.849855"><ele>211.0</ele><time>2026-04-17T10:04:47.894Z</time></trkpt><trkpt lat="42.7396117" lon="-8.8499183"><ele>211.0</ele><time>2026-04-17T10:04:48.895Z</time></trkpt><trkpt lat="42.73943" lon="-8.8499767"><ele>211.0</ele><time>2026-04-17T10:04:49.894Z</time></trkpt><trkpt lat="42.7392517" lon="-8.8500217"><ele>210.66666666666666</ele><time>2026-04-17T10:04:50.895Z</time></trkpt><trkpt lat="42.7390583" lon="-8.8500733"><ele>210.33333333333331</ele><time>2026-04-17T10:04:51.894Z</time></trkpt><trkpt lat="42.7388783" lon="-8.8501117"><ele>210.0</ele><time>2026-04-17T10:04:52.894Z</time></trkpt><trkpt lat="42.7387" lon="-8.850145"><ele>210.33333333333331</ele><time>2026-04-17T10:04:53.895Z</time></trkpt><trkpt lat="42.7385167" lon="-8.8501783"><ele>210.66666666666666</ele><time>2026-04-17T10:04:54.894Z</time></trkpt><trkpt lat="42.7383367" lon="-8.850195"><ele>211.0</ele><time>2026-04-17T10:04:55.894Z</time></trkpt><trkpt lat="42.7381533" lon="-8.8502267"><ele>211.0</ele><time>2026-04-17T10:04:56.895Z</time></trkpt><trkpt lat="42.7379817" lon="-8.8502567"><ele>211.0</ele><time>2026-04-17T10:04:57.894Z</time></trkpt><trkpt lat="42.73783" lon="-8.8502317"><ele>211.0</ele><time>2026-04-17T10:04:58.894Z</time></trkpt><trkpt lat="42.7376733" lon="-8.850205"><ele>210.66666666666666</ele><time>2026-04-17T10:04:59.894Z</time></trkpt><trkpt lat="42.7375117" lon="-8.8501617"><ele>210.33333333333331</ele><time>2026-04-17T10:05:00.895Z</time></trkpt><trkpt lat="42.7373533" lon="-8.8500933"><ele>210.0</ele><time>2026-04-17T10:05:01.894Z</time></trkpt><trkpt lat="42.7372033" lon="-8.8500067"><ele>218.0</ele><time>2026-04-17T10:05:02.894Z</time></trkpt><trkpt lat="42.73706" lon="-8.8498983"><ele>226.0</ele><time>2026-04-17T10:05:03.895Z</time></trkpt><trkpt lat="42.7369317" lon="-8.8497783"><ele>234.0</ele><time>2026-04-17T10:05:04.895Z</time></trkpt><trkpt lat="42.7367967" lon="-8.8496683"><ele>234.5</ele><time>2026-04-17T10:05:05.894Z</time></trkpt><trkpt lat="42.73666" lon="-8.84957"><ele>235.0</ele><time>2026-04-17T10:05:06.894Z</time></trkpt><trkpt lat="42.7365217" lon="-8.8495033"><ele>235.5</ele><time>2026-04-17T10:05:07.895Z</time></trkpt><trkpt lat="42.7363767" lon="-8.8494783"><ele>236.0</ele><time>2026-04-17T10:05:08.895Z</time></trkpt><trkpt lat="42.7362117" lon="-8.8494533"><ele>235.33333333333334</ele><time>2026-04-17T10:05:09.894Z</time></trkpt><trkpt lat="42.7360417" lon="-8.8494417"><ele>234.66666666666669</ele><time>2026-04-17T10:05:10.895Z</time></trkpt><trkpt lat="42.7358717" lon="-8.8494433"><ele>234.0</ele><time>2026-04-17T10:05:11.894Z</time></trkpt><trkpt lat="42.7357067" lon="-8.8494433"><ele>234.0</ele><time>2026-04-17T10:05:12.894Z</time></trkpt><trkpt lat="42.7355383" lon="-8.8494417"><ele>234.0</ele><time>2026-04-17T10:05:13.895Z</time></trkpt><trkpt lat="42.7353717" lon="-8.8494517"><ele>234.0</ele><time>2026-04-17T10:05:14.895Z</time></trkpt><trkpt lat="42.7352183" lon="-8.84943"><ele>233.0</ele><time>2026-04-17T10:05:15.894Z</time></trkpt><trkpt lat="42.7350783" lon="-8.849385"><ele>232.0</ele><time>2026-04-17T10:05:16.894Z</time></trkpt><trkpt lat="42.7349533" lon="-8.8493133"><ele>231.0</ele><time>2026-04-17T10:05:17.894Z</time></trkpt><trkpt lat="42.7348367" lon="-8.84922"><ele>230.0</ele><time>2026-04-17T10:05:18.895Z</time></trkpt><trkpt lat="42.7347267" lon="-8.849105"><ele>232.0</ele><time>2026-04-17T10:05:19.895Z</time></trkpt><trkpt lat="42.7346433" lon="-8.84897"><ele>234.0</ele><time>2026-04-17T10:05:20.894Z</time></trkpt><trkpt lat="42.7345533" lon="-8.848815"><ele>236.0</ele><time>2026-04-17T10:05:21.894Z</time></trkpt><trkpt lat="42.73447" lon="-8.8486467"><ele>238.0</ele><time>2026-04-17T10:05:22.895Z</time></trkpt><trkpt lat="42.734375" lon="-8.8484883"><ele>240.25</ele><time>2026-04-17T10:05:23.894Z</time></trkpt><trkpt lat="42.7342717" lon="-8.8483383"><ele>242.5</ele><time>2026-04-17T10:05:24.894Z</time></trkpt><trkpt lat="42.73418" lon="-8.848185"><ele>244.75</ele><time>2026-04-17T10:05:25.895Z</time></trkpt><trkpt lat="42.734075" lon="-8.8480417"><ele>247.0</ele><time>2026-04-17T10:05:26.894Z</time></trkpt><trkpt lat="42.7339467" lon="-8.847955"><ele>247.0</ele><time>2026-04-17T10:05:27.894Z</time></trkpt><trkpt lat="42.73381" lon="-8.847895"><ele>247.0</ele><time>2026-04-17T10:05:28.895Z</time></trkpt><trkpt lat="42.7336617" lon="-8.84785"><ele>247.0</ele><time>2026-04-17T10:05:29.894Z</time></trkpt><trkpt lat="42.7335067" lon="-8.8478083"><ele>246.0</ele><time>2026-04-17T10:05:30.895Z</time></trkpt><trkpt lat="42.7333567" lon="-8.847755"><ele>245.0</ele><time>2026-04-17T10:05:31.894Z</time></trkpt><trkpt lat="42.7332033" lon="-8.8476867"><ele>244.0</ele><time>2026-04-17T10:05:32.894Z</time></trkpt><trkpt lat="42.73306" lon="-8.8476583"><ele>244.0</ele><time>2026-04-17T10:05:33.895Z</time></trkpt><trkpt lat="42.732935" lon="-8.8476417"><ele>244.0</ele><time>2026-04-17T10:05:34.894Z</time></trkpt><trkpt lat="42.7328167" lon="-8.8476383"><ele>244.0</ele><time>2026-04-17T10:05:35.895Z</time></trkpt><trkpt lat="42.732705" lon="-8.8476"><ele>244.0</ele><time>2026-04-17T10:05:36.895Z</time></trkpt><trkpt lat="42.732595" lon="-8.8475067"><ele>245.33333333333331</ele><time>2026-04-17T10:05:37.895Z</time></trkpt><trkpt lat="42.7324667" lon="-8.8474033"><ele>246.66666666666669</ele><time>2026-04-17T10:05:38.894Z</time></trkpt><trkpt lat="42.73233" lon="-8.84731"><ele>248.0</ele><time>2026-04-17T10:05:39.894Z</time></trkpt><trkpt lat="42.73218" lon="-8.8472267"><ele>248.0</ele><time>2026-04-17T10:05:40.895Z</time></trkpt><trkpt lat="42.7320283" lon="-8.8471467"><ele>248.0</ele><time>2026-04-17T10:05:41.894Z</time></trkpt><trkpt lat="42.731865" lon="-8.8470633"><ele>248.0</ele><time>2026-04-17T10:05:42.895Z</time></trkpt><trkpt lat="42.7317117" lon="-8.8469867"><ele>246.75</ele><time>2026-04-17T10:05:43.895Z</time></trkpt><trkpt lat="42.7315833" lon="-8.8469067"><ele>245.5</ele><time>2026-04-17T10:05:44.894Z</time></trkpt><trkpt lat="42.7314583" lon="-8.8468133"><ele>244.25</ele><time>2026-04-17T10:05:45.895Z</time></trkpt><trkpt lat="42.7313317" lon="-8.846695"><ele>243.0</ele><time>2026-04-17T10:05:46.895Z</time></trkpt><trkpt lat="42.7312017" lon="-8.8465617"><ele>246.33333333333331</ele><time>2026-04-17T10:05:47.895Z</time></trkpt><trkpt lat="42.7310717" lon="-8.8464467"><ele>249.66666666666666</ele><time>2026-04-17T10:05:48.895Z</time></trkpt><trkpt lat="42.730925" lon="-8.8463467"><ele>253.0</ele><time>2026-04-17T10:05:49.894Z</time></trkpt><trkpt lat="42.730775" lon="-8.846275"><ele>253.0</ele><time>2026-04-17T10:05:50.894Z</time></trkpt><trkpt lat="42.7306333" lon="-8.84621"><ele>253.0</ele><time>2026-04-17T10:05:51.894Z</time></trkpt><trkpt lat="42.7304833" lon="-8.8461333"><ele>253.0</ele><time>2026-04-17T10:05:52.895Z</time></trkpt><trkpt lat="42.730335" lon="-8.8460367"><ele>254.0</ele><time>2026-04-17T10:05:53.895Z</time></trkpt><trkpt lat="42.7302033" lon="-8.8459083"><ele>255.0</ele><time>2026-04-17T10:05:54.894Z</time></trkpt><trkpt lat="42.7301" lon="-8.8457483"><ele>256.0</ele><time>2026-04-17T10:05:55.895Z</time></trkpt><trkpt lat="42.729985" lon="-8.8455717"><ele>256.0</ele><time>2026-04-17T10:05:56.895Z</time></trkpt><trkpt lat="42.7298917" lon="-8.8453667"><ele>256.0</ele><time>2026-04-17T10:05:57.895Z</time></trkpt><trkpt lat="42.72979" lon="-8.84515"><ele>256.0</ele><time>2026-04-17T10:05:58.894Z</time></trkpt><trkpt lat="42.7296883" lon="-8.8449533"><ele>257.66666666666663</ele><time>2026-04-17T10:05:59.894Z</time></trkpt><trkpt lat="42.7295783" lon="-8.8447483"><ele>259.3333333333333</ele><time>2026-04-17T10:06:00.894Z</time></trkpt><trkpt lat="42.7294717" lon="-8.8445417"><ele>261.0</ele><time>2026-04-17T10:06:01.894Z</time></trkpt><trkpt lat="42.7293617" lon="-8.8443433"><ele>265.6666666666667</ele><time>2026-04-17T10:06:02.895Z</time></trkpt><trkpt lat="42.7292633" lon="-8.8441583"><ele>270.33333333333337</ele><time>2026-04-17T10:06:03.894Z</time></trkpt><trkpt lat="42.7291567" lon="-8.8439867"><ele>275.0</ele><time>2026-04-17T10:06:04.895Z</time></trkpt><trkpt lat="42.7290567" lon="-8.8438067"><ele>275.0</ele><time>2026-04-17T10:06:05.895Z</time></trkpt><trkpt lat="42.728965" lon="-8.8436183"><ele>275.0</ele><time>2026-04-17T10:06:06.894Z</time></trkpt><trkpt lat="42.72888" lon="-8.8434467"><ele>275.0</ele><time>2026-04-17T10:06:07.894Z</time></trkpt><trkpt lat="42.7287967" lon="-8.843265"><ele>275.5</ele><time>2026-04-17T10:06:08.894Z</time></trkpt><trkpt lat="42.7287" lon="-8.8430967"><ele>276.0</ele><time>2026-04-17T10:06:09.894Z</time></trkpt><trkpt lat="42.7285983" lon="-8.8429817"><ele>276.5</ele><time>2026-04-17T10:06:10.894Z</time></trkpt><trkpt lat="42.7285067" lon="-8.8428733"><ele>277.0</ele><time>2026-04-17T10:06:11.894Z</time></trkpt><trkpt lat="42.7284283" lon="-8.842765"><ele>277.0</ele><time>2026-04-17T10:06:12.894Z</time></trkpt><trkpt lat="42.728365" lon="-8.8426533"><ele>277.0</ele><time>2026-04-17T10:06:13.894Z</time></trkpt><trkpt lat="42.7283183" lon="-8.8425183"><ele>277.0</ele><time>2026-04-17T10:06:14.895Z</time></trkpt><trkpt lat="42.7282833" lon="-8.8423483"><ele>277.0</ele><time>2026-04-17T10:06:15.895Z</time></trkpt><trkpt lat="42.728245" lon="-8.84215"><ele>281.25</ele><time>2026-04-17T10:06:16.895Z</time></trkpt><trkpt lat="42.7282" lon="-8.841955"><ele>285.5</ele><time>2026-04-17T10:06:17.894Z</time></trkpt><trkpt lat="42.728125" lon="-8.8418217"><ele>289.75</ele><time>2026-04-17T10:06:18.895Z</time></trkpt><trkpt lat="42.7280283" lon="-8.84166"><ele>294.0</ele><time>2026-04-17T10:06:19.894Z</time></trkpt><trkpt lat="42.72792" lon="-8.8414767"><ele>298.3333333333333</ele><time>2026-04-17T10:06:20.894Z</time></trkpt><trkpt lat="42.7278367" lon="-8.8413133"><ele>302.66666666666663</ele><time>2026-04-17T10:06:21.895Z</time></trkpt><trkpt lat="42.727775" lon="-8.8411217"><ele>307.0</ele><time>2026-04-17T10:06:22.895Z</time></trkpt><trkpt lat="42.7277367" lon="-8.8408883"><ele>303.0</ele><time>2026-04-17T10:06:23.894Z</time></trkpt><trkpt lat="42.7277" lon="-8.84063"><ele>299.0</ele><time>2026-04-17T10:06:24.894Z</time></trkpt><trkpt lat="42.72764" lon="-8.8404017"><ele>295.0</ele><time>2026-04-17T10:06:25.894Z</time></trkpt><trkpt lat="42.72756" lon="-8.8401983"><ele>296.0</ele><time>2026-04-17T10:06:26.894Z</time></trkpt><trkpt lat="42.727455" lon="-8.8400083"><ele>297.0</ele><time>2026-04-17T10:06:27.894Z</time></trkpt><trkpt lat="42.7273483" lon="-8.8398367"><ele>298.0</ele><time>2026-04-17T10:06:28.894Z</time></trkpt><trkpt lat="42.72724" lon="-8.8397"><ele>298.0</ele><time>2026-04-17T10:06:29.894Z</time></trkpt><trkpt lat="42.7271133" lon="-8.83957"><ele>298.0</ele><time>2026-04-17T10:06:30.894Z</time></trkpt><trkpt lat="42.72696" lon="-8.8394233"><ele>298.0</ele><time>2026-04-17T10:06:31.894Z</time></trkpt><trkpt lat="42.726795" lon="-8.8392633"><ele>296.66666666666663</ele><time>2026-04-17T10:06:32.894Z</time></trkpt><trkpt lat="42.7266417" lon="-8.8391117"><ele>295.3333333333333</ele><time>2026-04-17T10:06:33.895Z</time></trkpt><trkpt lat="42.72651" lon="-8.8389717"><ele>294.0</ele><time>2026-04-17T10:06:34.894Z</time></trkpt><trkpt lat="42.7264067" lon="-8.8388083"><ele>294.0</ele><time>2026-04-17T10:06:35.895Z</time></trkpt><trkpt lat="42.7263167" lon="-8.8386183"><ele>294.0</ele><time>2026-04-17T10:06:36.894Z</time></trkpt><trkpt lat="42.726225" lon="-8.838425"><ele>294.0</ele><time>2026-04-17T10:06:37.894Z</time></trkpt><trkpt lat="42.7261317" lon="-8.8382767"><ele>295.4</ele><time>2026-04-17T10:06:38.894Z</time></trkpt><trkpt lat="42.7260517" lon="-8.8381833"><ele>296.79999999999995</ele><time>2026-04-17T10:06:39.894Z</time></trkpt><trkpt lat="42.725935" lon="-8.8381767"><ele>298.20000000000005</ele><time>2026-04-17T10:06:41.895Z</time></trkpt><trkpt lat="42.7258583" lon="-8.838205"><ele>299.6</ele><time>2026-04-17T10:06:42.895Z</time></trkpt><trkpt lat="42.7257717" lon="-8.83825"><ele>301.0</ele><time>2026-04-17T10:06:43.894Z</time></trkpt><trkpt lat="42.725665" lon="-8.838295"><ele>301.0</ele><time>2026-04-17T10:06:44.895Z</time></trkpt><trkpt lat="42.7255217" lon="-8.8383517"><ele>301.0</ele><time>2026-04-17T10:06:45.894Z</time></trkpt><trkpt lat="42.725375" lon="-8.8384"><ele>301.0</ele><time>2026-04-17T10:06:46.894Z</time></trkpt><trkpt lat="42.725245" lon="-8.8384667"><ele>301.0</ele><time>2026-04-17T10:06:47.895Z</time></trkpt><trkpt lat="42.72511" lon="-8.83854"><ele>296.5</ele><time>2026-04-17T10:06:48.894Z</time></trkpt><trkpt lat="42.724965" lon="-8.8385883"><ele>292.0</ele><time>2026-04-17T10:06:49.894Z</time></trkpt><trkpt lat="42.72482" lon="-8.8386133"><ele>287.5</ele><time>2026-04-17T10:06:50.894Z</time></trkpt><trkpt lat="42.7246683" lon="-8.8386183"><ele>283.0</ele><time>2026-04-17T10:06:51.895Z</time></trkpt><trkpt lat="42.724515" lon="-8.83863"><ele>278.66666666666663</ele><time>2026-04-17T10:06:52.894Z</time></trkpt><trkpt lat="42.72437" lon="-8.8386217"><ele>274.3333333333333</ele><time>2026-04-17T10:06:53.894Z</time></trkpt><trkpt lat="42.7242167" lon="-8.8385783"><ele>270.0</ele><time>2026-04-17T10:06:54.894Z</time></trkpt><trkpt lat="42.7240667" lon="-8.8385217"><ele>276.6666666666667</ele><time>2026-04-17T10:06:55.895Z</time></trkpt><trkpt lat="42.7239033" lon="-8.8384467"><ele>283.33333333333337</ele><time>2026-04-17T10:06:56.895Z</time></trkpt><trkpt lat="42.7237383" lon="-8.838355"><ele>290.0</ele><time>2026-04-17T10:06:57.895Z</time></trkpt><trkpt lat="42.7235733" lon="-8.83829"><ele>286.5</ele><time>2026-04-17T10:06:58.895Z</time></trkpt><trkpt lat="42.7234317" lon="-8.8382133"><ele>283.0</ele><time>2026-04-17T10:06:59.894Z</time></trkpt><trkpt lat="42.723305" lon="-8.8381533"><ele>279.5</ele><time>2026-04-17T10:07:00.894Z</time></trkpt><trkpt lat="42.7231833" lon="-8.8380783"><ele>276.0</ele><time>2026-04-17T10:07:01.894Z</time></trkpt><trkpt lat="42.7230717" lon="-8.8379933"><ele>276.0</ele><time>2026-04-17T10:07:02.894Z</time></trkpt><trkpt lat="42.7229733" lon="-8.8379"><ele>276.0</ele><time>2026-04-17T10:07:03.894Z</time></trkpt><trkpt lat="42.7229017" lon="-8.8378233"><ele>276.0</ele><time>2026-04-17T10:07:04.894Z</time></trkpt><trkpt lat="42.7228417" lon="-8.837785"><ele>276.0</ele><time>2026-04-17T10:07:05.895Z</time></trkpt><trkpt lat="42.7227567" lon="-8.8378433"><ele>276.0</ele><time>2026-04-17T10:07:07.894Z</time></trkpt><trkpt lat="42.7227183" lon="-8.8379317"><ele>276.0</ele><time>2026-04-17T10:07:08.895Z</time></trkpt><trkpt lat="42.7226883" lon="-8.83805"><ele>276.0</ele><time>2026-04-17T10:07:09.895Z</time></trkpt><trkpt lat="42.7226933" lon="-8.8381833"><ele>276.0</ele><time>2026-04-17T10:07:10.895Z</time></trkpt><trkpt lat="42.7227183" lon="-8.8383217"><ele>276.0</ele><time>2026-04-17T10:07:11.895Z</time></trkpt><trkpt lat="42.7227733" lon="-8.8384633"><ele>276.0</ele><time>2026-04-17T10:07:12.894Z</time></trkpt><trkpt lat="42.72282" lon="-8.8385783"><ele>276.0</ele><time>2026-04-17T10:07:13.894Z</time></trkpt><trkpt lat="42.7228467" lon="-8.838665"><ele>272.40000000000003</ele><time>2026-04-17T10:07:14.895Z</time></trkpt><trkpt lat="42.7228383" lon="-8.8388133"><ele>268.8</ele><time>2026-04-17T10:07:16.894Z</time></trkpt><trkpt lat="42.7227767" lon="-8.83892"><ele>265.20000000000005</ele><time>2026-04-17T10:07:18.895Z</time></trkpt><trkpt lat="42.7226817" lon="-8.8389217"><ele>261.6</ele><time>2026-04-17T10:07:21.894Z</time></trkpt><trkpt lat="42.72261" lon="-8.8388417"><ele>258.0</ele><time>2026-04-17T10:07:22.894Z</time></trkpt><trkpt lat="42.7224817" lon="-8.838725"><ele>258.3333333333333</ele><time>2026-04-17T10:07:23.895Z</time></trkpt><trkpt lat="42.722285" lon="-8.8385983"><ele>258.66666666666663</ele><time>2026-04-17T10:07:24.895Z</time></trkpt><trkpt lat="42.7221067" lon="-8.8384817"><ele>259.0</ele><time>2026-04-17T10:07:25.894Z</time></trkpt><trkpt lat="42.721935" lon="-8.8383967"><ele>254.0</ele><time>2026-04-17T10:07:26.894Z</time></trkpt><trkpt lat="42.7217967" lon="-8.83838"><ele>249.0</ele><time>2026-04-17T10:07:27.895Z</time></trkpt><trkpt lat="42.7216867" lon="-8.8384167"><ele>244.0</ele><time>2026-04-17T10:07:28.894Z</time></trkpt><trkpt lat="42.7215917" lon="-8.8384883"><ele>239.0</ele><time>2026-04-17T10:07:29.894Z</time></trkpt><trkpt lat="42.7215067" lon="-8.8385367"><ele>238.79999999999998</ele><time>2026-04-17T10:07:30.895Z</time></trkpt><trkpt lat="42.7214183" lon="-8.8385633"><ele>238.59999999999997</ele><time>2026-04-17T10:07:31.894Z</time></trkpt><trkpt lat="42.7213183" lon="-8.8385433"><ele>238.4</ele><time>2026-04-17T10:07:32.894Z</time></trkpt><trkpt lat="42.7212067" lon="-8.8385133"><ele>238.2</ele><time>2026-04-17T10:07:33.895Z</time></trkpt><trkpt lat="42.7210983" lon="-8.8384833"><ele>238.0</ele><time>2026-04-17T10:07:34.895Z</time></trkpt><trkpt lat="42.721" lon="-8.83848"><ele>234.75</ele><time>2026-04-17T10:07:35.895Z</time></trkpt><trkpt lat="42.7208917" lon="-8.8385083"><ele>231.5</ele><time>2026-04-17T10:07:36.894Z</time></trkpt><trkpt lat="42.720775" lon="-8.8385517"><ele>228.25</ele><time>2026-04-17T10:07:37.895Z</time></trkpt><trkpt lat="42.7206483" lon="-8.8386183"><ele>225.0</ele><time>2026-04-17T10:07:38.894Z</time></trkpt><trkpt lat="42.7205333" lon="-8.838685"><ele>225.0</ele><time>2026-04-17T10:07:39.894Z</time></trkpt><trkpt lat="42.7204317" lon="-8.8387417"><ele>225.0</ele><time>2026-04-17T10:07:40.895Z</time></trkpt><trkpt lat="42.7203517" lon="-8.8388167"><ele>225.0</ele><time>2026-04-17T10:07:41.894Z</time></trkpt><trkpt lat="42.720295" lon="-8.8389067"><ele>225.0</ele><time>2026-04-17T10:07:42.894Z</time></trkpt><trkpt lat="42.7202483" lon="-8.8390183"><ele>225.0</ele><time>2026-04-17T10:07:43.894Z</time></trkpt><trkpt lat="42.7202167" lon="-8.8391483"><ele>222.0</ele><time>2026-04-17T10:07:44.894Z</time></trkpt><trkpt lat="42.7201733" lon="-8.8392617"><ele>219.0</ele><time>2026-04-17T10:07:45.895Z</time></trkpt><trkpt lat="42.7201217" lon="-8.8393367"><ele>216.0</ele><time>2026-04-17T10:07:46.895Z</time></trkpt><trkpt lat="42.7200467" lon="-8.839395"><ele>213.0</ele><time>2026-04-17T10:07:47.894Z</time></trkpt><trkpt lat="42.7199483" lon="-8.8394217"><ele>210.0</ele><time>2026-04-17T10:07:48.894Z</time></trkpt><trkpt lat="42.7198367" lon="-8.8394433"><ele>209.0</ele><time>2026-04-17T10:07:49.894Z</time></trkpt><trkpt lat="42.7197033" lon="-8.8394567"><ele>208.0</ele><time>2026-04-17T10:07:50.895Z</time></trkpt><trkpt lat="42.71956" lon="-8.83947"><ele>207.0</ele><time>2026-04-17T10:07:51.895Z</time></trkpt><trkpt lat="42.7194483" lon="-8.8394833"><ele>206.0</ele><time>2026-04-17T10:07:52.894Z</time></trkpt><trkpt lat="42.7193633" lon="-8.8394683"><ele>205.50000000000003</ele><time>2026-04-17T10:07:53.894Z</time></trkpt><trkpt lat="42.7193" lon="-8.839415"><ele>205.0</ele><time>2026-04-17T10:07:54.895Z</time></trkpt><trkpt lat="42.7192683" lon="-8.8393283"><ele>204.5</ele><time>2026-04-17T10:07:55.894Z</time></trkpt><trkpt lat="42.7192583" lon="-8.83922"><ele>204.0</ele><time>2026-04-17T10:07:56.895Z</time></trkpt><trkpt lat="42.71928" lon="-8.8390933"><ele>203.50000000000003</ele><time>2026-04-17T10:07:57.894Z</time></trkpt><trkpt lat="42.7193283" lon="-8.8389833"><ele>203.0</ele><time>2026-04-17T10:07:58.895Z</time></trkpt><trkpt lat="42.7194117" lon="-8.8388833"><ele>204.75</ele><time>2026-04-17T10:07:59.895Z</time></trkpt><trkpt lat="42.7195533" lon="-8.8387783"><ele>206.5</ele><time>2026-04-17T10:08:00.894Z</time></trkpt><trkpt lat="42.71968" lon="-8.8387067"><ele>208.25</ele><time>2026-04-17T10:08:01.894Z</time></trkpt><trkpt lat="42.7197833" lon="-8.8386233"><ele>210.0</ele><time>2026-04-17T10:08:02.894Z</time></trkpt><trkpt lat="42.719845" lon="-8.8385467"><ele>208.33333333333334</ele><time>2026-04-17T10:08:03.894Z</time></trkpt><trkpt lat="42.7199017" lon="-8.83845"><ele>206.66666666666669</ele><time>2026-04-17T10:08:04.895Z</time></trkpt><trkpt lat="42.71993" lon="-8.838345"><ele>205.0</ele><time>2026-04-17T10:08:05.895Z</time></trkpt><trkpt lat="42.7199417" lon="-8.8382483"><ele>203.33333333333334</ele><time>2026-04-17T10:08:06.894Z</time></trkpt><trkpt lat="42.7199433" lon="-8.8381617"><ele>201.66666666666669</ele><time>2026-04-17T10:08:07.895Z</time></trkpt><trkpt lat="42.7198783" lon="-8.8380333"><ele>200.0</ele><time>2026-04-17T10:08:09.895Z</time></trkpt><trkpt lat="42.7197867" lon="-8.8380117"><ele>200.0</ele><time>2026-04-17T10:08:10.894Z</time></trkpt><trkpt lat="42.7196617" lon="-8.83801"><ele>200.0</ele><time>2026-04-17T10:08:11.895Z</time></trkpt><trkpt lat="42.71951" lon="-8.8380267"><ele>200.0</ele><time>2026-04-17T10:08:12.894Z</time></trkpt><trkpt lat="42.7193767" lon="-8.8380217"><ele>200.0</ele><time>2026-04-17T10:08:13.894Z</time></trkpt><trkpt lat="42.719275" lon="-8.838005"><ele>197.50000000000003</ele><time>2026-04-17T10:08:14.894Z</time></trkpt><trkpt lat="42.7192033" lon="-8.83797"><ele>195.0</ele><time>2026-04-17T10:08:15.894Z</time></trkpt><trkpt lat="42.7191483" lon="-8.8379217"><ele>192.5</ele><time>2026-04-17T10:08:16.895Z</time></trkpt><trkpt lat="42.7191183" lon="-8.83784"><ele>190.0</ele><time>2026-04-17T10:08:17.894Z</time></trkpt><trkpt lat="42.7191183" lon="-8.8377"><ele>187.5</ele><time>2026-04-17T10:08:18.894Z</time></trkpt><trkpt lat="42.7191267" lon="-8.8375217"><ele>185.0</ele><time>2026-04-17T10:08:19.895Z</time></trkpt><trkpt lat="42.71914" lon="-8.837335"><ele>182.0</ele><time>2026-04-17T10:08:20.894Z</time></trkpt><trkpt lat="42.719155" lon="-8.8371633"><ele>179.0</ele><time>2026-04-17T10:08:21.894Z</time></trkpt><trkpt lat="42.7191717" lon="-8.836995"><ele>176.0</ele><time>2026-04-17T10:08:22.894Z</time></trkpt><trkpt lat="42.7191983" lon="-8.8368517"><ele>173.0</ele><time>2026-04-17T10:08:23.895Z</time></trkpt><trkpt lat="42.7192417" lon="-8.8367317"><ele>171.8</ele><time>2026-04-17T10:08:24.894Z</time></trkpt><trkpt lat="42.7193033" lon="-8.8366217"><ele>170.60000000000002</ele><time>2026-04-17T10:08:25.894Z</time></trkpt><trkpt lat="42.7193733" lon="-8.8365117"><ele>169.39999999999998</ele><time>2026-04-17T10:08:26.894Z</time></trkpt><trkpt lat="42.71945" lon="-8.8364133"><ele>168.2</ele><time>2026-04-17T10:08:27.895Z</time></trkpt><trkpt lat="42.7195417" lon="-8.8363183"><ele>167.0</ele><time>2026-04-17T10:08:28.895Z</time></trkpt><trkpt lat="42.7196417" lon="-8.83625"><ele>167.0</ele><time>2026-04-17T10:08:29.895Z</time></trkpt><trkpt lat="42.7197383" lon="-8.8361733"><ele>167.0</ele><time>2026-04-17T10:08:30.895Z</time></trkpt><trkpt lat="42.7198367" lon="-8.83607"><ele>167.0</ele><time>2026-04-17T10:08:31.894Z</time></trkpt><trkpt lat="42.7199333" lon="-8.8359617"><ele>167.0</ele><time>2026-04-17T10:08:32.895Z</time></trkpt><trkpt lat="42.7200417" lon="-8.8358633"><ele>165.5</ele><time>2026-04-17T10:08:33.895Z</time></trkpt><trkpt lat="42.72016" lon="-8.8357683"><ele>164.0</ele><time>2026-04-17T10:08:34.894Z</time></trkpt><trkpt lat="42.72029" lon="-8.83567"><ele>162.5</ele><time>2026-04-17T10:08:35.895Z</time></trkpt><trkpt lat="42.7204217" lon="-8.8355683"><ele>161.0</ele><time>2026-04-17T10:08:36.894Z</time></trkpt><trkpt lat="42.7205317" lon="-8.8354683"><ele>161.0</ele><time>2026-04-17T10:08:37.894Z</time></trkpt><trkpt lat="42.72063" lon="-8.8353733"><ele>161.0</ele><time>2026-04-17T10:08:38.895Z</time></trkpt><trkpt lat="42.720725" lon="-8.8352817"><ele>161.0</ele><time>2026-04-17T10:08:39.895Z</time></trkpt><trkpt lat="42.7208083" lon="-8.83521"><ele>161.0</ele><time>2026-04-17T10:08:40.895Z</time></trkpt><trkpt lat="42.720865" lon="-8.83515"><ele>161.0</ele><time>2026-04-17T10:08:41.894Z</time></trkpt><trkpt lat="42.7209183" lon="-8.835075"><ele>157.60000000000002</ele><time>2026-04-17T10:08:42.894Z</time></trkpt><trkpt lat="42.7209617" lon="-8.834975"><ele>154.20000000000002</ele><time>2026-04-17T10:08:43.895Z</time></trkpt><trkpt lat="42.7209767" lon="-8.8348483"><ele>150.8</ele><time>2026-04-17T10:08:44.895Z</time></trkpt><trkpt lat="42.72099" lon="-8.8346917"><ele>147.4</ele><time>2026-04-17T10:08:45.895Z</time></trkpt><trkpt lat="42.7210217" lon="-8.83454"><ele>144.0</ele><time>2026-04-17T10:08:46.895Z</time></trkpt><trkpt lat="42.7210567" lon="-8.8344067"><ele>144.0</ele><time>2026-04-17T10:08:47.895Z</time></trkpt><trkpt lat="42.7211083" lon="-8.8342833"><ele>144.0</ele><time>2026-04-17T10:08:48.895Z</time></trkpt><trkpt lat="42.72118" lon="-8.834165"><ele>144.0</ele><time>2026-04-17T10:08:49.894Z</time></trkpt><trkpt lat="42.7212717" lon="-8.83406"><ele>144.0</ele><time>2026-04-17T10:08:50.895Z</time></trkpt><trkpt lat="42.72136" lon="-8.8339733"><ele>144.0</ele><time>2026-04-17T10:08:51.895Z</time></trkpt><trkpt lat="42.7214367" lon="-8.8339017"><ele>144.0</ele><time>2026-04-17T10:08:52.894Z</time></trkpt><trkpt lat="42.7214883" lon="-8.833835"><ele>144.0</ele><time>2026-04-17T10:08:53.895Z</time></trkpt><trkpt lat="42.7214133" lon="-8.8337967"><ele>144.0</ele><time>2026-04-17T10:08:57.895Z</time></trkpt><trkpt lat="42.72135" lon="-8.83383"><ele>144.0</ele><time>2026-04-17T10:08:58.894Z</time></trkpt><trkpt lat="42.7212333" lon="-8.8338933"><ele>144.0</ele><time>2026-04-17T10:08:59.895Z</time></trkpt><trkpt lat="42.7210983" lon="-8.8339767"><ele>144.0</ele><time>2026-04-17T10:09:00.895Z</time></trkpt><trkpt lat="42.72097" lon="-8.8340567"><ele>144.0</ele><time>2026-04-17T10:09:01.894Z</time></trkpt><trkpt lat="42.720865" lon="-8.83412"><ele>144.0</ele><time>2026-04-17T10:09:02.894Z</time></trkpt><trkpt lat="42.7207767" lon="-8.8341867"><ele>144.0</ele><time>2026-04-17T10:09:03.895Z</time></trkpt><trkpt lat="42.72071" lon="-8.8342667"><ele>144.0</ele><time>2026-04-17T10:09:04.894Z</time></trkpt><trkpt lat="42.72065" lon="-8.8343483"><ele>144.00000000000003</ele><time>2026-04-17T10:09:05.894Z</time></trkpt><trkpt lat="42.720595" lon="-8.8344217"><ele>144.0</ele><time>2026-04-17T10:09:06.894Z</time></trkpt><trkpt lat="42.720545" lon="-8.8344883"><ele>144.0</ele><time>2026-04-17T10:09:07.894Z</time></trkpt><trkpt lat="42.7204917" lon="-8.8345483"><ele>144.0</ele><time>2026-04-17T10:09:08.895Z</time></trkpt><trkpt lat="42.7204333" lon="-8.8346117"><ele>144.0</ele><time>2026-04-17T10:09:09.895Z</time></trkpt><trkpt lat="42.720365" lon="-8.83467"><ele>144.00000000000003</ele><time>2026-04-17T10:09:10.895Z</time></trkpt><trkpt lat="42.7202933" lon="-8.83471"><ele>144.0</ele><time>2026-04-17T10:09:11.895Z</time></trkpt><trkpt lat="42.7202233" lon="-8.8347233"><ele>143.2</ele><time>2026-04-17T10:09:12.894Z</time></trkpt><trkpt lat="42.7201517" lon="-8.8347217"><ele>142.4</ele><time>2026-04-17T10:09:13.894Z</time></trkpt><trkpt lat="42.7200583" lon="-8.8346833"><ele>141.6</ele><time>2026-04-17T10:09:14.894Z</time></trkpt><trkpt lat="42.7199633" lon="-8.834605"><ele>140.8</ele><time>2026-04-17T10:09:15.894Z</time></trkpt><trkpt lat="42.71985" lon="-8.8345383"><ele>140.0</ele><time>2026-04-17T10:09:16.894Z</time></trkpt><trkpt lat="42.7197283" lon="-8.8345183"><ele>140.0</ele><time>2026-04-17T10:09:17.894Z</time></trkpt><trkpt lat="42.7195767" lon="-8.8345383"><ele>140.0</ele><time>2026-04-17T10:09:18.894Z</time></trkpt><trkpt lat="42.7194483" lon="-8.8345767"><ele>140.0</ele><time>2026-04-17T10:09:19.895Z</time></trkpt><trkpt lat="42.7193433" lon="-8.8346267"><ele>140.0</ele><time>2026-04-17T10:09:20.895Z</time></trkpt><trkpt lat="42.7192533" lon="-8.8346617"><ele>140.2</ele><time>2026-04-17T10:09:21.895Z</time></trkpt><trkpt lat="42.71917" lon="-8.8346633"><ele>140.4</ele><time>2026-04-17T10:09:22.895Z</time></trkpt><trkpt lat="42.71909" lon="-8.8346683"><ele>140.6</ele><time>2026-04-17T10:09:23.894Z</time></trkpt><trkpt lat="42.7190067" lon="-8.8346933"><ele>140.8</ele><time>2026-04-17T10:09:24.894Z</time></trkpt><trkpt lat="42.7189083" lon="-8.834755"><ele>141.0</ele><time>2026-04-17T10:09:25.895Z</time></trkpt><trkpt lat="42.7187967" lon="-8.8348483"><ele>141.0</ele><time>2026-04-17T10:09:26.894Z</time></trkpt><trkpt lat="42.71869" lon="-8.8349683"><ele>141.0</ele><time>2026-04-17T10:09:27.895Z</time></trkpt><trkpt lat="42.7185933" lon="-8.835115"><ele>141.0</ele><time>2026-04-17T10:09:28.894Z</time></trkpt><trkpt lat="42.7184983" lon="-8.8352767"><ele>141.0</ele><time>2026-04-17T10:09:29.894Z</time></trkpt><trkpt lat="42.718385" lon="-8.8354167"><ele>141.0</ele><time>2026-04-17T10:09:30.895Z</time></trkpt><trkpt lat="42.7182683" lon="-8.83556"><ele>141.0</ele><time>2026-04-17T10:09:31.895Z</time></trkpt><trkpt lat="42.718155" lon="-8.8356983"><ele>141.0</ele><time>2026-04-17T10:09:32.894Z</time></trkpt><trkpt lat="42.718035" lon="-8.8358267"><ele>141.0</ele><time>2026-04-17T10:09:33.894Z</time></trkpt><trkpt lat="42.7179167" lon="-8.835945"><ele>141.0</ele><time>2026-04-17T10:09:34.894Z</time></trkpt><trkpt lat="42.7177783" lon="-8.83605"><ele>141.0</ele><time>2026-04-17T10:09:35.895Z</time></trkpt><trkpt lat="42.7176317" lon="-8.8361433"><ele>143.0</ele><time>2026-04-17T10:09:36.895Z</time></trkpt><trkpt lat="42.7174783" lon="-8.83625"><ele>145.0</ele><time>2026-04-17T10:09:37.894Z</time></trkpt><trkpt lat="42.71732" lon="-8.8363533"><ele>147.0</ele><time>2026-04-17T10:09:38.895Z</time></trkpt><trkpt lat="42.7171517" lon="-8.8364717"><ele>147.0</ele><time>2026-04-17T10:09:39.895Z</time></trkpt><trkpt lat="42.7169783" lon="-8.8365833"><ele>147.0</ele><time>2026-04-17T10:09:40.894Z</time></trkpt><trkpt lat="42.7168167" lon="-8.8366833"><ele>147.0</ele><time>2026-04-17T10:09:41.894Z</time></trkpt><trkpt lat="42.7166733" lon="-8.836765"><ele>146.0</ele><time>2026-04-17T10:09:42.895Z</time></trkpt><trkpt lat="42.71655" lon="-8.836835"><ele>145.0</ele><time>2026-04-17T10:09:43.894Z</time></trkpt><trkpt lat="42.7164483" lon="-8.836935"><ele>144.0</ele><time>2026-04-17T10:09:44.894Z</time></trkpt><trkpt lat="42.7163683" lon="-8.8370517"><ele>143.0</ele><time>2026-04-17T10:09:45.895Z</time></trkpt><trkpt lat="42.7163033" lon="-8.837185"><ele>143.0</ele><time>2026-04-17T10:09:46.895Z</time></trkpt><trkpt lat="42.71625" lon="-8.8373167"><ele>143.0</ele><time>2026-04-17T10:09:47.894Z</time></trkpt><trkpt lat="42.716195" lon="-8.837405"><ele>143.0</ele><time>2026-04-17T10:09:48.895Z</time></trkpt><trkpt lat="42.71614" lon="-8.8374633"><ele>143.0</ele><time>2026-04-17T10:09:49.894Z</time></trkpt><trkpt lat="42.71607" lon="-8.837515"><ele>143.0</ele><time>2026-04-17T10:09:50.894Z</time></trkpt><trkpt lat="42.7159683" lon="-8.837565"><ele>144.0</ele><time>2026-04-17T10:09:51.894Z</time></trkpt><trkpt lat="42.7158433" lon="-8.8376333"><ele>145.0</ele><time>2026-04-17T10:09:52.894Z</time></trkpt><trkpt lat="42.7156967" lon="-8.8377283"><ele>146.0</ele><time>2026-04-17T10:09:53.894Z</time></trkpt><trkpt lat="42.715545" lon="-8.837835"><ele>146.0</ele><time>2026-04-17T10:09:54.894Z</time></trkpt><trkpt lat="42.7153717" lon="-8.8379533"><ele>146.0</ele><time>2026-04-17T10:09:55.894Z</time></trkpt><trkpt lat="42.7151883" lon="-8.83808"><ele>146.0</ele><time>2026-04-17T10:09:56.895Z</time></trkpt><trkpt lat="42.71501" lon="-8.8382083"><ele>144.0</ele><time>2026-04-17T10:09:57.894Z</time></trkpt><trkpt lat="42.7148467" lon="-8.8383383"><ele>142.0</ele><time>2026-04-17T10:09:58.895Z</time></trkpt><trkpt lat="42.7147217" lon="-8.8384667"><ele>140.0</ele><time>2026-04-17T10:09:59.895Z</time></trkpt><trkpt lat="42.71464" lon="-8.8385833"><ele>140.0</ele><time>2026-04-17T10:10:00.895Z</time></trkpt><trkpt lat="42.7145633" lon="-8.838715"><ele>140.0</ele><time>2026-04-17T10:10:01.894Z</time></trkpt><trkpt lat="42.7144933" lon="-8.8388483"><ele>140.0</ele><time>2026-04-17T10:10:02.894Z</time></trkpt><trkpt lat="42.7144383" lon="-8.8389767"><ele>140.0</ele><time>2026-04-17T10:10:03.895Z</time></trkpt><trkpt lat="42.7143983" lon="-8.8391017"><ele>136.0</ele><time>2026-04-17T10:10:04.894Z</time></trkpt><trkpt lat="42.7143617" lon="-8.8392083"><ele>132.0</ele><time>2026-04-17T10:10:05.894Z</time></trkpt><trkpt lat="42.71432" lon="-8.8392933"><ele>128.0</ele><time>2026-04-17T10:10:06.894Z</time></trkpt><trkpt lat="42.71425" lon="-8.8393417"><ele>124.0</ele><time>2026-04-17T10:10:08.896Z</time></trkpt><trkpt lat="42.7141533" lon="-8.839265"><ele>120.0</ele><time>2026-04-17T10:10:10.896Z</time></trkpt><trkpt lat="42.7140533" lon="-8.8392"><ele>120.0</ele><time>2026-04-17T10:10:12.895Z</time></trkpt><trkpt lat="42.7139617" lon="-8.839235"><ele>120.0</ele><time>2026-04-17T10:10:14.896Z</time></trkpt><trkpt lat="42.7139367" lon="-8.8394333"><ele>120.0</ele><time>2026-04-17T10:10:16.895Z</time></trkpt><trkpt lat="42.7139233" lon="-8.8395967"><ele>120.0</ele><time>2026-04-17T10:10:17.895Z</time></trkpt><trkpt lat="42.7139367" lon="-8.8398317"><ele>117.75</ele><time>2026-04-17T10:10:18.896Z</time></trkpt><trkpt lat="42.7139417" lon="-8.840025"><ele>115.5</ele><time>2026-04-17T10:10:19.895Z</time></trkpt><trkpt lat="42.7139417" lon="-8.8402017"><ele>113.25</ele><time>2026-04-17T10:10:20.895Z</time></trkpt><trkpt lat="42.7139317" lon="-8.8403717"><ele>111.0</ele><time>2026-04-17T10:10:21.895Z</time></trkpt><trkpt lat="42.713895" lon="-8.8405133"><ele>110.25</ele><time>2026-04-17T10:10:22.896Z</time></trkpt><trkpt lat="42.7138233" lon="-8.8406483"><ele>109.5</ele><time>2026-04-17T10:10:23.895Z</time></trkpt><trkpt lat="42.713735" lon="-8.8407617"><ele>108.75</ele><time>2026-04-17T10:10:24.896Z</time></trkpt><trkpt lat="42.713645" lon="-8.8408667"><ele>108.0</ele><time>2026-04-17T10:10:25.896Z</time></trkpt><trkpt lat="42.713535" lon="-8.8409517"><ele>104.25</ele><time>2026-04-17T10:10:26.895Z</time></trkpt><trkpt lat="42.7134167" lon="-8.8410233"><ele>100.5</ele><time>2026-04-17T10:10:27.896Z</time></trkpt><trkpt lat="42.713295" lon="-8.841115"><ele>96.75</ele><time>2026-04-17T10:10:28.896Z</time></trkpt><trkpt lat="42.7131717" lon="-8.84124"><ele>93.0</ele><time>2026-04-17T10:10:29.895Z</time></trkpt><trkpt lat="42.713035" lon="-8.8413917"><ele>93.0</ele><time>2026-04-17T10:10:30.895Z</time></trkpt><trkpt lat="42.7128883" lon="-8.8415283"><ele>93.0</ele><time>2026-04-17T10:10:31.895Z</time></trkpt><trkpt lat="42.712705" lon="-8.841655"><ele>93.0</ele><time>2026-04-17T10:10:32.896Z</time></trkpt><trkpt lat="42.7125083" lon="-8.84176"><ele>94.66666666666666</ele><time>2026-04-17T10:10:33.895Z</time></trkpt><trkpt lat="42.7123067" lon="-8.8418517"><ele>96.33333333333333</ele><time>2026-04-17T10:10:34.896Z</time></trkpt><trkpt lat="42.7121217" lon="-8.8419383"><ele>98.0</ele><time>2026-04-17T10:10:35.895Z</time></trkpt><trkpt lat="42.71194" lon="-8.8420267"><ele>96.66666666666666</ele><time>2026-04-17T10:10:36.895Z</time></trkpt><trkpt lat="42.71176" lon="-8.8421017"><ele>95.33333333333333</ele><time>2026-04-17T10:10:37.896Z</time></trkpt><trkpt lat="42.71158" lon="-8.8421733"><ele>94.0</ele><time>2026-04-17T10:10:38.896Z</time></trkpt><trkpt lat="42.7114" lon="-8.8422417"><ele>94.0</ele><time>2026-04-17T10:10:39.895Z</time></trkpt><trkpt lat="42.7112367" lon="-8.842305"><ele>94.0</ele><time>2026-04-17T10:10:40.896Z</time></trkpt><trkpt lat="42.7111033" lon="-8.842365"><ele>94.0</ele><time>2026-04-17T10:10:41.895Z</time></trkpt><trkpt lat="42.7109883" lon="-8.8424267"><ele>94.0</ele><time>2026-04-17T10:10:42.895Z</time></trkpt><trkpt lat="42.7109067" lon="-8.8424817"><ele>92.80000000000001</ele><time>2026-04-17T10:10:43.896Z</time></trkpt><trkpt lat="42.7108267" lon="-8.8425367"><ele>91.60000000000001</ele><time>2026-04-17T10:10:44.896Z</time></trkpt><trkpt lat="42.71074" lon="-8.8426117"><ele>90.4</ele><time>2026-04-17T10:10:45.896Z</time></trkpt><trkpt lat="42.7106633" lon="-8.8427183"><ele>89.2</ele><time>2026-04-17T10:10:46.895Z</time></trkpt><trkpt lat="42.7105767" lon="-8.8428283"><ele>88.0</ele><time>2026-04-17T10:10:47.895Z</time></trkpt><trkpt lat="42.7104817" lon="-8.8429483"><ele>87.60000000000001</ele><time>2026-04-17T10:10:48.896Z</time></trkpt><trkpt lat="42.7103933" lon="-8.8430517"><ele>87.2</ele><time>2026-04-17T10:10:49.895Z</time></trkpt><trkpt lat="42.7103117" lon="-8.8431083"><ele>86.8</ele><time>2026-04-17T10:10:50.896Z</time></trkpt><trkpt lat="42.710245" lon="-8.843125"><ele>86.4</ele><time>2026-04-17T10:10:51.895Z</time></trkpt><trkpt lat="42.71017" lon="-8.843105"><ele>86.0</ele><time>2026-04-17T10:10:52.895Z</time></trkpt><trkpt lat="42.7100733" lon="-8.84304"><ele>84.33333333333334</ele><time>2026-04-17T10:10:53.896Z</time></trkpt><trkpt lat="42.7099433" lon="-8.8429267"><ele>82.66666666666667</ele><time>2026-04-17T10:10:54.895Z</time></trkpt><trkpt lat="42.7097967" lon="-8.8427983"><ele>81.0</ele><time>2026-04-17T10:10:55.895Z</time></trkpt><trkpt lat="42.7096333" lon="-8.84266"><ele>81.66666666666667</ele><time>2026-04-17T10:10:56.896Z</time></trkpt><trkpt lat="42.7094883" lon="-8.8425217"><ele>82.33333333333334</ele><time>2026-04-17T10:10:57.896Z</time></trkpt><trkpt lat="42.7093417" lon="-8.8423767"><ele>83.0</ele><time>2026-04-17T10:10:58.895Z</time></trkpt><trkpt lat="42.7092083" lon="-8.8422367"><ele>81.0</ele><time>2026-04-17T10:10:59.895Z</time></trkpt><trkpt lat="42.7090867" lon="-8.8420983"><ele>79.0</ele><time>2026-04-17T10:11:00.895Z</time></trkpt><trkpt lat="42.7089667" lon="-8.8419783"><ele>77.0</ele><time>2026-04-17T10:11:01.895Z</time></trkpt><trkpt lat="42.7088483" lon="-8.8419"><ele>75.0</ele><time>2026-04-17T10:11:02.896Z</time></trkpt><trkpt lat="42.7087233" lon="-8.841865"><ele>75.0</ele><time>2026-04-17T10:11:03.895Z</time></trkpt><trkpt lat="42.7085883" lon="-8.8418783"><ele>75.0</ele><time>2026-04-17T10:11:04.896Z</time></trkpt><trkpt lat="42.7084467" lon="-8.8419333"><ele>75.0</ele><time>2026-04-17T10:11:05.895Z</time></trkpt><trkpt lat="42.7082717" lon="-8.8419883"><ele>74.66666666666667</ele><time>2026-04-17T10:11:06.895Z</time></trkpt><trkpt lat="42.7080917" lon="-8.842005"><ele>74.33333333333334</ele><time>2026-04-17T10:11:07.896Z</time></trkpt><trkpt lat="42.7078983" lon="-8.8419817"><ele>74.0</ele><time>2026-04-17T10:11:08.895Z</time></trkpt><trkpt lat="42.707705" lon="-8.8419433"><ele>72.33333333333334</ele><time>2026-04-17T10:11:09.895Z</time></trkpt><trkpt lat="42.7075217" lon="-8.8418967"><ele>70.66666666666667</ele><time>2026-04-17T10:11:10.896Z</time></trkpt><trkpt lat="42.70735" lon="-8.841875"><ele>69.0</ele><time>2026-04-17T10:11:11.896Z</time></trkpt><trkpt lat="42.7071967" lon="-8.8418817"><ele>69.0</ele><time>2026-04-17T10:11:12.896Z</time></trkpt><trkpt lat="42.7070367" lon="-8.8419467"><ele>69.0</ele><time>2026-04-17T10:11:13.896Z</time></trkpt><trkpt lat="42.7068667" lon="-8.8420467"><ele>69.0</ele><time>2026-04-17T10:11:14.895Z</time></trkpt><trkpt lat="42.7066917" lon="-8.84214"><ele>71.0</ele><time>2026-04-17T10:11:15.895Z</time></trkpt><trkpt lat="42.7065233" lon="-8.8422"><ele>73.0</ele><time>2026-04-17T10:11:16.895Z</time></trkpt><trkpt lat="42.7063117" lon="-8.8422233"><ele>75.0</ele><time>2026-04-17T10:11:17.896Z</time></trkpt><trkpt lat="42.706095" lon="-8.8422567"><ele>78.66666666666667</ele><time>2026-04-17T10:11:18.895Z</time></trkpt><trkpt lat="42.7058733" lon="-8.842295"><ele>82.33333333333334</ele><time>2026-04-17T10:11:19.895Z</time></trkpt><trkpt lat="42.7056533" lon="-8.84233"><ele>86.0</ele><time>2026-04-17T10:11:20.895Z</time></trkpt><trkpt lat="42.7054283" lon="-8.842365"><ele>84.66666666666667</ele><time>2026-04-17T10:11:21.895Z</time></trkpt><trkpt lat="42.70521" lon="-8.8424133"><ele>83.33333333333333</ele><time>2026-04-17T10:11:22.896Z</time></trkpt><trkpt lat="42.7050083" lon="-8.8424483"><ele>82.0</ele><time>2026-04-17T10:11:23.896Z</time></trkpt><trkpt lat="42.7048367" lon="-8.842475"><ele>82.0</ele><time>2026-04-17T10:11:24.895Z</time></trkpt><trkpt lat="42.7046767" lon="-8.8425233"><ele>82.0</ele><time>2026-04-17T10:11:25.895Z</time></trkpt><trkpt lat="42.7045167" lon="-8.8425667"><ele>82.0</ele><time>2026-04-17T10:11:26.895Z</time></trkpt><trkpt lat="42.704355" lon="-8.8426233"><ele>78.33333333333333</ele><time>2026-04-17T10:11:27.896Z</time></trkpt><trkpt lat="42.7042017" lon="-8.84268"><ele>74.66666666666667</ele><time>2026-04-17T10:11:28.895Z</time></trkpt><trkpt lat="42.7040383" lon="-8.84275"><ele>71.0</ele><time>2026-04-17T10:11:29.896Z</time></trkpt><trkpt lat="42.7038717" lon="-8.8428217"><ele>71.0</ele><time>2026-04-17T10:11:30.895Z</time></trkpt><trkpt lat="42.7037183" lon="-8.8428883"><ele>71.0</ele><time>2026-04-17T10:11:31.895Z</time></trkpt><trkpt lat="42.70358" lon="-8.8429633"><ele>71.0</ele><time>2026-04-17T10:11:32.896Z</time></trkpt><trkpt lat="42.7034583" lon="-8.843045"><ele>71.0</ele><time>2026-04-17T10:11:33.896Z</time></trkpt><trkpt lat="42.70336" lon="-8.8431083"><ele>70.6</ele><time>2026-04-17T10:11:34.895Z</time></trkpt><trkpt lat="42.7032667" lon="-8.843145"><ele>70.19999999999999</ele><time>2026-04-17T10:11:35.895Z</time></trkpt><trkpt lat="42.7032017" lon="-8.8431667"><ele>69.80000000000001</ele><time>2026-04-17T10:11:36.896Z</time></trkpt><trkpt lat="42.7031083" lon="-8.8431333"><ele>69.4</ele><time>2026-04-17T10:11:38.895Z</time></trkpt><trkpt lat="42.7030833" lon="-8.84301"><ele>69.0</ele><time>2026-04-17T10:11:40.895Z</time></trkpt><trkpt lat="42.703155" lon="-8.8428883"><ele>69.0</ele><time>2026-04-17T10:11:41.895Z</time></trkpt><trkpt lat="42.703235" lon="-8.8427467"><ele>69.0</ele><time>2026-04-17T10:11:42.896Z</time></trkpt><trkpt lat="42.703305" lon="-8.84258"><ele>69.0</ele><time>2026-04-17T10:11:43.895Z</time></trkpt><trkpt lat="42.70338" lon="-8.8424"><ele>69.0</ele><time>2026-04-17T10:11:44.895Z</time></trkpt><trkpt lat="42.7034717" lon="-8.8421983"><ele>70.0</ele><time>2026-04-17T10:11:45.896Z</time></trkpt><trkpt lat="42.7035733" lon="-8.84198"><ele>71.0</ele><time>2026-04-17T10:11:46.895Z</time></trkpt><trkpt lat="42.70368" lon="-8.841735"><ele>72.0</ele><time>2026-04-17T10:11:47.896Z</time></trkpt><trkpt lat="42.7038017" lon="-8.8414733"><ele>72.0</ele><time>2026-04-17T10:11:48.895Z</time></trkpt><trkpt lat="42.7039233" lon="-8.841215"><ele>72.0</ele><time>2026-04-17T10:11:49.895Z</time></trkpt><trkpt lat="42.70404" lon="-8.84098"><ele>72.0</ele><time>2026-04-17T10:11:50.895Z</time></trkpt><trkpt lat="42.704145" lon="-8.8407583"><ele>72.0</ele><time>2026-04-17T10:11:51.895Z</time></trkpt><trkpt lat="42.7042317" lon="-8.8405667"><ele>72.0</ele><time>2026-04-17T10:11:52.895Z</time></trkpt><trkpt lat="42.7042967" lon="-8.840385"><ele>72.0</ele><time>2026-04-17T10:11:53.895Z</time></trkpt><trkpt lat="42.70436" lon="-8.8401983"><ele>72.0</ele><time>2026-04-17T10:11:54.896Z</time></trkpt><trkpt lat="42.7044183" lon="-8.840005"><ele>72.0</ele><time>2026-04-17T10:11:55.895Z</time></trkpt><trkpt lat="42.70449" lon="-8.8398233"><ele>72.0</ele><time>2026-04-17T10:11:56.896Z</time></trkpt><trkpt lat="42.7046117" lon="-8.83965"><ele>72.0</ele><time>2026-04-17T10:11:57.896Z</time></trkpt><trkpt lat="42.7047617" lon="-8.8394833"><ele>72.0</ele><time>2026-04-17T10:11:58.896Z</time></trkpt><trkpt lat="42.7049167" lon="-8.8393183"><ele>72.0</ele><time>2026-04-17T10:11:59.895Z</time></trkpt><trkpt lat="42.70507" lon="-8.8391583"><ele>71.66666666666667</ele><time>2026-04-17T10:12:00.895Z</time></trkpt><trkpt lat="42.7052333" lon="-8.8390017"><ele>71.33333333333334</ele><time>2026-04-17T10:12:01.895Z</time></trkpt><trkpt lat="42.705375" lon="-8.8388417"><ele>71.0</ele><time>2026-04-17T10:12:02.895Z</time></trkpt><trkpt lat="42.7055117" lon="-8.8386833"><ele>71.0</ele><time>2026-04-17T10:12:03.895Z</time></trkpt><trkpt lat="42.70564" lon="-8.8385517"><ele>71.0</ele><time>2026-04-17T10:12:04.896Z</time></trkpt><trkpt lat="42.70578" lon="-8.8384517"><ele>71.0</ele><time>2026-04-17T10:12:05.895Z</time></trkpt><trkpt lat="42.705945" lon="-8.8383733"><ele>68.66666666666667</ele><time>2026-04-17T10:12:06.895Z</time></trkpt><trkpt lat="42.706135" lon="-8.83831"><ele>66.33333333333333</ele><time>2026-04-17T10:12:07.895Z</time></trkpt><trkpt lat="42.7063283" lon="-8.8382567"><ele>64.0</ele><time>2026-04-17T10:12:08.895Z</time></trkpt><trkpt lat="42.7065217" lon="-8.83819"><ele>64.0</ele><time>2026-04-17T10:12:09.895Z</time></trkpt><trkpt lat="42.7067067" lon="-8.8381317"><ele>64.0</ele><time>2026-04-17T10:12:10.895Z</time></trkpt><trkpt lat="42.7068967" lon="-8.8380933"><ele>64.0</ele><time>2026-04-17T10:12:11.895Z</time></trkpt><trkpt lat="42.7070917" lon="-8.83804"><ele>62.666666666666664</ele><time>2026-04-17T10:12:12.896Z</time></trkpt><trkpt lat="42.7072883" lon="-8.837995"><ele>61.33333333333333</ele><time>2026-04-17T10:12:13.896Z</time></trkpt><trkpt lat="42.7074717" lon="-8.837975"><ele>60.0</ele><time>2026-04-17T10:12:14.896Z</time></trkpt><trkpt lat="42.70762" lon="-8.8379767"><ele>59.5</ele><time>2026-04-17T10:12:15.895Z</time></trkpt><trkpt lat="42.7077667" lon="-8.8379817"><ele>59.0</ele><time>2026-04-17T10:12:16.895Z</time></trkpt><trkpt lat="42.7079083" lon="-8.838"><ele>58.5</ele><time>2026-04-17T10:12:17.895Z</time></trkpt><trkpt lat="42.7080233" lon="-8.8380483"><ele>58.0</ele><time>2026-04-17T10:12:18.895Z</time></trkpt><trkpt lat="42.7081283" lon="-8.8381367"><ele>58.0</ele><time>2026-04-17T10:12:19.895Z</time></trkpt><trkpt lat="42.7082183" lon="-8.8382533"><ele>58.0</ele><time>2026-04-17T10:12:20.896Z</time></trkpt><trkpt lat="42.7082883" lon="-8.8383483"><ele>58.0</ele><time>2026-04-17T10:12:21.895Z</time></trkpt><trkpt lat="42.7083517" lon="-8.8383917"><ele>58.0</ele><time>2026-04-17T10:12:22.895Z</time></trkpt><trkpt lat="42.708415" lon="-8.8383967"><ele>58.0</ele><time>2026-04-17T10:12:23.895Z</time></trkpt><trkpt lat="42.708525" lon="-8.8383083"><ele>57.5</ele><time>2026-04-17T10:12:25.895Z</time></trkpt><trkpt lat="42.7085917" lon="-8.838235"><ele>57.0</ele><time>2026-04-17T10:12:26.896Z</time></trkpt><trkpt lat="42.7087033" lon="-8.8380883"><ele>56.5</ele><time>2026-04-17T10:12:27.896Z</time></trkpt><trkpt lat="42.70883" lon="-8.8379417"><ele>56.0</ele><time>2026-04-17T10:12:28.895Z</time></trkpt><trkpt lat="42.7089517" lon="-8.837805"><ele>56.0</ele><time>2026-04-17T10:12:29.895Z</time></trkpt><trkpt lat="42.7090483" lon="-8.8376817"><ele>56.0</ele><time>2026-04-17T10:12:30.895Z</time></trkpt><trkpt lat="42.7091367" lon="-8.837565"><ele>56.0</ele><time>2026-04-17T10:12:31.895Z</time></trkpt><trkpt lat="42.7092133" lon="-8.83742"><ele>56.0</ele><time>2026-04-17T10:12:32.896Z</time></trkpt><trkpt lat="42.709275" lon="-8.83729"><ele>55.25</ele><time>2026-04-17T10:12:33.895Z</time></trkpt><trkpt lat="42.70935" lon="-8.837165"><ele>54.5</ele><time>2026-04-17T10:12:34.896Z</time></trkpt><trkpt lat="42.7094283" lon="-8.83704"><ele>53.75</ele><time>2026-04-17T10:12:35.896Z</time></trkpt><trkpt lat="42.7095083" lon="-8.8369167"><ele>53.0</ele><time>2026-04-17T10:12:36.895Z</time></trkpt><trkpt lat="42.70957" lon="-8.8368217"><ele>53.8</ele><time>2026-04-17T10:12:37.895Z</time></trkpt><trkpt lat="42.7096233" lon="-8.83676"><ele>54.599999999999994</ele><time>2026-04-17T10:12:38.895Z</time></trkpt><trkpt lat="42.7097433" lon="-8.83672"><ele>55.400000000000006</ele><time>2026-04-17T10:12:40.896Z</time></trkpt><trkpt lat="42.70984" lon="-8.8367217"><ele>56.2</ele><time>2026-04-17T10:12:41.895Z</time></trkpt><trkpt lat="42.7099533" lon="-8.83672"><ele>57.0</ele><time>2026-04-17T10:12:42.896Z</time></trkpt><trkpt lat="42.7100783" lon="-8.83668"><ele>57.0</ele><time>2026-04-17T10:12:43.895Z</time></trkpt><trkpt lat="42.7102167" lon="-8.836605"><ele>57.0</ele><time>2026-04-17T10:12:44.895Z</time></trkpt><trkpt lat="42.71036" lon="-8.8365167"><ele>57.0</ele><time>2026-04-17T10:12:45.895Z</time></trkpt><trkpt lat="42.7105167" lon="-8.83641"><ele>58.66666666666667</ele><time>2026-04-17T10:12:46.895Z</time></trkpt><trkpt lat="42.710675" lon="-8.83629"><ele>60.333333333333336</ele><time>2026-04-17T10:12:47.895Z</time></trkpt><trkpt lat="42.71083" lon="-8.8361717"><ele>62.0</ele><time>2026-04-17T10:12:48.896Z</time></trkpt><trkpt lat="42.7109717" lon="-8.8360767"><ele>62.0</ele><time>2026-04-17T10:12:49.896Z</time></trkpt><trkpt lat="42.7111183" lon="-8.835985"><ele>62.0</ele><time>2026-04-17T10:12:50.896Z</time></trkpt><trkpt lat="42.71126" lon="-8.83591"><ele>62.0</ele><time>2026-04-17T10:12:51.896Z</time></trkpt><trkpt lat="42.71141" lon="-8.8358383"><ele>62.0</ele><time>2026-04-17T10:12:52.895Z</time></trkpt><trkpt lat="42.7115633" lon="-8.83576"><ele>62.0</ele><time>2026-04-17T10:12:53.895Z</time></trkpt><trkpt lat="42.711715" lon="-8.835695"><ele>62.0</ele><time>2026-04-17T10:12:54.895Z</time></trkpt><trkpt lat="42.7118617" lon="-8.8356417"><ele>65.33333333333334</ele><time>2026-04-17T10:12:55.895Z</time></trkpt><trkpt lat="42.71201" lon="-8.8355833"><ele>68.66666666666667</ele><time>2026-04-17T10:12:56.896Z</time></trkpt><trkpt lat="42.7121867" lon="-8.83553"><ele>72.0</ele><time>2026-04-17T10:12:57.895Z</time></trkpt><trkpt lat="42.7123483" lon="-8.8355"><ele>72.0</ele><time>2026-04-17T10:12:58.896Z</time></trkpt><trkpt lat="42.7124883" lon="-8.83548"><ele>72.0</ele><time>2026-04-17T10:12:59.895Z</time></trkpt><trkpt lat="42.7126183" lon="-8.83545"><ele>72.0</ele><time>2026-04-17T10:13:00.896Z</time></trkpt><trkpt lat="42.7127333" lon="-8.8354067"><ele>72.0</ele><time>2026-04-17T10:13:01.896Z</time></trkpt><trkpt lat="42.7128383" lon="-8.835355"><ele>73.5</ele><time>2026-04-17T10:13:02.896Z</time></trkpt><trkpt lat="42.712945" lon="-8.8352983"><ele>75.0</ele><time>2026-04-17T10:13:03.896Z</time></trkpt><trkpt lat="42.7130483" lon="-8.8352633"><ele>76.5</ele><time>2026-04-17T10:13:04.896Z</time></trkpt><trkpt lat="42.7131617" lon="-8.835265"><ele>78.0</ele><time>2026-04-17T10:13:05.896Z</time></trkpt><trkpt lat="42.7132883" lon="-8.83529"><ele>78.0</ele><time>2026-04-17T10:13:06.896Z</time></trkpt><trkpt lat="42.7134167" lon="-8.8353233"><ele>78.0</ele><time>2026-04-17T10:13:07.895Z</time></trkpt><trkpt lat="42.713545" lon="-8.83535"><ele>78.0</ele><time>2026-04-17T10:13:08.896Z</time></trkpt><trkpt lat="42.713675" lon="-8.835355"><ele>78.0</ele><time>2026-04-17T10:13:09.895Z</time></trkpt><trkpt lat="42.7138083" lon="-8.8353433"><ele>78.75</ele><time>2026-04-17T10:13:10.896Z</time></trkpt><trkpt lat="42.71392" lon="-8.83532"><ele>79.5</ele><time>2026-04-17T10:13:11.896Z</time></trkpt><trkpt lat="42.7140433" lon="-8.8352733"><ele>80.25</ele><time>2026-04-17T10:13:12.895Z</time></trkpt><trkpt lat="42.71417" lon="-8.8352017"><ele>81.0</ele><time>2026-04-17T10:13:13.895Z</time></trkpt><trkpt lat="42.714315" lon="-8.8351133"><ele>78.25</ele><time>2026-04-17T10:13:14.896Z</time></trkpt><trkpt lat="42.714455" lon="-8.83501"><ele>75.5</ele><time>2026-04-17T10:13:15.895Z</time></trkpt><trkpt lat="42.7145833" lon="-8.834905"><ele>72.75</ele><time>2026-04-17T10:13:16.896Z</time></trkpt><trkpt lat="42.7146883" lon="-8.83478"><ele>70.0</ele><time>2026-04-17T10:13:17.896Z</time></trkpt><trkpt lat="42.7147667" lon="-8.8346783"><ele>70.0</ele><time>2026-04-17T10:13:18.895Z</time></trkpt><trkpt lat="42.714835" lon="-8.8346"><ele>70.0</ele><time>2026-04-17T10:13:19.896Z</time></trkpt><trkpt lat="42.7148983" lon="-8.8345583"><ele>70.0</ele><time>2026-04-17T10:13:20.896Z</time></trkpt><trkpt lat="42.71496" lon="-8.8345367"><ele>70.0</ele><time>2026-04-17T10:13:21.896Z</time></trkpt><trkpt lat="42.7150467" lon="-8.8345033"><ele>70.0</ele><time>2026-04-17T10:13:22.895Z</time></trkpt><trkpt lat="42.7151533" lon="-8.83445"><ele>70.0</ele><time>2026-04-17T10:13:23.896Z</time></trkpt><trkpt lat="42.7152667" lon="-8.8343783"><ele>70.0</ele><time>2026-04-17T10:13:24.895Z</time></trkpt><trkpt lat="42.7153683" lon="-8.8342917"><ele>70.0</ele><time>2026-04-17T10:13:25.895Z</time></trkpt><trkpt lat="42.71545" lon="-8.834185"><ele>70.0</ele><time>2026-04-17T10:13:26.895Z</time></trkpt><trkpt lat="42.7155283" lon="-8.83404"><ele>70.0</ele><time>2026-04-17T10:13:27.896Z</time></trkpt><trkpt lat="42.715605" lon="-8.8338683"><ele>70.0</ele><time>2026-04-17T10:13:28.896Z</time></trkpt><trkpt lat="42.7157" lon="-8.833675"><ele>70.0</ele><time>2026-04-17T10:13:29.896Z</time></trkpt><trkpt lat="42.7158" lon="-8.8334933"><ele>70.0</ele><time>2026-04-17T10:13:30.895Z</time></trkpt><trkpt lat="42.7158867" lon="-8.83332"><ele>71.25</ele><time>2026-04-17T10:13:31.896Z</time></trkpt><trkpt lat="42.7159717" lon="-8.8331617"><ele>72.5</ele><time>2026-04-17T10:13:32.896Z</time></trkpt><trkpt lat="42.7160433" lon="-8.8330433"><ele>73.75</ele><time>2026-04-17T10:13:33.896Z</time></trkpt><trkpt lat="42.7161233" lon="-8.8329633"><ele>75.0</ele><time>2026-04-17T10:13:34.895Z</time></trkpt><trkpt lat="42.7162167" lon="-8.8328817"><ele>75.0</ele><time>2026-04-17T10:13:35.896Z</time></trkpt><trkpt lat="42.71631" lon="-8.832785"><ele>75.0</ele><time>2026-04-17T10:13:36.895Z</time></trkpt><trkpt lat="42.7163983" lon="-8.8326867"><ele>75.0</ele><time>2026-04-17T10:13:37.896Z</time></trkpt><trkpt lat="42.7164717" lon="-8.8325917"><ele>75.0</ele><time>2026-04-17T10:13:38.895Z</time></trkpt><trkpt lat="42.7165417" lon="-8.83252"><ele>75.0</ele><time>2026-04-17T10:13:39.895Z</time></trkpt><trkpt lat="42.7166167" lon="-8.8324483"><ele>76.25</ele><time>2026-04-17T10:13:40.896Z</time></trkpt><trkpt lat="42.71672" lon="-8.8323833"><ele>77.5</ele><time>2026-04-17T10:13:41.895Z</time></trkpt><trkpt lat="42.71685" lon="-8.8322967"><ele>78.75</ele><time>2026-04-17T10:13:42.895Z</time></trkpt><trkpt lat="42.716995" lon="-8.832205"><ele>80.0</ele><time>2026-04-17T10:13:43.896Z</time></trkpt><trkpt lat="42.71715" lon="-8.8321267"><ele>80.0</ele><time>2026-04-17T10:13:44.895Z</time></trkpt><trkpt lat="42.7173133" lon="-8.8320817"><ele>80.0</ele><time>2026-04-17T10:13:45.896Z</time></trkpt><trkpt lat="42.7174717" lon="-8.8320317"><ele>80.0</ele><time>2026-04-17T10:13:46.896Z</time></trkpt><trkpt lat="42.717605" lon="-8.8319917"><ele>80.0</ele><time>2026-04-17T10:13:47.896Z</time></trkpt><trkpt lat="42.71773" lon="-8.83195"><ele>80.0</ele><time>2026-04-17T10:13:48.895Z</time></trkpt><trkpt lat="42.7178617" lon="-8.831915"><ele>80.0</ele><time>2026-04-17T10:13:49.896Z</time></trkpt><trkpt lat="42.7179783" lon="-8.83189"><ele>80.0</ele><time>2026-04-17T10:13:50.895Z</time></trkpt><trkpt lat="42.7180883" lon="-8.8318517"><ele>80.5</ele><time>2026-04-17T10:13:51.895Z</time></trkpt><trkpt lat="42.7182" lon="-8.8318183"><ele>81.0</ele><time>2026-04-17T10:13:52.895Z</time></trkpt><trkpt lat="42.7183283" lon="-8.83178"><ele>81.5</ele><time>2026-04-17T10:13:53.896Z</time></trkpt><trkpt lat="42.7184417" lon="-8.83172"><ele>82.0</ele><time>2026-04-17T10:13:54.895Z</time></trkpt><trkpt lat="42.7185167" lon="-8.8316533"><ele>82.0</ele><time>2026-04-17T10:13:55.895Z</time></trkpt><trkpt lat="42.7185683" lon="-8.8315783"><ele>82.0</ele><time>2026-04-17T10:13:56.896Z</time></trkpt><trkpt lat="42.7186067" lon="-8.831505"><ele>82.0</ele><time>2026-04-17T10:13:57.896Z</time></trkpt><trkpt lat="42.7186083" lon="-8.831365"><ele>82.0</ele><time>2026-04-17T10:13:59.895Z</time></trkpt><trkpt lat="42.7185883" lon="-8.8312717"><ele>82.0</ele><time>2026-04-17T10:14:00.896Z</time></trkpt><trkpt lat="42.7185583" lon="-8.8311417"><ele>82.0</ele><time>2026-04-17T10:14:01.895Z</time></trkpt><trkpt lat="42.7185567" lon="-8.8309917"><ele>83.6</ele><time>2026-04-17T10:14:02.895Z</time></trkpt><trkpt lat="42.7185883" lon="-8.8308383"><ele>85.19999999999999</ele><time>2026-04-17T10:14:03.896Z</time></trkpt><trkpt lat="42.7186233" lon="-8.83071"><ele>86.8</ele><time>2026-04-17T10:14:04.895Z</time></trkpt><trkpt lat="42.718655" lon="-8.8306117"><ele>88.4</ele><time>2026-04-17T10:14:05.895Z</time></trkpt><trkpt lat="42.7187333" lon="-8.8306567"><ele>90.0</ele><time>2026-04-17T10:14:08.896Z</time></trkpt><trkpt lat="42.7188483" lon="-8.8307767"><ele>90.0</ele><time>2026-04-17T10:14:10.896Z</time></trkpt><trkpt lat="42.7189183" lon="-8.8308317"><ele>90.0</ele><time>2026-04-17T10:14:11.895Z</time></trkpt><trkpt lat="42.7190033" lon="-8.8308217"><ele>90.0</ele><time>2026-04-17T10:14:13.895Z</time></trkpt><trkpt lat="42.71902" lon="-8.83068"><ele>90.0</ele><time>2026-04-17T10:14:15.895Z</time></trkpt><trkpt lat="42.7190483" lon="-8.8305783"><ele>90.0</ele><time>2026-04-17T10:14:16.896Z</time></trkpt><trkpt lat="42.7191067" lon="-8.83047"><ele>90.0</ele><time>2026-04-17T10:14:17.895Z</time></trkpt><trkpt lat="42.71918" lon="-8.8303617"><ele>90.0</ele><time>2026-04-17T10:14:18.895Z</time></trkpt><trkpt lat="42.7192683" lon="-8.8302533"><ele>90.0</ele><time>2026-04-17T10:14:19.896Z</time></trkpt><trkpt lat="42.7193567" lon="-8.83013"><ele>90.0</ele><time>2026-04-17T10:14:20.895Z</time></trkpt><trkpt lat="42.71945" lon="-8.8299833"><ele>92.33333333333334</ele><time>2026-04-17T10:14:21.895Z</time></trkpt><trkpt lat="42.7195383" lon="-8.829815"><ele>94.66666666666667</ele><time>2026-04-17T10:14:22.896Z</time></trkpt><trkpt lat="42.7196367" lon="-8.82965"><ele>97.0</ele><time>2026-04-17T10:14:23.896Z</time></trkpt><trkpt lat="42.7197533" lon="-8.82945"><ele>94.8</ele><time>2026-04-17T10:14:24.895Z</time></trkpt><trkpt lat="42.7198633" lon="-8.82928"><ele>92.6</ele><time>2026-04-17T10:14:25.895Z</time></trkpt><trkpt lat="42.719935" lon="-8.8291917"><ele>90.39999999999999</ele><time>2026-04-17T10:14:26.896Z</time></trkpt><trkpt lat="42.7199883" lon="-8.8291067"><ele>88.19999999999999</ele><time>2026-04-17T10:14:27.895Z</time></trkpt><trkpt lat="42.7200017" lon="-8.8290083"><ele>86.0</ele><time>2026-04-17T10:14:29.896Z</time></trkpt><trkpt lat="42.7199733" lon="-8.8288483"><ele>86.0</ele><time>2026-04-17T10:14:31.896Z</time></trkpt><trkpt lat="42.7199367" lon="-8.8287167"><ele>86.0</ele><time>2026-04-17T10:14:32.896Z</time></trkpt><trkpt lat="42.7198867" lon="-8.8285733"><ele>86.0</ele><time>2026-04-17T10:14:33.895Z</time></trkpt><trkpt lat="42.7198483" lon="-8.8284817"><ele>86.0</ele><time>2026-04-17T10:14:34.895Z</time></trkpt><trkpt lat="42.7197617" lon="-8.8283983"><ele>86.0</ele><time>2026-04-17T10:14:36.895Z</time></trkpt><trkpt lat="42.7196867" lon="-8.8283817"><ele>85.0</ele><time>2026-04-17T10:14:37.896Z</time></trkpt><trkpt lat="42.7195867" lon="-8.8284033"><ele>84.0</ele><time>2026-04-17T10:14:38.895Z</time></trkpt><trkpt lat="42.7194533" lon="-8.8284533"><ele>83.0</ele><time>2026-04-17T10:14:39.895Z</time></trkpt><trkpt lat="42.7193317" lon="-8.82851"><ele>82.0</ele><time>2026-04-17T10:14:40.895Z</time></trkpt><trkpt lat="42.7192133" lon="-8.82856"><ele>82.0</ele><time>2026-04-17T10:14:41.895Z</time></trkpt><trkpt lat="42.7191167" lon="-8.8285883"><ele>82.0</ele><time>2026-04-17T10:14:42.895Z</time></trkpt><trkpt lat="42.7190333" lon="-8.82861"><ele>82.0</ele><time>2026-04-17T10:14:43.895Z</time></trkpt><trkpt lat="42.71892" lon="-8.8286383"><ele>82.0</ele><time>2026-04-17T10:14:45.896Z</time></trkpt><trkpt lat="42.71882" lon="-8.828685"><ele>82.0</ele><time>2026-04-17T10:14:47.896Z</time></trkpt><trkpt lat="42.7187283" lon="-8.8287517"><ele>82.0</ele><time>2026-04-17T10:14:49.896Z</time></trkpt><trkpt lat="42.71866" lon="-8.828815"><ele>82.0</ele><time>2026-04-17T10:14:51.895Z</time></trkpt><trkpt lat="42.718575" lon="-8.8288967"><ele>82.0</ele><time>2026-04-17T10:14:53.895Z</time></trkpt><trkpt lat="42.718475" lon="-8.82898"><ele>82.0</ele><time>2026-04-17T10:14:55.896Z</time></trkpt><trkpt lat="42.7184083" lon="-8.829025"><ele>82.0</ele><time>2026-04-17T10:14:56.895Z</time></trkpt><trkpt lat="42.7183317" lon="-8.8290667"><ele>80.39999999999999</ele><time>2026-04-17T10:14:57.895Z</time></trkpt><trkpt lat="42.7182417" lon="-8.8290967"><ele>78.8</ele><time>2026-04-17T10:14:58.896Z</time></trkpt><trkpt lat="42.718155" lon="-8.8291183"><ele>77.2</ele><time>2026-04-17T10:14:59.895Z</time></trkpt><trkpt lat="42.7180467" lon="-8.829125"><ele>75.6</ele><time>2026-04-17T10:15:00.895Z</time></trkpt><trkpt lat="42.71794" lon="-8.8291233"><ele>74.0</ele><time>2026-04-17T10:15:01.896Z</time></trkpt><trkpt lat="42.7178417" lon="-8.8291183"><ele>74.0</ele><time>2026-04-17T10:15:02.896Z</time></trkpt><trkpt lat="42.7177383" lon="-8.8291017"><ele>74.0</ele><time>2026-04-17T10:15:03.895Z</time></trkpt><trkpt lat="42.7176383" lon="-8.82907"><ele>74.0</ele><time>2026-04-17T10:15:04.895Z</time></trkpt><trkpt lat="42.71755" lon="-8.8290367"><ele>74.0</ele><time>2026-04-17T10:15:05.896Z</time></trkpt><trkpt lat="42.7174633" lon="-8.8290083"><ele>74.0</ele><time>2026-04-17T10:15:06.895Z</time></trkpt><trkpt lat="42.7173833" lon="-8.8290017"><ele>74.8</ele><time>2026-04-17T10:15:07.895Z</time></trkpt><trkpt lat="42.7172983" lon="-8.82902"><ele>75.60000000000001</ele><time>2026-04-17T10:15:08.896Z</time></trkpt><trkpt lat="42.7172117" lon="-8.829065"><ele>76.4</ele><time>2026-04-17T10:15:09.895Z</time></trkpt><trkpt lat="42.7171267" lon="-8.8291283"><ele>77.2</ele><time>2026-04-17T10:15:10.895Z</time></trkpt><trkpt lat="42.7170467" lon="-8.8291983"><ele>78.0</ele><time>2026-04-17T10:15:11.895Z</time></trkpt><trkpt lat="42.716955" lon="-8.8292717"><ele>79.25</ele><time>2026-04-17T10:15:12.895Z</time></trkpt><trkpt lat="42.7168583" lon="-8.8293383"><ele>80.5</ele><time>2026-04-17T10:15:13.895Z</time></trkpt><trkpt lat="42.7167533" lon="-8.8293917"><ele>81.75</ele><time>2026-04-17T10:15:14.895Z</time></trkpt><trkpt lat="42.7166383" lon="-8.82944"><ele>83.0</ele><time>2026-04-17T10:15:15.896Z</time></trkpt><trkpt lat="42.7165133" lon="-8.829475"><ele>83.0</ele><time>2026-04-17T10:15:16.896Z</time></trkpt><trkpt lat="42.716385" lon="-8.8295067"><ele>83.0</ele><time>2026-04-17T10:15:17.896Z</time></trkpt><trkpt lat="42.716265" lon="-8.82953"><ele>83.0</ele><time>2026-04-17T10:15:18.896Z</time></trkpt><trkpt lat="42.716135" lon="-8.82956"><ele>83.0</ele><time>2026-04-17T10:15:19.896Z</time></trkpt><trkpt lat="42.7159917" lon="-8.8295917"><ele>83.80000000000001</ele><time>2026-04-17T10:15:20.895Z</time></trkpt><trkpt lat="42.7158717" lon="-8.8296167"><ele>84.6</ele><time>2026-04-17T10:15:21.895Z</time></trkpt><trkpt lat="42.7157767" lon="-8.8296333"><ele>85.4</ele><time>2026-04-17T10:15:22.896Z</time></trkpt><trkpt lat="42.7156733" lon="-8.8296517"><ele>86.19999999999999</ele><time>2026-04-17T10:15:23.896Z</time></trkpt><trkpt lat="42.7155583" lon="-8.8296667"><ele>87.0</ele><time>2026-04-17T10:15:24.895Z</time></trkpt><trkpt lat="42.7154383" lon="-8.8296767"><ele>87.0</ele><time>2026-04-17T10:15:25.896Z</time></trkpt><trkpt lat="42.71532" lon="-8.8296883"><ele>87.0</ele><time>2026-04-17T10:15:26.896Z</time></trkpt><trkpt lat="42.7152017" lon="-8.8296967"><ele>87.0</ele><time>2026-04-17T10:15:27.896Z</time></trkpt><trkpt lat="42.7150867" lon="-8.8297267"><ele>87.0</ele><time>2026-04-17T10:15:28.896Z</time></trkpt><trkpt lat="42.7149833" lon="-8.829755"><ele>88.33333333333333</ele><time>2026-04-17T10:15:29.896Z</time></trkpt><trkpt lat="42.7148933" lon="-8.8297683"><ele>89.66666666666667</ele><time>2026-04-17T10:15:30.895Z</time></trkpt><trkpt lat="42.7148067" lon="-8.8297817"><ele>91.0</ele><time>2026-04-17T10:15:31.895Z</time></trkpt><trkpt lat="42.7147283" lon="-8.8297933"><ele>92.33333333333334</ele><time>2026-04-17T10:15:32.896Z</time></trkpt><trkpt lat="42.7146583" lon="-8.8298183"><ele>93.66666666666667</ele><time>2026-04-17T10:15:33.895Z</time></trkpt><trkpt lat="42.7145967" lon="-8.8298617"><ele>95.0</ele><time>2026-04-17T10:15:34.896Z</time></trkpt><trkpt lat="42.7145367" lon="-8.8299017"><ele>95.0</ele><time>2026-04-17T10:15:35.895Z</time></trkpt><trkpt lat="42.7144517" lon="-8.829955"><ele>95.0</ele><time>2026-04-17T10:15:36.896Z</time></trkpt><trkpt lat="42.71433" lon="-8.83001"><ele>95.0</ele><time>2026-04-17T10:15:37.896Z</time></trkpt><trkpt lat="42.7142083" lon="-8.830045"><ele>95.0</ele><time>2026-04-17T10:15:38.896Z</time></trkpt><trkpt lat="42.7140767" lon="-8.8300583"><ele>96.25</ele><time>2026-04-17T10:15:39.896Z</time></trkpt><trkpt lat="42.7139467" lon="-8.8300667"><ele>97.5</ele><time>2026-04-17T10:15:40.897Z</time></trkpt><trkpt lat="42.7138283" lon="-8.830075"><ele>98.75</ele><time>2026-04-17T10:15:41.896Z</time></trkpt><trkpt lat="42.7137133" lon="-8.8300833"><ele>100.0</ele><time>2026-04-17T10:15:42.896Z</time></trkpt><trkpt lat="42.7136067" lon="-8.8300967"><ele>98.4</ele><time>2026-04-17T10:15:43.897Z</time></trkpt><trkpt lat="42.7135083" lon="-8.830105"><ele>96.8</ele><time>2026-04-17T10:15:44.897Z</time></trkpt><trkpt lat="42.7134133" lon="-8.8301183"><ele>95.19999999999999</ele><time>2026-04-17T10:15:45.897Z</time></trkpt><trkpt lat="42.7133117" lon="-8.83014"><ele>93.6</ele><time>2026-04-17T10:15:46.896Z</time></trkpt><trkpt lat="42.713205" lon="-8.830145"><ele>92.0</ele><time>2026-04-17T10:15:47.896Z</time></trkpt><trkpt lat="42.7130883" lon="-8.8301383"><ele>92.0</ele><time>2026-04-17T10:15:48.896Z</time></trkpt><trkpt lat="42.7129633" lon="-8.8301233"><ele>92.0</ele><time>2026-04-17T10:15:49.897Z</time></trkpt><trkpt lat="42.7128367" lon="-8.830105"><ele>92.0</ele><time>2026-04-17T10:15:50.896Z</time></trkpt><trkpt lat="42.712715" lon="-8.830085"><ele>92.0</ele><time>2026-04-17T10:15:51.897Z</time></trkpt><trkpt lat="42.7126033" lon="-8.8300767"><ele>90.25</ele><time>2026-04-17T10:15:52.896Z</time></trkpt><trkpt lat="42.712485" lon="-8.830065"><ele>88.5</ele><time>2026-04-17T10:15:53.896Z</time></trkpt><trkpt lat="42.7123683" lon="-8.8300583"><ele>86.75</ele><time>2026-04-17T10:15:54.897Z</time></trkpt><trkpt lat="42.71225" lon="-8.83006"><ele>85.0</ele><time>2026-04-17T10:15:55.897Z</time></trkpt><trkpt lat="42.7121367" lon="-8.830055"><ele>85.0</ele><time>2026-04-17T10:15:56.896Z</time></trkpt><trkpt lat="42.7120233" lon="-8.8300533"><ele>85.0</ele><time>2026-04-17T10:15:57.896Z</time></trkpt><trkpt lat="42.7119133" lon="-8.8300683"><ele>85.0</ele><time>2026-04-17T10:15:58.897Z</time></trkpt><trkpt lat="42.7117967" lon="-8.8300833"><ele>85.0</ele><time>2026-04-17T10:15:59.896Z</time></trkpt><trkpt lat="42.7116767" lon="-8.83012"><ele>82.25</ele><time>2026-04-17T10:16:00.896Z</time></trkpt><trkpt lat="42.711545" lon="-8.83017"><ele>79.5</ele><time>2026-04-17T10:16:01.896Z</time></trkpt><trkpt lat="42.7114033" lon="-8.83023"><ele>76.75</ele><time>2026-04-17T10:16:02.896Z</time></trkpt><trkpt lat="42.711265" lon="-8.8302933"><ele>74.0</ele><time>2026-04-17T10:16:03.897Z</time></trkpt><trkpt lat="42.7111317" lon="-8.8303583"><ele>72.0</ele><time>2026-04-17T10:16:04.896Z</time></trkpt><trkpt lat="42.711015" lon="-8.83041"><ele>70.0</ele><time>2026-04-17T10:16:05.896Z</time></trkpt><trkpt lat="42.7108983" lon="-8.83046"><ele>68.0</ele><time>2026-04-17T10:16:06.896Z</time></trkpt><trkpt lat="42.710785" lon="-8.8304883"><ele>66.0</ele><time>2026-04-17T10:16:07.896Z</time></trkpt><trkpt lat="42.71068" lon="-8.830515"><ele>66.0</ele><time>2026-04-17T10:16:08.897Z</time></trkpt><trkpt lat="42.710565" lon="-8.8305467"><ele>66.0</ele><time>2026-04-17T10:16:09.897Z</time></trkpt><trkpt lat="42.7104533" lon="-8.8305767"><ele>66.0</ele><time>2026-04-17T10:16:10.897Z</time></trkpt><trkpt lat="42.710345" lon="-8.8306083"><ele>66.0</ele><time>2026-04-17T10:16:11.896Z</time></trkpt><trkpt lat="42.7102317" lon="-8.830645"><ele>66.25</ele><time>2026-04-17T10:16:12.897Z</time></trkpt><trkpt lat="42.71012" lon="-8.830685"><ele>66.5</ele><time>2026-04-17T10:16:13.896Z</time></trkpt><trkpt lat="42.7100067" lon="-8.8307317"><ele>66.75</ele><time>2026-04-17T10:16:14.896Z</time></trkpt><trkpt lat="42.70989" lon="-8.830765"><ele>67.0</ele><time>2026-04-17T10:16:15.897Z</time></trkpt><trkpt lat="42.7097717" lon="-8.830805"><ele>67.0</ele><time>2026-04-17T10:16:16.896Z</time></trkpt><trkpt lat="42.7096683" lon="-8.830855"><ele>67.0</ele><time>2026-04-17T10:16:17.896Z</time></trkpt><trkpt lat="42.7095583" lon="-8.8309067"><ele>67.0</ele><time>2026-04-17T10:16:18.897Z</time></trkpt><trkpt lat="42.7094533" lon="-8.83097"><ele>67.0</ele><time>2026-04-17T10:16:19.896Z</time></trkpt><trkpt lat="42.70936" lon="-8.8310517"><ele>66.25</ele><time>2026-04-17T10:16:20.897Z</time></trkpt><trkpt lat="42.709275" lon="-8.8311483"><ele>65.5</ele><time>2026-04-17T10:16:21.897Z</time></trkpt><trkpt lat="42.7091933" lon="-8.83127"><ele>64.75</ele><time>2026-04-17T10:16:22.896Z</time></trkpt><trkpt lat="42.70911" lon="-8.8314017"><ele>64.0</ele><time>2026-04-17T10:16:23.896Z</time></trkpt><trkpt lat="42.70903" lon="-8.8315467"><ele>64.0</ele><time>2026-04-17T10:16:24.896Z</time></trkpt><trkpt lat="42.7089483" lon="-8.8316883"><ele>64.0</ele><time>2026-04-17T10:16:25.897Z</time></trkpt><trkpt lat="42.70887" lon="-8.83182"><ele>64.0</ele><time>2026-04-17T10:16:26.896Z</time></trkpt><trkpt lat="42.708785" lon="-8.831935"><ele>64.0</ele><time>2026-04-17T10:16:27.897Z</time></trkpt><trkpt lat="42.7086917" lon="-8.832055"><ele>64.25</ele><time>2026-04-17T10:16:28.897Z</time></trkpt><trkpt lat="42.7086017" lon="-8.8321583"><ele>64.5</ele><time>2026-04-17T10:16:29.896Z</time></trkpt><trkpt lat="42.708515" lon="-8.8322667"><ele>64.75</ele><time>2026-04-17T10:16:30.897Z</time></trkpt><trkpt lat="42.7084483" lon="-8.83238"><ele>65.0</ele><time>2026-04-17T10:16:31.897Z</time></trkpt><trkpt lat="42.7083683" lon="-8.832485"><ele>65.0</ele><time>2026-04-17T10:16:32.896Z</time></trkpt><trkpt lat="42.70828" lon="-8.8325783"><ele>65.0</ele><time>2026-04-17T10:16:33.897Z</time></trkpt><trkpt lat="42.7081817" lon="-8.8326617"><ele>65.0</ele><time>2026-04-17T10:16:34.896Z</time></trkpt><trkpt lat="42.7080717" lon="-8.83272"><ele>65.0</ele><time>2026-04-17T10:16:35.897Z</time></trkpt><trkpt lat="42.7079567" lon="-8.832755"><ele>64.0</ele><time>2026-04-17T10:16:36.896Z</time></trkpt><trkpt lat="42.7078383" lon="-8.83279"><ele>63.0</ele><time>2026-04-17T10:16:37.897Z</time></trkpt><trkpt lat="42.70772" lon="-8.832825"><ele>62.0</ele><time>2026-04-17T10:16:38.896Z</time></trkpt><trkpt lat="42.7076083" lon="-8.8328617"><ele>61.0</ele><time>2026-04-17T10:16:39.897Z</time></trkpt><trkpt lat="42.707495" lon="-8.8329"><ele>60.599999999999994</ele><time>2026-04-17T10:16:40.897Z</time></trkpt><trkpt lat="42.707385" lon="-8.8329367"><ele>60.199999999999996</ele><time>2026-04-17T10:16:41.896Z</time></trkpt><trkpt lat="42.707285" lon="-8.832995"><ele>59.800000000000004</ele><time>2026-04-17T10:16:42.897Z</time></trkpt><trkpt lat="42.70719" lon="-8.83308"><ele>59.400000000000006</ele><time>2026-04-17T10:16:43.896Z</time></trkpt><trkpt lat="42.7071083" lon="-8.8331833"><ele>59.0</ele><time>2026-04-17T10:16:44.896Z</time></trkpt><trkpt lat="42.70703" lon="-8.8333"><ele>59.0</ele><time>2026-04-17T10:16:45.896Z</time></trkpt><trkpt lat="42.70695" lon="-8.83342"><ele>59.0</ele><time>2026-04-17T10:16:46.896Z</time></trkpt><trkpt lat="42.7068717" lon="-8.8335383"><ele>59.0</ele><time>2026-04-17T10:16:47.897Z</time></trkpt><trkpt lat="42.7067967" lon="-8.8336617"><ele>59.0</ele><time>2026-04-17T10:16:48.897Z</time></trkpt><trkpt lat="42.70673" lon="-8.8337883"><ele>57.0</ele><time>2026-04-17T10:16:49.896Z</time></trkpt><trkpt lat="42.7066617" lon="-8.8339133"><ele>55.0</ele><time>2026-04-17T10:16:50.897Z</time></trkpt><trkpt lat="42.7066017" lon="-8.8340517"><ele>53.0</ele><time>2026-04-17T10:16:51.896Z</time></trkpt><trkpt lat="42.7065383" lon="-8.83418"><ele>51.0</ele><time>2026-04-17T10:16:52.896Z</time></trkpt><trkpt lat="42.706475" lon="-8.8343083"><ele>49.4</ele><time>2026-04-17T10:16:53.897Z</time></trkpt><trkpt lat="42.7064" lon="-8.83443"><ele>47.8</ele><time>2026-04-17T10:16:54.897Z</time></trkpt><trkpt lat="42.7063233" lon="-8.8345467"><ele>46.199999999999996</ele><time>2026-04-17T10:16:55.896Z</time></trkpt><trkpt lat="42.706245" lon="-8.8346467"><ele>44.599999999999994</ele><time>2026-04-17T10:16:56.896Z</time></trkpt><trkpt lat="42.70617" lon="-8.8347467"><ele>43.0</ele><time>2026-04-17T10:16:57.896Z</time></trkpt><trkpt lat="42.7060833" lon="-8.8348333"><ele>43.25</ele><time>2026-04-17T10:16:58.897Z</time></trkpt><trkpt lat="42.7059883" lon="-8.8349167"><ele>43.5</ele><time>2026-04-17T10:16:59.896Z</time></trkpt><trkpt lat="42.7058867" lon="-8.834995"><ele>43.75</ele><time>2026-04-17T10:17:00.896Z</time></trkpt><trkpt lat="42.7057867" lon="-8.835075"><ele>44.0</ele><time>2026-04-17T10:17:01.896Z</time></trkpt><trkpt lat="42.705685" lon="-8.835155"><ele>42.800000000000004</ele><time>2026-04-17T10:17:02.897Z</time></trkpt><trkpt lat="42.7055833" lon="-8.83524"><ele>41.6</ele><time>2026-04-17T10:17:03.896Z</time></trkpt><trkpt lat="42.7054867" lon="-8.835325"><ele>40.4</ele><time>2026-04-17T10:17:04.896Z</time></trkpt><trkpt lat="42.7053983" lon="-8.8354"><ele>39.2</ele><time>2026-04-17T10:17:05.896Z</time></trkpt><trkpt lat="42.7053167" lon="-8.835455"><ele>38.0</ele><time>2026-04-17T10:17:06.896Z</time></trkpt><trkpt lat="42.705215" lon="-8.835505"><ele>37.25</ele><time>2026-04-17T10:17:07.897Z</time></trkpt><trkpt lat="42.70511" lon="-8.83555"><ele>36.5</ele><time>2026-04-17T10:17:08.896Z</time></trkpt><trkpt lat="42.7049917" lon="-8.8355817"><ele>35.75</ele><time>2026-04-17T10:17:09.896Z</time></trkpt><trkpt lat="42.70487" lon="-8.83561"><ele>35.0</ele><time>2026-04-17T10:17:10.897Z</time></trkpt><trkpt lat="42.7047517" lon="-8.8356417"><ele>35.0</ele><time>2026-04-17T10:17:11.897Z</time></trkpt><trkpt lat="42.7046383" lon="-8.835675"><ele>35.0</ele><time>2026-04-17T10:17:12.897Z</time></trkpt><trkpt lat="42.7045217" lon="-8.8357183"><ele>35.0</ele><time>2026-04-17T10:17:13.896Z</time></trkpt><trkpt lat="42.7044117" lon="-8.835775"><ele>35.0</ele><time>2026-04-17T10:17:14.897Z</time></trkpt><trkpt lat="42.7043117" lon="-8.8358417"><ele>35.25</ele><time>2026-04-17T10:17:15.896Z</time></trkpt><trkpt lat="42.704205" lon="-8.8359217"><ele>35.5</ele><time>2026-04-17T10:17:16.897Z</time></trkpt><trkpt lat="42.704095" lon="-8.8359983"><ele>35.75</ele><time>2026-04-17T10:17:17.897Z</time></trkpt><trkpt lat="42.7039817" lon="-8.8360667"><ele>36.0</ele><time>2026-04-17T10:17:18.897Z</time></trkpt><trkpt lat="42.70387" lon="-8.8361317"><ele>36.0</ele><time>2026-04-17T10:17:19.897Z</time></trkpt><trkpt lat="42.7037567" lon="-8.8361917"><ele>36.0</ele><time>2026-04-17T10:17:20.896Z</time></trkpt><trkpt lat="42.7036467" lon="-8.83625"><ele>36.0</ele><time>2026-04-17T10:17:21.896Z</time></trkpt><trkpt lat="42.7035433" lon="-8.8363267"><ele>36.0</ele><time>2026-04-17T10:17:22.897Z</time></trkpt><trkpt lat="42.7034467" lon="-8.8364033"><ele>36.0</ele><time>2026-04-17T10:17:23.896Z</time></trkpt><trkpt lat="42.703345" lon="-8.8364833"><ele>36.0</ele><time>2026-04-17T10:17:24.896Z</time></trkpt><trkpt lat="42.7032433" lon="-8.8365683"><ele>36.0</ele><time>2026-04-17T10:17:25.896Z</time></trkpt><trkpt lat="42.70314" lon="-8.83666"><ele>36.0</ele><time>2026-04-17T10:17:26.897Z</time></trkpt><trkpt lat="42.70304" lon="-8.8367433"><ele>35.5</ele><time>2026-04-17T10:17:27.896Z</time></trkpt><trkpt lat="42.7029483" lon="-8.8368283"><ele>35.0</ele><time>2026-04-17T10:17:28.897Z</time></trkpt><trkpt lat="42.70285" lon="-8.83692"><ele>34.5</ele><time>2026-04-17T10:17:29.897Z</time></trkpt><trkpt lat="42.7027633" lon="-8.8370233"><ele>34.0</ele><time>2026-04-17T10:17:30.896Z</time></trkpt><trkpt lat="42.7026717" lon="-8.8371083"><ele>33.5</ele><time>2026-04-17T10:17:31.897Z</time></trkpt><trkpt lat="42.7025783" lon="-8.8371867"><ele>33.0</ele><time>2026-04-17T10:17:32.897Z</time></trkpt><trkpt lat="42.7024683" lon="-8.837265"><ele>32.5</ele><time>2026-04-17T10:17:33.896Z</time></trkpt><trkpt lat="42.7023717" lon="-8.8373433"><ele>32.0</ele><time>2026-04-17T10:17:34.897Z</time></trkpt><trkpt lat="42.7022667" lon="-8.8374367"><ele>32.0</ele><time>2026-04-17T10:17:35.897Z</time></trkpt><trkpt lat="42.7021583" lon="-8.8375217"><ele>32.0</ele><time>2026-04-17T10:17:36.897Z</time></trkpt><trkpt lat="42.7020483" lon="-8.837615"><ele>32.0</ele><time>2026-04-17T10:17:37.896Z</time></trkpt><trkpt lat="42.7019283" lon="-8.83771"><ele>32.0</ele><time>2026-04-17T10:17:38.897Z</time></trkpt><trkpt lat="42.7018117" lon="-8.8377967"><ele>31.0</ele><time>2026-04-17T10:17:39.896Z</time></trkpt><trkpt lat="42.7016983" lon="-8.83788"><ele>30.0</ele><time>2026-04-17T10:17:40.897Z</time></trkpt><trkpt lat="42.7015917" lon="-8.83796"><ele>29.0</ele><time>2026-04-17T10:17:41.896Z</time></trkpt><trkpt lat="42.7014917" lon="-8.8380433"><ele>28.0</ele><time>2026-04-17T10:17:42.896Z</time></trkpt><trkpt lat="42.701395" lon="-8.8381233"><ele>28.0</ele><time>2026-04-17T10:17:43.896Z</time></trkpt><trkpt lat="42.7012983" lon="-8.8382"><ele>28.0</ele><time>2026-04-17T10:17:44.896Z</time></trkpt><trkpt lat="42.7012" lon="-8.8382767"><ele>28.0</ele><time>2026-04-17T10:17:45.897Z</time></trkpt><trkpt lat="42.7010983" lon="-8.838355"><ele>28.0</ele><time>2026-04-17T10:17:46.896Z</time></trkpt><trkpt lat="42.7009933" lon="-8.8384283"><ele>27.75</ele><time>2026-04-17T10:17:47.897Z</time></trkpt><trkpt lat="42.70089" lon="-8.8384917"><ele>27.5</ele><time>2026-04-17T10:17:48.896Z</time></trkpt><trkpt lat="42.700785" lon="-8.838555"><ele>27.25</ele><time>2026-04-17T10:17:49.897Z</time></trkpt><trkpt lat="42.7006833" lon="-8.8386133"><ele>27.0</ele><time>2026-04-17T10:17:50.897Z</time></trkpt><trkpt lat="42.7005567" lon="-8.8386883"><ele>27.0</ele><time>2026-04-17T10:17:51.896Z</time></trkpt><trkpt lat="42.7004233" lon="-8.838755"><ele>27.0</ele><time>2026-04-17T10:17:52.897Z</time></trkpt><trkpt lat="42.7003" lon="-8.8388167"><ele>27.0</ele><time>2026-04-17T10:17:53.896Z</time></trkpt><trkpt lat="42.700175" lon="-8.83888"><ele>27.0</ele><time>2026-04-17T10:17:54.896Z</time></trkpt><trkpt lat="42.700055" lon="-8.8389383"><ele>28.25</ele><time>2026-04-17T10:17:55.897Z</time></trkpt><trkpt lat="42.6999367" lon="-8.8389983"><ele>29.5</ele><time>2026-04-17T10:17:56.897Z</time></trkpt><trkpt lat="42.69983" lon="-8.839055"><ele>30.75</ele><time>2026-04-17T10:17:57.896Z</time></trkpt><trkpt lat="42.6997283" lon="-8.8391117"><ele>32.0</ele><time>2026-04-17T10:17:58.896Z</time></trkpt><trkpt lat="42.6996167" lon="-8.839155"><ele>32.0</ele><time>2026-04-17T10:17:59.897Z</time></trkpt><trkpt lat="42.69949" lon="-8.8391917"><ele>32.0</ele><time>2026-04-17T10:18:00.896Z</time></trkpt><trkpt lat="42.6993617" lon="-8.83923"><ele>32.0</ele><time>2026-04-17T10:18:01.896Z</time></trkpt><trkpt lat="42.6992383" lon="-8.8392667"><ele>32.0</ele><time>2026-04-17T10:18:02.897Z</time></trkpt><trkpt lat="42.6991233" lon="-8.8393067"><ele>31.0</ele><time>2026-04-17T10:18:03.896Z</time></trkpt><trkpt lat="42.69901" lon="-8.83934"><ele>30.0</ele><time>2026-04-17T10:18:04.897Z</time></trkpt><trkpt lat="42.6988983" lon="-8.8393733"><ele>29.0</ele><time>2026-04-17T10:18:05.897Z</time></trkpt><trkpt lat="42.6987867" lon="-8.839405"><ele>28.0</ele><time>2026-04-17T10:18:06.897Z</time></trkpt><trkpt lat="42.698675" lon="-8.8394467"><ele>28.25</ele><time>2026-04-17T10:18:07.896Z</time></trkpt><trkpt lat="42.6985583" lon="-8.83951"><ele>28.5</ele><time>2026-04-17T10:18:08.897Z</time></trkpt><trkpt lat="42.6984633" lon="-8.8395933"><ele>28.75</ele><time>2026-04-17T10:18:09.896Z</time></trkpt><trkpt lat="42.6983817" lon="-8.8396983"><ele>29.0</ele><time>2026-04-17T10:18:10.897Z</time></trkpt><trkpt lat="42.6982983" lon="-8.8398067"><ele>29.0</ele><time>2026-04-17T10:18:11.897Z</time></trkpt><trkpt lat="42.6982267" lon="-8.8399217"><ele>29.0</ele><time>2026-04-17T10:18:12.896Z</time></trkpt><trkpt lat="42.69816" lon="-8.8400233"><ele>29.0</ele><time>2026-04-17T10:18:13.897Z</time></trkpt><trkpt lat="42.6980483" lon="-8.840115"><ele>29.0</ele><time>2026-04-17T10:18:14.896Z</time></trkpt><trkpt lat="42.697955" lon="-8.8402167"><ele>29.0</ele><time>2026-04-17T10:18:15.896Z</time></trkpt><trkpt lat="42.697865" lon="-8.8403167"><ele>29.0</ele><time>2026-04-17T10:18:16.896Z</time></trkpt><trkpt lat="42.6977783" lon="-8.8404083"><ele>29.0</ele><time>2026-04-17T10:18:17.896Z</time></trkpt><trkpt lat="42.6976883" lon="-8.8404917"><ele>29.0</ele><time>2026-04-17T10:18:18.896Z</time></trkpt><trkpt lat="42.697575" lon="-8.8405533"><ele>27.75</ele><time>2026-04-17T10:18:19.897Z</time></trkpt><trkpt lat="42.6974633" lon="-8.8406233"><ele>26.5</ele><time>2026-04-17T10:18:20.896Z</time></trkpt><trkpt lat="42.697355" lon="-8.8406683"><ele>25.25</ele><time>2026-04-17T10:18:21.897Z</time></trkpt><trkpt lat="42.6972533" lon="-8.8407217"><ele>24.0</ele><time>2026-04-17T10:18:22.896Z</time></trkpt><trkpt lat="42.6971467" lon="-8.840775"><ele>24.0</ele><time>2026-04-17T10:18:23.896Z</time></trkpt><trkpt lat="42.69704" lon="-8.8408183"><ele>24.0</ele><time>2026-04-17T10:18:24.897Z</time></trkpt><trkpt lat="42.696935" lon="-8.8408533"><ele>24.0</ele><time>2026-04-17T10:18:25.896Z</time></trkpt><trkpt lat="42.6968333" lon="-8.8408767"><ele>24.0</ele><time>2026-04-17T10:18:26.896Z</time></trkpt><trkpt lat="42.69673" lon="-8.84088"><ele>24.0</ele><time>2026-04-17T10:18:27.896Z</time></trkpt><trkpt lat="42.6966367" lon="-8.84086"><ele>24.4</ele><time>2026-04-17T10:18:28.896Z</time></trkpt><trkpt lat="42.6965567" lon="-8.8408233"><ele>24.799999999999997</ele><time>2026-04-17T10:18:29.896Z</time></trkpt><trkpt lat="42.6965017" lon="-8.84077"><ele>25.200000000000003</ele><time>2026-04-17T10:18:30.896Z</time></trkpt><trkpt lat="42.6964633" lon="-8.840655"><ele>25.6</ele><time>2026-04-17T10:18:32.897Z</time></trkpt><trkpt lat="42.6965217" lon="-8.8405033"><ele>26.0</ele><time>2026-04-17T10:18:34.896Z</time></trkpt><trkpt lat="42.6965833" lon="-8.840405"><ele>26.0</ele><time>2026-04-17T10:18:35.897Z</time></trkpt><trkpt lat="42.6966567" lon="-8.8403283"><ele>26.0</ele><time>2026-04-17T10:18:36.897Z</time></trkpt><trkpt lat="42.6967433" lon="-8.8402517"><ele>26.0</ele><time>2026-04-17T10:18:37.897Z</time></trkpt><trkpt lat="42.6968283" lon="-8.8401817"><ele>26.0</ele><time>2026-04-17T10:18:38.897Z</time></trkpt><trkpt lat="42.696905" lon="-8.840095"><ele>26.0</ele><time>2026-04-17T10:18:39.896Z</time></trkpt><trkpt lat="42.6969733" lon="-8.8399817"><ele>27.200000000000003</ele><time>2026-04-17T10:18:40.897Z</time></trkpt><trkpt lat="42.6970183" lon="-8.8398683"><ele>28.400000000000002</ele><time>2026-04-17T10:18:41.896Z</time></trkpt><trkpt lat="42.6970533" lon="-8.839735"><ele>29.6</ele><time>2026-04-17T10:18:42.896Z</time></trkpt><trkpt lat="42.6970633" lon="-8.8396"><ele>30.8</ele><time>2026-04-17T10:18:43.896Z</time></trkpt><trkpt lat="42.69704" lon="-8.8394533"><ele>32.0</ele><time>2026-04-17T10:18:44.897Z</time></trkpt><trkpt lat="42.6969967" lon="-8.8393133"><ele>32.83333333333333</ele><time>2026-04-17T10:18:45.897Z</time></trkpt><trkpt lat="42.69696" lon="-8.8391783"><ele>33.666666666666664</ele><time>2026-04-17T10:18:46.897Z</time></trkpt><trkpt lat="42.6969517" lon="-8.8390733"><ele>34.5</ele><time>2026-04-17T10:18:47.896Z</time></trkpt><trkpt lat="42.6969517" lon="-8.8389717"><ele>35.333333333333336</ele><time>2026-04-17T10:18:48.896Z</time></trkpt><trkpt lat="42.696995" lon="-8.8388783"><ele>36.16666666666667</ele><time>2026-04-17T10:18:49.897Z</time></trkpt><trkpt lat="42.6970883" lon="-8.8388083"><ele>37.0</ele><time>2026-04-17T10:18:50.896Z</time></trkpt><trkpt lat="42.6971917" lon="-8.8387283"><ele>37.0</ele><time>2026-04-17T10:18:51.897Z</time></trkpt><trkpt lat="42.6972583" lon="-8.8386333"><ele>37.0</ele><time>2026-04-17T10:18:52.897Z</time></trkpt><trkpt lat="42.697275" lon="-8.83852"><ele>37.0</ele><time>2026-04-17T10:18:53.897Z</time></trkpt><trkpt lat="42.697235" lon="-8.8383933"><ele>37.0</ele><time>2026-04-17T10:18:54.896Z</time></trkpt><trkpt lat="42.697195" lon="-8.83826"><ele>37.0</ele><time>2026-04-17T10:18:55.897Z</time></trkpt><trkpt lat="42.6971683" lon="-8.838115"><ele>38.8</ele><time>2026-04-17T10:18:56.897Z</time></trkpt><trkpt lat="42.6971583" lon="-8.8379583"><ele>40.6</ele><time>2026-04-17T10:18:57.897Z</time></trkpt><trkpt lat="42.6971617" lon="-8.83781"><ele>42.4</ele><time>2026-04-17T10:18:58.897Z</time></trkpt><trkpt lat="42.6971767" lon="-8.83768"><ele>44.199999999999996</ele><time>2026-04-17T10:18:59.897Z</time></trkpt><trkpt lat="42.6972067" lon="-8.83757"><ele>46.0</ele><time>2026-04-17T10:19:00.897Z</time></trkpt><trkpt lat="42.69726" lon="-8.83749"><ele>47.833333333333336</ele><time>2026-04-17T10:19:01.897Z</time></trkpt><trkpt lat="42.6973317" lon="-8.8374317"><ele>49.66666666666667</ele><time>2026-04-17T10:19:02.897Z</time></trkpt><trkpt lat="42.6974167" lon="-8.8373883"><ele>51.5</ele><time>2026-04-17T10:19:03.896Z</time></trkpt><trkpt lat="42.6974983" lon="-8.8373367"><ele>53.333333333333336</ele><time>2026-04-17T10:19:04.896Z</time></trkpt><trkpt lat="42.6975667" lon="-8.8372767"><ele>55.166666666666664</ele><time>2026-04-17T10:19:05.897Z</time></trkpt><trkpt lat="42.6976117" lon="-8.8371933"><ele>57.0</ele><time>2026-04-17T10:19:06.897Z</time></trkpt><trkpt lat="42.69764" lon="-8.837095"><ele>57.0</ele><time>2026-04-17T10:19:07.897Z</time></trkpt><trkpt lat="42.6976533" lon="-8.8369617"><ele>57.0</ele><time>2026-04-17T10:19:08.896Z</time></trkpt><trkpt lat="42.697645" lon="-8.8368"><ele>57.0</ele><time>2026-04-17T10:19:09.897Z</time></trkpt><trkpt lat="42.69763" lon="-8.83663"><ele>57.0</ele><time>2026-04-17T10:19:10.896Z</time></trkpt><trkpt lat="42.6976017" lon="-8.8364867"><ele>58.8</ele><time>2026-04-17T10:19:11.896Z</time></trkpt><trkpt lat="42.6975667" lon="-8.83637"><ele>60.6</ele><time>2026-04-17T10:19:12.897Z</time></trkpt><trkpt lat="42.6975167" lon="-8.83629"><ele>62.39999999999999</ele><time>2026-04-17T10:19:13.897Z</time></trkpt><trkpt lat="42.697435" lon="-8.8362133"><ele>64.2</ele><time>2026-04-17T10:19:14.896Z</time></trkpt><trkpt lat="42.6973217" lon="-8.836165"><ele>66.0</ele><time>2026-04-17T10:19:15.897Z</time></trkpt><trkpt lat="42.6971883" lon="-8.8361283"><ele>66.0</ele><time>2026-04-17T10:19:16.896Z</time></trkpt><trkpt lat="42.6970517" lon="-8.8360933"><ele>66.0</ele><time>2026-04-17T10:19:17.896Z</time></trkpt><trkpt lat="42.6969267" lon="-8.8360367"><ele>66.0</ele><time>2026-04-17T10:19:18.896Z</time></trkpt><trkpt lat="42.6968133" lon="-8.8359433"><ele>66.0</ele><time>2026-04-17T10:19:19.896Z</time></trkpt><trkpt lat="42.6967117" lon="-8.8358283"><ele>68.2</ele><time>2026-04-17T10:19:20.897Z</time></trkpt><trkpt lat="42.6966167" lon="-8.8357383"><ele>70.39999999999999</ele><time>2026-04-17T10:19:21.896Z</time></trkpt><trkpt lat="42.696525" lon="-8.8356783"><ele>72.6</ele><time>2026-04-17T10:19:22.897Z</time></trkpt><trkpt lat="42.6964467" lon="-8.8356383"><ele>74.8</ele><time>2026-04-17T10:19:23.896Z</time></trkpt><trkpt lat="42.6963683" lon="-8.8356367"><ele>77.0</ele><time>2026-04-17T10:19:24.897Z</time></trkpt><trkpt lat="42.6962883" lon="-8.8356733"><ele>77.0</ele><time>2026-04-17T10:19:25.896Z</time></trkpt><trkpt lat="42.69621" lon="-8.8357833"><ele>77.0</ele><time>2026-04-17T10:19:26.897Z</time></trkpt><trkpt lat="42.6961367" lon="-8.835945"><ele>77.0</ele><time>2026-04-17T10:19:27.897Z</time></trkpt><trkpt lat="42.69605" lon="-8.83609"><ele>77.0</ele><time>2026-04-17T10:19:28.896Z</time></trkpt><trkpt lat="42.6959483" lon="-8.836185"><ele>77.0</ele><time>2026-04-17T10:19:29.897Z</time></trkpt><trkpt lat="42.695835" lon="-8.83624"><ele>77.0</ele><time>2026-04-17T10:19:30.896Z</time></trkpt><trkpt lat="42.6957283" lon="-8.8362367"><ele>77.0</ele><time>2026-04-17T10:19:31.897Z</time></trkpt><trkpt lat="42.695615" lon="-8.8362067"><ele>77.0</ele><time>2026-04-17T10:19:32.896Z</time></trkpt><trkpt lat="42.6955217" lon="-8.836185"><ele>77.0</ele><time>2026-04-17T10:19:33.896Z</time></trkpt><trkpt lat="42.695415" lon="-8.8361417"><ele>77.0</ele><time>2026-04-17T10:19:35.897Z</time></trkpt><trkpt lat="42.6955267" lon="-8.8360317"><ele>77.0</ele><time>2026-04-17T10:19:41.897Z</time></trkpt><trkpt lat="42.6956133" lon="-8.8358817"><ele>77.0</ele><time>2026-04-17T10:19:42.897Z</time></trkpt><trkpt lat="42.6956883" lon="-8.8357217"><ele>77.0</ele><time>2026-04-17T10:19:43.896Z</time></trkpt><trkpt lat="42.6957517" lon="-8.835515"><ele>79.66666666666667</ele><time>2026-04-17T10:19:44.896Z</time></trkpt><trkpt lat="42.69578" lon="-8.8353017"><ele>82.33333333333333</ele><time>2026-04-17T10:19:45.897Z</time></trkpt><trkpt lat="42.6957833" lon="-8.835095"><ele>85.0</ele><time>2026-04-17T10:19:46.897Z</time></trkpt><trkpt lat="42.6957733" lon="-8.8348833"><ele>88.2</ele><time>2026-04-17T10:19:47.896Z</time></trkpt><trkpt lat="42.6957683" lon="-8.8347017"><ele>91.4</ele><time>2026-04-17T10:19:48.897Z</time></trkpt><trkpt lat="42.69577" lon="-8.8345433"><ele>94.6</ele><time>2026-04-17T10:19:49.896Z</time></trkpt><trkpt lat="42.6957833" lon="-8.834425"><ele>97.8</ele><time>2026-04-17T10:19:50.897Z</time></trkpt><trkpt lat="42.6958317" lon="-8.8343233"><ele>101.0</ele><time>2026-04-17T10:19:51.896Z</time></trkpt><trkpt lat="42.695915" lon="-8.8342483"><ele>105.0</ele><time>2026-04-17T10:19:52.896Z</time></trkpt><trkpt lat="42.6960267" lon="-8.834195"><ele>109.0</ele><time>2026-04-17T10:19:53.897Z</time></trkpt><trkpt lat="42.6961933" lon="-8.834165"><ele>113.0</ele><time>2026-04-17T10:19:54.896Z</time></trkpt><trkpt lat="42.6963567" lon="-8.834115"><ele>113.66666666666666</ele><time>2026-04-17T10:19:55.897Z</time></trkpt><trkpt lat="42.6965283" lon="-8.8340833"><ele>114.33333333333334</ele><time>2026-04-17T10:19:56.896Z</time></trkpt><trkpt lat="42.6967" lon="-8.83405"><ele>115.0</ele><time>2026-04-17T10:19:57.896Z</time></trkpt><trkpt lat="42.6968683" lon="-8.8340317"><ele>113.0</ele><time>2026-04-17T10:19:58.896Z</time></trkpt><trkpt lat="42.697025" lon="-8.8340183"><ele>111.0</ele><time>2026-04-17T10:19:59.897Z</time></trkpt><trkpt lat="42.6971733" lon="-8.8340017"><ele>109.0</ele><time>2026-04-17T10:20:00.896Z</time></trkpt><trkpt lat="42.6972917" lon="-8.833955"><ele>107.0</ele><time>2026-04-17T10:20:01.896Z</time></trkpt><trkpt lat="42.6973933" lon="-8.8338733"><ele>107.0</ele><time>2026-04-17T10:20:02.897Z</time></trkpt><trkpt lat="42.6974817" lon="-8.83376"><ele>107.0</ele><time>2026-04-17T10:20:03.896Z</time></trkpt><trkpt lat="42.6975483" lon="-8.8336183"><ele>107.0</ele><time>2026-04-17T10:20:04.897Z</time></trkpt><trkpt lat="42.6975733" lon="-8.8334033"><ele>107.0</ele><time>2026-04-17T10:20:05.897Z</time></trkpt><trkpt lat="42.6975933" lon="-8.8331683"><ele>108.5</ele><time>2026-04-17T10:20:06.897Z</time></trkpt><trkpt lat="42.6976017" lon="-8.8329433"><ele>110.0</ele><time>2026-04-17T10:20:07.896Z</time></trkpt><trkpt lat="42.69764" lon="-8.8327633"><ele>111.5</ele><time>2026-04-17T10:20:08.897Z</time></trkpt><trkpt lat="42.6976717" lon="-8.8326183"><ele>113.0</ele><time>2026-04-17T10:20:09.896Z</time></trkpt><trkpt lat="42.6976933" lon="-8.8325317"><ele>113.75</ele><time>2026-04-17T10:20:10.896Z</time></trkpt><trkpt lat="42.6977567" lon="-8.8324367"><ele>114.5</ele><time>2026-04-17T10:20:13.896Z</time></trkpt><trkpt lat="42.6979033" lon="-8.8324283"><ele>115.25</ele><time>2026-04-17T10:20:15.896Z</time></trkpt><trkpt lat="42.6979983" lon="-8.83242"><ele>116.0</ele><time>2026-04-17T10:20:16.897Z</time></trkpt><trkpt lat="42.698115" lon="-8.83243"><ele>116.0</ele><time>2026-04-17T10:20:17.897Z</time></trkpt><trkpt lat="42.6982517" lon="-8.8324917"><ele>116.0</ele><time>2026-04-17T10:20:18.896Z</time></trkpt><trkpt lat="42.6984083" lon="-8.8325967"><ele>116.0</ele><time>2026-04-17T10:20:19.897Z</time></trkpt><trkpt lat="42.6985867" lon="-8.8327167"><ele>116.66666666666666</ele><time>2026-04-17T10:20:20.897Z</time></trkpt><trkpt lat="42.6987617" lon="-8.8328"><ele>117.33333333333334</ele><time>2026-04-17T10:20:21.897Z</time></trkpt><trkpt lat="42.6989283" lon="-8.8328633"><ele>118.0</ele><time>2026-04-17T10:20:22.896Z</time></trkpt><trkpt lat="42.6991233" lon="-8.8329033"><ele>118.0</ele><time>2026-04-17T10:20:23.896Z</time></trkpt><trkpt lat="42.6992783" lon="-8.83289"><ele>118.0</ele><time>2026-04-17T10:20:24.896Z</time></trkpt><trkpt lat="42.6994217" lon="-8.832825"><ele>118.0</ele><time>2026-04-17T10:20:25.896Z</time></trkpt><trkpt lat="42.699515" lon="-8.8327517"><ele>118.0</ele><time>2026-04-17T10:20:26.897Z</time></trkpt><trkpt lat="42.6995567" lon="-8.832685"><ele>120.0</ele><time>2026-04-17T10:20:27.896Z</time></trkpt><trkpt lat="42.6995467" lon="-8.8325617"><ele>122.0</ele><time>2026-04-17T10:20:29.896Z</time></trkpt><trkpt lat="42.699445" lon="-8.8324733"><ele>124.0</ele><time>2026-04-17T10:20:30.896Z</time></trkpt><trkpt lat="42.69936" lon="-8.8323583"><ele>126.0</ele><time>2026-04-17T10:20:31.896Z</time></trkpt><trkpt lat="42.6992633" lon="-8.83224"><ele>126.75</ele><time>2026-04-17T10:20:32.896Z</time></trkpt><trkpt lat="42.699165" lon="-8.83214"><ele>127.5</ele><time>2026-04-17T10:20:33.896Z</time></trkpt><trkpt lat="42.699055" lon="-8.8320533"><ele>128.25</ele><time>2026-04-17T10:20:34.896Z</time></trkpt><trkpt lat="42.6989283" lon="-8.8319733"><ele>129.0</ele><time>2026-04-17T10:20:35.896Z</time></trkpt><trkpt lat="42.6988017" lon="-8.83188"><ele>129.5</ele><time>2026-04-17T10:20:36.897Z</time></trkpt><trkpt lat="42.6986733" lon="-8.8317867"><ele>130.0</ele><time>2026-04-17T10:20:37.896Z</time></trkpt><trkpt lat="42.6985517" lon="-8.8316983"><ele>130.5</ele><time>2026-04-17T10:20:38.896Z</time></trkpt><trkpt lat="42.6984217" lon="-8.83162"><ele>131.0</ele><time>2026-04-17T10:20:39.897Z</time></trkpt><trkpt lat="42.6982967" lon="-8.8315933"><ele>131.0</ele><time>2026-04-17T10:20:40.896Z</time></trkpt><trkpt lat="42.6981683" lon="-8.8315767"><ele>131.0</ele><time>2026-04-17T10:20:41.897Z</time></trkpt><trkpt lat="42.6980233" lon="-8.8315917"><ele>131.0</ele><time>2026-04-17T10:20:42.897Z</time></trkpt><trkpt lat="42.6978817" lon="-8.8315983"><ele>131.0</ele><time>2026-04-17T10:20:43.897Z</time></trkpt><trkpt lat="42.697735" lon="-8.8315867"><ele>132.0</ele><time>2026-04-17T10:20:44.896Z</time></trkpt><trkpt lat="42.6975883" lon="-8.8315333"><ele>133.0</ele><time>2026-04-17T10:20:45.897Z</time></trkpt><trkpt lat="42.6974367" lon="-8.8314517"><ele>134.0</ele><time>2026-04-17T10:20:46.896Z</time></trkpt><trkpt lat="42.6972733" lon="-8.8313767"><ele>134.0</ele><time>2026-04-17T10:20:47.896Z</time></trkpt><trkpt lat="42.6971433" lon="-8.8313133"><ele>134.0</ele><time>2026-04-17T10:20:48.897Z</time></trkpt><trkpt lat="42.6970233" lon="-8.8312883"><ele>134.0</ele><time>2026-04-17T10:20:49.896Z</time></trkpt><trkpt lat="42.69692" lon="-8.8312983"><ele>134.0</ele><time>2026-04-17T10:20:50.896Z</time></trkpt><trkpt lat="42.6968083" lon="-8.8313417"><ele>135.25</ele><time>2026-04-17T10:20:51.896Z</time></trkpt><trkpt lat="42.6966833" lon="-8.8313867"><ele>136.5</ele><time>2026-04-17T10:20:52.897Z</time></trkpt><trkpt lat="42.6965383" lon="-8.8313883"><ele>137.75</ele><time>2026-04-17T10:20:53.896Z</time></trkpt><trkpt lat="42.6963767" lon="-8.8313667"><ele>139.0</ele><time>2026-04-17T10:20:54.897Z</time></trkpt><trkpt lat="42.6962183" lon="-8.8313317"><ele>138.2</ele><time>2026-04-17T10:20:55.896Z</time></trkpt><trkpt lat="42.696075" lon="-8.8312917"><ele>137.4</ele><time>2026-04-17T10:20:56.896Z</time></trkpt><trkpt lat="42.695975" lon="-8.8312183"><ele>136.6</ele><time>2026-04-17T10:20:57.897Z</time></trkpt><trkpt lat="42.695905" lon="-8.831175"><ele>135.8</ele><time>2026-04-17T10:20:58.897Z</time></trkpt><trkpt lat="42.6958567" lon="-8.8311183"><ele>135.0</ele><time>2026-04-17T10:21:01.896Z</time></trkpt><trkpt lat="42.695925" lon="-8.83107"><ele>135.0</ele><time>2026-04-17T10:21:03.896Z</time></trkpt><trkpt lat="42.6959833" lon="-8.831035"><ele>135.0</ele><time>2026-04-17T10:21:04.897Z</time></trkpt><trkpt lat="42.696065" lon="-8.8309867"><ele>135.0</ele><time>2026-04-17T10:21:05.896Z</time></trkpt><trkpt lat="42.69616" lon="-8.8309183"><ele>135.0</ele><time>2026-04-17T10:21:06.896Z</time></trkpt><trkpt lat="42.6962783" lon="-8.8308333"><ele>135.0</ele><time>2026-04-17T10:21:07.897Z</time></trkpt><trkpt lat="42.6964017" lon="-8.8307283"><ele>137.0</ele><time>2026-04-17T10:21:08.897Z</time></trkpt><trkpt lat="42.6965033" lon="-8.8306133"><ele>139.0</ele><time>2026-04-17T10:21:09.896Z</time></trkpt><trkpt lat="42.6965783" lon="-8.8304883"><ele>141.0</ele><time>2026-04-17T10:21:10.896Z</time></trkpt><trkpt lat="42.6966183" lon="-8.830355"><ele>143.0</ele><time>2026-04-17T10:21:11.897Z</time></trkpt><trkpt lat="42.696615" lon="-8.830235"><ele>145.0</ele><time>2026-04-17T10:21:12.897Z</time></trkpt><trkpt lat="42.69657" lon="-8.8301417"><ele>145.8</ele><time>2026-04-17T10:21:13.896Z</time></trkpt><trkpt lat="42.6965017" lon="-8.83005"><ele>146.6</ele><time>2026-04-17T10:21:14.897Z</time></trkpt><trkpt lat="42.69642" lon="-8.8299633"><ele>147.4</ele><time>2026-04-17T10:21:15.896Z</time></trkpt><trkpt lat="42.6963417" lon="-8.82987"><ele>148.2</ele><time>2026-04-17T10:21:16.896Z</time></trkpt><trkpt lat="42.6962767" lon="-8.82978"><ele>149.0</ele><time>2026-04-17T10:21:17.897Z</time></trkpt><trkpt lat="42.69623" lon="-8.8297083"><ele>149.0</ele><time>2026-04-17T10:21:18.897Z</time></trkpt><trkpt lat="42.6961717" lon="-8.8296683"><ele>149.0</ele><time>2026-04-17T10:21:21.898Z</time></trkpt><trkpt lat="42.6962067" lon="-8.829795"><ele>149.0</ele><time>2026-04-17T10:21:24.897Z</time></trkpt><trkpt lat="42.69617" lon="-8.8299417"><ele>149.0</ele><time>2026-04-17T10:21:26.897Z</time></trkpt><trkpt lat="42.6961167" lon="-8.830035"><ele>149.0</ele><time>2026-04-17T10:21:27.898Z</time></trkpt><trkpt lat="42.696055" lon="-8.8301117"><ele>149.0</ele><time>2026-04-17T10:21:28.898Z</time></trkpt><trkpt lat="42.695975" lon="-8.83016"><ele>147.4</ele><time>2026-04-17T10:21:29.897Z</time></trkpt><trkpt lat="42.6958883" lon="-8.830195"><ele>145.8</ele><time>2026-04-17T10:21:30.898Z</time></trkpt><trkpt lat="42.6957767" lon="-8.8301867"><ele>144.2</ele><time>2026-04-17T10:21:31.897Z</time></trkpt><trkpt lat="42.6956733" lon="-8.8301567"><ele>142.6</ele><time>2026-04-17T10:21:32.897Z</time></trkpt><trkpt lat="42.6955667" lon="-8.8300883"><ele>141.0</ele><time>2026-04-17T10:21:33.898Z</time></trkpt><trkpt lat="42.695485" lon="-8.8299867"><ele>141.0</ele><time>2026-04-17T10:21:34.897Z</time></trkpt><trkpt lat="42.6954333" lon="-8.829885"><ele>141.0</ele><time>2026-04-17T10:21:35.897Z</time></trkpt><trkpt lat="42.6954317" lon="-8.8297467"><ele>141.0</ele><time>2026-04-17T10:21:36.897Z</time></trkpt><trkpt lat="42.69542" lon="-8.8296517"><ele>141.0</ele><time>2026-04-17T10:21:37.897Z</time></trkpt><trkpt lat="42.6954317" lon="-8.8295333"><ele>141.0</ele><time>2026-04-17T10:21:38.897Z</time></trkpt><trkpt lat="42.69542" lon="-8.82943"><ele>141.0</ele><time>2026-04-17T10:21:39.897Z</time></trkpt><trkpt lat="42.6953933" lon="-8.8293067"><ele>141.25</ele><time>2026-04-17T10:21:40.898Z</time></trkpt><trkpt lat="42.6953683" lon="-8.8291267"><ele>141.5</ele><time>2026-04-17T10:21:41.897Z</time></trkpt><trkpt lat="42.69531" lon="-8.8289383"><ele>141.75</ele><time>2026-04-17T10:21:42.898Z</time></trkpt><trkpt lat="42.69522" lon="-8.8288083"><ele>142.0</ele><time>2026-04-17T10:21:43.898Z</time></trkpt><trkpt lat="42.695085" lon="-8.828705"><ele>137.66666666666669</ele><time>2026-04-17T10:21:44.897Z</time></trkpt><trkpt lat="42.69492" lon="-8.8286383"><ele>133.33333333333334</ele><time>2026-04-17T10:21:45.898Z</time></trkpt><trkpt lat="42.6947017" lon="-8.8286067"><ele>129.0</ele><time>2026-04-17T10:21:46.898Z</time></trkpt><trkpt lat="42.6945033" lon="-8.8285733"><ele>129.0</ele><time>2026-04-17T10:21:47.897Z</time></trkpt><trkpt lat="42.6943083" lon="-8.82854"><ele>129.0</ele><time>2026-04-17T10:21:48.898Z</time></trkpt><trkpt lat="42.6941417" lon="-8.8284783"><ele>129.0</ele><time>2026-04-17T10:21:49.897Z</time></trkpt><trkpt lat="42.6940033" lon="-8.8283883"><ele>130.2</ele><time>2026-04-17T10:21:50.897Z</time></trkpt><trkpt lat="42.69389" lon="-8.82829"><ele>131.4</ele><time>2026-04-17T10:21:51.897Z</time></trkpt><trkpt lat="42.6937983" lon="-8.828205"><ele>132.6</ele><time>2026-04-17T10:21:52.897Z</time></trkpt><trkpt lat="42.6937033" lon="-8.8281833"><ele>133.8</ele><time>2026-04-17T10:21:54.898Z</time></trkpt><trkpt lat="42.6936283" lon="-8.82821"><ele>135.0</ele><time>2026-04-17T10:21:55.897Z</time></trkpt><trkpt lat="42.6935583" lon="-8.82825"><ele>135.0</ele><time>2026-04-17T10:21:56.897Z</time></trkpt><trkpt lat="42.693485" lon="-8.828315"><ele>135.0</ele><time>2026-04-17T10:21:57.898Z</time></trkpt><trkpt lat="42.6934133" lon="-8.8284133"><ele>135.0</ele><time>2026-04-17T10:21:58.897Z</time></trkpt><trkpt lat="42.6933233" lon="-8.8285433"><ele>135.0</ele><time>2026-04-17T10:21:59.897Z</time></trkpt><trkpt lat="42.6932283" lon="-8.8287083"><ele>133.0</ele><time>2026-04-17T10:22:00.898Z</time></trkpt><trkpt lat="42.693145" lon="-8.82886"><ele>131.0</ele><time>2026-04-17T10:22:01.898Z</time></trkpt><trkpt lat="42.693085" lon="-8.8289817"><ele>129.0</ele><time>2026-04-17T10:22:02.898Z</time></trkpt><trkpt lat="42.6930283" lon="-8.829055"><ele>127.0</ele><time>2026-04-17T10:22:03.897Z</time></trkpt><trkpt lat="42.6928933" lon="-8.8290283"><ele>127.0</ele><time>2026-04-17T10:22:05.897Z</time></trkpt><trkpt lat="42.6927983" lon="-8.828965"><ele>127.0</ele><time>2026-04-17T10:22:06.897Z</time></trkpt><trkpt lat="42.69267" lon="-8.8288533"><ele>127.0</ele><time>2026-04-17T10:22:07.898Z</time></trkpt><trkpt lat="42.6925333" lon="-8.82871"><ele>127.0</ele><time>2026-04-17T10:22:08.897Z</time></trkpt><trkpt lat="42.692395" lon="-8.8285367"><ele>128.0</ele><time>2026-04-17T10:22:09.898Z</time></trkpt><trkpt lat="42.6922633" lon="-8.8283367"><ele>129.0</ele><time>2026-04-17T10:22:10.897Z</time></trkpt><trkpt lat="42.6921533" lon="-8.8281217"><ele>130.0</ele><time>2026-04-17T10:22:11.898Z</time></trkpt><trkpt lat="42.6920667" lon="-8.8278967"><ele>130.0</ele><time>2026-04-17T10:22:12.898Z</time></trkpt><trkpt lat="42.6919933" lon="-8.8276867"><ele>130.0</ele><time>2026-04-17T10:22:13.898Z</time></trkpt><trkpt lat="42.691925" lon="-8.8275117"><ele>130.0</ele><time>2026-04-17T10:22:14.897Z</time></trkpt><trkpt lat="42.69188" lon="-8.8273617"><ele>130.0</ele><time>2026-04-17T10:22:15.897Z</time></trkpt><trkpt lat="42.6918467" lon="-8.827265"><ele>129.75</ele><time>2026-04-17T10:22:16.898Z</time></trkpt><trkpt lat="42.6918083" lon="-8.827175"><ele>129.5</ele><time>2026-04-17T10:22:17.897Z</time></trkpt><trkpt lat="42.6917233" lon="-8.827125"><ele>129.25</ele><time>2026-04-17T10:22:18.897Z</time></trkpt><trkpt lat="42.6915967" lon="-8.827125"><ele>129.0</ele><time>2026-04-17T10:22:19.898Z</time></trkpt><trkpt lat="42.6914133" lon="-8.8271417"><ele>129.0</ele><time>2026-04-17T10:22:20.897Z</time></trkpt><trkpt lat="42.691205" lon="-8.8271633"><ele>129.0</ele><time>2026-04-17T10:22:21.898Z</time></trkpt><trkpt lat="42.6910017" lon="-8.8271433"><ele>129.0</ele><time>2026-04-17T10:22:22.897Z</time></trkpt><trkpt lat="42.6908133" lon="-8.8270967"><ele>127.33333333333334</ele><time>2026-04-17T10:22:23.898Z</time></trkpt><trkpt lat="42.6906433" lon="-8.8270217"><ele>125.66666666666667</ele><time>2026-04-17T10:22:24.898Z</time></trkpt><trkpt lat="42.6904783" lon="-8.82694"><ele>124.0</ele><time>2026-04-17T10:22:25.898Z</time></trkpt><trkpt lat="42.6902967" lon="-8.8268517"><ele>126.5</ele><time>2026-04-17T10:22:26.898Z</time></trkpt><trkpt lat="42.690135" lon="-8.8267933"><ele>129.0</ele><time>2026-04-17T10:22:27.897Z</time></trkpt><trkpt lat="42.690005" lon="-8.8267267"><ele>131.5</ele><time>2026-04-17T10:22:28.897Z</time></trkpt><trkpt lat="42.68989" lon="-8.8266333"><ele>134.0</ele><time>2026-04-17T10:22:29.898Z</time></trkpt><trkpt lat="42.6897867" lon="-8.82651"><ele>134.0</ele><time>2026-04-17T10:22:30.897Z</time></trkpt><trkpt lat="42.6896967" lon="-8.82637"><ele>134.0</ele><time>2026-04-17T10:22:31.897Z</time></trkpt><trkpt lat="42.6896083" lon="-8.8262667"><ele>134.0</ele><time>2026-04-17T10:22:32.897Z</time></trkpt><trkpt lat="42.68953" lon="-8.826235"><ele>134.0</ele><time>2026-04-17T10:22:33.898Z</time></trkpt><trkpt lat="42.6894667" lon="-8.8262517"><ele>134.0</ele><time>2026-04-17T10:22:34.897Z</time></trkpt><trkpt lat="42.6893767" lon="-8.8262683"><ele>134.0</ele><time>2026-04-17T10:22:35.898Z</time></trkpt><trkpt lat="42.6892917" lon="-8.8262717"><ele>134.0</ele><time>2026-04-17T10:22:36.898Z</time></trkpt><trkpt lat="42.689225" lon="-8.826275"><ele>134.0</ele><time>2026-04-17T10:22:37.898Z</time></trkpt><trkpt lat="42.6892817" lon="-8.826215"><ele>134.0</ele><time>2026-04-17T10:22:43.898Z</time></trkpt><trkpt lat="42.6894" lon="-8.8261633"><ele>134.0</ele><time>2026-04-17T10:22:44.897Z</time></trkpt><trkpt lat="42.6895467" lon="-8.8260783"><ele>134.0</ele><time>2026-04-17T10:22:45.897Z</time></trkpt><trkpt lat="42.689665" lon="-8.8260067"><ele>134.0</ele><time>2026-04-17T10:22:46.897Z</time></trkpt><trkpt lat="42.6897767" lon="-8.8259533"><ele>134.0</ele><time>2026-04-17T10:22:47.897Z</time></trkpt><trkpt lat="42.689885" lon="-8.8259017"><ele>134.0</ele><time>2026-04-17T10:22:48.897Z</time></trkpt><trkpt lat="42.6899633" lon="-8.82586"><ele>134.0</ele><time>2026-04-17T10:22:49.897Z</time></trkpt><trkpt lat="42.6900333" lon="-8.8258183"><ele>135.4</ele><time>2026-04-17T10:22:50.897Z</time></trkpt><trkpt lat="42.6901467" lon="-8.825835"><ele>136.8</ele><time>2026-04-17T10:22:52.898Z</time></trkpt><trkpt lat="42.6902133" lon="-8.8258283"><ele>138.2</ele><time>2026-04-17T10:22:53.898Z</time></trkpt><trkpt lat="42.6902983" lon="-8.8258217"><ele>139.6</ele><time>2026-04-17T10:22:54.898Z</time></trkpt><trkpt lat="42.6904333" lon="-8.825905"><ele>141.0</ele><time>2026-04-17T10:22:55.898Z</time></trkpt><trkpt lat="42.6905483" lon="-8.82595"><ele>141.0</ele><time>2026-04-17T10:22:56.898Z</time></trkpt><trkpt lat="42.690705" lon="-8.82596"><ele>141.0</ele><time>2026-04-17T10:22:57.897Z</time></trkpt><trkpt lat="42.6908983" lon="-8.826"><ele>141.0</ele><time>2026-04-17T10:22:58.898Z</time></trkpt><trkpt lat="42.6910933" lon="-8.8260133"><ele>141.66666666666666</ele><time>2026-04-17T10:22:59.897Z</time></trkpt><trkpt lat="42.69127" lon="-8.8260067"><ele>142.33333333333331</ele><time>2026-04-17T10:23:00.898Z</time></trkpt><trkpt lat="42.69144" lon="-8.8259783"><ele>143.0</ele><time>2026-04-17T10:23:01.897Z</time></trkpt><trkpt lat="42.6916017" lon="-8.8259267"><ele>147.25</ele><time>2026-04-17T10:23:02.898Z</time></trkpt><trkpt lat="42.6917467" lon="-8.8258583"><ele>151.5</ele><time>2026-04-17T10:23:03.898Z</time></trkpt><trkpt lat="42.6918917" lon="-8.825785"><ele>155.75</ele><time>2026-04-17T10:23:04.897Z</time></trkpt><trkpt lat="42.6920117" lon="-8.8257117"><ele>160.0</ele><time>2026-04-17T10:23:05.897Z</time></trkpt><trkpt lat="42.692135" lon="-8.82564"><ele>160.75</ele><time>2026-04-17T10:23:06.897Z</time></trkpt><trkpt lat="42.69226" lon="-8.8255983"><ele>161.5</ele><time>2026-04-17T10:23:07.897Z</time></trkpt><trkpt lat="42.6923783" lon="-8.825565"><ele>162.25</ele><time>2026-04-17T10:23:08.897Z</time></trkpt><trkpt lat="42.6924933" lon="-8.82556"><ele>163.0</ele><time>2026-04-17T10:23:09.897Z</time></trkpt><trkpt lat="42.6926" lon="-8.8255733"><ele>163.0</ele><time>2026-04-17T10:23:10.897Z</time></trkpt><trkpt lat="42.692705" lon="-8.825635"><ele>163.0</ele><time>2026-04-17T10:23:11.898Z</time></trkpt><trkpt lat="42.6928183" lon="-8.8257117"><ele>163.0</ele><time>2026-04-17T10:23:12.898Z</time></trkpt><trkpt lat="42.6929533" lon="-8.825795"><ele>163.0</ele><time>2026-04-17T10:23:13.898Z</time></trkpt><trkpt lat="42.69308" lon="-8.8258683"><ele>165.5</ele><time>2026-04-17T10:23:14.897Z</time></trkpt><trkpt lat="42.6932" lon="-8.8259183"><ele>168.0</ele><time>2026-04-17T10:23:15.898Z</time></trkpt><trkpt lat="42.6933433" lon="-8.8259083"><ele>170.5</ele><time>2026-04-17T10:23:16.897Z</time></trkpt><trkpt lat="42.6934867" lon="-8.8258817"><ele>173.0</ele><time>2026-04-17T10:23:17.897Z</time></trkpt><trkpt lat="42.6936133" lon="-8.8258283"><ele>173.25</ele><time>2026-04-17T10:23:18.898Z</time></trkpt><trkpt lat="42.6937217" lon="-8.8257583"><ele>173.5</ele><time>2026-04-17T10:23:19.898Z</time></trkpt><trkpt lat="42.693825" lon="-8.825685"><ele>173.75</ele><time>2026-04-17T10:23:20.898Z</time></trkpt><trkpt lat="42.6939217" lon="-8.8256067"><ele>174.0</ele><time>2026-04-17T10:23:21.898Z</time></trkpt><trkpt lat="42.694015" lon="-8.8255083"><ele>174.0</ele><time>2026-04-17T10:23:22.898Z</time></trkpt><trkpt lat="42.6941017" lon="-8.82539"><ele>174.0</ele><time>2026-04-17T10:23:23.897Z</time></trkpt><trkpt lat="42.6941767" lon="-8.8252817"><ele>174.0</ele><time>2026-04-17T10:23:24.898Z</time></trkpt><trkpt lat="42.6942467" lon="-8.825165"><ele>174.0</ele><time>2026-04-17T10:23:25.897Z</time></trkpt><trkpt lat="42.6943117" lon="-8.8250333"><ele>176.0</ele><time>2026-04-17T10:23:26.898Z</time></trkpt><trkpt lat="42.6943717" lon="-8.8248817"><ele>178.0</ele><time>2026-04-17T10:23:27.898Z</time></trkpt><trkpt lat="42.69444" lon="-8.8246983"><ele>180.0</ele><time>2026-04-17T10:23:28.898Z</time></trkpt><trkpt lat="42.6945033" lon="-8.824495"><ele>182.0</ele><time>2026-04-17T10:23:29.898Z</time></trkpt><trkpt lat="42.69457" lon="-8.824325"><ele>183.8</ele><time>2026-04-17T10:23:30.897Z</time></trkpt><trkpt lat="42.6946517" lon="-8.8241883"><ele>185.6</ele><time>2026-04-17T10:23:31.897Z</time></trkpt><trkpt lat="42.6947233" lon="-8.8240783"><ele>187.4</ele><time>2026-04-17T10:23:32.898Z</time></trkpt><trkpt lat="42.69478" lon="-8.8240067"><ele>189.20000000000002</ele><time>2026-04-17T10:23:33.898Z</time></trkpt><trkpt lat="42.6948583" lon="-8.8239817"><ele>191.0</ele><time>2026-04-17T10:23:35.898Z</time></trkpt><trkpt lat="42.694975" lon="-8.8239833"><ele>191.0</ele><time>2026-04-17T10:23:37.897Z</time></trkpt><trkpt lat="42.6950767" lon="-8.8240133"><ele>191.0</ele><time>2026-04-17T10:23:39.898Z</time></trkpt><trkpt lat="42.6951433" lon="-8.8240883"><ele>191.0</ele><time>2026-04-17T10:23:43.898Z</time></trkpt><trkpt lat="42.69522" lon="-8.8241783"><ele>191.0</ele><time>2026-04-17T10:23:45.898Z</time></trkpt><trkpt lat="42.6952917" lon="-8.8242367"><ele>191.0</ele><time>2026-04-17T10:23:46.897Z</time></trkpt><trkpt lat="42.6953617" lon="-8.824285"><ele>190.33333333333331</ele><time>2026-04-17T10:23:47.897Z</time></trkpt><trkpt lat="42.69543" lon="-8.8243183"><ele>189.66666666666666</ele><time>2026-04-17T10:23:48.897Z</time></trkpt><trkpt lat="42.6955017" lon="-8.8243417"><ele>189.0</ele><time>2026-04-17T10:23:49.898Z</time></trkpt><trkpt lat="42.6955617" lon="-8.82437"><ele>188.33333333333334</ele><time>2026-04-17T10:23:50.897Z</time></trkpt><trkpt lat="42.6956167" lon="-8.8243117"><ele>187.66666666666669</ele><time>2026-04-17T10:23:53.898Z</time></trkpt><trkpt lat="42.69561" lon="-8.824165"><ele>187.0</ele><time>2026-04-17T10:23:59.897Z</time></trkpt><trkpt lat="42.6956867" lon="-8.8241083"><ele>189.75</ele><time>2026-04-17T10:24:01.897Z</time></trkpt><trkpt lat="42.695755" lon="-8.824095"><ele>192.5</ele><time>2026-04-17T10:24:02.897Z</time></trkpt><trkpt lat="42.6958683" lon="-8.824095"><ele>195.25</ele><time>2026-04-17T10:24:03.898Z</time></trkpt><trkpt lat="42.6960167" lon="-8.8241233"><ele>198.0</ele><time>2026-04-17T10:24:04.898Z</time></trkpt><trkpt lat="42.6962217" lon="-8.8241167"><ele>201.5</ele><time>2026-04-17T10:24:05.898Z</time></trkpt><trkpt lat="42.69646" lon="-8.8241"><ele>205.0</ele><time>2026-04-17T10:24:06.898Z</time></trkpt><trkpt lat="42.6966867" lon="-8.824075"><ele>205.0</ele><time>2026-04-17T10:24:07.897Z</time></trkpt><trkpt lat="42.6969083" lon="-8.8240233"><ele>205.0</ele><time>2026-04-17T10:24:08.898Z</time></trkpt><trkpt lat="42.6970633" lon="-8.8239683"><ele>205.0</ele><time>2026-04-17T10:24:09.897Z</time></trkpt><trkpt lat="42.6971417" lon="-8.8239333"><ele>206.6</ele><time>2026-04-17T10:24:10.897Z</time></trkpt><trkpt lat="42.6972" lon="-8.8238617"><ele>208.2</ele><time>2026-04-17T10:24:12.897Z</time></trkpt><trkpt lat="42.69726" lon="-8.8237133"><ele>209.8</ele><time>2026-04-17T10:24:14.897Z</time></trkpt><trkpt lat="42.697245" lon="-8.82361"><ele>211.4</ele><time>2026-04-17T10:24:15.897Z</time></trkpt><trkpt lat="42.6971883" lon="-8.8234717"><ele>213.0</ele><time>2026-04-17T10:24:16.897Z</time></trkpt><trkpt lat="42.6970733" lon="-8.8232683"><ele>213.0</ele><time>2026-04-17T10:24:17.898Z</time></trkpt><trkpt lat="42.6969867" lon="-8.8230867"><ele>213.0</ele><time>2026-04-17T10:24:18.898Z</time></trkpt><trkpt lat="42.6969167" lon="-8.8229283"><ele>213.0</ele><time>2026-04-17T10:24:19.897Z</time></trkpt><trkpt lat="42.6969017" lon="-8.82277"><ele>213.0</ele><time>2026-04-17T10:24:20.897Z</time></trkpt><trkpt lat="42.6969033" lon="-8.8226367"><ele>214.4</ele><time>2026-04-17T10:24:21.898Z</time></trkpt><trkpt lat="42.6968783" lon="-8.8225083"><ele>215.8</ele><time>2026-04-17T10:24:22.897Z</time></trkpt><trkpt lat="42.69688" lon="-8.822405"><ele>217.2</ele><time>2026-04-17T10:24:23.897Z</time></trkpt><trkpt lat="42.6969367" lon="-8.82233"><ele>218.6</ele><time>2026-04-17T10:24:25.897Z</time></trkpt><trkpt lat="42.6970783" lon="-8.8223317"><ele>220.0</ele><time>2026-04-17T10:24:27.898Z</time></trkpt><trkpt lat="42.6972017" lon="-8.8223233"><ele>221.75</ele><time>2026-04-17T10:24:28.898Z</time></trkpt><trkpt lat="42.697345" lon="-8.82231"><ele>223.5</ele><time>2026-04-17T10:24:29.897Z</time></trkpt><trkpt lat="42.697465" lon="-8.8222967"><ele>225.25</ele><time>2026-04-17T10:24:30.898Z</time></trkpt><trkpt lat="42.6975683" lon="-8.8222883"><ele>227.0</ele><time>2026-04-17T10:24:31.897Z</time></trkpt><trkpt lat="42.6976533" lon="-8.8222783"><ele>227.0</ele><time>2026-04-17T10:24:32.897Z</time></trkpt><trkpt lat="42.6977233" lon="-8.8222367"><ele>227.0</ele><time>2026-04-17T10:24:33.898Z</time></trkpt><trkpt lat="42.697765" lon="-8.8221583"><ele>227.0</ele><time>2026-04-17T10:24:34.897Z</time></trkpt><trkpt lat="42.6977933" lon="-8.8219817"><ele>227.0</ele><time>2026-04-17T10:24:36.897Z</time></trkpt><trkpt lat="42.697795" lon="-8.8218767"><ele>227.0</ele><time>2026-04-17T10:24:37.898Z</time></trkpt><trkpt lat="42.6977433" lon="-8.82172"><ele>231.75</ele><time>2026-04-17T10:24:38.898Z</time></trkpt><trkpt lat="42.6976667" lon="-8.8215783"><ele>236.5</ele><time>2026-04-17T10:24:39.898Z</time></trkpt><trkpt lat="42.69763" lon="-8.8214583"><ele>241.25</ele><time>2026-04-17T10:24:40.897Z</time></trkpt><trkpt lat="42.6974633" lon="-8.82131"><ele>246.0</ele><time>2026-04-17T10:24:41.898Z</time></trkpt><trkpt lat="42.697165" lon="-8.821065"><ele>247.5</ele><time>2026-04-17T10:24:42.897Z</time></trkpt><trkpt lat="42.6969083" lon="-8.8208717"><ele>249.0</ele><time>2026-04-17T10:24:43.898Z</time></trkpt><trkpt lat="42.69665" lon="-8.8206933"><ele>249.0</ele><time>2026-04-17T10:24:44.898Z</time></trkpt><trkpt lat="42.6964233" lon="-8.8205583"><ele>249.0</ele><time>2026-04-17T10:24:45.897Z</time></trkpt><trkpt lat="42.6962417" lon="-8.82042"><ele>246.0</ele><time>2026-04-17T10:24:46.897Z</time></trkpt><trkpt lat="42.69607" lon="-8.8202883"><ele>243.0</ele><time>2026-04-17T10:24:47.897Z</time></trkpt><trkpt lat="42.6959117" lon="-8.820115"><ele>240.0</ele><time>2026-04-17T10:24:48.897Z</time></trkpt><trkpt lat="42.6957567" lon="-8.8199167"><ele>251.0</ele><time>2026-04-17T10:24:49.898Z</time></trkpt><trkpt lat="42.6955917" lon="-8.8197017"><ele>262.0</ele><time>2026-04-17T10:24:50.897Z</time></trkpt><trkpt lat="42.6954333" lon="-8.8194817"><ele>264.66666666666663</ele><time>2026-04-17T10:24:51.897Z</time></trkpt><trkpt lat="42.6952733" lon="-8.8192933"><ele>267.3333333333333</ele><time>2026-04-17T10:24:52.897Z</time></trkpt><trkpt lat="42.6951433" lon="-8.819135"><ele>270.0</ele><time>2026-04-17T10:24:53.897Z</time></trkpt><trkpt lat="42.6950183" lon="-8.81898"><ele>270.0</ele><time>2026-04-17T10:24:54.898Z</time></trkpt><trkpt lat="42.6949183" lon="-8.8188367"><ele>270.0</ele><time>2026-04-17T10:24:55.898Z</time></trkpt><trkpt lat="42.69484" lon="-8.818685"><ele>270.0</ele><time>2026-04-17T10:24:56.898Z</time></trkpt><trkpt lat="42.694785" lon="-8.8185133"><ele>270.0</ele><time>2026-04-17T10:24:57.897Z</time></trkpt><trkpt lat="42.6947467" lon="-8.8183517"><ele>273.0</ele><time>2026-04-17T10:24:58.897Z</time></trkpt><trkpt lat="42.694725" lon="-8.8182017"><ele>276.0</ele><time>2026-04-17T10:24:59.897Z</time></trkpt><trkpt lat="42.694745" lon="-8.8180933"><ele>279.0</ele><time>2026-04-17T10:25:00.897Z</time></trkpt><trkpt lat="42.6948133" lon="-8.81802"><ele>282.0</ele><time>2026-04-17T10:25:02.897Z</time></trkpt><trkpt lat="42.6949283" lon="-8.818035"><ele>285.0</ele><time>2026-04-17T10:25:04.898Z</time></trkpt><trkpt lat="42.6950367" lon="-8.81811"><ele>285.0</ele><time>2026-04-17T10:25:06.897Z</time></trkpt><trkpt lat="42.69511" lon="-8.81817"><ele>285.0</ele><time>2026-04-17T10:25:07.898Z</time></trkpt><trkpt lat="42.6951933" lon="-8.818245"><ele>285.0</ele><time>2026-04-17T10:25:08.897Z</time></trkpt><trkpt lat="42.695295" lon="-8.81834"><ele>285.0</ele><time>2026-04-17T10:25:09.898Z</time></trkpt><trkpt lat="42.6954017" lon="-8.8184233"><ele>285.0</ele><time>2026-04-17T10:25:10.897Z</time></trkpt><trkpt lat="42.69552" lon="-8.8184983"><ele>285.3333333333333</ele><time>2026-04-17T10:25:11.897Z</time></trkpt><trkpt lat="42.695655" lon="-8.8186117"><ele>285.66666666666663</ele><time>2026-04-17T10:25:12.897Z</time></trkpt><trkpt lat="42.69582" lon="-8.8187133"><ele>286.0</ele><time>2026-04-17T10:25:13.898Z</time></trkpt><trkpt lat="42.696015" lon="-8.8188133"><ele>289.66666666666663</ele><time>2026-04-17T10:25:14.898Z</time></trkpt><trkpt lat="42.6961917" lon="-8.8189"><ele>293.3333333333333</ele><time>2026-04-17T10:25:15.897Z</time></trkpt><trkpt lat="42.69639" lon="-8.8189583"><ele>297.0</ele><time>2026-04-17T10:25:16.898Z</time></trkpt><trkpt lat="42.6965833" lon="-8.81897"><ele>297.0</ele><time>2026-04-17T10:25:17.897Z</time></trkpt><trkpt lat="42.6967883" lon="-8.8189583"><ele>297.0</ele><time>2026-04-17T10:25:18.897Z</time></trkpt><trkpt lat="42.69698" lon="-8.8189133"><ele>297.0</ele><time>2026-04-17T10:25:19.898Z</time></trkpt><trkpt lat="42.6971617" lon="-8.8188183"><ele>298.6666666666667</ele><time>2026-04-17T10:25:20.897Z</time></trkpt><trkpt lat="42.6973283" lon="-8.81869"><ele>300.33333333333337</ele><time>2026-04-17T10:25:21.898Z</time></trkpt><trkpt lat="42.6975033" lon="-8.81855"><ele>302.0</ele><time>2026-04-17T10:25:22.898Z</time></trkpt><trkpt lat="42.697675" lon="-8.8184233"><ele>304.0</ele><time>2026-04-17T10:25:23.898Z</time></trkpt><trkpt lat="42.6978433" lon="-8.818305"><ele>306.0</ele><time>2026-04-17T10:25:24.897Z</time></trkpt><trkpt lat="42.69801" lon="-8.818205"><ele>308.0</ele><time>2026-04-17T10:25:25.898Z</time></trkpt><trkpt lat="42.69816" lon="-8.8181317"><ele>308.0</ele><time>2026-04-17T10:25:26.898Z</time></trkpt><trkpt lat="42.6982967" lon="-8.81806"><ele>308.0</ele><time>2026-04-17T10:25:27.898Z</time></trkpt><trkpt lat="42.6984133" lon="-8.818"><ele>308.0</ele><time>2026-04-17T10:25:28.897Z</time></trkpt><trkpt lat="42.6985383" lon="-8.8179233"><ele>308.0</ele><time>2026-04-17T10:25:29.898Z</time></trkpt><trkpt lat="42.6986733" lon="-8.81781"><ele>306.6666666666667</ele><time>2026-04-17T10:25:30.897Z</time></trkpt><trkpt lat="42.698825" lon="-8.8176983"><ele>305.3333333333333</ele><time>2026-04-17T10:25:31.897Z</time></trkpt><trkpt lat="42.6989817" lon="-8.817565"><ele>304.0</ele><time>2026-04-17T10:25:32.898Z</time></trkpt><trkpt lat="42.699115" lon="-8.8174667"><ele>304.0</ele><time>2026-04-17T10:25:33.897Z</time></trkpt><trkpt lat="42.69923" lon="-8.8173717"><ele>304.0</ele><time>2026-04-17T10:25:34.898Z</time></trkpt><trkpt lat="42.69933" lon="-8.8172683"><ele>304.0</ele><time>2026-04-17T10:25:35.897Z</time></trkpt><trkpt lat="42.6994" lon="-8.8171617"><ele>304.0</ele><time>2026-04-17T10:25:36.897Z</time></trkpt><trkpt lat="42.6994617" lon="-8.81704"><ele>300.8</ele><time>2026-04-17T10:25:37.898Z</time></trkpt><trkpt lat="42.6995017" lon="-8.816905"><ele>297.59999999999997</ele><time>2026-04-17T10:25:38.898Z</time></trkpt><trkpt lat="42.6995233" lon="-8.8167733"><ele>294.4</ele><time>2026-04-17T10:25:39.897Z</time></trkpt><trkpt lat="42.6995217" lon="-8.816645"><ele>291.2</ele><time>2026-04-17T10:25:40.897Z</time></trkpt><trkpt lat="42.6995117" lon="-8.8165267"><ele>288.0</ele><time>2026-04-17T10:25:41.897Z</time></trkpt><trkpt lat="42.6995" lon="-8.8164217"><ele>287.6666666666667</ele><time>2026-04-17T10:25:42.898Z</time></trkpt><trkpt lat="42.6994883" lon="-8.8163333"><ele>287.3333333333333</ele><time>2026-04-17T10:25:43.898Z</time></trkpt><trkpt lat="42.6995033" lon="-8.8162033"><ele>287.0</ele><time>2026-04-17T10:25:45.898Z</time></trkpt><trkpt lat="42.6995767" lon="-8.81618"><ele>286.66666666666663</ele><time>2026-04-17T10:25:47.897Z</time></trkpt><trkpt lat="42.6996433" lon="-8.8161933"><ele>286.3333333333333</ele><time>2026-04-17T10:25:48.898Z</time></trkpt><trkpt lat="42.6997483" lon="-8.8161767"><ele>286.0</ele><time>2026-04-17T10:25:50.897Z</time></trkpt><trkpt lat="42.69979" lon="-8.8160917"><ele>285.40000000000003</ele><time>2026-04-17T10:25:52.897Z</time></trkpt><trkpt lat="42.6997733" lon="-8.8159233"><ele>284.8</ele><time>2026-04-17T10:25:54.897Z</time></trkpt><trkpt lat="42.699725" lon="-8.8158483"><ele>284.20000000000005</ele><time>2026-04-17T10:25:55.897Z</time></trkpt><trkpt lat="42.6996733" lon="-8.8157783"><ele>283.6</ele><time>2026-04-17T10:25:56.898Z</time></trkpt><trkpt lat="42.699625" lon="-8.815695"><ele>283.0</ele><time>2026-04-17T10:25:58.898Z</time></trkpt><trkpt lat="42.69972" lon="-8.815625"><ele>283.0</ele><time>2026-04-17T10:26:01.898Z</time></trkpt><trkpt lat="42.699815" lon="-8.8156083"><ele>283.0</ele><time>2026-04-17T10:26:02.897Z</time></trkpt><trkpt lat="42.6998983" lon="-8.815595"><ele>283.0</ele><time>2026-04-17T10:26:03.897Z</time></trkpt><trkpt lat="42.699965" lon="-8.8155783"><ele>283.0</ele><time>2026-04-17T10:26:04.898Z</time></trkpt><trkpt lat="42.6999367" lon="-8.8154933"><ele>283.0</ele><time>2026-04-17T10:26:08.897Z</time></trkpt><trkpt lat="42.69984" lon="-8.8154867"><ele>283.0</ele><time>2026-04-17T10:26:09.897Z</time></trkpt><trkpt lat="42.6996917" lon="-8.81549"><ele>283.0</ele><time>2026-04-17T10:26:10.897Z</time></trkpt><trkpt lat="42.6994983" lon="-8.81551"><ele>283.0</ele><time>2026-04-17T10:26:11.897Z</time></trkpt><trkpt lat="42.699285" lon="-8.8155283"><ele>283.0</ele><time>2026-04-17T10:26:12.897Z</time></trkpt><trkpt lat="42.6990633" lon="-8.81554"><ele>285.5</ele><time>2026-04-17T10:26:13.898Z</time></trkpt><trkpt lat="42.6988267" lon="-8.8155383"><ele>288.0</ele><time>2026-04-17T10:26:14.898Z</time></trkpt><trkpt lat="42.6985983" lon="-8.8155333"><ele>287.6666666666667</ele><time>2026-04-17T10:26:15.898Z</time></trkpt><trkpt lat="42.6984" lon="-8.8155133"><ele>287.33333333333337</ele><time>2026-04-17T10:26:16.898Z</time></trkpt><trkpt lat="42.6982417" lon="-8.8154867"><ele>287.0</ele><time>2026-04-17T10:26:17.898Z</time></trkpt><trkpt lat="42.6981183" lon="-8.8154567"><ele>287.0</ele><time>2026-04-17T10:26:18.898Z</time></trkpt><trkpt lat="42.698025" lon="-8.8154333"><ele>287.0</ele><time>2026-04-17T10:26:19.897Z</time></trkpt><trkpt lat="42.697945" lon="-8.8154183"><ele>287.0</ele><time>2026-04-17T10:26:20.898Z</time></trkpt><trkpt lat="42.69787" lon="-8.8154067"><ele>287.0</ele><time>2026-04-17T10:26:21.897Z</time></trkpt><trkpt lat="42.69779" lon="-8.81539"><ele>287.0</ele><time>2026-04-17T10:26:22.898Z</time></trkpt><trkpt lat="42.697715" lon="-8.81537"><ele>287.0</ele><time>2026-04-17T10:26:23.897Z</time></trkpt><trkpt lat="42.6976333" lon="-8.8153467"><ele>287.6666666666667</ele><time>2026-04-17T10:26:24.898Z</time></trkpt><trkpt lat="42.697555" lon="-8.8153233"><ele>288.33333333333337</ele><time>2026-04-17T10:26:25.898Z</time></trkpt><trkpt lat="42.6974733" lon="-8.8152983"><ele>289.0</ele><time>2026-04-17T10:26:26.897Z</time></trkpt><trkpt lat="42.6973883" lon="-8.8152717"><ele>289.6666666666667</ele><time>2026-04-17T10:26:27.898Z</time></trkpt><trkpt lat="42.6973" lon="-8.81524"><ele>290.3333333333333</ele><time>2026-04-17T10:26:28.897Z</time></trkpt><trkpt lat="42.6972067" lon="-8.8152083"><ele>291.0</ele><time>2026-04-17T10:26:29.897Z</time></trkpt><trkpt lat="42.69712" lon="-8.815185"><ele>291.0</ele><time>2026-04-17T10:26:30.897Z</time></trkpt><trkpt lat="42.69703" lon="-8.815165"><ele>291.0</ele><time>2026-04-17T10:26:31.897Z</time></trkpt><trkpt lat="42.6969317" lon="-8.8151533"><ele>291.0</ele><time>2026-04-17T10:26:32.898Z</time></trkpt><trkpt lat="42.696835" lon="-8.81515"><ele>291.0</ele><time>2026-04-17T10:26:33.897Z</time></trkpt><trkpt lat="42.6967383" lon="-8.81515"><ele>291.0</ele><time>2026-04-17T10:26:34.897Z</time></trkpt><trkpt lat="42.6966433" lon="-8.8151483"><ele>290.6</ele><time>2026-04-17T10:26:35.898Z</time></trkpt><trkpt lat="42.6965433" lon="-8.8151533"><ele>290.20000000000005</ele><time>2026-04-17T10:26:36.898Z</time></trkpt><trkpt lat="42.6964367" lon="-8.8151583"><ele>289.79999999999995</ele><time>2026-04-17T10:26:37.897Z</time></trkpt><trkpt lat="42.6963333" lon="-8.815165"><ele>289.4</ele><time>2026-04-17T10:26:38.898Z</time></trkpt><trkpt lat="42.69622" lon="-8.815175"><ele>289.0</ele><time>2026-04-17T10:26:39.897Z</time></trkpt><trkpt lat="42.6961117" lon="-8.8151883"><ele>286.0</ele><time>2026-04-17T10:26:40.898Z</time></trkpt><trkpt lat="42.6960067" lon="-8.8152133"><ele>283.0</ele><time>2026-04-17T10:26:41.898Z</time></trkpt><trkpt lat="42.695905" lon="-8.8152467"><ele>280.0</ele><time>2026-04-17T10:26:42.898Z</time></trkpt><trkpt lat="42.69581" lon="-8.8152867"><ele>277.0</ele><time>2026-04-17T10:26:43.898Z</time></trkpt><trkpt lat="42.69572" lon="-8.8153367"><ele>274.0</ele><time>2026-04-17T10:26:44.897Z</time></trkpt><trkpt lat="42.695635" lon="-8.815395"><ele>274.0</ele><time>2026-04-17T10:26:45.897Z</time></trkpt><trkpt lat="42.69555" lon="-8.8154567"><ele>274.0</ele><time>2026-04-17T10:26:46.897Z</time></trkpt><trkpt lat="42.695465" lon="-8.8155317"><ele>274.0</ele><time>2026-04-17T10:26:47.897Z</time></trkpt><trkpt lat="42.69538" lon="-8.8156133"><ele>274.0</ele><time>2026-04-17T10:26:48.898Z</time></trkpt><trkpt lat="42.6952933" lon="-8.8157133"><ele>274.0</ele><time>2026-04-17T10:26:49.898Z</time></trkpt><trkpt lat="42.6952083" lon="-8.8158083"><ele>273.8</ele><time>2026-04-17T10:26:50.897Z</time></trkpt><trkpt lat="42.6951267" lon="-8.8159067"><ele>273.59999999999997</ele><time>2026-04-17T10:26:51.898Z</time></trkpt><trkpt lat="42.6950433" lon="-8.8160067"><ele>273.4</ele><time>2026-04-17T10:26:52.897Z</time></trkpt><trkpt lat="42.6949583" lon="-8.8161067"><ele>273.2</ele><time>2026-04-17T10:26:53.898Z</time></trkpt><trkpt lat="42.694875" lon="-8.8162033"><ele>273.0</ele><time>2026-04-17T10:26:54.897Z</time></trkpt><trkpt lat="42.694795" lon="-8.816305"><ele>273.0</ele><time>2026-04-17T10:26:55.898Z</time></trkpt><trkpt lat="42.6947183" lon="-8.8164033"><ele>273.0</ele><time>2026-04-17T10:26:56.897Z</time></trkpt><trkpt lat="42.6946433" lon="-8.8164983"><ele>273.0</ele><time>2026-04-17T10:26:57.898Z</time></trkpt><trkpt lat="42.6945633" lon="-8.8165967"><ele>273.0</ele><time>2026-04-17T10:26:58.897Z</time></trkpt><trkpt lat="42.6944867" lon="-8.8166867"><ele>273.0</ele><time>2026-04-17T10:26:59.897Z</time></trkpt><trkpt lat="42.6944117" lon="-8.8167783"><ele>269.0</ele><time>2026-04-17T10:27:00.897Z</time></trkpt><trkpt lat="42.6943433" lon="-8.816945"><ele>265.0</ele><time>2026-04-17T10:27:01.897Z</time></trkpt><trkpt lat="42.69427" lon="-8.8170417"><ele>261.0</ele><time>2026-04-17T10:27:02.897Z</time></trkpt><trkpt lat="42.6942" lon="-8.81714"><ele>257.0</ele><time>2026-04-17T10:27:03.897Z</time></trkpt><trkpt lat="42.694125" lon="-8.817235"><ele>253.0</ele><time>2026-04-17T10:27:04.897Z</time></trkpt><trkpt lat="42.6940433" lon="-8.8173183"><ele>253.0</ele><time>2026-04-17T10:27:05.899Z</time></trkpt><trkpt lat="42.6939567" lon="-8.8174067"><ele>253.0</ele><time>2026-04-17T10:27:06.898Z</time></trkpt><trkpt lat="42.69387" lon="-8.8174783"><ele>253.0</ele><time>2026-04-17T10:27:07.899Z</time></trkpt><trkpt lat="42.6937717" lon="-8.8175517"><ele>253.0</ele><time>2026-04-17T10:27:08.898Z</time></trkpt><trkpt lat="42.6936683" lon="-8.81762"><ele>253.0</ele><time>2026-04-17T10:27:09.899Z</time></trkpt><trkpt lat="42.6935633" lon="-8.8176883"><ele>247.5</ele><time>2026-04-17T10:27:10.898Z</time></trkpt><trkpt lat="42.6934633" lon="-8.8177633"><ele>242.0</ele><time>2026-04-17T10:27:11.898Z</time></trkpt><trkpt lat="42.693375" lon="-8.8178683"><ele>236.5</ele><time>2026-04-17T10:27:12.898Z</time></trkpt><trkpt lat="42.69331" lon="-8.8180017"><ele>231.0</ele><time>2026-04-17T10:27:13.898Z</time></trkpt><trkpt lat="42.6932583" lon="-8.8181533"><ele>231.0</ele><time>2026-04-17T10:27:14.898Z</time></trkpt><trkpt lat="42.69323" lon="-8.8183167"><ele>231.0</ele><time>2026-04-17T10:27:15.898Z</time></trkpt><trkpt lat="42.6932117" lon="-8.8184817"><ele>231.0</ele><time>2026-04-17T10:27:16.899Z</time></trkpt><trkpt lat="42.6932083" lon="-8.818665"><ele>231.0</ele><time>2026-04-17T10:27:17.899Z</time></trkpt><trkpt lat="42.6932133" lon="-8.8188483"><ele>230.25</ele><time>2026-04-17T10:27:18.899Z</time></trkpt><trkpt lat="42.6932167" lon="-8.81903"><ele>229.5</ele><time>2026-04-17T10:27:19.898Z</time></trkpt><trkpt lat="42.6932167" lon="-8.8191817"><ele>228.75</ele><time>2026-04-17T10:27:20.899Z</time></trkpt><trkpt lat="42.6932167" lon="-8.81934"><ele>228.0</ele><time>2026-04-17T10:27:21.898Z</time></trkpt><trkpt lat="42.6932183" lon="-8.8194983"><ele>227.2</ele><time>2026-04-17T10:27:22.899Z</time></trkpt><trkpt lat="42.69321" lon="-8.819645"><ele>226.4</ele><time>2026-04-17T10:27:23.899Z</time></trkpt><trkpt lat="42.693195" lon="-8.8197917"><ele>225.59999999999997</ele><time>2026-04-17T10:27:24.898Z</time></trkpt><trkpt lat="42.6931733" lon="-8.81994"><ele>224.79999999999998</ele><time>2026-04-17T10:27:25.899Z</time></trkpt><trkpt lat="42.6931333" lon="-8.8200783"><ele>224.0</ele><time>2026-04-17T10:27:26.898Z</time></trkpt><trkpt lat="42.6930867" lon="-8.820215"><ele>222.75</ele><time>2026-04-17T10:27:27.899Z</time></trkpt><trkpt lat="42.6930317" lon="-8.820345"><ele>221.5</ele><time>2026-04-17T10:27:28.898Z</time></trkpt><trkpt lat="42.692975" lon="-8.8204817"><ele>220.25</ele><time>2026-04-17T10:27:29.899Z</time></trkpt><trkpt lat="42.6929067" lon="-8.820605"><ele>219.0</ele><time>2026-04-17T10:27:30.899Z</time></trkpt><trkpt lat="42.69282" lon="-8.820705"><ele>215.75</ele><time>2026-04-17T10:27:31.898Z</time></trkpt><trkpt lat="42.6927333" lon="-8.820805"><ele>212.5</ele><time>2026-04-17T10:27:32.898Z</time></trkpt><trkpt lat="42.6926433" lon="-8.8209083"><ele>209.25</ele><time>2026-04-17T10:27:33.899Z</time></trkpt><trkpt lat="42.692545" lon="-8.8209983"><ele>206.0</ele><time>2026-04-17T10:27:34.899Z</time></trkpt><trkpt lat="42.69244" lon="-8.82108"><ele>206.0</ele><time>2026-04-17T10:27:35.899Z</time></trkpt><trkpt lat="42.6923367" lon="-8.821155"><ele>206.0</ele><time>2026-04-17T10:27:36.898Z</time></trkpt><trkpt lat="42.6922267" lon="-8.8212067"><ele>206.0</ele><time>2026-04-17T10:27:37.898Z</time></trkpt><trkpt lat="42.6921233" lon="-8.821255"><ele>206.0</ele><time>2026-04-17T10:27:38.899Z</time></trkpt><trkpt lat="42.6920083" lon="-8.821295"><ele>205.0</ele><time>2026-04-17T10:27:39.898Z</time></trkpt><trkpt lat="42.691895" lon="-8.821335"><ele>204.0</ele><time>2026-04-17T10:27:40.899Z</time></trkpt><trkpt lat="42.6917783" lon="-8.8213683"><ele>203.0</ele><time>2026-04-17T10:27:41.899Z</time></trkpt><trkpt lat="42.6916617" lon="-8.8214083"><ele>202.0</ele><time>2026-04-17T10:27:42.899Z</time></trkpt><trkpt lat="42.691555" lon="-8.8214533"><ele>202.0</ele><time>2026-04-17T10:27:43.898Z</time></trkpt><trkpt lat="42.6914433" lon="-8.8214933"><ele>202.0</ele><time>2026-04-17T10:27:44.898Z</time></trkpt><trkpt lat="42.6913267" lon="-8.8215383"><ele>202.0</ele><time>2026-04-17T10:27:45.898Z</time></trkpt><trkpt lat="42.6912167" lon="-8.8215817"><ele>202.0</ele><time>2026-04-17T10:27:46.899Z</time></trkpt><trkpt lat="42.6911017" lon="-8.8216167"><ele>200.25</ele><time>2026-04-17T10:27:47.898Z</time></trkpt><trkpt lat="42.6909883" lon="-8.8216467"><ele>198.5</ele><time>2026-04-17T10:27:48.898Z</time></trkpt><trkpt lat="42.6908767" lon="-8.8216667"><ele>196.75</ele><time>2026-04-17T10:27:49.898Z</time></trkpt><trkpt lat="42.690765" lon="-8.8216767"><ele>195.0</ele><time>2026-04-17T10:27:50.899Z</time></trkpt><trkpt lat="42.690655" lon="-8.82168"><ele>195.0</ele><time>2026-04-17T10:27:51.898Z</time></trkpt><trkpt lat="42.69054" lon="-8.8216767"><ele>195.0</ele><time>2026-04-17T10:27:52.898Z</time></trkpt><trkpt lat="42.6904333" lon="-8.8216583"><ele>195.0</ele><time>2026-04-17T10:27:53.899Z</time></trkpt><trkpt lat="42.6903283" lon="-8.8216267"><ele>195.0</ele><time>2026-04-17T10:27:54.898Z</time></trkpt><trkpt lat="42.6902183" lon="-8.82159"><ele>195.0</ele><time>2026-04-17T10:27:55.898Z</time></trkpt><trkpt lat="42.6901067" lon="-8.8215533"><ele>193.2</ele><time>2026-04-17T10:27:56.898Z</time></trkpt><trkpt lat="42.6899933" lon="-8.821525"><ele>191.4</ele><time>2026-04-17T10:27:57.898Z</time></trkpt><trkpt lat="42.689885" lon="-8.82152"><ele>189.60000000000002</ele><time>2026-04-17T10:27:58.899Z</time></trkpt><trkpt lat="42.6897767" lon="-8.82154"><ele>187.8</ele><time>2026-04-17T10:27:59.899Z</time></trkpt><trkpt lat="42.6896733" lon="-8.8215867"><ele>186.0</ele><time>2026-04-17T10:28:00.899Z</time></trkpt><trkpt lat="42.689575" lon="-8.821645"><ele>186.0</ele><time>2026-04-17T10:28:01.898Z</time></trkpt><trkpt lat="42.6894817" lon="-8.82172"><ele>186.0</ele><time>2026-04-17T10:28:02.899Z</time></trkpt><trkpt lat="42.6894033" lon="-8.82182"><ele>186.0</ele><time>2026-04-17T10:28:03.899Z</time></trkpt><trkpt lat="42.68934" lon="-8.8219417"><ele>186.0</ele><time>2026-04-17T10:28:04.899Z</time></trkpt><trkpt lat="42.6892917" lon="-8.82207"><ele>186.0</ele><time>2026-04-17T10:28:05.898Z</time></trkpt><trkpt lat="42.6892483" lon="-8.822205"><ele>183.60000000000002</ele><time>2026-04-17T10:28:06.898Z</time></trkpt><trkpt lat="42.6892083" lon="-8.822325"><ele>181.2</ele><time>2026-04-17T10:28:07.898Z</time></trkpt><trkpt lat="42.6891683" lon="-8.822445"><ele>178.8</ele><time>2026-04-17T10:28:08.899Z</time></trkpt><trkpt lat="42.6891233" lon="-8.8225683"><ele>176.39999999999998</ele><time>2026-04-17T10:28:09.899Z</time></trkpt><trkpt lat="42.6890867" lon="-8.822705"><ele>174.0</ele><time>2026-04-17T10:28:10.899Z</time></trkpt><trkpt lat="42.6890417" lon="-8.8228417"><ele>173.6</ele><time>2026-04-17T10:28:11.899Z</time></trkpt><trkpt lat="42.6889917" lon="-8.8229783"><ele>173.2</ele><time>2026-04-17T10:28:12.898Z</time></trkpt><trkpt lat="42.6889217" lon="-8.82309"><ele>172.79999999999998</ele><time>2026-04-17T10:28:13.899Z</time></trkpt><trkpt lat="42.68884" lon="-8.8231783"><ele>172.39999999999998</ele><time>2026-04-17T10:28:14.898Z</time></trkpt><trkpt lat="42.68875" lon="-8.8232517"><ele>172.0</ele><time>2026-04-17T10:28:15.898Z</time></trkpt><trkpt lat="42.68865" lon="-8.8232933"><ele>170.0</ele><time>2026-04-17T10:28:16.898Z</time></trkpt><trkpt lat="42.68854" lon="-8.823315"><ele>168.0</ele><time>2026-04-17T10:28:17.898Z</time></trkpt><trkpt lat="42.6884233" lon="-8.8233217"><ele>166.0</ele><time>2026-04-17T10:28:18.899Z</time></trkpt><trkpt lat="42.6883017" lon="-8.82332"><ele>164.0</ele><time>2026-04-17T10:28:19.898Z</time></trkpt><trkpt lat="42.6881783" lon="-8.8233167"><ele>164.0</ele><time>2026-04-17T10:28:20.898Z</time></trkpt><trkpt lat="42.6880567" lon="-8.8233167"><ele>164.0</ele><time>2026-04-17T10:28:21.898Z</time></trkpt><trkpt lat="42.6879417" lon="-8.8233233"><ele>164.0</ele><time>2026-04-17T10:28:22.898Z</time></trkpt><trkpt lat="42.68783" lon="-8.8233383"><ele>164.0</ele><time>2026-04-17T10:28:23.898Z</time></trkpt><trkpt lat="42.6877183" lon="-8.8233683"><ele>163.0</ele><time>2026-04-17T10:28:24.898Z</time></trkpt><trkpt lat="42.6876033" lon="-8.823415"><ele>162.0</ele><time>2026-04-17T10:28:25.898Z</time></trkpt><trkpt lat="42.6874867" lon="-8.8234683"><ele>161.0</ele><time>2026-04-17T10:28:26.899Z</time></trkpt><trkpt lat="42.6873767" lon="-8.8235267"><ele>160.0</ele><time>2026-04-17T10:28:27.899Z</time></trkpt><trkpt lat="42.6872567" lon="-8.8235833"><ele>160.0</ele><time>2026-04-17T10:28:28.899Z</time></trkpt><trkpt lat="42.6871433" lon="-8.823655"><ele>160.0</ele><time>2026-04-17T10:28:29.898Z</time></trkpt><trkpt lat="42.6870367" lon="-8.823725"><ele>160.0</ele><time>2026-04-17T10:28:30.899Z</time></trkpt><trkpt lat="42.6869317" lon="-8.823815"><ele>160.0</ele><time>2026-04-17T10:28:31.899Z</time></trkpt><trkpt lat="42.6868233" lon="-8.823895"><ele>158.0</ele><time>2026-04-17T10:28:32.899Z</time></trkpt><trkpt lat="42.6867267" lon="-8.8239767"><ele>156.0</ele><time>2026-04-17T10:28:33.899Z</time></trkpt><trkpt lat="42.68663" lon="-8.8240583"><ele>154.0</ele><time>2026-04-17T10:28:34.899Z</time></trkpt><trkpt lat="42.6865333" lon="-8.8241467"><ele>152.0</ele><time>2026-04-17T10:28:35.899Z</time></trkpt><trkpt lat="42.68643" lon="-8.8242317"><ele>152.0</ele><time>2026-04-17T10:28:36.899Z</time></trkpt><trkpt lat="42.6863183" lon="-8.8243117"><ele>152.0</ele><time>2026-04-17T10:28:37.898Z</time></trkpt><trkpt lat="42.6862133" lon="-8.8243783"><ele>152.0</ele><time>2026-04-17T10:28:38.898Z</time></trkpt><trkpt lat="42.6861117" lon="-8.8244267"><ele>152.0</ele><time>2026-04-17T10:28:39.898Z</time></trkpt><trkpt lat="42.686005" lon="-8.8244667"><ele>151.2</ele><time>2026-04-17T10:28:40.899Z</time></trkpt><trkpt lat="42.6859" lon="-8.8244933"><ele>150.39999999999998</ele><time>2026-04-17T10:28:41.899Z</time></trkpt><trkpt lat="42.6858" lon="-8.8245067"><ele>149.60000000000002</ele><time>2026-04-17T10:28:42.898Z</time></trkpt><trkpt lat="42.6856933" lon="-8.8245"><ele>148.8</ele><time>2026-04-17T10:28:43.898Z</time></trkpt><trkpt lat="42.6855867" lon="-8.824485"><ele>148.0</ele><time>2026-04-17T10:28:44.898Z</time></trkpt><trkpt lat="42.6854767" lon="-8.824475"><ele>148.0</ele><time>2026-04-17T10:28:45.898Z</time></trkpt><trkpt lat="42.6853733" lon="-8.824455"><ele>148.0</ele><time>2026-04-17T10:28:46.899Z</time></trkpt><trkpt lat="42.685265" lon="-8.8244483"><ele>148.0</ele><time>2026-04-17T10:28:47.898Z</time></trkpt><trkpt lat="42.6851517" lon="-8.8244467"><ele>148.0</ele><time>2026-04-17T10:28:48.899Z</time></trkpt><trkpt lat="42.68504" lon="-8.8244367"><ele>148.0</ele><time>2026-04-17T10:28:49.899Z</time></trkpt><trkpt lat="42.6849317" lon="-8.8244283"><ele>148.25</ele><time>2026-04-17T10:28:50.898Z</time></trkpt><trkpt lat="42.6848217" lon="-8.824425"><ele>148.5</ele><time>2026-04-17T10:28:51.899Z</time></trkpt><trkpt lat="42.6847067" lon="-8.82443"><ele>148.75</ele><time>2026-04-17T10:28:52.899Z</time></trkpt><trkpt lat="42.68459" lon="-8.8244317"><ele>149.0</ele><time>2026-04-17T10:28:53.898Z</time></trkpt><trkpt lat="42.6844733" lon="-8.8244467"><ele>147.6</ele><time>2026-04-17T10:28:54.898Z</time></trkpt><trkpt lat="42.68436" lon="-8.8244783"><ele>146.2</ele><time>2026-04-17T10:28:55.898Z</time></trkpt><trkpt lat="42.6842517" lon="-8.8245083"><ele>144.79999999999998</ele><time>2026-04-17T10:28:56.899Z</time></trkpt><trkpt lat="42.6841417" lon="-8.824555"><ele>143.4</ele><time>2026-04-17T10:28:57.898Z</time></trkpt><trkpt lat="42.68404" lon="-8.8246033"><ele>142.0</ele><time>2026-04-17T10:28:58.899Z</time></trkpt><trkpt lat="42.6839417" lon="-8.8246567"><ele>142.0</ele><time>2026-04-17T10:28:59.898Z</time></trkpt><trkpt lat="42.6838383" lon="-8.82472"><ele>142.0</ele><time>2026-04-17T10:29:00.899Z</time></trkpt><trkpt lat="42.6837333" lon="-8.824785"><ele>142.0</ele><time>2026-04-17T10:29:01.899Z</time></trkpt><trkpt lat="42.68363" lon="-8.8248433"><ele>142.0</ele><time>2026-04-17T10:29:02.898Z</time></trkpt><trkpt lat="42.683515" lon="-8.82491"><ele>140.0</ele><time>2026-04-17T10:29:03.898Z</time></trkpt><trkpt lat="42.683405" lon="-8.8249717"><ele>138.0</ele><time>2026-04-17T10:29:04.899Z</time></trkpt><trkpt lat="42.6832933" lon="-8.8250283"><ele>136.0</ele><time>2026-04-17T10:29:05.898Z</time></trkpt><trkpt lat="42.6831883" lon="-8.825095"><ele>134.0</ele><time>2026-04-17T10:29:06.898Z</time></trkpt><trkpt lat="42.6830833" lon="-8.8251567"><ele>133.0</ele><time>2026-04-17T10:29:07.899Z</time></trkpt><trkpt lat="42.6829733" lon="-8.8252133"><ele>132.0</ele><time>2026-04-17T10:29:08.899Z</time></trkpt><trkpt lat="42.68287" lon="-8.8252717"><ele>131.0</ele><time>2026-04-17T10:29:09.899Z</time></trkpt><trkpt lat="42.68276" lon="-8.82532"><ele>130.0</ele><time>2026-04-17T10:29:10.898Z</time></trkpt><trkpt lat="42.68265" lon="-8.8253733"><ele>129.25</ele><time>2026-04-17T10:29:11.898Z</time></trkpt><trkpt lat="42.682525" lon="-8.8254083"><ele>128.5</ele><time>2026-04-17T10:29:12.899Z</time></trkpt><trkpt lat="42.6824067" lon="-8.825445"><ele>127.75</ele><time>2026-04-17T10:29:13.899Z</time></trkpt><trkpt lat="42.682305" lon="-8.8254767"><ele>127.0</ele><time>2026-04-17T10:29:14.899Z</time></trkpt><trkpt lat="42.6822" lon="-8.8254983"><ele>127.00000000000001</ele><time>2026-04-17T10:29:15.899Z</time></trkpt><trkpt lat="42.682105" lon="-8.825525"><ele>127.0</ele><time>2026-04-17T10:29:16.898Z</time></trkpt><trkpt lat="42.68202" lon="-8.82553"><ele>127.0</ele><time>2026-04-17T10:29:17.899Z</time></trkpt><trkpt lat="42.6819367" lon="-8.8255"><ele>127.0</ele><time>2026-04-17T10:29:18.898Z</time></trkpt><trkpt lat="42.68187" lon="-8.825445"><ele>127.00000000000001</ele><time>2026-04-17T10:29:19.899Z</time></trkpt><trkpt lat="42.6818167" lon="-8.8253867"><ele>127.0</ele><time>2026-04-17T10:29:20.898Z</time></trkpt><trkpt lat="42.6818233" lon="-8.8251983"><ele>127.25</ele><time>2026-04-17T10:29:22.899Z</time></trkpt><trkpt lat="42.6819033" lon="-8.8250367"><ele>127.5</ele><time>2026-04-17T10:29:23.899Z</time></trkpt><trkpt lat="42.6819683" lon="-8.8249083"><ele>127.75</ele><time>2026-04-17T10:29:24.898Z</time></trkpt><trkpt lat="42.682035" lon="-8.8247917"><ele>128.0</ele><time>2026-04-17T10:29:25.898Z</time></trkpt><trkpt lat="42.6821033" lon="-8.82468"><ele>128.8</ele><time>2026-04-17T10:29:26.898Z</time></trkpt><trkpt lat="42.6821783" lon="-8.82458"><ele>129.60000000000002</ele><time>2026-04-17T10:29:27.898Z</time></trkpt><trkpt lat="42.682255" lon="-8.824475"><ele>130.39999999999998</ele><time>2026-04-17T10:29:28.899Z</time></trkpt><trkpt lat="42.6823333" lon="-8.8243767"><ele>131.2</ele><time>2026-04-17T10:29:29.898Z</time></trkpt><trkpt lat="42.6824183" lon="-8.8243033"><ele>132.0</ele><time>2026-04-17T10:29:30.899Z</time></trkpt><trkpt lat="42.6825117" lon="-8.8242417"><ele>130.4</ele><time>2026-04-17T10:29:31.898Z</time></trkpt><trkpt lat="42.6826033" lon="-8.82419"><ele>128.79999999999998</ele><time>2026-04-17T10:29:32.898Z</time></trkpt><trkpt lat="42.6827083" lon="-8.8241317"><ele>127.2</ele><time>2026-04-17T10:29:33.898Z</time></trkpt><trkpt lat="42.6828183" lon="-8.8240833"><ele>125.6</ele><time>2026-04-17T10:29:34.898Z</time></trkpt><trkpt lat="42.6829217" lon="-8.82404"><ele>124.0</ele><time>2026-04-17T10:29:35.898Z</time></trkpt><trkpt lat="42.6830267" lon="-8.8240033"><ele>124.0</ele><time>2026-04-17T10:29:36.899Z</time></trkpt><trkpt lat="42.683125" lon="-8.8239633"><ele>124.0</ele><time>2026-04-17T10:29:37.898Z</time></trkpt><trkpt lat="42.6832283" lon="-8.8239183"><ele>124.0</ele><time>2026-04-17T10:29:38.899Z</time></trkpt><trkpt lat="42.6833333" lon="-8.823865"><ele>124.0</ele><time>2026-04-17T10:29:39.899Z</time></trkpt><trkpt lat="42.683435" lon="-8.8237833"><ele>124.0</ele><time>2026-04-17T10:29:40.898Z</time></trkpt><trkpt lat="42.6835267" lon="-8.8237067"><ele>125.6</ele><time>2026-04-17T10:29:41.899Z</time></trkpt><trkpt lat="42.6836083" lon="-8.823625"><ele>127.2</ele><time>2026-04-17T10:29:42.898Z</time></trkpt><trkpt lat="42.6836883" lon="-8.8235333"><ele>128.79999999999998</ele><time>2026-04-17T10:29:43.898Z</time></trkpt><trkpt lat="42.6837667" lon="-8.8234367"><ele>130.4</ele><time>2026-04-17T10:29:44.898Z</time></trkpt><trkpt lat="42.6838417" lon="-8.82333"><ele>132.0</ele><time>2026-04-17T10:29:45.899Z</time></trkpt><trkpt lat="42.6839083" lon="-8.8232217"><ele>128.2</ele><time>2026-04-17T10:29:46.898Z</time></trkpt><trkpt lat="42.68395" lon="-8.82311"><ele>124.39999999999999</ele><time>2026-04-17T10:29:47.899Z</time></trkpt><trkpt lat="42.6839633" lon="-8.8229917"><ele>120.60000000000001</ele><time>2026-04-17T10:29:48.899Z</time></trkpt><trkpt lat="42.6839533" lon="-8.8228633"><ele>116.80000000000001</ele><time>2026-04-17T10:29:49.898Z</time></trkpt><trkpt lat="42.6839083" lon="-8.82276"><ele>113.0</ele><time>2026-04-17T10:29:50.898Z</time></trkpt><trkpt lat="42.6838083" lon="-8.8227033"><ele>113.0</ele><time>2026-04-17T10:29:51.898Z</time></trkpt><trkpt lat="42.6837" lon="-8.8226767"><ele>113.0</ele><time>2026-04-17T10:29:52.899Z</time></trkpt><trkpt lat="42.683585" lon="-8.8226533"><ele>113.0</ele><time>2026-04-17T10:29:53.898Z</time></trkpt><trkpt lat="42.68347" lon="-8.82262"><ele>113.0</ele><time>2026-04-17T10:29:54.898Z</time></trkpt><trkpt lat="42.683355" lon="-8.8225883"><ele>108.25</ele><time>2026-04-17T10:29:55.899Z</time></trkpt><trkpt lat="42.683245" lon="-8.822545"><ele>103.5</ele><time>2026-04-17T10:29:56.899Z</time></trkpt><trkpt lat="42.68313" lon="-8.822505"><ele>98.75</ele><time>2026-04-17T10:29:57.899Z</time></trkpt><trkpt lat="42.68302" lon="-8.82246"><ele>94.0</ele><time>2026-04-17T10:29:58.899Z</time></trkpt><trkpt lat="42.68291" lon="-8.8224133"><ele>94.0</ele><time>2026-04-17T10:29:59.899Z</time></trkpt><trkpt lat="42.6828017" lon="-8.822355"><ele>94.0</ele><time>2026-04-17T10:30:00.898Z</time></trkpt><trkpt lat="42.6826967" lon="-8.8222917"><ele>94.0</ele><time>2026-04-17T10:30:01.898Z</time></trkpt><trkpt lat="42.6825917" lon="-8.8222283"><ele>94.0</ele><time>2026-04-17T10:30:02.898Z</time></trkpt><trkpt lat="42.68249" lon="-8.8221667"><ele>92.5</ele><time>2026-04-17T10:30:03.899Z</time></trkpt><trkpt lat="42.6823867" lon="-8.8221033"><ele>91.0</ele><time>2026-04-17T10:30:04.899Z</time></trkpt><trkpt lat="42.6822833" lon="-8.8220383"><ele>89.5</ele><time>2026-04-17T10:30:05.899Z</time></trkpt><trkpt lat="42.682175" lon="-8.8219833"><ele>88.0</ele><time>2026-04-17T10:30:06.899Z</time></trkpt><trkpt lat="42.6820633" lon="-8.82193"><ele>88.0</ele><time>2026-04-17T10:30:07.899Z</time></trkpt><trkpt lat="42.681955" lon="-8.82188"><ele>88.0</ele><time>2026-04-17T10:30:08.898Z</time></trkpt><trkpt lat="42.681845" lon="-8.8218283"><ele>88.0</ele><time>2026-04-17T10:30:09.898Z</time></trkpt><trkpt lat="42.6817433" lon="-8.821775"><ele>88.0</ele><time>2026-04-17T10:30:10.899Z</time></trkpt><trkpt lat="42.6816383" lon="-8.8217267"><ele>84.4</ele><time>2026-04-17T10:30:11.899Z</time></trkpt><trkpt lat="42.681535" lon="-8.821685"><ele>80.80000000000001</ele><time>2026-04-17T10:30:12.899Z</time></trkpt><trkpt lat="42.6814267" lon="-8.8216467"><ele>77.2</ele><time>2026-04-17T10:30:13.898Z</time></trkpt><trkpt lat="42.6813167" lon="-8.8216133"><ele>73.6</ele><time>2026-04-17T10:30:14.898Z</time></trkpt><trkpt lat="42.6812167" lon="-8.8216"><ele>70.0</ele><time>2026-04-17T10:30:15.898Z</time></trkpt><trkpt lat="42.681115" lon="-8.8216067"><ele>70.4</ele><time>2026-04-17T10:30:16.898Z</time></trkpt><trkpt lat="42.6810117" lon="-8.8216417"><ele>70.8</ele><time>2026-04-17T10:30:17.899Z</time></trkpt><trkpt lat="42.6809167" lon="-8.8217017"><ele>71.2</ele><time>2026-04-17T10:30:18.899Z</time></trkpt><trkpt lat="42.68083" lon="-8.8217667"><ele>71.6</ele><time>2026-04-17T10:30:19.898Z</time></trkpt><trkpt lat="42.6807333" lon="-8.8218317"><ele>72.0</ele><time>2026-04-17T10:30:20.899Z</time></trkpt><trkpt lat="42.6806467" lon="-8.8219"><ele>72.0</ele><time>2026-04-17T10:30:21.898Z</time></trkpt><trkpt lat="42.6805683" lon="-8.82196"><ele>72.0</ele><time>2026-04-17T10:30:22.898Z</time></trkpt><trkpt lat="42.6804967" lon="-8.8220117"><ele>72.0</ele><time>2026-04-17T10:30:23.898Z</time></trkpt><trkpt lat="42.6804283" lon="-8.8220517"><ele>72.0</ele><time>2026-04-17T10:30:24.898Z</time></trkpt><trkpt lat="42.6803633" lon="-8.822095"><ele>72.0</ele><time>2026-04-17T10:30:25.898Z</time></trkpt><trkpt lat="42.6802917" lon="-8.8221467"><ele>72.0</ele><time>2026-04-17T10:30:26.898Z</time></trkpt><trkpt lat="42.680215" lon="-8.82221"><ele>71.8</ele><time>2026-04-17T10:30:27.899Z</time></trkpt><trkpt lat="42.6801333" lon="-8.8222767"><ele>71.6</ele><time>2026-04-17T10:30:28.899Z</time></trkpt><trkpt lat="42.680055" lon="-8.8223517"><ele>71.39999999999999</ele><time>2026-04-17T10:30:29.899Z</time></trkpt><trkpt lat="42.6799833" lon="-8.8224367"><ele>71.2</ele><time>2026-04-17T10:30:30.899Z</time></trkpt><trkpt lat="42.6799067" lon="-8.8225183"><ele>71.0</ele><time>2026-04-17T10:30:31.899Z</time></trkpt><trkpt lat="42.67983" lon="-8.8226"><ele>71.0</ele><time>2026-04-17T10:30:32.898Z</time></trkpt><trkpt lat="42.6797417" lon="-8.8226467"><ele>71.0</ele><time>2026-04-17T10:30:33.898Z</time></trkpt><trkpt lat="42.6796633" lon="-8.82269"><ele>71.0</ele><time>2026-04-17T10:30:34.899Z</time></trkpt><trkpt lat="42.679585" lon="-8.8227233"><ele>71.0</ele><time>2026-04-17T10:30:35.898Z</time></trkpt><trkpt lat="42.6795067" lon="-8.822735"><ele>71.0</ele><time>2026-04-17T10:30:36.898Z</time></trkpt><trkpt lat="42.6794333" lon="-8.8227333"><ele>71.0</ele><time>2026-04-17T10:30:37.899Z</time></trkpt><trkpt lat="42.6793383" lon="-8.8227017"><ele>70.0</ele><time>2026-04-17T10:30:38.899Z</time></trkpt><trkpt lat="42.6792483" lon="-8.82265"><ele>69.0</ele><time>2026-04-17T10:30:39.898Z</time></trkpt><trkpt lat="42.6791483" lon="-8.8225717"><ele>68.0</ele><time>2026-04-17T10:30:40.899Z</time></trkpt><trkpt lat="42.6790467" lon="-8.8224583"><ele>67.0</ele><time>2026-04-17T10:30:41.899Z</time></trkpt><trkpt lat="42.6789733" lon="-8.822335"><ele>67.0</ele><time>2026-04-17T10:30:42.899Z</time></trkpt><trkpt lat="42.6789083" lon="-8.8222233"><ele>67.0</ele><time>2026-04-17T10:30:43.898Z</time></trkpt><trkpt lat="42.6788433" lon="-8.8221117"><ele>67.0</ele><time>2026-04-17T10:30:44.899Z</time></trkpt><trkpt lat="42.67877" lon="-8.8220117"><ele>67.0</ele><time>2026-04-17T10:30:45.898Z</time></trkpt><trkpt lat="42.67869" lon="-8.8219233"><ele>67.0</ele><time>2026-04-17T10:30:46.898Z</time></trkpt><trkpt lat="42.6786117" lon="-8.8218367"><ele>64.4</ele><time>2026-04-17T10:30:47.898Z</time></trkpt><trkpt lat="42.6785317" lon="-8.8217467"><ele>61.800000000000004</ele><time>2026-04-17T10:30:48.898Z</time></trkpt><trkpt lat="42.67846" lon="-8.82164"><ele>59.2</ele><time>2026-04-17T10:30:49.899Z</time></trkpt><trkpt lat="42.6784" lon="-8.8215217"><ele>56.6</ele><time>2026-04-17T10:30:50.898Z</time></trkpt><trkpt lat="42.67834" lon="-8.82141"><ele>54.0</ele><time>2026-04-17T10:30:51.899Z</time></trkpt><trkpt lat="42.6782567" lon="-8.8212983"><ele>54.0</ele><time>2026-04-17T10:30:52.898Z</time></trkpt><trkpt lat="42.6782117" lon="-8.8211817"><ele>54.00000000000001</ele><time>2026-04-17T10:30:53.898Z</time></trkpt><trkpt lat="42.67818" lon="-8.821075"><ele>54.00000000000001</ele><time>2026-04-17T10:30:54.898Z</time></trkpt><trkpt lat="42.6781467" lon="-8.821"><ele>54.0</ele><time>2026-04-17T10:30:55.899Z</time></trkpt><trkpt lat="42.6780683" lon="-8.8209833"><ele>54.0</ele><time>2026-04-17T10:30:57.898Z</time></trkpt><trkpt lat="42.6779833" lon="-8.8211267"><ele>54.0</ele><time>2026-04-17T10:30:59.898Z</time></trkpt><trkpt lat="42.677925" lon="-8.821235"><ele>54.00000000000001</ele><time>2026-04-17T10:31:00.898Z</time></trkpt><trkpt lat="42.6778483" lon="-8.821335"><ele>54.00000000000001</ele><time>2026-04-17T10:31:01.898Z</time></trkpt><trkpt lat="42.6777733" lon="-8.8214283"><ele>54.0</ele><time>2026-04-17T10:31:02.899Z</time></trkpt><trkpt lat="42.6776983" lon="-8.8215183"><ele>54.0</ele><time>2026-04-17T10:31:03.899Z</time></trkpt><trkpt lat="42.6776217" lon="-8.8216133"><ele>53.400000000000006</ele><time>2026-04-17T10:31:04.898Z</time></trkpt><trkpt lat="42.6775433" lon="-8.8217033"><ele>52.800000000000004</ele><time>2026-04-17T10:31:05.899Z</time></trkpt><trkpt lat="42.6774617" lon="-8.8217933"><ele>52.2</ele><time>2026-04-17T10:31:06.898Z</time></trkpt><trkpt lat="42.677385" lon="-8.821885"><ele>51.599999999999994</ele><time>2026-04-17T10:31:07.898Z</time></trkpt><trkpt lat="42.677305" lon="-8.82197"><ele>51.0</ele><time>2026-04-17T10:31:08.898Z</time></trkpt><trkpt lat="42.677225" lon="-8.8220533"><ele>51.199999999999996</ele><time>2026-04-17T10:31:09.898Z</time></trkpt><trkpt lat="42.6771467" lon="-8.8221533"><ele>51.4</ele><time>2026-04-17T10:31:10.899Z</time></trkpt><trkpt lat="42.6770667" lon="-8.8222417"><ele>51.6</ele><time>2026-04-17T10:31:11.899Z</time></trkpt><trkpt lat="42.6769917" lon="-8.822335"><ele>51.8</ele><time>2026-04-17T10:31:12.899Z</time></trkpt><trkpt lat="42.676915" lon="-8.8224233"><ele>52.0</ele><time>2026-04-17T10:31:13.899Z</time></trkpt><trkpt lat="42.676835" lon="-8.822515"><ele>52.0</ele><time>2026-04-17T10:31:14.899Z</time></trkpt><trkpt lat="42.67676" lon="-8.8226083"><ele>52.0</ele><time>2026-04-17T10:31:15.899Z</time></trkpt><trkpt lat="42.67668" lon="-8.8226917"><ele>52.0</ele><time>2026-04-17T10:31:16.898Z</time></trkpt><trkpt lat="42.6765967" lon="-8.8227867"><ele>52.0</ele><time>2026-04-17T10:31:17.899Z</time></trkpt><trkpt lat="42.6765283" lon="-8.8228783"><ele>52.0</ele><time>2026-04-17T10:31:18.898Z</time></trkpt><trkpt lat="42.6764533" lon="-8.8229667"><ele>52.400000000000006</ele><time>2026-04-17T10:31:19.899Z</time></trkpt><trkpt lat="42.67638" lon="-8.8230533"><ele>52.800000000000004</ele><time>2026-04-17T10:31:20.899Z</time></trkpt><trkpt lat="42.6763" lon="-8.8231317"><ele>53.2</ele><time>2026-04-17T10:31:21.898Z</time></trkpt><trkpt lat="42.676235" lon="-8.8232083"><ele>53.6</ele><time>2026-04-17T10:31:22.899Z</time></trkpt><trkpt lat="42.6761633" lon="-8.8232883"><ele>54.0</ele><time>2026-04-17T10:31:23.899Z</time></trkpt><trkpt lat="42.6760917" lon="-8.8233733"><ele>54.0</ele><time>2026-04-17T10:31:24.899Z</time></trkpt><trkpt lat="42.67602" lon="-8.8234633"><ele>54.00000000000001</ele><time>2026-04-17T10:31:25.898Z</time></trkpt><trkpt lat="42.6759433" lon="-8.8235383"><ele>54.00000000000001</ele><time>2026-04-17T10:31:26.899Z</time></trkpt><trkpt lat="42.6758633" lon="-8.8236183"><ele>54.0</ele><time>2026-04-17T10:31:27.898Z</time></trkpt><trkpt lat="42.675775" lon="-8.8236917"><ele>54.0</ele><time>2026-04-17T10:31:28.899Z</time></trkpt><trkpt lat="42.6756767" lon="-8.8237517"><ele>56.25</ele><time>2026-04-17T10:31:29.899Z</time></trkpt><trkpt lat="42.67557" lon="-8.8238017"><ele>58.5</ele><time>2026-04-17T10:31:30.899Z</time></trkpt><trkpt lat="42.6754617" lon="-8.82385"><ele>60.75</ele><time>2026-04-17T10:31:31.899Z</time></trkpt><trkpt lat="42.675355" lon="-8.8238883"><ele>63.0</ele><time>2026-04-17T10:31:32.898Z</time></trkpt><trkpt lat="42.67524" lon="-8.823925"><ele>63.0</ele><time>2026-04-17T10:31:33.898Z</time></trkpt><trkpt lat="42.6751317" lon="-8.823955"><ele>63.0</ele><time>2026-04-17T10:31:34.899Z</time></trkpt><trkpt lat="42.6750333" lon="-8.8239883"><ele>63.0</ele><time>2026-04-17T10:31:35.898Z</time></trkpt><trkpt lat="42.6749317" lon="-8.824015"><ele>63.0</ele><time>2026-04-17T10:31:36.898Z</time></trkpt><trkpt lat="42.6748383" lon="-8.8240533"><ele>63.0</ele><time>2026-04-17T10:31:37.898Z</time></trkpt><trkpt lat="42.6747467" lon="-8.8240933"><ele>63.0</ele><time>2026-04-17T10:31:38.898Z</time></trkpt><trkpt lat="42.674655" lon="-8.8241483"><ele>63.0</ele><time>2026-04-17T10:31:39.899Z</time></trkpt><trkpt lat="42.674565" lon="-8.8242133"><ele>63.0</ele><time>2026-04-17T10:31:40.898Z</time></trkpt><trkpt lat="42.674485" lon="-8.824285"><ele>63.0</ele><time>2026-04-17T10:31:41.899Z</time></trkpt><trkpt lat="42.6744217" lon="-8.824385"><ele>63.0</ele><time>2026-04-17T10:31:42.898Z</time></trkpt><trkpt lat="42.6743683" lon="-8.82449"><ele>63.8</ele><time>2026-04-17T10:31:43.899Z</time></trkpt><trkpt lat="42.6743167" lon="-8.8245983"><ele>64.6</ele><time>2026-04-17T10:31:44.899Z</time></trkpt><trkpt lat="42.6742817" lon="-8.8247083"><ele>65.4</ele><time>2026-04-17T10:31:45.899Z</time></trkpt><trkpt lat="42.6742683" lon="-8.8248267"><ele>66.2</ele><time>2026-04-17T10:31:46.898Z</time></trkpt><trkpt lat="42.6742767" lon="-8.8249533"><ele>67.0</ele><time>2026-04-17T10:31:47.898Z</time></trkpt><trkpt lat="42.6742917" lon="-8.8250783"><ele>66.4</ele><time>2026-04-17T10:31:48.899Z</time></trkpt><trkpt lat="42.67432" lon="-8.8252033"><ele>65.80000000000001</ele><time>2026-04-17T10:31:49.898Z</time></trkpt><trkpt lat="42.6743467" lon="-8.8253167"><ele>65.2</ele><time>2026-04-17T10:31:50.899Z</time></trkpt><trkpt lat="42.6743833" lon="-8.8254167"><ele>64.60000000000001</ele><time>2026-04-17T10:31:51.899Z</time></trkpt><trkpt lat="42.674425" lon="-8.8255283"><ele>64.0</ele><time>2026-04-17T10:31:52.899Z</time></trkpt><trkpt lat="42.6744767" lon="-8.8256467"><ele>64.0</ele><time>2026-04-17T10:31:53.898Z</time></trkpt><trkpt lat="42.6745317" lon="-8.825765"><ele>64.0</ele><time>2026-04-17T10:31:54.899Z</time></trkpt><trkpt lat="42.6745883" lon="-8.825885"><ele>64.0</ele><time>2026-04-17T10:31:55.898Z</time></trkpt><trkpt lat="42.674645" lon="-8.8260017"><ele>64.0</ele><time>2026-04-17T10:31:56.899Z</time></trkpt><trkpt lat="42.6747" lon="-8.8261117"><ele>64.0</ele><time>2026-04-17T10:31:57.898Z</time></trkpt><trkpt lat="42.674755" lon="-8.8262233"><ele>62.99999999999999</ele><time>2026-04-17T10:31:58.899Z</time></trkpt><trkpt lat="42.674805" lon="-8.8263267"><ele>62.0</ele><time>2026-04-17T10:31:59.898Z</time></trkpt><trkpt lat="42.6748633" lon="-8.826415"><ele>61.0</ele><time>2026-04-17T10:32:00.899Z</time></trkpt><trkpt lat="42.674905" lon="-8.8264917"><ele>60.0</ele><time>2026-04-17T10:32:01.899Z</time></trkpt><trkpt lat="42.67494" lon="-8.826595"><ele>58.99999999999999</ele><time>2026-04-17T10:32:03.898Z</time></trkpt><trkpt lat="42.6748783" lon="-8.82666"><ele>58.0</ele><time>2026-04-17T10:32:05.899Z</time></trkpt><trkpt lat="42.674745" lon="-8.8266617"><ele>58.0</ele><time>2026-04-17T10:32:07.898Z</time></trkpt><trkpt lat="42.6746533" lon="-8.8266517"><ele>58.0</ele><time>2026-04-17T10:32:08.899Z</time></trkpt><trkpt lat="42.6745517" lon="-8.8266483"><ele>58.0</ele><time>2026-04-17T10:32:09.899Z</time></trkpt><trkpt lat="42.6744617" lon="-8.8266433"><ele>58.0</ele><time>2026-04-17T10:32:10.899Z</time></trkpt><trkpt lat="42.6743733" lon="-8.82665"><ele>58.0</ele><time>2026-04-17T10:32:11.899Z</time></trkpt><trkpt lat="42.67429" lon="-8.82666"><ele>57.49999999999999</ele><time>2026-04-17T10:32:12.898Z</time></trkpt><trkpt lat="42.6742183" lon="-8.8266967"><ele>57.0</ele><time>2026-04-17T10:32:13.899Z</time></trkpt><trkpt lat="42.6741567" lon="-8.8267433"><ele>56.5</ele><time>2026-04-17T10:32:14.898Z</time></trkpt><trkpt lat="42.6740983" lon="-8.826805"><ele>56.0</ele><time>2026-04-17T10:32:15.899Z</time></trkpt><trkpt lat="42.674045" lon="-8.8268733"><ele>55.49999999999999</ele><time>2026-04-17T10:32:16.898Z</time></trkpt><trkpt lat="42.6740083" lon="-8.8269683"><ele>55.0</ele><time>2026-04-17T10:32:17.898Z</time></trkpt><trkpt lat="42.6739717" lon="-8.8270817"><ele>53.0</ele><time>2026-04-17T10:32:18.898Z</time></trkpt><trkpt lat="42.67394" lon="-8.8271883"><ele>51.0</ele><time>2026-04-17T10:32:19.898Z</time></trkpt><trkpt lat="42.6738883" lon="-8.8272983"><ele>49.0</ele><time>2026-04-17T10:32:20.898Z</time></trkpt><trkpt lat="42.673825" lon="-8.8274067"><ele>47.0</ele><time>2026-04-17T10:32:21.898Z</time></trkpt><trkpt lat="42.6737517" lon="-8.8274967"><ele>45.0</ele><time>2026-04-17T10:32:22.899Z</time></trkpt><trkpt lat="42.6736683" lon="-8.8275733"><ele>44.833333333333336</ele><time>2026-04-17T10:32:23.898Z</time></trkpt><trkpt lat="42.673585" lon="-8.8276317"><ele>44.666666666666664</ele><time>2026-04-17T10:32:24.898Z</time></trkpt><trkpt lat="42.6735067" lon="-8.8276767"><ele>44.5</ele><time>2026-04-17T10:32:25.899Z</time></trkpt><trkpt lat="42.6734267" lon="-8.8277167"><ele>44.33333333333333</ele><time>2026-04-17T10:32:26.899Z</time></trkpt><trkpt lat="42.6733567" lon="-8.8277433"><ele>44.166666666666664</ele><time>2026-04-17T10:32:27.898Z</time></trkpt><trkpt lat="42.67328" lon="-8.827775"><ele>44.0</ele><time>2026-04-17T10:32:28.899Z</time></trkpt><trkpt lat="42.6732067" lon="-8.827825"><ele>42.2</ele><time>2026-04-17T10:32:29.899Z</time></trkpt><trkpt lat="42.6731267" lon="-8.8278733"><ele>40.400000000000006</ele><time>2026-04-17T10:32:30.899Z</time></trkpt><trkpt lat="42.6730417" lon="-8.8279117"><ele>38.6</ele><time>2026-04-17T10:32:31.899Z</time></trkpt><trkpt lat="42.672945" lon="-8.8279417"><ele>36.8</ele><time>2026-04-17T10:32:32.899Z</time></trkpt><trkpt lat="42.672845" lon="-8.8279683"><ele>35.0</ele><time>2026-04-17T10:32:33.899Z</time></trkpt><trkpt lat="42.6727483" lon="-8.827995"><ele>34.5</ele><time>2026-04-17T10:32:34.899Z</time></trkpt><trkpt lat="42.67266" lon="-8.8280133"><ele>34.0</ele><time>2026-04-17T10:32:35.898Z</time></trkpt><trkpt lat="42.6725767" lon="-8.8280333"><ele>33.5</ele><time>2026-04-17T10:32:36.898Z</time></trkpt><trkpt lat="42.6725017" lon="-8.8280517"><ele>33.0</ele><time>2026-04-17T10:32:37.899Z</time></trkpt><trkpt lat="42.6723833" lon="-8.82811"><ele>32.5</ele><time>2026-04-17T10:32:39.898Z</time></trkpt><trkpt lat="42.6723183" lon="-8.8281383"><ele>32.0</ele><time>2026-04-17T10:32:40.898Z</time></trkpt><trkpt lat="42.67225" lon="-8.8281433"><ele>31.999999999999996</ele><time>2026-04-17T10:32:41.898Z</time></trkpt><trkpt lat="42.6721717" lon="-8.8281233"><ele>32.0</ele><time>2026-04-17T10:32:42.899Z</time></trkpt><trkpt lat="42.672095" lon="-8.8280917"><ele>32.0</ele><time>2026-04-17T10:32:43.899Z</time></trkpt><trkpt lat="42.672015" lon="-8.828065"><ele>32.0</ele><time>2026-04-17T10:32:44.898Z</time></trkpt><trkpt lat="42.6719267" lon="-8.828045"><ele>31.999999999999996</ele><time>2026-04-17T10:32:45.899Z</time></trkpt><trkpt lat="42.6718283" lon="-8.82803"><ele>32.0</ele><time>2026-04-17T10:32:46.899Z</time></trkpt><trkpt lat="42.6717233" lon="-8.8280167"><ele>31.5</ele><time>2026-04-17T10:32:47.899Z</time></trkpt><trkpt lat="42.6716183" lon="-8.828"><ele>31.0</ele><time>2026-04-17T10:32:48.898Z</time></trkpt><trkpt lat="42.671505" lon="-8.8279917"><ele>30.5</ele><time>2026-04-17T10:32:49.899Z</time></trkpt><trkpt lat="42.6713917" lon="-8.8279917"><ele>30.0</ele><time>2026-04-17T10:32:50.899Z</time></trkpt><trkpt lat="42.6712683" lon="-8.8280117"><ele>30.0</ele><time>2026-04-17T10:32:51.898Z</time></trkpt><trkpt lat="42.6711533" lon="-8.8280433"><ele>30.0</ele><time>2026-04-17T10:32:52.898Z</time></trkpt><trkpt lat="42.6710417" lon="-8.82809"><ele>30.0</ele><time>2026-04-17T10:32:53.899Z</time></trkpt><trkpt lat="42.67093" lon="-8.828145"><ele>30.0</ele><time>2026-04-17T10:32:54.899Z</time></trkpt><trkpt lat="42.6708217" lon="-8.8282133"><ele>29.5</ele><time>2026-04-17T10:32:55.898Z</time></trkpt><trkpt lat="42.6707133" lon="-8.8282917"><ele>29.0</ele><time>2026-04-17T10:32:56.898Z</time></trkpt><trkpt lat="42.6705967" lon="-8.8283683"><ele>28.5</ele><time>2026-04-17T10:32:57.898Z</time></trkpt><trkpt lat="42.6704817" lon="-8.82844"><ele>28.0</ele><time>2026-04-17T10:32:58.898Z</time></trkpt><trkpt lat="42.6703567" lon="-8.82853"><ele>28.0</ele><time>2026-04-17T10:32:59.898Z</time></trkpt><trkpt lat="42.6702567" lon="-8.8286133"><ele>28.0</ele><time>2026-04-17T10:33:00.898Z</time></trkpt><trkpt lat="42.6701533" lon="-8.8287083"><ele>28.0</ele><time>2026-04-17T10:33:01.898Z</time></trkpt><trkpt lat="42.6700467" lon="-8.8287933"><ele>28.0</ele><time>2026-04-17T10:33:02.898Z</time></trkpt><trkpt lat="42.66994" lon="-8.8288683"><ele>28.0</ele><time>2026-04-17T10:33:03.899Z</time></trkpt><trkpt lat="42.6698283" lon="-8.8288817"><ele>28.0</ele><time>2026-04-17T10:33:04.899Z</time></trkpt><trkpt lat="42.6697283" lon="-8.82884"><ele>28.0</ele><time>2026-04-17T10:33:05.899Z</time></trkpt><trkpt lat="42.6696267" lon="-8.82875"><ele>28.0</ele><time>2026-04-17T10:33:06.898Z</time></trkpt><trkpt lat="42.6695417" lon="-8.828605"><ele>28.0</ele><time>2026-04-17T10:33:07.9Z</time></trkpt><trkpt lat="42.6695033" lon="-8.82844"><ele>28.0</ele><time>2026-04-17T10:33:08.9Z</time></trkpt><trkpt lat="42.6695067" lon="-8.8282533"><ele>28.0</ele><time>2026-04-17T10:33:09.9Z</time></trkpt><trkpt lat="42.6695567" lon="-8.8280867"><ele>28.0</ele><time>2026-04-17T10:33:10.9Z</time></trkpt><trkpt lat="42.6696333" lon="-8.8279183"><ele>28.0</ele><time>2026-04-17T10:33:11.899Z</time></trkpt><trkpt lat="42.66971" lon="-8.8277667"><ele>28.0</ele><time>2026-04-17T10:33:12.899Z</time></trkpt><trkpt lat="42.66974" lon="-8.8276217"><ele>28.0</ele><time>2026-04-17T10:33:13.9Z</time></trkpt><trkpt lat="42.66973" lon="-8.8274683"><ele>28.0</ele><time>2026-04-17T10:33:14.9Z</time></trkpt><trkpt lat="42.6696917" lon="-8.8273233"><ele>28.25</ele><time>2026-04-17T10:33:15.899Z</time></trkpt><trkpt lat="42.6696283" lon="-8.8271767"><ele>28.5</ele><time>2026-04-17T10:33:16.899Z</time></trkpt><trkpt lat="42.6695617" lon="-8.8270383"><ele>28.75</ele><time>2026-04-17T10:33:17.9Z</time></trkpt><trkpt lat="42.6695017" lon="-8.8269133"><ele>29.0</ele><time>2026-04-17T10:33:18.899Z</time></trkpt><trkpt lat="42.6694283" lon="-8.8267633"><ele>29.0</ele><time>2026-04-17T10:33:19.899Z</time></trkpt><trkpt lat="42.6693467" lon="-8.826605"><ele>29.0</ele><time>2026-04-17T10:33:20.899Z</time></trkpt><trkpt lat="42.6692717" lon="-8.8264467"><ele>29.0</ele><time>2026-04-17T10:33:21.9Z</time></trkpt><trkpt lat="42.66922" lon="-8.8262667"><ele>29.0</ele><time>2026-04-17T10:33:22.9Z</time></trkpt><trkpt lat="42.6691583" lon="-8.826095"><ele>29.0</ele><time>2026-04-17T10:33:23.9Z</time></trkpt><trkpt lat="42.6690983" lon="-8.8259117"><ele>29.0</ele><time>2026-04-17T10:33:24.899Z</time></trkpt><trkpt lat="42.669045" lon="-8.825715"><ele>29.0</ele><time>2026-04-17T10:33:25.9Z</time></trkpt><trkpt lat="42.669" lon="-8.8255017"><ele>29.0</ele><time>2026-04-17T10:33:26.9Z</time></trkpt><trkpt lat="42.6689533" lon="-8.825275"><ele>29.0</ele><time>2026-04-17T10:33:27.899Z</time></trkpt><trkpt lat="42.668915" lon="-8.8250433"><ele>29.0</ele><time>2026-04-17T10:33:28.899Z</time></trkpt><trkpt lat="42.6688817" lon="-8.8248017"><ele>29.666666666666664</ele><time>2026-04-17T10:33:29.899Z</time></trkpt><trkpt lat="42.66885" lon="-8.8245567"><ele>30.333333333333336</ele><time>2026-04-17T10:33:30.899Z</time></trkpt><trkpt lat="42.668825" lon="-8.824305"><ele>31.0</ele><time>2026-04-17T10:33:31.899Z</time></trkpt><trkpt lat="42.6688133" lon="-8.824045"><ele>31.333333333333336</ele><time>2026-04-17T10:33:32.899Z</time></trkpt><trkpt lat="42.6688117" lon="-8.8237783"><ele>31.666666666666664</ele><time>2026-04-17T10:33:33.9Z</time></trkpt><trkpt lat="42.6688117" lon="-8.8235067"><ele>32.0</ele><time>2026-04-17T10:33:34.899Z</time></trkpt><trkpt lat="42.6688333" lon="-8.8232533"><ele>30.0</ele><time>2026-04-17T10:33:35.899Z</time></trkpt><trkpt lat="42.6688617" lon="-8.8230017"><ele>28.0</ele><time>2026-04-17T10:33:36.899Z</time></trkpt><trkpt lat="42.6688983" lon="-8.8227483"><ele>26.0</ele><time>2026-04-17T10:33:37.899Z</time></trkpt><trkpt lat="42.6689433" lon="-8.822495"><ele>25.0</ele><time>2026-04-17T10:33:38.899Z</time></trkpt><trkpt lat="42.6690017" lon="-8.8222383"><ele>24.0</ele><time>2026-04-17T10:33:39.9Z</time></trkpt><trkpt lat="42.6690517" lon="-8.82198"><ele>23.0</ele><time>2026-04-17T10:33:40.899Z</time></trkpt><trkpt lat="42.6690983" lon="-8.82171"><ele>23.0</ele><time>2026-04-17T10:33:41.899Z</time></trkpt><trkpt lat="42.6691383" lon="-8.8214417"><ele>23.0</ele><time>2026-04-17T10:33:42.899Z</time></trkpt><trkpt lat="42.6691683" lon="-8.8211783"><ele>23.0</ele><time>2026-04-17T10:33:43.899Z</time></trkpt><trkpt lat="42.66919" lon="-8.8209133"><ele>23.666666666666668</ele><time>2026-04-17T10:33:44.9Z</time></trkpt><trkpt lat="42.66921" lon="-8.82064"><ele>24.333333333333336</ele><time>2026-04-17T10:33:45.9Z</time></trkpt><trkpt lat="42.6692233" lon="-8.8203733"><ele>25.0</ele><time>2026-04-17T10:33:46.9Z</time></trkpt><trkpt lat="42.6692183" lon="-8.8201033"><ele>23.333333333333336</ele><time>2026-04-17T10:33:47.899Z</time></trkpt><trkpt lat="42.6692" lon="-8.8198417"><ele>21.666666666666668</ele><time>2026-04-17T10:33:48.899Z</time></trkpt><trkpt lat="42.6691817" lon="-8.81958"><ele>20.0</ele><time>2026-04-17T10:33:49.9Z</time></trkpt><trkpt lat="42.669145" lon="-8.8193183"><ele>20.0</ele><time>2026-04-17T10:33:50.9Z</time></trkpt><trkpt lat="42.6691033" lon="-8.819065"><ele>20.0</ele><time>2026-04-17T10:33:51.9Z</time></trkpt><trkpt lat="42.6690533" lon="-8.8188117"><ele>20.0</ele><time>2026-04-17T10:33:52.899Z</time></trkpt><trkpt lat="42.6689967" lon="-8.8185683"><ele>18.333333333333336</ele><time>2026-04-17T10:33:53.9Z</time></trkpt><trkpt lat="42.668935" lon="-8.8183267"><ele>16.666666666666668</ele><time>2026-04-17T10:33:54.9Z</time></trkpt><trkpt lat="42.668865" lon="-8.818085"><ele>15.0</ele><time>2026-04-17T10:33:55.899Z</time></trkpt><trkpt lat="42.6687867" lon="-8.81785"><ele>15.333333333333332</ele><time>2026-04-17T10:33:56.899Z</time></trkpt><trkpt lat="42.6687067" lon="-8.8176183"><ele>15.666666666666666</ele><time>2026-04-17T10:33:57.899Z</time></trkpt><trkpt lat="42.6686083" lon="-8.8174033"><ele>16.0</ele><time>2026-04-17T10:33:58.9Z</time></trkpt><trkpt lat="42.6685083" lon="-8.817195"><ele>15.666666666666666</ele><time>2026-04-17T10:33:59.899Z</time></trkpt><trkpt lat="42.6683983" lon="-8.81699"><ele>15.333333333333332</ele><time>2026-04-17T10:34:00.9Z</time></trkpt><trkpt lat="42.6682817" lon="-8.816795"><ele>15.0</ele><time>2026-04-17T10:34:01.899Z</time></trkpt><trkpt lat="42.6681667" lon="-8.816595"><ele>15.0</ele><time>2026-04-17T10:34:02.899Z</time></trkpt><trkpt lat="42.6680583" lon="-8.81639"><ele>15.0</ele><time>2026-04-17T10:34:03.9Z</time></trkpt><trkpt lat="42.66795" lon="-8.8161917"><ele>15.0</ele><time>2026-04-17T10:34:04.899Z</time></trkpt><trkpt lat="42.6678417" lon="-8.81599"><ele>15.333333333333332</ele><time>2026-04-17T10:34:05.899Z</time></trkpt><trkpt lat="42.66773" lon="-8.8157833"><ele>15.666666666666666</ele><time>2026-04-17T10:34:06.9Z</time></trkpt><trkpt lat="42.6676383" lon="-8.8155683"><ele>16.0</ele><time>2026-04-17T10:34:07.9Z</time></trkpt><trkpt lat="42.6675383" lon="-8.8153433"><ele>15.666666666666666</ele><time>2026-04-17T10:34:08.899Z</time></trkpt><trkpt lat="42.667445" lon="-8.8151167"><ele>15.333333333333332</ele><time>2026-04-17T10:34:09.899Z</time></trkpt><trkpt lat="42.6673667" lon="-8.8148767"><ele>15.0</ele><time>2026-04-17T10:34:10.9Z</time></trkpt><trkpt lat="42.6673033" lon="-8.8146267"><ele>15.0</ele><time>2026-04-17T10:34:11.9Z</time></trkpt><trkpt lat="42.6672383" lon="-8.8143783"><ele>15.0</ele><time>2026-04-17T10:34:12.9Z</time></trkpt><trkpt lat="42.66718" lon="-8.8141333"><ele>15.0</ele><time>2026-04-17T10:34:13.899Z</time></trkpt><trkpt lat="42.6671417" lon="-8.8138733"><ele>14.666666666666668</ele><time>2026-04-17T10:34:14.899Z</time></trkpt><trkpt lat="42.6671083" lon="-8.8136133"><ele>14.333333333333334</ele><time>2026-04-17T10:34:15.899Z</time></trkpt><trkpt lat="42.6670817" lon="-8.813345"><ele>14.0</ele><time>2026-04-17T10:34:16.9Z</time></trkpt><trkpt lat="42.66707" lon="-8.8130833"><ele>13.333333333333334</ele><time>2026-04-17T10:34:17.899Z</time></trkpt><trkpt lat="42.6670567" lon="-8.8128183"><ele>12.666666666666668</ele><time>2026-04-17T10:34:18.9Z</time></trkpt><trkpt lat="42.6670633" lon="-8.8125667"><ele>12.0</ele><time>2026-04-17T10:34:19.899Z</time></trkpt><trkpt lat="42.6670767" lon="-8.81231"><ele>10.0</ele><time>2026-04-17T10:34:20.899Z</time></trkpt><trkpt lat="42.6671017" lon="-8.8120567"><ele>8.0</ele><time>2026-04-17T10:34:21.899Z</time></trkpt><trkpt lat="42.6671283" lon="-8.811805"><ele>6.0</ele><time>2026-04-17T10:34:22.899Z</time></trkpt><trkpt lat="42.6671617" lon="-8.8115583"><ele>5.666666666666667</ele><time>2026-04-17T10:34:23.9Z</time></trkpt><trkpt lat="42.6672033" lon="-8.8113167"><ele>5.333333333333334</ele><time>2026-04-17T10:34:24.9Z</time></trkpt><trkpt lat="42.6672483" lon="-8.81108"><ele>5.0</ele><time>2026-04-17T10:34:25.9Z</time></trkpt><trkpt lat="42.66731" lon="-8.8108283"><ele>7.0</ele><time>2026-04-17T10:34:26.899Z</time></trkpt><trkpt lat="42.6673733" lon="-8.81059"><ele>9.0</ele><time>2026-04-17T10:34:27.9Z</time></trkpt><trkpt lat="42.6674417" lon="-8.810355"><ele>11.0</ele><time>2026-04-17T10:34:28.9Z</time></trkpt><trkpt lat="42.66752" lon="-8.8101167"><ele>13.0</ele><time>2026-04-17T10:34:29.9Z</time></trkpt><trkpt lat="42.6676" lon="-8.8098717"><ele>15.0</ele><time>2026-04-17T10:34:30.9Z</time></trkpt><trkpt lat="42.66768" lon="-8.8096317"><ele>17.0</ele><time>2026-04-17T10:34:31.9Z</time></trkpt><trkpt lat="42.66777" lon="-8.8093983"><ele>17.666666666666668</ele><time>2026-04-17T10:34:32.899Z</time></trkpt><trkpt lat="42.6678483" lon="-8.8091717"><ele>18.333333333333332</ele><time>2026-04-17T10:34:33.899Z</time></trkpt><trkpt lat="42.6679283" lon="-8.80893"><ele>19.0</ele><time>2026-04-17T10:34:34.9Z</time></trkpt><trkpt lat="42.6680133" lon="-8.808685"><ele>21.333333333333332</ele><time>2026-04-17T10:34:35.9Z</time></trkpt><trkpt lat="42.6681" lon="-8.80845"><ele>23.666666666666664</ele><time>2026-04-17T10:34:36.9Z</time></trkpt><trkpt lat="42.6681783" lon="-8.80822"><ele>26.0</ele><time>2026-04-17T10:34:37.899Z</time></trkpt><trkpt lat="42.6682583" lon="-8.8080033"><ele>26.0</ele><time>2026-04-17T10:34:38.9Z</time></trkpt><trkpt lat="42.6683467" lon="-8.8077683"><ele>26.0</ele><time>2026-04-17T10:34:39.899Z</time></trkpt><trkpt lat="42.6684217" lon="-8.8075467"><ele>26.0</ele><time>2026-04-17T10:34:40.899Z</time></trkpt><trkpt lat="42.668495" lon="-8.8073183"><ele>27.0</ele><time>2026-04-17T10:34:41.899Z</time></trkpt><trkpt lat="42.6685683" lon="-8.80709"><ele>28.0</ele><time>2026-04-17T10:34:42.899Z</time></trkpt><trkpt lat="42.6686417" lon="-8.8068617"><ele>29.0</ele><time>2026-04-17T10:34:43.9Z</time></trkpt><trkpt lat="42.6687067" lon="-8.80664"><ele>31.333333333333332</ele><time>2026-04-17T10:34:44.9Z</time></trkpt><trkpt lat="42.6687667" lon="-8.8064167"><ele>33.666666666666664</ele><time>2026-04-17T10:34:45.899Z</time></trkpt><trkpt lat="42.6688267" lon="-8.8061933"><ele>36.0</ele><time>2026-04-17T10:34:46.899Z</time></trkpt><trkpt lat="42.6688867" lon="-8.8059617"><ele>37.333333333333336</ele><time>2026-04-17T10:34:47.9Z</time></trkpt><trkpt lat="42.6689333" lon="-8.8057317"><ele>38.66666666666667</ele><time>2026-04-17T10:34:48.899Z</time></trkpt><trkpt lat="42.66898" lon="-8.8055"><ele>40.0</ele><time>2026-04-17T10:34:49.9Z</time></trkpt><trkpt lat="42.669015" lon="-8.80526"><ele>41.333333333333336</ele><time>2026-04-17T10:34:50.899Z</time></trkpt><trkpt lat="42.6690467" lon="-8.80502"><ele>42.666666666666664</ele><time>2026-04-17T10:34:51.899Z</time></trkpt><trkpt lat="42.6690667" lon="-8.80477"><ele>44.0</ele><time>2026-04-17T10:34:52.9Z</time></trkpt><trkpt lat="42.669085" lon="-8.8045167"><ele>42.666666666666664</ele><time>2026-04-17T10:34:53.899Z</time></trkpt><trkpt lat="42.6690933" lon="-8.8042617"><ele>41.333333333333336</ele><time>2026-04-17T10:34:54.899Z</time></trkpt><trkpt lat="42.66909" lon="-8.8040033"><ele>40.0</ele><time>2026-04-17T10:34:55.9Z</time></trkpt><trkpt lat="42.6690733" lon="-8.8037417"><ele>39.66666666666667</ele><time>2026-04-17T10:34:56.9Z</time></trkpt><trkpt lat="42.6690433" lon="-8.8034783"><ele>39.333333333333336</ele><time>2026-04-17T10:34:57.9Z</time></trkpt><trkpt lat="42.6689933" lon="-8.8032167"><ele>39.0</ele><time>2026-04-17T10:34:58.9Z</time></trkpt><trkpt lat="42.6689433" lon="-8.8029517"><ele>39.0</ele><time>2026-04-17T10:34:59.899Z</time></trkpt><trkpt lat="42.6688783" lon="-8.8026833"><ele>39.0</ele><time>2026-04-17T10:35:00.9Z</time></trkpt><trkpt lat="42.6688" lon="-8.8024183"><ele>39.0</ele><time>2026-04-17T10:35:01.899Z</time></trkpt><trkpt lat="42.6687283" lon="-8.80216"><ele>40.333333333333336</ele><time>2026-04-17T10:35:02.899Z</time></trkpt><trkpt lat="42.6686433" lon="-8.8019117"><ele>41.66666666666667</ele><time>2026-04-17T10:35:03.9Z</time></trkpt><trkpt lat="42.668555" lon="-8.8016683"><ele>43.0</ele><time>2026-04-17T10:35:04.9Z</time></trkpt><trkpt lat="42.6684683" lon="-8.8014267"><ele>43.333333333333336</ele><time>2026-04-17T10:35:05.899Z</time></trkpt><trkpt lat="42.66838" lon="-8.801185"><ele>43.666666666666664</ele><time>2026-04-17T10:35:06.899Z</time></trkpt><trkpt lat="42.66829" lon="-8.8009367"><ele>44.0</ele><time>2026-04-17T10:35:07.899Z</time></trkpt><trkpt lat="42.6681933" lon="-8.80069"><ele>43.0</ele><time>2026-04-17T10:35:08.9Z</time></trkpt><trkpt lat="42.6681033" lon="-8.8004433"><ele>42.0</ele><time>2026-04-17T10:35:09.9Z</time></trkpt><trkpt lat="42.668015" lon="-8.8001933"><ele>41.0</ele><time>2026-04-17T10:35:10.899Z</time></trkpt><trkpt lat="42.6679167" lon="-8.7999517"><ele>41.0</ele><time>2026-04-17T10:35:11.9Z</time></trkpt><trkpt lat="42.6678217" lon="-8.7997133"><ele>41.0</ele><time>2026-04-17T10:35:12.899Z</time></trkpt><trkpt lat="42.6677317" lon="-8.79947"><ele>41.0</ele><time>2026-04-17T10:35:13.9Z</time></trkpt><trkpt lat="42.6676383" lon="-8.7992267"><ele>39.666666666666664</ele><time>2026-04-17T10:35:14.9Z</time></trkpt><trkpt lat="42.6675417" lon="-8.798985"><ele>38.333333333333336</ele><time>2026-04-17T10:35:15.9Z</time></trkpt><trkpt lat="42.66745" lon="-8.7987483"><ele>37.0</ele><time>2026-04-17T10:35:16.9Z</time></trkpt><trkpt lat="42.6673583" lon="-8.79851"><ele>36.0</ele><time>2026-04-17T10:35:17.899Z</time></trkpt><trkpt lat="42.66727" lon="-8.7982683"><ele>35.0</ele><time>2026-04-17T10:35:18.899Z</time></trkpt><trkpt lat="42.667185" lon="-8.79803"><ele>34.0</ele><time>2026-04-17T10:35:19.9Z</time></trkpt><trkpt lat="42.667095" lon="-8.7977967"><ele>34.66666666666667</ele><time>2026-04-17T10:35:20.899Z</time></trkpt><trkpt lat="42.6670067" lon="-8.7975683"><ele>35.333333333333336</ele><time>2026-04-17T10:35:21.899Z</time></trkpt><trkpt lat="42.66692" lon="-8.797335"><ele>36.0</ele><time>2026-04-17T10:35:22.899Z</time></trkpt><trkpt lat="42.666825" lon="-8.7971067"><ele>37.0</ele><time>2026-04-17T10:35:23.899Z</time></trkpt><trkpt lat="42.6667433" lon="-8.7968767"><ele>38.0</ele><time>2026-04-17T10:35:24.9Z</time></trkpt><trkpt lat="42.6666583" lon="-8.796655"><ele>39.0</ele><time>2026-04-17T10:35:25.9Z</time></trkpt><trkpt lat="42.666575" lon="-8.79643"><ele>41.0</ele><time>2026-04-17T10:35:26.9Z</time></trkpt><trkpt lat="42.66649" lon="-8.7962033"><ele>43.0</ele><time>2026-04-17T10:35:27.9Z</time></trkpt><trkpt lat="42.666405" lon="-8.79597"><ele>45.0</ele><time>2026-04-17T10:35:28.899Z</time></trkpt><trkpt lat="42.6663283" lon="-8.7957367"><ele>45.0</ele><time>2026-04-17T10:35:29.9Z</time></trkpt><trkpt lat="42.66625" lon="-8.795505"><ele>45.0</ele><time>2026-04-17T10:35:30.9Z</time></trkpt><trkpt lat="42.666175" lon="-8.7952717"><ele>45.0</ele><time>2026-04-17T10:35:31.9Z</time></trkpt><trkpt lat="42.6660983" lon="-8.7950283"><ele>46.0</ele><time>2026-04-17T10:35:32.899Z</time></trkpt><trkpt lat="42.6660383" lon="-8.794785"><ele>47.0</ele><time>2026-04-17T10:35:33.899Z</time></trkpt><trkpt lat="42.665985" lon="-8.794525"><ele>48.0</ele><time>2026-04-17T10:35:34.899Z</time></trkpt><trkpt lat="42.665945" lon="-8.7942617"><ele>48.0</ele><time>2026-04-17T10:35:35.9Z</time></trkpt><trkpt lat="42.6659067" lon="-8.7939983"><ele>48.0</ele><time>2026-04-17T10:35:36.899Z</time></trkpt><trkpt lat="42.66588" lon="-8.7937367"><ele>48.0</ele><time>2026-04-17T10:35:37.899Z</time></trkpt><trkpt lat="42.6658567" lon="-8.7934733"><ele>49.66666666666667</ele><time>2026-04-17T10:35:38.899Z</time></trkpt><trkpt lat="42.6658467" lon="-8.7932083"><ele>51.333333333333336</ele><time>2026-04-17T10:35:39.9Z</time></trkpt><trkpt lat="42.6658483" lon="-8.79295"><ele>53.0</ele><time>2026-04-17T10:35:40.9Z</time></trkpt><trkpt lat="42.66585" lon="-8.792685"><ele>57.333333333333336</ele><time>2026-04-17T10:35:41.9Z</time></trkpt><trkpt lat="42.6658683" lon="-8.7924283"><ele>61.66666666666667</ele><time>2026-04-17T10:35:42.899Z</time></trkpt><trkpt lat="42.6658867" lon="-8.7921767"><ele>66.0</ele><time>2026-04-17T10:35:43.9Z</time></trkpt><trkpt lat="42.6659083" lon="-8.7919333"><ele>69.0</ele><time>2026-04-17T10:35:44.9Z</time></trkpt><trkpt lat="42.665935" lon="-8.791685"><ele>72.0</ele><time>2026-04-17T10:35:45.899Z</time></trkpt><trkpt lat="42.66596" lon="-8.7914383"><ele>75.0</ele><time>2026-04-17T10:35:46.9Z</time></trkpt><trkpt lat="42.6659867" lon="-8.7911983"><ele>78.66666666666667</ele><time>2026-04-17T10:35:47.899Z</time></trkpt><trkpt lat="42.6660133" lon="-8.7909617"><ele>82.33333333333334</ele><time>2026-04-17T10:35:48.9Z</time></trkpt><trkpt lat="42.6660367" lon="-8.7907217"><ele>86.0</ele><time>2026-04-17T10:35:49.899Z</time></trkpt><trkpt lat="42.66607" lon="-8.7904833"><ele>86.0</ele><time>2026-04-17T10:35:50.899Z</time></trkpt><trkpt lat="42.6661" lon="-8.790255"><ele>86.0</ele><time>2026-04-17T10:35:51.9Z</time></trkpt><trkpt lat="42.6661283" lon="-8.7900217"><ele>86.0</ele><time>2026-04-17T10:35:52.9Z</time></trkpt><trkpt lat="42.6661583" lon="-8.7897883"><ele>84.33333333333334</ele><time>2026-04-17T10:35:53.899Z</time></trkpt><trkpt lat="42.6661867" lon="-8.7895567"><ele>82.66666666666667</ele><time>2026-04-17T10:35:54.899Z</time></trkpt><trkpt lat="42.6662117" lon="-8.78932"><ele>81.0</ele><time>2026-04-17T10:35:55.899Z</time></trkpt><trkpt lat="42.666255" lon="-8.78908"><ele>81.0</ele><time>2026-04-17T10:35:56.899Z</time></trkpt><trkpt lat="42.66629" lon="-8.7888383"><ele>81.0</ele><time>2026-04-17T10:35:57.9Z</time></trkpt><trkpt lat="42.6663183" lon="-8.7886017"><ele>81.0</ele><time>2026-04-17T10:35:58.9Z</time></trkpt><trkpt lat="42.6663467" lon="-8.7883717"><ele>82.33333333333333</ele><time>2026-04-17T10:35:59.899Z</time></trkpt><trkpt lat="42.66637" lon="-8.7881383"><ele>83.66666666666666</ele><time>2026-04-17T10:36:00.899Z</time></trkpt><trkpt lat="42.6664133" lon="-8.7879117"><ele>85.0</ele><time>2026-04-17T10:36:01.9Z</time></trkpt><trkpt lat="42.66645" lon="-8.7876783"><ele>87.0</ele><time>2026-04-17T10:36:02.9Z</time></trkpt><trkpt lat="42.6664917" lon="-8.7874567"><ele>89.0</ele><time>2026-04-17T10:36:03.9Z</time></trkpt><trkpt lat="42.6665417" lon="-8.787235"><ele>91.0</ele><time>2026-04-17T10:36:04.9Z</time></trkpt><trkpt lat="42.666605" lon="-8.787015"><ele>93.33333333333333</ele><time>2026-04-17T10:36:05.899Z</time></trkpt><trkpt lat="42.6666733" lon="-8.7867983"><ele>95.66666666666666</ele><time>2026-04-17T10:36:06.899Z</time></trkpt><trkpt lat="42.666745" lon="-8.7865883"><ele>98.0</ele><time>2026-04-17T10:36:07.9Z</time></trkpt><trkpt lat="42.6668233" lon="-8.78638"><ele>98.0</ele><time>2026-04-17T10:36:08.899Z</time></trkpt><trkpt lat="42.6669033" lon="-8.7861767"><ele>98.0</ele><time>2026-04-17T10:36:09.9Z</time></trkpt><trkpt lat="42.6669883" lon="-8.7859717"><ele>98.0</ele><time>2026-04-17T10:36:10.899Z</time></trkpt><trkpt lat="42.6670817" lon="-8.7857717"><ele>99.66666666666666</ele><time>2026-04-17T10:36:11.899Z</time></trkpt><trkpt lat="42.6671783" lon="-8.785585"><ele>101.33333333333334</ele><time>2026-04-17T10:36:12.899Z</time></trkpt><trkpt lat="42.6672767" lon="-8.7854033"><ele>103.0</ele><time>2026-04-17T10:36:13.9Z</time></trkpt><trkpt lat="42.66739" lon="-8.78523"><ele>105.33333333333334</ele><time>2026-04-17T10:36:14.899Z</time></trkpt><trkpt lat="42.66751" lon="-8.78506"><ele>107.66666666666666</ele><time>2026-04-17T10:36:15.899Z</time></trkpt><trkpt lat="42.6676217" lon="-8.78489"><ele>110.0</ele><time>2026-04-17T10:36:16.9Z</time></trkpt><trkpt lat="42.66773" lon="-8.78471"><ele>107.66666666666666</ele><time>2026-04-17T10:36:17.899Z</time></trkpt><trkpt lat="42.6678367" lon="-8.7845283"><ele>105.33333333333334</ele><time>2026-04-17T10:36:18.9Z</time></trkpt><trkpt lat="42.6679467" lon="-8.7843467"><ele>103.0</ele><time>2026-04-17T10:36:19.899Z</time></trkpt><trkpt lat="42.6680533" lon="-8.784165"><ele>103.0</ele><time>2026-04-17T10:36:20.9Z</time></trkpt><trkpt lat="42.6681517" lon="-8.7839767"><ele>103.0</ele><time>2026-04-17T10:36:21.899Z</time></trkpt><trkpt lat="42.6682433" lon="-8.78378"><ele>103.0</ele><time>2026-04-17T10:36:22.899Z</time></trkpt><trkpt lat="42.6683283" lon="-8.7835783"><ele>106.66666666666667</ele><time>2026-04-17T10:36:23.9Z</time></trkpt><trkpt lat="42.668405" lon="-8.7833817"><ele>110.33333333333334</ele><time>2026-04-17T10:36:24.899Z</time></trkpt><trkpt lat="42.6684817" lon="-8.7831783"><ele>114.0</ele><time>2026-04-17T10:36:25.9Z</time></trkpt><trkpt lat="42.668555" lon="-8.782965"><ele>113.66666666666666</ele><time>2026-04-17T10:36:26.899Z</time></trkpt><trkpt lat="42.668615" lon="-8.7827717"><ele>113.33333333333333</ele><time>2026-04-17T10:36:27.9Z</time></trkpt><trkpt lat="42.6686767" lon="-8.7825617"><ele>113.0</ele><time>2026-04-17T10:36:28.899Z</time></trkpt><trkpt lat="42.6687283" lon="-8.78235"><ele>114.33333333333333</ele><time>2026-04-17T10:36:29.899Z</time></trkpt><trkpt lat="42.6687783" lon="-8.7821283"><ele>115.66666666666666</ele><time>2026-04-17T10:36:30.899Z</time></trkpt><trkpt lat="42.6688317" lon="-8.781905"><ele>117.0</ele><time>2026-04-17T10:36:31.899Z</time></trkpt><trkpt lat="42.668885" lon="-8.7816867"><ele>118.66666666666666</ele><time>2026-04-17T10:36:32.9Z</time></trkpt><trkpt lat="42.6689417" lon="-8.7814633"><ele>120.33333333333333</ele><time>2026-04-17T10:36:33.9Z</time></trkpt><trkpt lat="42.6690033" lon="-8.7812383"><ele>122.0</ele><time>2026-04-17T10:36:34.9Z</time></trkpt><trkpt lat="42.6690667" lon="-8.7810167"><ele>124.33333333333333</ele><time>2026-04-17T10:36:35.899Z</time></trkpt><trkpt lat="42.6691383" lon="-8.7807883"><ele>126.66666666666666</ele><time>2026-04-17T10:36:36.9Z</time></trkpt><trkpt lat="42.669215" lon="-8.78056"><ele>129.0</ele><time>2026-04-17T10:36:37.9Z</time></trkpt><trkpt lat="42.669295" lon="-8.7803333"><ele>128.66666666666666</ele><time>2026-04-17T10:36:38.9Z</time></trkpt><trkpt lat="42.669375" lon="-8.7801017"><ele>128.33333333333331</ele><time>2026-04-17T10:36:39.9Z</time></trkpt><trkpt lat="42.6694583" lon="-8.7798717"><ele>128.0</ele><time>2026-04-17T10:36:40.899Z</time></trkpt><trkpt lat="42.6695567" lon="-8.7796467"><ele>128.0</ele><time>2026-04-17T10:36:41.899Z</time></trkpt><trkpt lat="42.6696517" lon="-8.7794217"><ele>128.0</ele><time>2026-04-17T10:36:42.899Z</time></trkpt><trkpt lat="42.6697383" lon="-8.779205"><ele>128.0</ele><time>2026-04-17T10:36:43.9Z</time></trkpt><trkpt lat="42.669835" lon="-8.7789883"><ele>130.0</ele><time>2026-04-17T10:36:44.899Z</time></trkpt><trkpt lat="42.6699317" lon="-8.7787717"><ele>132.0</ele><time>2026-04-17T10:36:45.9Z</time></trkpt><trkpt lat="42.6700367" lon="-8.778545"><ele>134.0</ele><time>2026-04-17T10:36:46.9Z</time></trkpt><trkpt lat="42.67014" lon="-8.7783233"><ele>135.33333333333331</ele><time>2026-04-17T10:36:47.899Z</time></trkpt><trkpt lat="42.670235" lon="-8.7780967"><ele>136.66666666666666</ele><time>2026-04-17T10:36:48.899Z</time></trkpt><trkpt lat="42.6703333" lon="-8.77787"><ele>138.0</ele><time>2026-04-17T10:36:49.899Z</time></trkpt><trkpt lat="42.67044" lon="-8.7776367"><ele>140.33333333333334</ele><time>2026-04-17T10:36:50.9Z</time></trkpt><trkpt lat="42.670545" lon="-8.777395"><ele>142.66666666666669</ele><time>2026-04-17T10:36:51.899Z</time></trkpt><trkpt lat="42.6706483" lon="-8.7771533"><ele>145.0</ele><time>2026-04-17T10:36:52.899Z</time></trkpt><trkpt lat="42.6707417" lon="-8.7769067"><ele>141.66666666666669</ele><time>2026-04-17T10:36:53.9Z</time></trkpt><trkpt lat="42.6708317" lon="-8.776655"><ele>138.33333333333334</ele><time>2026-04-17T10:36:54.899Z</time></trkpt><trkpt lat="42.6709133" lon="-8.7764017"><ele>135.0</ele><time>2026-04-17T10:36:55.9Z</time></trkpt><trkpt lat="42.6709933" lon="-8.7761583"><ele>136.33333333333334</ele><time>2026-04-17T10:36:56.9Z</time></trkpt><trkpt lat="42.671075" lon="-8.7759067"><ele>137.66666666666669</ele><time>2026-04-17T10:36:57.899Z</time></trkpt><trkpt lat="42.6711583" lon="-8.77565"><ele>139.0</ele><time>2026-04-17T10:36:58.899Z</time></trkpt><trkpt lat="42.6712533" lon="-8.775385"><ele>136.33333333333334</ele><time>2026-04-17T10:36:59.899Z</time></trkpt><trkpt lat="42.6713483" lon="-8.7751133"><ele>133.66666666666666</ele><time>2026-04-17T10:37:00.9Z</time></trkpt><trkpt lat="42.67145" lon="-8.7748383"><ele>131.0</ele><time>2026-04-17T10:37:01.899Z</time></trkpt><trkpt lat="42.6715483" lon="-8.77455"><ele>129.0</ele><time>2026-04-17T10:37:02.899Z</time></trkpt><trkpt lat="42.67165" lon="-8.7742617"><ele>127.0</ele><time>2026-04-17T10:37:03.9Z</time></trkpt><trkpt lat="42.6717533" lon="-8.7739667"><ele>127.0</ele><time>2026-04-17T10:37:04.899Z</time></trkpt><trkpt lat="42.6718583" lon="-8.7736667"><ele>127.0</ele><time>2026-04-17T10:37:05.9Z</time></trkpt><trkpt lat="42.6719617" lon="-8.77337"><ele>129.0</ele><time>2026-04-17T10:37:06.899Z</time></trkpt><trkpt lat="42.6720717" lon="-8.7730783"><ele>131.0</ele><time>2026-04-17T10:37:07.899Z</time></trkpt><trkpt lat="42.6721883" lon="-8.77278"><ele>123.0</ele><time>2026-04-17T10:37:08.9Z</time></trkpt><trkpt lat="42.6723017" lon="-8.77248"><ele>115.0</ele><time>2026-04-17T10:37:09.899Z</time></trkpt><trkpt lat="42.6724183" lon="-8.7721833"><ele>115.0</ele><time>2026-04-17T10:37:10.9Z</time></trkpt><trkpt lat="42.6725283" lon="-8.7718883"><ele>115.0</ele><time>2026-04-17T10:37:11.9Z</time></trkpt><trkpt lat="42.6726467" lon="-8.7715983"><ele>113.5</ele><time>2026-04-17T10:37:12.899Z</time></trkpt><trkpt lat="42.67276" lon="-8.7713017"><ele>112.0</ele><time>2026-04-17T10:37:13.899Z</time></trkpt><trkpt lat="42.6728783" lon="-8.7710183"><ele>112.0</ele><time>2026-04-17T10:37:14.899Z</time></trkpt><trkpt lat="42.6729983" lon="-8.770735"><ele>112.0</ele><time>2026-04-17T10:37:15.899Z</time></trkpt><trkpt lat="42.673115" lon="-8.7704533"><ele>111.0</ele><time>2026-04-17T10:37:16.899Z</time></trkpt><trkpt lat="42.673235" lon="-8.770175"><ele>110.0</ele><time>2026-04-17T10:37:17.9Z</time></trkpt><trkpt lat="42.6733567" lon="-8.7699067"><ele>110.0</ele><time>2026-04-17T10:37:18.899Z</time></trkpt><trkpt lat="42.6734783" lon="-8.7696333"><ele>110.0</ele><time>2026-04-17T10:37:19.9Z</time></trkpt><trkpt lat="42.6735983" lon="-8.769365"><ele>115.33333333333333</ele><time>2026-04-17T10:37:20.899Z</time></trkpt><trkpt lat="42.6737183" lon="-8.7691017"><ele>120.66666666666666</ele><time>2026-04-17T10:37:21.899Z</time></trkpt><trkpt lat="42.6738317" lon="-8.76885"><ele>126.0</ele><time>2026-04-17T10:37:22.9Z</time></trkpt><trkpt lat="42.6739417" lon="-8.7685933"><ele>126.33333333333334</ele><time>2026-04-17T10:37:23.899Z</time></trkpt><trkpt lat="42.6740583" lon="-8.768345"><ele>126.66666666666667</ele><time>2026-04-17T10:37:24.899Z</time></trkpt><trkpt lat="42.67419" lon="-8.768105"><ele>127.0</ele><time>2026-04-17T10:37:25.899Z</time></trkpt><trkpt lat="42.6743317" lon="-8.767885"><ele>131.0</ele><time>2026-04-17T10:37:26.9Z</time></trkpt><trkpt lat="42.6744717" lon="-8.7676817"><ele>135.0</ele><time>2026-04-17T10:37:27.899Z</time></trkpt><trkpt lat="42.674625" lon="-8.7674833"><ele>139.0</ele><time>2026-04-17T10:37:28.899Z</time></trkpt><trkpt lat="42.6747883" lon="-8.76729"><ele>139.0</ele><time>2026-04-17T10:37:29.899Z</time></trkpt><trkpt lat="42.67496" lon="-8.7671017"><ele>139.0</ele><time>2026-04-17T10:37:30.899Z</time></trkpt><trkpt lat="42.6751333" lon="-8.7669283"><ele>139.0</ele><time>2026-04-17T10:37:31.899Z</time></trkpt><trkpt lat="42.6753117" lon="-8.7667617"><ele>137.66666666666669</ele><time>2026-04-17T10:37:32.899Z</time></trkpt><trkpt lat="42.6755" lon="-8.7666117"><ele>136.33333333333334</ele><time>2026-04-17T10:37:33.899Z</time></trkpt><trkpt lat="42.6756883" lon="-8.7664667"><ele>135.0</ele><time>2026-04-17T10:37:34.899Z</time></trkpt><trkpt lat="42.675895" lon="-8.7663367"><ele>136.5</ele><time>2026-04-17T10:37:35.899Z</time></trkpt><trkpt lat="42.6761083" lon="-8.7662267"><ele>138.0</ele><time>2026-04-17T10:37:36.899Z</time></trkpt><trkpt lat="42.6763233" lon="-8.7661267"><ele>138.0</ele><time>2026-04-17T10:37:37.899Z</time></trkpt><trkpt lat="42.6765433" lon="-8.7660383"><ele>138.0</ele><time>2026-04-17T10:37:38.9Z</time></trkpt><trkpt lat="42.6767717" lon="-8.765945"><ele>133.0</ele><time>2026-04-17T10:37:39.899Z</time></trkpt><trkpt lat="42.6769933" lon="-8.765855"><ele>128.0</ele><time>2026-04-17T10:37:40.9Z</time></trkpt><trkpt lat="42.6772133" lon="-8.7657617"><ele>128.0</ele><time>2026-04-17T10:37:41.899Z</time></trkpt><trkpt lat="42.6774367" lon="-8.7656467"><ele>128.0</ele><time>2026-04-17T10:37:42.899Z</time></trkpt><trkpt lat="42.6776517" lon="-8.7655133"><ele>130.5</ele><time>2026-04-17T10:37:43.899Z</time></trkpt><trkpt lat="42.67786" lon="-8.76537"><ele>133.0</ele><time>2026-04-17T10:37:44.9Z</time></trkpt><trkpt lat="42.67806" lon="-8.765205"><ele>126.5</ele><time>2026-04-17T10:37:45.9Z</time></trkpt><trkpt lat="42.6782533" lon="-8.7650333"><ele>120.0</ele><time>2026-04-17T10:37:46.899Z</time></trkpt><trkpt lat="42.6784433" lon="-8.76485"><ele>122.5</ele><time>2026-04-17T10:37:47.9Z</time></trkpt><trkpt lat="42.678625" lon="-8.764655"><ele>125.0</ele><time>2026-04-17T10:37:48.9Z</time></trkpt><trkpt lat="42.6788033" lon="-8.7644533"><ele>120.5</ele><time>2026-04-17T10:37:49.899Z</time></trkpt><trkpt lat="42.6789733" lon="-8.7642433"><ele>116.0</ele><time>2026-04-17T10:37:50.899Z</time></trkpt><trkpt lat="42.679135" lon="-8.7640167"><ele>116.0</ele><time>2026-04-17T10:37:51.899Z</time></trkpt><trkpt lat="42.6792833" lon="-8.7637833"><ele>116.0</ele><time>2026-04-17T10:37:52.9Z</time></trkpt><trkpt lat="42.6794233" lon="-8.7635483"><ele>116.0</ele><time>2026-04-17T10:37:53.9Z</time></trkpt><trkpt lat="42.67956" lon="-8.7633017"><ele>114.66666666666666</ele><time>2026-04-17T10:37:54.9Z</time></trkpt><trkpt lat="42.6796833" lon="-8.7630533"><ele>113.33333333333334</ele><time>2026-04-17T10:37:55.899Z</time></trkpt><trkpt lat="42.6798" lon="-8.7628033"><ele>112.0</ele><time>2026-04-17T10:37:56.899Z</time></trkpt><trkpt lat="42.6799117" lon="-8.7625517"><ele>110.5</ele><time>2026-04-17T10:37:57.9Z</time></trkpt><trkpt lat="42.6800117" lon="-8.7622783"><ele>109.0</ele><time>2026-04-17T10:37:58.899Z</time></trkpt><trkpt lat="42.68011" lon="-8.7620017"><ele>108.0</ele><time>2026-04-17T10:37:59.899Z</time></trkpt><trkpt lat="42.680195" lon="-8.761725"><ele>107.0</ele><time>2026-04-17T10:38:00.899Z</time></trkpt><trkpt lat="42.6802717" lon="-8.7614467"><ele>106.0</ele><time>2026-04-17T10:38:01.899Z</time></trkpt><trkpt lat="42.680335" lon="-8.76117"><ele>105.0</ele><time>2026-04-17T10:38:02.9Z</time></trkpt><trkpt lat="42.6803917" lon="-8.76089"><ele>104.0</ele><time>2026-04-17T10:38:03.9Z</time></trkpt><trkpt lat="42.6804433" lon="-8.7605983"><ele>103.0</ele><time>2026-04-17T10:38:04.899Z</time></trkpt><trkpt lat="42.6804883" lon="-8.7603067"><ele>102.33333333333334</ele><time>2026-04-17T10:38:05.899Z</time></trkpt><trkpt lat="42.68052" lon="-8.760015"><ele>101.66666666666666</ele><time>2026-04-17T10:38:06.9Z</time></trkpt><trkpt lat="42.68054" lon="-8.7597183"><ele>101.0</ele><time>2026-04-17T10:38:07.9Z</time></trkpt><trkpt lat="42.680555" lon="-8.7594283"><ele>100.66666666666666</ele><time>2026-04-17T10:38:08.899Z</time></trkpt><trkpt lat="42.680555" lon="-8.7591283"><ele>100.33333333333334</ele><time>2026-04-17T10:38:09.899Z</time></trkpt><trkpt lat="42.68054" lon="-8.7588317"><ele>100.0</ele><time>2026-04-17T10:38:10.899Z</time></trkpt><trkpt lat="42.6805183" lon="-8.758535"><ele>99.66666666666667</ele><time>2026-04-17T10:38:11.9Z</time></trkpt><trkpt lat="42.6804967" lon="-8.7582367"><ele>99.33333333333334</ele><time>2026-04-17T10:38:12.9Z</time></trkpt><trkpt lat="42.6804683" lon="-8.7579417"><ele>99.0</ele><time>2026-04-17T10:38:13.899Z</time></trkpt><trkpt lat="42.6804217" lon="-8.75765"><ele>99.0</ele><time>2026-04-17T10:38:14.899Z</time></trkpt><trkpt lat="42.680365" lon="-8.75735"><ele>99.0</ele><time>2026-04-17T10:38:15.899Z</time></trkpt><trkpt lat="42.6803" lon="-8.757065"><ele>99.0</ele><time>2026-04-17T10:38:16.899Z</time></trkpt><trkpt lat="42.6802317" lon="-8.7567767"><ele>96.66666666666667</ele><time>2026-04-17T10:38:17.9Z</time></trkpt><trkpt lat="42.68016" lon="-8.7564917"><ele>94.33333333333334</ele><time>2026-04-17T10:38:18.899Z</time></trkpt><trkpt lat="42.6800833" lon="-8.7562133"><ele>92.0</ele><time>2026-04-17T10:38:19.899Z</time></trkpt><trkpt lat="42.6800017" lon="-8.755935"><ele>90.66666666666667</ele><time>2026-04-17T10:38:20.9Z</time></trkpt><trkpt lat="42.679915" lon="-8.7556533"><ele>89.33333333333333</ele><time>2026-04-17T10:38:21.899Z</time></trkpt><trkpt lat="42.679835" lon="-8.7553733"><ele>88.0</ele><time>2026-04-17T10:38:22.899Z</time></trkpt><trkpt lat="42.6797517" lon="-8.755095"><ele>87.66666666666666</ele><time>2026-04-17T10:38:23.899Z</time></trkpt><trkpt lat="42.67968" lon="-8.7548117"><ele>87.33333333333333</ele><time>2026-04-17T10:38:24.9Z</time></trkpt><trkpt lat="42.6796033" lon="-8.754535"><ele>87.0</ele><time>2026-04-17T10:38:25.899Z</time></trkpt><trkpt lat="42.6795217" lon="-8.7542567"><ele>84.0</ele><time>2026-04-17T10:38:26.899Z</time></trkpt><trkpt lat="42.6794317" lon="-8.7539833"><ele>81.0</ele><time>2026-04-17T10:38:27.9Z</time></trkpt><trkpt lat="42.6793483" lon="-8.7536983"><ele>78.0</ele><time>2026-04-17T10:38:28.9Z</time></trkpt><trkpt lat="42.6792667" lon="-8.75341"><ele>78.0</ele><time>2026-04-17T10:38:29.899Z</time></trkpt><trkpt lat="42.67918" lon="-8.7531167"><ele>78.0</ele><time>2026-04-17T10:38:30.899Z</time></trkpt><trkpt lat="42.6790933" lon="-8.75282"><ele>78.5</ele><time>2026-04-17T10:38:31.899Z</time></trkpt><trkpt lat="42.67901" lon="-8.752515"><ele>79.0</ele><time>2026-04-17T10:38:32.899Z</time></trkpt><trkpt lat="42.67892" lon="-8.7522167"><ele>79.0</ele><time>2026-04-17T10:38:33.9Z</time></trkpt><trkpt lat="42.6788367" lon="-8.7519133"><ele>79.0</ele><time>2026-04-17T10:38:34.9Z</time></trkpt><trkpt lat="42.6787583" lon="-8.7516017"><ele>77.5</ele><time>2026-04-17T10:38:35.9Z</time></trkpt><trkpt lat="42.6786983" lon="-8.7512767"><ele>76.0</ele><time>2026-04-17T10:38:36.899Z</time></trkpt><trkpt lat="42.67866" lon="-8.7509467"><ele>74.5</ele><time>2026-04-17T10:38:37.9Z</time></trkpt><trkpt lat="42.6786317" lon="-8.7506183"><ele>73.0</ele><time>2026-04-17T10:38:38.899Z</time></trkpt><trkpt lat="42.6786267" lon="-8.7502883"><ele>72.5</ele><time>2026-04-17T10:38:39.899Z</time></trkpt><trkpt lat="42.6786283" lon="-8.749955"><ele>72.0</ele><time>2026-04-17T10:38:40.9Z</time></trkpt><trkpt lat="42.67864" lon="-8.74963"><ele>74.5</ele><time>2026-04-17T10:38:41.899Z</time></trkpt><trkpt lat="42.678665" lon="-8.7493133"><ele>77.0</ele><time>2026-04-17T10:38:42.9Z</time></trkpt><trkpt lat="42.6787067" lon="-8.749"><ele>77.0</ele><time>2026-04-17T10:38:43.899Z</time></trkpt><trkpt lat="42.6787567" lon="-8.74869"><ele>77.0</ele><time>2026-04-17T10:38:44.899Z</time></trkpt><trkpt lat="42.6788183" lon="-8.74839"><ele>78.33333333333334</ele><time>2026-04-17T10:38:45.9Z</time></trkpt><trkpt lat="42.6788933" lon="-8.7481017"><ele>79.66666666666667</ele><time>2026-04-17T10:38:46.9Z</time></trkpt><trkpt lat="42.6789867" lon="-8.747825"><ele>81.0</ele><time>2026-04-17T10:38:47.9Z</time></trkpt><trkpt lat="42.6790867" lon="-8.74755"><ele>82.0</ele><time>2026-04-17T10:38:48.899Z</time></trkpt><trkpt lat="42.6792033" lon="-8.747285"><ele>83.0</ele><time>2026-04-17T10:38:49.9Z</time></trkpt><trkpt lat="42.679325" lon="-8.7470217"><ele>87.5</ele><time>2026-04-17T10:38:50.899Z</time></trkpt><trkpt lat="42.67946" lon="-8.7467567"><ele>92.0</ele><time>2026-04-17T10:38:51.899Z</time></trkpt><trkpt lat="42.6795967" lon="-8.7465133"><ele>92.0</ele><time>2026-04-17T10:38:52.899Z</time></trkpt><trkpt lat="42.6797483" lon="-8.74628"><ele>92.0</ele><time>2026-04-17T10:38:53.9Z</time></trkpt><trkpt lat="42.6799033" lon="-8.74605"><ele>85.5</ele><time>2026-04-17T10:38:54.9Z</time></trkpt><trkpt lat="42.6800767" lon="-8.745835"><ele>79.0</ele><time>2026-04-17T10:38:55.9Z</time></trkpt><trkpt lat="42.680255" lon="-8.745625"><ele>80.0</ele><time>2026-04-17T10:38:56.9Z</time></trkpt><trkpt lat="42.6804383" lon="-8.74543"><ele>81.0</ele><time>2026-04-17T10:38:57.899Z</time></trkpt><trkpt lat="42.6806417" lon="-8.7452583"><ele>76.0</ele><time>2026-04-17T10:38:58.899Z</time></trkpt><trkpt lat="42.6808533" lon="-8.7451017"><ele>71.0</ele><time>2026-04-17T10:38:59.899Z</time></trkpt><trkpt lat="42.6810617" lon="-8.7449633"><ele>72.0</ele><time>2026-04-17T10:39:00.899Z</time></trkpt><trkpt lat="42.6812783" lon="-8.74484"><ele>73.0</ele><time>2026-04-17T10:39:01.899Z</time></trkpt><trkpt lat="42.6815" lon="-8.7447267"><ele>73.0</ele><time>2026-04-17T10:39:02.9Z</time></trkpt><trkpt lat="42.6817217" lon="-8.7446267"><ele>73.0</ele><time>2026-04-17T10:39:03.9Z</time></trkpt><trkpt lat="42.6819267" lon="-8.7445483"><ele>73.0</ele><time>2026-04-17T10:39:04.899Z</time></trkpt><trkpt lat="42.6821317" lon="-8.7444667"><ele>71.33333333333333</ele><time>2026-04-17T10:39:05.9Z</time></trkpt><trkpt lat="42.6823317" lon="-8.7443817"><ele>69.66666666666667</ele><time>2026-04-17T10:39:06.9Z</time></trkpt><trkpt lat="42.6825167" lon="-8.7442983"><ele>68.0</ele><time>2026-04-17T10:39:07.9Z</time></trkpt><trkpt lat="42.682685" lon="-8.744205"><ele>63.66666666666667</ele><time>2026-04-17T10:39:08.899Z</time></trkpt><trkpt lat="42.6828417" lon="-8.7440933"><ele>59.33333333333333</ele><time>2026-04-17T10:39:09.9Z</time></trkpt><trkpt lat="42.68297" lon="-8.7439517"><ele>55.0</ele><time>2026-04-17T10:39:10.899Z</time></trkpt><trkpt lat="42.6830733" lon="-8.74379"><ele>55.0</ele><time>2026-04-17T10:39:11.899Z</time></trkpt><trkpt lat="42.6831517" lon="-8.743595"><ele>55.0</ele><time>2026-04-17T10:39:12.899Z</time></trkpt><trkpt lat="42.6831983" lon="-8.7433917"><ele>55.0</ele><time>2026-04-17T10:39:13.9Z</time></trkpt><trkpt lat="42.68322" lon="-8.7431733"><ele>54.33333333333333</ele><time>2026-04-17T10:39:14.9Z</time></trkpt><trkpt lat="42.6832317" lon="-8.7429467"><ele>53.66666666666667</ele><time>2026-04-17T10:39:15.899Z</time></trkpt><trkpt lat="42.6832117" lon="-8.7427233"><ele>53.0</ele><time>2026-04-17T10:39:16.9Z</time></trkpt><trkpt lat="42.6831883" lon="-8.7425183"><ele>53.0</ele><time>2026-04-17T10:39:17.899Z</time></trkpt><trkpt lat="42.683125" lon="-8.742325"><ele>53.0</ele><time>2026-04-17T10:39:18.899Z</time></trkpt><trkpt lat="42.683025" lon="-8.7421367"><ele>53.0</ele><time>2026-04-17T10:39:19.9Z</time></trkpt><trkpt lat="42.6829" lon="-8.7419517"><ele>53.66666666666667</ele><time>2026-04-17T10:39:20.9Z</time></trkpt><trkpt lat="42.6827533" lon="-8.7417817"><ele>54.33333333333333</ele><time>2026-04-17T10:39:21.9Z</time></trkpt><trkpt lat="42.6825967" lon="-8.7416117"><ele>55.0</ele><time>2026-04-17T10:39:22.9Z</time></trkpt><trkpt lat="42.682425" lon="-8.7414567"><ele>55.0</ele><time>2026-04-17T10:39:23.9Z</time></trkpt><trkpt lat="42.6822717" lon="-8.7412733"><ele>55.0</ele><time>2026-04-17T10:39:24.899Z</time></trkpt><trkpt lat="42.68212" lon="-8.7410783"><ele>55.0</ele><time>2026-04-17T10:39:25.899Z</time></trkpt><trkpt lat="42.6819817" lon="-8.740875"><ele>55.666666666666664</ele><time>2026-04-17T10:39:26.9Z</time></trkpt><trkpt lat="42.6818667" lon="-8.740685"><ele>56.33333333333333</ele><time>2026-04-17T10:39:27.901Z</time></trkpt><trkpt lat="42.6817567" lon="-8.7404833"><ele>57.0</ele><time>2026-04-17T10:39:28.9Z</time></trkpt><trkpt lat="42.6816367" lon="-8.7402667"><ele>55.0</ele><time>2026-04-17T10:39:29.901Z</time></trkpt><trkpt lat="42.6815517" lon="-8.74005"><ele>53.0</ele><time>2026-04-17T10:39:30.9Z</time></trkpt><trkpt lat="42.68146" lon="-8.7398517"><ele>51.0</ele><time>2026-04-17T10:39:31.9Z</time></trkpt><trkpt lat="42.6813917" lon="-8.7396267"><ele>50.33333333333333</ele><time>2026-04-17T10:39:32.9Z</time></trkpt><trkpt lat="42.681345" lon="-8.73938"><ele>49.666666666666664</ele><time>2026-04-17T10:39:33.901Z</time></trkpt><trkpt lat="42.6813117" lon="-8.739115"><ele>49.0</ele><time>2026-04-17T10:39:34.901Z</time></trkpt><trkpt lat="42.681285" lon="-8.7388233"><ele>49.666666666666664</ele><time>2026-04-17T10:39:35.9Z</time></trkpt><trkpt lat="42.6812517" lon="-8.7385283"><ele>50.33333333333333</ele><time>2026-04-17T10:39:36.9Z</time></trkpt><trkpt lat="42.6812067" lon="-8.7382283"><ele>51.0</ele><time>2026-04-17T10:39:37.9Z</time></trkpt><trkpt lat="42.6811533" lon="-8.7379233"><ele>54.66666666666667</ele><time>2026-04-17T10:39:38.9Z</time></trkpt><trkpt lat="42.681095" lon="-8.7376217"><ele>58.333333333333336</ele><time>2026-04-17T10:39:39.9Z</time></trkpt><trkpt lat="42.6810433" lon="-8.7373333"><ele>62.0</ele><time>2026-04-17T10:39:40.901Z</time></trkpt><trkpt lat="42.6809983" lon="-8.7370367"><ele>60.66666666666667</ele><time>2026-04-17T10:39:41.9Z</time></trkpt><trkpt lat="42.6809483" lon="-8.73676"><ele>59.33333333333333</ele><time>2026-04-17T10:39:42.9Z</time></trkpt><trkpt lat="42.680875" lon="-8.7364933"><ele>58.0</ele><time>2026-04-17T10:39:43.901Z</time></trkpt><trkpt lat="42.6807767" lon="-8.7362317"><ele>57.0</ele><time>2026-04-17T10:39:44.901Z</time></trkpt><trkpt lat="42.6806633" lon="-8.73598"><ele>56.0</ele><time>2026-04-17T10:39:45.901Z</time></trkpt><trkpt lat="42.68053" lon="-8.7357567"><ele>55.0</ele><time>2026-04-17T10:39:46.9Z</time></trkpt><trkpt lat="42.68038" lon="-8.735555"><ele>57.666666666666664</ele><time>2026-04-17T10:39:47.901Z</time></trkpt><trkpt lat="42.6802117" lon="-8.7353733"><ele>60.33333333333333</ele><time>2026-04-17T10:39:48.901Z</time></trkpt><trkpt lat="42.680035" lon="-8.7352167"><ele>63.0</ele><time>2026-04-17T10:39:49.9Z</time></trkpt><trkpt lat="42.6798367" lon="-8.7350833"><ele>59.0</ele><time>2026-04-17T10:39:50.9Z</time></trkpt><trkpt lat="42.6796217" lon="-8.7349633"><ele>55.0</ele><time>2026-04-17T10:39:51.901Z</time></trkpt><trkpt lat="42.6794117" lon="-8.73485"><ele>55.0</ele><time>2026-04-17T10:39:52.9Z</time></trkpt><trkpt lat="42.6792033" lon="-8.73474"><ele>55.0</ele><time>2026-04-17T10:39:53.9Z</time></trkpt><trkpt lat="42.67899" lon="-8.7346383"><ele>55.0</ele><time>2026-04-17T10:39:54.901Z</time></trkpt><trkpt lat="42.6787833" lon="-8.7345267"><ele>55.0</ele><time>2026-04-17T10:39:55.9Z</time></trkpt><trkpt lat="42.6785833" lon="-8.7344133"><ele>55.0</ele><time>2026-04-17T10:39:56.9Z</time></trkpt><trkpt lat="42.678385" lon="-8.7343117"><ele>52.666666666666664</ele><time>2026-04-17T10:39:57.901Z</time></trkpt><trkpt lat="42.678195" lon="-8.7341967"><ele>50.33333333333333</ele><time>2026-04-17T10:39:58.9Z</time></trkpt><trkpt lat="42.678005" lon="-8.734085"><ele>48.0</ele><time>2026-04-17T10:39:59.9Z</time></trkpt><trkpt lat="42.6778117" lon="-8.7339767"><ele>48.33333333333333</ele><time>2026-04-17T10:40:00.9Z</time></trkpt><trkpt lat="42.6776367" lon="-8.7338567"><ele>48.666666666666664</ele><time>2026-04-17T10:40:01.9Z</time></trkpt><trkpt lat="42.6774633" lon="-8.733715"><ele>49.0</ele><time>2026-04-17T10:40:02.9Z</time></trkpt><trkpt lat="42.6772933" lon="-8.73357"><ele>48.0</ele><time>2026-04-17T10:40:03.901Z</time></trkpt><trkpt lat="42.6771533" lon="-8.7333933"><ele>47.0</ele><time>2026-04-17T10:40:04.9Z</time></trkpt><trkpt lat="42.6769983" lon="-8.7332117"><ele>46.0</ele><time>2026-04-17T10:40:05.9Z</time></trkpt><trkpt lat="42.6768817" lon="-8.7330017"><ele>46.0</ele><time>2026-04-17T10:40:06.901Z</time></trkpt><trkpt lat="42.6767833" lon="-8.73279"><ele>46.0</ele><time>2026-04-17T10:40:07.901Z</time></trkpt><trkpt lat="42.676725" lon="-8.7325617"><ele>46.0</ele><time>2026-04-17T10:40:08.9Z</time></trkpt><trkpt lat="42.6766817" lon="-8.7323317"><ele>45.0</ele><time>2026-04-17T10:40:09.901Z</time></trkpt><trkpt lat="42.67666" lon="-8.7320967"><ele>44.0</ele><time>2026-04-17T10:40:10.901Z</time></trkpt><trkpt lat="42.67665" lon="-8.73186"><ele>43.0</ele><time>2026-04-17T10:40:11.901Z</time></trkpt><trkpt lat="42.6766467" lon="-8.7316233"><ele>41.0</ele><time>2026-04-17T10:40:12.9Z</time></trkpt><trkpt lat="42.6766633" lon="-8.731385"><ele>39.0</ele><time>2026-04-17T10:40:13.901Z</time></trkpt><trkpt lat="42.6766917" lon="-8.7311583"><ele>37.0</ele><time>2026-04-17T10:40:14.901Z</time></trkpt><trkpt lat="42.6767267" lon="-8.7309583"><ele>35.5</ele><time>2026-04-17T10:40:15.901Z</time></trkpt><trkpt lat="42.6767683" lon="-8.7307767"><ele>34.0</ele><time>2026-04-17T10:40:16.9Z</time></trkpt><trkpt lat="42.67681" lon="-8.7306067"><ele>32.5</ele><time>2026-04-17T10:40:17.9Z</time></trkpt><trkpt lat="42.6768517" lon="-8.730455"><ele>31.0</ele><time>2026-04-17T10:40:18.9Z</time></trkpt><trkpt lat="42.6768867" lon="-8.7303233"><ele>29.4</ele><time>2026-04-17T10:40:19.9Z</time></trkpt><trkpt lat="42.6769217" lon="-8.7302033"><ele>27.8</ele><time>2026-04-17T10:40:20.901Z</time></trkpt><trkpt lat="42.676955" lon="-8.7301"><ele>26.2</ele><time>2026-04-17T10:40:21.9Z</time></trkpt><trkpt lat="42.6769933" lon="-8.7299917"><ele>24.599999999999998</ele><time>2026-04-17T10:40:22.9Z</time></trkpt><trkpt lat="42.6770217" lon="-8.72987"><ele>23.0</ele><time>2026-04-17T10:40:23.901Z</time></trkpt><trkpt lat="42.6770433" lon="-8.7297417"><ele>23.0</ele><time>2026-04-17T10:40:24.9Z</time></trkpt><trkpt lat="42.6770367" lon="-8.729625"><ele>23.0</ele><time>2026-04-17T10:40:25.9Z</time></trkpt><trkpt lat="42.67703" lon="-8.7295067"><ele>23.0</ele><time>2026-04-17T10:40:26.9Z</time></trkpt><trkpt lat="42.6770433" lon="-8.729395"><ele>23.0</ele><time>2026-04-17T10:40:27.9Z</time></trkpt><trkpt lat="42.6770617" lon="-8.7292833"><ele>23.0</ele><time>2026-04-17T10:40:28.9Z</time></trkpt><trkpt lat="42.6771033" lon="-8.7291767"><ele>23.0</ele><time>2026-04-17T10:40:29.901Z</time></trkpt><trkpt lat="42.6771517" lon="-8.7290733"><ele>21.599999999999998</ele><time>2026-04-17T10:40:30.901Z</time></trkpt><trkpt lat="42.677195" lon="-8.7289583"><ele>20.2</ele><time>2026-04-17T10:40:31.901Z</time></trkpt><trkpt lat="42.6772283" lon="-8.728825"><ele>18.8</ele><time>2026-04-17T10:40:32.9Z</time></trkpt><trkpt lat="42.67725" lon="-8.7286883"><ele>17.4</ele><time>2026-04-17T10:40:33.901Z</time></trkpt><trkpt lat="42.6772567" lon="-8.728545"><ele>16.0</ele><time>2026-04-17T10:40:34.9Z</time></trkpt><trkpt lat="42.67725" lon="-8.728405"><ele>14.600000000000001</ele><time>2026-04-17T10:40:35.901Z</time></trkpt><trkpt lat="42.67724" lon="-8.7282717"><ele>13.200000000000001</ele><time>2026-04-17T10:40:36.9Z</time></trkpt><trkpt lat="42.6772233" lon="-8.728135"><ele>11.8</ele><time>2026-04-17T10:40:37.9Z</time></trkpt><trkpt lat="42.6772083" lon="-8.7279983"><ele>10.4</ele><time>2026-04-17T10:40:38.901Z</time></trkpt><trkpt lat="42.6771917" lon="-8.7278533"><ele>9.0</ele><time>2026-04-17T10:40:39.9Z</time></trkpt><trkpt lat="42.6771817" lon="-8.7277"><ele>8.0</ele><time>2026-04-17T10:40:40.9Z</time></trkpt><trkpt lat="42.6771733" lon="-8.7275467"><ele>7.0</ele><time>2026-04-17T10:40:41.9Z</time></trkpt><trkpt lat="42.677165" lon="-8.72738"><ele>6.0</ele><time>2026-04-17T10:40:42.901Z</time></trkpt><trkpt lat="42.6771533" lon="-8.7272183"><ele>5.0</ele><time>2026-04-17T10:40:43.9Z</time></trkpt><trkpt lat="42.677135" lon="-8.727055"><ele>3.75</ele><time>2026-04-17T10:40:44.901Z</time></trkpt><trkpt lat="42.67712" lon="-8.726885"><ele>2.5</ele><time>2026-04-17T10:40:45.9Z</time></trkpt><trkpt lat="42.6771067" lon="-8.726705"><ele>1.25</ele><time>2026-04-17T10:40:46.9Z</time></trkpt><trkpt lat="42.6770917" lon="-8.7265267"><ele>0.0</ele><time>2026-04-17T10:40:47.901Z</time></trkpt><trkpt lat="42.6770767" lon="-8.7263467"><ele>0.0</ele><time>2026-04-17T10:40:48.9Z</time></trkpt><trkpt lat="42.677065" lon="-8.7261617"><ele>0.0</ele><time>2026-04-17T10:40:49.901Z</time></trkpt><trkpt lat="42.6770483" lon="-8.72598"><ele>0.0</ele><time>2026-04-17T10:40:50.9Z</time></trkpt><trkpt lat="42.6770367" lon="-8.7257933"><ele>0.0</ele><time>2026-04-17T10:40:51.901Z</time></trkpt><trkpt lat="42.6770283" lon="-8.7256033"><ele>0.25</ele><time>2026-04-17T10:40:52.9Z</time></trkpt><trkpt lat="42.6770217" lon="-8.7254083"><ele>0.5</ele><time>2026-04-17T10:40:53.901Z</time></trkpt><trkpt lat="42.6770033" lon="-8.7252233"><ele>0.75</ele><time>2026-04-17T10:40:54.901Z</time></trkpt><trkpt lat="42.6769783" lon="-8.7250433"><ele>1.0</ele><time>2026-04-17T10:40:55.901Z</time></trkpt><trkpt lat="42.676955" lon="-8.724855"><ele>1.0</ele><time>2026-04-17T10:40:56.901Z</time></trkpt><trkpt lat="42.67694" lon="-8.7246583"><ele>1.0</ele><time>2026-04-17T10:40:57.9Z</time></trkpt><trkpt lat="42.6769217" lon="-8.7244617"><ele>1.0</ele><time>2026-04-17T10:40:58.9Z</time></trkpt><trkpt lat="42.676905" lon="-8.7242617"><ele>1.0</ele><time>2026-04-17T10:40:59.9Z</time></trkpt><trkpt lat="42.67689" lon="-8.7240583"><ele>0.6666666666666666</ele><time>2026-04-17T10:41:00.9Z</time></trkpt><trkpt lat="42.6768733" lon="-8.723855"><ele>0.3333333333333333</ele><time>2026-04-17T10:41:01.901Z</time></trkpt><trkpt lat="42.67686" lon="-8.72365"><ele>0.0</ele><time>2026-04-17T10:41:02.9Z</time></trkpt><trkpt lat="42.67684" lon="-8.7234467"><ele>0.0</ele><time>2026-04-17T10:41:03.9Z</time></trkpt><trkpt lat="42.6768233" lon="-8.7232483"><ele>0.0</ele><time>2026-04-17T10:41:04.9Z</time></trkpt><trkpt lat="42.676805" lon="-8.7230367"><ele>0.0</ele><time>2026-04-17T10:41:05.901Z</time></trkpt><trkpt lat="42.6767917" lon="-8.722825"><ele>0.3333333333333333</ele><time>2026-04-17T10:41:06.901Z</time></trkpt><trkpt lat="42.6767767" lon="-8.722605"><ele>0.6666666666666666</ele><time>2026-04-17T10:41:07.901Z</time></trkpt><trkpt lat="42.6767567" lon="-8.7223883"><ele>1.0</ele><time>2026-04-17T10:41:08.901Z</time></trkpt><trkpt lat="42.67674" lon="-8.7221633"><ele>1.0</ele><time>2026-04-17T10:41:09.901Z</time></trkpt><trkpt lat="42.6767133" lon="-8.7219533"><ele>1.0</ele><time>2026-04-17T10:41:10.901Z</time></trkpt><trkpt lat="42.6766933" lon="-8.7217317"><ele>1.0</ele><time>2026-04-17T10:41:11.9Z</time></trkpt><trkpt lat="42.67668" lon="-8.7215083"><ele>1.6666666666666665</ele><time>2026-04-17T10:41:12.9Z</time></trkpt><trkpt lat="42.6766683" lon="-8.7212783"><ele>2.3333333333333335</ele><time>2026-04-17T10:41:13.9Z</time></trkpt><trkpt lat="42.6766467" lon="-8.72105"><ele>3.0</ele><time>2026-04-17T10:41:14.901Z</time></trkpt><trkpt lat="42.6766367" lon="-8.72082"><ele>3.333333333333333</ele><time>2026-04-17T10:41:15.9Z</time></trkpt><trkpt lat="42.67662" lon="-8.7206017"><ele>3.6666666666666665</ele><time>2026-04-17T10:41:16.901Z</time></trkpt><trkpt lat="42.6766" lon="-8.7203817"><ele>4.0</ele><time>2026-04-17T10:41:17.901Z</time></trkpt><trkpt lat="42.67658" lon="-8.7201633"><ele>5.0</ele><time>2026-04-17T10:41:18.901Z</time></trkpt><trkpt lat="42.6765683" lon="-8.7199433"><ele>6.0</ele><time>2026-04-17T10:41:19.901Z</time></trkpt><trkpt lat="42.6765517" lon="-8.7197383"><ele>7.0</ele><time>2026-04-17T10:41:20.901Z</time></trkpt><trkpt lat="42.6765417" lon="-8.71954"><ele>7.6</ele><time>2026-04-17T10:41:21.901Z</time></trkpt><trkpt lat="42.67653" lon="-8.719375"><ele>8.2</ele><time>2026-04-17T10:41:22.9Z</time></trkpt><trkpt lat="42.6765083" lon="-8.7192317"><ele>8.8</ele><time>2026-04-17T10:41:23.9Z</time></trkpt><trkpt lat="42.6764917" lon="-8.71911"><ele>9.4</ele><time>2026-04-17T10:41:24.9Z</time></trkpt><trkpt lat="42.6764783" lon="-8.7189917"><ele>10.0</ele><time>2026-04-17T10:41:25.9Z</time></trkpt><trkpt lat="42.6764483" lon="-8.7188567"><ele>10.0</ele><time>2026-04-17T10:41:26.901Z</time></trkpt><trkpt lat="42.676405" lon="-8.7187117"><ele>10.0</ele><time>2026-04-17T10:41:27.9Z</time></trkpt><trkpt lat="42.6763633" lon="-8.7185433"><ele>10.0</ele><time>2026-04-17T10:41:28.901Z</time></trkpt><trkpt lat="42.6763183" lon="-8.7183683"><ele>10.0</ele><time>2026-04-17T10:41:29.9Z</time></trkpt><trkpt lat="42.6762767" lon="-8.71818"><ele>10.333333333333334</ele><time>2026-04-17T10:41:30.9Z</time></trkpt><trkpt lat="42.6762283" lon="-8.71798"><ele>10.666666666666666</ele><time>2026-04-17T10:41:31.901Z</time></trkpt><trkpt lat="42.6761567" lon="-8.7177817"><ele>11.0</ele><time>2026-04-17T10:41:32.901Z</time></trkpt><trkpt lat="42.6760883" lon="-8.7175733"><ele>17.333333333333332</ele><time>2026-04-17T10:41:33.901Z</time></trkpt><trkpt lat="42.676005" lon="-8.7173483"><ele>23.666666666666668</ele><time>2026-04-17T10:41:34.9Z</time></trkpt><trkpt lat="42.6759167" lon="-8.71712"><ele>30.0</ele><time>2026-04-17T10:41:35.9Z</time></trkpt><trkpt lat="42.6758233" lon="-8.71689"><ele>30.666666666666664</ele><time>2026-04-17T10:41:36.9Z</time></trkpt><trkpt lat="42.675725" lon="-8.7166567"><ele>31.333333333333332</ele><time>2026-04-17T10:41:37.9Z</time></trkpt><trkpt lat="42.6756133" lon="-8.716415"><ele>32.0</ele><time>2026-04-17T10:41:38.901Z</time></trkpt><trkpt lat="42.6755033" lon="-8.7161733"><ele>29.666666666666664</ele><time>2026-04-17T10:41:39.901Z</time></trkpt><trkpt lat="42.6753933" lon="-8.7159283"><ele>27.333333333333336</ele><time>2026-04-17T10:41:40.9Z</time></trkpt><trkpt lat="42.675285" lon="-8.7156933"><ele>25.0</ele><time>2026-04-17T10:41:41.9Z</time></trkpt><trkpt lat="42.6751733" lon="-8.7154933"><ele>27.0</ele><time>2026-04-17T10:41:42.9Z</time></trkpt><trkpt lat="42.675045" lon="-8.71534"><ele>29.0</ele><time>2026-04-17T10:41:43.9Z</time></trkpt><trkpt lat="42.6748817" lon="-8.7152217"><ele>31.0</ele><time>2026-04-17T10:41:44.901Z</time></trkpt><trkpt lat="42.6747067" lon="-8.7151217"><ele>31.0</ele><time>2026-04-17T10:41:45.9Z</time></trkpt><trkpt lat="42.6745233" lon="-8.7150317"><ele>31.0</ele><time>2026-04-17T10:41:46.901Z</time></trkpt><trkpt lat="42.6743333" lon="-8.714925"><ele>31.0</ele><time>2026-04-17T10:41:47.9Z</time></trkpt><trkpt lat="42.67414" lon="-8.714815"><ele>35.0</ele><time>2026-04-17T10:41:48.9Z</time></trkpt><trkpt lat="42.6739683" lon="-8.7146983"><ele>39.0</ele><time>2026-04-17T10:41:49.9Z</time></trkpt><trkpt lat="42.6738033" lon="-8.7146"><ele>43.0</ele><time>2026-04-17T10:41:50.901Z</time></trkpt><trkpt lat="42.6736483" lon="-8.7145033"><ele>43.66666666666667</ele><time>2026-04-17T10:41:51.901Z</time></trkpt><trkpt lat="42.67351" lon="-8.7144133"><ele>44.333333333333336</ele><time>2026-04-17T10:41:52.901Z</time></trkpt><trkpt lat="42.673365" lon="-8.7143283"><ele>45.0</ele><time>2026-04-17T10:41:53.9Z</time></trkpt><trkpt lat="42.6732167" lon="-8.7142433"><ele>45.0</ele><time>2026-04-17T10:41:54.9Z</time></trkpt><trkpt lat="42.6730933" lon="-8.7141283"><ele>45.0</ele><time>2026-04-17T10:41:55.901Z</time></trkpt><trkpt lat="42.6729833" lon="-8.7139767"><ele>45.0</ele><time>2026-04-17T10:41:56.9Z</time></trkpt><trkpt lat="42.6728883" lon="-8.713785"><ele>43.666666666666664</ele><time>2026-04-17T10:41:57.901Z</time></trkpt><trkpt lat="42.6728167" lon="-8.7135683"><ele>42.33333333333333</ele><time>2026-04-17T10:41:58.9Z</time></trkpt><trkpt lat="42.672755" lon="-8.713335"><ele>41.0</ele><time>2026-04-17T10:41:59.901Z</time></trkpt><trkpt lat="42.67271" lon="-8.7131083"><ele>41.0</ele><time>2026-04-17T10:42:00.901Z</time></trkpt><trkpt lat="42.672645" lon="-8.7129"><ele>41.0</ele><time>2026-04-17T10:42:01.9Z</time></trkpt><trkpt lat="42.67258" lon="-8.7127017"><ele>41.0</ele><time>2026-04-17T10:42:02.901Z</time></trkpt><trkpt lat="42.6725117" lon="-8.712505"><ele>39.25</ele><time>2026-04-17T10:42:03.9Z</time></trkpt><trkpt lat="42.6724583" lon="-8.7123083"><ele>37.5</ele><time>2026-04-17T10:42:04.901Z</time></trkpt><trkpt lat="42.6723983" lon="-8.7121267"><ele>35.75</ele><time>2026-04-17T10:42:05.901Z</time></trkpt><trkpt lat="42.6723467" lon="-8.7119717"><ele>34.0</ele><time>2026-04-17T10:42:06.9Z</time></trkpt><trkpt lat="42.6723033" lon="-8.7118533"><ele>34.0</ele><time>2026-04-17T10:42:07.901Z</time></trkpt><trkpt lat="42.6722633" lon="-8.71177"><ele>34.0</ele><time>2026-04-17T10:42:08.9Z</time></trkpt><trkpt lat="42.672195" lon="-8.7117383"><ele>34.0</ele><time>2026-04-17T10:42:10.901Z</time></trkpt><trkpt lat="42.672085" lon="-8.71186"><ele>34.0</ele><time>2026-04-17T10:42:12.901Z</time></trkpt><trkpt lat="42.672005" lon="-8.7119317"><ele>34.0</ele><time>2026-04-17T10:42:13.9Z</time></trkpt><trkpt lat="42.6719017" lon="-8.7120267"><ele>34.6</ele><time>2026-04-17T10:42:14.9Z</time></trkpt><trkpt lat="42.67181" lon="-8.712115"><ele>35.2</ele><time>2026-04-17T10:42:15.901Z</time></trkpt><trkpt lat="42.67173" lon="-8.712195"><ele>35.800000000000004</ele><time>2026-04-17T10:42:16.901Z</time></trkpt><trkpt lat="42.6716533" lon="-8.712265"><ele>36.4</ele><time>2026-04-17T10:42:17.901Z</time></trkpt><trkpt lat="42.6715783" lon="-8.7123267"><ele>37.0</ele><time>2026-04-17T10:42:18.9Z</time></trkpt><trkpt lat="42.6714983" lon="-8.7123783"><ele>37.0</ele><time>2026-04-17T10:42:19.901Z</time></trkpt><trkpt lat="42.6714117" lon="-8.7124283"><ele>37.0</ele><time>2026-04-17T10:42:20.9Z</time></trkpt><trkpt lat="42.6713217" lon="-8.7124667"><ele>37.0</ele><time>2026-04-17T10:42:21.9Z</time></trkpt><trkpt lat="42.6712517" lon="-8.7124867"><ele>37.0</ele><time>2026-04-17T10:42:22.901Z</time></trkpt><trkpt lat="42.671185" lon="-8.7124817"><ele>37.0</ele><time>2026-04-17T10:42:23.9Z</time></trkpt><trkpt lat="42.6711" lon="-8.71238"><ele>37.0</ele><time>2026-04-17T10:42:25.9Z</time></trkpt><trkpt lat="42.67106" lon="-8.71229"><ele>37.2</ele><time>2026-04-17T10:42:26.9Z</time></trkpt><trkpt lat="42.6710167" lon="-8.7121883"><ele>37.400000000000006</ele><time>2026-04-17T10:42:27.9Z</time></trkpt><trkpt lat="42.6709717" lon="-8.7120733"><ele>37.599999999999994</ele><time>2026-04-17T10:42:28.9Z</time></trkpt><trkpt lat="42.6709433" lon="-8.7119433"><ele>37.8</ele><time>2026-04-17T10:42:29.901Z</time></trkpt><trkpt lat="42.6709317" lon="-8.7117983"><ele>38.0</ele><time>2026-04-17T10:42:30.9Z</time></trkpt><trkpt lat="42.67093" lon="-8.7116417"><ele>38.0</ele><time>2026-04-17T10:42:31.9Z</time></trkpt><trkpt lat="42.670925" lon="-8.71147"><ele>38.0</ele><time>2026-04-17T10:42:32.901Z</time></trkpt><trkpt lat="42.6709067" lon="-8.7112983"><ele>38.0</ele><time>2026-04-17T10:42:33.9Z</time></trkpt><trkpt lat="42.6708767" lon="-8.7111267"><ele>38.0</ele><time>2026-04-17T10:42:34.9Z</time></trkpt><trkpt lat="42.6708567" lon="-8.7109467"><ele>38.0</ele><time>2026-04-17T10:42:35.9Z</time></trkpt><trkpt lat="42.6708483" lon="-8.7107783"><ele>38.0</ele><time>2026-04-17T10:42:36.9Z</time></trkpt><trkpt lat="42.6708483" lon="-8.710635"><ele>38.0</ele><time>2026-04-17T10:42:37.901Z</time></trkpt><trkpt lat="42.6708583" lon="-8.71052"><ele>38.0</ele><time>2026-04-17T10:42:38.901Z</time></trkpt><trkpt lat="42.6708733" lon="-8.7104367"><ele>38.0</ele><time>2026-04-17T10:42:39.901Z</time></trkpt><trkpt lat="42.6709017" lon="-8.7103167"><ele>38.166666666666664</ele><time>2026-04-17T10:42:42.9Z</time></trkpt><trkpt lat="42.67098" lon="-8.7102183"><ele>38.33333333333333</ele><time>2026-04-17T10:42:44.9Z</time></trkpt><trkpt lat="42.6710833" lon="-8.7101667"><ele>38.5</ele><time>2026-04-17T10:42:46.901Z</time></trkpt><trkpt lat="42.671155" lon="-8.7101183"><ele>38.666666666666664</ele><time>2026-04-17T10:42:47.9Z</time></trkpt><trkpt lat="42.6712183" lon="-8.7100533"><ele>38.833333333333336</ele><time>2026-04-17T10:42:48.9Z</time></trkpt><trkpt lat="42.671275" lon="-8.70999"><ele>39.0</ele><time>2026-04-17T10:42:49.901Z</time></trkpt><trkpt lat="42.6713283" lon="-8.7098617"><ele>39.0</ele><time>2026-04-17T10:42:51.901Z</time></trkpt><trkpt lat="42.671445" lon="-8.709855"><ele>39.0</ele><time>2026-04-17T10:45:39.901Z</time></trkpt><trkpt lat="42.6713967" lon="-8.7097583"><ele>39.0</ele><time>2026-04-17T10:46:08.901Z</time></trkpt><trkpt lat="42.6715033" lon="-8.70967"><ele>39.0</ele><time>2026-04-17T10:47:14.902Z</time></trkpt><trkpt lat="42.6715783" lon="-8.709585"><ele>39.0</ele><time>2026-04-17T10:49:24.901Z</time></trkpt><trkpt lat="42.6715183" lon="-8.7094583"><ele>40.333333333333336</ele><time>2026-04-17T11:06:34.905Z</time></trkpt><trkpt lat="42.6714867" lon="-8.7092983"><ele>41.66666666666667</ele><time>2026-04-17T11:06:35.904Z</time></trkpt><trkpt lat="42.671435" lon="-8.7090867"><ele>43.0</ele><time>2026-04-17T11:06:36.905Z</time></trkpt><trkpt lat="42.6713567" lon="-8.7088817"><ele>43.0</ele><time>2026-04-17T11:06:37.904Z</time></trkpt><trkpt lat="42.671275" lon="-8.7086883"><ele>43.0</ele><time>2026-04-17T11:06:38.904Z</time></trkpt><trkpt lat="42.6712233" lon="-8.7085017"><ele>43.0</ele><time>2026-04-17T11:06:39.905Z</time></trkpt><trkpt lat="42.6711567" lon="-8.70836"><ele>43.0</ele><time>2026-04-17T11:06:40.905Z</time></trkpt><trkpt lat="42.671075" lon="-8.7082283"><ele>44.2</ele><time>2026-04-17T11:06:41.904Z</time></trkpt><trkpt lat="42.67099" lon="-8.708105"><ele>45.4</ele><time>2026-04-17T11:06:42.905Z</time></trkpt><trkpt lat="42.670915" lon="-8.708"><ele>46.6</ele><time>2026-04-17T11:06:43.905Z</time></trkpt><trkpt lat="42.6708433" lon="-8.7079167"><ele>47.800000000000004</ele><time>2026-04-17T11:06:44.904Z</time></trkpt><trkpt lat="42.67078" lon="-8.707845"><ele>49.0</ele><time>2026-04-17T11:06:45.904Z</time></trkpt><trkpt lat="42.67073" lon="-8.7077667"><ele>49.166666666666664</ele><time>2026-04-17T11:06:46.904Z</time></trkpt><trkpt lat="42.67068" lon="-8.7077"><ele>49.33333333333333</ele><time>2026-04-17T11:06:47.904Z</time></trkpt><trkpt lat="42.67063" lon="-8.70763"><ele>49.5</ele><time>2026-04-17T11:06:48.904Z</time></trkpt><trkpt lat="42.6705783" lon="-8.70756"><ele>49.66666666666667</ele><time>2026-04-17T11:06:49.905Z</time></trkpt><trkpt lat="42.6705183" lon="-8.7074717"><ele>49.833333333333336</ele><time>2026-04-17T11:06:50.905Z</time></trkpt><trkpt lat="42.670455" lon="-8.707375"><ele>50.0</ele><time>2026-04-17T11:06:51.904Z</time></trkpt><trkpt lat="42.6703833" lon="-8.7072717"><ele>50.0</ele><time>2026-04-17T11:06:52.905Z</time></trkpt><trkpt lat="42.6703" lon="-8.7071567"><ele>50.0</ele><time>2026-04-17T11:06:53.904Z</time></trkpt><trkpt lat="42.670195" lon="-8.70704"><ele>50.0</ele><time>2026-04-17T11:06:54.904Z</time></trkpt><trkpt lat="42.670085" lon="-8.7069033"><ele>50.0</ele><time>2026-04-17T11:06:55.905Z</time></trkpt><trkpt lat="42.6699633" lon="-8.7067433"><ele>48.0</ele><time>2026-04-17T11:06:56.904Z</time></trkpt><trkpt lat="42.6698417" lon="-8.706585"><ele>46.0</ele><time>2026-04-17T11:06:57.905Z</time></trkpt><trkpt lat="42.6697067" lon="-8.7064083"><ele>44.0</ele><time>2026-04-17T11:06:58.905Z</time></trkpt><trkpt lat="42.6695633" lon="-8.7062217"><ele>43.33333333333333</ele><time>2026-04-17T11:06:59.904Z</time></trkpt><trkpt lat="42.66941" lon="-8.7060317"><ele>42.666666666666664</ele><time>2026-04-17T11:07:00.904Z</time></trkpt><trkpt lat="42.6692633" lon="-8.7058433"><ele>42.0</ele><time>2026-04-17T11:07:01.905Z</time></trkpt><trkpt lat="42.6691117" lon="-8.7056533"><ele>42.0</ele><time>2026-04-17T11:07:02.904Z</time></trkpt><trkpt lat="42.6689617" lon="-8.7054667"><ele>42.0</ele><time>2026-04-17T11:07:03.904Z</time></trkpt><trkpt lat="42.6688133" lon="-8.7052867"><ele>42.0</ele><time>2026-04-17T11:07:04.904Z</time></trkpt><trkpt lat="42.6686583" lon="-8.7051183"><ele>42.666666666666664</ele><time>2026-04-17T11:07:05.904Z</time></trkpt><trkpt lat="42.6684967" lon="-8.70496"><ele>43.33333333333333</ele><time>2026-04-17T11:07:06.905Z</time></trkpt><trkpt lat="42.6683367" lon="-8.7048283"><ele>44.0</ele><time>2026-04-17T11:07:07.905Z</time></trkpt><trkpt lat="42.6681683" lon="-8.7046867"><ele>44.0</ele><time>2026-04-17T11:07:08.904Z</time></trkpt><trkpt lat="42.6679933" lon="-8.7045533"><ele>44.0</ele><time>2026-04-17T11:07:09.905Z</time></trkpt><trkpt lat="42.66781" lon="-8.7044383"><ele>44.0</ele><time>2026-04-17T11:07:10.904Z</time></trkpt><trkpt lat="42.6676367" lon="-8.7043217"><ele>45.0</ele><time>2026-04-17T11:07:11.905Z</time></trkpt><trkpt lat="42.6674467" lon="-8.7042083"><ele>46.0</ele><time>2026-04-17T11:07:12.905Z</time></trkpt><trkpt lat="42.667255" lon="-8.7041083"><ele>47.0</ele><time>2026-04-17T11:07:13.905Z</time></trkpt><trkpt lat="42.667055" lon="-8.704025"><ele>49.33333333333333</ele><time>2026-04-17T11:07:14.905Z</time></trkpt><trkpt lat="42.6668433" lon="-8.7039433"><ele>51.666666666666664</ele><time>2026-04-17T11:07:15.905Z</time></trkpt><trkpt lat="42.6666417" lon="-8.7038733"><ele>54.0</ele><time>2026-04-17T11:07:16.904Z</time></trkpt><trkpt lat="42.6664367" lon="-8.7038167"><ele>54.0</ele><time>2026-04-17T11:07:17.904Z</time></trkpt><trkpt lat="42.666225" lon="-8.7037767"><ele>54.0</ele><time>2026-04-17T11:07:18.905Z</time></trkpt><trkpt lat="42.6660167" lon="-8.703755"><ele>54.0</ele><time>2026-04-17T11:07:19.905Z</time></trkpt><trkpt lat="42.6658033" lon="-8.703735"><ele>56.33333333333333</ele><time>2026-04-17T11:07:20.905Z</time></trkpt><trkpt lat="42.665595" lon="-8.7037317"><ele>58.666666666666664</ele><time>2026-04-17T11:07:21.904Z</time></trkpt><trkpt lat="42.665375" lon="-8.703745"><ele>61.0</ele><time>2026-04-17T11:07:22.904Z</time></trkpt><trkpt lat="42.6651683" lon="-8.7037733"><ele>63.0</ele><time>2026-04-17T11:07:23.905Z</time></trkpt><trkpt lat="42.66496" lon="-8.7038067"><ele>65.0</ele><time>2026-04-17T11:07:24.904Z</time></trkpt><trkpt lat="42.6647467" lon="-8.703845"><ele>67.0</ele><time>2026-04-17T11:07:25.904Z</time></trkpt><trkpt lat="42.6645367" lon="-8.703875"><ele>68.0</ele><time>2026-04-17T11:07:26.904Z</time></trkpt><trkpt lat="42.6643283" lon="-8.703915"><ele>69.0</ele><time>2026-04-17T11:07:27.905Z</time></trkpt><trkpt lat="42.6641217" lon="-8.7039433"><ele>70.0</ele><time>2026-04-17T11:07:28.904Z</time></trkpt><trkpt lat="42.6639133" lon="-8.7039867"><ele>70.0</ele><time>2026-04-17T11:07:29.905Z</time></trkpt><trkpt lat="42.66373" lon="-8.7039917"><ele>70.0</ele><time>2026-04-17T11:07:30.904Z</time></trkpt><trkpt lat="42.6635717" lon="-8.7039917"><ele>70.0</ele><time>2026-04-17T11:07:31.904Z</time></trkpt><trkpt lat="42.6634367" lon="-8.7039733"><ele>70.16666666666666</ele><time>2026-04-17T11:07:32.905Z</time></trkpt><trkpt lat="42.6633367" lon="-8.70395"><ele>70.33333333333333</ele><time>2026-04-17T11:07:33.905Z</time></trkpt><trkpt lat="42.6632667" lon="-8.7039383"><ele>70.5</ele><time>2026-04-17T11:07:34.904Z</time></trkpt><trkpt lat="42.66319" lon="-8.70391"><ele>70.66666666666667</ele><time>2026-04-17T11:07:36.904Z</time></trkpt><trkpt lat="42.6632583" lon="-8.70391"><ele>70.83333333333334</ele><time>2026-04-17T11:07:40.905Z</time></trkpt><trkpt lat="42.6633317" lon="-8.7040033"><ele>71.0</ele><time>2026-04-17T11:07:42.905Z</time></trkpt><trkpt lat="42.6633617" lon="-8.70414"><ele>71.0</ele><time>2026-04-17T11:07:44.904Z</time></trkpt><trkpt lat="42.66333" lon="-8.70434"><ele>71.0</ele><time>2026-04-17T11:07:46.905Z</time></trkpt><trkpt lat="42.6633" lon="-8.704435"><ele>71.0</ele><time>2026-04-17T11:07:47.904Z</time></trkpt><trkpt lat="42.66327" lon="-8.7045317"><ele>71.0</ele><time>2026-04-17T11:07:48.904Z</time></trkpt><trkpt lat="42.6632367" lon="-8.7046267"><ele>71.0</ele><time>2026-04-17T11:07:49.904Z</time></trkpt><trkpt lat="42.6632083" lon="-8.70471"><ele>71.0</ele><time>2026-04-17T11:07:50.905Z</time></trkpt><trkpt lat="42.6631717" lon="-8.7048533"><ele>70.5</ele><time>2026-04-17T11:07:52.904Z</time></trkpt><trkpt lat="42.66317" lon="-8.7049633"><ele>70.0</ele><time>2026-04-17T11:07:54.904Z</time></trkpt><trkpt lat="42.6631083" lon="-8.7050017"><ele>69.5</ele><time>2026-04-17T11:07:58.905Z</time></trkpt><trkpt lat="42.6630567" lon="-8.7049"><ele>69.0</ele><time>2026-04-17T11:08:01.905Z</time></trkpt><trkpt lat="42.6630283" lon="-8.7047717"><ele>68.5</ele><time>2026-04-17T11:08:03.905Z</time></trkpt><trkpt lat="42.6629767" lon="-8.704685"><ele>68.0</ele><time>2026-04-17T11:08:05.905Z</time></trkpt><trkpt lat="42.6629633" lon="-8.70454"><ele>68.75</ele><time>2026-04-17T11:08:08.905Z</time></trkpt><trkpt lat="42.6629333" lon="-8.7043583"><ele>69.5</ele><time>2026-04-17T11:08:10.904Z</time></trkpt><trkpt lat="42.6628833" lon="-8.7042633"><ele>70.25</ele><time>2026-04-17T11:08:11.905Z</time></trkpt><trkpt lat="42.66282" lon="-8.70415"><ele>71.0</ele><time>2026-04-17T11:08:12.905Z</time></trkpt><trkpt lat="42.66274" lon="-8.70402"><ele>71.0</ele><time>2026-04-17T11:08:13.905Z</time></trkpt><trkpt lat="42.66278" lon="-8.7037067"><ele>71.0</ele><time>2026-04-17T11:08:14.904Z</time></trkpt><trkpt lat="42.6626683" lon="-8.7035617"><ele>71.0</ele><time>2026-04-17T11:08:15.905Z</time></trkpt><trkpt lat="42.6625617" lon="-8.7033983"><ele>71.0</ele><time>2026-04-17T11:08:16.904Z</time></trkpt><trkpt lat="42.6624717" lon="-8.7031967"><ele>71.0</ele><time>2026-04-17T11:08:17.904Z</time></trkpt><trkpt lat="42.662375" lon="-8.7030017"><ele>71.0</ele><time>2026-04-17T11:08:18.904Z</time></trkpt><trkpt lat="42.6622533" lon="-8.7028217"><ele>71.0</ele><time>2026-04-17T11:08:19.905Z</time></trkpt><trkpt lat="42.66212" lon="-8.7026817"><ele>71.0</ele><time>2026-04-17T11:08:20.904Z</time></trkpt><trkpt lat="42.6619833" lon="-8.7025667"><ele>71.0</ele><time>2026-04-17T11:08:21.904Z</time></trkpt><trkpt lat="42.6618483" lon="-8.702475"><ele>73.5</ele><time>2026-04-17T11:08:22.905Z</time></trkpt><trkpt lat="42.6617117" lon="-8.7024133"><ele>76.0</ele><time>2026-04-17T11:08:23.904Z</time></trkpt><trkpt lat="42.6615783" lon="-8.7023783"><ele>78.5</ele><time>2026-04-17T11:08:24.904Z</time></trkpt><trkpt lat="42.6614367" lon="-8.70236"><ele>81.0</ele><time>2026-04-17T11:08:25.904Z</time></trkpt><trkpt lat="42.6612967" lon="-8.7023683"><ele>81.0</ele><time>2026-04-17T11:08:26.904Z</time></trkpt><trkpt lat="42.6611317" lon="-8.7023933"><ele>81.0</ele><time>2026-04-17T11:08:27.904Z</time></trkpt><trkpt lat="42.6609783" lon="-8.7024283"><ele>81.0</ele><time>2026-04-17T11:08:28.905Z</time></trkpt><trkpt lat="42.6608383" lon="-8.7024967"><ele>80.66666666666667</ele><time>2026-04-17T11:08:29.904Z</time></trkpt><trkpt lat="42.6606833" lon="-8.7025933"><ele>80.33333333333334</ele><time>2026-04-17T11:08:30.905Z</time></trkpt><trkpt lat="42.660535" lon="-8.702705"><ele>80.0</ele><time>2026-04-17T11:08:31.905Z</time></trkpt><trkpt lat="42.6603983" lon="-8.7028283"><ele>81.25</ele><time>2026-04-17T11:08:32.905Z</time></trkpt><trkpt lat="42.6602767" lon="-8.70295"><ele>82.5</ele><time>2026-04-17T11:08:33.905Z</time></trkpt><trkpt lat="42.660185" lon="-8.7030733"><ele>83.75</ele><time>2026-04-17T11:08:34.905Z</time></trkpt><trkpt lat="42.6600883" lon="-8.703185"><ele>85.0</ele><time>2026-04-17T11:08:35.905Z</time></trkpt><trkpt lat="42.6599883" lon="-8.7032883"><ele>85.0</ele><time>2026-04-17T11:08:36.904Z</time></trkpt><trkpt lat="42.6599" lon="-8.7033867"><ele>85.0</ele><time>2026-04-17T11:08:37.905Z</time></trkpt><trkpt lat="42.6598267" lon="-8.70346"><ele>85.0</ele><time>2026-04-17T11:08:38.904Z</time></trkpt><trkpt lat="42.6597567" lon="-8.7035283"><ele>85.0</ele><time>2026-04-17T11:08:39.904Z</time></trkpt><trkpt lat="42.6596683" lon="-8.7035967"><ele>85.0</ele><time>2026-04-17T11:08:40.905Z</time></trkpt><trkpt lat="42.6595667" lon="-8.7036533"><ele>84.83333333333333</ele><time>2026-04-17T11:08:41.904Z</time></trkpt><trkpt lat="42.6594767" lon="-8.703705"><ele>84.66666666666666</ele><time>2026-04-17T11:08:42.904Z</time></trkpt><trkpt lat="42.659405" lon="-8.7037467"><ele>84.5</ele><time>2026-04-17T11:08:43.904Z</time></trkpt><trkpt lat="42.659325" lon="-8.7038133"><ele>84.33333333333333</ele><time>2026-04-17T11:08:45.905Z</time></trkpt><trkpt lat="42.6593717" lon="-8.703925"><ele>84.16666666666667</ele><time>2026-04-17T11:08:47.904Z</time></trkpt><trkpt lat="42.659415" lon="-8.70401"><ele>84.0</ele><time>2026-04-17T11:08:48.904Z</time></trkpt><trkpt lat="42.6594667" lon="-8.704125"><ele>83.5</ele><time>2026-04-17T11:08:49.904Z</time></trkpt><trkpt lat="42.65953" lon="-8.70427"><ele>83.0</ele><time>2026-04-17T11:08:50.904Z</time></trkpt><trkpt lat="42.6596" lon="-8.7044333"><ele>82.5</ele><time>2026-04-17T11:08:51.904Z</time></trkpt><trkpt lat="42.659655" lon="-8.7045933"><ele>82.0</ele><time>2026-04-17T11:08:52.904Z</time></trkpt><trkpt lat="42.6597083" lon="-8.704745"><ele>81.5</ele><time>2026-04-17T11:08:53.904Z</time></trkpt><trkpt lat="42.659755" lon="-8.704895"><ele>81.0</ele><time>2026-04-17T11:08:54.905Z</time></trkpt><trkpt lat="42.659805" lon="-8.7050583"><ele>80.5</ele><time>2026-04-17T11:08:55.904Z</time></trkpt><trkpt lat="42.6598633" lon="-8.7052417"><ele>80.0</ele><time>2026-04-17T11:08:56.904Z</time></trkpt><trkpt lat="42.6599317" lon="-8.70545"><ele>78.66666666666667</ele><time>2026-04-17T11:08:57.905Z</time></trkpt><trkpt lat="42.6600033" lon="-8.705685"><ele>77.33333333333333</ele><time>2026-04-17T11:08:58.905Z</time></trkpt><trkpt lat="42.6600883" lon="-8.7059267"><ele>76.0</ele><time>2026-04-17T11:08:59.904Z</time></trkpt><trkpt lat="42.660175" lon="-8.706185"><ele>74.33333333333333</ele><time>2026-04-17T11:09:00.905Z</time></trkpt><trkpt lat="42.66024" lon="-8.7064833"><ele>72.66666666666667</ele><time>2026-04-17T11:09:01.905Z</time></trkpt><trkpt lat="42.6603117" lon="-8.7067617"><ele>71.0</ele><time>2026-04-17T11:09:02.905Z</time></trkpt><trkpt lat="42.6603733" lon="-8.7070233"><ele>71.0</ele><time>2026-04-17T11:09:03.905Z</time></trkpt><trkpt lat="42.6604533" lon="-8.7072717"><ele>71.0</ele><time>2026-04-17T11:09:04.904Z</time></trkpt><trkpt lat="42.66052" lon="-8.7075117"><ele>71.0</ele><time>2026-04-17T11:09:05.905Z</time></trkpt><trkpt lat="42.660575" lon="-8.70771"><ele>71.0</ele><time>2026-04-17T11:09:06.905Z</time></trkpt><trkpt lat="42.6606267" lon="-8.7078717"><ele>71.0</ele><time>2026-04-17T11:09:07.904Z</time></trkpt><trkpt lat="42.6606633" lon="-8.7080083"><ele>71.0</ele><time>2026-04-17T11:09:08.904Z</time></trkpt><trkpt lat="42.6606783" lon="-8.708115"><ele>71.0</ele><time>2026-04-17T11:09:09.905Z</time></trkpt><trkpt lat="42.6606783" lon="-8.7082067"><ele>71.0</ele><time>2026-04-17T11:09:10.904Z</time></trkpt><trkpt lat="42.66066" lon="-8.708295"><ele>71.0</ele><time>2026-04-17T11:09:11.905Z</time></trkpt><trkpt lat="42.660615" lon="-8.708395"><ele>71.0</ele><time>2026-04-17T11:09:12.904Z</time></trkpt><trkpt lat="42.6605617" lon="-8.7084917"><ele>71.0</ele><time>2026-04-17T11:09:13.905Z</time></trkpt><trkpt lat="42.6605067" lon="-8.7085983"><ele>71.0</ele><time>2026-04-17T11:09:14.904Z</time></trkpt><trkpt lat="42.660465" lon="-8.7087017"><ele>71.0</ele><time>2026-04-17T11:09:15.904Z</time></trkpt><trkpt lat="42.6604233" lon="-8.7088033"><ele>71.0</ele><time>2026-04-17T11:09:16.904Z</time></trkpt><trkpt lat="42.6603833" lon="-8.708915"><ele>70.5</ele><time>2026-04-17T11:09:17.904Z</time></trkpt><trkpt lat="42.660335" lon="-8.7090383"><ele>70.0</ele><time>2026-04-17T11:09:18.904Z</time></trkpt><trkpt lat="42.6603067" lon="-8.709165"><ele>69.5</ele><time>2026-04-17T11:09:19.904Z</time></trkpt><trkpt lat="42.6602917" lon="-8.7092883"><ele>69.0</ele><time>2026-04-17T11:09:20.904Z</time></trkpt><trkpt lat="42.6602883" lon="-8.7094017"><ele>68.5</ele><time>2026-04-17T11:09:21.904Z</time></trkpt><trkpt lat="42.66029" lon="-8.70949"><ele>68.0</ele><time>2026-04-17T11:09:22.905Z</time></trkpt><trkpt lat="42.6602933" lon="-8.7096083"><ele>69.25</ele><time>2026-04-17T11:09:24.904Z</time></trkpt><trkpt lat="42.6601867" lon="-8.7096167"><ele>70.5</ele><time>2026-04-17T11:10:55.904Z</time></trkpt><trkpt lat="42.6600883" lon="-8.70957"><ele>71.75</ele><time>2026-04-17T11:10:56.904Z</time></trkpt><trkpt lat="42.65996" lon="-8.7095183"><ele>73.0</ele><time>2026-04-17T11:10:57.904Z</time></trkpt><trkpt lat="42.6598267" lon="-8.7094767"><ele>73.0</ele><time>2026-04-17T11:10:58.905Z</time></trkpt><trkpt lat="42.6596117" lon="-8.7094517"><ele>73.0</ele><time>2026-04-17T11:10:59.905Z</time></trkpt><trkpt lat="42.659355" lon="-8.7094583"><ele>77.0</ele><time>2026-04-17T11:11:00.904Z</time></trkpt><trkpt lat="42.6590733" lon="-8.7094783"><ele>81.0</ele><time>2026-04-17T11:11:01.904Z</time></trkpt><trkpt lat="42.6588117" lon="-8.7095"><ele>83.33333333333333</ele><time>2026-04-17T11:11:02.905Z</time></trkpt><trkpt lat="42.65858" lon="-8.7095133"><ele>85.66666666666666</ele><time>2026-04-17T11:11:03.904Z</time></trkpt><trkpt lat="42.658385" lon="-8.7095317"><ele>88.0</ele><time>2026-04-17T11:11:04.904Z</time></trkpt><trkpt lat="42.6582633" lon="-8.709535"><ele>88.0</ele><time>2026-04-17T11:11:05.905Z</time></trkpt><trkpt lat="42.658195" lon="-8.7095317"><ele>88.0</ele><time>2026-04-17T11:11:06.904Z</time></trkpt><trkpt lat="42.6582167" lon="-8.7093817"><ele>88.0</ele><time>2026-04-17T11:11:09.905Z</time></trkpt><trkpt lat="42.6581417" lon="-8.7092467"><ele>88.0</ele><time>2026-04-17T11:11:11.904Z</time></trkpt><trkpt lat="42.6580683" lon="-8.7091917"><ele>88.0</ele><time>2026-04-17T11:11:12.904Z</time></trkpt><trkpt lat="42.6579633" lon="-8.70914"><ele>91.0</ele><time>2026-04-17T11:11:13.904Z</time></trkpt><trkpt lat="42.657755" lon="-8.70909"><ele>94.0</ele><time>2026-04-17T11:11:14.904Z</time></trkpt><trkpt lat="42.65757" lon="-8.709045"><ele>97.0</ele><time>2026-04-17T11:11:15.904Z</time></trkpt><trkpt lat="42.6573567" lon="-8.7089917"><ele>97.0</ele><time>2026-04-17T11:11:16.904Z</time></trkpt><trkpt lat="42.6571333" lon="-8.7089483"><ele>97.0</ele><time>2026-04-17T11:11:17.905Z</time></trkpt><trkpt lat="42.6569433" lon="-8.70888"><ele>97.0</ele><time>2026-04-17T11:11:18.904Z</time></trkpt><trkpt lat="42.656805" lon="-8.70882"><ele>99.0</ele><time>2026-04-17T11:11:19.904Z</time></trkpt><trkpt lat="42.6566817" lon="-8.708805"><ele>101.0</ele><time>2026-04-17T11:11:20.905Z</time></trkpt><trkpt lat="42.6565683" lon="-8.7088283"><ele>103.0</ele><time>2026-04-17T11:11:21.904Z</time></trkpt><trkpt lat="42.6564417" lon="-8.7088933"><ele>105.0</ele><time>2026-04-17T11:11:22.904Z</time></trkpt><trkpt lat="42.6562667" lon="-8.70902"><ele>107.33333333333334</ele><time>2026-04-17T11:11:23.905Z</time></trkpt><trkpt lat="42.6561117" lon="-8.7091567"><ele>109.66666666666667</ele><time>2026-04-17T11:11:24.904Z</time></trkpt><trkpt lat="42.6559733" lon="-8.7092917"><ele>112.0</ele><time>2026-04-17T11:11:25.905Z</time></trkpt><trkpt lat="42.6558017" lon="-8.7094033"><ele>112.66666666666667</ele><time>2026-04-17T11:11:26.904Z</time></trkpt><trkpt lat="42.655615" lon="-8.7094617"><ele>113.33333333333334</ele><time>2026-04-17T11:11:27.904Z</time></trkpt><trkpt lat="42.6554517" lon="-8.7094617"><ele>114.0</ele><time>2026-04-17T11:11:28.904Z</time></trkpt><trkpt lat="42.655315" lon="-8.7094533"><ele>115.0</ele><time>2026-04-17T11:11:29.905Z</time></trkpt><trkpt lat="42.655175" lon="-8.7094283"><ele>116.0</ele><time>2026-04-17T11:11:30.904Z</time></trkpt><trkpt lat="42.6550633" lon="-8.7093783"><ele>117.0</ele><time>2026-04-17T11:11:31.905Z</time></trkpt><trkpt lat="42.65495" lon="-8.709365"><ele>118.0</ele><time>2026-04-17T11:11:32.904Z</time></trkpt><trkpt lat="42.6548183" lon="-8.7093967"><ele>118.66666666666667</ele><time>2026-04-17T11:11:33.905Z</time></trkpt><trkpt lat="42.6546567" lon="-8.7094317"><ele>119.33333333333334</ele><time>2026-04-17T11:11:34.905Z</time></trkpt><trkpt lat="42.6544667" lon="-8.7094183"><ele>120.0</ele><time>2026-04-17T11:11:35.904Z</time></trkpt><trkpt lat="42.65427" lon="-8.7093583"><ele>120.0</ele><time>2026-04-17T11:11:36.905Z</time></trkpt><trkpt lat="42.6540467" lon="-8.7092983"><ele>120.0</ele><time>2026-04-17T11:11:37.904Z</time></trkpt><trkpt lat="42.653805" lon="-8.7092383"><ele>124.5</ele><time>2026-04-17T11:11:38.905Z</time></trkpt><trkpt lat="42.6535717" lon="-8.7091767"><ele>129.0</ele><time>2026-04-17T11:11:39.904Z</time></trkpt><trkpt lat="42.6533333" lon="-8.7091217"><ele>129.0</ele><time>2026-04-17T11:11:40.905Z</time></trkpt><trkpt lat="42.653105" lon="-8.70906"><ele>129.0</ele><time>2026-04-17T11:11:41.905Z</time></trkpt><trkpt lat="42.6528617" lon="-8.7089917"><ele>132.0</ele><time>2026-04-17T11:11:42.904Z</time></trkpt><trkpt lat="42.6526233" lon="-8.7089233"><ele>135.0</ele><time>2026-04-17T11:11:43.905Z</time></trkpt><trkpt lat="42.6524083" lon="-8.7088567"><ele>135.0</ele><time>2026-04-17T11:11:44.905Z</time></trkpt><trkpt lat="42.6522267" lon="-8.708785"><ele>135.0</ele><time>2026-04-17T11:11:45.905Z</time></trkpt><trkpt lat="42.652075" lon="-8.7087167"><ele>135.0</ele><time>2026-04-17T11:11:46.904Z</time></trkpt><trkpt lat="42.6519283" lon="-8.70865"><ele>137.0</ele><time>2026-04-17T11:11:47.904Z</time></trkpt><trkpt lat="42.6517917" lon="-8.7085667"><ele>139.0</ele><time>2026-04-17T11:11:48.905Z</time></trkpt><trkpt lat="42.651645" lon="-8.70845"><ele>141.0</ele><time>2026-04-17T11:11:49.904Z</time></trkpt><trkpt lat="42.65151" lon="-8.708285"><ele>141.0</ele><time>2026-04-17T11:11:50.904Z</time></trkpt><trkpt lat="42.651425" lon="-8.7080567"><ele>141.0</ele><time>2026-04-17T11:11:51.905Z</time></trkpt><trkpt lat="42.6513483" lon="-8.707825"><ele>141.0</ele><time>2026-04-17T11:11:52.904Z</time></trkpt><trkpt lat="42.6512583" lon="-8.7075967"><ele>141.66666666666666</ele><time>2026-04-17T11:11:53.905Z</time></trkpt><trkpt lat="42.651145" lon="-8.7073867"><ele>142.33333333333331</ele><time>2026-04-17T11:11:54.905Z</time></trkpt><trkpt lat="42.651025" lon="-8.70719"><ele>143.0</ele><time>2026-04-17T11:11:55.905Z</time></trkpt><trkpt lat="42.6508917" lon="-8.7070033"><ele>143.0</ele><time>2026-04-17T11:11:56.904Z</time></trkpt><trkpt lat="42.6507617" lon="-8.7068733"><ele>143.0</ele><time>2026-04-17T11:11:57.904Z</time></trkpt><trkpt lat="42.65061" lon="-8.7067517"><ele>143.0</ele><time>2026-04-17T11:11:58.904Z</time></trkpt><trkpt lat="42.6504783" lon="-8.7066567"><ele>143.0</ele><time>2026-04-17T11:11:59.904Z</time></trkpt><trkpt lat="42.65036" lon="-8.7065817"><ele>143.0</ele><time>2026-04-17T11:12:00.904Z</time></trkpt><trkpt lat="42.6502617" lon="-8.7064367"><ele>143.0</ele><time>2026-04-17T11:12:02.905Z</time></trkpt><trkpt lat="42.6502333" lon="-8.70633"><ele>143.0</ele><time>2026-04-17T11:12:03.904Z</time></trkpt><trkpt lat="42.650185" lon="-8.7061567"><ele>148.66666666666666</ele><time>2026-04-17T11:12:04.904Z</time></trkpt><trkpt lat="42.6501517" lon="-8.7059333"><ele>154.33333333333334</ele><time>2026-04-17T11:12:05.905Z</time></trkpt><trkpt lat="42.6501017" lon="-8.7057233"><ele>160.0</ele><time>2026-04-17T11:12:06.905Z</time></trkpt><trkpt lat="42.650035" lon="-8.7055683"><ele>160.0</ele><time>2026-04-17T11:12:07.905Z</time></trkpt><trkpt lat="42.649975" lon="-8.7054833"><ele>160.0</ele><time>2026-04-17T11:12:08.905Z</time></trkpt><trkpt lat="42.6498817" lon="-8.7054233"><ele>160.0</ele><time>2026-04-17T11:12:10.904Z</time></trkpt><trkpt lat="42.649835" lon="-8.705525"><ele>160.0</ele><time>2026-04-17T11:12:12.905Z</time></trkpt><trkpt lat="42.6498483" lon="-8.7056183"><ele>160.0</ele><time>2026-04-17T11:12:13.905Z</time></trkpt><trkpt lat="42.6499033" lon="-8.7057083"><ele>160.0</ele><time>2026-04-17T11:12:14.904Z</time></trkpt><trkpt lat="42.6499583" lon="-8.7057983"><ele>160.0</ele><time>2026-04-17T11:12:15.905Z</time></trkpt><trkpt lat="42.65" lon="-8.70591"><ele>160.0</ele><time>2026-04-17T11:12:16.905Z</time></trkpt><trkpt lat="42.65003" lon="-8.7060367"><ele>160.0</ele><time>2026-04-17T11:12:17.904Z</time></trkpt><trkpt lat="42.650035" lon="-8.70616"><ele>160.0</ele><time>2026-04-17T11:12:18.904Z</time></trkpt><trkpt lat="42.6500283" lon="-8.7062717"><ele>160.0</ele><time>2026-04-17T11:12:19.904Z</time></trkpt><trkpt lat="42.65002" lon="-8.7063767"><ele>160.0</ele><time>2026-04-17T11:12:20.905Z</time></trkpt><trkpt lat="42.649875" lon="-8.7064967"><ele>160.0</ele><time>2026-04-17T11:12:22.905Z</time></trkpt><trkpt lat="42.6496667" lon="-8.70653"><ele>160.0</ele><time>2026-04-17T11:12:23.904Z</time></trkpt><trkpt lat="42.6494867" lon="-8.70656"><ele>160.0</ele><time>2026-04-17T11:12:24.904Z</time></trkpt><trkpt lat="42.6493033" lon="-8.7065933"><ele>166.33333333333334</ele><time>2026-04-17T11:12:25.905Z</time></trkpt><trkpt lat="42.649115" lon="-8.7066433"><ele>172.66666666666666</ele><time>2026-04-17T11:12:26.904Z</time></trkpt><trkpt lat="42.6489333" lon="-8.7067133"><ele>179.0</ele><time>2026-04-17T11:12:27.904Z</time></trkpt><trkpt lat="42.6487533" lon="-8.7068167"><ele>182.0</ele><time>2026-04-17T11:12:28.904Z</time></trkpt><trkpt lat="42.6485983" lon="-8.70693"><ele>185.0</ele><time>2026-04-17T11:12:29.905Z</time></trkpt><trkpt lat="42.6484583" lon="-8.7070283"><ele>188.0</ele><time>2026-04-17T11:12:30.905Z</time></trkpt><trkpt lat="42.6483017" lon="-8.7070917"><ele>188.0</ele><time>2026-04-17T11:12:31.904Z</time></trkpt><trkpt lat="42.6481483" lon="-8.70713"><ele>188.0</ele><time>2026-04-17T11:12:32.904Z</time></trkpt><trkpt lat="42.6480083" lon="-8.7071433"><ele>188.0</ele><time>2026-04-17T11:12:33.904Z</time></trkpt><trkpt lat="42.6479" lon="-8.7071017"><ele>188.0</ele><time>2026-04-17T11:12:34.905Z</time></trkpt><trkpt lat="42.6478133" lon="-8.70706"><ele>190.2</ele><time>2026-04-17T11:12:35.905Z</time></trkpt><trkpt lat="42.64773" lon="-8.707065"><ele>192.4</ele><time>2026-04-17T11:12:36.905Z</time></trkpt><trkpt lat="42.6476567" lon="-8.7071"><ele>194.6</ele><time>2026-04-17T11:12:38.905Z</time></trkpt><trkpt lat="42.6475633" lon="-8.7072367"><ele>196.79999999999998</ele><time>2026-04-17T11:12:53.904Z</time></trkpt><trkpt lat="42.6474717" lon="-8.707315"><ele>199.0</ele><time>2026-04-17T11:12:54.905Z</time></trkpt><trkpt lat="42.6473933" lon="-8.7073883"><ele>198.99999999999997</ele><time>2026-04-17T11:12:55.905Z</time></trkpt><trkpt lat="42.6473217" lon="-8.7074433"><ele>199.0</ele><time>2026-04-17T11:12:56.905Z</time></trkpt><trkpt lat="42.6472417" lon="-8.7074833"><ele>199.0</ele><time>2026-04-17T11:12:57.904Z</time></trkpt><trkpt lat="42.647155" lon="-8.7075117"><ele>199.0</ele><time>2026-04-17T11:12:58.905Z</time></trkpt><trkpt lat="42.64707" lon="-8.7075283"><ele>198.99999999999997</ele><time>2026-04-17T11:12:59.904Z</time></trkpt><trkpt lat="42.6469817" lon="-8.7075183"><ele>199.0</ele><time>2026-04-17T11:13:00.904Z</time></trkpt><trkpt lat="42.646905" lon="-8.70751"><ele>201.79999999999998</ele><time>2026-04-17T11:13:01.904Z</time></trkpt><trkpt lat="42.646835" lon="-8.7074833"><ele>204.6</ele><time>2026-04-17T11:13:02.904Z</time></trkpt><trkpt lat="42.646775" lon="-8.707445"><ele>207.4</ele><time>2026-04-17T11:13:03.905Z</time></trkpt><trkpt lat="42.646695" lon="-8.7073333"><ele>210.2</ele><time>2026-04-17T11:13:05.904Z</time></trkpt><trkpt lat="42.6466583" lon="-8.7071633"><ele>213.0</ele><time>2026-04-17T11:13:07.904Z</time></trkpt><trkpt lat="42.6466683" lon="-8.7070267"><ele>214.25</ele><time>2026-04-17T11:13:08.905Z</time></trkpt><trkpt lat="42.6467" lon="-8.7068733"><ele>215.5</ele><time>2026-04-17T11:13:09.904Z</time></trkpt><trkpt lat="42.6467417" lon="-8.70672"><ele>216.75</ele><time>2026-04-17T11:13:10.905Z</time></trkpt><trkpt lat="42.6467833" lon="-8.706575"><ele>218.0</ele><time>2026-04-17T11:13:11.905Z</time></trkpt><trkpt lat="42.64682" lon="-8.7064383"><ele>218.0</ele><time>2026-04-17T11:13:12.905Z</time></trkpt><trkpt lat="42.6468617" lon="-8.7062917"><ele>218.0</ele><time>2026-04-17T11:13:13.905Z</time></trkpt><trkpt lat="42.646905" lon="-8.7061433"><ele>218.0</ele><time>2026-04-17T11:13:14.905Z</time></trkpt><trkpt lat="42.6469383" lon="-8.7059967"><ele>218.0</ele><time>2026-04-17T11:13:15.905Z</time></trkpt><trkpt lat="42.6469717" lon="-8.7058367"><ele>216.0</ele><time>2026-04-17T11:13:16.904Z</time></trkpt><trkpt lat="42.6469883" lon="-8.70568"><ele>214.0</ele><time>2026-04-17T11:13:17.904Z</time></trkpt><trkpt lat="42.6470017" lon="-8.7055233"><ele>212.0</ele><time>2026-04-17T11:13:18.904Z</time></trkpt><trkpt lat="42.647015" lon="-8.70537"><ele>210.0</ele><time>2026-04-17T11:13:19.905Z</time></trkpt><trkpt lat="42.6470283" lon="-8.7052267"><ele>210.0</ele><time>2026-04-17T11:13:20.905Z</time></trkpt><trkpt lat="42.6470383" lon="-8.7050867"><ele>210.0</ele><time>2026-04-17T11:13:21.904Z</time></trkpt><trkpt lat="42.64706" lon="-8.7049367"><ele>210.0</ele><time>2026-04-17T11:13:22.904Z</time></trkpt><trkpt lat="42.647095" lon="-8.7047883"><ele>210.0</ele><time>2026-04-17T11:13:23.904Z</time></trkpt><trkpt lat="42.647115" lon="-8.7046267"><ele>210.0</ele><time>2026-04-17T11:13:24.904Z</time></trkpt><trkpt lat="42.6471483" lon="-8.7044883"><ele>210.0</ele><time>2026-04-17T11:13:25.905Z</time></trkpt><trkpt lat="42.6471867" lon="-8.704355"><ele>210.0</ele><time>2026-04-17T11:13:26.905Z</time></trkpt><trkpt lat="42.64724" lon="-8.704225"><ele>210.0</ele><time>2026-04-17T11:13:27.905Z</time></trkpt><trkpt lat="42.6473067" lon="-8.7040983"><ele>210.0</ele><time>2026-04-17T11:13:28.905Z</time></trkpt><trkpt lat="42.64737" lon="-8.7039817"><ele>210.4</ele><time>2026-04-17T11:13:29.904Z</time></trkpt><trkpt lat="42.647435" lon="-8.7038717"><ele>210.8</ele><time>2026-04-17T11:13:30.905Z</time></trkpt><trkpt lat="42.64751" lon="-8.7037633"><ele>211.2</ele><time>2026-04-17T11:13:31.905Z</time></trkpt><trkpt lat="42.6475783" lon="-8.7036433"><ele>211.6</ele><time>2026-04-17T11:13:32.904Z</time></trkpt><trkpt lat="42.64764" lon="-8.7035267"><ele>212.0</ele><time>2026-04-17T11:13:33.905Z</time></trkpt><trkpt lat="42.6477017" lon="-8.7034117"><ele>212.6</ele><time>2026-04-17T11:13:34.904Z</time></trkpt><trkpt lat="42.6477567" lon="-8.703285"><ele>213.2</ele><time>2026-04-17T11:13:35.905Z</time></trkpt><trkpt lat="42.647805" lon="-8.7031533"><ele>213.8</ele><time>2026-04-17T11:13:36.904Z</time></trkpt><trkpt lat="42.6478433" lon="-8.70302"><ele>214.4</ele><time>2026-04-17T11:13:37.905Z</time></trkpt><trkpt lat="42.64788" lon="-8.7028967"><ele>215.0</ele><time>2026-04-17T11:13:38.904Z</time></trkpt><trkpt lat="42.6479033" lon="-8.7027567"><ele>211.8</ele><time>2026-04-17T11:13:39.905Z</time></trkpt><trkpt lat="42.6479217" lon="-8.702625"><ele>208.6</ele><time>2026-04-17T11:13:40.905Z</time></trkpt><trkpt lat="42.6479333" lon="-8.702485"><ele>205.39999999999998</ele><time>2026-04-17T11:13:41.904Z</time></trkpt><trkpt lat="42.6479467" lon="-8.70235"><ele>202.2</ele><time>2026-04-17T11:13:42.905Z</time></trkpt><trkpt lat="42.6479617" lon="-8.7022117"><ele>199.0</ele><time>2026-04-17T11:13:43.905Z</time></trkpt><trkpt lat="42.6479833" lon="-8.7020567"><ele>200.5</ele><time>2026-04-17T11:13:44.904Z</time></trkpt><trkpt lat="42.648005" lon="-8.7019033"><ele>202.0</ele><time>2026-04-17T11:13:45.905Z</time></trkpt><trkpt lat="42.64803" lon="-8.70174"><ele>203.5</ele><time>2026-04-17T11:13:46.904Z</time></trkpt><trkpt lat="42.6480517" lon="-8.7015717"><ele>205.0</ele><time>2026-04-17T11:13:47.904Z</time></trkpt><trkpt lat="42.6480683" lon="-8.7013983"><ele>205.0</ele><time>2026-04-17T11:13:48.904Z</time></trkpt><trkpt lat="42.6480917" lon="-8.701225"><ele>205.0</ele><time>2026-04-17T11:13:49.904Z</time></trkpt><trkpt lat="42.6481183" lon="-8.7010767"><ele>205.0</ele><time>2026-04-17T11:13:50.904Z</time></trkpt><trkpt lat="42.6481233" lon="-8.7009583"><ele>205.0</ele><time>2026-04-17T11:13:51.904Z</time></trkpt><trkpt lat="42.6481483" lon="-8.70082"><ele>205.0</ele><time>2026-04-17T11:13:52.904Z</time></trkpt><trkpt lat="42.6481617" lon="-8.70073"><ele>204.6</ele><time>2026-04-17T11:13:53.905Z</time></trkpt><trkpt lat="42.64807" lon="-8.7006733"><ele>204.2</ele><time>2026-04-17T11:13:57.904Z</time></trkpt><trkpt lat="42.6479717" lon="-8.7007017"><ele>203.8</ele><time>2026-04-17T11:13:58.904Z</time></trkpt><trkpt lat="42.647875" lon="-8.700715"><ele>203.4</ele><time>2026-04-17T11:13:59.904Z</time></trkpt><trkpt lat="42.647775" lon="-8.7007617"><ele>203.0</ele><time>2026-04-17T11:14:00.905Z</time></trkpt><trkpt lat="42.6476617" lon="-8.700845"><ele>207.60000000000002</ele><time>2026-04-17T11:14:01.904Z</time></trkpt><trkpt lat="42.6475617" lon="-8.7009083"><ele>212.20000000000002</ele><time>2026-04-17T11:14:02.905Z</time></trkpt><trkpt lat="42.6474683" lon="-8.7009533"><ele>216.8</ele><time>2026-04-17T11:14:03.904Z</time></trkpt><trkpt lat="42.6473883" lon="-8.7009833"><ele>221.4</ele><time>2026-04-17T11:14:04.904Z</time></trkpt><trkpt lat="42.64731" lon="-8.701"><ele>226.0</ele><time>2026-04-17T11:14:05.905Z</time></trkpt><trkpt lat="42.6472117" lon="-8.7009917"><ele>226.0</ele><time>2026-04-17T11:14:06.905Z</time></trkpt><trkpt lat="42.6471183" lon="-8.70092"><ele>226.0</ele><time>2026-04-17T11:14:07.906Z</time></trkpt><trkpt lat="42.64702" lon="-8.7008167"><ele>226.0</ele><time>2026-04-17T11:14:08.906Z</time></trkpt><trkpt lat="42.646905" lon="-8.7006583"><ele>226.0</ele><time>2026-04-17T11:14:09.906Z</time></trkpt><trkpt lat="42.6467883" lon="-8.7004567"><ele>230.0</ele><time>2026-04-17T11:14:10.906Z</time></trkpt><trkpt lat="42.6467017" lon="-8.7002617"><ele>234.0</ele><time>2026-04-17T11:14:11.906Z</time></trkpt><trkpt lat="42.6466083" lon="-8.70012"><ele>238.0</ele><time>2026-04-17T11:14:12.906Z</time></trkpt><trkpt lat="42.6465333" lon="-8.7000033"><ele>242.0</ele><time>2026-04-17T11:14:13.906Z</time></trkpt><trkpt lat="42.6464767" lon="-8.6999"><ele>242.0</ele><time>2026-04-17T11:14:14.906Z</time></trkpt><trkpt lat="42.64636" lon="-8.69988"><ele>242.0</ele><time>2026-04-17T11:14:16.905Z</time></trkpt><trkpt lat="42.6462683" lon="-8.6999283"><ele>242.0</ele><time>2026-04-17T11:14:17.905Z</time></trkpt><trkpt lat="42.6461533" lon="-8.699995"><ele>242.0</ele><time>2026-04-17T11:14:18.906Z</time></trkpt><trkpt lat="42.645995" lon="-8.700045"><ele>245.66666666666669</ele><time>2026-04-17T11:14:19.905Z</time></trkpt><trkpt lat="42.6457917" lon="-8.70007"><ele>249.33333333333331</ele><time>2026-04-17T11:14:20.905Z</time></trkpt><trkpt lat="42.645605" lon="-8.7000833"><ele>253.0</ele><time>2026-04-17T11:14:21.905Z</time></trkpt><trkpt lat="42.6454517" lon="-8.7000983"><ele>253.0</ele><time>2026-04-17T11:14:22.905Z</time></trkpt><trkpt lat="42.645315" lon="-8.7001367"><ele>253.0</ele><time>2026-04-17T11:14:23.905Z</time></trkpt><trkpt lat="42.6452233" lon="-8.7002067"><ele>253.0</ele><time>2026-04-17T11:14:24.906Z</time></trkpt><trkpt lat="42.6451433" lon="-8.7003217"><ele>253.0</ele><time>2026-04-17T11:14:25.906Z</time></trkpt><trkpt lat="42.645055" lon="-8.700455"><ele>257.2</ele><time>2026-04-17T11:14:26.905Z</time></trkpt><trkpt lat="42.64496" lon="-8.7005717"><ele>261.4</ele><time>2026-04-17T11:14:27.905Z</time></trkpt><trkpt lat="42.6448717" lon="-8.70065"><ele>265.59999999999997</ele><time>2026-04-17T11:14:28.905Z</time></trkpt><trkpt lat="42.6447833" lon="-8.7006617"><ele>269.8</ele><time>2026-04-17T11:14:29.905Z</time></trkpt><trkpt lat="42.644675" lon="-8.70066"><ele>274.0</ele><time>2026-04-17T11:14:30.906Z</time></trkpt><trkpt lat="42.6445733" lon="-8.7006233"><ele>274.0</ele><time>2026-04-17T11:14:31.906Z</time></trkpt><trkpt lat="42.6444717" lon="-8.70054"><ele>274.0</ele><time>2026-04-17T11:14:32.905Z</time></trkpt><trkpt lat="42.6443783" lon="-8.7004083"><ele>274.0</ele><time>2026-04-17T11:14:33.905Z</time></trkpt><trkpt lat="42.64425" lon="-8.7002517"><ele>274.0</ele><time>2026-04-17T11:14:34.906Z</time></trkpt><trkpt lat="42.644115" lon="-8.7000333"><ele>281.66666666666663</ele><time>2026-04-17T11:14:35.905Z</time></trkpt><trkpt lat="42.6439817" lon="-8.6998167"><ele>289.3333333333333</ele><time>2026-04-17T11:14:36.905Z</time></trkpt><trkpt lat="42.6438933" lon="-8.69961"><ele>297.0</ele><time>2026-04-17T11:14:37.905Z</time></trkpt><trkpt lat="42.6438083" lon="-8.6994383"><ele>297.0</ele><time>2026-04-17T11:14:38.905Z</time></trkpt><trkpt lat="42.6437417" lon="-8.6993117"><ele>297.0</ele><time>2026-04-17T11:14:39.906Z</time></trkpt><trkpt lat="42.6436867" lon="-8.6993783"><ele>297.0</ele><time>2026-04-17T11:14:44.905Z</time></trkpt><trkpt lat="42.6436417" lon="-8.69947"><ele>297.0</ele><time>2026-04-17T11:14:45.906Z</time></trkpt><trkpt lat="42.643575" lon="-8.6995933"><ele>297.0</ele><time>2026-04-17T11:14:46.905Z</time></trkpt><trkpt lat="42.6435" lon="-8.6997283"><ele>302.0</ele><time>2026-04-17T11:14:47.906Z</time></trkpt><trkpt lat="42.64342" lon="-8.6998883"><ele>307.0</ele><time>2026-04-17T11:14:48.906Z</time></trkpt><trkpt lat="42.6433517" lon="-8.7000717"><ele>312.0</ele><time>2026-04-17T11:14:49.905Z</time></trkpt><trkpt lat="42.64327" lon="-8.7002567"><ele>312.0</ele><time>2026-04-17T11:14:50.905Z</time></trkpt><trkpt lat="42.6431733" lon="-8.70045"><ele>312.0</ele><time>2026-04-17T11:14:51.905Z</time></trkpt><trkpt lat="42.6430733" lon="-8.7006367"><ele>312.0</ele><time>2026-04-17T11:14:52.905Z</time></trkpt><trkpt lat="42.6429683" lon="-8.700785"><ele>312.0</ele><time>2026-04-17T11:14:53.905Z</time></trkpt><trkpt lat="42.64286" lon="-8.7009017"><ele>312.0</ele><time>2026-04-17T11:14:54.906Z</time></trkpt><trkpt lat="42.6427433" lon="-8.7010033"><ele>312.0</ele><time>2026-04-17T11:14:55.905Z</time></trkpt><trkpt lat="42.6426017" lon="-8.7011067"><ele>312.0</ele><time>2026-04-17T11:14:56.905Z</time></trkpt><trkpt lat="42.6424617" lon="-8.7012067"><ele>313.25</ele><time>2026-04-17T11:14:57.906Z</time></trkpt><trkpt lat="42.6423267" lon="-8.7013167"><ele>314.5</ele><time>2026-04-17T11:14:58.906Z</time></trkpt><trkpt lat="42.6422033" lon="-8.7014167"><ele>315.75</ele><time>2026-04-17T11:14:59.906Z</time></trkpt><trkpt lat="42.64213" lon="-8.7014983"><ele>317.0</ele><time>2026-04-17T11:15:00.906Z</time></trkpt><trkpt lat="42.6420833" lon="-8.7015667"><ele>317.0</ele><time>2026-04-17T11:15:01.906Z</time></trkpt><trkpt lat="42.642065" lon="-8.7016867"><ele>317.0</ele><time>2026-04-17T11:15:03.905Z</time></trkpt><trkpt lat="42.6421767" lon="-8.7017567"><ele>317.0</ele><time>2026-04-17T11:15:05.905Z</time></trkpt><trkpt lat="42.6422683" lon="-8.70179"><ele>317.0</ele><time>2026-04-17T11:15:06.905Z</time></trkpt><trkpt lat="42.642465" lon="-8.7019133"><ele>320.33333333333337</ele><time>2026-04-17T11:15:07.905Z</time></trkpt><trkpt lat="42.6425983" lon="-8.70206"><ele>323.6666666666667</ele><time>2026-04-17T11:15:08.906Z</time></trkpt><trkpt lat="42.6427083" lon="-8.7022167"><ele>327.0</ele><time>2026-04-17T11:15:09.905Z</time></trkpt><trkpt lat="42.6427867" lon="-8.7023917"><ele>319.3333333333333</ele><time>2026-04-17T11:15:10.905Z</time></trkpt><trkpt lat="42.6428467" lon="-8.7025983"><ele>311.66666666666663</ele><time>2026-04-17T11:15:11.905Z</time></trkpt><trkpt lat="42.6429067" lon="-8.7028517"><ele>304.0</ele><time>2026-04-17T11:15:12.905Z</time></trkpt><trkpt lat="42.64297" lon="-8.7031917"><ele>304.0</ele><time>2026-04-17T11:15:13.906Z</time></trkpt><trkpt lat="42.6430267" lon="-8.703465"><ele>304.0</ele><time>2026-04-17T11:15:14.906Z</time></trkpt><trkpt lat="42.6430833" lon="-8.7037083"><ele>304.0</ele><time>2026-04-17T11:15:15.905Z</time></trkpt><trkpt lat="42.643135" lon="-8.7039133"><ele>305.2</ele><time>2026-04-17T11:15:16.906Z</time></trkpt><trkpt lat="42.6431783" lon="-8.7040617"><ele>306.4</ele><time>2026-04-17T11:15:17.905Z</time></trkpt><trkpt lat="42.6432833" lon="-8.70412"><ele>307.6</ele><time>2026-04-17T11:15:20.906Z</time></trkpt><trkpt lat="42.6433733" lon="-8.7041483"><ele>308.8</ele><time>2026-04-17T11:15:21.905Z</time></trkpt><trkpt lat="42.6434617" lon="-8.7042217"><ele>310.0</ele><time>2026-04-17T11:15:22.906Z</time></trkpt><trkpt lat="42.6435467" lon="-8.70432"><ele>310.0</ele><time>2026-04-17T11:15:23.905Z</time></trkpt><trkpt lat="42.6436167" lon="-8.7044583"><ele>310.0</ele><time>2026-04-17T11:15:24.906Z</time></trkpt><trkpt lat="42.643675" lon="-8.7046133"><ele>310.0</ele><time>2026-04-17T11:15:25.906Z</time></trkpt><trkpt lat="42.6437167" lon="-8.704765"><ele>310.0</ele><time>2026-04-17T11:15:26.906Z</time></trkpt><trkpt lat="42.6437333" lon="-8.70493"><ele>302.66666666666663</ele><time>2026-04-17T11:15:27.906Z</time></trkpt><trkpt lat="42.6437217" lon="-8.705125"><ele>295.3333333333333</ele><time>2026-04-17T11:15:28.905Z</time></trkpt><trkpt lat="42.6437017" lon="-8.7053433"><ele>288.0</ele><time>2026-04-17T11:15:29.905Z</time></trkpt><trkpt lat="42.64368" lon="-8.7055517"><ele>285.25</ele><time>2026-04-17T11:15:30.905Z</time></trkpt><trkpt lat="42.6436833" lon="-8.7057467"><ele>282.5</ele><time>2026-04-17T11:15:31.905Z</time></trkpt><trkpt lat="42.6436917" lon="-8.705945"><ele>279.75</ele><time>2026-04-17T11:15:32.906Z</time></trkpt><trkpt lat="42.64369" lon="-8.7061217"><ele>277.0</ele><time>2026-04-17T11:15:33.906Z</time></trkpt><trkpt lat="42.6436817" lon="-8.7063033"><ele>276.4</ele><time>2026-04-17T11:15:34.905Z</time></trkpt><trkpt lat="42.64368" lon="-8.7064667"><ele>275.79999999999995</ele><time>2026-04-17T11:15:35.905Z</time></trkpt><trkpt lat="42.6437017" lon="-8.7065933"><ele>275.2</ele><time>2026-04-17T11:15:36.906Z</time></trkpt><trkpt lat="42.6437317" lon="-8.7067133"><ele>274.59999999999997</ele><time>2026-04-17T11:15:37.906Z</time></trkpt><trkpt lat="42.6437917" lon="-8.7068217"><ele>274.0</ele><time>2026-04-17T11:15:38.905Z</time></trkpt><trkpt lat="42.643885" lon="-8.70695"><ele>274.0</ele><time>2026-04-17T11:15:39.905Z</time></trkpt><trkpt lat="42.643985" lon="-8.707075"><ele>274.0</ele><time>2026-04-17T11:15:40.906Z</time></trkpt><trkpt lat="42.644075" lon="-8.7072283"><ele>274.0</ele><time>2026-04-17T11:15:41.906Z</time></trkpt><trkpt lat="42.6441667" lon="-8.707405"><ele>274.0</ele><time>2026-04-17T11:15:42.905Z</time></trkpt><trkpt lat="42.6442533" lon="-8.7075917"><ele>275.66666666666663</ele><time>2026-04-17T11:15:43.905Z</time></trkpt><trkpt lat="42.6443233" lon="-8.70779"><ele>277.3333333333333</ele><time>2026-04-17T11:15:44.906Z</time></trkpt><trkpt lat="42.64439" lon="-8.7079683"><ele>279.0</ele><time>2026-04-17T11:15:45.905Z</time></trkpt><trkpt lat="42.6444533" lon="-8.70814"><ele>270.0</ele><time>2026-04-17T11:15:46.906Z</time></trkpt><trkpt lat="42.6445117" lon="-8.7083267"><ele>261.0</ele><time>2026-04-17T11:15:47.905Z</time></trkpt><trkpt lat="42.64456" lon="-8.7085233"><ele>252.0</ele><time>2026-04-17T11:15:48.906Z</time></trkpt><trkpt lat="42.6446" lon="-8.7087367"><ele>252.0</ele><time>2026-04-17T11:15:49.905Z</time></trkpt><trkpt lat="42.6446467" lon="-8.70896"><ele>252.0</ele><time>2026-04-17T11:15:50.906Z</time></trkpt><trkpt lat="42.644695" lon="-8.709175"><ele>252.0</ele><time>2026-04-17T11:15:51.905Z</time></trkpt><trkpt lat="42.6447533" lon="-8.709365"><ele>254.0</ele><time>2026-04-17T11:15:52.905Z</time></trkpt><trkpt lat="42.644815" lon="-8.7095417"><ele>256.0</ele><time>2026-04-17T11:15:53.905Z</time></trkpt><trkpt lat="42.6448867" lon="-8.709725"><ele>258.0</ele><time>2026-04-17T11:15:54.906Z</time></trkpt><trkpt lat="42.64495" lon="-8.7099333"><ele>258.0</ele><time>2026-04-17T11:15:55.905Z</time></trkpt><trkpt lat="42.6450033" lon="-8.71017"><ele>258.0</ele><time>2026-04-17T11:15:56.906Z</time></trkpt><trkpt lat="42.6450667" lon="-8.710415"><ele>258.0</ele><time>2026-04-17T11:15:57.905Z</time></trkpt><trkpt lat="42.645125" lon="-8.7106383"><ele>259.0</ele><time>2026-04-17T11:15:58.906Z</time></trkpt><trkpt lat="42.6451833" lon="-8.7108683"><ele>260.0</ele><time>2026-04-17T11:15:59.906Z</time></trkpt><trkpt lat="42.6452267" lon="-8.711075"><ele>261.0</ele><time>2026-04-17T11:16:00.906Z</time></trkpt><trkpt lat="42.645255" lon="-8.7112383"><ele>261.2</ele><time>2026-04-17T11:16:01.905Z</time></trkpt><trkpt lat="42.6452717" lon="-8.711395"><ele>261.40000000000003</ele><time>2026-04-17T11:16:02.905Z</time></trkpt><trkpt lat="42.6452733" lon="-8.71155"><ele>261.6</ele><time>2026-04-17T11:16:03.906Z</time></trkpt><trkpt lat="42.6452767" lon="-8.711695"><ele>261.8</ele><time>2026-04-17T11:16:04.905Z</time></trkpt><trkpt lat="42.64526" lon="-8.71182"><ele>262.0</ele><time>2026-04-17T11:16:05.906Z</time></trkpt><trkpt lat="42.6452317" lon="-8.7119417"><ele>261.4</ele><time>2026-04-17T11:16:06.906Z</time></trkpt><trkpt lat="42.6451867" lon="-8.7120617"><ele>260.79999999999995</ele><time>2026-04-17T11:16:07.905Z</time></trkpt><trkpt lat="42.6451317" lon="-8.712185"><ele>260.2</ele><time>2026-04-17T11:16:08.906Z</time></trkpt><trkpt lat="42.6450683" lon="-8.7122967"><ele>259.59999999999997</ele><time>2026-04-17T11:16:09.905Z</time></trkpt><trkpt lat="42.6449967" lon="-8.712405"><ele>259.0</ele><time>2026-04-17T11:16:10.905Z</time></trkpt><trkpt lat="42.644915" lon="-8.7125267"><ele>259.0</ele><time>2026-04-17T11:16:11.905Z</time></trkpt><trkpt lat="42.6448183" lon="-8.7126567"><ele>259.0</ele><time>2026-04-17T11:16:12.905Z</time></trkpt><trkpt lat="42.644715" lon="-8.7127867"><ele>259.0</ele><time>2026-04-17T11:16:13.906Z</time></trkpt><trkpt lat="42.6446017" lon="-8.7129133"><ele>259.0</ele><time>2026-04-17T11:16:14.905Z</time></trkpt><trkpt lat="42.64446" lon="-8.713045"><ele>260.0</ele><time>2026-04-17T11:16:15.905Z</time></trkpt><trkpt lat="42.6443" lon="-8.713175"><ele>261.0</ele><time>2026-04-17T11:16:16.905Z</time></trkpt><trkpt lat="42.6441367" lon="-8.7132817"><ele>262.0</ele><time>2026-04-17T11:16:17.905Z</time></trkpt><trkpt lat="42.6439783" lon="-8.7133583"><ele>262.0</ele><time>2026-04-17T11:16:18.905Z</time></trkpt><trkpt lat="42.6438233" lon="-8.7134083"><ele>262.0</ele><time>2026-04-17T11:16:19.906Z</time></trkpt><trkpt lat="42.64367" lon="-8.7134383"><ele>262.0</ele><time>2026-04-17T11:16:20.905Z</time></trkpt><trkpt lat="42.6434983" lon="-8.7134383"><ele>264.3333333333333</ele><time>2026-04-17T11:16:21.906Z</time></trkpt><trkpt lat="42.6433117" lon="-8.7133917"><ele>266.6666666666667</ele><time>2026-04-17T11:16:22.905Z</time></trkpt><trkpt lat="42.6431217" lon="-8.7133333"><ele>269.0</ele><time>2026-04-17T11:16:23.906Z</time></trkpt><trkpt lat="42.6429317" lon="-8.7132583"><ele>267.6666666666667</ele><time>2026-04-17T11:16:24.905Z</time></trkpt><trkpt lat="42.642725" lon="-8.7131817"><ele>266.3333333333333</ele><time>2026-04-17T11:16:25.906Z</time></trkpt><trkpt lat="42.64253" lon="-8.71312"><ele>265.0</ele><time>2026-04-17T11:16:26.906Z</time></trkpt><trkpt lat="42.6423717" lon="-8.7130183"><ele>265.0</ele><time>2026-04-17T11:16:27.905Z</time></trkpt><trkpt lat="42.642235" lon="-8.71289"><ele>265.0</ele><time>2026-04-17T11:16:28.906Z</time></trkpt><trkpt lat="42.6421017" lon="-8.7127433"><ele>265.0</ele><time>2026-04-17T11:16:29.905Z</time></trkpt><trkpt lat="42.6419667" lon="-8.7125817"><ele>267.0</ele><time>2026-04-17T11:16:30.906Z</time></trkpt><trkpt lat="42.64184" lon="-8.7124133"><ele>269.0</ele><time>2026-04-17T11:16:31.906Z</time></trkpt><trkpt lat="42.6417267" lon="-8.712235"><ele>271.0</ele><time>2026-04-17T11:16:32.905Z</time></trkpt><trkpt lat="42.64162" lon="-8.71204"><ele>277.0</ele><time>2026-04-17T11:16:33.906Z</time></trkpt><trkpt lat="42.641515" lon="-8.7118483"><ele>283.0</ele><time>2026-04-17T11:16:34.906Z</time></trkpt><trkpt lat="42.6414117" lon="-8.71165"><ele>289.0</ele><time>2026-04-17T11:16:35.906Z</time></trkpt><trkpt lat="42.6413267" lon="-8.7114383"><ele>289.0</ele><time>2026-04-17T11:16:36.906Z</time></trkpt><trkpt lat="42.6412433" lon="-8.7112483"><ele>289.0</ele><time>2026-04-17T11:16:37.905Z</time></trkpt><trkpt lat="42.6411683" lon="-8.711095"><ele>289.0</ele><time>2026-04-17T11:16:38.906Z</time></trkpt><trkpt lat="42.6411133" lon="-8.7109467"><ele>289.0</ele><time>2026-04-17T11:16:39.906Z</time></trkpt><trkpt lat="42.641065" lon="-8.7108033"><ele>290.25</ele><time>2026-04-17T11:16:40.905Z</time></trkpt><trkpt lat="42.64103" lon="-8.710635"><ele>291.5</ele><time>2026-04-17T11:16:41.905Z</time></trkpt><trkpt lat="42.6409933" lon="-8.7104617"><ele>292.75</ele><time>2026-04-17T11:16:42.905Z</time></trkpt><trkpt lat="42.6409483" lon="-8.7102667"><ele>294.0</ele><time>2026-04-17T11:16:43.906Z</time></trkpt><trkpt lat="42.64089" lon="-8.71008"><ele>298.6666666666667</ele><time>2026-04-17T11:16:44.905Z</time></trkpt><trkpt lat="42.640835" lon="-8.70986"><ele>303.33333333333337</ele><time>2026-04-17T11:16:45.905Z</time></trkpt><trkpt lat="42.6407567" lon="-8.7096517"><ele>308.0</ele><time>2026-04-17T11:16:46.905Z</time></trkpt><trkpt lat="42.6406817" lon="-8.7094383"><ele>312.6666666666667</ele><time>2026-04-17T11:16:47.905Z</time></trkpt><trkpt lat="42.6406217" lon="-8.7092567"><ele>317.3333333333333</ele><time>2026-04-17T11:16:48.905Z</time></trkpt><trkpt lat="42.6405633" lon="-8.7090567"><ele>322.0</ele><time>2026-04-17T11:16:49.906Z</time></trkpt><trkpt lat="42.640495" lon="-8.708825"><ele>322.0</ele><time>2026-04-17T11:16:50.906Z</time></trkpt><trkpt lat="42.6404083" lon="-8.7086083"><ele>322.0</ele><time>2026-04-17T11:16:51.905Z</time></trkpt><trkpt lat="42.6403367" lon="-8.708425"><ele>322.0</ele><time>2026-04-17T11:16:52.906Z</time></trkpt><trkpt lat="42.6402983" lon="-8.7082717"><ele>323.0</ele><time>2026-04-17T11:16:53.905Z</time></trkpt><trkpt lat="42.6402717" lon="-8.708175"><ele>324.0</ele><time>2026-04-17T11:16:54.905Z</time></trkpt><trkpt lat="42.640215" lon="-8.708225"><ele>325.0</ele><time>2026-04-17T11:16:57.906Z</time></trkpt><trkpt lat="42.6401683" lon="-8.70832"><ele>326.0</ele><time>2026-04-17T11:16:59.906Z</time></trkpt><trkpt lat="42.6401183" lon="-8.7084867"><ele>327.0</ele><time>2026-04-17T11:17:01.905Z</time></trkpt><trkpt lat="42.640085" lon="-8.7086117"><ele>327.0</ele><time>2026-04-17T11:17:02.905Z</time></trkpt><trkpt lat="42.6399967" lon="-8.7088433"><ele>327.0</ele><time>2026-04-17T11:17:03.905Z</time></trkpt><trkpt lat="42.6399383" lon="-8.7090933"><ele>327.0</ele><time>2026-04-17T11:17:04.905Z</time></trkpt><trkpt lat="42.6398917" lon="-8.70937"><ele>323.6666666666667</ele><time>2026-04-17T11:17:05.905Z</time></trkpt><trkpt lat="42.6398717" lon="-8.709605"><ele>320.33333333333337</ele><time>2026-04-17T11:17:06.906Z</time></trkpt><trkpt lat="42.639875" lon="-8.7098133"><ele>317.0</ele><time>2026-04-17T11:17:07.906Z</time></trkpt><trkpt lat="42.6398883" lon="-8.7100117"><ele>317.0</ele><time>2026-04-17T11:17:08.906Z</time></trkpt><trkpt lat="42.6399133" lon="-8.710215"><ele>317.0</ele><time>2026-04-17T11:17:09.906Z</time></trkpt><trkpt lat="42.6399417" lon="-8.7104133"><ele>317.0</ele><time>2026-04-17T11:17:10.905Z</time></trkpt><trkpt lat="42.6399617" lon="-8.71063"><ele>312.6666666666667</ele><time>2026-04-17T11:17:11.905Z</time></trkpt><trkpt lat="42.6399867" lon="-8.7108583"><ele>308.3333333333333</ele><time>2026-04-17T11:17:12.906Z</time></trkpt><trkpt lat="42.640015" lon="-8.7110917"><ele>304.0</ele><time>2026-04-17T11:17:13.906Z</time></trkpt><trkpt lat="42.640055" lon="-8.711315"><ele>301.3333333333333</ele><time>2026-04-17T11:17:14.905Z</time></trkpt><trkpt lat="42.6401033" lon="-8.7115267"><ele>298.6666666666667</ele><time>2026-04-17T11:17:15.906Z</time></trkpt><trkpt lat="42.6401467" lon="-8.7117317"><ele>296.0</ele><time>2026-04-17T11:17:16.905Z</time></trkpt><trkpt lat="42.640185" lon="-8.711955"><ele>295.33333333333337</ele><time>2026-04-17T11:17:17.906Z</time></trkpt><trkpt lat="42.6402" lon="-8.712175"><ele>294.6666666666667</ele><time>2026-04-17T11:17:18.906Z</time></trkpt><trkpt lat="42.6402083" lon="-8.7124117"><ele>294.0</ele><time>2026-04-17T11:17:19.905Z</time></trkpt><trkpt lat="42.6402117" lon="-8.7126483"><ele>292.3333333333333</ele><time>2026-04-17T11:17:20.905Z</time></trkpt><trkpt lat="42.64022" lon="-8.712875"><ele>290.66666666666663</ele><time>2026-04-17T11:17:21.906Z</time></trkpt><trkpt lat="42.6402267" lon="-8.7130967"><ele>289.0</ele><time>2026-04-17T11:17:22.905Z</time></trkpt><trkpt lat="42.6401917" lon="-8.7133583"><ele>289.0</ele><time>2026-04-17T11:17:23.906Z</time></trkpt><trkpt lat="42.6401583" lon="-8.7135433"><ele>289.0</ele><time>2026-04-17T11:17:24.905Z</time></trkpt><trkpt lat="42.64011" lon="-8.7137567"><ele>289.0</ele><time>2026-04-17T11:17:25.905Z</time></trkpt><trkpt lat="42.6400683" lon="-8.7139367"><ele>289.0</ele><time>2026-04-17T11:17:26.905Z</time></trkpt><trkpt lat="42.6400133" lon="-8.7141217"><ele>286.66666666666663</ele><time>2026-04-17T11:17:27.905Z</time></trkpt><trkpt lat="42.63996" lon="-8.7143167"><ele>284.3333333333333</ele><time>2026-04-17T11:17:28.906Z</time></trkpt><trkpt lat="42.6399117" lon="-8.71452"><ele>282.0</ele><time>2026-04-17T11:17:29.906Z</time></trkpt><trkpt lat="42.63987" lon="-8.7147617"><ele>279.6666666666667</ele><time>2026-04-17T11:17:30.906Z</time></trkpt><trkpt lat="42.6398283" lon="-8.7150317"><ele>277.33333333333337</ele><time>2026-04-17T11:17:31.906Z</time></trkpt><trkpt lat="42.639795" lon="-8.7153383"><ele>275.0</ele><time>2026-04-17T11:17:32.906Z</time></trkpt><trkpt lat="42.639765" lon="-8.7156483"><ele>269.0</ele><time>2026-04-17T11:17:33.906Z</time></trkpt><trkpt lat="42.6397333" lon="-8.7159583"><ele>263.0</ele><time>2026-04-17T11:17:34.906Z</time></trkpt><trkpt lat="42.6396933" lon="-8.71626"><ele>261.33333333333337</ele><time>2026-04-17T11:17:35.906Z</time></trkpt><trkpt lat="42.6396517" lon="-8.7165267"><ele>259.6666666666667</ele><time>2026-04-17T11:17:36.905Z</time></trkpt><trkpt lat="42.6396033" lon="-8.716785"><ele>258.0</ele><time>2026-04-17T11:17:37.905Z</time></trkpt><trkpt lat="42.639555" lon="-8.7170183"><ele>257.75</ele><time>2026-04-17T11:17:38.905Z</time></trkpt><trkpt lat="42.6395067" lon="-8.7172317"><ele>257.5</ele><time>2026-04-17T11:17:39.906Z</time></trkpt><trkpt lat="42.6394967" lon="-8.7174233"><ele>257.25</ele><time>2026-04-17T11:17:40.905Z</time></trkpt><trkpt lat="42.6395167" lon="-8.7176"><ele>257.0</ele><time>2026-04-17T11:17:41.906Z</time></trkpt><trkpt lat="42.639555" lon="-8.7177417"><ele>257.0</ele><time>2026-04-17T11:17:42.905Z</time></trkpt><trkpt lat="42.6395967" lon="-8.717835"><ele>257.0</ele><time>2026-04-17T11:17:43.906Z</time></trkpt><trkpt lat="42.6396433" lon="-8.7179083"><ele>257.0</ele><time>2026-04-17T11:17:44.905Z</time></trkpt><trkpt lat="42.639715" lon="-8.7179783"><ele>257.0</ele><time>2026-04-17T11:17:45.905Z</time></trkpt><trkpt lat="42.63981" lon="-8.718025"><ele>257.0</ele><time>2026-04-17T11:17:46.906Z</time></trkpt><trkpt lat="42.6399383" lon="-8.71806"><ele>257.0</ele><time>2026-04-17T11:17:47.905Z</time></trkpt><trkpt lat="42.640065" lon="-8.718095"><ele>257.0</ele><time>2026-04-17T11:17:48.906Z</time></trkpt><trkpt lat="42.6401433" lon="-8.7181217"><ele>257.0</ele><time>2026-04-17T11:17:49.906Z</time></trkpt><trkpt lat="42.6402117" lon="-8.71816"><ele>257.0</ele><time>2026-04-17T11:17:51.906Z</time></trkpt><trkpt lat="42.6401467" lon="-8.7182383"><ele>257.0</ele><time>2026-04-17T11:17:54.905Z</time></trkpt><trkpt lat="42.6400283" lon="-8.71832"><ele>257.0</ele><time>2026-04-17T11:17:56.905Z</time></trkpt><trkpt lat="42.639945" lon="-8.718415"><ele>257.0</ele><time>2026-04-17T11:17:57.906Z</time></trkpt><trkpt lat="42.6398417" lon="-8.7185867"><ele>257.0</ele><time>2026-04-17T11:17:58.906Z</time></trkpt><trkpt lat="42.6397367" lon="-8.71879"><ele>256.6666666666667</ele><time>2026-04-17T11:17:59.905Z</time></trkpt><trkpt lat="42.6396217" lon="-8.7190317"><ele>256.3333333333333</ele><time>2026-04-17T11:18:00.906Z</time></trkpt><trkpt lat="42.6395283" lon="-8.71926"><ele>256.0</ele><time>2026-04-17T11:18:01.905Z</time></trkpt><trkpt lat="42.639445" lon="-8.7194417"><ele>259.0</ele><time>2026-04-17T11:18:02.905Z</time></trkpt><trkpt lat="42.6393867" lon="-8.7196383"><ele>262.0</ele><time>2026-04-17T11:18:03.905Z</time></trkpt><trkpt lat="42.6393367" lon="-8.7198333"><ele>265.0</ele><time>2026-04-17T11:18:04.905Z</time></trkpt><trkpt lat="42.6392967" lon="-8.7200083"><ele>268.0</ele><time>2026-04-17T11:18:05.905Z</time></trkpt><trkpt lat="42.63925" lon="-8.7201633"><ele>264.25</ele><time>2026-04-17T11:18:06.905Z</time></trkpt><trkpt lat="42.6391883" lon="-8.7202767"><ele>260.5</ele><time>2026-04-17T11:18:07.905Z</time></trkpt><trkpt lat="42.639115" lon="-8.7203667"><ele>256.75</ele><time>2026-04-17T11:18:08.905Z</time></trkpt><trkpt lat="42.63901" lon="-8.7204483"><ele>253.0</ele><time>2026-04-17T11:18:09.906Z</time></trkpt><trkpt lat="42.6388833" lon="-8.7205433"><ele>253.0</ele><time>2026-04-17T11:18:10.905Z</time></trkpt><trkpt lat="42.6387767" lon="-8.7206217"><ele>253.0</ele><time>2026-04-17T11:18:11.905Z</time></trkpt><trkpt lat="42.6386567" lon="-8.7206983"><ele>253.0</ele><time>2026-04-17T11:18:12.905Z</time></trkpt><trkpt lat="42.63852" lon="-8.72075"><ele>253.0</ele><time>2026-04-17T11:18:13.906Z</time></trkpt><trkpt lat="42.638355" lon="-8.7207867"><ele>259.66666666666663</ele><time>2026-04-17T11:18:14.906Z</time></trkpt><trkpt lat="42.6381883" lon="-8.7208283"><ele>266.3333333333333</ele><time>2026-04-17T11:18:15.905Z</time></trkpt><trkpt lat="42.6380333" lon="-8.7208833"><ele>273.0</ele><time>2026-04-17T11:18:16.906Z</time></trkpt><trkpt lat="42.6378833" lon="-8.7209367"><ele>274.25</ele><time>2026-04-17T11:18:17.906Z</time></trkpt><trkpt lat="42.6377467" lon="-8.7209867"><ele>275.5</ele><time>2026-04-17T11:18:18.906Z</time></trkpt><trkpt lat="42.6376083" lon="-8.7210033"><ele>276.75</ele><time>2026-04-17T11:18:19.906Z</time></trkpt><trkpt lat="42.637465" lon="-8.7209917"><ele>278.0</ele><time>2026-04-17T11:18:20.906Z</time></trkpt><trkpt lat="42.6373117" lon="-8.7209567"><ele>278.0</ele><time>2026-04-17T11:18:21.906Z</time></trkpt><trkpt lat="42.637165" lon="-8.7209133"><ele>278.0</ele><time>2026-04-17T11:18:22.906Z</time></trkpt><trkpt lat="42.6370117" lon="-8.7208717"><ele>278.0</ele><time>2026-04-17T11:18:23.906Z</time></trkpt><trkpt lat="42.6368733" lon="-8.720835"><ele>278.0</ele><time>2026-04-17T11:18:24.905Z</time></trkpt><trkpt lat="42.636765" lon="-8.720775"><ele>277.0</ele><time>2026-04-17T11:18:25.906Z</time></trkpt><trkpt lat="42.6366667" lon="-8.7206667"><ele>276.0</ele><time>2026-04-17T11:18:26.905Z</time></trkpt><trkpt lat="42.6365783" lon="-8.7205317"><ele>275.0</ele><time>2026-04-17T11:18:27.905Z</time></trkpt><trkpt lat="42.6364883" lon="-8.72038"><ele>274.0</ele><time>2026-04-17T11:18:28.905Z</time></trkpt><trkpt lat="42.636395" lon="-8.7202067"><ele>276.0</ele><time>2026-04-17T11:18:29.905Z</time></trkpt><trkpt lat="42.6362833" lon="-8.7200233"><ele>278.0</ele><time>2026-04-17T11:18:30.905Z</time></trkpt><trkpt lat="42.63616" lon="-8.719845"><ele>280.0</ele><time>2026-04-17T11:18:31.905Z</time></trkpt><trkpt lat="42.6360267" lon="-8.7196267"><ele>280.0</ele><time>2026-04-17T11:18:32.905Z</time></trkpt><trkpt lat="42.6359183" lon="-8.7194167"><ele>280.0</ele><time>2026-04-17T11:18:33.905Z</time></trkpt><trkpt lat="42.635795" lon="-8.7192"><ele>280.0</ele><time>2026-04-17T11:18:34.906Z</time></trkpt><trkpt lat="42.6356917" lon="-8.71898"><ele>283.3333333333333</ele><time>2026-04-17T11:18:35.905Z</time></trkpt><trkpt lat="42.6356" lon="-8.7187717"><ele>286.6666666666667</ele><time>2026-04-17T11:18:36.905Z</time></trkpt><trkpt lat="42.6355417" lon="-8.7185767"><ele>290.0</ele><time>2026-04-17T11:18:37.906Z</time></trkpt><trkpt lat="42.6354833" lon="-8.7184167"><ele>291.2</ele><time>2026-04-17T11:18:38.905Z</time></trkpt><trkpt lat="42.6354617" lon="-8.7182433"><ele>292.4</ele><time>2026-04-17T11:18:39.905Z</time></trkpt><trkpt lat="42.635425" lon="-8.7180867"><ele>293.6</ele><time>2026-04-17T11:18:40.905Z</time></trkpt><trkpt lat="42.6353667" lon="-8.7179533"><ele>294.8</ele><time>2026-04-17T11:18:41.905Z</time></trkpt><trkpt lat="42.635305" lon="-8.717875"><ele>296.0</ele><time>2026-04-17T11:18:42.906Z</time></trkpt><trkpt lat="42.6352133" lon="-8.7178183"><ele>296.0</ele><time>2026-04-17T11:18:44.905Z</time></trkpt><trkpt lat="42.6350717" lon="-8.71792"><ele>296.0</ele><time>2026-04-17T11:18:46.906Z</time></trkpt><trkpt lat="42.6349233" lon="-8.7180167"><ele>296.0</ele><time>2026-04-17T11:18:47.906Z</time></trkpt><trkpt lat="42.6347417" lon="-8.7180883"><ele>296.0</ele><time>2026-04-17T11:18:48.905Z</time></trkpt><trkpt lat="42.6345583" lon="-8.718135"><ele>296.0</ele><time>2026-04-17T11:18:49.906Z</time></trkpt><trkpt lat="42.6343817" lon="-8.7181617"><ele>296.0</ele><time>2026-04-17T11:18:50.906Z</time></trkpt><trkpt lat="42.634205" lon="-8.7181717"><ele>299.6666666666667</ele><time>2026-04-17T11:18:51.905Z</time></trkpt><trkpt lat="42.6340317" lon="-8.7181467"><ele>303.3333333333333</ele><time>2026-04-17T11:18:52.905Z</time></trkpt><trkpt lat="42.6338683" lon="-8.7181167"><ele>307.0</ele><time>2026-04-17T11:18:53.905Z</time></trkpt><trkpt lat="42.6337017" lon="-8.7180983"><ele>307.0</ele><time>2026-04-17T11:18:54.905Z</time></trkpt><trkpt lat="42.6335283" lon="-8.7180983"><ele>307.0</ele><time>2026-04-17T11:18:55.905Z</time></trkpt><trkpt lat="42.6333333" lon="-8.718125"><ele>307.0</ele><time>2026-04-17T11:18:56.905Z</time></trkpt><trkpt lat="42.633135" lon="-8.7181717"><ele>307.0</ele><time>2026-04-17T11:18:57.905Z</time></trkpt><trkpt lat="42.6329283" lon="-8.7182567"><ele>307.0</ele><time>2026-04-17T11:18:58.906Z</time></trkpt><trkpt lat="42.6327517" lon="-8.7183483"><ele>307.0</ele><time>2026-04-17T11:18:59.906Z</time></trkpt><trkpt lat="42.6325917" lon="-8.718415"><ele>308.2</ele><time>2026-04-17T11:19:00.905Z</time></trkpt><trkpt lat="42.6324517" lon="-8.7184683"><ele>309.4</ele><time>2026-04-17T11:19:01.905Z</time></trkpt><trkpt lat="42.632345" lon="-8.7185267"><ele>310.6</ele><time>2026-04-17T11:19:02.906Z</time></trkpt><trkpt lat="42.6322667" lon="-8.71859"><ele>311.8</ele><time>2026-04-17T11:19:03.905Z</time></trkpt><trkpt lat="42.6322433" lon="-8.71869"><ele>313.0</ele><time>2026-04-17T11:19:04.906Z</time></trkpt><trkpt lat="42.6322467" lon="-8.7188217"><ele>313.0</ele><time>2026-04-17T11:19:05.906Z</time></trkpt><trkpt lat="42.6322833" lon="-8.7189983"><ele>313.0</ele><time>2026-04-17T11:19:06.906Z</time></trkpt><trkpt lat="42.6323467" lon="-8.7191983"><ele>313.0</ele><time>2026-04-17T11:19:07.906Z</time></trkpt><trkpt lat="42.6324" lon="-8.7194117"><ele>314.66666666666663</ele><time>2026-04-17T11:19:08.906Z</time></trkpt><trkpt lat="42.6324333" lon="-8.71962"><ele>316.3333333333333</ele><time>2026-04-17T11:19:09.905Z</time></trkpt><trkpt lat="42.632445" lon="-8.719855"><ele>318.0</ele><time>2026-04-17T11:19:10.906Z</time></trkpt><trkpt lat="42.632445" lon="-8.7200783"><ele>315.25</ele><time>2026-04-17T11:19:11.905Z</time></trkpt><trkpt lat="42.6324383" lon="-8.7202967"><ele>312.5</ele><time>2026-04-17T11:19:12.905Z</time></trkpt><trkpt lat="42.6324267" lon="-8.720495"><ele>309.75</ele><time>2026-04-17T11:19:13.906Z</time></trkpt><trkpt lat="42.632415" lon="-8.720675"><ele>307.0</ele><time>2026-04-17T11:19:14.905Z</time></trkpt><trkpt lat="42.6323983" lon="-8.7208083"><ele>307.0</ele><time>2026-04-17T11:19:15.906Z</time></trkpt><trkpt lat="42.6323833" lon="-8.72092"><ele>307.0</ele><time>2026-04-17T11:19:16.905Z</time></trkpt><trkpt lat="42.6323117" lon="-8.7209683"><ele>307.0</ele><time>2026-04-17T11:19:18.906Z</time></trkpt><trkpt lat="42.632235" lon="-8.7209483"><ele>307.0</ele><time>2026-04-17T11:19:19.905Z</time></trkpt><trkpt lat="42.6321383" lon="-8.7209217"><ele>307.0</ele><time>2026-04-17T11:19:20.905Z</time></trkpt><trkpt lat="42.6320267" lon="-8.720915"><ele>310.0</ele><time>2026-04-17T11:19:21.905Z</time></trkpt><trkpt lat="42.6319417" lon="-8.72096"><ele>313.0</ele><time>2026-04-17T11:19:22.906Z</time></trkpt><trkpt lat="42.631865" lon="-8.7210283"><ele>316.0</ele><time>2026-04-17T11:19:23.906Z</time></trkpt><trkpt lat="42.63185" lon="-8.72117"><ele>319.0</ele><time>2026-04-17T11:19:24.906Z</time></trkpt><trkpt lat="42.631835" lon="-8.7213533"><ele>322.0</ele><time>2026-04-17T11:19:25.906Z</time></trkpt><trkpt lat="42.6318167" lon="-8.7215467"><ele>322.0</ele><time>2026-04-17T11:19:26.905Z</time></trkpt><trkpt lat="42.6317833" lon="-8.7217217"><ele>322.0</ele><time>2026-04-17T11:19:27.906Z</time></trkpt><trkpt lat="42.631735" lon="-8.7218617"><ele>322.0</ele><time>2026-04-17T11:19:28.906Z</time></trkpt><trkpt lat="42.6316683" lon="-8.7219867"><ele>322.0</ele><time>2026-04-17T11:19:29.906Z</time></trkpt><trkpt lat="42.6315667" lon="-8.7221133"><ele>320.5</ele><time>2026-04-17T11:19:30.906Z</time></trkpt><trkpt lat="42.6314617" lon="-8.7222383"><ele>319.0</ele><time>2026-04-17T11:19:31.905Z</time></trkpt><trkpt lat="42.6313867" lon="-8.7223833"><ele>317.5</ele><time>2026-04-17T11:19:32.905Z</time></trkpt><trkpt lat="42.6313433" lon="-8.7225233"><ele>316.0</ele><time>2026-04-17T11:19:33.906Z</time></trkpt><trkpt lat="42.6313317" lon="-8.72267"><ele>315.25</ele><time>2026-04-17T11:19:34.906Z</time></trkpt><trkpt lat="42.631335" lon="-8.7228333"><ele>314.5</ele><time>2026-04-17T11:19:35.905Z</time></trkpt><trkpt lat="42.6313433" lon="-8.7230033"><ele>313.75</ele><time>2026-04-17T11:19:36.906Z</time></trkpt><trkpt lat="42.6313667" lon="-8.7231467"><ele>313.0</ele><time>2026-04-17T11:19:37.905Z</time></trkpt><trkpt lat="42.6314017" lon="-8.7232783"><ele>313.0</ele><time>2026-04-17T11:19:38.906Z</time></trkpt><trkpt lat="42.63144" lon="-8.7233783"><ele>313.0</ele><time>2026-04-17T11:19:39.906Z</time></trkpt><trkpt lat="42.6314967" lon="-8.7234567"><ele>313.0</ele><time>2026-04-17T11:19:40.906Z</time></trkpt><trkpt lat="42.6315633" lon="-8.7235217"><ele>313.0</ele><time>2026-04-17T11:19:41.906Z</time></trkpt><trkpt lat="42.6316567" lon="-8.7235583"><ele>313.0</ele><time>2026-04-17T11:19:42.905Z</time></trkpt><trkpt lat="42.631755" lon="-8.7235517"><ele>313.0</ele><time>2026-04-17T11:19:43.905Z</time></trkpt><trkpt lat="42.6318617" lon="-8.7235117"><ele>313.0</ele><time>2026-04-17T11:19:44.905Z</time></trkpt><trkpt lat="42.6319717" lon="-8.7234467"><ele>313.0</ele><time>2026-04-17T11:19:45.906Z</time></trkpt><trkpt lat="42.63208" lon="-8.7233683"><ele>313.0</ele><time>2026-04-17T11:19:46.906Z</time></trkpt><trkpt lat="42.63219" lon="-8.7233217"><ele>313.0</ele><time>2026-04-17T11:19:47.905Z</time></trkpt><trkpt lat="42.632315" lon="-8.72331"><ele>308.5</ele><time>2026-04-17T11:19:48.905Z</time></trkpt><trkpt lat="42.632455" lon="-8.7233133"><ele>304.0</ele><time>2026-04-17T11:19:49.905Z</time></trkpt><trkpt lat="42.6325867" lon="-8.7232883"><ele>299.5</ele><time>2026-04-17T11:19:50.905Z</time></trkpt><trkpt lat="42.6327017" lon="-8.7232483"><ele>295.0</ele><time>2026-04-17T11:19:51.905Z</time></trkpt><trkpt lat="42.6328267" lon="-8.7231467"><ele>287.3333333333333</ele><time>2026-04-17T11:19:52.905Z</time></trkpt><trkpt lat="42.6329517" lon="-8.7230233"><ele>279.6666666666667</ele><time>2026-04-17T11:19:53.905Z</time></trkpt><trkpt lat="42.6330767" lon="-8.722875"><ele>272.0</ele><time>2026-04-17T11:19:54.906Z</time></trkpt><trkpt lat="42.6331783" lon="-8.722735"><ele>273.0</ele><time>2026-04-17T11:19:55.905Z</time></trkpt><trkpt lat="42.63326" lon="-8.722585"><ele>274.0</ele><time>2026-04-17T11:19:56.905Z</time></trkpt><trkpt lat="42.6333317" lon="-8.7224217"><ele>275.0</ele><time>2026-04-17T11:19:57.905Z</time></trkpt><trkpt lat="42.633395" lon="-8.72223"><ele>276.0</ele><time>2026-04-17T11:19:58.905Z</time></trkpt><trkpt lat="42.6334583" lon="-8.72205"><ele>277.0</ele><time>2026-04-17T11:19:59.906Z</time></trkpt><trkpt lat="42.6335083" lon="-8.7218967"><ele>278.0</ele><time>2026-04-17T11:20:00.905Z</time></trkpt><trkpt lat="42.633555" lon="-8.7217233"><ele>279.0</ele><time>2026-04-17T11:20:01.905Z</time></trkpt><trkpt lat="42.63359" lon="-8.72156"><ele>280.0</ele><time>2026-04-17T11:20:02.905Z</time></trkpt><trkpt lat="42.6336233" lon="-8.7214217"><ele>275.8333333333333</ele><time>2026-04-17T11:20:03.905Z</time></trkpt><trkpt lat="42.6336483" lon="-8.7213017"><ele>271.66666666666663</ele><time>2026-04-17T11:20:04.906Z</time></trkpt><trkpt lat="42.6336867" lon="-8.7212183"><ele>267.5</ele><time>2026-04-17T11:20:05.906Z</time></trkpt><trkpt lat="42.63375" lon="-8.7211667"><ele>263.3333333333333</ele><time>2026-04-17T11:20:07.905Z</time></trkpt><trkpt lat="42.633785" lon="-8.721245"><ele>259.1666666666667</ele><time>2026-04-17T11:20:09.905Z</time></trkpt><trkpt lat="42.6338017" lon="-8.7213333"><ele>255.0</ele><time>2026-04-17T11:20:10.906Z</time></trkpt><trkpt lat="42.6338267" lon="-8.72145"><ele>255.0</ele><time>2026-04-17T11:20:11.905Z</time></trkpt><trkpt lat="42.6338733" lon="-8.7216183"><ele>255.0</ele><time>2026-04-17T11:20:12.906Z</time></trkpt><trkpt lat="42.6339333" lon="-8.7218717"><ele>255.0</ele><time>2026-04-17T11:20:13.905Z</time></trkpt><trkpt lat="42.6339933" lon="-8.722105"><ele>254.75</ele><time>2026-04-17T11:20:14.906Z</time></trkpt><trkpt lat="42.6340383" lon="-8.7222883"><ele>254.5</ele><time>2026-04-17T11:20:15.905Z</time></trkpt><trkpt lat="42.6340833" lon="-8.72246"><ele>254.25</ele><time>2026-04-17T11:20:16.906Z</time></trkpt><trkpt lat="42.6341683" lon="-8.72259"><ele>254.0</ele><time>2026-04-17T11:20:17.906Z</time></trkpt><trkpt lat="42.6342467" lon="-8.7227417"><ele>253.75</ele><time>2026-04-17T11:20:18.906Z</time></trkpt><trkpt lat="42.6343333" lon="-8.7228817"><ele>253.5</ele><time>2026-04-17T11:20:19.905Z</time></trkpt><trkpt lat="42.6344067" lon="-8.7230267"><ele>253.25</ele><time>2026-04-17T11:20:20.906Z</time></trkpt><trkpt lat="42.63446" lon="-8.7231883"><ele>253.0</ele><time>2026-04-17T11:20:21.905Z</time></trkpt><trkpt lat="42.6345083" lon="-8.723365"><ele>247.75</ele><time>2026-04-17T11:20:22.905Z</time></trkpt><trkpt lat="42.6345433" lon="-8.7235367"><ele>242.5</ele><time>2026-04-17T11:20:23.906Z</time></trkpt><trkpt lat="42.6345483" lon="-8.72371"><ele>237.25</ele><time>2026-04-17T11:20:24.906Z</time></trkpt><trkpt lat="42.634525" lon="-8.7238883"><ele>232.0</ele><time>2026-04-17T11:20:25.906Z</time></trkpt><trkpt lat="42.6344817" lon="-8.7240233"><ele>233.2</ele><time>2026-04-17T11:20:26.905Z</time></trkpt><trkpt lat="42.6344217" lon="-8.72412"><ele>234.39999999999998</ele><time>2026-04-17T11:20:27.906Z</time></trkpt><trkpt lat="42.634345" lon="-8.7241967"><ele>235.60000000000002</ele><time>2026-04-17T11:20:28.905Z</time></trkpt><trkpt lat="42.634245" lon="-8.7242617"><ele>236.8</ele><time>2026-04-17T11:20:29.905Z</time></trkpt><trkpt lat="42.6341133" lon="-8.7243083"><ele>238.0</ele><time>2026-04-17T11:20:30.905Z</time></trkpt><trkpt lat="42.6339733" lon="-8.7243367"><ele>238.0</ele><time>2026-04-17T11:20:31.906Z</time></trkpt><trkpt lat="42.6338667" lon="-8.724365"><ele>238.0</ele><time>2026-04-17T11:20:32.906Z</time></trkpt><trkpt lat="42.63378" lon="-8.7244067"><ele>238.0</ele><time>2026-04-17T11:20:33.905Z</time></trkpt><trkpt lat="42.6337183" lon="-8.72447"><ele>238.0</ele><time>2026-04-17T11:20:34.905Z</time></trkpt><trkpt lat="42.6337217" lon="-8.724645"><ele>238.0</ele><time>2026-04-17T11:20:36.905Z</time></trkpt><trkpt lat="42.6337483" lon="-8.72477"><ele>234.66666666666666</ele><time>2026-04-17T11:20:37.905Z</time></trkpt><trkpt lat="42.6338083" lon="-8.7249217"><ele>231.33333333333331</ele><time>2026-04-17T11:20:38.906Z</time></trkpt><trkpt lat="42.6338917" lon="-8.7251167"><ele>228.0</ele><time>2026-04-17T11:20:39.906Z</time></trkpt><trkpt lat="42.6340533" lon="-8.72532"><ele>228.0</ele><time>2026-04-17T11:20:40.905Z</time></trkpt><trkpt lat="42.6342167" lon="-8.7254867"><ele>228.0</ele><time>2026-04-17T11:20:41.905Z</time></trkpt><trkpt lat="42.63436" lon="-8.7256317"><ele>228.0</ele><time>2026-04-17T11:20:42.906Z</time></trkpt><trkpt lat="42.63447" lon="-8.7257567"><ele>224.4</ele><time>2026-04-17T11:20:43.906Z</time></trkpt><trkpt lat="42.6345717" lon="-8.72587"><ele>220.8</ele><time>2026-04-17T11:20:44.905Z</time></trkpt><trkpt lat="42.634655" lon="-8.72597"><ele>217.2</ele><time>2026-04-17T11:20:45.905Z</time></trkpt><trkpt lat="42.6347233" lon="-8.7260533"><ele>213.6</ele><time>2026-04-17T11:20:46.906Z</time></trkpt><trkpt lat="42.63478" lon="-8.72612"><ele>210.0</ele><time>2026-04-17T11:20:47.905Z</time></trkpt><trkpt lat="42.6348233" lon="-8.7261983"><ele>210.0</ele><time>2026-04-17T11:20:48.905Z</time></trkpt><trkpt lat="42.63484" lon="-8.7262883"><ele>210.0</ele><time>2026-04-17T11:20:49.906Z</time></trkpt><trkpt lat="42.6348333" lon="-8.7263783"><ele>210.0</ele><time>2026-04-17T11:20:50.905Z</time></trkpt><trkpt lat="42.63482" lon="-8.7264983"><ele>210.0</ele><time>2026-04-17T11:20:51.906Z</time></trkpt><trkpt lat="42.6347933" lon="-8.726605"><ele>210.0</ele><time>2026-04-17T11:20:52.905Z</time></trkpt><trkpt lat="42.634755" lon="-8.7267117"><ele>210.0</ele><time>2026-04-17T11:20:53.906Z</time></trkpt><trkpt lat="42.6347117" lon="-8.7268017"><ele>210.0</ele><time>2026-04-17T11:20:54.906Z</time></trkpt><trkpt lat="42.6346433" lon="-8.72689"><ele>210.0</ele><time>2026-04-17T11:20:55.906Z</time></trkpt><trkpt lat="42.634565" lon="-8.7269733"><ele>210.0</ele><time>2026-04-17T11:20:56.905Z</time></trkpt><trkpt lat="42.63446" lon="-8.72704"><ele>210.0</ele><time>2026-04-17T11:20:57.906Z</time></trkpt><trkpt lat="42.6343517" lon="-8.7270933"><ele>210.0</ele><time>2026-04-17T11:20:58.905Z</time></trkpt><trkpt lat="42.634245" lon="-8.7271283"><ele>216.0</ele><time>2026-04-17T11:20:59.906Z</time></trkpt><trkpt lat="42.6341367" lon="-8.727135"><ele>222.0</ele><time>2026-04-17T11:21:00.905Z</time></trkpt><trkpt lat="42.6340267" lon="-8.72714"><ele>228.0</ele><time>2026-04-17T11:21:01.905Z</time></trkpt><trkpt lat="42.6339083" lon="-8.72713"><ele>234.0</ele><time>2026-04-17T11:21:02.906Z</time></trkpt><trkpt lat="42.6337783" lon="-8.7271017"><ele>234.0</ele><time>2026-04-17T11:21:03.905Z</time></trkpt><trkpt lat="42.633645" lon="-8.7270767"><ele>234.0</ele><time>2026-04-17T11:21:04.905Z</time></trkpt><trkpt lat="42.6335" lon="-8.7270583"><ele>234.0</ele><time>2026-04-17T11:21:05.905Z</time></trkpt><trkpt lat="42.633345" lon="-8.7270367"><ele>234.0</ele><time>2026-04-17T11:21:06.906Z</time></trkpt><trkpt lat="42.6331967" lon="-8.72701"><ele>238.75</ele><time>2026-04-17T11:21:07.905Z</time></trkpt><trkpt lat="42.63306" lon="-8.7270133"><ele>243.5</ele><time>2026-04-17T11:21:08.906Z</time></trkpt><trkpt lat="42.6329217" lon="-8.7270317"><ele>248.25</ele><time>2026-04-17T11:21:09.906Z</time></trkpt><trkpt lat="42.632795" lon="-8.7270683"><ele>253.0</ele><time>2026-04-17T11:21:10.906Z</time></trkpt><trkpt lat="42.6326983" lon="-8.727115"><ele>255.66666666666666</ele><time>2026-04-17T11:21:11.905Z</time></trkpt><trkpt lat="42.6326233" lon="-8.7271733"><ele>258.3333333333333</ele><time>2026-04-17T11:21:12.905Z</time></trkpt><trkpt lat="42.632575" lon="-8.7272467"><ele>261.0</ele><time>2026-04-17T11:21:13.906Z</time></trkpt><trkpt lat="42.6325483" lon="-8.7273267"><ele>263.6666666666667</ele><time>2026-04-17T11:21:14.905Z</time></trkpt><trkpt lat="42.6325083" lon="-8.7274133"><ele>266.33333333333337</ele><time>2026-04-17T11:21:15.906Z</time></trkpt><trkpt lat="42.6324917" lon="-8.7275517"><ele>269.0</ele><time>2026-04-17T11:21:16.905Z</time></trkpt><trkpt lat="42.632455" lon="-8.7276767"><ele>269.0</ele><time>2026-04-17T11:21:17.905Z</time></trkpt><trkpt lat="42.6324133" lon="-8.7278183"><ele>269.0</ele><time>2026-04-17T11:21:18.906Z</time></trkpt><trkpt lat="42.632405" lon="-8.7279683"><ele>269.0</ele><time>2026-04-17T11:21:19.906Z</time></trkpt><trkpt lat="42.632415" lon="-8.7281333"><ele>269.0</ele><time>2026-04-17T11:21:20.906Z</time></trkpt><trkpt lat="42.63244" lon="-8.7282283"><ele>269.0</ele><time>2026-04-17T11:21:21.905Z</time></trkpt><trkpt lat="42.6324733" lon="-8.7283017"><ele>269.0</ele><time>2026-04-17T11:21:23.906Z</time></trkpt><trkpt lat="42.63256" lon="-8.728365"><ele>269.0</ele><time>2026-04-17T11:21:26.906Z</time></trkpt><trkpt lat="42.6326117" lon="-8.72844"><ele>269.0</ele><time>2026-04-17T11:21:27.906Z</time></trkpt><trkpt lat="42.6326783" lon="-8.728545"><ele>269.0</ele><time>2026-04-17T11:21:28.905Z</time></trkpt><trkpt lat="42.632745" lon="-8.7286583"><ele>269.0</ele><time>2026-04-17T11:21:29.906Z</time></trkpt><trkpt lat="42.632805" lon="-8.7287867"><ele>266.0</ele><time>2026-04-17T11:21:30.905Z</time></trkpt><trkpt lat="42.632845" lon="-8.728935"><ele>263.0</ele><time>2026-04-17T11:21:31.905Z</time></trkpt><trkpt lat="42.6328633" lon="-8.7290833"><ele>260.0</ele><time>2026-04-17T11:21:32.905Z</time></trkpt><trkpt lat="42.632875" lon="-8.7292217"><ele>257.0</ele><time>2026-04-17T11:21:33.905Z</time></trkpt><trkpt lat="42.6328883" lon="-8.7293367"><ele>254.0</ele><time>2026-04-17T11:21:34.906Z</time></trkpt><trkpt lat="42.63291" lon="-8.7294367"><ele>254.00000000000003</ele><time>2026-04-17T11:21:35.906Z</time></trkpt><trkpt lat="42.6329317" lon="-8.729535"><ele>254.0</ele><time>2026-04-17T11:21:36.906Z</time></trkpt><trkpt lat="42.6329717" lon="-8.72963"><ele>254.0</ele><time>2026-04-17T11:21:37.905Z</time></trkpt><trkpt lat="42.6330117" lon="-8.7297183"><ele>254.0</ele><time>2026-04-17T11:21:38.906Z</time></trkpt><trkpt lat="42.6330583" lon="-8.72981"><ele>254.00000000000003</ele><time>2026-04-17T11:21:39.906Z</time></trkpt><trkpt lat="42.633125" lon="-8.7298867"><ele>254.0</ele><time>2026-04-17T11:21:40.905Z</time></trkpt><trkpt lat="42.6331917" lon="-8.729985"><ele>254.0</ele><time>2026-04-17T11:21:41.906Z</time></trkpt><trkpt lat="42.633295" lon="-8.7300917"><ele>254.0</ele><time>2026-04-17T11:21:42.905Z</time></trkpt><trkpt lat="42.63353" lon="-8.7301567"><ele>254.0</ele><time>2026-04-17T11:21:43.906Z</time></trkpt><trkpt lat="42.633755" lon="-8.7302117"><ele>252.5</ele><time>2026-04-17T11:21:44.906Z</time></trkpt><trkpt lat="42.6339833" lon="-8.73026"><ele>251.0</ele><time>2026-04-17T11:21:45.906Z</time></trkpt><trkpt lat="42.6342633" lon="-8.73021"><ele>248.0</ele><time>2026-04-17T11:21:46.905Z</time></trkpt><trkpt lat="42.6344617" lon="-8.7302767"><ele>245.0</ele><time>2026-04-17T11:21:47.905Z</time></trkpt><trkpt lat="42.6346" lon="-8.7303917"><ele>242.0</ele><time>2026-04-17T11:21:48.906Z</time></trkpt><trkpt lat="42.6347217" lon="-8.730545"><ele>241.33333333333334</ele><time>2026-04-17T11:21:49.906Z</time></trkpt><trkpt lat="42.6348417" lon="-8.730705"><ele>240.66666666666669</ele><time>2026-04-17T11:21:50.905Z</time></trkpt><trkpt lat="42.634955" lon="-8.7308633"><ele>240.0</ele><time>2026-04-17T11:21:51.906Z</time></trkpt><trkpt lat="42.6350783" lon="-8.73101"><ele>237.25</ele><time>2026-04-17T11:21:52.906Z</time></trkpt><trkpt lat="42.6351883" lon="-8.7311517"><ele>234.5</ele><time>2026-04-17T11:21:53.906Z</time></trkpt><trkpt lat="42.635285" lon="-8.7312767"><ele>231.75</ele><time>2026-04-17T11:21:54.905Z</time></trkpt><trkpt lat="42.6353817" lon="-8.7313917"><ele>229.0</ele><time>2026-04-17T11:21:55.905Z</time></trkpt><trkpt lat="42.635455" lon="-8.7314917"><ele>228.99999999999997</ele><time>2026-04-17T11:21:56.905Z</time></trkpt><trkpt lat="42.6355233" lon="-8.731575"><ele>229.0</ele><time>2026-04-17T11:21:57.906Z</time></trkpt><trkpt lat="42.6355817" lon="-8.7316483"><ele>229.0</ele><time>2026-04-17T11:21:58.906Z</time></trkpt><trkpt lat="42.63568" lon="-8.7317283"><ele>229.0</ele><time>2026-04-17T11:22:00.905Z</time></trkpt><trkpt lat="42.63575" lon="-8.7317433"><ele>228.99999999999997</ele><time>2026-04-17T11:22:01.906Z</time></trkpt><trkpt lat="42.6358333" lon="-8.731755"><ele>229.0</ele><time>2026-04-17T11:22:02.905Z</time></trkpt><trkpt lat="42.6359417" lon="-8.7317617"><ele>229.0</ele><time>2026-04-17T11:22:03.906Z</time></trkpt><trkpt lat="42.6360667" lon="-8.73175"><ele>229.0</ele><time>2026-04-17T11:22:04.906Z</time></trkpt><trkpt lat="42.63621" lon="-8.7317133"><ele>229.0</ele><time>2026-04-17T11:22:05.905Z</time></trkpt><trkpt lat="42.6363617" lon="-8.73166"><ele>229.0</ele><time>2026-04-17T11:22:06.905Z</time></trkpt><trkpt lat="42.6365233" lon="-8.7315767"><ele>224.66666666666666</ele><time>2026-04-17T11:22:07.906Z</time></trkpt><trkpt lat="42.6366933" lon="-8.7314967"><ele>220.33333333333331</ele><time>2026-04-17T11:22:08.906Z</time></trkpt><trkpt lat="42.636855" lon="-8.7314333"><ele>216.0</ele><time>2026-04-17T11:22:09.905Z</time></trkpt><trkpt lat="42.6370067" lon="-8.7314033"><ele>213.75</ele><time>2026-04-17T11:22:10.906Z</time></trkpt><trkpt lat="42.6371417" lon="-8.7313967"><ele>211.5</ele><time>2026-04-17T11:22:11.905Z</time></trkpt><trkpt lat="42.6372717" lon="-8.7313967"><ele>209.25</ele><time>2026-04-17T11:22:12.906Z</time></trkpt><trkpt lat="42.6373783" lon="-8.7314233"><ele>207.0</ele><time>2026-04-17T11:22:13.906Z</time></trkpt><trkpt lat="42.6374683" lon="-8.7314517"><ele>207.0</ele><time>2026-04-17T11:22:14.906Z</time></trkpt><trkpt lat="42.6375617" lon="-8.7314783"><ele>207.0</ele><time>2026-04-17T11:22:15.906Z</time></trkpt><trkpt lat="42.637645" lon="-8.7315033"><ele>207.0</ele><time>2026-04-17T11:22:16.905Z</time></trkpt><trkpt lat="42.6377117" lon="-8.7315233"><ele>207.0</ele><time>2026-04-17T11:22:17.906Z</time></trkpt><trkpt lat="42.637775" lon="-8.73156"><ele>207.0</ele><time>2026-04-17T11:22:19.905Z</time></trkpt><trkpt lat="42.6377617" lon="-8.73169"><ele>207.0</ele><time>2026-04-17T11:22:22.906Z</time></trkpt><trkpt lat="42.63773" lon="-8.731765"><ele>207.0</ele><time>2026-04-17T11:22:23.905Z</time></trkpt><trkpt lat="42.63768" lon="-8.73188"><ele>207.0</ele><time>2026-04-17T11:22:24.906Z</time></trkpt><trkpt lat="42.637595" lon="-8.7320417"><ele>207.0</ele><time>2026-04-17T11:22:25.906Z</time></trkpt><trkpt lat="42.63748" lon="-8.7322417"><ele>207.0</ele><time>2026-04-17T11:22:26.905Z</time></trkpt><trkpt lat="42.6373467" lon="-8.732425"><ele>203.66666666666669</ele><time>2026-04-17T11:22:27.906Z</time></trkpt><trkpt lat="42.637205" lon="-8.7325983"><ele>200.33333333333334</ele><time>2026-04-17T11:22:28.905Z</time></trkpt><trkpt lat="42.6370633" lon="-8.7327683"><ele>197.0</ele><time>2026-04-17T11:22:29.905Z</time></trkpt><trkpt lat="42.6369117" lon="-8.7329117"><ele>195.66666666666669</ele><time>2026-04-17T11:22:30.906Z</time></trkpt><trkpt lat="42.6367417" lon="-8.7330383"><ele>194.33333333333331</ele><time>2026-04-17T11:22:31.906Z</time></trkpt><trkpt lat="42.6365617" lon="-8.733145"><ele>193.0</ele><time>2026-04-17T11:22:32.905Z</time></trkpt><trkpt lat="42.6364033" lon="-8.7332267"><ele>193.0</ele><time>2026-04-17T11:22:33.905Z</time></trkpt><trkpt lat="42.6362533" lon="-8.7333267"><ele>193.0</ele><time>2026-04-17T11:22:34.905Z</time></trkpt><trkpt lat="42.6361183" lon="-8.7334233"><ele>193.0</ele><time>2026-04-17T11:22:35.906Z</time></trkpt><trkpt lat="42.6359867" lon="-8.7335333"><ele>191.75</ele><time>2026-04-17T11:22:36.905Z</time></trkpt><trkpt lat="42.635855" lon="-8.73364"><ele>190.5</ele><time>2026-04-17T11:22:37.905Z</time></trkpt><trkpt lat="42.6357483" lon="-8.73374"><ele>189.25</ele><time>2026-04-17T11:22:38.905Z</time></trkpt><trkpt lat="42.6356717" lon="-8.7338583"><ele>188.0</ele><time>2026-04-17T11:22:39.906Z</time></trkpt><trkpt lat="42.6356067" lon="-8.7340033"><ele>188.0</ele><time>2026-04-17T11:22:40.906Z</time></trkpt><trkpt lat="42.6355433" lon="-8.7341733"><ele>188.0</ele><time>2026-04-17T11:22:41.906Z</time></trkpt><trkpt lat="42.635465" lon="-8.7343133"><ele>188.0</ele><time>2026-04-17T11:22:42.906Z</time></trkpt><trkpt lat="42.6353617" lon="-8.7344267"><ele>188.0</ele><time>2026-04-17T11:22:43.906Z</time></trkpt><trkpt lat="42.6352433" lon="-8.734535"><ele>185.5</ele><time>2026-04-17T11:22:44.905Z</time></trkpt><trkpt lat="42.6351317" lon="-8.7346317"><ele>183.0</ele><time>2026-04-17T11:22:45.906Z</time></trkpt><trkpt lat="42.6350167" lon="-8.73471"><ele>180.5</ele><time>2026-04-17T11:22:46.905Z</time></trkpt><trkpt lat="42.6349133" lon="-8.73477"><ele>178.0</ele><time>2026-04-17T11:22:47.905Z</time></trkpt><trkpt lat="42.6347967" lon="-8.734815"><ele>178.0</ele><time>2026-04-17T11:22:48.905Z</time></trkpt><trkpt lat="42.6346617" lon="-8.7348767"><ele>178.0</ele><time>2026-04-17T11:22:49.906Z</time></trkpt><trkpt lat="42.6345717" lon="-8.7349217"><ele>178.0</ele><time>2026-04-17T11:22:50.906Z</time></trkpt><trkpt lat="42.6344967" lon="-8.73496"><ele>178.0</ele><time>2026-04-17T11:22:51.905Z</time></trkpt><trkpt lat="42.634445" lon="-8.7350233"><ele>178.0</ele><time>2026-04-17T11:22:52.905Z</time></trkpt><trkpt lat="42.6344" lon="-8.7351167"><ele>176.75</ele><time>2026-04-17T11:22:53.906Z</time></trkpt><trkpt lat="42.6343683" lon="-8.7352667"><ele>175.5</ele><time>2026-04-17T11:22:54.905Z</time></trkpt><trkpt lat="42.6343267" lon="-8.73543"><ele>174.25</ele><time>2026-04-17T11:22:55.906Z</time></trkpt><trkpt lat="42.6342683" lon="-8.73561"><ele>173.0</ele><time>2026-04-17T11:22:56.905Z</time></trkpt><trkpt lat="42.6341967" lon="-8.7357883"><ele>173.0</ele><time>2026-04-17T11:22:57.905Z</time></trkpt><trkpt lat="42.6340967" lon="-8.7359667"><ele>173.0</ele><time>2026-04-17T11:22:58.906Z</time></trkpt><trkpt lat="42.6339617" lon="-8.7361517"><ele>173.0</ele><time>2026-04-17T11:22:59.905Z</time></trkpt><trkpt lat="42.6338383" lon="-8.73632"><ele>171.0</ele><time>2026-04-17T11:23:00.905Z</time></trkpt><trkpt lat="42.6337167" lon="-8.7364683"><ele>169.0</ele><time>2026-04-17T11:23:01.906Z</time></trkpt><trkpt lat="42.633605" lon="-8.7366017"><ele>167.0</ele><time>2026-04-17T11:23:02.906Z</time></trkpt><trkpt lat="42.6334983" lon="-8.7367417"><ele>167.0</ele><time>2026-04-17T11:23:03.905Z</time></trkpt><trkpt lat="42.63341" lon="-8.7368583"><ele>167.0</ele><time>2026-04-17T11:23:04.905Z</time></trkpt><trkpt lat="42.6332983" lon="-8.7369433"><ele>167.0</ele><time>2026-04-17T11:23:05.905Z</time></trkpt><trkpt lat="42.6331667" lon="-8.73699"><ele>167.0</ele><time>2026-04-17T11:23:06.905Z</time></trkpt><trkpt lat="42.633025" lon="-8.737005"><ele>164.0</ele><time>2026-04-17T11:23:07.905Z</time></trkpt><trkpt lat="42.6328717" lon="-8.7369983"><ele>161.0</ele><time>2026-04-17T11:23:08.905Z</time></trkpt><trkpt lat="42.63269" lon="-8.736995"><ele>158.0</ele><time>2026-04-17T11:23:09.906Z</time></trkpt><trkpt lat="42.6325083" lon="-8.7370033"><ele>158.0</ele><time>2026-04-17T11:23:10.906Z</time></trkpt><trkpt lat="42.63232" lon="-8.7369883"><ele>158.0</ele><time>2026-04-17T11:23:11.906Z</time></trkpt><trkpt lat="42.6321183" lon="-8.7369417"><ele>158.0</ele><time>2026-04-17T11:23:12.906Z</time></trkpt><trkpt lat="42.6319283" lon="-8.7368667"><ele>160.66666666666666</ele><time>2026-04-17T11:23:13.906Z</time></trkpt><trkpt lat="42.6317267" lon="-8.7368033"><ele>163.33333333333334</ele><time>2026-04-17T11:23:14.907Z</time></trkpt><trkpt lat="42.63153" lon="-8.7367467"><ele>166.0</ele><time>2026-04-17T11:23:15.907Z</time></trkpt><trkpt lat="42.6313367" lon="-8.73669"><ele>166.0</ele><time>2026-04-17T11:23:16.907Z</time></trkpt><trkpt lat="42.631145" lon="-8.7366317"><ele>166.0</ele><time>2026-04-17T11:23:17.906Z</time></trkpt><trkpt lat="42.6309533" lon="-8.736555"><ele>166.0</ele><time>2026-04-17T11:23:18.906Z</time></trkpt><trkpt lat="42.63076" lon="-8.736475"><ele>164.66666666666669</ele><time>2026-04-17T11:23:19.906Z</time></trkpt><trkpt lat="42.6305967" lon="-8.7364083"><ele>163.33333333333334</ele><time>2026-04-17T11:23:20.907Z</time></trkpt><trkpt lat="42.6304383" lon="-8.73638"><ele>162.0</ele><time>2026-04-17T11:23:21.906Z</time></trkpt><trkpt lat="42.6302883" lon="-8.7363683"><ele>160.75</ele><time>2026-04-17T11:23:22.907Z</time></trkpt><trkpt lat="42.630145" lon="-8.736355"><ele>159.5</ele><time>2026-04-17T11:23:23.906Z</time></trkpt><trkpt lat="42.63" lon="-8.7363217"><ele>158.25</ele><time>2026-04-17T11:23:24.906Z</time></trkpt><trkpt lat="42.6298683" lon="-8.73627"><ele>157.0</ele><time>2026-04-17T11:23:25.907Z</time></trkpt><trkpt lat="42.6297167" lon="-8.7361867"><ele>157.0</ele><time>2026-04-17T11:23:26.907Z</time></trkpt><trkpt lat="42.62954" lon="-8.73609"><ele>157.0</ele><time>2026-04-17T11:23:27.906Z</time></trkpt><trkpt lat="42.6293533" lon="-8.73599"><ele>157.0</ele><time>2026-04-17T11:23:28.906Z</time></trkpt><trkpt lat="42.6291733" lon="-8.7358883"><ele>161.33333333333334</ele><time>2026-04-17T11:23:29.906Z</time></trkpt><trkpt lat="42.6289933" lon="-8.7358083"><ele>165.66666666666666</ele><time>2026-04-17T11:23:30.907Z</time></trkpt><trkpt lat="42.6288367" lon="-8.7357283"><ele>170.0</ele><time>2026-04-17T11:23:31.906Z</time></trkpt><trkpt lat="42.6286917" lon="-8.7356817"><ele>172.5</ele><time>2026-04-17T11:23:32.907Z</time></trkpt><trkpt lat="42.6285617" lon="-8.7356417"><ele>175.0</ele><time>2026-04-17T11:23:33.906Z</time></trkpt><trkpt lat="42.6284483" lon="-8.7356367"><ele>177.5</ele><time>2026-04-17T11:23:34.907Z</time></trkpt><trkpt lat="42.6283483" lon="-8.7356367"><ele>180.0</ele><time>2026-04-17T11:23:35.907Z</time></trkpt><trkpt lat="42.62825" lon="-8.7357383"><ele>180.0</ele><time>2026-04-17T11:23:37.907Z</time></trkpt><trkpt lat="42.6282183" lon="-8.7358183"><ele>180.0</ele><time>2026-04-17T11:23:38.907Z</time></trkpt><trkpt lat="42.6281967" lon="-8.73594"><ele>180.0</ele><time>2026-04-17T11:23:39.907Z</time></trkpt><trkpt lat="42.6282083" lon="-8.7360433"><ele>180.0</ele><time>2026-04-17T11:23:40.906Z</time></trkpt><trkpt lat="42.6283" lon="-8.7362417"><ele>180.0</ele><time>2026-04-17T11:23:41.906Z</time></trkpt><trkpt lat="42.6283933" lon="-8.736455"><ele>180.33333333333334</ele><time>2026-04-17T11:23:42.906Z</time></trkpt><trkpt lat="42.62847" lon="-8.7366433"><ele>180.66666666666669</ele><time>2026-04-17T11:23:43.906Z</time></trkpt><trkpt lat="42.6285833" lon="-8.7368517"><ele>181.0</ele><time>2026-04-17T11:23:44.906Z</time></trkpt><trkpt lat="42.6286967" lon="-8.737025"><ele>173.66666666666669</ele><time>2026-04-17T11:23:45.907Z</time></trkpt><trkpt lat="42.628795" lon="-8.73719"><ele>166.33333333333334</ele><time>2026-04-17T11:23:46.907Z</time></trkpt><trkpt lat="42.6288883" lon="-8.737355"><ele>159.0</ele><time>2026-04-17T11:23:47.907Z</time></trkpt><trkpt lat="42.628965" lon="-8.7375633"><ele>161.33333333333334</ele><time>2026-04-17T11:23:48.907Z</time></trkpt><trkpt lat="42.62905" lon="-8.73781"><ele>163.66666666666669</ele><time>2026-04-17T11:23:49.906Z</time></trkpt><trkpt lat="42.6291467" lon="-8.738065"><ele>166.0</ele><time>2026-04-17T11:23:50.906Z</time></trkpt><trkpt lat="42.6292267" lon="-8.7383167"><ele>166.0</ele><time>2026-04-17T11:23:51.906Z</time></trkpt><trkpt lat="42.6292917" lon="-8.7385367"><ele>166.0</ele><time>2026-04-17T11:23:52.906Z</time></trkpt><trkpt lat="42.629365" lon="-8.738725"><ele>166.0</ele><time>2026-04-17T11:23:53.907Z</time></trkpt><trkpt lat="42.62944" lon="-8.7388833"><ele>159.75</ele><time>2026-04-17T11:23:54.906Z</time></trkpt><trkpt lat="42.6295417" lon="-8.739015"><ele>153.5</ele><time>2026-04-17T11:23:55.907Z</time></trkpt><trkpt lat="42.6296533" lon="-8.7391233"><ele>147.25</ele><time>2026-04-17T11:23:56.907Z</time></trkpt><trkpt lat="42.6297583" lon="-8.7392383"><ele>141.0</ele><time>2026-04-17T11:23:57.906Z</time></trkpt><trkpt lat="42.6298567" lon="-8.7393567"><ele>144.0</ele><time>2026-04-17T11:23:58.907Z</time></trkpt><trkpt lat="42.6299483" lon="-8.7394983"><ele>147.0</ele><time>2026-04-17T11:23:59.906Z</time></trkpt><trkpt lat="42.6300267" lon="-8.7396517"><ele>150.0</ele><time>2026-04-17T11:24:00.907Z</time></trkpt><trkpt lat="42.6300917" lon="-8.739815"><ele>153.0</ele><time>2026-04-17T11:24:01.907Z</time></trkpt><trkpt lat="42.6301267" lon="-8.74001"><ele>152.66666666666666</ele><time>2026-04-17T11:24:02.906Z</time></trkpt><trkpt lat="42.6301567" lon="-8.7402167"><ele>152.33333333333331</ele><time>2026-04-17T11:24:03.907Z</time></trkpt><trkpt lat="42.630195" lon="-8.7404383"><ele>152.0</ele><time>2026-04-17T11:24:04.907Z</time></trkpt><trkpt lat="42.6302333" lon="-8.7406583"><ele>152.0</ele><time>2026-04-17T11:24:05.907Z</time></trkpt><trkpt lat="42.6302717" lon="-8.7408717"><ele>152.0</ele><time>2026-04-17T11:24:06.906Z</time></trkpt><trkpt lat="42.6302983" lon="-8.74108"><ele>152.0</ele><time>2026-04-17T11:24:07.906Z</time></trkpt><trkpt lat="42.6303167" lon="-8.7412717"><ele>151.0</ele><time>2026-04-17T11:24:08.906Z</time></trkpt><trkpt lat="42.6302967" lon="-8.741415"><ele>150.0</ele><time>2026-04-17T11:24:09.906Z</time></trkpt><trkpt lat="42.6302633" lon="-8.7414917"><ele>149.0</ele><time>2026-04-17T11:24:10.907Z</time></trkpt><trkpt lat="42.630225" lon="-8.7415783"><ele>148.0</ele><time>2026-04-17T11:24:11.907Z</time></trkpt><trkpt lat="42.63019" lon="-8.7416883"><ele>147.0</ele><time>2026-04-17T11:24:12.907Z</time></trkpt><trkpt lat="42.630135" lon="-8.7418133"><ele>146.0</ele><time>2026-04-17T11:24:13.906Z</time></trkpt><trkpt lat="42.630055" lon="-8.7419483"><ele>143.33333333333331</ele><time>2026-04-17T11:24:14.906Z</time></trkpt><trkpt lat="42.629955" lon="-8.7421083"><ele>140.66666666666666</ele><time>2026-04-17T11:24:15.907Z</time></trkpt><trkpt lat="42.6298467" lon="-8.7422733"><ele>138.0</ele><time>2026-04-17T11:24:16.906Z</time></trkpt><trkpt lat="42.6297633" lon="-8.74246"><ele>138.0</ele><time>2026-04-17T11:24:17.906Z</time></trkpt><trkpt lat="42.62969" lon="-8.742645"><ele>138.0</ele><time>2026-04-17T11:24:18.906Z</time></trkpt><trkpt lat="42.6296333" lon="-8.7428"><ele>138.0</ele><time>2026-04-17T11:24:19.906Z</time></trkpt><trkpt lat="42.6296233" lon="-8.7429383"><ele>138.0</ele><time>2026-04-17T11:24:21.907Z</time></trkpt><trkpt lat="42.6296783" lon="-8.7430467"><ele>138.6</ele><time>2026-04-17T11:24:23.906Z</time></trkpt><trkpt lat="42.6297333" lon="-8.7431983"><ele>139.20000000000002</ele><time>2026-04-17T11:24:25.907Z</time></trkpt><trkpt lat="42.6297383" lon="-8.743305"><ele>139.8</ele><time>2026-04-17T11:24:26.907Z</time></trkpt><trkpt lat="42.62973" lon="-8.7434167"><ele>140.4</ele><time>2026-04-17T11:24:27.906Z</time></trkpt><trkpt lat="42.6297" lon="-8.74353"><ele>141.0</ele><time>2026-04-17T11:24:28.907Z</time></trkpt><trkpt lat="42.62964" lon="-8.7436583"><ele>139.5</ele><time>2026-04-17T11:24:30.906Z</time></trkpt><trkpt lat="42.6295667" lon="-8.743815"><ele>138.0</ele><time>2026-04-17T11:24:32.906Z</time></trkpt><trkpt lat="42.62952" lon="-8.7439383"><ele>136.5</ele><time>2026-04-17T11:24:33.907Z</time></trkpt><trkpt lat="42.62945" lon="-8.7440783"><ele>135.0</ele><time>2026-04-17T11:24:34.907Z</time></trkpt><trkpt lat="42.6293367" lon="-8.7442583"><ele>135.0</ele><time>2026-04-17T11:24:35.907Z</time></trkpt><trkpt lat="42.6292317" lon="-8.7444267"><ele>135.0</ele><time>2026-04-17T11:24:36.907Z</time></trkpt><trkpt lat="42.6291217" lon="-8.7445883"><ele>135.0</ele><time>2026-04-17T11:24:37.906Z</time></trkpt><trkpt lat="42.6289983" lon="-8.7447467"><ele>135.0</ele><time>2026-04-17T11:24:38.907Z</time></trkpt><trkpt lat="42.628855" lon="-8.74491"><ele>135.0</ele><time>2026-04-17T11:24:39.906Z</time></trkpt><trkpt lat="42.6286867" lon="-8.745045"><ele>135.0</ele><time>2026-04-17T11:24:40.907Z</time></trkpt><trkpt lat="42.6285183" lon="-8.7451583"><ele>136.0</ele><time>2026-04-17T11:24:41.906Z</time></trkpt><trkpt lat="42.628345" lon="-8.74525"><ele>137.0</ele><time>2026-04-17T11:24:42.906Z</time></trkpt><trkpt lat="42.6281817" lon="-8.745335"><ele>138.0</ele><time>2026-04-17T11:24:43.906Z</time></trkpt><trkpt lat="42.6280283" lon="-8.745415"><ele>138.0</ele><time>2026-04-17T11:24:44.906Z</time></trkpt><trkpt lat="42.6278817" lon="-8.7454967"><ele>138.0</ele><time>2026-04-17T11:24:45.906Z</time></trkpt><trkpt lat="42.6277583" lon="-8.7455767"><ele>138.0</ele><time>2026-04-17T11:24:46.907Z</time></trkpt><trkpt lat="42.6276417" lon="-8.7456667"><ele>138.0</ele><time>2026-04-17T11:24:47.906Z</time></trkpt><trkpt lat="42.6275333" lon="-8.74577"><ele>136.5</ele><time>2026-04-17T11:24:48.906Z</time></trkpt><trkpt lat="42.6274317" lon="-8.745885"><ele>135.0</ele><time>2026-04-17T11:24:49.907Z</time></trkpt><trkpt lat="42.6273233" lon="-8.7459817"><ele>133.5</ele><time>2026-04-17T11:24:50.906Z</time></trkpt><trkpt lat="42.6272017" lon="-8.7460567"><ele>132.0</ele><time>2026-04-17T11:24:51.906Z</time></trkpt><trkpt lat="42.6270633" lon="-8.746115"><ele>136.33333333333334</ele><time>2026-04-17T11:24:52.906Z</time></trkpt><trkpt lat="42.6268883" lon="-8.746145"><ele>140.66666666666669</ele><time>2026-04-17T11:24:53.907Z</time></trkpt><trkpt lat="42.6267233" lon="-8.7461833"><ele>145.0</ele><time>2026-04-17T11:24:54.907Z</time></trkpt><trkpt lat="42.6265633" lon="-8.7462317"><ele>145.0</ele><time>2026-04-17T11:24:55.906Z</time></trkpt><trkpt lat="42.6264183" lon="-8.7462917"><ele>145.0</ele><time>2026-04-17T11:24:56.906Z</time></trkpt><trkpt lat="42.6262767" lon="-8.7463883"><ele>145.0</ele><time>2026-04-17T11:24:57.907Z</time></trkpt><trkpt lat="42.6261233" lon="-8.7464983"><ele>149.0</ele><time>2026-04-17T11:24:58.907Z</time></trkpt><trkpt lat="42.625955" lon="-8.7466017"><ele>153.0</ele><time>2026-04-17T11:24:59.906Z</time></trkpt><trkpt lat="42.6257883" lon="-8.7466917"><ele>157.0</ele><time>2026-04-17T11:25:00.907Z</time></trkpt><trkpt lat="42.62564" lon="-8.74675"><ele>157.0</ele><time>2026-04-17T11:25:01.906Z</time></trkpt><trkpt lat="42.625495" lon="-8.7467733"><ele>157.0</ele><time>2026-04-17T11:25:02.906Z</time></trkpt><trkpt lat="42.625365" lon="-8.7467733"><ele>157.0</ele><time>2026-04-17T11:25:03.906Z</time></trkpt><trkpt lat="42.6252817" lon="-8.74675"><ele>157.0</ele><time>2026-04-17T11:25:04.907Z</time></trkpt><trkpt lat="42.6252067" lon="-8.7467467"><ele>157.0</ele><time>2026-04-17T11:25:05.907Z</time></trkpt><trkpt lat="42.6251533" lon="-8.7468183"><ele>155.5</ele><time>2026-04-17T11:25:07.906Z</time></trkpt><trkpt lat="42.6251833" lon="-8.746985"><ele>154.0</ele><time>2026-04-17T11:25:09.907Z</time></trkpt><trkpt lat="42.62523" lon="-8.747085"><ele>152.5</ele><time>2026-04-17T11:25:10.907Z</time></trkpt><trkpt lat="42.625285" lon="-8.7472283"><ele>151.0</ele><time>2026-04-17T11:25:11.907Z</time></trkpt><trkpt lat="42.6253867" lon="-8.7473983"><ele>151.0</ele><time>2026-04-17T11:25:12.907Z</time></trkpt><trkpt lat="42.6254833" lon="-8.747545"><ele>151.0</ele><time>2026-04-17T11:25:13.907Z</time></trkpt><trkpt lat="42.6255983" lon="-8.7476517"><ele>151.0</ele><time>2026-04-17T11:25:14.907Z</time></trkpt><trkpt lat="42.6257067" lon="-8.7477517"><ele>151.0</ele><time>2026-04-17T11:25:15.907Z</time></trkpt><trkpt lat="42.6258117" lon="-8.7478667"><ele>149.0</ele><time>2026-04-17T11:25:16.907Z</time></trkpt><trkpt lat="42.6259" lon="-8.7479983"><ele>147.0</ele><time>2026-04-17T11:25:17.906Z</time></trkpt><trkpt lat="42.62598" lon="-8.7481467"><ele>145.0</ele><time>2026-04-17T11:25:18.906Z</time></trkpt><trkpt lat="42.626075" lon="-8.7482783"><ele>143.0</ele><time>2026-04-17T11:25:19.907Z</time></trkpt><trkpt lat="42.6261567" lon="-8.7484"><ele>141.33333333333331</ele><time>2026-04-17T11:25:20.907Z</time></trkpt><trkpt lat="42.6262167" lon="-8.7484867"><ele>139.66666666666666</ele><time>2026-04-17T11:25:21.907Z</time></trkpt><trkpt lat="42.6262667" lon="-8.7485683"><ele>138.0</ele><time>2026-04-17T11:25:22.906Z</time></trkpt><trkpt lat="42.6263283" lon="-8.74864"><ele>136.33333333333334</ele><time>2026-04-17T11:25:23.907Z</time></trkpt><trkpt lat="42.6264" lon="-8.7486983"><ele>134.66666666666669</ele><time>2026-04-17T11:25:24.907Z</time></trkpt><trkpt lat="42.6264767" lon="-8.748785"><ele>133.0</ele><time>2026-04-17T11:25:25.906Z</time></trkpt><trkpt lat="42.62656" lon="-8.7488383"><ele>131.0</ele><time>2026-04-17T11:25:26.906Z</time></trkpt><trkpt lat="42.6266417" lon="-8.7488883"><ele>129.0</ele><time>2026-04-17T11:25:27.906Z</time></trkpt><trkpt lat="42.62676" lon="-8.74889"><ele>127.0</ele><time>2026-04-17T11:25:28.907Z</time></trkpt><trkpt lat="42.6268833" lon="-8.7488733"><ele>125.0</ele><time>2026-04-17T11:25:29.906Z</time></trkpt><trkpt lat="42.6270083" lon="-8.7488417"><ele>124.8</ele><time>2026-04-17T11:25:30.907Z</time></trkpt><trkpt lat="42.627115" lon="-8.7488233"><ele>124.6</ele><time>2026-04-17T11:25:31.906Z</time></trkpt><trkpt lat="42.6271967" lon="-8.748835"><ele>124.4</ele><time>2026-04-17T11:25:32.906Z</time></trkpt><trkpt lat="42.62733" lon="-8.7487283"><ele>124.2</ele><time>2026-04-17T11:25:33.907Z</time></trkpt><trkpt lat="42.62743" lon="-8.74874"><ele>124.0</ele><time>2026-04-17T11:25:34.907Z</time></trkpt><trkpt lat="42.6275133" lon="-8.7487767"><ele>124.0</ele><time>2026-04-17T11:25:35.907Z</time></trkpt><trkpt lat="42.6276117" lon="-8.7488267"><ele>124.0</ele><time>2026-04-17T11:25:36.906Z</time></trkpt><trkpt lat="42.62772" lon="-8.74894"><ele>124.0</ele><time>2026-04-17T11:25:37.906Z</time></trkpt><trkpt lat="42.6278033" lon="-8.7490033"><ele>124.0</ele><time>2026-04-17T11:25:38.906Z</time></trkpt><trkpt lat="42.6278317" lon="-8.7490983"><ele>124.0</ele><time>2026-04-17T11:25:39.907Z</time></trkpt><trkpt lat="42.6278517" lon="-8.7492033"><ele>122.25</ele><time>2026-04-17T11:25:40.907Z</time></trkpt><trkpt lat="42.62784" lon="-8.7493283"><ele>120.5</ele><time>2026-04-17T11:25:41.906Z</time></trkpt><trkpt lat="42.627775" lon="-8.7494617"><ele>118.75</ele><time>2026-04-17T11:25:42.907Z</time></trkpt><trkpt lat="42.6276733" lon="-8.7496"><ele>117.0</ele><time>2026-04-17T11:25:43.907Z</time></trkpt><trkpt lat="42.6275283" lon="-8.74975"><ele>115.5</ele><time>2026-04-17T11:25:44.906Z</time></trkpt><trkpt lat="42.6273767" lon="-8.7498867"><ele>114.0</ele><time>2026-04-17T11:25:45.906Z</time></trkpt><trkpt lat="42.6272617" lon="-8.7499883"><ele>112.5</ele><time>2026-04-17T11:25:46.907Z</time></trkpt><trkpt lat="42.6271667" lon="-8.7500933"><ele>111.0</ele><time>2026-04-17T11:25:47.906Z</time></trkpt><trkpt lat="42.6270967" lon="-8.7501717"><ele>108.19999999999999</ele><time>2026-04-17T11:25:48.907Z</time></trkpt><trkpt lat="42.6270267" lon="-8.7502617"><ele>105.39999999999999</ele><time>2026-04-17T11:25:49.906Z</time></trkpt><trkpt lat="42.6269467" lon="-8.7503333"><ele>102.6</ele><time>2026-04-17T11:25:50.906Z</time></trkpt><trkpt lat="42.62686" lon="-8.750395"><ele>99.8</ele><time>2026-04-17T11:25:51.907Z</time></trkpt><trkpt lat="42.6267533" lon="-8.750465"><ele>97.0</ele><time>2026-04-17T11:25:52.907Z</time></trkpt><trkpt lat="42.6266217" lon="-8.7505367"><ele>97.0</ele><time>2026-04-17T11:25:53.907Z</time></trkpt><trkpt lat="42.62647" lon="-8.750545"><ele>97.0</ele><time>2026-04-17T11:25:54.907Z</time></trkpt><trkpt lat="42.6262717" lon="-8.7505483"><ele>97.0</ele><time>2026-04-17T11:25:55.907Z</time></trkpt><trkpt lat="42.6261" lon="-8.7505267"><ele>97.5</ele><time>2026-04-17T11:25:56.907Z</time></trkpt><trkpt lat="42.625955" lon="-8.7505017"><ele>98.0</ele><time>2026-04-17T11:25:57.906Z</time></trkpt><trkpt lat="42.62582" lon="-8.750495"><ele>98.5</ele><time>2026-04-17T11:25:58.907Z</time></trkpt><trkpt lat="42.6256967" lon="-8.75049"><ele>99.0</ele><time>2026-04-17T11:25:59.906Z</time></trkpt><trkpt lat="42.6255667" lon="-8.750505"><ele>99.0</ele><time>2026-04-17T11:26:00.907Z</time></trkpt><trkpt lat="42.6254233" lon="-8.75052"><ele>99.0</ele><time>2026-04-17T11:26:01.906Z</time></trkpt><trkpt lat="42.625275" lon="-8.7505467"><ele>99.0</ele><time>2026-04-17T11:26:02.907Z</time></trkpt><trkpt lat="42.6251133" lon="-8.75059"><ele>100.5</ele><time>2026-04-17T11:26:03.907Z</time></trkpt><trkpt lat="42.6249783" lon="-8.7506433"><ele>102.0</ele><time>2026-04-17T11:26:04.906Z</time></trkpt><trkpt lat="42.6248483" lon="-8.7507117"><ele>103.5</ele><time>2026-04-17T11:26:05.907Z</time></trkpt><trkpt lat="42.6247267" lon="-8.7508133"><ele>105.0</ele><time>2026-04-17T11:26:06.907Z</time></trkpt><trkpt lat="42.6246183" lon="-8.750915"><ele>105.0</ele><time>2026-04-17T11:26:07.907Z</time></trkpt><trkpt lat="42.624515" lon="-8.7510233"><ele>105.0</ele><time>2026-04-17T11:26:08.907Z</time></trkpt><trkpt lat="42.6244733" lon="-8.75115"><ele>105.0</ele><time>2026-04-17T11:26:09.907Z</time></trkpt><trkpt lat="42.6244383" lon="-8.7513083"><ele>105.0</ele><time>2026-04-17T11:26:10.907Z</time></trkpt><trkpt lat="42.6243833" lon="-8.75148"><ele>107.25</ele><time>2026-04-17T11:26:11.907Z</time></trkpt><trkpt lat="42.62431" lon="-8.7516467"><ele>109.5</ele><time>2026-04-17T11:26:12.906Z</time></trkpt><trkpt lat="42.6242183" lon="-8.7518"><ele>111.75</ele><time>2026-04-17T11:26:13.906Z</time></trkpt><trkpt lat="42.6241217" lon="-8.7519533"><ele>114.0</ele><time>2026-04-17T11:26:14.907Z</time></trkpt><trkpt lat="42.6240467" lon="-8.75213"><ele>114.33333333333334</ele><time>2026-04-17T11:26:15.907Z</time></trkpt><trkpt lat="42.6240067" lon="-8.7523333"><ele>114.66666666666667</ele><time>2026-04-17T11:26:16.907Z</time></trkpt><trkpt lat="42.6239917" lon="-8.7525467"><ele>115.0</ele><time>2026-04-17T11:26:17.906Z</time></trkpt><trkpt lat="42.623975" lon="-8.7527383"><ele>115.33333333333334</ele><time>2026-04-17T11:26:18.906Z</time></trkpt><trkpt lat="42.6239483" lon="-8.7528467"><ele>115.66666666666667</ele><time>2026-04-17T11:26:19.906Z</time></trkpt><trkpt lat="42.6239117" lon="-8.7529367"><ele>116.0</ele><time>2026-04-17T11:26:20.907Z</time></trkpt><trkpt lat="42.6238533" lon="-8.7530117"><ele>116.33333333333334</ele><time>2026-04-17T11:26:21.906Z</time></trkpt><trkpt lat="42.623785" lon="-8.7530783"><ele>116.66666666666667</ele><time>2026-04-17T11:26:22.907Z</time></trkpt><trkpt lat="42.6236933" lon="-8.7531417"><ele>117.0</ele><time>2026-04-17T11:26:23.906Z</time></trkpt><trkpt lat="42.6235633" lon="-8.7532083"><ele>117.0</ele><time>2026-04-17T11:26:24.906Z</time></trkpt><trkpt lat="42.6233933" lon="-8.7532933"><ele>117.0</ele><time>2026-04-17T11:26:25.906Z</time></trkpt><trkpt lat="42.6232" lon="-8.753395"><ele>117.0</ele><time>2026-04-17T11:26:26.907Z</time></trkpt><trkpt lat="42.6230067" lon="-8.7534967"><ele>116.0</ele><time>2026-04-17T11:26:27.906Z</time></trkpt><trkpt lat="42.6228067" lon="-8.7535867"><ele>115.0</ele><time>2026-04-17T11:26:28.906Z</time></trkpt><trkpt lat="42.6225983" lon="-8.7536683"><ele>114.0</ele><time>2026-04-17T11:26:29.906Z</time></trkpt><trkpt lat="42.6223867" lon="-8.753745"><ele>114.0</ele><time>2026-04-17T11:26:30.906Z</time></trkpt><trkpt lat="42.622165" lon="-8.75383"><ele>114.0</ele><time>2026-04-17T11:26:31.907Z</time></trkpt><trkpt lat="42.6219433" lon="-8.7539067"><ele>117.0</ele><time>2026-04-17T11:26:32.906Z</time></trkpt><trkpt lat="42.6217067" lon="-8.753985"><ele>120.0</ele><time>2026-04-17T11:26:33.907Z</time></trkpt><trkpt lat="42.621475" lon="-8.7540533"><ele>120.0</ele><time>2026-04-17T11:26:34.907Z</time></trkpt><trkpt lat="42.6212833" lon="-8.75413"><ele>120.0</ele><time>2026-04-17T11:26:35.907Z</time></trkpt><trkpt lat="42.6211333" lon="-8.75421"><ele>120.0</ele><time>2026-04-17T11:26:36.906Z</time></trkpt><trkpt lat="42.6209733" lon="-8.75432"><ele>120.33333333333334</ele><time>2026-04-17T11:26:37.907Z</time></trkpt><trkpt lat="42.6207983" lon="-8.75444"><ele>120.66666666666667</ele><time>2026-04-17T11:26:38.907Z</time></trkpt><trkpt lat="42.6206217" lon="-8.7545767"><ele>121.0</ele><time>2026-04-17T11:26:39.906Z</time></trkpt><trkpt lat="42.6204617" lon="-8.754715"><ele>121.0</ele><time>2026-04-17T11:26:40.907Z</time></trkpt><trkpt lat="42.62034" lon="-8.75485"><ele>121.0</ele><time>2026-04-17T11:26:41.906Z</time></trkpt><trkpt lat="42.6202233" lon="-8.7550067"><ele>121.0</ele><time>2026-04-17T11:26:42.906Z</time></trkpt><trkpt lat="42.620105" lon="-8.7551933"><ele>121.66666666666667</ele><time>2026-04-17T11:26:43.906Z</time></trkpt><trkpt lat="42.6199583" lon="-8.7553767"><ele>122.33333333333334</ele><time>2026-04-17T11:26:44.907Z</time></trkpt><trkpt lat="42.6197867" lon="-8.7555517"><ele>123.0</ele><time>2026-04-17T11:26:45.907Z</time></trkpt><trkpt lat="42.61964" lon="-8.7556983"><ele>123.0</ele><time>2026-04-17T11:26:46.906Z</time></trkpt><trkpt lat="42.6195183" lon="-8.7558117"><ele>123.0</ele><time>2026-04-17T11:26:47.906Z</time></trkpt><trkpt lat="42.6194233" lon="-8.7559"><ele>123.0</ele><time>2026-04-17T11:26:48.906Z</time></trkpt><trkpt lat="42.6193483" lon="-8.7559817"><ele>123.0</ele><time>2026-04-17T11:26:49.906Z</time></trkpt><trkpt lat="42.6192683" lon="-8.7560483"><ele>125.5</ele><time>2026-04-17T11:26:50.907Z</time></trkpt><trkpt lat="42.6191933" lon="-8.7561017"><ele>128.0</ele><time>2026-04-17T11:26:51.906Z</time></trkpt><trkpt lat="42.6191133" lon="-8.7561367"><ele>130.5</ele><time>2026-04-17T11:26:52.907Z</time></trkpt><trkpt lat="42.6190233" lon="-8.75616"><ele>133.0</ele><time>2026-04-17T11:26:53.907Z</time></trkpt><trkpt lat="42.6189333" lon="-8.7561767"><ele>135.5</ele><time>2026-04-17T11:26:54.907Z</time></trkpt><trkpt lat="42.6188383" lon="-8.756155"><ele>138.0</ele><time>2026-04-17T11:26:55.906Z</time></trkpt><trkpt lat="42.6187583" lon="-8.756115"><ele>138.0</ele><time>2026-04-17T11:26:56.907Z</time></trkpt><trkpt lat="42.6186783" lon="-8.756055"><ele>138.0</ele><time>2026-04-17T11:26:57.906Z</time></trkpt><trkpt lat="42.618605" lon="-8.755995"><ele>138.0</ele><time>2026-04-17T11:26:58.907Z</time></trkpt><trkpt lat="42.61852" lon="-8.7559383"><ele>138.0</ele><time>2026-04-17T11:26:59.906Z</time></trkpt><trkpt lat="42.6184267" lon="-8.75588"><ele>138.0</ele><time>2026-04-17T11:27:00.906Z</time></trkpt><trkpt lat="42.6183317" lon="-8.7558183"><ele>137.4</ele><time>2026-04-17T11:27:01.906Z</time></trkpt><trkpt lat="42.6182383" lon="-8.7557517"><ele>136.8</ele><time>2026-04-17T11:27:02.907Z</time></trkpt><trkpt lat="42.61815" lon="-8.7556783"><ele>136.2</ele><time>2026-04-17T11:27:03.906Z</time></trkpt><trkpt lat="42.6180583" lon="-8.7556067"><ele>135.6</ele><time>2026-04-17T11:27:04.906Z</time></trkpt><trkpt lat="42.617965" lon="-8.7555317"><ele>135.0</ele><time>2026-04-17T11:27:05.906Z</time></trkpt><trkpt lat="42.6178783" lon="-8.75545"><ele>134.6</ele><time>2026-04-17T11:27:06.907Z</time></trkpt><trkpt lat="42.6178033" lon="-8.7553533"><ele>134.2</ele><time>2026-04-17T11:27:07.906Z</time></trkpt><trkpt lat="42.6177417" lon="-8.7552467"><ele>133.8</ele><time>2026-04-17T11:27:08.906Z</time></trkpt><trkpt lat="42.61769" lon="-8.75513"><ele>133.4</ele><time>2026-04-17T11:27:09.907Z</time></trkpt><trkpt lat="42.6176433" lon="-8.7550067"><ele>133.0</ele><time>2026-04-17T11:27:10.906Z</time></trkpt><trkpt lat="42.61759" lon="-8.754885"><ele>135.8</ele><time>2026-04-17T11:27:11.906Z</time></trkpt><trkpt lat="42.617535" lon="-8.7547633"><ele>138.60000000000002</ele><time>2026-04-17T11:27:12.906Z</time></trkpt><trkpt lat="42.6174783" lon="-8.7546383"><ele>141.39999999999998</ele><time>2026-04-17T11:27:13.907Z</time></trkpt><trkpt lat="42.6174233" lon="-8.7545117"><ele>144.2</ele><time>2026-04-17T11:27:14.906Z</time></trkpt><trkpt lat="42.6173733" lon="-8.754385"><ele>147.0</ele><time>2026-04-17T11:27:15.906Z</time></trkpt><trkpt lat="42.61733" lon="-8.7542633"><ele>148.6</ele><time>2026-04-17T11:27:16.907Z</time></trkpt><trkpt lat="42.6172983" lon="-8.7541367"><ele>150.2</ele><time>2026-04-17T11:27:17.907Z</time></trkpt><trkpt lat="42.617295" lon="-8.7540033"><ele>151.8</ele><time>2026-04-17T11:27:18.907Z</time></trkpt><trkpt lat="42.61731" lon="-8.753865"><ele>153.4</ele><time>2026-04-17T11:27:19.907Z</time></trkpt><trkpt lat="42.6173317" lon="-8.7537283"><ele>155.0</ele><time>2026-04-17T11:27:20.906Z</time></trkpt><trkpt lat="42.617345" lon="-8.7535883"><ele>155.8</ele><time>2026-04-17T11:27:21.907Z</time></trkpt><trkpt lat="42.6173367" lon="-8.753445"><ele>156.6</ele><time>2026-04-17T11:27:22.907Z</time></trkpt><trkpt lat="42.6172983" lon="-8.7533267"><ele>157.4</ele><time>2026-04-17T11:27:23.907Z</time></trkpt><trkpt lat="42.617255" lon="-8.7532067"><ele>158.2</ele><time>2026-04-17T11:27:24.906Z</time></trkpt><trkpt lat="42.6171933" lon="-8.7530983"><ele>159.0</ele><time>2026-04-17T11:27:25.906Z</time></trkpt><trkpt lat="42.6171167" lon="-8.7530117"><ele>159.0</ele><time>2026-04-17T11:27:26.907Z</time></trkpt><trkpt lat="42.6170383" lon="-8.7529483"><ele>159.0</ele><time>2026-04-17T11:27:27.906Z</time></trkpt><trkpt lat="42.6169517" lon="-8.7529033"><ele>159.0</ele><time>2026-04-17T11:27:28.907Z</time></trkpt><trkpt lat="42.616875" lon="-8.7528433"><ele>159.0</ele><time>2026-04-17T11:27:29.906Z</time></trkpt><trkpt lat="42.6167967" lon="-8.752775"><ele>159.0</ele><time>2026-04-17T11:27:30.906Z</time></trkpt><trkpt lat="42.616715" lon="-8.7527"><ele>159.0</ele><time>2026-04-17T11:27:31.906Z</time></trkpt><trkpt lat="42.616635" lon="-8.7526167"><ele>159.0</ele><time>2026-04-17T11:27:32.907Z</time></trkpt><trkpt lat="42.61656" lon="-8.7525217"><ele>159.0</ele><time>2026-04-17T11:27:33.906Z</time></trkpt><trkpt lat="42.61649" lon="-8.7524167"><ele>159.0</ele><time>2026-04-17T11:27:34.907Z</time></trkpt><trkpt lat="42.6164433" lon="-8.752295"><ele>159.0</ele><time>2026-04-17T11:27:35.906Z</time></trkpt><trkpt lat="42.616415" lon="-8.75216"><ele>159.0</ele><time>2026-04-17T11:27:36.906Z</time></trkpt><trkpt lat="42.6163933" lon="-8.752005"><ele>159.0</ele><time>2026-04-17T11:27:37.906Z</time></trkpt><trkpt lat="42.6163833" lon="-8.75186"><ele>159.0</ele><time>2026-04-17T11:27:38.906Z</time></trkpt><trkpt lat="42.6163733" lon="-8.7517217"><ele>159.0</ele><time>2026-04-17T11:27:39.906Z</time></trkpt><trkpt lat="42.61636" lon="-8.7515783"><ele>159.0</ele><time>2026-04-17T11:27:40.907Z</time></trkpt><trkpt lat="42.6163367" lon="-8.75144"><ele>159.8</ele><time>2026-04-17T11:27:41.907Z</time></trkpt><trkpt lat="42.616295" lon="-8.7513117"><ele>160.60000000000002</ele><time>2026-04-17T11:27:42.906Z</time></trkpt><trkpt lat="42.6162367" lon="-8.751205"><ele>161.4</ele><time>2026-04-17T11:27:43.907Z</time></trkpt><trkpt lat="42.6161683" lon="-8.75111"><ele>162.20000000000002</ele><time>2026-04-17T11:27:44.907Z</time></trkpt><trkpt lat="42.616085" lon="-8.7510167"><ele>163.0</ele><time>2026-04-17T11:27:45.907Z</time></trkpt><trkpt lat="42.6160133" lon="-8.750915"><ele>163.0</ele><time>2026-04-17T11:27:46.907Z</time></trkpt><trkpt lat="42.6159517" lon="-8.7508017"><ele>163.0</ele><time>2026-04-17T11:27:47.906Z</time></trkpt><trkpt lat="42.6159083" lon="-8.750675"><ele>163.0</ele><time>2026-04-17T11:27:48.906Z</time></trkpt><trkpt lat="42.615875" lon="-8.7505417"><ele>163.0</ele><time>2026-04-17T11:27:49.907Z</time></trkpt><trkpt lat="42.615845" lon="-8.7504033"><ele>163.0</ele><time>2026-04-17T11:27:50.907Z</time></trkpt><trkpt lat="42.6158217" lon="-8.7502567"><ele>165.2</ele><time>2026-04-17T11:27:51.907Z</time></trkpt><trkpt lat="42.6157967" lon="-8.7501017"><ele>167.4</ele><time>2026-04-17T11:27:52.906Z</time></trkpt><trkpt lat="42.6157717" lon="-8.7499583"><ele>169.6</ele><time>2026-04-17T11:27:53.907Z</time></trkpt><trkpt lat="42.6157433" lon="-8.749815"><ele>171.79999999999998</ele><time>2026-04-17T11:27:54.907Z</time></trkpt><trkpt lat="42.6157167" lon="-8.7496717"><ele>174.0</ele><time>2026-04-17T11:27:55.906Z</time></trkpt><trkpt lat="42.6156933" lon="-8.74952"><ele>174.0</ele><time>2026-04-17T11:27:56.906Z</time></trkpt><trkpt lat="42.6156617" lon="-8.7493783"><ele>174.0</ele><time>2026-04-17T11:27:57.906Z</time></trkpt><trkpt lat="42.61563" lon="-8.74924"><ele>174.0</ele><time>2026-04-17T11:27:58.906Z</time></trkpt><trkpt lat="42.6155933" lon="-8.7490983"><ele>174.0</ele><time>2026-04-17T11:27:59.907Z</time></trkpt><trkpt lat="42.615555" lon="-8.7489567"><ele>174.0</ele><time>2026-04-17T11:28:00.906Z</time></trkpt><trkpt lat="42.615525" lon="-8.7488067"><ele>176.0</ele><time>2026-04-17T11:28:01.906Z</time></trkpt><trkpt lat="42.6155133" lon="-8.748655"><ele>178.0</ele><time>2026-04-17T11:28:02.907Z</time></trkpt><trkpt lat="42.61553" lon="-8.7485083"><ele>180.0</ele><time>2026-04-17T11:28:03.907Z</time></trkpt><trkpt lat="42.615565" lon="-8.7483733"><ele>182.0</ele><time>2026-04-17T11:28:04.906Z</time></trkpt><trkpt lat="42.6156167" lon="-8.7482567"><ele>184.0</ele><time>2026-04-17T11:28:05.907Z</time></trkpt><trkpt lat="42.615665" lon="-8.748145"><ele>185.39999999999998</ele><time>2026-04-17T11:28:06.907Z</time></trkpt><trkpt lat="42.615725" lon="-8.74802"><ele>186.8</ele><time>2026-04-17T11:28:07.906Z</time></trkpt><trkpt lat="42.6157817" lon="-8.7478883"><ele>188.2</ele><time>2026-04-17T11:28:08.906Z</time></trkpt><trkpt lat="42.6158217" lon="-8.747765"><ele>189.60000000000002</ele><time>2026-04-17T11:28:09.907Z</time></trkpt><trkpt lat="42.6158383" lon="-8.7476333"><ele>191.0</ele><time>2026-04-17T11:28:10.906Z</time></trkpt><trkpt lat="42.6158217" lon="-8.747495"><ele>192.0</ele><time>2026-04-17T11:28:11.906Z</time></trkpt><trkpt lat="42.61579" lon="-8.74735"><ele>193.0</ele><time>2026-04-17T11:28:12.907Z</time></trkpt><trkpt lat="42.615745" lon="-8.74722"><ele>194.0</ele><time>2026-04-17T11:28:13.907Z</time></trkpt><trkpt lat="42.6156817" lon="-8.747105"><ele>195.0</ele><time>2026-04-17T11:28:14.906Z</time></trkpt><trkpt lat="42.6155933" lon="-8.7470117"><ele>196.0</ele><time>2026-04-17T11:28:15.907Z</time></trkpt><trkpt lat="42.6155" lon="-8.7469217"><ele>194.5</ele><time>2026-04-17T11:28:16.907Z</time></trkpt><trkpt lat="42.61541" lon="-8.7468217"><ele>193.0</ele><time>2026-04-17T11:28:17.906Z</time></trkpt><trkpt lat="42.6153133" lon="-8.746725"><ele>191.5</ele><time>2026-04-17T11:28:18.906Z</time></trkpt><trkpt lat="42.6152433" lon="-8.7466033"><ele>190.0</ele><time>2026-04-17T11:28:19.906Z</time></trkpt><trkpt lat="42.6151733" lon="-8.7464767"><ele>190.0</ele><time>2026-04-17T11:28:20.907Z</time></trkpt><trkpt lat="42.6151067" lon="-8.74635"><ele>190.0</ele><time>2026-04-17T11:28:21.906Z</time></trkpt><trkpt lat="42.6150333" lon="-8.7462217"><ele>190.0</ele><time>2026-04-17T11:28:22.907Z</time></trkpt><trkpt lat="42.6149617" lon="-8.7460967"><ele>190.0</ele><time>2026-04-17T11:28:23.906Z</time></trkpt><trkpt lat="42.614895" lon="-8.7459733"><ele>192.8</ele><time>2026-04-17T11:28:24.906Z</time></trkpt><trkpt lat="42.6148333" lon="-8.7458433"><ele>195.6</ele><time>2026-04-17T11:28:25.906Z</time></trkpt><trkpt lat="42.6147883" lon="-8.7457017"><ele>198.39999999999998</ele><time>2026-04-17T11:28:26.907Z</time></trkpt><trkpt lat="42.6147683" lon="-8.7455533"><ele>201.2</ele><time>2026-04-17T11:28:27.907Z</time></trkpt><trkpt lat="42.61477" lon="-8.7454133"><ele>204.0</ele><time>2026-04-17T11:28:28.906Z</time></trkpt><trkpt lat="42.61479" lon="-8.7452733"><ele>205.79999999999998</ele><time>2026-04-17T11:28:29.907Z</time></trkpt><trkpt lat="42.6148067" lon="-8.74514"><ele>207.6</ele><time>2026-04-17T11:28:30.907Z</time></trkpt><trkpt lat="42.6148067" lon="-8.7450283"><ele>209.4</ele><time>2026-04-17T11:28:31.906Z</time></trkpt><trkpt lat="42.6148317" lon="-8.7448767"><ele>211.2</ele><time>2026-04-17T11:28:32.906Z</time></trkpt><trkpt lat="42.6148883" lon="-8.7446933"><ele>213.0</ele><time>2026-04-17T11:28:33.906Z</time></trkpt><trkpt lat="42.6149567" lon="-8.7445167"><ele>213.2</ele><time>2026-04-17T11:28:34.907Z</time></trkpt><trkpt lat="42.61503" lon="-8.7443533"><ele>213.4</ele><time>2026-04-17T11:28:35.906Z</time></trkpt><trkpt lat="42.6150883" lon="-8.744195"><ele>213.59999999999997</ele><time>2026-04-17T11:28:36.906Z</time></trkpt><trkpt lat="42.6151117" lon="-8.7440633"><ele>213.79999999999998</ele><time>2026-04-17T11:28:37.907Z</time></trkpt><trkpt lat="42.6151283" lon="-8.74396"><ele>214.0</ele><time>2026-04-17T11:28:38.907Z</time></trkpt><trkpt lat="42.6152017" lon="-8.7439117"><ele>214.0</ele><time>2026-04-17T11:28:41.907Z</time></trkpt><trkpt lat="42.6152367" lon="-8.7440467"><ele>213.99999999999997</ele><time>2026-04-17T11:28:43.906Z</time></trkpt><trkpt lat="42.6152383" lon="-8.74416"><ele>213.99999999999997</ele><time>2026-04-17T11:28:44.906Z</time></trkpt><trkpt lat="42.6152383" lon="-8.7442833"><ele>214.0</ele><time>2026-04-17T11:28:45.906Z</time></trkpt><trkpt lat="42.6152367" lon="-8.7444317"><ele>214.0</ele><time>2026-04-17T11:28:46.907Z</time></trkpt><trkpt lat="42.6152567" lon="-8.7446317"><ele>213.66666666666666</ele><time>2026-04-17T11:28:47.906Z</time></trkpt><trkpt lat="42.6152967" lon="-8.7448317"><ele>213.33333333333331</ele><time>2026-04-17T11:28:48.907Z</time></trkpt><trkpt lat="42.61535" lon="-8.7450233"><ele>213.0</ele><time>2026-04-17T11:28:49.907Z</time></trkpt><trkpt lat="42.61545" lon="-8.7451883"><ele>215.66666666666669</ele><time>2026-04-17T11:28:50.906Z</time></trkpt><trkpt lat="42.61557" lon="-8.7453517"><ele>218.33333333333334</ele><time>2026-04-17T11:28:51.906Z</time></trkpt><trkpt lat="42.6157217" lon="-8.7455067"><ele>221.0</ele><time>2026-04-17T11:28:52.906Z</time></trkpt><trkpt lat="42.61589" lon="-8.7456717"><ele>221.0</ele><time>2026-04-17T11:28:53.906Z</time></trkpt><trkpt lat="42.6160817" lon="-8.7457983"><ele>221.0</ele><time>2026-04-17T11:28:54.907Z</time></trkpt><trkpt lat="42.616275" lon="-8.745905"><ele>221.0</ele><time>2026-04-17T11:28:55.907Z</time></trkpt><trkpt lat="42.6164767" lon="-8.7459933"><ele>222.0</ele><time>2026-04-17T11:28:56.906Z</time></trkpt><trkpt lat="42.6166733" lon="-8.7460717"><ele>223.0</ele><time>2026-04-17T11:28:57.906Z</time></trkpt><trkpt lat="42.6168433" lon="-8.746155"><ele>224.0</ele><time>2026-04-17T11:28:58.906Z</time></trkpt><trkpt lat="42.6169783" lon="-8.7462417"><ele>227.5</ele><time>2026-04-17T11:28:59.906Z</time></trkpt><trkpt lat="42.6170883" lon="-8.74633"><ele>231.0</ele><time>2026-04-17T11:29:00.907Z</time></trkpt><trkpt lat="42.6171733" lon="-8.746465"><ele>234.5</ele><time>2026-04-17T11:29:01.906Z</time></trkpt><trkpt lat="42.6172533" lon="-8.7466333"><ele>238.0</ele><time>2026-04-17T11:29:02.906Z</time></trkpt><trkpt lat="42.6173317" lon="-8.74683"><ele>236.0</ele><time>2026-04-17T11:29:03.907Z</time></trkpt><trkpt lat="42.6174083" lon="-8.7470033"><ele>234.0</ele><time>2026-04-17T11:29:04.907Z</time></trkpt><trkpt lat="42.6175067" lon="-8.7471417"><ele>232.0</ele><time>2026-04-17T11:29:05.906Z</time></trkpt><trkpt lat="42.6176383" lon="-8.74723"><ele>230.0</ele><time>2026-04-17T11:29:06.907Z</time></trkpt><trkpt lat="42.617785" lon="-8.7473033"><ele>234.33333333333334</ele><time>2026-04-17T11:29:07.907Z</time></trkpt><trkpt lat="42.6179567" lon="-8.7473333"><ele>238.66666666666669</ele><time>2026-04-17T11:29:08.906Z</time></trkpt><trkpt lat="42.6181583" lon="-8.74736"><ele>243.0</ele><time>2026-04-17T11:29:09.906Z</time></trkpt><trkpt lat="42.6183583" lon="-8.74738"><ele>243.0</ele><time>2026-04-17T11:29:10.906Z</time></trkpt><trkpt lat="42.6185383" lon="-8.7473917"><ele>243.0</ele><time>2026-04-17T11:29:11.907Z</time></trkpt><trkpt lat="42.6186883" lon="-8.747395"><ele>243.0</ele><time>2026-04-17T11:29:12.906Z</time></trkpt><trkpt lat="42.6188033" lon="-8.7473817"><ele>243.0</ele><time>2026-04-17T11:29:13.906Z</time></trkpt><trkpt lat="42.6189117" lon="-8.7473367"><ele>242.5</ele><time>2026-04-17T11:29:14.906Z</time></trkpt><trkpt lat="42.619025" lon="-8.747265"><ele>242.0</ele><time>2026-04-17T11:29:15.907Z</time></trkpt><trkpt lat="42.619145" lon="-8.7471517"><ele>241.5</ele><time>2026-04-17T11:29:16.907Z</time></trkpt><trkpt lat="42.61928" lon="-8.7470517"><ele>241.0</ele><time>2026-04-17T11:29:17.906Z</time></trkpt><trkpt lat="42.6194333" lon="-8.746955"><ele>244.0</ele><time>2026-04-17T11:29:18.907Z</time></trkpt><trkpt lat="42.61962" lon="-8.7468633"><ele>247.0</ele><time>2026-04-17T11:29:19.907Z</time></trkpt><trkpt lat="42.619815" lon="-8.74679"><ele>250.0</ele><time>2026-04-17T11:29:20.906Z</time></trkpt><trkpt lat="42.6200217" lon="-8.7467333"><ele>250.0</ele><time>2026-04-17T11:29:21.907Z</time></trkpt><trkpt lat="42.6202117" lon="-8.7467133"><ele>250.0</ele><time>2026-04-17T11:29:22.907Z</time></trkpt><trkpt lat="42.6203983" lon="-8.74668"><ele>250.0</ele><time>2026-04-17T11:29:23.907Z</time></trkpt><trkpt lat="42.620575" lon="-8.74664"><ele>249.33333333333331</ele><time>2026-04-17T11:29:24.907Z</time></trkpt><trkpt lat="42.6207283" lon="-8.7465833"><ele>248.66666666666669</ele><time>2026-04-17T11:29:25.906Z</time></trkpt><trkpt lat="42.62088" lon="-8.74652"><ele>248.0</ele><time>2026-04-17T11:29:26.906Z</time></trkpt><trkpt lat="42.6210117" lon="-8.7464483"><ele>248.0</ele><time>2026-04-17T11:29:27.907Z</time></trkpt><trkpt lat="42.6211467" lon="-8.74637"><ele>248.0</ele><time>2026-04-17T11:29:28.906Z</time></trkpt><trkpt lat="42.6212733" lon="-8.7462733"><ele>248.0</ele><time>2026-04-17T11:29:29.906Z</time></trkpt><trkpt lat="42.6213817" lon="-8.74618"><ele>248.0</ele><time>2026-04-17T11:29:30.906Z</time></trkpt><trkpt lat="42.6214733" lon="-8.7460867"><ele>250.75</ele><time>2026-04-17T11:29:31.906Z</time></trkpt><trkpt lat="42.6215367" lon="-8.7459867"><ele>253.5</ele><time>2026-04-17T11:29:32.906Z</time></trkpt><trkpt lat="42.621595" lon="-8.7458467"><ele>256.25</ele><time>2026-04-17T11:29:33.906Z</time></trkpt><trkpt lat="42.6216567" lon="-8.7456567"><ele>259.0</ele><time>2026-04-17T11:29:34.906Z</time></trkpt><trkpt lat="42.621725" lon="-8.745435"><ele>262.3333333333333</ele><time>2026-04-17T11:29:35.907Z</time></trkpt><trkpt lat="42.6218183" lon="-8.745175"><ele>265.6666666666667</ele><time>2026-04-17T11:29:36.906Z</time></trkpt><trkpt lat="42.6219167" lon="-8.7449033"><ele>269.0</ele><time>2026-04-17T11:29:37.906Z</time></trkpt><trkpt lat="42.6220133" lon="-8.744665"><ele>268.6666666666667</ele><time>2026-04-17T11:29:38.906Z</time></trkpt><trkpt lat="42.62212" lon="-8.7444583"><ele>268.3333333333333</ele><time>2026-04-17T11:29:39.906Z</time></trkpt><trkpt lat="42.6222517" lon="-8.74427"><ele>268.0</ele><time>2026-04-17T11:29:40.906Z</time></trkpt><trkpt lat="42.6224283" lon="-8.7440683"><ele>268.0</ele><time>2026-04-17T11:29:41.907Z</time></trkpt><trkpt lat="42.6226283" lon="-8.7438583"><ele>268.0</ele><time>2026-04-17T11:29:42.906Z</time></trkpt><trkpt lat="42.62284" lon="-8.7436617"><ele>267.66666666666663</ele><time>2026-04-17T11:29:43.907Z</time></trkpt><trkpt lat="42.6230083" lon="-8.7434917"><ele>267.3333333333333</ele><time>2026-04-17T11:29:44.906Z</time></trkpt><trkpt lat="42.62314" lon="-8.7433283"><ele>267.0</ele><time>2026-04-17T11:29:45.906Z</time></trkpt><trkpt lat="42.6232533" lon="-8.74316"><ele>267.0</ele><time>2026-04-17T11:29:46.907Z</time></trkpt><trkpt lat="42.6233683" lon="-8.7429433"><ele>267.0</ele><time>2026-04-17T11:29:47.906Z</time></trkpt><trkpt lat="42.6234883" lon="-8.7427083"><ele>267.0</ele><time>2026-04-17T11:29:48.906Z</time></trkpt><trkpt lat="42.6236183" lon="-8.742525"><ele>265.6666666666667</ele><time>2026-04-17T11:29:49.906Z</time></trkpt><trkpt lat="42.6237683" lon="-8.742345"><ele>264.33333333333337</ele><time>2026-04-17T11:29:50.906Z</time></trkpt><trkpt lat="42.6239367" lon="-8.7422083"><ele>263.0</ele><time>2026-04-17T11:29:51.906Z</time></trkpt><trkpt lat="42.6241033" lon="-8.7420967"><ele>263.0</ele><time>2026-04-17T11:29:52.906Z</time></trkpt><trkpt lat="42.6242583" lon="-8.7419967"><ele>263.0</ele><time>2026-04-17T11:29:53.907Z</time></trkpt><trkpt lat="42.6243833" lon="-8.7418917"><ele>263.0</ele><time>2026-04-17T11:29:54.906Z</time></trkpt><trkpt lat="42.6244883" lon="-8.74178"><ele>262.6</ele><time>2026-04-17T11:29:55.907Z</time></trkpt><trkpt lat="42.6245683" lon="-8.7416633"><ele>262.20000000000005</ele><time>2026-04-17T11:29:56.907Z</time></trkpt><trkpt lat="42.6246283" lon="-8.7415733"><ele>261.8</ele><time>2026-04-17T11:29:57.907Z</time></trkpt><trkpt lat="42.6246667" lon="-8.7414883"><ele>261.40000000000003</ele><time>2026-04-17T11:29:58.906Z</time></trkpt><trkpt lat="42.6247083" lon="-8.7413917"><ele>261.0</ele><time>2026-04-17T11:29:59.907Z</time></trkpt><trkpt lat="42.62476" lon="-8.7412917"><ele>261.0</ele><time>2026-04-17T11:30:00.907Z</time></trkpt><trkpt lat="42.6248283" lon="-8.7411883"><ele>261.0</ele><time>2026-04-17T11:30:01.906Z</time></trkpt><trkpt lat="42.6249183" lon="-8.7411017"><ele>261.0</ele><time>2026-04-17T11:30:02.907Z</time></trkpt><trkpt lat="42.6250233" lon="-8.7410267"><ele>261.0</ele><time>2026-04-17T11:30:03.906Z</time></trkpt><trkpt lat="42.6251333" lon="-8.7409817"><ele>261.0</ele><time>2026-04-17T11:30:04.907Z</time></trkpt><trkpt lat="42.62526" lon="-8.7409367"><ele>261.25</ele><time>2026-04-17T11:30:05.907Z</time></trkpt><trkpt lat="42.6253833" lon="-8.740895"><ele>261.5</ele><time>2026-04-17T11:30:06.906Z</time></trkpt><trkpt lat="42.6255067" lon="-8.7408183"><ele>261.75</ele><time>2026-04-17T11:30:07.906Z</time></trkpt><trkpt lat="42.6256317" lon="-8.74071"><ele>262.0</ele><time>2026-04-17T11:30:08.907Z</time></trkpt><trkpt lat="42.625755" lon="-8.7405583"><ele>262.0</ele><time>2026-04-17T11:30:09.906Z</time></trkpt><trkpt lat="42.6258767" lon="-8.740375"><ele>262.0</ele><time>2026-04-17T11:30:10.907Z</time></trkpt><trkpt lat="42.6259933" lon="-8.7401517"><ele>262.0</ele><time>2026-04-17T11:30:11.907Z</time></trkpt><trkpt lat="42.626095" lon="-8.739905"><ele>261.66666666666663</ele><time>2026-04-17T11:30:12.907Z</time></trkpt><trkpt lat="42.62618" lon="-8.739665"><ele>261.3333333333333</ele><time>2026-04-17T11:30:13.906Z</time></trkpt><trkpt lat="42.62624" lon="-8.7394367"><ele>261.0</ele><time>2026-04-17T11:30:14.906Z</time></trkpt><trkpt lat="42.6262783" lon="-8.7392017"><ele>261.0</ele><time>2026-04-17T11:30:15.907Z</time></trkpt><trkpt lat="42.6263" lon="-8.7389417"><ele>261.0</ele><time>2026-04-17T11:30:16.907Z</time></trkpt><trkpt lat="42.6263133" lon="-8.738645"><ele>261.0</ele><time>2026-04-17T11:30:17.906Z</time></trkpt><trkpt lat="42.62631" lon="-8.7383583"><ele>260.6666666666667</ele><time>2026-04-17T11:30:18.907Z</time></trkpt><trkpt lat="42.6262933" lon="-8.7380867"><ele>260.33333333333337</ele><time>2026-04-17T11:30:19.907Z</time></trkpt><trkpt lat="42.6262633" lon="-8.7378433"><ele>260.0</ele><time>2026-04-17T11:30:20.906Z</time></trkpt><trkpt lat="42.6262233" lon="-8.73759"><ele>267.6666666666667</ele><time>2026-04-17T11:30:21.906Z</time></trkpt><trkpt lat="42.62614" lon="-8.73735"><ele>275.3333333333333</ele><time>2026-04-17T11:30:22.906Z</time></trkpt><trkpt lat="42.626045" lon="-8.7370917"><ele>283.0</ele><time>2026-04-17T11:30:23.906Z</time></trkpt><trkpt lat="42.6259333" lon="-8.7368433"><ele>283.0</ele><time>2026-04-17T11:30:24.906Z</time></trkpt><trkpt lat="42.6258183" lon="-8.7366267"><ele>283.0</ele><time>2026-04-17T11:30:25.906Z</time></trkpt><trkpt lat="42.6256933" lon="-8.736445"><ele>283.0</ele><time>2026-04-17T11:30:26.906Z</time></trkpt><trkpt lat="42.6255783" lon="-8.736305"><ele>283.0</ele><time>2026-04-17T11:30:27.907Z</time></trkpt><trkpt lat="42.6254783" lon="-8.7361933"><ele>283.0</ele><time>2026-04-17T11:30:28.907Z</time></trkpt><trkpt lat="42.6254033" lon="-8.73608"><ele>283.0</ele><time>2026-04-17T11:30:29.907Z</time></trkpt><trkpt lat="42.62536" lon="-8.7359367"><ele>283.0</ele><time>2026-04-17T11:30:30.906Z</time></trkpt><trkpt lat="42.625325" lon="-8.7357583"><ele>288.0</ele><time>2026-04-17T11:30:31.907Z</time></trkpt><trkpt lat="42.6252917" lon="-8.73555"><ele>293.0</ele><time>2026-04-17T11:30:32.907Z</time></trkpt><trkpt lat="42.6252417" lon="-8.73532"><ele>298.0</ele><time>2026-04-17T11:30:33.906Z</time></trkpt><trkpt lat="42.6251667" lon="-8.73509"><ele>298.0</ele><time>2026-04-17T11:30:34.907Z</time></trkpt><trkpt lat="42.6250583" lon="-8.7348633"><ele>298.0</ele><time>2026-04-17T11:30:35.907Z</time></trkpt><trkpt lat="42.6249217" lon="-8.734635"><ele>298.0</ele><time>2026-04-17T11:30:36.906Z</time></trkpt><trkpt lat="42.6247567" lon="-8.7344167"><ele>292.5</ele><time>2026-04-17T11:30:37.906Z</time></trkpt><trkpt lat="42.6245733" lon="-8.7341967"><ele>287.0</ele><time>2026-04-17T11:30:38.907Z</time></trkpt><trkpt lat="42.624395" lon="-8.733985"><ele>290.33333333333337</ele><time>2026-04-17T11:30:39.907Z</time></trkpt><trkpt lat="42.62423" lon="-8.73379"><ele>293.6666666666667</ele><time>2026-04-17T11:30:40.906Z</time></trkpt><trkpt lat="42.62408" lon="-8.7336183"><ele>297.0</ele><time>2026-04-17T11:30:41.906Z</time></trkpt><trkpt lat="42.6239583" lon="-8.73346"><ele>297.0</ele><time>2026-04-17T11:30:42.907Z</time></trkpt><trkpt lat="42.6238733" lon="-8.7332933"><ele>297.0</ele><time>2026-04-17T11:30:43.907Z</time></trkpt><trkpt lat="42.6238167" lon="-8.7331167"><ele>297.0</ele><time>2026-04-17T11:30:44.907Z</time></trkpt><trkpt lat="42.6237967" lon="-8.73293"><ele>297.0</ele><time>2026-04-17T11:30:45.907Z</time></trkpt><trkpt lat="42.623815" lon="-8.73272"><ele>296.3333333333333</ele><time>2026-04-17T11:30:46.906Z</time></trkpt><trkpt lat="42.623865" lon="-8.7325017"><ele>295.66666666666663</ele><time>2026-04-17T11:30:47.907Z</time></trkpt><trkpt lat="42.62393" lon="-8.7322567"><ele>295.0</ele><time>2026-04-17T11:30:48.907Z</time></trkpt><trkpt lat="42.6239933" lon="-8.7319933"><ele>297.3333333333333</ele><time>2026-04-17T11:30:49.906Z</time></trkpt><trkpt lat="42.6240517" lon="-8.7316983"><ele>299.6666666666667</ele><time>2026-04-17T11:30:50.906Z</time></trkpt><trkpt lat="42.6240917" lon="-8.731405"><ele>302.0</ele><time>2026-04-17T11:30:51.907Z</time></trkpt><trkpt lat="42.624135" lon="-8.73114"><ele>305.6666666666667</ele><time>2026-04-17T11:30:52.906Z</time></trkpt><trkpt lat="42.62419" lon="-8.7309267"><ele>309.3333333333333</ele><time>2026-04-17T11:30:53.906Z</time></trkpt><trkpt lat="42.6242633" lon="-8.7307483"><ele>313.0</ele><time>2026-04-17T11:30:54.907Z</time></trkpt><trkpt lat="42.6243667" lon="-8.730605"><ele>305.3333333333333</ele><time>2026-04-17T11:30:55.907Z</time></trkpt><trkpt lat="42.62449" lon="-8.73049"><ele>297.6666666666667</ele><time>2026-04-17T11:30:56.906Z</time></trkpt><trkpt lat="42.6246533" lon="-8.730435"><ele>290.0</ele><time>2026-04-17T11:30:57.907Z</time></trkpt><trkpt lat="42.6248167" lon="-8.7304"><ele>290.0</ele><time>2026-04-17T11:30:58.907Z</time></trkpt><trkpt lat="42.6249917" lon="-8.7303533"><ele>290.0</ele><time>2026-04-17T11:30:59.906Z</time></trkpt><trkpt lat="42.6251783" lon="-8.7302967"><ele>290.0</ele><time>2026-04-17T11:31:00.907Z</time></trkpt><trkpt lat="42.6253633" lon="-8.7302333"><ele>295.6666666666667</ele><time>2026-04-17T11:31:01.907Z</time></trkpt><trkpt lat="42.6255533" lon="-8.73017"><ele>301.3333333333333</ele><time>2026-04-17T11:31:02.906Z</time></trkpt><trkpt lat="42.6257317" lon="-8.7301033"><ele>307.0</ele><time>2026-04-17T11:31:03.906Z</time></trkpt><trkpt lat="42.6258967" lon="-8.7300617"><ele>307.0</ele><time>2026-04-17T11:31:04.907Z</time></trkpt><trkpt lat="42.6260667" lon="-8.7300683"><ele>307.0</ele><time>2026-04-17T11:31:05.906Z</time></trkpt><trkpt lat="42.626245" lon="-8.7300983"><ele>307.0</ele><time>2026-04-17T11:31:06.906Z</time></trkpt><trkpt lat="42.6264317" lon="-8.7301583"><ele>306.3333333333333</ele><time>2026-04-17T11:31:07.907Z</time></trkpt><trkpt lat="42.6266133" lon="-8.7302033"><ele>305.6666666666667</ele><time>2026-04-17T11:31:08.906Z</time></trkpt><trkpt lat="42.6267867" lon="-8.7302333"><ele>305.0</ele><time>2026-04-17T11:31:09.907Z</time></trkpt><trkpt lat="42.6269667" lon="-8.7302117"><ele>304.33333333333337</ele><time>2026-04-17T11:31:10.906Z</time></trkpt><trkpt lat="42.6271417" lon="-8.7301617"><ele>303.6666666666667</ele><time>2026-04-17T11:31:11.906Z</time></trkpt><trkpt lat="42.6273083" lon="-8.730095"><ele>303.0</ele><time>2026-04-17T11:31:12.906Z</time></trkpt><trkpt lat="42.62747" lon="-8.73"><ele>303.0</ele><time>2026-04-17T11:31:13.906Z</time></trkpt><trkpt lat="42.6276333" lon="-8.72987"><ele>303.0</ele><time>2026-04-17T11:31:14.907Z</time></trkpt><trkpt lat="42.6278067" lon="-8.7297083"><ele>303.0</ele><time>2026-04-17T11:31:15.907Z</time></trkpt><trkpt lat="42.6279783" lon="-8.7295267"><ele>305.3333333333333</ele><time>2026-04-17T11:31:16.906Z</time></trkpt><trkpt lat="42.6281317" lon="-8.7293867"><ele>307.66666666666663</ele><time>2026-04-17T11:31:17.906Z</time></trkpt><trkpt lat="42.628265" lon="-8.729295"><ele>310.0</ele><time>2026-04-17T11:31:18.906Z</time></trkpt><trkpt lat="42.6284033" lon="-8.7292367"><ele>310.0</ele><time>2026-04-17T11:31:19.906Z</time></trkpt><trkpt lat="42.628555" lon="-8.72922"><ele>310.0</ele><time>2026-04-17T11:31:20.907Z</time></trkpt><trkpt lat="42.6287383" lon="-8.7292167"><ele>310.0</ele><time>2026-04-17T11:31:21.907Z</time></trkpt><trkpt lat="42.6289417" lon="-8.7292"><ele>307.5</ele><time>2026-04-17T11:31:22.907Z</time></trkpt><trkpt lat="42.6291633" lon="-8.7291717"><ele>305.0</ele><time>2026-04-17T11:31:23.906Z</time></trkpt><trkpt lat="42.6294117" lon="-8.7291133"><ele>303.0</ele><time>2026-04-17T11:31:24.906Z</time></trkpt><trkpt lat="42.6296717" lon="-8.7290367"><ele>301.0</ele><time>2026-04-17T11:31:25.907Z</time></trkpt><trkpt lat="42.6299167" lon="-8.7289733"><ele>301.0</ele><time>2026-04-17T11:31:26.907Z</time></trkpt><trkpt lat="42.6301133" lon="-8.7289183"><ele>301.0</ele><time>2026-04-17T11:31:27.906Z</time></trkpt><trkpt lat="42.630275" lon="-8.7288533"><ele>301.0</ele><time>2026-04-17T11:31:28.907Z</time></trkpt><trkpt lat="42.630425" lon="-8.72877"><ele>299.0</ele><time>2026-04-17T11:31:29.907Z</time></trkpt><trkpt lat="42.6305783" lon="-8.728635"><ele>297.0</ele><time>2026-04-17T11:31:30.906Z</time></trkpt><trkpt lat="42.6307233" lon="-8.7284717"><ele>295.0</ele><time>2026-04-17T11:31:31.906Z</time></trkpt><trkpt lat="42.630865" lon="-8.7282833"><ele>297.0</ele><time>2026-04-17T11:31:32.906Z</time></trkpt><trkpt lat="42.6309933" lon="-8.72809"><ele>299.0</ele><time>2026-04-17T11:31:33.906Z</time></trkpt><trkpt lat="42.6310817" lon="-8.7279083"><ele>301.0</ele><time>2026-04-17T11:31:34.906Z</time></trkpt><trkpt lat="42.6311417" lon="-8.7277133"><ele>301.0</ele><time>2026-04-17T11:31:35.907Z</time></trkpt><trkpt lat="42.631185" lon="-8.7275"><ele>301.0</ele><time>2026-04-17T11:31:36.906Z</time></trkpt><trkpt lat="42.6312117" lon="-8.7272567"><ele>301.0</ele><time>2026-04-17T11:31:37.907Z</time></trkpt><trkpt lat="42.6312083" lon="-8.7270167"><ele>302.0</ele><time>2026-04-17T11:31:38.907Z</time></trkpt><trkpt lat="42.63119" lon="-8.7267533"><ele>303.0</ele><time>2026-04-17T11:31:39.907Z</time></trkpt><trkpt lat="42.6311517" lon="-8.7264767"><ele>304.0</ele><time>2026-04-17T11:31:40.906Z</time></trkpt><trkpt lat="42.6311083" lon="-8.7262017"><ele>316.0</ele><time>2026-04-17T11:31:41.907Z</time></trkpt><trkpt lat="42.6310583" lon="-8.7259817"><ele>328.0</ele><time>2026-04-17T11:31:42.907Z</time></trkpt><trkpt lat="42.6309933" lon="-8.7258017"><ele>340.0</ele><time>2026-04-17T11:31:43.906Z</time></trkpt><trkpt lat="42.6308933" lon="-8.725645"><ele>340.0</ele><time>2026-04-17T11:31:44.906Z</time></trkpt><trkpt lat="42.630775" lon="-8.7254633"><ele>340.0</ele><time>2026-04-17T11:31:45.906Z</time></trkpt><trkpt lat="42.6306617" lon="-8.7252667"><ele>340.0</ele><time>2026-04-17T11:31:46.906Z</time></trkpt><trkpt lat="42.63056" lon="-8.7251117"><ele>337.66666666666663</ele><time>2026-04-17T11:31:47.906Z</time></trkpt><trkpt lat="42.6304517" lon="-8.7249917"><ele>335.3333333333333</ele><time>2026-04-17T11:31:48.906Z</time></trkpt><trkpt lat="42.63031" lon="-8.7248917"><ele>333.0</ele><time>2026-04-17T11:31:49.906Z</time></trkpt><trkpt lat="42.6301617" lon="-8.7247567"><ele>334.3333333333333</ele><time>2026-04-17T11:31:50.907Z</time></trkpt><trkpt lat="42.630005" lon="-8.7245817"><ele>335.66666666666663</ele><time>2026-04-17T11:31:51.906Z</time></trkpt><trkpt lat="42.6298383" lon="-8.7243817"><ele>337.0</ele><time>2026-04-17T11:31:52.906Z</time></trkpt><trkpt lat="42.629695" lon="-8.7241567"><ele>337.0</ele><time>2026-04-17T11:31:53.906Z</time></trkpt><trkpt lat="42.6295967" lon="-8.7239533"><ele>337.0</ele><time>2026-04-17T11:31:54.906Z</time></trkpt><trkpt lat="42.62953" lon="-8.723765"><ele>337.0</ele><time>2026-04-17T11:31:55.907Z</time></trkpt><trkpt lat="42.6294867" lon="-8.723595"><ele>345.0</ele><time>2026-04-17T11:31:56.907Z</time></trkpt><trkpt lat="42.6294633" lon="-8.723405"><ele>353.0</ele><time>2026-04-17T11:31:57.907Z</time></trkpt><trkpt lat="42.6294583" lon="-8.7231817"><ele>361.0</ele><time>2026-04-17T11:31:58.907Z</time></trkpt><trkpt lat="42.6294417" lon="-8.722915"><ele>362.0</ele><time>2026-04-17T11:31:59.907Z</time></trkpt><trkpt lat="42.6294217" lon="-8.7226217"><ele>363.0</ele><time>2026-04-17T11:32:00.907Z</time></trkpt><trkpt lat="42.6294" lon="-8.7223233"><ele>364.0</ele><time>2026-04-17T11:32:01.906Z</time></trkpt><trkpt lat="42.629385" lon="-8.722035"><ele>365.0</ele><time>2026-04-17T11:32:02.907Z</time></trkpt><trkpt lat="42.629375" lon="-8.72175"><ele>366.0</ele><time>2026-04-17T11:32:03.906Z</time></trkpt><trkpt lat="42.6293767" lon="-8.72147"><ele>367.0</ele><time>2026-04-17T11:32:04.906Z</time></trkpt><trkpt lat="42.6293983" lon="-8.7211867"><ele>369.0</ele><time>2026-04-17T11:32:05.907Z</time></trkpt><trkpt lat="42.6294367" lon="-8.720915"><ele>371.0</ele><time>2026-04-17T11:32:06.906Z</time></trkpt><trkpt lat="42.6294817" lon="-8.720665"><ele>373.0</ele><time>2026-04-17T11:32:07.906Z</time></trkpt><trkpt lat="42.62953" lon="-8.720405"><ele>366.66666666666663</ele><time>2026-04-17T11:32:08.906Z</time></trkpt><trkpt lat="42.629575" lon="-8.7201333"><ele>360.3333333333333</ele><time>2026-04-17T11:32:09.906Z</time></trkpt><trkpt lat="42.6295983" lon="-8.7198767"><ele>354.0</ele><time>2026-04-17T11:32:10.906Z</time></trkpt><trkpt lat="42.629635" lon="-8.7196167"><ele>354.6666666666667</ele><time>2026-04-17T11:32:11.906Z</time></trkpt><trkpt lat="42.6296717" lon="-8.7193917"><ele>355.33333333333337</ele><time>2026-04-17T11:32:12.906Z</time></trkpt><trkpt lat="42.6296983" lon="-8.7191933"><ele>356.0</ele><time>2026-04-17T11:32:13.906Z</time></trkpt><trkpt lat="42.6297067" lon="-8.718995"><ele>356.0</ele><time>2026-04-17T11:32:14.907Z</time></trkpt><trkpt lat="42.629695" lon="-8.7187767"><ele>356.0</ele><time>2026-04-17T11:32:15.907Z</time></trkpt><trkpt lat="42.6296667" lon="-8.71855"><ele>356.0</ele><time>2026-04-17T11:32:16.907Z</time></trkpt><trkpt lat="42.629625" lon="-8.71831"><ele>357.33333333333337</ele><time>2026-04-17T11:32:17.906Z</time></trkpt><trkpt lat="42.6295517" lon="-8.71807"><ele>358.6666666666667</ele><time>2026-04-17T11:32:18.906Z</time></trkpt><trkpt lat="42.6294683" lon="-8.7178233"><ele>360.0</ele><time>2026-04-17T11:32:19.907Z</time></trkpt><trkpt lat="42.6293867" lon="-8.717585"><ele>365.0</ele><time>2026-04-17T11:32:20.907Z</time></trkpt><trkpt lat="42.6292983" lon="-8.7173583"><ele>370.0</ele><time>2026-04-17T11:32:21.907Z</time></trkpt><trkpt lat="42.6292233" lon="-8.7171667"><ele>375.0</ele><time>2026-04-17T11:32:22.907Z</time></trkpt><trkpt lat="42.629165" lon="-8.7170183"><ele>375.0</ele><time>2026-04-17T11:32:23.906Z</time></trkpt><trkpt lat="42.6291167" lon="-8.7168933"><ele>375.0</ele><time>2026-04-17T11:32:24.906Z</time></trkpt><trkpt lat="42.62907" lon="-8.716805"><ele>375.0</ele><time>2026-04-17T11:32:25.907Z</time></trkpt><trkpt lat="42.628985" lon="-8.7167467"><ele>375.0</ele><time>2026-04-17T11:32:27.907Z</time></trkpt><trkpt lat="42.6289183" lon="-8.7168433"><ele>375.0</ele><time>2026-04-17T11:32:29.907Z</time></trkpt><trkpt lat="42.6288583" lon="-8.71693"><ele>375.0</ele><time>2026-04-17T11:32:30.908Z</time></trkpt><trkpt lat="42.6287833" lon="-8.7169967"><ele>375.0</ele><time>2026-04-17T11:32:31.907Z</time></trkpt><trkpt lat="42.6287033" lon="-8.7170267"><ele>375.0</ele><time>2026-04-17T11:32:32.907Z</time></trkpt><trkpt lat="42.6286167" lon="-8.7170267"><ele>375.0</ele><time>2026-04-17T11:32:33.908Z</time></trkpt><trkpt lat="42.628525" lon="-8.7169933"><ele>375.0</ele><time>2026-04-17T11:32:34.907Z</time></trkpt><trkpt lat="42.6284417" lon="-8.7169483"><ele>375.0</ele><time>2026-04-17T11:32:35.907Z</time></trkpt><trkpt lat="42.6283667" lon="-8.716905"><ele>375.0</ele><time>2026-04-17T11:32:36.908Z</time></trkpt><trkpt lat="42.6283033" lon="-8.7168683"><ele>375.0</ele><time>2026-04-17T11:32:37.907Z</time></trkpt><trkpt lat="42.628235" lon="-8.7168183"><ele>375.0</ele><time>2026-04-17T11:32:38.907Z</time></trkpt><trkpt lat="42.6281517" lon="-8.716745"><ele>375.0</ele><time>2026-04-17T11:32:39.907Z</time></trkpt><trkpt lat="42.6280683" lon="-8.7166517"><ele>375.0</ele><time>2026-04-17T11:32:40.907Z</time></trkpt><trkpt lat="42.62798" lon="-8.716535"><ele>375.0</ele><time>2026-04-17T11:32:41.907Z</time></trkpt><trkpt lat="42.627905" lon="-8.7164133"><ele>375.0</ele><time>2026-04-17T11:32:42.907Z</time></trkpt><trkpt lat="42.6278333" lon="-8.7163017"><ele>375.0</ele><time>2026-04-17T11:32:43.908Z</time></trkpt><trkpt lat="42.6277767" lon="-8.716195"><ele>375.0</ele><time>2026-04-17T11:32:44.907Z</time></trkpt><trkpt lat="42.6277333" lon="-8.71608"><ele>375.0</ele><time>2026-04-17T11:32:45.908Z</time></trkpt><trkpt lat="42.6277067" lon="-8.7159633"><ele>374.1666666666667</ele><time>2026-04-17T11:32:46.908Z</time></trkpt><trkpt lat="42.6276767" lon="-8.7158567"><ele>373.3333333333333</ele><time>2026-04-17T11:32:47.908Z</time></trkpt><trkpt lat="42.62763" lon="-8.7157683"><ele>372.5</ele><time>2026-04-17T11:32:48.908Z</time></trkpt><trkpt lat="42.6275633" lon="-8.715705"><ele>371.66666666666663</ele><time>2026-04-17T11:32:49.907Z</time></trkpt><trkpt lat="42.6274783" lon="-8.7156633"><ele>370.8333333333333</ele><time>2026-04-17T11:32:50.908Z</time></trkpt><trkpt lat="42.6273767" lon="-8.7156333"><ele>370.0</ele><time>2026-04-17T11:32:51.907Z</time></trkpt><trkpt lat="42.6272917" lon="-8.7156067"><ele>370.0</ele><time>2026-04-17T11:32:52.908Z</time></trkpt><trkpt lat="42.6272283" lon="-8.7155983"><ele>370.0</ele><time>2026-04-17T11:32:53.907Z</time></trkpt><trkpt lat="42.627105" lon="-8.71566"><ele>370.0</ele><time>2026-04-17T11:32:55.907Z</time></trkpt><trkpt lat="42.627045" lon="-8.715735"><ele>370.0</ele><time>2026-04-17T11:32:56.908Z</time></trkpt><trkpt lat="42.62701" lon="-8.71583"><ele>370.0</ele><time>2026-04-17T11:32:57.908Z</time></trkpt><trkpt lat="42.6269833" lon="-8.7159317"><ele>370.0</ele><time>2026-04-17T11:32:58.907Z</time></trkpt><trkpt lat="42.6269617" lon="-8.7160517"><ele>366.5</ele><time>2026-04-17T11:32:59.907Z</time></trkpt><trkpt lat="42.62695" lon="-8.7161933"><ele>363.0</ele><time>2026-04-17T11:33:00.907Z</time></trkpt><trkpt lat="42.6269467" lon="-8.7163533"><ele>359.5</ele><time>2026-04-17T11:33:01.907Z</time></trkpt><trkpt lat="42.6269517" lon="-8.7165267"><ele>356.0</ele><time>2026-04-17T11:33:02.908Z</time></trkpt><trkpt lat="42.6269583" lon="-8.71669"><ele>356.0</ele><time>2026-04-17T11:33:03.908Z</time></trkpt><trkpt lat="42.6269467" lon="-8.7168417"><ele>356.0</ele><time>2026-04-17T11:33:04.907Z</time></trkpt><trkpt lat="42.6269217" lon="-8.716995"><ele>356.0</ele><time>2026-04-17T11:33:05.907Z</time></trkpt><trkpt lat="42.6268833" lon="-8.7171517"><ele>356.0</ele><time>2026-04-17T11:33:06.907Z</time></trkpt><trkpt lat="42.6268567" lon="-8.7173183"><ele>356.0</ele><time>2026-04-17T11:33:07.908Z</time></trkpt><trkpt lat="42.6268383" lon="-8.71751"><ele>356.0</ele><time>2026-04-17T11:33:08.907Z</time></trkpt><trkpt lat="42.62683" lon="-8.7177283"><ele>356.0</ele><time>2026-04-17T11:33:09.908Z</time></trkpt><trkpt lat="42.626825" lon="-8.7179567"><ele>357.0</ele><time>2026-04-17T11:33:10.908Z</time></trkpt><trkpt lat="42.62682" lon="-8.7181833"><ele>358.0</ele><time>2026-04-17T11:33:11.907Z</time></trkpt><trkpt lat="42.6268117" lon="-8.7184"><ele>359.0</ele><time>2026-04-17T11:33:12.908Z</time></trkpt><trkpt lat="42.6267917" lon="-8.7186067"><ele>359.0</ele><time>2026-04-17T11:33:13.907Z</time></trkpt><trkpt lat="42.626765" lon="-8.7187767"><ele>359.0</ele><time>2026-04-17T11:33:14.907Z</time></trkpt><trkpt lat="42.6267567" lon="-8.7189267"><ele>359.0</ele><time>2026-04-17T11:33:15.908Z</time></trkpt><trkpt lat="42.62676" lon="-8.7190833"><ele>359.0</ele><time>2026-04-17T11:33:16.907Z</time></trkpt><trkpt lat="42.626765" lon="-8.7192683"><ele>359.75</ele><time>2026-04-17T11:33:17.907Z</time></trkpt><trkpt lat="42.626755" lon="-8.719455"><ele>360.5</ele><time>2026-04-17T11:33:18.907Z</time></trkpt><trkpt lat="42.62672" lon="-8.7196083"><ele>361.25</ele><time>2026-04-17T11:33:19.907Z</time></trkpt><trkpt lat="42.6266733" lon="-8.7197417"><ele>362.0</ele><time>2026-04-17T11:33:20.907Z</time></trkpt><trkpt lat="42.626595" lon="-8.71987"><ele>362.0</ele><time>2026-04-17T11:33:21.908Z</time></trkpt><trkpt lat="42.6265033" lon="-8.7199883"><ele>362.0</ele><time>2026-04-17T11:33:22.908Z</time></trkpt><trkpt lat="42.6263933" lon="-8.7201183"><ele>362.0</ele><time>2026-04-17T11:33:23.908Z</time></trkpt><trkpt lat="42.62627" lon="-8.7202483"><ele>362.0</ele><time>2026-04-17T11:33:24.907Z</time></trkpt><trkpt lat="42.62615" lon="-8.720335"><ele>360.25</ele><time>2026-04-17T11:33:25.907Z</time></trkpt><trkpt lat="42.62604" lon="-8.7204033"><ele>358.5</ele><time>2026-04-17T11:33:26.907Z</time></trkpt><trkpt lat="42.6259267" lon="-8.7204833"><ele>356.75</ele><time>2026-04-17T11:33:27.907Z</time></trkpt><trkpt lat="42.625805" lon="-8.7205867"><ele>355.0</ele><time>2026-04-17T11:33:28.907Z</time></trkpt><trkpt lat="42.62569" lon="-8.7206967"><ele>355.0</ele><time>2026-04-17T11:33:29.908Z</time></trkpt><trkpt lat="42.62559" lon="-8.7208067"><ele>355.0</ele><time>2026-04-17T11:33:30.907Z</time></trkpt><trkpt lat="42.625495" lon="-8.7209267"><ele>355.0</ele><time>2026-04-17T11:33:31.907Z</time></trkpt><trkpt lat="42.6253933" lon="-8.7210517"><ele>355.0</ele><time>2026-04-17T11:33:32.907Z</time></trkpt><trkpt lat="42.6252883" lon="-8.72117"><ele>355.2</ele><time>2026-04-17T11:33:33.908Z</time></trkpt><trkpt lat="42.6251983" lon="-8.72127"><ele>355.4</ele><time>2026-04-17T11:33:34.908Z</time></trkpt><trkpt lat="42.6251117" lon="-8.7213467"><ele>355.6</ele><time>2026-04-17T11:33:35.907Z</time></trkpt><trkpt lat="42.6250117" lon="-8.72138"><ele>355.8</ele><time>2026-04-17T11:33:36.908Z</time></trkpt><trkpt lat="42.6248917" lon="-8.7213767"><ele>356.0</ele><time>2026-04-17T11:33:37.908Z</time></trkpt><trkpt lat="42.6247533" lon="-8.721365"><ele>356.0</ele><time>2026-04-17T11:33:38.908Z</time></trkpt><trkpt lat="42.6246083" lon="-8.7213567"><ele>356.0</ele><time>2026-04-17T11:33:39.907Z</time></trkpt><trkpt lat="42.624485" lon="-8.7213633"><ele>356.0</ele><time>2026-04-17T11:33:40.907Z</time></trkpt><trkpt lat="42.624365" lon="-8.7213817"><ele>356.0</ele><time>2026-04-17T11:33:41.907Z</time></trkpt><trkpt lat="42.6242533" lon="-8.7214133"><ele>354.5</ele><time>2026-04-17T11:33:42.908Z</time></trkpt><trkpt lat="42.6241433" lon="-8.72146"><ele>353.0</ele><time>2026-04-17T11:33:43.908Z</time></trkpt><trkpt lat="42.6240217" lon="-8.721525"><ele>351.5</ele><time>2026-04-17T11:33:44.907Z</time></trkpt><trkpt lat="42.6239167" lon="-8.7215967"><ele>350.0</ele><time>2026-04-17T11:33:45.907Z</time></trkpt><trkpt lat="42.623825" lon="-8.7216683"><ele>350.0</ele><time>2026-04-17T11:33:46.908Z</time></trkpt><trkpt lat="42.623745" lon="-8.7217333"><ele>350.0</ele><time>2026-04-17T11:33:47.908Z</time></trkpt><trkpt lat="42.6236833" lon="-8.7218017"><ele>350.0</ele><time>2026-04-17T11:33:48.907Z</time></trkpt><trkpt lat="42.623635" lon="-8.7218683"><ele>350.0</ele><time>2026-04-17T11:33:49.907Z</time></trkpt><trkpt lat="42.6235683" lon="-8.7219633"><ele>350.0</ele><time>2026-04-17T11:33:50.908Z</time></trkpt><trkpt lat="42.623485" lon="-8.7220917"><ele>349.75</ele><time>2026-04-17T11:33:51.908Z</time></trkpt><trkpt lat="42.623385" lon="-8.7221933"><ele>349.5</ele><time>2026-04-17T11:33:52.907Z</time></trkpt><trkpt lat="42.6232967" lon="-8.722295"><ele>349.25</ele><time>2026-04-17T11:33:53.907Z</time></trkpt><trkpt lat="42.62321" lon="-8.72239"><ele>349.0</ele><time>2026-04-17T11:33:54.908Z</time></trkpt><trkpt lat="42.6231433" lon="-8.7224883"><ele>349.0</ele><time>2026-04-17T11:33:55.907Z</time></trkpt><trkpt lat="42.623095" lon="-8.72259"><ele>349.0</ele><time>2026-04-17T11:33:56.907Z</time></trkpt><trkpt lat="42.6230517" lon="-8.7227217"><ele>349.0</ele><time>2026-04-17T11:33:57.908Z</time></trkpt><trkpt lat="42.623005" lon="-8.72286"><ele>349.0</ele><time>2026-04-17T11:33:58.907Z</time></trkpt><trkpt lat="42.6229617" lon="-8.72298"><ele>349.0</ele><time>2026-04-17T11:33:59.907Z</time></trkpt><trkpt lat="42.622925" lon="-8.72308"><ele>348.0</ele><time>2026-04-17T11:34:00.907Z</time></trkpt><trkpt lat="42.62289" lon="-8.7231733"><ele>347.0</ele><time>2026-04-17T11:34:01.908Z</time></trkpt><trkpt lat="42.6228633" lon="-8.72327"><ele>346.0</ele><time>2026-04-17T11:34:02.908Z</time></trkpt><trkpt lat="42.6228567" lon="-8.723365"><ele>345.0</ele><time>2026-04-17T11:34:03.907Z</time></trkpt><trkpt lat="42.6228667" lon="-8.7234633"><ele>344.0</ele><time>2026-04-17T11:34:04.908Z</time></trkpt><trkpt lat="42.6228767" lon="-8.7235633"><ele>343.0</ele><time>2026-04-17T11:34:05.908Z</time></trkpt><trkpt lat="42.6228933" lon="-8.7236867"><ele>342.5</ele><time>2026-04-17T11:34:06.908Z</time></trkpt><trkpt lat="42.62293" lon="-8.723825"><ele>342.0</ele><time>2026-04-17T11:34:07.907Z</time></trkpt><trkpt lat="42.6229767" lon="-8.7239783"><ele>341.5</ele><time>2026-04-17T11:34:08.908Z</time></trkpt><trkpt lat="42.6230183" lon="-8.724145"><ele>341.0</ele><time>2026-04-17T11:34:09.908Z</time></trkpt><trkpt lat="42.6230533" lon="-8.7243383"><ele>340.75</ele><time>2026-04-17T11:34:10.907Z</time></trkpt><trkpt lat="42.62309" lon="-8.72454"><ele>340.5</ele><time>2026-04-17T11:34:11.908Z</time></trkpt><trkpt lat="42.6231183" lon="-8.7247267"><ele>340.25</ele><time>2026-04-17T11:34:12.908Z</time></trkpt><trkpt lat="42.623155" lon="-8.724895"><ele>340.0</ele><time>2026-04-17T11:34:13.908Z</time></trkpt><trkpt lat="42.623195" lon="-8.7250583"><ele>340.0</ele><time>2026-04-17T11:34:14.908Z</time></trkpt><trkpt lat="42.6232183" lon="-8.725215"><ele>340.0</ele><time>2026-04-17T11:34:15.907Z</time></trkpt><trkpt lat="42.6232217" lon="-8.7253483"><ele>340.0</ele><time>2026-04-17T11:34:16.907Z</time></trkpt><trkpt lat="42.6232" lon="-8.7254417"><ele>340.0</ele><time>2026-04-17T11:34:17.908Z</time></trkpt><trkpt lat="42.623165" lon="-8.725525"><ele>340.0</ele><time>2026-04-17T11:34:18.907Z</time></trkpt><trkpt lat="42.6230867" lon="-8.7256067"><ele>342.66666666666663</ele><time>2026-04-17T11:34:19.907Z</time></trkpt><trkpt lat="42.6229883" lon="-8.7257083"><ele>345.3333333333333</ele><time>2026-04-17T11:34:20.907Z</time></trkpt><trkpt lat="42.6228517" lon="-8.7258483"><ele>348.0</ele><time>2026-04-17T11:34:21.907Z</time></trkpt><trkpt lat="42.622725" lon="-8.72599"><ele>345.6666666666667</ele><time>2026-04-17T11:34:22.908Z</time></trkpt><trkpt lat="42.6225917" lon="-8.7261683"><ele>343.33333333333337</ele><time>2026-04-17T11:34:23.907Z</time></trkpt><trkpt lat="42.6224667" lon="-8.7263833"><ele>341.0</ele><time>2026-04-17T11:34:24.907Z</time></trkpt><trkpt lat="42.62236" lon="-8.7265917"><ele>341.0</ele><time>2026-04-17T11:34:25.908Z</time></trkpt><trkpt lat="42.6222583" lon="-8.7267917"><ele>341.0</ele><time>2026-04-17T11:34:26.908Z</time></trkpt><trkpt lat="42.6221617" lon="-8.72696"><ele>341.0</ele><time>2026-04-17T11:34:27.907Z</time></trkpt><trkpt lat="42.62204" lon="-8.7271017"><ele>339.0</ele><time>2026-04-17T11:34:28.908Z</time></trkpt><trkpt lat="42.6219" lon="-8.7272233"><ele>337.0</ele><time>2026-04-17T11:34:29.907Z</time></trkpt><trkpt lat="42.62174" lon="-8.7273217"><ele>335.0</ele><time>2026-04-17T11:34:30.908Z</time></trkpt><trkpt lat="42.6215983" lon="-8.7274117"><ele>335.0</ele><time>2026-04-17T11:34:31.907Z</time></trkpt><trkpt lat="42.6215183" lon="-8.7274783"><ele>335.0</ele><time>2026-04-17T11:34:32.907Z</time></trkpt><trkpt lat="42.6215033" lon="-8.7275883"><ele>335.0</ele><time>2026-04-17T11:34:38.907Z</time></trkpt><trkpt lat="42.6214833" lon="-8.7276783"><ele>335.0</ele><time>2026-04-17T11:34:39.907Z</time></trkpt><trkpt lat="42.6214517" lon="-8.7277817"><ele>335.0</ele><time>2026-04-17T11:34:40.908Z</time></trkpt><trkpt lat="42.6214067" lon="-8.7279283"><ele>335.0</ele><time>2026-04-17T11:34:41.907Z</time></trkpt><trkpt lat="42.6213617" lon="-8.728105"><ele>336.25</ele><time>2026-04-17T11:34:42.908Z</time></trkpt><trkpt lat="42.6213183" lon="-8.7282617"><ele>337.5</ele><time>2026-04-17T11:34:43.908Z</time></trkpt><trkpt lat="42.6212567" lon="-8.72839"><ele>338.75</ele><time>2026-04-17T11:34:44.907Z</time></trkpt><trkpt lat="42.6211617" lon="-8.728495"><ele>340.0</ele><time>2026-04-17T11:34:45.907Z</time></trkpt><trkpt lat="42.6210467" lon="-8.728565"><ele>340.5</ele><time>2026-04-17T11:34:46.908Z</time></trkpt><trkpt lat="42.6209233" lon="-8.7286017"><ele>341.0</ele><time>2026-04-17T11:34:47.908Z</time></trkpt><trkpt lat="42.6207883" lon="-8.7286"><ele>341.5</ele><time>2026-04-17T11:34:48.907Z</time></trkpt><trkpt lat="42.6206433" lon="-8.728575"><ele>342.0</ele><time>2026-04-17T11:34:49.907Z</time></trkpt><trkpt lat="42.6205" lon="-8.7285283"><ele>338.25</ele><time>2026-04-17T11:34:50.907Z</time></trkpt><trkpt lat="42.6203683" lon="-8.728455"><ele>334.5</ele><time>2026-04-17T11:34:51.907Z</time></trkpt><trkpt lat="42.620245" lon="-8.7283467"><ele>330.75</ele><time>2026-04-17T11:34:52.907Z</time></trkpt><trkpt lat="42.6201417" lon="-8.7282183"><ele>327.0</ele><time>2026-04-17T11:34:53.907Z</time></trkpt><trkpt lat="42.6200467" lon="-8.7281067"><ele>327.0</ele><time>2026-04-17T11:34:54.908Z</time></trkpt><trkpt lat="42.6199567" lon="-8.7280283"><ele>327.0</ele><time>2026-04-17T11:34:55.908Z</time></trkpt><trkpt lat="42.6198683" lon="-8.7279883"><ele>327.0</ele><time>2026-04-17T11:34:56.908Z</time></trkpt><trkpt lat="42.619795" lon="-8.72797"><ele>327.0</ele><time>2026-04-17T11:34:57.908Z</time></trkpt><trkpt lat="42.61971" lon="-8.7279517"><ele>327.0</ele><time>2026-04-17T11:34:59.908Z</time></trkpt><trkpt lat="42.61984" lon="-8.7279917"><ele>327.0</ele><time>2026-04-17T11:35:05.907Z</time></trkpt><trkpt lat="42.619935" lon="-8.7280333"><ele>327.0</ele><time>2026-04-17T11:35:06.907Z</time></trkpt><trkpt lat="42.6200183" lon="-8.72808"><ele>327.0</ele><time>2026-04-17T11:35:07.907Z</time></trkpt><trkpt lat="42.6200783" lon="-8.7281117"><ele>327.0</ele><time>2026-04-17T11:35:08.907Z</time></trkpt><trkpt lat="42.620195" lon="-8.728135"><ele>327.0</ele><time>2026-04-17T11:35:10.907Z</time></trkpt><trkpt lat="42.6202583" lon="-8.7281683"><ele>327.0</ele><time>2026-04-17T11:35:11.908Z</time></trkpt><trkpt lat="42.6203183" lon="-8.7282183"><ele>327.0</ele><time>2026-04-17T11:35:12.907Z</time></trkpt><trkpt lat="42.6203817" lon="-8.7282717"><ele>327.0</ele><time>2026-04-17T11:35:13.908Z</time></trkpt><trkpt lat="42.620455" lon="-8.72831"><ele>327.0</ele><time>2026-04-17T11:35:14.907Z</time></trkpt><trkpt lat="42.6205367" lon="-8.7283217"><ele>327.0</ele><time>2026-04-17T11:35:15.908Z</time></trkpt><trkpt lat="42.6206233" lon="-8.7283183"><ele>327.0</ele><time>2026-04-17T11:35:16.908Z</time></trkpt><trkpt lat="42.6207033" lon="-8.7282967"><ele>327.0</ele><time>2026-04-17T11:35:17.907Z</time></trkpt><trkpt lat="42.6207583" lon="-8.7282417"><ele>327.0</ele><time>2026-04-17T11:35:18.908Z</time></trkpt><trkpt lat="42.6207867" lon="-8.728095"><ele>327.0</ele><time>2026-04-17T11:35:20.907Z</time></trkpt><trkpt lat="42.6207817" lon="-8.728"><ele>327.0</ele><time>2026-04-17T11:35:21.907Z</time></trkpt><trkpt lat="42.620775" lon="-8.7278567"><ele>327.0</ele><time>2026-04-17T11:35:22.907Z</time></trkpt><trkpt lat="42.6207483" lon="-8.727635"><ele>325.0</ele><time>2026-04-17T11:35:23.908Z</time></trkpt><trkpt lat="42.6207517" lon="-8.7274333"><ele>323.0</ele><time>2026-04-17T11:35:24.907Z</time></trkpt><trkpt lat="42.6207567" lon="-8.7272667"><ele>321.0</ele><time>2026-04-17T11:35:25.908Z</time></trkpt><trkpt lat="42.62075" lon="-8.7271167"><ele>319.0</ele><time>2026-04-17T11:35:26.908Z</time></trkpt><trkpt lat="42.620725" lon="-8.7269733"><ele>317.59999999999997</ele><time>2026-04-17T11:35:27.908Z</time></trkpt><trkpt lat="42.62069" lon="-8.72683"><ele>316.2</ele><time>2026-04-17T11:35:28.907Z</time></trkpt><trkpt lat="42.6206283" lon="-8.7267133"><ele>314.79999999999995</ele><time>2026-04-17T11:35:29.907Z</time></trkpt><trkpt lat="42.6205517" lon="-8.72663"><ele>313.4</ele><time>2026-04-17T11:35:30.908Z</time></trkpt><trkpt lat="42.62046" lon="-8.7265683"><ele>312.0</ele><time>2026-04-17T11:35:31.907Z</time></trkpt><trkpt lat="42.6203567" lon="-8.7265017"><ele>308.8</ele><time>2026-04-17T11:35:32.907Z</time></trkpt><trkpt lat="42.6202583" lon="-8.7264567"><ele>305.6</ele><time>2026-04-17T11:35:33.908Z</time></trkpt><trkpt lat="42.62016" lon="-8.7264467"><ele>302.40000000000003</ele><time>2026-04-17T11:35:34.907Z</time></trkpt><trkpt lat="42.620045" lon="-8.7264433"><ele>299.2</ele><time>2026-04-17T11:35:35.907Z</time></trkpt><trkpt lat="42.6199167" lon="-8.726445"><ele>296.0</ele><time>2026-04-17T11:35:36.908Z</time></trkpt><trkpt lat="42.6197917" lon="-8.726455"><ele>296.0</ele><time>2026-04-17T11:35:37.908Z</time></trkpt><trkpt lat="42.6196817" lon="-8.726475"><ele>296.0</ele><time>2026-04-17T11:35:38.907Z</time></trkpt><trkpt lat="42.6196017" lon="-8.7264767"><ele>296.0</ele><time>2026-04-17T11:35:39.908Z</time></trkpt><trkpt lat="42.61951" lon="-8.726495"><ele>296.0</ele><time>2026-04-17T11:35:41.907Z</time></trkpt><trkpt lat="42.619465" lon="-8.726565"><ele>296.0</ele><time>2026-04-17T11:35:46.908Z</time></trkpt><trkpt lat="42.6193967" lon="-8.7266583"><ele>296.0</ele><time>2026-04-17T11:35:49.908Z</time></trkpt><trkpt lat="42.6193117" lon="-8.7266633"><ele>292.6666666666667</ele><time>2026-04-17T11:35:51.907Z</time></trkpt><trkpt lat="42.619085" lon="-8.726605"><ele>289.3333333333333</ele><time>2026-04-17T11:35:53.907Z</time></trkpt><trkpt lat="42.6189767" lon="-8.7265667"><ele>286.0</ele><time>2026-04-17T11:35:54.907Z</time></trkpt><trkpt lat="42.6188583" lon="-8.7265267"><ele>286.0</ele><time>2026-04-17T11:35:55.907Z</time></trkpt><trkpt lat="42.6187667" lon="-8.726475"><ele>286.0</ele><time>2026-04-17T11:35:56.908Z</time></trkpt><trkpt lat="42.6186867" lon="-8.7264283"><ele>286.0</ele><time>2026-04-17T11:35:57.907Z</time></trkpt><trkpt lat="42.6186033" lon="-8.7264"><ele>286.0</ele><time>2026-04-17T11:35:58.907Z</time></trkpt><trkpt lat="42.61852" lon="-8.7263933"><ele>286.0</ele><time>2026-04-17T11:35:59.907Z</time></trkpt><trkpt lat="42.6183983" lon="-8.7264"><ele>282.5</ele><time>2026-04-17T11:36:00.907Z</time></trkpt><trkpt lat="42.6182633" lon="-8.7264067"><ele>279.0</ele><time>2026-04-17T11:36:01.907Z</time></trkpt><trkpt lat="42.6181483" lon="-8.726415"><ele>275.5</ele><time>2026-04-17T11:36:02.908Z</time></trkpt><trkpt lat="42.6180367" lon="-8.7264367"><ele>272.0</ele><time>2026-04-17T11:36:03.908Z</time></trkpt><trkpt lat="42.617925" lon="-8.726455"><ele>272.0</ele><time>2026-04-17T11:36:04.907Z</time></trkpt><trkpt lat="42.61783" lon="-8.7264767"><ele>272.0</ele><time>2026-04-17T11:36:05.908Z</time></trkpt><trkpt lat="42.6177417" lon="-8.72652"><ele>272.0</ele><time>2026-04-17T11:36:06.908Z</time></trkpt><trkpt lat="42.6176383" lon="-8.7265867"><ele>272.0</ele><time>2026-04-17T11:36:07.907Z</time></trkpt><trkpt lat="42.6175283" lon="-8.7266683"><ele>272.0</ele><time>2026-04-17T11:36:08.908Z</time></trkpt><trkpt lat="42.6173833" lon="-8.7267683"><ele>275.6666666666667</ele><time>2026-04-17T11:36:09.907Z</time></trkpt><trkpt lat="42.617235" lon="-8.7268667"><ele>279.3333333333333</ele><time>2026-04-17T11:36:10.907Z</time></trkpt><trkpt lat="42.617095" lon="-8.7269667"><ele>283.0</ele><time>2026-04-17T11:36:11.908Z</time></trkpt><trkpt lat="42.6169717" lon="-8.7270617"><ele>274.5</ele><time>2026-04-17T11:36:12.908Z</time></trkpt><trkpt lat="42.6168617" lon="-8.7271783"><ele>266.0</ele><time>2026-04-17T11:36:13.907Z</time></trkpt><trkpt lat="42.61677" lon="-8.7272817"><ele>257.5</ele><time>2026-04-17T11:36:14.907Z</time></trkpt><trkpt lat="42.6166833" lon="-8.7274"><ele>249.0</ele><time>2026-04-17T11:36:15.907Z</time></trkpt><trkpt lat="42.6165867" lon="-8.7275067"><ele>249.0</ele><time>2026-04-17T11:36:16.908Z</time></trkpt><trkpt lat="42.616495" lon="-8.7275983"><ele>248.99999999999997</ele><time>2026-04-17T11:36:17.908Z</time></trkpt><trkpt lat="42.6164133" lon="-8.72767"><ele>248.99999999999997</ele><time>2026-04-17T11:36:18.908Z</time></trkpt><trkpt lat="42.6163383" lon="-8.7277467"><ele>249.0</ele><time>2026-04-17T11:36:19.907Z</time></trkpt><trkpt lat="42.6162683" lon="-8.72782"><ele>249.0</ele><time>2026-04-17T11:36:20.907Z</time></trkpt><trkpt lat="42.6162133" lon="-8.7278817"><ele>251.6</ele><time>2026-04-17T11:36:21.907Z</time></trkpt><trkpt lat="42.6161617" lon="-8.72805"><ele>254.2</ele><time>2026-04-17T11:36:23.907Z</time></trkpt><trkpt lat="42.6161283" lon="-8.7281767"><ele>256.79999999999995</ele><time>2026-04-17T11:36:24.907Z</time></trkpt><trkpt lat="42.6160917" lon="-8.7282833"><ele>259.4</ele><time>2026-04-17T11:36:25.908Z</time></trkpt><trkpt lat="42.6160383" lon="-8.72837"><ele>262.0</ele><time>2026-04-17T11:36:26.908Z</time></trkpt><trkpt lat="42.6159633" lon="-8.72846"><ele>258.25</ele><time>2026-04-17T11:36:27.907Z</time></trkpt><trkpt lat="42.6158567" lon="-8.7285567"><ele>254.5</ele><time>2026-04-17T11:36:28.908Z</time></trkpt><trkpt lat="42.6157483" lon="-8.72867"><ele>250.75</ele><time>2026-04-17T11:36:29.908Z</time></trkpt><trkpt lat="42.6156433" lon="-8.728795"><ele>247.0</ele><time>2026-04-17T11:36:30.908Z</time></trkpt><trkpt lat="42.615545" lon="-8.7289333"><ele>247.0</ele><time>2026-04-17T11:36:31.907Z</time></trkpt><trkpt lat="42.6154667" lon="-8.7290883"><ele>247.0</ele><time>2026-04-17T11:36:32.907Z</time></trkpt><trkpt lat="42.6153817" lon="-8.729265"><ele>247.0</ele><time>2026-04-17T11:36:33.907Z</time></trkpt><trkpt lat="42.6152833" lon="-8.7294367"><ele>244.5</ele><time>2026-04-17T11:36:34.908Z</time></trkpt><trkpt lat="42.6151883" lon="-8.7295983"><ele>242.0</ele><time>2026-04-17T11:36:35.908Z</time></trkpt><trkpt lat="42.61511" lon="-8.729745"><ele>239.5</ele><time>2026-04-17T11:36:36.908Z</time></trkpt><trkpt lat="42.6150583" lon="-8.7298967"><ele>237.0</ele><time>2026-04-17T11:36:37.908Z</time></trkpt><trkpt lat="42.615025" lon="-8.7300667"><ele>237.0</ele><time>2026-04-17T11:36:38.907Z</time></trkpt><trkpt lat="42.614995" lon="-8.73028"><ele>237.0</ele><time>2026-04-17T11:36:39.908Z</time></trkpt><trkpt lat="42.614955" lon="-8.7304967"><ele>237.0</ele><time>2026-04-17T11:36:40.908Z</time></trkpt><trkpt lat="42.6149183" lon="-8.7307167"><ele>237.0</ele><time>2026-04-17T11:36:41.908Z</time></trkpt><trkpt lat="42.6149117" lon="-8.7309133"><ele>237.0</ele><time>2026-04-17T11:36:42.907Z</time></trkpt><trkpt lat="42.6149167" lon="-8.731105"><ele>237.0</ele><time>2026-04-17T11:36:43.907Z</time></trkpt><trkpt lat="42.6149217" lon="-8.7312867"><ele>237.0</ele><time>2026-04-17T11:36:44.908Z</time></trkpt><trkpt lat="42.6148933" lon="-8.7314733"><ele>238.6</ele><time>2026-04-17T11:36:45.908Z</time></trkpt><trkpt lat="42.614835" lon="-8.7316267"><ele>240.2</ele><time>2026-04-17T11:36:46.907Z</time></trkpt><trkpt lat="42.614775" lon="-8.731745"><ele>241.8</ele><time>2026-04-17T11:36:47.908Z</time></trkpt><trkpt lat="42.6147133" lon="-8.7318183"><ele>243.4</ele><time>2026-04-17T11:36:48.907Z</time></trkpt><trkpt lat="42.61465" lon="-8.7318483"><ele>245.0</ele><time>2026-04-17T11:36:49.907Z</time></trkpt><trkpt lat="42.6145667" lon="-8.731895"><ele>242.75</ele><time>2026-04-17T11:36:50.907Z</time></trkpt><trkpt lat="42.61446" lon="-8.7319767"><ele>240.5</ele><time>2026-04-17T11:36:51.907Z</time></trkpt><trkpt lat="42.6143683" lon="-8.7320767"><ele>238.25</ele><time>2026-04-17T11:36:52.907Z</time></trkpt><trkpt lat="42.6142933" lon="-8.7321867"><ele>236.0</ele><time>2026-04-17T11:36:53.908Z</time></trkpt><trkpt lat="42.6142417" lon="-8.73232"><ele>236.0</ele><time>2026-04-17T11:36:54.908Z</time></trkpt><trkpt lat="42.6142183" lon="-8.7324867"><ele>236.0</ele><time>2026-04-17T11:36:55.907Z</time></trkpt><trkpt lat="42.6142067" lon="-8.7326733"><ele>236.0</ele><time>2026-04-17T11:36:56.907Z</time></trkpt><trkpt lat="42.6141883" lon="-8.73286"><ele>236.0</ele><time>2026-04-17T11:36:57.907Z</time></trkpt><trkpt lat="42.61415" lon="-8.73305"><ele>236.20000000000002</ele><time>2026-04-17T11:36:58.908Z</time></trkpt><trkpt lat="42.6140967" lon="-8.733225"><ele>236.40000000000003</ele><time>2026-04-17T11:36:59.908Z</time></trkpt><trkpt lat="42.6140417" lon="-8.7333717"><ele>236.6</ele><time>2026-04-17T11:37:00.908Z</time></trkpt><trkpt lat="42.6140117" lon="-8.7334833"><ele>236.8</ele><time>2026-04-17T11:37:01.908Z</time></trkpt><trkpt lat="42.613985" lon="-8.7335917"><ele>237.0</ele><time>2026-04-17T11:37:02.907Z</time></trkpt><trkpt lat="42.6139533" lon="-8.73369"><ele>237.0</ele><time>2026-04-17T11:37:03.907Z</time></trkpt><trkpt lat="42.6139183" lon="-8.7338517"><ele>237.0</ele><time>2026-04-17T11:37:05.907Z</time></trkpt><trkpt lat="42.613915" lon="-8.733985"><ele>237.0</ele><time>2026-04-17T11:37:07.907Z</time></trkpt><trkpt lat="42.61386" lon="-8.7341033"><ele>237.0</ele><time>2026-04-17T11:37:09.908Z</time></trkpt><trkpt lat="42.6137633" lon="-8.7342367"><ele>237.0</ele><time>2026-04-17T11:37:11.907Z</time></trkpt><trkpt lat="42.6136983" lon="-8.7343017"><ele>237.0</ele><time>2026-04-17T11:37:12.907Z</time></trkpt><trkpt lat="42.613625" lon="-8.7343467"><ele>237.0</ele><time>2026-04-17T11:37:13.908Z</time></trkpt><trkpt lat="42.61355" lon="-8.73438"><ele>237.0</ele><time>2026-04-17T11:37:14.908Z</time></trkpt><trkpt lat="42.61346" lon="-8.734395"><ele>237.0</ele><time>2026-04-17T11:37:15.908Z</time></trkpt><trkpt lat="42.6133617" lon="-8.7343967"><ele>237.0</ele><time>2026-04-17T11:37:16.908Z</time></trkpt><trkpt lat="42.6132383" lon="-8.7343867"><ele>234.5</ele><time>2026-04-17T11:37:17.908Z</time></trkpt><trkpt lat="42.6131267" lon="-8.7343833"><ele>232.0</ele><time>2026-04-17T11:37:18.907Z</time></trkpt><trkpt lat="42.6130333" lon="-8.7343933"><ele>229.5</ele><time>2026-04-17T11:37:19.908Z</time></trkpt><trkpt lat="42.6129567" lon="-8.7344117"><ele>227.0</ele><time>2026-04-17T11:37:20.907Z</time></trkpt><trkpt lat="42.6128917" lon="-8.7344633"><ele>224.5</ele><time>2026-04-17T11:37:21.908Z</time></trkpt><trkpt lat="42.6128367" lon="-8.7345433"><ele>222.0</ele><time>2026-04-17T11:37:22.907Z</time></trkpt><trkpt lat="42.6127867" lon="-8.73468"><ele>217.39999999999998</ele><time>2026-04-17T11:37:23.908Z</time></trkpt><trkpt lat="42.6127317" lon="-8.7348267"><ele>212.79999999999998</ele><time>2026-04-17T11:37:24.907Z</time></trkpt><trkpt lat="42.6126733" lon="-8.734955"><ele>208.2</ele><time>2026-04-17T11:37:25.907Z</time></trkpt><trkpt lat="42.61261" lon="-8.7350467"><ele>203.6</ele><time>2026-04-17T11:37:26.908Z</time></trkpt><trkpt lat="42.6125433" lon="-8.73509"><ele>199.0</ele><time>2026-04-17T11:37:27.908Z</time></trkpt><trkpt lat="42.61248" lon="-8.7350983"><ele>198.99999999999997</ele><time>2026-04-17T11:37:28.907Z</time></trkpt><trkpt lat="42.6124133" lon="-8.7350717"><ele>199.0</ele><time>2026-04-17T11:37:29.908Z</time></trkpt><trkpt lat="42.6123383" lon="-8.73501"><ele>199.0</ele><time>2026-04-17T11:37:30.907Z</time></trkpt><trkpt lat="42.6122633" lon="-8.73492"><ele>199.0</ele><time>2026-04-17T11:37:31.907Z</time></trkpt><trkpt lat="42.6121883" lon="-8.7348467"><ele>198.99999999999997</ele><time>2026-04-17T11:37:32.907Z</time></trkpt><trkpt lat="42.6121083" lon="-8.7347967"><ele>199.0</ele><time>2026-04-17T11:37:33.907Z</time></trkpt><trkpt lat="42.6120183" lon="-8.7347633"><ele>196.39999999999998</ele><time>2026-04-17T11:37:34.907Z</time></trkpt><trkpt lat="42.6119167" lon="-8.7347467"><ele>193.8</ele><time>2026-04-17T11:37:35.907Z</time></trkpt><trkpt lat="42.6118217" lon="-8.7347317"><ele>191.2</ele><time>2026-04-17T11:37:36.907Z</time></trkpt><trkpt lat="42.6117517" lon="-8.7347217"><ele>188.60000000000002</ele><time>2026-04-17T11:37:37.908Z</time></trkpt><trkpt lat="42.611665" lon="-8.7346333"><ele>186.0</ele><time>2026-04-17T11:37:39.907Z</time></trkpt><trkpt lat="42.6116333" lon="-8.7345233"><ele>188.0</ele><time>2026-04-17T11:37:40.907Z</time></trkpt><trkpt lat="42.6116033" lon="-8.7343667"><ele>190.0</ele><time>2026-04-17T11:37:41.907Z</time></trkpt><trkpt lat="42.6115817" lon="-8.7341817"><ele>192.0</ele><time>2026-04-17T11:37:42.908Z</time></trkpt><trkpt lat="42.6115783" lon="-8.734015"><ele>194.0</ele><time>2026-04-17T11:37:43.908Z</time></trkpt><trkpt lat="42.611605" lon="-8.7338317"><ele>194.0</ele><time>2026-04-17T11:37:44.907Z</time></trkpt><trkpt lat="42.61167" lon="-8.73365"><ele>194.0</ele><time>2026-04-17T11:37:45.907Z</time></trkpt><trkpt lat="42.6117533" lon="-8.733455"><ele>194.0</ele><time>2026-04-17T11:37:46.908Z</time></trkpt><trkpt lat="42.6118383" lon="-8.7332467"><ele>193.66666666666669</ele><time>2026-04-17T11:37:47.908Z</time></trkpt><trkpt lat="42.6119383" lon="-8.73301"><ele>193.33333333333331</ele><time>2026-04-17T11:37:48.908Z</time></trkpt><trkpt lat="42.6120283" lon="-8.7327433"><ele>193.0</ele><time>2026-04-17T11:37:49.907Z</time></trkpt><trkpt lat="42.6121167" lon="-8.7324717"><ele>196.0</ele><time>2026-04-17T11:37:50.908Z</time></trkpt><trkpt lat="42.6121867" lon="-8.7322033"><ele>199.0</ele><time>2026-04-17T11:37:51.908Z</time></trkpt><trkpt lat="42.6122533" lon="-8.73199"><ele>202.0</ele><time>2026-04-17T11:37:52.907Z</time></trkpt><trkpt lat="42.61231" lon="-8.7318183"><ele>202.0</ele><time>2026-04-17T11:37:53.907Z</time></trkpt><trkpt lat="42.6123833" lon="-8.73171"><ele>202.0</ele><time>2026-04-17T11:37:54.907Z</time></trkpt><trkpt lat="42.6124817" lon="-8.7316367"><ele>202.0</ele><time>2026-04-17T11:37:55.908Z</time></trkpt><trkpt lat="42.6126067" lon="-8.7316067"><ele>202.0</ele><time>2026-04-17T11:37:56.907Z</time></trkpt><trkpt lat="42.6127483" lon="-8.7316183"><ele>202.75</ele><time>2026-04-17T11:37:57.907Z</time></trkpt><trkpt lat="42.6128967" lon="-8.7316583"><ele>203.5</ele><time>2026-04-17T11:37:58.907Z</time></trkpt><trkpt lat="42.613045" lon="-8.73171"><ele>204.25</ele><time>2026-04-17T11:37:59.908Z</time></trkpt><trkpt lat="42.6131733" lon="-8.7317483"><ele>205.0</ele><time>2026-04-17T11:38:00.907Z</time></trkpt><trkpt lat="42.6132817" lon="-8.7317433"><ele>205.0</ele><time>2026-04-17T11:38:01.908Z</time></trkpt><trkpt lat="42.6133917" lon="-8.7316817"><ele>205.0</ele><time>2026-04-17T11:38:02.907Z</time></trkpt><trkpt lat="42.613505" lon="-8.7315883"><ele>205.0</ele><time>2026-04-17T11:38:03.908Z</time></trkpt><trkpt lat="42.61364" lon="-8.7314767"><ele>205.0</ele><time>2026-04-17T11:38:04.907Z</time></trkpt><trkpt lat="42.613795" lon="-8.73136"><ele>207.25</ele><time>2026-04-17T11:38:05.908Z</time></trkpt><trkpt lat="42.61395" lon="-8.7312483"><ele>209.5</ele><time>2026-04-17T11:38:06.907Z</time></trkpt><trkpt lat="42.6140733" lon="-8.731155"><ele>211.75</ele><time>2026-04-17T11:38:07.908Z</time></trkpt><trkpt lat="42.6141633" lon="-8.7310717"><ele>214.0</ele><time>2026-04-17T11:38:08.907Z</time></trkpt><trkpt lat="42.6141983" lon="-8.7309733"><ele>214.0</ele><time>2026-04-17T11:38:09.908Z</time></trkpt><trkpt lat="42.6142067" lon="-8.7308683"><ele>213.99999999999997</ele><time>2026-04-17T11:38:10.908Z</time></trkpt><trkpt lat="42.614185" lon="-8.7307383"><ele>213.99999999999997</ele><time>2026-04-17T11:38:11.907Z</time></trkpt><trkpt lat="42.6141333" lon="-8.7305717"><ele>214.0</ele><time>2026-04-17T11:38:12.908Z</time></trkpt><trkpt lat="42.6141" lon="-8.7303933"><ele>214.0</ele><time>2026-04-17T11:38:13.908Z</time></trkpt><trkpt lat="42.6140933" lon="-8.730225"><ele>212.66666666666666</ele><time>2026-04-17T11:38:14.907Z</time></trkpt><trkpt lat="42.6141233" lon="-8.7300483"><ele>211.33333333333331</ele><time>2026-04-17T11:38:15.908Z</time></trkpt><trkpt lat="42.614195" lon="-8.72984"><ele>210.0</ele><time>2026-04-17T11:38:16.907Z</time></trkpt><trkpt lat="42.614285" lon="-8.729615"><ele>209.66666666666669</ele><time>2026-04-17T11:38:17.908Z</time></trkpt><trkpt lat="42.614385" lon="-8.7293917"><ele>209.33333333333334</ele><time>2026-04-17T11:38:18.907Z</time></trkpt><trkpt lat="42.6144867" lon="-8.7291733"><ele>209.0</ele><time>2026-04-17T11:38:19.907Z</time></trkpt><trkpt lat="42.61461" lon="-8.7289417"><ele>211.0</ele><time>2026-04-17T11:38:20.907Z</time></trkpt><trkpt lat="42.6147583" lon="-8.728715"><ele>213.0</ele><time>2026-04-17T11:38:21.907Z</time></trkpt><trkpt lat="42.6149167" lon="-8.7285"><ele>215.0</ele><time>2026-04-17T11:38:22.907Z</time></trkpt><trkpt lat="42.6150717" lon="-8.7283067"><ele>215.0</ele><time>2026-04-17T11:38:23.908Z</time></trkpt><trkpt lat="42.6152267" lon="-8.72812"><ele>215.0</ele><time>2026-04-17T11:38:24.907Z</time></trkpt><trkpt lat="42.61539" lon="-8.7279517"><ele>215.0</ele><time>2026-04-17T11:38:25.907Z</time></trkpt><trkpt lat="42.6155417" lon="-8.7277983"><ele>216.66666666666669</ele><time>2026-04-17T11:38:26.908Z</time></trkpt><trkpt lat="42.6156717" lon="-8.7276767"><ele>218.33333333333331</ele><time>2026-04-17T11:38:27.908Z</time></trkpt><trkpt lat="42.615765" lon="-8.7275317"><ele>220.0</ele><time>2026-04-17T11:38:28.907Z</time></trkpt><trkpt lat="42.6158433" lon="-8.7273567"><ele>220.0</ele><time>2026-04-17T11:38:29.907Z</time></trkpt><trkpt lat="42.61593" lon="-8.7271333"><ele>220.0</ele><time>2026-04-17T11:38:30.907Z</time></trkpt><trkpt lat="42.616045" lon="-8.7268917"><ele>220.0</ele><time>2026-04-17T11:38:31.908Z</time></trkpt><trkpt lat="42.6161667" lon="-8.7266467"><ele>222.33333333333331</ele><time>2026-04-17T11:38:32.907Z</time></trkpt><trkpt lat="42.616285" lon="-8.7264183"><ele>224.66666666666669</ele><time>2026-04-17T11:38:33.908Z</time></trkpt><trkpt lat="42.616385" lon="-8.7262133"><ele>227.0</ele><time>2026-04-17T11:38:34.907Z</time></trkpt><trkpt lat="42.616455" lon="-8.726025"><ele>224.16666666666669</ele><time>2026-04-17T11:38:35.907Z</time></trkpt><trkpt lat="42.6165083" lon="-8.72586"><ele>221.33333333333334</ele><time>2026-04-17T11:38:36.907Z</time></trkpt><trkpt lat="42.616545" lon="-8.7257367"><ele>218.5</ele><time>2026-04-17T11:38:37.907Z</time></trkpt><trkpt lat="42.616555" lon="-8.7256467"><ele>215.66666666666669</ele><time>2026-04-17T11:38:38.908Z</time></trkpt><trkpt lat="42.616535" lon="-8.7255617"><ele>212.83333333333334</ele><time>2026-04-17T11:38:39.907Z</time></trkpt><trkpt lat="42.6164967" lon="-8.72548"><ele>210.0</ele><time>2026-04-17T11:38:40.908Z</time></trkpt><trkpt lat="42.61642" lon="-8.7254117"><ele>210.0</ele><time>2026-04-17T11:38:41.907Z</time></trkpt><trkpt lat="42.6162883" lon="-8.7253433"><ele>210.0</ele><time>2026-04-17T11:38:42.908Z</time></trkpt><trkpt lat="42.616075" lon="-8.7252717"><ele>210.0</ele><time>2026-04-17T11:38:43.907Z</time></trkpt><trkpt lat="42.6158833" lon="-8.7252167"><ele>211.0</ele><time>2026-04-17T11:38:44.907Z</time></trkpt><trkpt lat="42.6157" lon="-8.7251567"><ele>212.0</ele><time>2026-04-17T11:38:45.907Z</time></trkpt><trkpt lat="42.6155483" lon="-8.725085"><ele>213.0</ele><time>2026-04-17T11:38:46.907Z</time></trkpt><trkpt lat="42.6154183" lon="-8.724975"><ele>211.25</ele><time>2026-04-17T11:38:47.907Z</time></trkpt><trkpt lat="42.6153067" lon="-8.7248317"><ele>209.5</ele><time>2026-04-17T11:38:48.908Z</time></trkpt><trkpt lat="42.61519" lon="-8.7246817"><ele>207.75</ele><time>2026-04-17T11:38:49.907Z</time></trkpt><trkpt lat="42.6151233" lon="-8.7245333"><ele>206.0</ele><time>2026-04-17T11:38:50.908Z</time></trkpt><trkpt lat="42.6150933" lon="-8.724385"><ele>206.0</ele><time>2026-04-17T11:38:51.908Z</time></trkpt><trkpt lat="42.615095" lon="-8.7242333"><ele>206.0</ele><time>2026-04-17T11:38:52.907Z</time></trkpt><trkpt lat="42.6151233" lon="-8.7240683"><ele>206.0</ele><time>2026-04-17T11:38:53.907Z</time></trkpt><trkpt lat="42.6151883" lon="-8.7239217"><ele>206.0</ele><time>2026-04-17T11:38:54.907Z</time></trkpt><trkpt lat="42.6152817" lon="-8.7237967"><ele>207.33333333333334</ele><time>2026-04-17T11:38:55.908Z</time></trkpt><trkpt lat="42.6154133" lon="-8.7236917"><ele>208.66666666666669</ele><time>2026-04-17T11:38:56.908Z</time></trkpt><trkpt lat="42.615575" lon="-8.7236033"><ele>210.0</ele><time>2026-04-17T11:38:57.908Z</time></trkpt><trkpt lat="42.615765" lon="-8.7235267"><ele>210.0</ele><time>2026-04-17T11:38:58.907Z</time></trkpt><trkpt lat="42.61595" lon="-8.7234383"><ele>210.0</ele><time>2026-04-17T11:38:59.908Z</time></trkpt><trkpt lat="42.6161233" lon="-8.723335"><ele>210.0</ele><time>2026-04-17T11:39:00.907Z</time></trkpt><trkpt lat="42.6162767" lon="-8.723195"><ele>212.0</ele><time>2026-04-17T11:39:01.907Z</time></trkpt><trkpt lat="42.6163867" lon="-8.723045"><ele>214.0</ele><time>2026-04-17T11:39:02.908Z</time></trkpt><trkpt lat="42.6164633" lon="-8.7228533"><ele>216.0</ele><time>2026-04-17T11:39:03.908Z</time></trkpt><trkpt lat="42.6165383" lon="-8.7226667"><ele>216.0</ele><time>2026-04-17T11:39:04.907Z</time></trkpt><trkpt lat="42.6166167" lon="-8.7224867"><ele>216.0</ele><time>2026-04-17T11:39:05.908Z</time></trkpt><trkpt lat="42.616725" lon="-8.7223333"><ele>216.0</ele><time>2026-04-17T11:39:06.908Z</time></trkpt><trkpt lat="42.61686" lon="-8.7222083"><ele>219.0</ele><time>2026-04-17T11:39:07.907Z</time></trkpt><trkpt lat="42.61701" lon="-8.7220717"><ele>222.0</ele><time>2026-04-17T11:39:08.908Z</time></trkpt><trkpt lat="42.617165" lon="-8.7219167"><ele>225.0</ele><time>2026-04-17T11:39:09.908Z</time></trkpt><trkpt lat="42.6173317" lon="-8.7217617"><ele>225.0</ele><time>2026-04-17T11:39:10.907Z</time></trkpt><trkpt lat="42.6175183" lon="-8.7216033"><ele>225.0</ele><time>2026-04-17T11:39:11.907Z</time></trkpt><trkpt lat="42.61772" lon="-8.72145"><ele>226.66666666666669</ele><time>2026-04-17T11:39:12.907Z</time></trkpt><trkpt lat="42.6179183" lon="-8.72129"><ele>228.33333333333334</ele><time>2026-04-17T11:39:13.907Z</time></trkpt><trkpt lat="42.6181" lon="-8.721125"><ele>230.0</ele><time>2026-04-17T11:39:14.907Z</time></trkpt><trkpt lat="42.618275" lon="-8.72096"><ele>230.0</ele><time>2026-04-17T11:39:15.908Z</time></trkpt><trkpt lat="42.618435" lon="-8.7208017"><ele>230.0</ele><time>2026-04-17T11:39:16.907Z</time></trkpt><trkpt lat="42.61859" lon="-8.7206467"><ele>230.0</ele><time>2026-04-17T11:39:17.908Z</time></trkpt><trkpt lat="42.618755" lon="-8.7205033"><ele>231.66666666666669</ele><time>2026-04-17T11:39:18.908Z</time></trkpt><trkpt lat="42.6189117" lon="-8.7203617"><ele>233.33333333333331</ele><time>2026-04-17T11:39:19.907Z</time></trkpt><trkpt lat="42.6190767" lon="-8.72023"><ele>235.0</ele><time>2026-04-17T11:39:20.907Z</time></trkpt><trkpt lat="42.619235" lon="-8.72012"><ele>235.0</ele><time>2026-04-17T11:39:21.907Z</time></trkpt><trkpt lat="42.6193883" lon="-8.7200283"><ele>235.0</ele><time>2026-04-17T11:39:22.907Z</time></trkpt><trkpt lat="42.619545" lon="-8.7199433"><ele>235.0</ele><time>2026-04-17T11:39:23.908Z</time></trkpt><trkpt lat="42.619705" lon="-8.71986"><ele>238.5</ele><time>2026-04-17T11:39:24.907Z</time></trkpt><trkpt lat="42.6198567" lon="-8.7197883"><ele>242.0</ele><time>2026-04-17T11:39:25.908Z</time></trkpt><trkpt lat="42.6199983" lon="-8.7197283"><ele>245.5</ele><time>2026-04-17T11:39:26.907Z</time></trkpt><trkpt lat="42.6201267" lon="-8.7196767"><ele>249.0</ele><time>2026-04-17T11:39:27.907Z</time></trkpt><trkpt lat="42.62024" lon="-8.719635"><ele>250.16666666666666</ele><time>2026-04-17T11:39:28.908Z</time></trkpt><trkpt lat="42.6203333" lon="-8.7196017"><ele>251.33333333333331</ele><time>2026-04-17T11:39:29.908Z</time></trkpt><trkpt lat="42.6204233" lon="-8.71956"><ele>252.5</ele><time>2026-04-17T11:39:30.907Z</time></trkpt><trkpt lat="42.6204833" lon="-8.7194733"><ele>253.66666666666666</ele><time>2026-04-17T11:39:32.907Z</time></trkpt><trkpt lat="42.6204417" lon="-8.7193633"><ele>254.83333333333331</ele><time>2026-04-17T11:39:34.907Z</time></trkpt><trkpt lat="42.620395" lon="-8.7193017"><ele>256.0</ele><time>2026-04-17T11:39:35.907Z</time></trkpt><trkpt lat="42.6203333" lon="-8.71924"><ele>253.60000000000002</ele><time>2026-04-17T11:39:36.907Z</time></trkpt><trkpt lat="42.6202533" lon="-8.7192"><ele>251.20000000000002</ele><time>2026-04-17T11:39:37.908Z</time></trkpt><trkpt lat="42.620155" lon="-8.7191883"><ele>248.79999999999998</ele><time>2026-04-17T11:39:38.908Z</time></trkpt><trkpt lat="42.6200617" lon="-8.7191667"><ele>246.39999999999998</ele><time>2026-04-17T11:39:39.908Z</time></trkpt><trkpt lat="42.6199667" lon="-8.71913"><ele>244.0</ele><time>2026-04-17T11:39:40.907Z</time></trkpt><trkpt lat="42.619855" lon="-8.7190817"><ele>244.0</ele><time>2026-04-17T11:39:41.907Z</time></trkpt><trkpt lat="42.6197367" lon="-8.719015"><ele>244.0</ele><time>2026-04-17T11:39:42.908Z</time></trkpt><trkpt lat="42.6196083" lon="-8.7189367"><ele>244.0</ele><time>2026-04-17T11:39:43.907Z</time></trkpt><trkpt lat="42.61947" lon="-8.71883"><ele>244.0</ele><time>2026-04-17T11:39:44.908Z</time></trkpt><trkpt lat="42.6193217" lon="-8.718685"><ele>245.0</ele><time>2026-04-17T11:39:45.907Z</time></trkpt><trkpt lat="42.6191633" lon="-8.718525"><ele>246.0</ele><time>2026-04-17T11:39:46.907Z</time></trkpt><trkpt lat="42.6189917" lon="-8.7183767"><ele>247.0</ele><time>2026-04-17T11:39:47.907Z</time></trkpt><trkpt lat="42.6188367" lon="-8.7182367"><ele>247.0</ele><time>2026-04-17T11:39:48.908Z</time></trkpt><trkpt lat="42.6187033" lon="-8.7180883"><ele>247.0</ele><time>2026-04-17T11:39:49.907Z</time></trkpt><trkpt lat="42.6185783" lon="-8.7179"><ele>247.0</ele><time>2026-04-17T11:39:50.907Z</time></trkpt><trkpt lat="42.6184817" lon="-8.717715"><ele>246.0</ele><time>2026-04-17T11:39:51.907Z</time></trkpt><trkpt lat="42.618405" lon="-8.7175683"><ele>245.0</ele><time>2026-04-17T11:39:52.907Z</time></trkpt><trkpt lat="42.61833" lon="-8.7174817"><ele>244.0</ele><time>2026-04-17T11:39:53.908Z</time></trkpt><trkpt lat="42.6182167" lon="-8.7174617"><ele>243.0</ele><time>2026-04-17T11:39:55.907Z</time></trkpt><trkpt lat="42.6181433" lon="-8.7175067"><ele>242.0</ele><time>2026-04-17T11:39:56.907Z</time></trkpt><trkpt lat="42.618045" lon="-8.7175967"><ele>242.0</ele><time>2026-04-17T11:39:57.908Z</time></trkpt><trkpt lat="42.61792" lon="-8.7177083"><ele>242.0</ele><time>2026-04-17T11:39:58.907Z</time></trkpt><trkpt lat="42.61779" lon="-8.717795"><ele>242.0</ele><time>2026-04-17T11:39:59.908Z</time></trkpt><trkpt lat="42.6176717" lon="-8.717825"><ele>242.0</ele><time>2026-04-17T11:40:00.908Z</time></trkpt><trkpt lat="42.61757" lon="-8.7178033"><ele>240.33333333333334</ele><time>2026-04-17T11:40:01.907Z</time></trkpt><trkpt lat="42.61746" lon="-8.7177267"><ele>238.66666666666669</ele><time>2026-04-17T11:40:02.907Z</time></trkpt><trkpt lat="42.617335" lon="-8.7176083"><ele>237.0</ele><time>2026-04-17T11:40:03.907Z</time></trkpt><trkpt lat="42.6171883" lon="-8.7174717"><ele>237.0</ele><time>2026-04-17T11:40:04.908Z</time></trkpt><trkpt lat="42.6170283" lon="-8.717325"><ele>237.0</ele><time>2026-04-17T11:40:05.908Z</time></trkpt><trkpt lat="42.61687" lon="-8.7171717"><ele>237.0</ele><time>2026-04-17T11:40:06.907Z</time></trkpt><trkpt lat="42.6167217" lon="-8.7170217"><ele>234.0</ele><time>2026-04-17T11:40:07.907Z</time></trkpt><trkpt lat="42.6166017" lon="-8.7168367"><ele>231.0</ele><time>2026-04-17T11:40:08.907Z</time></trkpt><trkpt lat="42.616475" lon="-8.7166267"><ele>228.0</ele><time>2026-04-17T11:40:09.907Z</time></trkpt><trkpt lat="42.616385" lon="-8.7164617"><ele>228.0</ele><time>2026-04-17T11:40:10.907Z</time></trkpt><trkpt lat="42.6163083" lon="-8.7163417"><ele>228.0</ele><time>2026-04-17T11:40:11.908Z</time></trkpt><trkpt lat="42.6162433" lon="-8.7162833"><ele>228.0</ele><time>2026-04-17T11:40:12.907Z</time></trkpt><trkpt lat="42.6161417" lon="-8.7163167"><ele>228.0</ele><time>2026-04-17T11:40:14.908Z</time></trkpt><trkpt lat="42.6160717" lon="-8.7164083"><ele>228.0</ele><time>2026-04-17T11:40:15.907Z</time></trkpt><trkpt lat="42.6159767" lon="-8.7165167"><ele>226.25</ele><time>2026-04-17T11:40:16.907Z</time></trkpt><trkpt lat="42.61587" lon="-8.71659"><ele>224.5</ele><time>2026-04-17T11:40:17.907Z</time></trkpt><trkpt lat="42.61576" lon="-8.7166117"><ele>222.75</ele><time>2026-04-17T11:40:18.908Z</time></trkpt><trkpt lat="42.6156183" lon="-8.7166067"><ele>221.0</ele><time>2026-04-17T11:40:19.908Z</time></trkpt><trkpt lat="42.6154667" lon="-8.71655"><ele>221.33333333333334</ele><time>2026-04-17T11:40:20.907Z</time></trkpt><trkpt lat="42.6152933" lon="-8.7164867"><ele>221.66666666666669</ele><time>2026-04-17T11:40:21.908Z</time></trkpt><trkpt lat="42.615115" lon="-8.71643"><ele>222.0</ele><time>2026-04-17T11:40:22.908Z</time></trkpt><trkpt lat="42.6149467" lon="-8.716365"><ele>222.0</ele><time>2026-04-17T11:40:23.908Z</time></trkpt><trkpt lat="42.6147917" lon="-8.7162683"><ele>222.0</ele><time>2026-04-17T11:40:24.908Z</time></trkpt><trkpt lat="42.614655" lon="-8.716135"><ele>222.0</ele><time>2026-04-17T11:40:25.908Z</time></trkpt><trkpt lat="42.6145367" lon="-8.7159717"><ele>222.66666666666669</ele><time>2026-04-17T11:40:26.907Z</time></trkpt><trkpt lat="42.6144233" lon="-8.715765"><ele>223.33333333333334</ele><time>2026-04-17T11:40:27.907Z</time></trkpt><trkpt lat="42.6143267" lon="-8.7155433"><ele>224.0</ele><time>2026-04-17T11:40:28.907Z</time></trkpt><trkpt lat="42.6142583" lon="-8.71536"><ele>224.0</ele><time>2026-04-17T11:40:29.908Z</time></trkpt><trkpt lat="42.614205" lon="-8.71523"><ele>223.99999999999997</ele><time>2026-04-17T11:40:30.907Z</time></trkpt><trkpt lat="42.6141517" lon="-8.7151633"><ele>223.99999999999997</ele><time>2026-04-17T11:40:31.908Z</time></trkpt><trkpt lat="42.6140283" lon="-8.7151817"><ele>224.0</ele><time>2026-04-17T11:40:33.908Z</time></trkpt><trkpt lat="42.61396" lon="-8.7152733"><ele>224.0</ele><time>2026-04-17T11:40:34.908Z</time></trkpt><trkpt lat="42.6138817" lon="-8.71545"><ele>224.0</ele><time>2026-04-17T11:40:35.908Z</time></trkpt><trkpt lat="42.613805" lon="-8.71558"><ele>224.0</ele><time>2026-04-17T11:40:36.907Z</time></trkpt><trkpt lat="42.6137117" lon="-8.7156367"><ele>224.0</ele><time>2026-04-17T11:40:37.908Z</time></trkpt><trkpt lat="42.613605" lon="-8.7156467"><ele>224.0</ele><time>2026-04-17T11:40:38.907Z</time></trkpt><trkpt lat="42.6134883" lon="-8.7156167"><ele>224.75</ele><time>2026-04-17T11:40:39.908Z</time></trkpt><trkpt lat="42.613375" lon="-8.715545"><ele>225.5</ele><time>2026-04-17T11:40:40.907Z</time></trkpt><trkpt lat="42.6132867" lon="-8.7154283"><ele>226.25</ele><time>2026-04-17T11:40:41.907Z</time></trkpt><trkpt lat="42.6132367" lon="-8.7152833"><ele>227.0</ele><time>2026-04-17T11:40:42.907Z</time></trkpt><trkpt lat="42.6132033" lon="-8.7151033"><ele>227.0</ele><time>2026-04-17T11:40:43.908Z</time></trkpt><trkpt lat="42.613155" lon="-8.7149"><ele>227.0</ele><time>2026-04-17T11:40:44.908Z</time></trkpt><trkpt lat="42.61308" lon="-8.714715"><ele>227.0</ele><time>2026-04-17T11:40:45.908Z</time></trkpt><trkpt lat="42.6129817" lon="-8.7145633"><ele>227.0</ele><time>2026-04-17T11:40:46.908Z</time></trkpt><trkpt lat="42.61287" lon="-8.7144467"><ele>227.0</ele><time>2026-04-17T11:40:47.908Z</time></trkpt><trkpt lat="42.61278" lon="-8.7143733"><ele>227.0</ele><time>2026-04-17T11:40:48.907Z</time></trkpt><trkpt lat="42.612705" lon="-8.71437"><ele>227.0</ele><time>2026-04-17T11:40:49.908Z</time></trkpt><trkpt lat="42.6126433" lon="-8.7144117"><ele>227.0</ele><time>2026-04-17T11:40:50.907Z</time></trkpt><trkpt lat="42.6125783" lon="-8.7144967"><ele>225.25</ele><time>2026-04-17T11:40:51.907Z</time></trkpt><trkpt lat="42.612495" lon="-8.7146017"><ele>223.5</ele><time>2026-04-17T11:40:52.907Z</time></trkpt><trkpt lat="42.6123933" lon="-8.7146883"><ele>221.75</ele><time>2026-04-17T11:40:53.907Z</time></trkpt><trkpt lat="42.612265" lon="-8.7147417"><ele>220.0</ele><time>2026-04-17T11:40:54.908Z</time></trkpt><trkpt lat="42.6121133" lon="-8.7147767"><ele>221.0</ele><time>2026-04-17T11:40:55.908Z</time></trkpt><trkpt lat="42.6119433" lon="-8.714805"><ele>222.0</ele><time>2026-04-17T11:40:56.908Z</time></trkpt><trkpt lat="42.61176" lon="-8.71483"><ele>223.0</ele><time>2026-04-17T11:40:57.907Z</time></trkpt><trkpt lat="42.61157" lon="-8.7148533"><ele>223.0</ele><time>2026-04-17T11:40:58.907Z</time></trkpt><trkpt lat="42.611385" lon="-8.7148683"><ele>223.0</ele><time>2026-04-17T11:40:59.907Z</time></trkpt><trkpt lat="42.6112267" lon="-8.7148683"><ele>223.0</ele><time>2026-04-17T11:41:00.908Z</time></trkpt><trkpt lat="42.6111083" lon="-8.7148483"><ele>223.75</ele><time>2026-04-17T11:41:01.908Z</time></trkpt><trkpt lat="42.6110067" lon="-8.7147933"><ele>224.5</ele><time>2026-04-17T11:41:02.908Z</time></trkpt><trkpt lat="42.61093" lon="-8.71469"><ele>225.25</ele><time>2026-04-17T11:41:03.907Z</time></trkpt><trkpt lat="42.6108617" lon="-8.7145367"><ele>226.0</ele><time>2026-04-17T11:41:04.907Z</time></trkpt><trkpt lat="42.6108133" lon="-8.7143283"><ele>226.0</ele><time>2026-04-17T11:41:05.908Z</time></trkpt><trkpt lat="42.610785" lon="-8.7140717"><ele>226.0</ele><time>2026-04-17T11:41:06.908Z</time></trkpt><trkpt lat="42.6107683" lon="-8.713825"><ele>226.0</ele><time>2026-04-17T11:41:07.908Z</time></trkpt><trkpt lat="42.610735" lon="-8.7136117"><ele>227.8</ele><time>2026-04-17T11:41:08.907Z</time></trkpt><trkpt lat="42.610685" lon="-8.7134533"><ele>229.60000000000002</ele><time>2026-04-17T11:41:09.907Z</time></trkpt><trkpt lat="42.61062" lon="-8.71334"><ele>231.4</ele><time>2026-04-17T11:41:10.907Z</time></trkpt><trkpt lat="42.61057" lon="-8.7132717"><ele>233.2</ele><time>2026-04-17T11:41:11.907Z</time></trkpt><trkpt lat="42.610545" lon="-8.7131617"><ele>235.0</ele><time>2026-04-17T11:41:28.907Z</time></trkpt><trkpt lat="42.6105817" lon="-8.7130917"><ele>234.99999999999997</ele><time>2026-04-17T11:41:29.908Z</time></trkpt><trkpt lat="42.6106367" lon="-8.7130183"><ele>235.0</ele><time>2026-04-17T11:41:30.908Z</time></trkpt><trkpt lat="42.610705" lon="-8.7129567"><ele>235.0</ele><time>2026-04-17T11:41:31.908Z</time></trkpt><trkpt lat="42.61078" lon="-8.7129283"><ele>235.0</ele><time>2026-04-17T11:41:32.907Z</time></trkpt><trkpt lat="42.6108583" lon="-8.7129333"><ele>234.99999999999997</ele><time>2026-04-17T11:41:33.908Z</time></trkpt><trkpt lat="42.6109467" lon="-8.7129867"><ele>235.0</ele><time>2026-04-17T11:41:34.907Z</time></trkpt><trkpt lat="42.6110467" lon="-8.7130683"><ele>235.0</ele><time>2026-04-17T11:41:35.907Z</time></trkpt><trkpt lat="42.6111517" lon="-8.7131667"><ele>235.0</ele><time>2026-04-17T11:41:36.907Z</time></trkpt><trkpt lat="42.6112617" lon="-8.7132833"><ele>235.0</ele><time>2026-04-17T11:41:37.908Z</time></trkpt><trkpt lat="42.61137" lon="-8.7133833"><ele>235.0</ele><time>2026-04-17T11:41:38.907Z</time></trkpt><trkpt lat="42.6114717" lon="-8.7134617"><ele>239.5</ele><time>2026-04-17T11:41:39.908Z</time></trkpt><trkpt lat="42.6115883" lon="-8.71349"><ele>244.0</ele><time>2026-04-17T11:41:40.907Z</time></trkpt><trkpt lat="42.6117033" lon="-8.7135017"><ele>248.5</ele><time>2026-04-17T11:41:41.907Z</time></trkpt><trkpt lat="42.611825" lon="-8.7134967"><ele>253.0</ele><time>2026-04-17T11:41:42.907Z</time></trkpt><trkpt lat="42.6119467" lon="-8.7134733"><ele>253.75</ele><time>2026-04-17T11:41:43.908Z</time></trkpt><trkpt lat="42.612075" lon="-8.713435"><ele>254.5</ele><time>2026-04-17T11:41:44.907Z</time></trkpt><trkpt lat="42.6122017" lon="-8.7133783"><ele>255.25</ele><time>2026-04-17T11:41:45.907Z</time></trkpt><trkpt lat="42.6123417" lon="-8.7133033"><ele>256.0</ele><time>2026-04-17T11:41:46.908Z</time></trkpt><trkpt lat="42.6124567" lon="-8.7132567"><ele>256.0</ele><time>2026-04-17T11:41:47.908Z</time></trkpt><trkpt lat="42.6125317" lon="-8.7132217"><ele>256.0</ele><time>2026-04-17T11:41:48.908Z</time></trkpt><trkpt lat="42.6124733" lon="-8.7131633"><ele>256.0</ele><time>2026-04-17T11:41:53.908Z</time></trkpt><trkpt lat="42.6123483" lon="-8.71312"><ele>256.0</ele><time>2026-04-17T11:41:55.908Z</time></trkpt><trkpt lat="42.61226" lon="-8.713035"><ele>256.0</ele><time>2026-04-17T11:41:56.907Z</time></trkpt><trkpt lat="42.6121717" lon="-8.7129517"><ele>256.0</ele><time>2026-04-17T11:41:57.907Z</time></trkpt><trkpt lat="42.612075" lon="-8.7128567"><ele>256.0</ele><time>2026-04-17T11:41:58.907Z</time></trkpt><trkpt lat="42.6119783" lon="-8.7127917"><ele>256.0</ele><time>2026-04-17T11:41:59.908Z</time></trkpt><trkpt lat="42.61191" lon="-8.7127267"><ele>256.0</ele><time>2026-04-17T11:42:00.908Z</time></trkpt><trkpt lat="42.611835" lon="-8.7126617"><ele>256.0</ele><time>2026-04-17T11:42:01.908Z</time></trkpt><trkpt lat="42.6117417" lon="-8.71257"><ele>258.0</ele><time>2026-04-17T11:42:02.907Z</time></trkpt><trkpt lat="42.6116383" lon="-8.71246"><ele>260.0</ele><time>2026-04-17T11:42:03.908Z</time></trkpt><trkpt lat="42.6115433" lon="-8.7123467"><ele>262.0</ele><time>2026-04-17T11:42:04.908Z</time></trkpt><trkpt lat="42.611465" lon="-8.71226"><ele>264.0</ele><time>2026-04-17T11:42:05.908Z</time></trkpt><trkpt lat="42.6114017" lon="-8.7121667"><ele>264.0</ele><time>2026-04-17T11:42:06.909Z</time></trkpt><trkpt lat="42.6113767" lon="-8.712055"><ele>264.0</ele><time>2026-04-17T11:42:07.908Z</time></trkpt><trkpt lat="42.61138" lon="-8.7119233"><ele>264.0</ele><time>2026-04-17T11:42:08.909Z</time></trkpt><trkpt lat="42.611415" lon="-8.7117867"><ele>264.0</ele><time>2026-04-17T11:42:09.908Z</time></trkpt><trkpt lat="42.611475" lon="-8.7116433"><ele>264.0</ele><time>2026-04-17T11:42:10.909Z</time></trkpt><trkpt lat="42.6115433" lon="-8.7115317"><ele>264.8</ele><time>2026-04-17T11:42:11.908Z</time></trkpt><trkpt lat="42.6116167" lon="-8.7114383"><ele>265.59999999999997</ele><time>2026-04-17T11:42:12.908Z</time></trkpt><trkpt lat="42.6116917" lon="-8.7113333"><ele>266.4</ele><time>2026-04-17T11:42:13.909Z</time></trkpt><trkpt lat="42.6117517" lon="-8.7112283"><ele>267.2</ele><time>2026-04-17T11:42:14.908Z</time></trkpt><trkpt lat="42.6117933" lon="-8.7111233"><ele>268.0</ele><time>2026-04-17T11:42:15.908Z</time></trkpt><trkpt lat="42.6118033" lon="-8.71102"><ele>268.0</ele><time>2026-04-17T11:42:16.909Z</time></trkpt><trkpt lat="42.6117767" lon="-8.7109267"><ele>268.0</ele><time>2026-04-17T11:42:17.908Z</time></trkpt><trkpt lat="42.6117167" lon="-8.7108417"><ele>268.0</ele><time>2026-04-17T11:42:18.909Z</time></trkpt><trkpt lat="42.6116183" lon="-8.71077"><ele>268.0</ele><time>2026-04-17T11:42:19.908Z</time></trkpt><trkpt lat="42.6114967" lon="-8.7106883"><ele>268.0</ele><time>2026-04-17T11:42:20.908Z</time></trkpt><trkpt lat="42.6113783" lon="-8.710605"><ele>268.0</ele><time>2026-04-17T11:42:21.908Z</time></trkpt><trkpt lat="42.611265" lon="-8.7105133"><ele>268.0</ele><time>2026-04-17T11:42:22.908Z</time></trkpt><trkpt lat="42.6111517" lon="-8.7104133"><ele>268.0</ele><time>2026-04-17T11:42:23.908Z</time></trkpt><trkpt lat="42.6110417" lon="-8.710325"><ele>268.0</ele><time>2026-04-17T11:42:24.908Z</time></trkpt><trkpt lat="42.6109317" lon="-8.71024"><ele>268.2</ele><time>2026-04-17T11:42:25.908Z</time></trkpt><trkpt lat="42.6108283" lon="-8.7101467"><ele>268.4</ele><time>2026-04-17T11:42:26.909Z</time></trkpt><trkpt lat="42.610735" lon="-8.7100467"><ele>268.59999999999997</ele><time>2026-04-17T11:42:27.909Z</time></trkpt><trkpt lat="42.6106533" lon="-8.709945"><ele>268.8</ele><time>2026-04-17T11:42:28.909Z</time></trkpt><trkpt lat="42.6105883" lon="-8.70986"><ele>269.0</ele><time>2026-04-17T11:42:29.909Z</time></trkpt><trkpt lat="42.6105317" lon="-8.7097933"><ele>269.0</ele><time>2026-04-17T11:42:30.909Z</time></trkpt><trkpt lat="42.6104683" lon="-8.7097533"><ele>269.0</ele><time>2026-04-17T11:42:31.909Z</time></trkpt><trkpt lat="42.6103917" lon="-8.709745"><ele>269.0</ele><time>2026-04-17T11:42:32.908Z</time></trkpt><trkpt lat="42.6103033" lon="-8.7097633"><ele>269.0</ele><time>2026-04-17T11:42:33.908Z</time></trkpt><trkpt lat="42.6102067" lon="-8.7097933"><ele>269.0</ele><time>2026-04-17T11:42:34.908Z</time></trkpt><trkpt lat="42.6101117" lon="-8.7098217"><ele>269.0</ele><time>2026-04-17T11:42:35.909Z</time></trkpt><trkpt lat="42.6100333" lon="-8.7098633"><ele>267.4</ele><time>2026-04-17T11:42:36.908Z</time></trkpt><trkpt lat="42.609955" lon="-8.70992"><ele>265.79999999999995</ele><time>2026-04-17T11:42:37.908Z</time></trkpt><trkpt lat="42.6098883" lon="-8.7100083"><ele>264.20000000000005</ele><time>2026-04-17T11:42:38.909Z</time></trkpt><trkpt lat="42.6098333" lon="-8.7101283"><ele>262.6</ele><time>2026-04-17T11:42:39.909Z</time></trkpt><trkpt lat="42.6097767" lon="-8.71025"><ele>261.0</ele><time>2026-04-17T11:42:40.909Z</time></trkpt><trkpt lat="42.6097017" lon="-8.71037"><ele>259.25</ele><time>2026-04-17T11:42:41.908Z</time></trkpt><trkpt lat="42.609615" lon="-8.7104717"><ele>257.5</ele><time>2026-04-17T11:42:42.909Z</time></trkpt><trkpt lat="42.609515" lon="-8.7105883"><ele>255.75</ele><time>2026-04-17T11:42:43.909Z</time></trkpt><trkpt lat="42.609415" lon="-8.7107267"><ele>254.0</ele><time>2026-04-17T11:42:44.908Z</time></trkpt><trkpt lat="42.60933" lon="-8.7108667"><ele>254.0</ele><time>2026-04-17T11:42:45.909Z</time></trkpt><trkpt lat="42.6092617" lon="-8.7109983"><ele>253.99999999999997</ele><time>2026-04-17T11:42:46.909Z</time></trkpt><trkpt lat="42.6091983" lon="-8.7111233"><ele>253.99999999999997</ele><time>2026-04-17T11:42:47.908Z</time></trkpt><trkpt lat="42.6091567" lon="-8.7112417"><ele>254.0</ele><time>2026-04-17T11:42:48.908Z</time></trkpt><trkpt lat="42.6091383" lon="-8.7113583"><ele>254.0</ele><time>2026-04-17T11:42:49.908Z</time></trkpt><trkpt lat="42.6091467" lon="-8.7114583"><ele>252.0</ele><time>2026-04-17T11:42:50.908Z</time></trkpt><trkpt lat="42.6091867" lon="-8.711545"><ele>249.99999999999997</ele><time>2026-04-17T11:42:51.909Z</time></trkpt><trkpt lat="42.6092533" lon="-8.7116233"><ele>247.99999999999997</ele><time>2026-04-17T11:42:52.909Z</time></trkpt><trkpt lat="42.6093217" lon="-8.711715"><ele>246.0</ele><time>2026-04-17T11:42:53.909Z</time></trkpt><trkpt lat="42.60937" lon="-8.711825"><ele>244.0</ele><time>2026-04-17T11:42:54.909Z</time></trkpt><trkpt lat="42.6094" lon="-8.7119517"><ele>241.79999999999998</ele><time>2026-04-17T11:42:55.908Z</time></trkpt><trkpt lat="42.6093933" lon="-8.712075"><ele>239.59999999999997</ele><time>2026-04-17T11:42:56.908Z</time></trkpt><trkpt lat="42.6093467" lon="-8.712195"><ele>237.4</ele><time>2026-04-17T11:42:57.909Z</time></trkpt><trkpt lat="42.6092717" lon="-8.7123083"><ele>235.2</ele><time>2026-04-17T11:42:58.908Z</time></trkpt><trkpt lat="42.6091933" lon="-8.7124167"><ele>233.0</ele><time>2026-04-17T11:42:59.909Z</time></trkpt><trkpt lat="42.6091183" lon="-8.7125583"><ele>233.0</ele><time>2026-04-17T11:43:00.908Z</time></trkpt><trkpt lat="42.6090567" lon="-8.7127383"><ele>233.0</ele><time>2026-04-17T11:43:01.909Z</time></trkpt><trkpt lat="42.6090033" lon="-8.7129333"><ele>233.0</ele><time>2026-04-17T11:43:02.909Z</time></trkpt><trkpt lat="42.6089533" lon="-8.7131133"><ele>233.0</ele><time>2026-04-17T11:43:03.908Z</time></trkpt><trkpt lat="42.6089017" lon="-8.7132733"><ele>231.5</ele><time>2026-04-17T11:43:04.908Z</time></trkpt><trkpt lat="42.6088317" lon="-8.71339"><ele>230.0</ele><time>2026-04-17T11:43:05.908Z</time></trkpt><trkpt lat="42.6087217" lon="-8.713495"><ele>228.5</ele><time>2026-04-17T11:43:06.909Z</time></trkpt><trkpt lat="42.608585" lon="-8.713595"><ele>227.0</ele><time>2026-04-17T11:43:07.909Z</time></trkpt><trkpt lat="42.6084417" lon="-8.7136917"><ele>226.33333333333334</ele><time>2026-04-17T11:43:08.908Z</time></trkpt><trkpt lat="42.6082917" lon="-8.7137917"><ele>225.66666666666669</ele><time>2026-04-17T11:43:09.909Z</time></trkpt><trkpt lat="42.608155" lon="-8.7138567"><ele>225.0</ele><time>2026-04-17T11:43:10.908Z</time></trkpt><trkpt lat="42.6080183" lon="-8.7139283"><ele>225.0</ele><time>2026-04-17T11:43:11.909Z</time></trkpt><trkpt lat="42.60788" lon="-8.7140283"><ele>225.0</ele><time>2026-04-17T11:43:12.909Z</time></trkpt><trkpt lat="42.60773" lon="-8.71417"><ele>225.0</ele><time>2026-04-17T11:43:13.909Z</time></trkpt><trkpt lat="42.60757" lon="-8.7143483"><ele>224.0</ele><time>2026-04-17T11:43:14.909Z</time></trkpt><trkpt lat="42.607395" lon="-8.7145617"><ele>223.0</ele><time>2026-04-17T11:43:15.909Z</time></trkpt><trkpt lat="42.607205" lon="-8.71477"><ele>223.0</ele><time>2026-04-17T11:43:16.908Z</time></trkpt><trkpt lat="42.6070133" lon="-8.71496"><ele>223.0</ele><time>2026-04-17T11:43:17.908Z</time></trkpt><trkpt lat="42.6068367" lon="-8.7151183"><ele>223.0</ele><time>2026-04-17T11:43:18.909Z</time></trkpt><trkpt lat="42.6066783" lon="-8.7152567"><ele>218.33333333333331</ele><time>2026-04-17T11:43:19.908Z</time></trkpt><trkpt lat="42.6065317" lon="-8.7153967"><ele>213.66666666666669</ele><time>2026-04-17T11:43:20.908Z</time></trkpt><trkpt lat="42.606375" lon="-8.7155317"><ele>209.0</ele><time>2026-04-17T11:43:21.908Z</time></trkpt><trkpt lat="42.6062217" lon="-8.7156417"><ele>206.66666666666669</ele><time>2026-04-17T11:43:22.909Z</time></trkpt><trkpt lat="42.6060917" lon="-8.7157467"><ele>204.33333333333331</ele><time>2026-04-17T11:43:23.908Z</time></trkpt><trkpt lat="42.60598" lon="-8.715885"><ele>202.0</ele><time>2026-04-17T11:43:24.908Z</time></trkpt><trkpt lat="42.6058667" lon="-8.7160567"><ele>199.0</ele><time>2026-04-17T11:43:25.909Z</time></trkpt><trkpt lat="42.6057417" lon="-8.7162183"><ele>196.0</ele><time>2026-04-17T11:43:26.909Z</time></trkpt><trkpt lat="42.6055933" lon="-8.7163617"><ele>193.0</ele><time>2026-04-17T11:43:27.909Z</time></trkpt><trkpt lat="42.6054483" lon="-8.7164983"><ele>191.66666666666666</ele><time>2026-04-17T11:43:28.908Z</time></trkpt><trkpt lat="42.6053217" lon="-8.7166433"><ele>190.33333333333331</ele><time>2026-04-17T11:43:29.908Z</time></trkpt><trkpt lat="42.6052167" lon="-8.7168167"><ele>189.0</ele><time>2026-04-17T11:43:30.909Z</time></trkpt><trkpt lat="42.60513" lon="-8.7169967"><ele>185.5</ele><time>2026-04-17T11:43:31.909Z</time></trkpt><trkpt lat="42.6050467" lon="-8.7171583"><ele>182.0</ele><time>2026-04-17T11:43:32.908Z</time></trkpt><trkpt lat="42.6049633" lon="-8.7173033"><ele>178.5</ele><time>2026-04-17T11:43:33.909Z</time></trkpt><trkpt lat="42.6048767" lon="-8.7174167"><ele>175.0</ele><time>2026-04-17T11:43:34.908Z</time></trkpt><trkpt lat="42.6047833" lon="-8.7175033"><ele>175.0</ele><time>2026-04-17T11:43:35.908Z</time></trkpt><trkpt lat="42.6046617" lon="-8.717575"><ele>175.0</ele><time>2026-04-17T11:43:36.908Z</time></trkpt><trkpt lat="42.604515" lon="-8.7176383"><ele>175.0</ele><time>2026-04-17T11:43:37.909Z</time></trkpt><trkpt lat="42.6043633" lon="-8.7177117"><ele>175.0</ele><time>2026-04-17T11:43:38.908Z</time></trkpt><trkpt lat="42.604225" lon="-8.7177883"><ele>175.5</ele><time>2026-04-17T11:43:39.909Z</time></trkpt><trkpt lat="42.604115" lon="-8.7178433"><ele>176.0</ele><time>2026-04-17T11:43:40.908Z</time></trkpt><trkpt lat="42.6040333" lon="-8.7178383"><ele>176.5</ele><time>2026-04-17T11:43:41.908Z</time></trkpt><trkpt lat="42.6039683" lon="-8.7178117"><ele>177.0</ele><time>2026-04-17T11:43:42.909Z</time></trkpt><trkpt lat="42.6039117" lon="-8.7177617"><ele>177.5</ele><time>2026-04-17T11:43:43.908Z</time></trkpt><trkpt lat="42.6038767" lon="-8.71768"><ele>178.0</ele><time>2026-04-17T11:43:44.908Z</time></trkpt><trkpt lat="42.6038683" lon="-8.71756"><ele>178.0</ele><time>2026-04-17T11:43:45.908Z</time></trkpt><trkpt lat="42.6038767" lon="-8.7174067"><ele>178.0</ele><time>2026-04-17T11:43:46.909Z</time></trkpt><trkpt lat="42.6038917" lon="-8.71722"><ele>178.0</ele><time>2026-04-17T11:43:47.909Z</time></trkpt><trkpt lat="42.603915" lon="-8.7170117"><ele>178.0</ele><time>2026-04-17T11:43:48.909Z</time></trkpt><trkpt lat="42.6039333" lon="-8.7168117"><ele>181.4</ele><time>2026-04-17T11:43:49.908Z</time></trkpt><trkpt lat="42.6039383" lon="-8.7166483"><ele>184.8</ele><time>2026-04-17T11:43:50.909Z</time></trkpt><trkpt lat="42.60392" lon="-8.7165217"><ele>188.2</ele><time>2026-04-17T11:43:51.908Z</time></trkpt><trkpt lat="42.6038817" lon="-8.7164217"><ele>191.6</ele><time>2026-04-17T11:43:52.908Z</time></trkpt><trkpt lat="42.6038217" lon="-8.7163517"><ele>195.0</ele><time>2026-04-17T11:43:53.908Z</time></trkpt><trkpt lat="42.6037317" lon="-8.7163133"><ele>195.0</ele><time>2026-04-17T11:43:54.909Z</time></trkpt><trkpt lat="42.6036083" lon="-8.7162883"><ele>195.0</ele><time>2026-04-17T11:43:55.909Z</time></trkpt><trkpt lat="42.6034483" lon="-8.7162683"><ele>195.0</ele><time>2026-04-17T11:43:56.909Z</time></trkpt><trkpt lat="42.6032783" lon="-8.7162233"><ele>195.0</ele><time>2026-04-17T11:43:57.909Z</time></trkpt><trkpt lat="42.6031317" lon="-8.716155"><ele>195.0</ele><time>2026-04-17T11:43:58.908Z</time></trkpt><trkpt lat="42.6029867" lon="-8.7160583"><ele>195.0</ele><time>2026-04-17T11:43:59.909Z</time></trkpt><trkpt lat="42.6028217" lon="-8.7159533"><ele>200.0</ele><time>2026-04-17T11:44:00.909Z</time></trkpt><trkpt lat="42.602645" lon="-8.715855"><ele>205.0</ele><time>2026-04-17T11:44:01.908Z</time></trkpt><trkpt lat="42.6024617" lon="-8.71577"><ele>210.0</ele><time>2026-04-17T11:44:02.908Z</time></trkpt><trkpt lat="42.60228" lon="-8.7157117"><ele>210.0</ele><time>2026-04-17T11:44:03.908Z</time></trkpt><trkpt lat="42.60211" lon="-8.71567"><ele>210.0</ele><time>2026-04-17T11:44:04.908Z</time></trkpt><trkpt lat="42.6019667" lon="-8.71562"><ele>210.0</ele><time>2026-04-17T11:44:05.909Z</time></trkpt><trkpt lat="42.6018517" lon="-8.7155433"><ele>210.0</ele><time>2026-04-17T11:44:06.908Z</time></trkpt><trkpt lat="42.60176" lon="-8.7154383"><ele>210.5</ele><time>2026-04-17T11:44:07.908Z</time></trkpt><trkpt lat="42.601685" lon="-8.71531"><ele>211.0</ele><time>2026-04-17T11:44:08.908Z</time></trkpt><trkpt lat="42.6016283" lon="-8.7151583"><ele>211.5</ele><time>2026-04-17T11:44:09.909Z</time></trkpt><trkpt lat="42.60158" lon="-8.7149683"><ele>212.0</ele><time>2026-04-17T11:44:10.908Z</time></trkpt><trkpt lat="42.6015183" lon="-8.7147433"><ele>215.33333333333334</ele><time>2026-04-17T11:44:11.908Z</time></trkpt><trkpt lat="42.6014483" lon="-8.7144783"><ele>218.66666666666669</ele><time>2026-04-17T11:44:12.909Z</time></trkpt><trkpt lat="42.6013867" lon="-8.714175"><ele>222.0</ele><time>2026-04-17T11:44:13.908Z</time></trkpt><trkpt lat="42.601315" lon="-8.7138433"><ele>222.0</ele><time>2026-04-17T11:44:14.908Z</time></trkpt><trkpt lat="42.601245" lon="-8.7135133"><ele>222.0</ele><time>2026-04-17T11:44:15.908Z</time></trkpt><trkpt lat="42.601175" lon="-8.7132267"><ele>224.66666666666669</ele><time>2026-04-17T11:44:16.908Z</time></trkpt><trkpt lat="42.6011033" lon="-8.712985"><ele>227.33333333333334</ele><time>2026-04-17T11:44:17.908Z</time></trkpt><trkpt lat="42.6010367" lon="-8.7127817"><ele>230.0</ele><time>2026-04-17T11:44:18.908Z</time></trkpt><trkpt lat="42.6009717" lon="-8.7126217"><ele>230.0</ele><time>2026-04-17T11:44:19.908Z</time></trkpt><trkpt lat="42.6008783" lon="-8.7125183"><ele>230.0</ele><time>2026-04-17T11:44:20.908Z</time></trkpt><trkpt lat="42.6007633" lon="-8.7124517"><ele>230.0</ele><time>2026-04-17T11:44:21.909Z</time></trkpt><trkpt lat="42.6006567" lon="-8.7123883"><ele>230.0</ele><time>2026-04-17T11:44:22.908Z</time></trkpt><trkpt lat="42.6005767" lon="-8.7123433"><ele>230.0</ele><time>2026-04-17T11:44:23.908Z</time></trkpt><trkpt lat="42.6005167" lon="-8.7122767"><ele>230.0</ele><time>2026-04-17T11:44:25.909Z</time></trkpt><trkpt lat="42.6006" lon="-8.7122017"><ele>230.0</ele><time>2026-04-17T11:44:27.908Z</time></trkpt><trkpt lat="42.6006883" lon="-8.7121333"><ele>230.0</ele><time>2026-04-17T11:44:28.909Z</time></trkpt><trkpt lat="42.600795" lon="-8.7120517"><ele>230.0</ele><time>2026-04-17T11:44:29.908Z</time></trkpt><trkpt lat="42.6009183" lon="-8.7119483"><ele>230.33333333333334</ele><time>2026-04-17T11:44:30.908Z</time></trkpt><trkpt lat="42.601055" lon="-8.71183"><ele>230.66666666666669</ele><time>2026-04-17T11:44:31.909Z</time></trkpt><trkpt lat="42.6012067" lon="-8.7117"><ele>231.0</ele><time>2026-04-17T11:44:32.909Z</time></trkpt><trkpt lat="42.6013567" lon="-8.7115733"><ele>231.0</ele><time>2026-04-17T11:44:33.909Z</time></trkpt><trkpt lat="42.601465" lon="-8.7114767"><ele>231.0</ele><time>2026-04-17T11:44:34.908Z</time></trkpt><trkpt lat="42.601515" lon="-8.7114167"><ele>231.0</ele><time>2026-04-17T11:44:35.909Z</time></trkpt><trkpt lat="42.6015383" lon="-8.711305"><ele>231.0</ele><time>2026-04-17T11:44:37.909Z</time></trkpt><trkpt lat="42.6015683" lon="-8.71121"><ele>231.0</ele><time>2026-04-17T11:44:38.908Z</time></trkpt><trkpt lat="42.6016133" lon="-8.7111017"><ele>231.0</ele><time>2026-04-17T11:44:39.909Z</time></trkpt><trkpt lat="42.601685" lon="-8.710985"><ele>230.20000000000002</ele><time>2026-04-17T11:44:40.908Z</time></trkpt><trkpt lat="42.6017783" lon="-8.7108833"><ele>229.40000000000003</ele><time>2026-04-17T11:44:41.908Z</time></trkpt><trkpt lat="42.6018833" lon="-8.7107917"><ele>228.6</ele><time>2026-04-17T11:44:42.909Z</time></trkpt><trkpt lat="42.6019717" lon="-8.71072"><ele>227.8</ele><time>2026-04-17T11:44:43.909Z</time></trkpt><trkpt lat="42.6020433" lon="-8.710635"><ele>227.0</ele><time>2026-04-17T11:44:44.909Z</time></trkpt><trkpt lat="42.602095" lon="-8.710515"><ele>227.0</ele><time>2026-04-17T11:44:45.908Z</time></trkpt><trkpt lat="42.6021367" lon="-8.7103617"><ele>227.0</ele><time>2026-04-17T11:44:46.908Z</time></trkpt><trkpt lat="42.6021733" lon="-8.7101783"><ele>227.0</ele><time>2026-04-17T11:44:47.909Z</time></trkpt><trkpt lat="42.6022167" lon="-8.709965"><ele>227.0</ele><time>2026-04-17T11:44:48.908Z</time></trkpt><trkpt lat="42.6022683" lon="-8.7097367"><ele>224.33333333333334</ele><time>2026-04-17T11:44:49.909Z</time></trkpt><trkpt lat="42.6023267" lon="-8.70949"><ele>221.66666666666669</ele><time>2026-04-17T11:44:50.909Z</time></trkpt><trkpt lat="42.6023883" lon="-8.70925"><ele>219.0</ele><time>2026-04-17T11:44:51.908Z</time></trkpt><trkpt lat="42.6024533" lon="-8.7090183"><ele>218.66666666666669</ele><time>2026-04-17T11:44:52.909Z</time></trkpt><trkpt lat="42.6025167" lon="-8.708795"><ele>218.33333333333334</ele><time>2026-04-17T11:44:53.908Z</time></trkpt><trkpt lat="42.602565" lon="-8.7085733"><ele>218.0</ele><time>2026-04-17T11:44:54.908Z</time></trkpt><trkpt lat="42.6026083" lon="-8.7083567"><ele>216.0</ele><time>2026-04-17T11:44:55.909Z</time></trkpt><trkpt lat="42.6026483" lon="-8.708135"><ele>214.0</ele><time>2026-04-17T11:44:56.908Z</time></trkpt><trkpt lat="42.6027017" lon="-8.7079383"><ele>212.0</ele><time>2026-04-17T11:44:57.908Z</time></trkpt><trkpt lat="42.60276" lon="-8.7077667"><ele>207.66666666666669</ele><time>2026-04-17T11:44:58.909Z</time></trkpt><trkpt lat="42.6028367" lon="-8.7075917"><ele>203.33333333333331</ele><time>2026-04-17T11:44:59.908Z</time></trkpt><trkpt lat="42.6029183" lon="-8.7074133"><ele>199.0</ele><time>2026-04-17T11:45:00.909Z</time></trkpt><trkpt lat="42.60299" lon="-8.7072183"><ele>199.0</ele><time>2026-04-17T11:45:01.908Z</time></trkpt><trkpt lat="42.6030433" lon="-8.7070083"><ele>199.0</ele><time>2026-04-17T11:45:02.909Z</time></trkpt><trkpt lat="42.6030917" lon="-8.70678"><ele>199.0</ele><time>2026-04-17T11:45:03.908Z</time></trkpt><trkpt lat="42.6031467" lon="-8.706545"><ele>194.66666666666666</ele><time>2026-04-17T11:45:04.909Z</time></trkpt><trkpt lat="42.603205" lon="-8.7063217"><ele>190.33333333333331</ele><time>2026-04-17T11:45:05.909Z</time></trkpt><trkpt lat="42.6032567" lon="-8.706125"><ele>186.0</ele><time>2026-04-17T11:45:06.908Z</time></trkpt><trkpt lat="42.6032867" lon="-8.705945"><ele>184.25</ele><time>2026-04-17T11:45:07.908Z</time></trkpt><trkpt lat="42.6032783" lon="-8.7057617"><ele>182.5</ele><time>2026-04-17T11:45:08.909Z</time></trkpt><trkpt lat="42.6032383" lon="-8.70556"><ele>180.75</ele><time>2026-04-17T11:45:09.908Z</time></trkpt><trkpt lat="42.6031783" lon="-8.7053683"><ele>179.0</ele><time>2026-04-17T11:45:10.909Z</time></trkpt><trkpt lat="42.6031" lon="-8.7051833"><ele>178.25</ele><time>2026-04-17T11:45:11.909Z</time></trkpt><trkpt lat="42.6030267" lon="-8.705"><ele>177.5</ele><time>2026-04-17T11:45:12.909Z</time></trkpt><trkpt lat="42.602965" lon="-8.7048183"><ele>176.75</ele><time>2026-04-17T11:45:13.909Z</time></trkpt><trkpt lat="42.6029233" lon="-8.7046283"><ele>176.0</ele><time>2026-04-17T11:45:14.908Z</time></trkpt><trkpt lat="42.6029" lon="-8.7044483"><ele>173.25</ele><time>2026-04-17T11:45:15.909Z</time></trkpt><trkpt lat="42.6028917" lon="-8.70427"><ele>170.5</ele><time>2026-04-17T11:45:16.908Z</time></trkpt><trkpt lat="42.6028967" lon="-8.70409"><ele>167.75</ele><time>2026-04-17T11:45:17.908Z</time></trkpt><trkpt lat="42.6029167" lon="-8.7039267"><ele>165.0</ele><time>2026-04-17T11:45:18.909Z</time></trkpt><trkpt lat="42.602965" lon="-8.703755"><ele>165.0</ele><time>2026-04-17T11:45:19.909Z</time></trkpt><trkpt lat="42.6030283" lon="-8.703585"><ele>165.0</ele><time>2026-04-17T11:45:20.909Z</time></trkpt><trkpt lat="42.603065" lon="-8.7034283"><ele>165.0</ele><time>2026-04-17T11:45:21.908Z</time></trkpt><trkpt lat="42.603075" lon="-8.7032933"><ele>165.0</ele><time>2026-04-17T11:45:22.908Z</time></trkpt><trkpt lat="42.6030833" lon="-8.703185"><ele>165.0</ele><time>2026-04-17T11:45:23.909Z</time></trkpt><trkpt lat="42.603105" lon="-8.703085"><ele>163.0</ele><time>2026-04-17T11:45:24.909Z</time></trkpt><trkpt lat="42.6031483" lon="-8.7030067"><ele>161.0</ele><time>2026-04-17T11:45:25.908Z</time></trkpt><trkpt lat="42.6032183" lon="-8.7029517"><ele>159.0</ele><time>2026-04-17T11:45:26.908Z</time></trkpt><trkpt lat="42.6033333" lon="-8.7029183"><ele>157.0</ele><time>2026-04-17T11:45:27.909Z</time></trkpt><trkpt lat="42.60347" lon="-8.702865"><ele>155.0</ele><time>2026-04-17T11:45:28.908Z</time></trkpt><trkpt lat="42.6036367" lon="-8.7027933"><ele>154.66666666666666</ele><time>2026-04-17T11:45:29.909Z</time></trkpt><trkpt lat="42.6038267" lon="-8.7027017"><ele>154.33333333333334</ele><time>2026-04-17T11:45:30.908Z</time></trkpt><trkpt lat="42.60402" lon="-8.702605"><ele>154.0</ele><time>2026-04-17T11:45:31.908Z</time></trkpt><trkpt lat="42.6042017" lon="-8.7025167"><ele>154.0</ele><time>2026-04-17T11:45:32.909Z</time></trkpt><trkpt lat="42.604365" lon="-8.7024133"><ele>154.0</ele><time>2026-04-17T11:45:33.908Z</time></trkpt><trkpt lat="42.6045233" lon="-8.7023283"><ele>154.0</ele><time>2026-04-17T11:45:34.909Z</time></trkpt><trkpt lat="42.604695" lon="-8.702215"><ele>156.33333333333334</ele><time>2026-04-17T11:45:35.909Z</time></trkpt><trkpt lat="42.60486" lon="-8.7021"><ele>158.66666666666666</ele><time>2026-04-17T11:45:36.908Z</time></trkpt><trkpt lat="42.60501" lon="-8.70201"><ele>161.0</ele><time>2026-04-17T11:45:37.908Z</time></trkpt><trkpt lat="42.6051417" lon="-8.7019233"><ele>157.0</ele><time>2026-04-17T11:45:38.909Z</time></trkpt><trkpt lat="42.6052717" lon="-8.70188"><ele>153.0</ele><time>2026-04-17T11:45:39.909Z</time></trkpt><trkpt lat="42.605405" lon="-8.7018583"><ele>149.0</ele><time>2026-04-17T11:45:40.909Z</time></trkpt><trkpt lat="42.6055483" lon="-8.7018417"><ele>145.0</ele><time>2026-04-17T11:45:41.908Z</time></trkpt><trkpt lat="42.605705" lon="-8.7018067"><ele>145.0</ele><time>2026-04-17T11:45:42.908Z</time></trkpt><trkpt lat="42.6058617" lon="-8.7017617"><ele>145.0</ele><time>2026-04-17T11:45:43.908Z</time></trkpt><trkpt lat="42.60601" lon="-8.7017167"><ele>145.0</ele><time>2026-04-17T11:45:44.908Z</time></trkpt><trkpt lat="42.6061567" lon="-8.7016983"><ele>144.66666666666669</ele><time>2026-04-17T11:45:45.909Z</time></trkpt><trkpt lat="42.6063017" lon="-8.7016817"><ele>144.33333333333334</ele><time>2026-04-17T11:45:46.909Z</time></trkpt><trkpt lat="42.60646" lon="-8.7016967"><ele>144.0</ele><time>2026-04-17T11:45:47.908Z</time></trkpt><trkpt lat="42.606625" lon="-8.7017333"><ele>144.0</ele><time>2026-04-17T11:45:48.908Z</time></trkpt><trkpt lat="42.6067883" lon="-8.7017733"><ele>144.0</ele><time>2026-04-17T11:45:49.909Z</time></trkpt><trkpt lat="42.6069617" lon="-8.7018217"><ele>144.0</ele><time>2026-04-17T11:45:50.909Z</time></trkpt><trkpt lat="42.6071383" lon="-8.70187"><ele>145.0</ele><time>2026-04-17T11:45:51.909Z</time></trkpt><trkpt lat="42.6073017" lon="-8.70191"><ele>146.0</ele><time>2026-04-17T11:45:52.909Z</time></trkpt><trkpt lat="42.6074667" lon="-8.7019417"><ele>147.0</ele><time>2026-04-17T11:45:53.908Z</time></trkpt><trkpt lat="42.6076233" lon="-8.70197"><ele>149.25</ele><time>2026-04-17T11:45:54.908Z</time></trkpt><trkpt lat="42.607765" lon="-8.7019833"><ele>151.5</ele><time>2026-04-17T11:45:55.909Z</time></trkpt><trkpt lat="42.6078917" lon="-8.7019583"><ele>153.75</ele><time>2026-04-17T11:45:56.908Z</time></trkpt><trkpt lat="42.6079967" lon="-8.701895"><ele>156.0</ele><time>2026-04-17T11:45:57.909Z</time></trkpt><trkpt lat="42.6080617" lon="-8.7018083"><ele>156.0</ele><time>2026-04-17T11:45:58.908Z</time></trkpt><trkpt lat="42.6080983" lon="-8.7017033"><ele>156.0</ele><time>2026-04-17T11:45:59.909Z</time></trkpt><trkpt lat="42.60811" lon="-8.7015817"><ele>156.0</ele><time>2026-04-17T11:46:00.908Z</time></trkpt><trkpt lat="42.60809" lon="-8.7014317"><ele>156.0</ele><time>2026-04-17T11:46:01.909Z</time></trkpt><trkpt lat="42.6080667" lon="-8.7013033"><ele>156.0</ele><time>2026-04-17T11:46:02.908Z</time></trkpt><trkpt lat="42.6080333" lon="-8.7011917"><ele>155.0</ele><time>2026-04-17T11:46:03.909Z</time></trkpt><trkpt lat="42.607995" lon="-8.7010817"><ele>154.0</ele><time>2026-04-17T11:46:04.909Z</time></trkpt><trkpt lat="42.6079517" lon="-8.7009433"><ele>153.0</ele><time>2026-04-17T11:46:05.908Z</time></trkpt><trkpt lat="42.6079083" lon="-8.7007783"><ele>152.0</ele><time>2026-04-17T11:46:06.909Z</time></trkpt><trkpt lat="42.607855" lon="-8.7005983"><ele>149.5</ele><time>2026-04-17T11:46:07.908Z</time></trkpt><trkpt lat="42.6078" lon="-8.7004517"><ele>147.0</ele><time>2026-04-17T11:46:08.908Z</time></trkpt><trkpt lat="42.6077733" lon="-8.7002667"><ele>144.5</ele><time>2026-04-17T11:46:09.908Z</time></trkpt><trkpt lat="42.607745" lon="-8.70009"><ele>142.0</ele><time>2026-04-17T11:46:10.909Z</time></trkpt><trkpt lat="42.607725" lon="-8.6999233"><ele>140.79999999999998</ele><time>2026-04-17T11:46:11.909Z</time></trkpt><trkpt lat="42.607735" lon="-8.6997533"><ele>139.6</ele><time>2026-04-17T11:46:12.908Z</time></trkpt><trkpt lat="42.60774" lon="-8.6996033"><ele>138.39999999999998</ele><time>2026-04-17T11:46:13.908Z</time></trkpt><trkpt lat="42.6077667" lon="-8.699475"><ele>137.2</ele><time>2026-04-17T11:46:14.909Z</time></trkpt><trkpt lat="42.60782" lon="-8.69936"><ele>136.0</ele><time>2026-04-17T11:46:15.908Z</time></trkpt><trkpt lat="42.6079033" lon="-8.6992467"><ele>134.8</ele><time>2026-04-17T11:46:16.909Z</time></trkpt><trkpt lat="42.608" lon="-8.699125"><ele>133.6</ele><time>2026-04-17T11:46:17.909Z</time></trkpt><trkpt lat="42.6080867" lon="-8.699025"><ele>132.4</ele><time>2026-04-17T11:46:18.909Z</time></trkpt><trkpt lat="42.608155" lon="-8.6989467"><ele>131.2</ele><time>2026-04-17T11:46:19.908Z</time></trkpt><trkpt lat="42.6082167" lon="-8.6988967"><ele>130.0</ele><time>2026-04-17T11:46:20.908Z</time></trkpt><trkpt lat="42.6083367" lon="-8.6989067"><ele>130.0</ele><time>2026-04-17T11:46:22.908Z</time></trkpt><trkpt lat="42.608395" lon="-8.6989783"><ele>130.0</ele><time>2026-04-17T11:46:23.909Z</time></trkpt><trkpt lat="42.608465" lon="-8.6990833"><ele>130.0</ele><time>2026-04-17T11:46:24.909Z</time></trkpt><trkpt lat="42.6085583" lon="-8.6992233"><ele>130.0</ele><time>2026-04-17T11:46:25.908Z</time></trkpt><trkpt lat="42.60868" lon="-8.699375"><ele>135.66666666666669</ele><time>2026-04-17T11:46:26.908Z</time></trkpt><trkpt lat="42.60883" lon="-8.69954"><ele>141.33333333333334</ele><time>2026-04-17T11:46:27.908Z</time></trkpt><trkpt lat="42.6089817" lon="-8.6996733"><ele>147.0</ele><time>2026-04-17T11:46:28.908Z</time></trkpt><trkpt lat="42.6091233" lon="-8.6998083"><ele>147.0</ele><time>2026-04-17T11:46:29.909Z</time></trkpt><trkpt lat="42.60926" lon="-8.6999383"><ele>147.0</ele><time>2026-04-17T11:46:30.908Z</time></trkpt><trkpt lat="42.6093917" lon="-8.7000517"><ele>147.0</ele><time>2026-04-17T11:46:31.909Z</time></trkpt><trkpt lat="42.6095117" lon="-8.7001467"><ele>144.0</ele><time>2026-04-17T11:46:32.908Z</time></trkpt><trkpt lat="42.6096167" lon="-8.7001983"><ele>141.0</ele><time>2026-04-17T11:46:33.909Z</time></trkpt><trkpt lat="42.6097183" lon="-8.70019"><ele>138.0</ele><time>2026-04-17T11:46:34.909Z</time></trkpt><trkpt lat="42.6098283" lon="-8.7001283"><ele>135.0</ele><time>2026-04-17T11:46:35.908Z</time></trkpt><trkpt lat="42.6099333" lon="-8.7000333"><ele>135.0</ele><time>2026-04-17T11:46:36.909Z</time></trkpt><trkpt lat="42.61005" lon="-8.699885"><ele>135.0</ele><time>2026-04-17T11:46:37.909Z</time></trkpt><trkpt lat="42.6101783" lon="-8.6996933"><ele>135.0</ele><time>2026-04-17T11:46:38.908Z</time></trkpt><trkpt lat="42.6103133" lon="-8.69952"><ele>135.0</ele><time>2026-04-17T11:46:39.909Z</time></trkpt><trkpt lat="42.61045" lon="-8.6993767"><ele>135.0</ele><time>2026-04-17T11:46:40.908Z</time></trkpt><trkpt lat="42.6105633" lon="-8.6992483"><ele>135.0</ele><time>2026-04-17T11:46:41.909Z</time></trkpt><trkpt lat="42.6106533" lon="-8.6991517"><ele>135.0</ele><time>2026-04-17T11:46:42.908Z</time></trkpt><trkpt lat="42.61073" lon="-8.69907"><ele>135.0</ele><time>2026-04-17T11:46:43.908Z</time></trkpt><trkpt lat="42.6108117" lon="-8.69902"><ele>135.0</ele><time>2026-04-17T11:46:44.908Z</time></trkpt><trkpt lat="42.6109033" lon="-8.6990217"><ele>135.0</ele><time>2026-04-17T11:46:45.909Z</time></trkpt><trkpt lat="42.6109783" lon="-8.6990433"><ele>135.0</ele><time>2026-04-17T11:46:46.909Z</time></trkpt><trkpt lat="42.6110967" lon="-8.6990883"><ele>135.0</ele><time>2026-04-17T11:46:48.909Z</time></trkpt><trkpt lat="42.6111817" lon="-8.6991"><ele>136.0</ele><time>2026-04-17T11:46:49.909Z</time></trkpt><trkpt lat="42.6112933" lon="-8.699115"><ele>137.0</ele><time>2026-04-17T11:46:50.908Z</time></trkpt><trkpt lat="42.6114267" lon="-8.6991517"><ele>138.0</ele><time>2026-04-17T11:46:51.909Z</time></trkpt><trkpt lat="42.6115767" lon="-8.6992017"><ele>139.0</ele><time>2026-04-17T11:46:52.909Z</time></trkpt><trkpt lat="42.61171" lon="-8.699265"><ele>139.0</ele><time>2026-04-17T11:46:53.908Z</time></trkpt><trkpt lat="42.611835" lon="-8.69935"><ele>139.0</ele><time>2026-04-17T11:46:54.909Z</time></trkpt><trkpt lat="42.6119667" lon="-8.699475"><ele>139.0</ele><time>2026-04-17T11:46:55.909Z</time></trkpt><trkpt lat="42.6121017" lon="-8.6996167"><ele>141.75</ele><time>2026-04-17T11:46:56.909Z</time></trkpt><trkpt lat="42.61224" lon="-8.6997683"><ele>144.5</ele><time>2026-04-17T11:46:57.909Z</time></trkpt><trkpt lat="42.6123583" lon="-8.6999067"><ele>147.25</ele><time>2026-04-17T11:46:58.909Z</time></trkpt><trkpt lat="42.61243" lon="-8.7000183"><ele>150.0</ele><time>2026-04-17T11:46:59.908Z</time></trkpt><trkpt lat="42.61248" lon="-8.7001417"><ele>151.0</ele><time>2026-04-17T11:47:00.908Z</time></trkpt><trkpt lat="42.612545" lon="-8.7002683"><ele>152.0</ele><time>2026-04-17T11:47:01.909Z</time></trkpt><trkpt lat="42.612625" lon="-8.7003633"><ele>153.0</ele><time>2026-04-17T11:47:02.908Z</time></trkpt><trkpt lat="42.6127133" lon="-8.7004117"><ele>154.0</ele><time>2026-04-17T11:47:03.909Z</time></trkpt><trkpt lat="42.61282" lon="-8.7004283"><ele>155.0</ele><time>2026-04-17T11:47:04.909Z</time></trkpt><trkpt lat="42.6129517" lon="-8.7004217"><ele>155.0</ele><time>2026-04-17T11:47:05.908Z</time></trkpt><trkpt lat="42.61309" lon="-8.7004183"><ele>155.0</ele><time>2026-04-17T11:47:06.908Z</time></trkpt><trkpt lat="42.613205" lon="-8.7004467"><ele>155.0</ele><time>2026-04-17T11:47:07.909Z</time></trkpt><trkpt lat="42.6132767" lon="-8.7005033"><ele>155.0</ele><time>2026-04-17T11:47:08.908Z</time></trkpt><trkpt lat="42.6133233" lon="-8.7005967"><ele>155.0</ele><time>2026-04-17T11:47:09.908Z</time></trkpt><trkpt lat="42.6133717" lon="-8.7007"><ele>155.0</ele><time>2026-04-17T11:47:10.908Z</time></trkpt><trkpt lat="42.61344" lon="-8.700785"><ele>155.0</ele><time>2026-04-17T11:47:11.909Z</time></trkpt><trkpt lat="42.613555" lon="-8.7008533"><ele>155.0</ele><time>2026-04-17T11:47:12.908Z</time></trkpt><trkpt lat="42.6136983" lon="-8.7009117"><ele>155.0</ele><time>2026-04-17T11:47:13.908Z</time></trkpt><trkpt lat="42.613845" lon="-8.7009667"><ele>154.83333333333331</ele><time>2026-04-17T11:47:14.908Z</time></trkpt><trkpt lat="42.6139633" lon="-8.7010167"><ele>154.66666666666666</ele><time>2026-04-17T11:47:15.908Z</time></trkpt><trkpt lat="42.614045" lon="-8.701045"><ele>154.5</ele><time>2026-04-17T11:47:16.909Z</time></trkpt><trkpt lat="42.6141217" lon="-8.7009917"><ele>154.33333333333334</ele><time>2026-04-17T11:47:18.909Z</time></trkpt><trkpt lat="42.6141483" lon="-8.7008983"><ele>154.16666666666669</ele><time>2026-04-17T11:47:19.908Z</time></trkpt><trkpt lat="42.6141683" lon="-8.7008033"><ele>154.0</ele><time>2026-04-17T11:47:20.909Z</time></trkpt><trkpt lat="42.6142017" lon="-8.7007017"><ele>154.0</ele><time>2026-04-17T11:47:21.909Z</time></trkpt><trkpt lat="42.614265" lon="-8.7005983"><ele>154.0</ele><time>2026-04-17T11:47:22.909Z</time></trkpt><trkpt lat="42.6143583" lon="-8.7005167"><ele>154.0</ele><time>2026-04-17T11:47:23.909Z</time></trkpt><trkpt lat="42.6144633" lon="-8.7004633"><ele>154.0</ele><time>2026-04-17T11:47:24.908Z</time></trkpt><trkpt lat="42.6145417" lon="-8.70041"><ele>154.0</ele><time>2026-04-17T11:47:25.909Z</time></trkpt><trkpt lat="42.6145983" lon="-8.7003433"><ele>151.0</ele><time>2026-04-17T11:47:26.909Z</time></trkpt><trkpt lat="42.614625" lon="-8.7001617"><ele>148.0</ele><time>2026-04-17T11:47:28.909Z</time></trkpt><trkpt lat="42.6146167" lon="-8.7000217"><ele>145.0</ele><time>2026-04-17T11:47:29.909Z</time></trkpt><trkpt lat="42.6145717" lon="-8.6998133"><ele>142.0</ele><time>2026-04-17T11:47:30.909Z</time></trkpt><trkpt lat="42.6145183" lon="-8.6996417"><ele>141.0</ele><time>2026-04-17T11:47:31.908Z</time></trkpt><trkpt lat="42.614465" lon="-8.6994767"><ele>140.0</ele><time>2026-04-17T11:47:32.909Z</time></trkpt><trkpt lat="42.6143983" lon="-8.6993033"><ele>139.0</ele><time>2026-04-17T11:47:33.909Z</time></trkpt><trkpt lat="42.6143217" lon="-8.6991467"><ele>138.0</ele><time>2026-04-17T11:47:34.908Z</time></trkpt><trkpt lat="42.6142333" lon="-8.69901"><ele>138.0</ele><time>2026-04-17T11:47:35.908Z</time></trkpt><trkpt lat="42.61412" lon="-8.6989"><ele>138.0</ele><time>2026-04-17T11:47:36.909Z</time></trkpt><trkpt lat="42.613995" lon="-8.6987833"><ele>138.0</ele><time>2026-04-17T11:47:37.909Z</time></trkpt><trkpt lat="42.61386" lon="-8.6986883"><ele>138.0</ele><time>2026-04-17T11:47:38.908Z</time></trkpt><trkpt lat="42.61373" lon="-8.6986067"><ele>135.5</ele><time>2026-04-17T11:47:39.908Z</time></trkpt><trkpt lat="42.6136267" lon="-8.6985183"><ele>133.0</ele><time>2026-04-17T11:47:40.909Z</time></trkpt><trkpt lat="42.6135433" lon="-8.698415"><ele>130.5</ele><time>2026-04-17T11:47:41.908Z</time></trkpt><trkpt lat="42.6134783" lon="-8.69829"><ele>128.0</ele><time>2026-04-17T11:47:42.909Z</time></trkpt><trkpt lat="42.6134233" lon="-8.69815"><ele>128.0</ele><time>2026-04-17T11:47:43.908Z</time></trkpt><trkpt lat="42.6133917" lon="-8.6979867"><ele>128.0</ele><time>2026-04-17T11:47:44.909Z</time></trkpt><trkpt lat="42.6133583" lon="-8.6978267"><ele>128.0</ele><time>2026-04-17T11:47:45.908Z</time></trkpt><trkpt lat="42.6133217" lon="-8.6976883"><ele>128.0</ele><time>2026-04-17T11:47:46.909Z</time></trkpt><trkpt lat="42.613275" lon="-8.69759"><ele>128.0</ele><time>2026-04-17T11:47:47.909Z</time></trkpt><trkpt lat="42.61322" lon="-8.697525"><ele>128.75</ele><time>2026-04-17T11:47:48.908Z</time></trkpt><trkpt lat="42.6131533" lon="-8.6974967"><ele>129.5</ele><time>2026-04-17T11:47:49.908Z</time></trkpt><trkpt lat="42.6130617" lon="-8.6975067"><ele>130.25</ele><time>2026-04-17T11:47:50.908Z</time></trkpt><trkpt lat="42.612925" lon="-8.697535"><ele>131.0</ele><time>2026-04-17T11:47:51.908Z</time></trkpt><trkpt lat="42.6127617" lon="-8.6975383"><ele>128.66666666666666</ele><time>2026-04-17T11:47:52.908Z</time></trkpt><trkpt lat="42.6125867" lon="-8.69751"><ele>126.33333333333334</ele><time>2026-04-17T11:47:53.908Z</time></trkpt><trkpt lat="42.6124" lon="-8.6974267"><ele>124.0</ele><time>2026-04-17T11:47:54.908Z</time></trkpt><trkpt lat="42.6122017" lon="-8.6973083"><ele>124.0</ele><time>2026-04-17T11:47:55.909Z</time></trkpt><trkpt lat="42.6119967" lon="-8.6971733"><ele>124.0</ele><time>2026-04-17T11:47:56.909Z</time></trkpt><trkpt lat="42.6117933" lon="-8.6970567"><ele>124.0</ele><time>2026-04-17T11:47:57.909Z</time></trkpt><trkpt lat="42.6116183" lon="-8.69695"><ele>125.33333333333334</ele><time>2026-04-17T11:47:58.909Z</time></trkpt><trkpt lat="42.61145" lon="-8.6968417"><ele>126.66666666666666</ele><time>2026-04-17T11:47:59.909Z</time></trkpt><trkpt lat="42.6113017" lon="-8.6967083"><ele>128.0</ele><time>2026-04-17T11:48:00.909Z</time></trkpt><trkpt lat="42.6111567" lon="-8.69656"><ele>128.0</ele><time>2026-04-17T11:48:01.909Z</time></trkpt><trkpt lat="42.6110183" lon="-8.6964167"><ele>128.0</ele><time>2026-04-17T11:48:02.909Z</time></trkpt><trkpt lat="42.6108533" lon="-8.6963083"><ele>128.0</ele><time>2026-04-17T11:48:03.908Z</time></trkpt><trkpt lat="42.61068" lon="-8.69623"><ele>128.0</ele><time>2026-04-17T11:48:04.909Z</time></trkpt><trkpt lat="42.610525" lon="-8.6961783"><ele>128.0</ele><time>2026-04-17T11:48:05.908Z</time></trkpt><trkpt lat="42.6104" lon="-8.696115"><ele>128.0</ele><time>2026-04-17T11:48:06.908Z</time></trkpt><trkpt lat="42.6103183" lon="-8.6960583"><ele>128.0</ele><time>2026-04-17T11:48:07.909Z</time></trkpt><trkpt lat="42.6102683" lon="-8.6959933"><ele>128.20000000000002</ele><time>2026-04-17T11:48:08.909Z</time></trkpt><trkpt lat="42.6102517" lon="-8.6958583"><ele>128.4</ele><time>2026-04-17T11:48:10.909Z</time></trkpt><trkpt lat="42.6103067" lon="-8.69578"><ele>128.60000000000002</ele><time>2026-04-17T11:48:11.909Z</time></trkpt><trkpt lat="42.61039" lon="-8.6957"><ele>128.8</ele><time>2026-04-17T11:48:12.909Z</time></trkpt><trkpt lat="42.6104833" lon="-8.695595"><ele>129.0</ele><time>2026-04-17T11:48:13.909Z</time></trkpt><trkpt lat="42.61059" lon="-8.6954617"><ele>129.0</ele><time>2026-04-17T11:48:14.908Z</time></trkpt><trkpt lat="42.6107117" lon="-8.6953"><ele>129.0</ele><time>2026-04-17T11:48:15.908Z</time></trkpt><trkpt lat="42.6108383" lon="-8.6951283"><ele>129.0</ele><time>2026-04-17T11:48:16.909Z</time></trkpt><trkpt lat="42.6109583" lon="-8.694955"><ele>129.0</ele><time>2026-04-17T11:48:17.909Z</time></trkpt><trkpt lat="42.6110717" lon="-8.69481"><ele>129.0</ele><time>2026-04-17T11:48:18.908Z</time></trkpt><trkpt lat="42.611185" lon="-8.69469"><ele>129.0</ele><time>2026-04-17T11:48:19.908Z</time></trkpt><trkpt lat="42.611295" lon="-8.6946083"><ele>129.0</ele><time>2026-04-17T11:48:20.909Z</time></trkpt><trkpt lat="42.611405" lon="-8.6945733"><ele>130.0</ele><time>2026-04-17T11:48:21.908Z</time></trkpt><trkpt lat="42.6115217" lon="-8.6945733"><ele>131.0</ele><time>2026-04-17T11:48:22.908Z</time></trkpt><trkpt lat="42.6116467" lon="-8.69462"><ele>132.0</ele><time>2026-04-17T11:48:23.909Z</time></trkpt><trkpt lat="42.61177" lon="-8.694675"><ele>133.0</ele><time>2026-04-17T11:48:24.908Z</time></trkpt><trkpt lat="42.6118883" lon="-8.69472"><ele>135.25</ele><time>2026-04-17T11:48:25.909Z</time></trkpt><trkpt lat="42.6120183" lon="-8.6947367"><ele>137.5</ele><time>2026-04-17T11:48:26.909Z</time></trkpt><trkpt lat="42.6121583" lon="-8.6947233"><ele>139.75</ele><time>2026-04-17T11:48:27.908Z</time></trkpt><trkpt lat="42.61232" lon="-8.6946933"><ele>142.0</ele><time>2026-04-17T11:48:28.908Z</time></trkpt><trkpt lat="42.612485" lon="-8.6946633"><ele>142.0</ele><time>2026-04-17T11:48:29.909Z</time></trkpt><trkpt lat="42.6126483" lon="-8.694625"><ele>142.0</ele><time>2026-04-17T11:48:30.908Z</time></trkpt><trkpt lat="42.612815" lon="-8.694555"><ele>142.0</ele><time>2026-04-17T11:48:31.908Z</time></trkpt><trkpt lat="42.6129767" lon="-8.69447"><ele>146.33333333333334</ele><time>2026-04-17T11:48:32.908Z</time></trkpt><trkpt lat="42.6131333" lon="-8.69438"><ele>150.66666666666666</ele><time>2026-04-17T11:48:33.908Z</time></trkpt><trkpt lat="42.6132817" lon="-8.69431"><ele>155.0</ele><time>2026-04-17T11:48:34.908Z</time></trkpt><trkpt lat="42.6134217" lon="-8.6942633"><ele>155.0</ele><time>2026-04-17T11:48:35.909Z</time></trkpt><trkpt lat="42.6135267" lon="-8.6942367"><ele>155.0</ele><time>2026-04-17T11:48:36.908Z</time></trkpt><trkpt lat="42.6135967" lon="-8.694215"><ele>155.0</ele><time>2026-04-17T11:48:37.908Z</time></trkpt><trkpt lat="42.6136483" lon="-8.694165"><ele>155.0</ele><time>2026-04-17T11:48:39.908Z</time></trkpt><trkpt lat="42.6136117" lon="-8.69402"><ele>155.0</ele><time>2026-04-17T11:48:41.908Z</time></trkpt><trkpt lat="42.6136033" lon="-8.6938933"><ele>155.0</ele><time>2026-04-17T11:48:42.909Z</time></trkpt><trkpt lat="42.6136083" lon="-8.693735"><ele>155.0</ele><time>2026-04-17T11:48:43.908Z</time></trkpt><trkpt lat="42.6136083" lon="-8.693595"><ele>155.0</ele><time>2026-04-17T11:48:44.908Z</time></trkpt><trkpt lat="42.61359" lon="-8.693465"><ele>155.0</ele><time>2026-04-17T11:48:45.908Z</time></trkpt><trkpt lat="42.6135517" lon="-8.6933383"><ele>155.0</ele><time>2026-04-17T11:48:46.909Z</time></trkpt><trkpt lat="42.6135117" lon="-8.6932317"><ele>155.0</ele><time>2026-04-17T11:48:47.909Z</time></trkpt><trkpt lat="42.61342" lon="-8.69319"><ele>156.2</ele><time>2026-04-17T11:48:49.908Z</time></trkpt><trkpt lat="42.61329" lon="-8.6932583"><ele>157.4</ele><time>2026-04-17T11:48:51.908Z</time></trkpt><trkpt lat="42.6132033" lon="-8.6932733"><ele>158.60000000000002</ele><time>2026-04-17T11:48:52.908Z</time></trkpt><trkpt lat="42.6131017" lon="-8.6932483"><ele>159.8</ele><time>2026-04-17T11:48:53.908Z</time></trkpt><trkpt lat="42.613005" lon="-8.6932283"><ele>161.0</ele><time>2026-04-17T11:48:54.908Z</time></trkpt><trkpt lat="42.6128967" lon="-8.693225"><ele>158.5</ele><time>2026-04-17T11:48:55.908Z</time></trkpt><trkpt lat="42.6127567" lon="-8.6932583"><ele>156.0</ele><time>2026-04-17T11:48:56.908Z</time></trkpt><trkpt lat="42.6126183" lon="-8.6932867"><ele>153.5</ele><time>2026-04-17T11:48:57.908Z</time></trkpt><trkpt lat="42.6124833" lon="-8.6932883"><ele>151.0</ele><time>2026-04-17T11:48:58.908Z</time></trkpt><trkpt lat="42.6123433" lon="-8.6932583"><ele>151.0</ele><time>2026-04-17T11:48:59.909Z</time></trkpt><trkpt lat="42.61219" lon="-8.6932183"><ele>151.0</ele><time>2026-04-17T11:49:00.908Z</time></trkpt><trkpt lat="42.6120283" lon="-8.6931817"><ele>151.0</ele><time>2026-04-17T11:49:01.908Z</time></trkpt><trkpt lat="42.61184" lon="-8.693165"><ele>149.0</ele><time>2026-04-17T11:49:02.908Z</time></trkpt><trkpt lat="42.6116783" lon="-8.6931333"><ele>147.0</ele><time>2026-04-17T11:49:03.909Z</time></trkpt><trkpt lat="42.6115383" lon="-8.69312"><ele>145.0</ele><time>2026-04-17T11:49:04.909Z</time></trkpt><trkpt lat="42.61144" lon="-8.69312"><ele>143.0</ele><time>2026-04-17T11:49:05.909Z</time></trkpt><trkpt lat="42.6113683" lon="-8.693125"><ele>143.0</ele><time>2026-04-17T11:49:06.908Z</time></trkpt><trkpt lat="42.6112783" lon="-8.6931533"><ele>143.0</ele><time>2026-04-17T11:49:07.908Z</time></trkpt><trkpt lat="42.6111883" lon="-8.6931917"><ele>143.0</ele><time>2026-04-17T11:49:08.909Z</time></trkpt><trkpt lat="42.6110817" lon="-8.6931917"><ele>143.0</ele><time>2026-04-17T11:49:09.908Z</time></trkpt><trkpt lat="42.6109817" lon="-8.6931583"><ele>143.0</ele><time>2026-04-17T11:49:10.908Z</time></trkpt><trkpt lat="42.6109033" lon="-8.6931"><ele>140.25</ele><time>2026-04-17T11:49:11.909Z</time></trkpt><trkpt lat="42.6108367" lon="-8.6930217"><ele>137.5</ele><time>2026-04-17T11:49:12.909Z</time></trkpt><trkpt lat="42.6107683" lon="-8.6929083"><ele>134.75</ele><time>2026-04-17T11:49:13.908Z</time></trkpt><trkpt lat="42.6106983" lon="-8.692725"><ele>132.0</ele><time>2026-04-17T11:49:14.909Z</time></trkpt><trkpt lat="42.6106417" lon="-8.692555"><ele>132.0</ele><time>2026-04-17T11:49:15.909Z</time></trkpt><trkpt lat="42.6105983" lon="-8.6924283"><ele>132.0</ele><time>2026-04-17T11:49:16.908Z</time></trkpt><trkpt lat="42.6105833" lon="-8.69232"><ele>132.0</ele><time>2026-04-17T11:49:18.909Z</time></trkpt><trkpt lat="42.610695" lon="-8.6923133"><ele>132.0</ele><time>2026-04-17T11:49:21.908Z</time></trkpt><trkpt lat="42.6107717" lon="-8.6923317"><ele>132.0</ele><time>2026-04-17T11:49:22.909Z</time></trkpt><trkpt lat="42.6108733" lon="-8.69235"><ele>132.0</ele><time>2026-04-17T11:49:23.909Z</time></trkpt><trkpt lat="42.611" lon="-8.6923683"><ele>132.0</ele><time>2026-04-17T11:49:24.908Z</time></trkpt><trkpt lat="42.6111517" lon="-8.6923983"><ele>132.0</ele><time>2026-04-17T11:49:25.909Z</time></trkpt><trkpt lat="42.6112983" lon="-8.69243"><ele>132.0</ele><time>2026-04-17T11:49:26.908Z</time></trkpt><trkpt lat="42.611455" lon="-8.6924633"><ele>136.66666666666666</ele><time>2026-04-17T11:49:27.909Z</time></trkpt><trkpt lat="42.6116217" lon="-8.69248"><ele>141.33333333333331</ele><time>2026-04-17T11:49:28.909Z</time></trkpt><trkpt lat="42.6117983" lon="-8.6924833"><ele>146.0</ele><time>2026-04-17T11:49:29.909Z</time></trkpt><trkpt lat="42.6119783" lon="-8.69248"><ele>150.33333333333331</ele><time>2026-04-17T11:49:30.909Z</time></trkpt><trkpt lat="42.6121483" lon="-8.6924833"><ele>154.66666666666666</ele><time>2026-04-17T11:49:31.909Z</time></trkpt><trkpt lat="42.61232" lon="-8.6924933"><ele>159.0</ele><time>2026-04-17T11:49:32.909Z</time></trkpt><trkpt lat="42.6125" lon="-8.6925"><ele>159.0</ele><time>2026-04-17T11:49:33.909Z</time></trkpt><trkpt lat="42.61268" lon="-8.6924883"><ele>159.0</ele><time>2026-04-17T11:49:34.909Z</time></trkpt><trkpt lat="42.61284" lon="-8.6924467"><ele>159.0</ele><time>2026-04-17T11:49:35.909Z</time></trkpt><trkpt lat="42.6129733" lon="-8.6923683"><ele>160.25</ele><time>2026-04-17T11:49:36.908Z</time></trkpt><trkpt lat="42.6130867" lon="-8.6922733"><ele>161.5</ele><time>2026-04-17T11:49:37.908Z</time></trkpt><trkpt lat="42.6131883" lon="-8.692155"><ele>162.75</ele><time>2026-04-17T11:49:38.909Z</time></trkpt><trkpt lat="42.61328" lon="-8.6920033"><ele>164.0</ele><time>2026-04-17T11:49:39.909Z</time></trkpt><trkpt lat="42.6133767" lon="-8.6918467"><ele>165.0</ele><time>2026-04-17T11:49:40.908Z</time></trkpt><trkpt lat="42.6134883" lon="-8.6917"><ele>166.0</ele><time>2026-04-17T11:49:41.909Z</time></trkpt><trkpt lat="42.6136217" lon="-8.6915883"><ele>167.0</ele><time>2026-04-17T11:49:42.909Z</time></trkpt><trkpt lat="42.61375" lon="-8.691505"><ele>169.2</ele><time>2026-04-17T11:49:43.908Z</time></trkpt><trkpt lat="42.6138683" lon="-8.691465"><ele>171.39999999999998</ele><time>2026-04-17T11:49:44.908Z</time></trkpt><trkpt lat="42.6139783" lon="-8.6914633"><ele>173.60000000000002</ele><time>2026-04-17T11:49:45.908Z</time></trkpt><trkpt lat="42.6140667" lon="-8.6915017"><ele>175.8</ele><time>2026-04-17T11:49:46.909Z</time></trkpt><trkpt lat="42.6141533" lon="-8.691595"><ele>178.0</ele><time>2026-04-17T11:49:47.908Z</time></trkpt><trkpt lat="42.61425" lon="-8.6916967"><ele>178.0</ele><time>2026-04-17T11:49:48.908Z</time></trkpt><trkpt lat="42.6143567" lon="-8.6917667"><ele>178.0</ele><time>2026-04-17T11:49:49.908Z</time></trkpt><trkpt lat="42.6144833" lon="-8.6918083"><ele>178.0</ele><time>2026-04-17T11:49:50.908Z</time></trkpt><trkpt lat="42.61463" lon="-8.6918267"><ele>178.0</ele><time>2026-04-17T11:49:51.908Z</time></trkpt><trkpt lat="42.61478" lon="-8.6918067"><ele>181.0</ele><time>2026-04-17T11:49:52.908Z</time></trkpt><trkpt lat="42.6149233" lon="-8.691765"><ele>184.0</ele><time>2026-04-17T11:49:53.908Z</time></trkpt><trkpt lat="42.6150517" lon="-8.6916867"><ele>187.0</ele><time>2026-04-17T11:49:54.909Z</time></trkpt><trkpt lat="42.615175" lon="-8.6915667"><ele>190.0</ele><time>2026-04-17T11:49:55.909Z</time></trkpt><trkpt lat="42.61529" lon="-8.6914217"><ele>193.33333333333334</ele><time>2026-04-17T11:49:56.908Z</time></trkpt><trkpt lat="42.61541" lon="-8.6912617"><ele>196.66666666666669</ele><time>2026-04-17T11:49:57.909Z</time></trkpt><trkpt lat="42.615525" lon="-8.6910767"><ele>200.0</ele><time>2026-04-17T11:49:58.909Z</time></trkpt><trkpt lat="42.6156083" lon="-8.6909"><ele>200.0</ele><time>2026-04-17T11:49:59.908Z</time></trkpt><trkpt lat="42.6156617" lon="-8.69071"><ele>200.0</ele><time>2026-04-17T11:50:00.908Z</time></trkpt><trkpt lat="42.6157033" lon="-8.6904917"><ele>200.0</ele><time>2026-04-17T11:50:01.908Z</time></trkpt><trkpt lat="42.61573" lon="-8.69027"><ele>202.66666666666669</ele><time>2026-04-17T11:50:02.908Z</time></trkpt><trkpt lat="42.6157583" lon="-8.69006"><ele>205.33333333333331</ele><time>2026-04-17T11:50:03.909Z</time></trkpt><trkpt lat="42.615805" lon="-8.6898667"><ele>208.0</ele><time>2026-04-17T11:50:04.908Z</time></trkpt><trkpt lat="42.6158633" lon="-8.68966"><ele>208.0</ele><time>2026-04-17T11:50:05.909Z</time></trkpt><trkpt lat="42.6159083" lon="-8.6894517"><ele>208.0</ele><time>2026-04-17T11:50:06.909Z</time></trkpt><trkpt lat="42.6159467" lon="-8.6892533"><ele>208.0</ele><time>2026-04-17T11:50:07.909Z</time></trkpt><trkpt lat="42.6160033" lon="-8.68908"><ele>210.25</ele><time>2026-04-17T11:50:08.909Z</time></trkpt><trkpt lat="42.61608" lon="-8.6889433"><ele>212.5</ele><time>2026-04-17T11:50:09.909Z</time></trkpt><trkpt lat="42.61618" lon="-8.688815"><ele>214.75</ele><time>2026-04-17T11:50:10.908Z</time></trkpt><trkpt lat="42.6162783" lon="-8.6887133"><ele>217.0</ele><time>2026-04-17T11:50:11.909Z</time></trkpt><trkpt lat="42.616355" lon="-8.6886167"><ele>221.6</ele><time>2026-04-17T11:50:12.909Z</time></trkpt><trkpt lat="42.6163933" lon="-8.68853"><ele>226.2</ele><time>2026-04-17T11:50:13.909Z</time></trkpt><trkpt lat="42.6164033" lon="-8.688425"><ele>230.8</ele><time>2026-04-17T11:50:14.908Z</time></trkpt><trkpt lat="42.616365" lon="-8.688285"><ele>235.4</ele><time>2026-04-17T11:50:15.908Z</time></trkpt><trkpt lat="42.616315" lon="-8.6881133"><ele>240.0</ele><time>2026-04-17T11:50:16.908Z</time></trkpt><trkpt lat="42.6162583" lon="-8.6879167"><ele>243.66666666666669</ele><time>2026-04-17T11:50:17.909Z</time></trkpt><trkpt lat="42.6162233" lon="-8.6876933"><ele>247.33333333333334</ele><time>2026-04-17T11:50:18.908Z</time></trkpt><trkpt lat="42.61621" lon="-8.6874517"><ele>251.0</ele><time>2026-04-17T11:50:19.908Z</time></trkpt><trkpt lat="42.6162067" lon="-8.6872017"><ele>251.0</ele><time>2026-04-17T11:50:20.909Z</time></trkpt><trkpt lat="42.61622" lon="-8.68697"><ele>251.0</ele><time>2026-04-17T11:50:21.908Z</time></trkpt><trkpt lat="42.6162483" lon="-8.68676"><ele>251.0</ele><time>2026-04-17T11:50:22.908Z</time></trkpt><trkpt lat="42.6162867" lon="-8.686555"><ele>250.0</ele><time>2026-04-17T11:50:23.909Z</time></trkpt><trkpt lat="42.6163133" lon="-8.6863533"><ele>249.0</ele><time>2026-04-17T11:50:24.909Z</time></trkpt><trkpt lat="42.61632" lon="-8.6861317"><ele>248.0</ele><time>2026-04-17T11:50:25.909Z</time></trkpt><trkpt lat="42.61633" lon="-8.6858883"><ele>245.66666666666669</ele><time>2026-04-17T11:50:26.909Z</time></trkpt><trkpt lat="42.6163617" lon="-8.685625"><ele>243.33333333333331</ele><time>2026-04-17T11:50:27.908Z</time></trkpt><trkpt lat="42.6163917" lon="-8.6853517"><ele>241.0</ele><time>2026-04-17T11:50:28.909Z</time></trkpt><trkpt lat="42.6164217" lon="-8.685095"><ele>238.33333333333331</ele><time>2026-04-17T11:50:29.909Z</time></trkpt><trkpt lat="42.6164583" lon="-8.6848517"><ele>235.66666666666669</ele><time>2026-04-17T11:50:30.908Z</time></trkpt><trkpt lat="42.6165167" lon="-8.6846333"><ele>233.0</ele><time>2026-04-17T11:50:31.909Z</time></trkpt><trkpt lat="42.61659" lon="-8.6843933"><ele>230.33333333333334</ele><time>2026-04-17T11:50:32.908Z</time></trkpt><trkpt lat="42.6166717" lon="-8.6841433"><ele>227.66666666666669</ele><time>2026-04-17T11:50:33.909Z</time></trkpt><trkpt lat="42.61675" lon="-8.68387"><ele>225.0</ele><time>2026-04-17T11:50:34.908Z</time></trkpt><trkpt lat="42.6168267" lon="-8.683575"><ele>221.0</ele><time>2026-04-17T11:50:35.908Z</time></trkpt><trkpt lat="42.6169017" lon="-8.6832683"><ele>217.0</ele><time>2026-04-17T11:50:36.909Z</time></trkpt><trkpt lat="42.616975" lon="-8.68297"><ele>225.66666666666666</ele><time>2026-04-17T11:50:37.909Z</time></trkpt><trkpt lat="42.61704" lon="-8.682705"><ele>234.33333333333331</ele><time>2026-04-17T11:50:38.909Z</time></trkpt><trkpt lat="42.61709" lon="-8.6824717"><ele>243.0</ele><time>2026-04-17T11:50:39.908Z</time></trkpt><trkpt lat="42.6171233" lon="-8.6822567"><ele>243.0</ele><time>2026-04-17T11:50:40.908Z</time></trkpt><trkpt lat="42.61715" lon="-8.6820367"><ele>243.0</ele><time>2026-04-17T11:50:41.909Z</time></trkpt><trkpt lat="42.617175" lon="-8.6818117"><ele>243.0</ele><time>2026-04-17T11:50:42.909Z</time></trkpt><trkpt lat="42.6171983" lon="-8.6816083"><ele>239.25</ele><time>2026-04-17T11:50:43.909Z</time></trkpt><trkpt lat="42.617235" lon="-8.68143"><ele>235.5</ele><time>2026-04-17T11:50:44.908Z</time></trkpt><trkpt lat="42.61728" lon="-8.6812733"><ele>231.75</ele><time>2026-04-17T11:50:45.908Z</time></trkpt><trkpt lat="42.6173433" lon="-8.681105"><ele>228.0</ele><time>2026-04-17T11:50:46.908Z</time></trkpt><trkpt lat="42.617395" lon="-8.68095"><ele>224.0</ele><time>2026-04-17T11:50:47.908Z</time></trkpt><trkpt lat="42.61743" lon="-8.6807967"><ele>220.0</ele><time>2026-04-17T11:50:48.909Z</time></trkpt><trkpt lat="42.6174683" lon="-8.6806467"><ele>216.0</ele><time>2026-04-17T11:50:49.908Z</time></trkpt><trkpt lat="42.6175217" lon="-8.6805067"><ele>212.0</ele><time>2026-04-17T11:50:50.908Z</time></trkpt><trkpt lat="42.61759" lon="-8.680395"><ele>212.0</ele><time>2026-04-17T11:50:51.909Z</time></trkpt><trkpt lat="42.61768" lon="-8.6803067"><ele>212.0</ele><time>2026-04-17T11:50:52.909Z</time></trkpt><trkpt lat="42.6177833" lon="-8.68025"><ele>212.0</ele><time>2026-04-17T11:50:53.909Z</time></trkpt><trkpt lat="42.6179" lon="-8.68022"><ele>212.0</ele><time>2026-04-17T11:50:54.908Z</time></trkpt><trkpt lat="42.618025" lon="-8.6802033"><ele>212.75</ele><time>2026-04-17T11:50:55.908Z</time></trkpt><trkpt lat="42.61816" lon="-8.6802117"><ele>213.5</ele><time>2026-04-17T11:50:56.908Z</time></trkpt><trkpt lat="42.618295" lon="-8.6802167"><ele>214.25</ele><time>2026-04-17T11:50:57.908Z</time></trkpt><trkpt lat="42.618425" lon="-8.6802"><ele>215.0</ele><time>2026-04-17T11:50:58.908Z</time></trkpt><trkpt lat="42.6185617" lon="-8.6801317"><ele>217.33333333333334</ele><time>2026-04-17T11:50:59.908Z</time></trkpt><trkpt lat="42.61869" lon="-8.6800433"><ele>219.66666666666669</ele><time>2026-04-17T11:51:00.909Z</time></trkpt><trkpt lat="42.618825" lon="-8.6799617"><ele>222.0</ele><time>2026-04-17T11:51:01.909Z</time></trkpt><trkpt lat="42.6189767" lon="-8.6798967"><ele>222.0</ele><time>2026-04-17T11:51:02.908Z</time></trkpt><trkpt lat="42.619155" lon="-8.679845"><ele>222.0</ele><time>2026-04-17T11:51:03.909Z</time></trkpt><trkpt lat="42.6193367" lon="-8.6798117"><ele>222.0</ele><time>2026-04-17T11:51:04.908Z</time></trkpt><trkpt lat="42.6195183" lon="-8.6797867"><ele>223.0</ele><time>2026-04-17T11:51:05.909Z</time></trkpt><trkpt lat="42.6196817" lon="-8.6797717"><ele>224.0</ele><time>2026-04-17T11:51:06.909Z</time></trkpt><trkpt lat="42.619845" lon="-8.6797917"><ele>225.0</ele><time>2026-04-17T11:51:07.908Z</time></trkpt><trkpt lat="42.620025" lon="-8.6798433"><ele>225.0</ele><time>2026-04-17T11:51:08.908Z</time></trkpt><trkpt lat="42.6202217" lon="-8.6799117"><ele>225.0</ele><time>2026-04-17T11:51:09.909Z</time></trkpt><trkpt lat="42.6204317" lon="-8.6799733"><ele>225.0</ele><time>2026-04-17T11:51:10.908Z</time></trkpt><trkpt lat="42.62063" lon="-8.68003"><ele>224.33333333333331</ele><time>2026-04-17T11:51:11.908Z</time></trkpt><trkpt lat="42.620815" lon="-8.6800933"><ele>223.66666666666666</ele><time>2026-04-17T11:51:12.909Z</time></trkpt><trkpt lat="42.6209733" lon="-8.6801817"><ele>223.0</ele><time>2026-04-17T11:51:13.909Z</time></trkpt><trkpt lat="42.621105" lon="-8.68027"><ele>225.0</ele><time>2026-04-17T11:51:14.909Z</time></trkpt><trkpt lat="42.62121" lon="-8.6803767"><ele>227.0</ele><time>2026-04-17T11:51:15.909Z</time></trkpt><trkpt lat="42.6213017" lon="-8.6805133"><ele>229.0</ele><time>2026-04-17T11:51:16.908Z</time></trkpt><trkpt lat="42.6213867" lon="-8.6806767"><ele>231.0</ele><time>2026-04-17T11:51:17.909Z</time></trkpt><trkpt lat="42.6214817" lon="-8.6808383"><ele>231.0</ele><time>2026-04-17T11:51:18.909Z</time></trkpt><trkpt lat="42.6215883" lon="-8.680985"><ele>231.0</ele><time>2026-04-17T11:51:19.909Z</time></trkpt><trkpt lat="42.6216983" lon="-8.6811167"><ele>231.0</ele><time>2026-04-17T11:51:20.908Z</time></trkpt><trkpt lat="42.6217917" lon="-8.6812133"><ele>231.0</ele><time>2026-04-17T11:51:21.909Z</time></trkpt><trkpt lat="42.621865" lon="-8.6812517"><ele>232.4</ele><time>2026-04-17T11:51:22.909Z</time></trkpt><trkpt lat="42.6219767" lon="-8.681205"><ele>233.8</ele><time>2026-04-17T11:51:24.909Z</time></trkpt><trkpt lat="42.62201" lon="-8.6811217"><ele>235.20000000000002</ele><time>2026-04-17T11:51:25.908Z</time></trkpt><trkpt lat="42.6220383" lon="-8.6810183"><ele>236.60000000000002</ele><time>2026-04-17T11:51:26.909Z</time></trkpt><trkpt lat="42.6220617" lon="-8.680875"><ele>238.0</ele><time>2026-04-17T11:51:27.908Z</time></trkpt><trkpt lat="42.6221017" lon="-8.6807283"><ele>238.0</ele><time>2026-04-17T11:51:28.908Z</time></trkpt><trkpt lat="42.622185" lon="-8.6805583"><ele>238.0</ele><time>2026-04-17T11:51:29.908Z</time></trkpt><trkpt lat="42.622285" lon="-8.6803817"><ele>238.0</ele><time>2026-04-17T11:51:30.908Z</time></trkpt><trkpt lat="42.62238" lon="-8.680195"><ele>234.5</ele><time>2026-04-17T11:51:31.909Z</time></trkpt><trkpt lat="42.622455" lon="-8.68"><ele>231.0</ele><time>2026-04-17T11:51:32.909Z</time></trkpt><trkpt lat="42.6225283" lon="-8.67982"><ele>227.5</ele><time>2026-04-17T11:51:33.908Z</time></trkpt><trkpt lat="42.6225833" lon="-8.6796517"><ele>224.0</ele><time>2026-04-17T11:51:34.908Z</time></trkpt><trkpt lat="42.62261" lon="-8.6794983"><ele>222.5</ele><time>2026-04-17T11:51:35.909Z</time></trkpt><trkpt lat="42.6225933" lon="-8.6793583"><ele>221.0</ele><time>2026-04-17T11:51:36.908Z</time></trkpt><trkpt lat="42.6225433" lon="-8.679205"><ele>219.5</ele><time>2026-04-17T11:51:37.908Z</time></trkpt><trkpt lat="42.622475" lon="-8.6790633"><ele>218.0</ele><time>2026-04-17T11:51:38.908Z</time></trkpt><trkpt lat="42.62241" lon="-8.678935"><ele>218.0</ele><time>2026-04-17T11:51:39.909Z</time></trkpt><trkpt lat="42.6223767" lon="-8.6788183"><ele>218.0</ele><time>2026-04-17T11:51:40.909Z</time></trkpt><trkpt lat="42.6223567" lon="-8.678685"><ele>218.0</ele><time>2026-04-17T11:51:41.908Z</time></trkpt><trkpt lat="42.6223667" lon="-8.6785233"><ele>218.0</ele><time>2026-04-17T11:51:42.908Z</time></trkpt><trkpt lat="42.622385" lon="-8.6783383"><ele>218.0</ele><time>2026-04-17T11:51:43.909Z</time></trkpt><trkpt lat="42.6223967" lon="-8.67812"><ele>217.0</ele><time>2026-04-17T11:51:44.908Z</time></trkpt><trkpt lat="42.6224017" lon="-8.67794"><ele>216.0</ele><time>2026-04-17T11:51:45.909Z</time></trkpt><trkpt lat="42.6223933" lon="-8.67779"><ele>215.0</ele><time>2026-04-17T11:51:46.909Z</time></trkpt><trkpt lat="42.6223767" lon="-8.6776617"><ele>214.0</ele><time>2026-04-17T11:51:47.909Z</time></trkpt><trkpt lat="42.6223633" lon="-8.677555"><ele>213.0</ele><time>2026-04-17T11:51:48.908Z</time></trkpt><trkpt lat="42.6223583" lon="-8.6774633"><ele>211.8</ele><time>2026-04-17T11:51:49.908Z</time></trkpt><trkpt lat="42.6224017" lon="-8.677315"><ele>210.60000000000002</ele><time>2026-04-17T11:51:51.909Z</time></trkpt><trkpt lat="42.6224583" lon="-8.6772717"><ele>209.39999999999998</ele><time>2026-04-17T11:51:52.908Z</time></trkpt><trkpt lat="42.6225333" lon="-8.67724"><ele>208.2</ele><time>2026-04-17T11:51:53.908Z</time></trkpt><trkpt lat="42.6226283" lon="-8.6772033"><ele>207.0</ele><time>2026-04-17T11:51:54.909Z</time></trkpt><trkpt lat="42.6227283" lon="-8.67715"><ele>209.0</ele><time>2026-04-17T11:51:55.908Z</time></trkpt><trkpt lat="42.6228267" lon="-8.6770883"><ele>211.0</ele><time>2026-04-17T11:51:56.908Z</time></trkpt><trkpt lat="42.622935" lon="-8.6770283"><ele>213.0</ele><time>2026-04-17T11:51:57.909Z</time></trkpt><trkpt lat="42.6230617" lon="-8.67698"><ele>215.0</ele><time>2026-04-17T11:51:58.908Z</time></trkpt><trkpt lat="42.6232083" lon="-8.6769283"><ele>209.25</ele><time>2026-04-17T11:51:59.908Z</time></trkpt><trkpt lat="42.62333" lon="-8.6768817"><ele>203.5</ele><time>2026-04-17T11:52:00.908Z</time></trkpt><trkpt lat="42.6234383" lon="-8.6768367"><ele>197.75</ele><time>2026-04-17T11:52:01.909Z</time></trkpt><trkpt lat="42.6235517" lon="-8.6768017"><ele>192.0</ele><time>2026-04-17T11:52:02.908Z</time></trkpt><trkpt lat="42.62367" lon="-8.676775"><ele>192.0</ele><time>2026-04-17T11:52:03.908Z</time></trkpt><trkpt lat="42.6237817" lon="-8.6767567"><ele>192.0</ele><time>2026-04-17T11:52:04.908Z</time></trkpt><trkpt lat="42.6238883" lon="-8.6767367"><ele>192.0</ele><time>2026-04-17T11:52:05.909Z</time></trkpt><trkpt lat="42.62399" lon="-8.6767117"><ele>192.0</ele><time>2026-04-17T11:52:06.908Z</time></trkpt><trkpt lat="42.6240967" lon="-8.676685"><ele>192.0</ele><time>2026-04-17T11:52:07.908Z</time></trkpt><trkpt lat="42.6242133" lon="-8.676665"><ele>192.0</ele><time>2026-04-17T11:52:08.909Z</time></trkpt><trkpt lat="42.6243217" lon="-8.67665"><ele>192.0</ele><time>2026-04-17T11:52:09.909Z</time></trkpt><trkpt lat="42.6244017" lon="-8.6766467"><ele>192.0</ele><time>2026-04-17T11:52:10.909Z</time></trkpt><trkpt lat="42.6244917" lon="-8.6766133"><ele>192.0</ele><time>2026-04-17T11:52:12.908Z</time></trkpt><trkpt lat="42.6245217" lon="-8.6765317"><ele>192.0</ele><time>2026-04-17T11:52:14.909Z</time></trkpt><trkpt lat="42.6244717" lon="-8.676475"><ele>192.0</ele><time>2026-04-17T11:52:16.908Z</time></trkpt><trkpt lat="42.624405" lon="-8.67639"><ele>192.0</ele><time>2026-04-17T11:52:18.909Z</time></trkpt><trkpt lat="42.6243383" lon="-8.6762983"><ele>192.0</ele><time>2026-04-17T11:52:19.91Z</time></trkpt><trkpt lat="42.62425" lon="-8.6761883"><ele>192.0</ele><time>2026-04-17T11:52:20.909Z</time></trkpt><trkpt lat="42.6241783" lon="-8.676085"><ele>192.0</ele><time>2026-04-17T11:52:21.909Z</time></trkpt><trkpt lat="42.6241117" lon="-8.6759767"><ele>192.0</ele><time>2026-04-17T11:52:22.91Z</time></trkpt><trkpt lat="42.6240483" lon="-8.67585"><ele>192.8</ele><time>2026-04-17T11:52:23.909Z</time></trkpt><trkpt lat="42.6239767" lon="-8.6757167"><ele>193.6</ele><time>2026-04-17T11:52:24.909Z</time></trkpt><trkpt lat="42.6239167" lon="-8.6755967"><ele>194.4</ele><time>2026-04-17T11:52:25.909Z</time></trkpt><trkpt lat="42.62388" lon="-8.6755033"><ele>195.20000000000002</ele><time>2026-04-17T11:52:26.909Z</time></trkpt><trkpt lat="42.62388" lon="-8.6753883"><ele>196.0</ele><time>2026-04-17T11:52:28.909Z</time></trkpt><trkpt lat="42.62394" lon="-8.6752583"><ele>194.8</ele><time>2026-04-17T11:52:30.909Z</time></trkpt><trkpt lat="42.623925" lon="-8.6751117"><ele>193.60000000000002</ele><time>2026-04-17T11:52:32.909Z</time></trkpt><trkpt lat="42.6238867" lon="-8.6750317"><ele>192.4</ele><time>2026-04-17T11:52:33.91Z</time></trkpt><trkpt lat="42.6238083" lon="-8.67496"><ele>191.2</ele><time>2026-04-17T11:52:34.909Z</time></trkpt><trkpt lat="42.62372" lon="-8.6749067"><ele>190.0</ele><time>2026-04-17T11:52:35.909Z</time></trkpt><trkpt lat="42.62364" lon="-8.6748517"><ele>190.0</ele><time>2026-04-17T11:52:36.909Z</time></trkpt><trkpt lat="42.6235683" lon="-8.67479"><ele>190.0</ele><time>2026-04-17T11:52:37.909Z</time></trkpt><trkpt lat="42.6234983" lon="-8.6747183"><ele>190.0</ele><time>2026-04-17T11:52:38.909Z</time></trkpt><trkpt lat="42.6234317" lon="-8.67463"><ele>190.0</ele><time>2026-04-17T11:52:39.91Z</time></trkpt><trkpt lat="42.6233817" lon="-8.6745167"><ele>190.0</ele><time>2026-04-17T11:52:40.909Z</time></trkpt><trkpt lat="42.6233517" lon="-8.6743683"><ele>189.75</ele><time>2026-04-17T11:52:41.91Z</time></trkpt><trkpt lat="42.6233333" lon="-8.674195"><ele>189.5</ele><time>2026-04-17T11:52:42.91Z</time></trkpt><trkpt lat="42.6233083" lon="-8.6739933"><ele>189.25</ele><time>2026-04-17T11:52:43.91Z</time></trkpt><trkpt lat="42.6232733" lon="-8.6737867"><ele>189.0</ele><time>2026-04-17T11:52:44.91Z</time></trkpt><trkpt lat="42.6232333" lon="-8.6735883"><ele>187.25</ele><time>2026-04-17T11:52:45.909Z</time></trkpt><trkpt lat="42.6231983" lon="-8.673395"><ele>185.5</ele><time>2026-04-17T11:52:46.909Z</time></trkpt><trkpt lat="42.623185" lon="-8.6732167"><ele>183.75</ele><time>2026-04-17T11:52:47.909Z</time></trkpt><trkpt lat="42.6232017" lon="-8.6730517"><ele>182.0</ele><time>2026-04-17T11:52:48.909Z</time></trkpt><trkpt lat="42.623245" lon="-8.6728933"><ele>182.25</ele><time>2026-04-17T11:52:49.909Z</time></trkpt><trkpt lat="42.623325" lon="-8.67274"><ele>182.5</ele><time>2026-04-17T11:52:50.909Z</time></trkpt><trkpt lat="42.62343" lon="-8.6726067"><ele>182.75</ele><time>2026-04-17T11:52:51.91Z</time></trkpt><trkpt lat="42.623545" lon="-8.6725017"><ele>183.0</ele><time>2026-04-17T11:52:52.909Z</time></trkpt><trkpt lat="42.6236833" lon="-8.6724167"><ele>183.0</ele><time>2026-04-17T11:52:53.909Z</time></trkpt><trkpt lat="42.6238233" lon="-8.6723467"><ele>183.0</ele><time>2026-04-17T11:52:54.91Z</time></trkpt><trkpt lat="42.62394" lon="-8.672285"><ele>183.0</ele><time>2026-04-17T11:52:55.91Z</time></trkpt><trkpt lat="42.6240267" lon="-8.6722133"><ele>183.0</ele><time>2026-04-17T11:52:56.91Z</time></trkpt><trkpt lat="42.624085" lon="-8.672135"><ele>183.0</ele><time>2026-04-17T11:52:57.909Z</time></trkpt><trkpt lat="42.624115" lon="-8.6720583"><ele>183.0</ele><time>2026-04-17T11:52:58.91Z</time></trkpt><trkpt lat="42.6241117" lon="-8.6719517"><ele>183.0</ele><time>2026-04-17T11:52:59.91Z</time></trkpt><trkpt lat="42.62409" lon="-8.6718183"><ele>183.0</ele><time>2026-04-17T11:53:00.909Z</time></trkpt><trkpt lat="42.6240717" lon="-8.6716583"><ele>183.0</ele><time>2026-04-17T11:53:01.909Z</time></trkpt><trkpt lat="42.624035" lon="-8.671505"><ele>182.60000000000002</ele><time>2026-04-17T11:53:02.909Z</time></trkpt><trkpt lat="42.62399" lon="-8.67137"><ele>182.20000000000002</ele><time>2026-04-17T11:53:03.91Z</time></trkpt><trkpt lat="42.6239317" lon="-8.6712733"><ele>181.8</ele><time>2026-04-17T11:53:04.909Z</time></trkpt><trkpt lat="42.6238683" lon="-8.6712167"><ele>181.4</ele><time>2026-04-17T11:53:05.91Z</time></trkpt><trkpt lat="42.623755" lon="-8.6711533"><ele>181.0</ele><time>2026-04-17T11:53:06.909Z</time></trkpt><trkpt lat="42.623605" lon="-8.6711183"><ele>178.33333333333334</ele><time>2026-04-17T11:53:07.909Z</time></trkpt><trkpt lat="42.6234217" lon="-8.6710633"><ele>175.66666666666666</ele><time>2026-04-17T11:53:08.909Z</time></trkpt><trkpt lat="42.623215" lon="-8.6710133"><ele>173.0</ele><time>2026-04-17T11:53:09.91Z</time></trkpt><trkpt lat="42.6230183" lon="-8.6709767"><ele>173.0</ele><time>2026-04-17T11:53:10.91Z</time></trkpt><trkpt lat="42.622835" lon="-8.6709633"><ele>173.0</ele><time>2026-04-17T11:53:11.909Z</time></trkpt><trkpt lat="42.622685" lon="-8.67097"><ele>173.0</ele><time>2026-04-17T11:53:12.91Z</time></trkpt><trkpt lat="42.622575" lon="-8.6709683"><ele>173.0</ele><time>2026-04-17T11:53:13.91Z</time></trkpt><trkpt lat="42.6226517" lon="-8.671045"><ele>172.5</ele><time>2026-04-17T11:53:17.91Z</time></trkpt><trkpt lat="42.622575" lon="-8.6711667"><ele>172.0</ele><time>2026-04-17T11:53:20.909Z</time></trkpt><trkpt lat="42.6224933" lon="-8.671245"><ele>171.5</ele><time>2026-04-17T11:53:21.909Z</time></trkpt><trkpt lat="42.6223733" lon="-8.6713533"><ele>171.0</ele><time>2026-04-17T11:53:22.91Z</time></trkpt><trkpt lat="42.6221917" lon="-8.6715083"><ele>172.5</ele><time>2026-04-17T11:53:23.909Z</time></trkpt><trkpt lat="42.6219517" lon="-8.6716833"><ele>174.0</ele><time>2026-04-17T11:53:24.909Z</time></trkpt><trkpt lat="42.6217283" lon="-8.6718467"><ele>170.5</ele><time>2026-04-17T11:53:25.909Z</time></trkpt><trkpt lat="42.6214933" lon="-8.6719983"><ele>167.0</ele><time>2026-04-17T11:53:26.909Z</time></trkpt><trkpt lat="42.6212617" lon="-8.672115"><ele>167.0</ele><time>2026-04-17T11:53:27.91Z</time></trkpt><trkpt lat="42.6210417" lon="-8.6722183"><ele>167.0</ele><time>2026-04-17T11:53:28.909Z</time></trkpt><trkpt lat="42.6208633" lon="-8.672315"><ele>167.0</ele><time>2026-04-17T11:53:29.91Z</time></trkpt><trkpt lat="42.6207167" lon="-8.6724333"><ele>167.0</ele><time>2026-04-17T11:53:30.909Z</time></trkpt><trkpt lat="42.6205833" lon="-8.6725883"><ele>167.0</ele><time>2026-04-17T11:53:31.909Z</time></trkpt><trkpt lat="42.62045" lon="-8.6727567"><ele>167.0</ele><time>2026-04-17T11:53:32.909Z</time></trkpt><trkpt lat="42.6203117" lon="-8.6729017"><ele>160.33333333333331</ele><time>2026-04-17T11:53:33.909Z</time></trkpt><trkpt lat="42.620165" lon="-8.673005"><ele>153.66666666666666</ele><time>2026-04-17T11:53:34.91Z</time></trkpt><trkpt lat="42.62001" lon="-8.6730633"><ele>147.0</ele><time>2026-04-17T11:53:35.909Z</time></trkpt><trkpt lat="42.6198567" lon="-8.6730667"><ele>147.0</ele><time>2026-04-17T11:53:36.909Z</time></trkpt><trkpt lat="42.6197183" lon="-8.6730283"><ele>147.0</ele><time>2026-04-17T11:53:37.91Z</time></trkpt><trkpt lat="42.61959" lon="-8.67294"><ele>147.0</ele><time>2026-04-17T11:53:38.909Z</time></trkpt><trkpt lat="42.6194683" lon="-8.6728117"><ele>147.0</ele><time>2026-04-17T11:53:39.91Z</time></trkpt><trkpt lat="42.6193483" lon="-8.6726767"><ele>147.0</ele><time>2026-04-17T11:53:40.909Z</time></trkpt><trkpt lat="42.6192233" lon="-8.6725683"><ele>147.0</ele><time>2026-04-17T11:53:41.909Z</time></trkpt><trkpt lat="42.6190733" lon="-8.6724917"><ele>147.0</ele><time>2026-04-17T11:53:42.909Z</time></trkpt><trkpt lat="42.6188917" lon="-8.67246"><ele>147.0</ele><time>2026-04-17T11:53:43.909Z</time></trkpt><trkpt lat="42.6186833" lon="-8.6724583"><ele>147.0</ele><time>2026-04-17T11:53:44.909Z</time></trkpt><trkpt lat="42.618475" lon="-8.67245"><ele>147.0</ele><time>2026-04-17T11:53:45.91Z</time></trkpt><trkpt lat="42.61829" lon="-8.672445"><ele>143.66666666666666</ele><time>2026-04-17T11:53:46.909Z</time></trkpt><trkpt lat="42.6181217" lon="-8.67245"><ele>140.33333333333331</ele><time>2026-04-17T11:53:47.909Z</time></trkpt><trkpt lat="42.61796" lon="-8.6724767"><ele>137.0</ele><time>2026-04-17T11:53:48.91Z</time></trkpt><trkpt lat="42.6177967" lon="-8.6725383"><ele>134.66666666666666</ele><time>2026-04-17T11:53:49.909Z</time></trkpt><trkpt lat="42.6176167" lon="-8.67263"><ele>132.33333333333334</ele><time>2026-04-17T11:53:50.91Z</time></trkpt><trkpt lat="42.617415" lon="-8.6727533"><ele>130.0</ele><time>2026-04-17T11:53:51.909Z</time></trkpt><trkpt lat="42.6171933" lon="-8.6728883"><ele>125.5</ele><time>2026-04-17T11:53:52.91Z</time></trkpt><trkpt lat="42.6169533" lon="-8.6730283"><ele>121.0</ele><time>2026-04-17T11:53:53.909Z</time></trkpt><trkpt lat="42.61672" lon="-8.6731667"><ele>121.0</ele><time>2026-04-17T11:53:54.909Z</time></trkpt><trkpt lat="42.6165083" lon="-8.6732867"><ele>121.0</ele><time>2026-04-17T11:53:55.91Z</time></trkpt><trkpt lat="42.61632" lon="-8.6733883"><ele>121.0</ele><time>2026-04-17T11:53:56.91Z</time></trkpt><trkpt lat="42.6161283" lon="-8.6734733"><ele>121.5</ele><time>2026-04-17T11:53:57.909Z</time></trkpt><trkpt lat="42.6159167" lon="-8.673545"><ele>122.0</ele><time>2026-04-17T11:53:58.91Z</time></trkpt><trkpt lat="42.6156833" lon="-8.6736133"><ele>122.0</ele><time>2026-04-17T11:53:59.91Z</time></trkpt><trkpt lat="42.615455" lon="-8.673675"><ele>122.0</ele><time>2026-04-17T11:54:00.91Z</time></trkpt><trkpt lat="42.61524" lon="-8.6737183"><ele>119.33333333333333</ele><time>2026-04-17T11:54:01.909Z</time></trkpt><trkpt lat="42.61505" lon="-8.6737733"><ele>116.66666666666666</ele><time>2026-04-17T11:54:02.91Z</time></trkpt><trkpt lat="42.614885" lon="-8.673835"><ele>114.0</ele><time>2026-04-17T11:54:03.909Z</time></trkpt><trkpt lat="42.6147333" lon="-8.673875"><ele>114.0</ele><time>2026-04-17T11:54:04.91Z</time></trkpt><trkpt lat="42.6145817" lon="-8.6738883"><ele>114.0</ele><time>2026-04-17T11:54:05.91Z</time></trkpt><trkpt lat="42.6144183" lon="-8.6738583"><ele>114.0</ele><time>2026-04-17T11:54:06.909Z</time></trkpt><trkpt lat="42.614235" lon="-8.6737917"><ele>109.33333333333334</ele><time>2026-04-17T11:54:07.91Z</time></trkpt><trkpt lat="42.6140583" lon="-8.67373"><ele>104.66666666666667</ele><time>2026-04-17T11:54:08.91Z</time></trkpt><trkpt lat="42.6139033" lon="-8.673695"><ele>100.0</ele><time>2026-04-17T11:54:09.91Z</time></trkpt><trkpt lat="42.6137667" lon="-8.67372"><ele>100.66666666666667</ele><time>2026-04-17T11:54:10.91Z</time></trkpt><trkpt lat="42.613625" lon="-8.6737733"><ele>101.33333333333334</ele><time>2026-04-17T11:54:11.909Z</time></trkpt><trkpt lat="42.6134667" lon="-8.67386"><ele>102.0</ele><time>2026-04-17T11:54:12.91Z</time></trkpt><trkpt lat="42.6132967" lon="-8.67398"><ele>102.0</ele><time>2026-04-17T11:54:13.909Z</time></trkpt><trkpt lat="42.6131067" lon="-8.6741167"><ele>102.0</ele><time>2026-04-17T11:54:14.909Z</time></trkpt><trkpt lat="42.612895" lon="-8.67428"><ele>101.0</ele><time>2026-04-17T11:54:15.909Z</time></trkpt><trkpt lat="42.612685" lon="-8.6744467"><ele>100.0</ele><time>2026-04-17T11:54:16.909Z</time></trkpt><trkpt lat="42.6124833" lon="-8.6746017"><ele>100.0</ele><time>2026-04-17T11:54:17.91Z</time></trkpt><trkpt lat="42.6122933" lon="-8.6747533"><ele>100.0</ele><time>2026-04-17T11:54:18.909Z</time></trkpt><trkpt lat="42.61211" lon="-8.674915"><ele>100.0</ele><time>2026-04-17T11:54:19.909Z</time></trkpt><trkpt lat="42.61194" lon="-8.6750967"><ele>100.0</ele><time>2026-04-17T11:54:20.909Z</time></trkpt><trkpt lat="42.61178" lon="-8.6752733"><ele>100.0</ele><time>2026-04-17T11:54:21.909Z</time></trkpt><trkpt lat="42.6116317" lon="-8.6754333"><ele>100.0</ele><time>2026-04-17T11:54:22.91Z</time></trkpt><trkpt lat="42.6114917" lon="-8.67558"><ele>100.0</ele><time>2026-04-17T11:54:23.909Z</time></trkpt><trkpt lat="42.6113533" lon="-8.6757033"><ele>100.0</ele><time>2026-04-17T11:54:24.909Z</time></trkpt><trkpt lat="42.6111983" lon="-8.6757983"><ele>100.0</ele><time>2026-04-17T11:54:25.91Z</time></trkpt><trkpt lat="42.611025" lon="-8.6758517"><ele>99.33333333333334</ele><time>2026-04-17T11:54:26.909Z</time></trkpt><trkpt lat="42.6108267" lon="-8.6758667"><ele>98.66666666666666</ele><time>2026-04-17T11:54:27.909Z</time></trkpt><trkpt lat="42.6106167" lon="-8.675845"><ele>98.0</ele><time>2026-04-17T11:54:28.91Z</time></trkpt><trkpt lat="42.6104333" lon="-8.67582"><ele>96.25</ele><time>2026-04-17T11:54:29.91Z</time></trkpt><trkpt lat="42.6102683" lon="-8.6757667"><ele>94.5</ele><time>2026-04-17T11:54:30.909Z</time></trkpt><trkpt lat="42.6101233" lon="-8.6757233"><ele>92.75</ele><time>2026-04-17T11:54:31.909Z</time></trkpt><trkpt lat="42.6100083" lon="-8.6756633"><ele>91.0</ele><time>2026-04-17T11:54:32.909Z</time></trkpt><trkpt lat="42.6099117" lon="-8.67557"><ele>91.0</ele><time>2026-04-17T11:54:33.909Z</time></trkpt><trkpt lat="42.60983" lon="-8.6754567"><ele>91.0</ele><time>2026-04-17T11:54:34.909Z</time></trkpt><trkpt lat="42.6097617" lon="-8.67534"><ele>91.0</ele><time>2026-04-17T11:54:35.91Z</time></trkpt><trkpt lat="42.6097033" lon="-8.6752217"><ele>91.0</ele><time>2026-04-17T11:54:36.909Z</time></trkpt><trkpt lat="42.6096517" lon="-8.6751167"><ele>91.0</ele><time>2026-04-17T11:54:37.909Z</time></trkpt><trkpt lat="42.6096083" lon="-8.675015"><ele>91.6</ele><time>2026-04-17T11:54:38.909Z</time></trkpt><trkpt lat="42.6095833" lon="-8.6749033"><ele>92.19999999999999</ele><time>2026-04-17T11:54:39.91Z</time></trkpt><trkpt lat="42.6095767" lon="-8.6747833"><ele>92.80000000000001</ele><time>2026-04-17T11:54:40.91Z</time></trkpt><trkpt lat="42.6095933" lon="-8.6746533"><ele>93.4</ele><time>2026-04-17T11:54:41.91Z</time></trkpt><trkpt lat="42.609625" lon="-8.6745167"><ele>94.0</ele><time>2026-04-17T11:54:42.91Z</time></trkpt><trkpt lat="42.6096667" lon="-8.6743767"><ele>94.2</ele><time>2026-04-17T11:54:43.91Z</time></trkpt><trkpt lat="42.6097133" lon="-8.67424"><ele>94.4</ele><time>2026-04-17T11:54:44.91Z</time></trkpt><trkpt lat="42.60976" lon="-8.674105"><ele>94.6</ele><time>2026-04-17T11:54:45.909Z</time></trkpt><trkpt lat="42.6097967" lon="-8.6739783"><ele>94.8</ele><time>2026-04-17T11:54:46.909Z</time></trkpt><trkpt lat="42.6098283" lon="-8.673855"><ele>95.0</ele><time>2026-04-17T11:54:47.909Z</time></trkpt><trkpt lat="42.6098583" lon="-8.6737383"><ele>95.0</ele><time>2026-04-17T11:54:48.909Z</time></trkpt><trkpt lat="42.6098917" lon="-8.6736283"><ele>95.0</ele><time>2026-04-17T11:54:49.909Z</time></trkpt><trkpt lat="42.6099333" lon="-8.6735283"><ele>95.0</ele><time>2026-04-17T11:54:50.91Z</time></trkpt><trkpt lat="42.6099883" lon="-8.6734333"><ele>95.0</ele><time>2026-04-17T11:54:51.909Z</time></trkpt><trkpt lat="42.610055" lon="-8.6733467"><ele>95.0</ele><time>2026-04-17T11:54:52.909Z</time></trkpt><trkpt lat="42.61013" lon="-8.6732683"><ele>95.0</ele><time>2026-04-17T11:54:53.91Z</time></trkpt><trkpt lat="42.6102117" lon="-8.673205"><ele>94.4</ele><time>2026-04-17T11:54:54.909Z</time></trkpt><trkpt lat="42.6103033" lon="-8.6731417"><ele>93.8</ele><time>2026-04-17T11:54:55.909Z</time></trkpt><trkpt lat="42.6104" lon="-8.673085"><ele>93.19999999999999</ele><time>2026-04-17T11:54:56.909Z</time></trkpt><trkpt lat="42.6105" lon="-8.6730317"><ele>92.6</ele><time>2026-04-17T11:54:57.91Z</time></trkpt><trkpt lat="42.610595" lon="-8.6729667"><ele>92.0</ele><time>2026-04-17T11:54:58.91Z</time></trkpt><trkpt lat="42.6106817" lon="-8.6729083"><ele>93.16666666666667</ele><time>2026-04-17T11:54:59.909Z</time></trkpt><trkpt lat="42.6107583" lon="-8.67285"><ele>94.33333333333334</ele><time>2026-04-17T11:55:00.909Z</time></trkpt><trkpt lat="42.6108267" lon="-8.6727833"><ele>95.5</ele><time>2026-04-17T11:55:01.909Z</time></trkpt><trkpt lat="42.610885" lon="-8.672715"><ele>96.66666666666667</ele><time>2026-04-17T11:55:02.91Z</time></trkpt><trkpt lat="42.6109283" lon="-8.6726367"><ele>97.83333333333333</ele><time>2026-04-17T11:55:03.91Z</time></trkpt><trkpt lat="42.61095" lon="-8.6725367"><ele>99.0</ele><time>2026-04-17T11:55:04.91Z</time></trkpt><trkpt lat="42.6109533" lon="-8.672435"><ele>99.0</ele><time>2026-04-17T11:55:05.91Z</time></trkpt><trkpt lat="42.6109383" lon="-8.6723"><ele>99.0</ele><time>2026-04-17T11:55:06.91Z</time></trkpt><trkpt lat="42.6109183" lon="-8.6721517"><ele>99.0</ele><time>2026-04-17T11:55:07.909Z</time></trkpt><trkpt lat="42.6108967" lon="-8.6719983"><ele>99.0</ele><time>2026-04-17T11:55:08.91Z</time></trkpt><trkpt lat="42.6108717" lon="-8.67186"><ele>99.0</ele><time>2026-04-17T11:55:09.909Z</time></trkpt><trkpt lat="42.61085" lon="-8.6717417"><ele>98.5</ele><time>2026-04-17T11:55:10.909Z</time></trkpt><trkpt lat="42.610815" lon="-8.6716567"><ele>98.0</ele><time>2026-04-17T11:55:11.91Z</time></trkpt><trkpt lat="42.610765" lon="-8.6715883"><ele>97.5</ele><time>2026-04-17T11:55:12.909Z</time></trkpt><trkpt lat="42.61071" lon="-8.6715367"><ele>97.0</ele><time>2026-04-17T11:55:13.91Z</time></trkpt><trkpt lat="42.6105717" lon="-8.6715117"><ele>96.5</ele><time>2026-04-17T11:55:15.91Z</time></trkpt><trkpt lat="42.610475" lon="-8.6715367"><ele>96.0</ele><time>2026-04-17T11:55:16.909Z</time></trkpt><trkpt lat="42.6103717" lon="-8.6715833"><ele>94.0</ele><time>2026-04-17T11:55:17.91Z</time></trkpt><trkpt lat="42.610265" lon="-8.6716333"><ele>92.0</ele><time>2026-04-17T11:55:18.909Z</time></trkpt><trkpt lat="42.6101617" lon="-8.67167"><ele>90.0</ele><time>2026-04-17T11:55:19.909Z</time></trkpt><trkpt lat="42.6100567" lon="-8.6717117"><ele>88.0</ele><time>2026-04-17T11:55:20.909Z</time></trkpt><trkpt lat="42.6099617" lon="-8.6717467"><ele>86.0</ele><time>2026-04-17T11:55:21.91Z</time></trkpt><trkpt lat="42.6098733" lon="-8.6717767"><ele>86.0</ele><time>2026-04-17T11:55:22.909Z</time></trkpt><trkpt lat="42.6097867" lon="-8.6718067"><ele>86.0</ele><time>2026-04-17T11:55:23.91Z</time></trkpt><trkpt lat="42.609695" lon="-8.67184"><ele>86.0</ele><time>2026-04-17T11:55:24.909Z</time></trkpt><trkpt lat="42.6096067" lon="-8.6718683"><ele>86.0</ele><time>2026-04-17T11:55:25.91Z</time></trkpt><trkpt lat="42.6095217" lon="-8.6719033"><ele>86.0</ele><time>2026-04-17T11:55:26.91Z</time></trkpt><trkpt lat="42.6094333" lon="-8.67194"><ele>85.0</ele><time>2026-04-17T11:55:27.909Z</time></trkpt><trkpt lat="42.6093467" lon="-8.6719817"><ele>84.0</ele><time>2026-04-17T11:55:28.91Z</time></trkpt><trkpt lat="42.6092583" lon="-8.6720233"><ele>83.0</ele><time>2026-04-17T11:55:29.909Z</time></trkpt><trkpt lat="42.609165" lon="-8.67206"><ele>82.0</ele><time>2026-04-17T11:55:30.909Z</time></trkpt><trkpt lat="42.60908" lon="-8.6720983"><ele>81.0</ele><time>2026-04-17T11:55:31.909Z</time></trkpt><trkpt lat="42.6089933" lon="-8.6721367"><ele>81.0</ele><time>2026-04-17T11:55:32.909Z</time></trkpt><trkpt lat="42.608905" lon="-8.6721783"><ele>81.0</ele><time>2026-04-17T11:55:33.909Z</time></trkpt><trkpt lat="42.6088167" lon="-8.67222"><ele>81.0</ele><time>2026-04-17T11:55:34.91Z</time></trkpt><trkpt lat="42.6087283" lon="-8.6722667"><ele>81.0</ele><time>2026-04-17T11:55:35.909Z</time></trkpt><trkpt lat="42.6086333" lon="-8.672305"><ele>81.0</ele><time>2026-04-17T11:55:36.909Z</time></trkpt><trkpt lat="42.6085417" lon="-8.6723367"><ele>81.19999999999999</ele><time>2026-04-17T11:55:37.909Z</time></trkpt><trkpt lat="42.6084417" lon="-8.6723683"><ele>81.39999999999999</ele><time>2026-04-17T11:55:38.909Z</time></trkpt><trkpt lat="42.60835" lon="-8.6724"><ele>81.6</ele><time>2026-04-17T11:55:39.909Z</time></trkpt><trkpt lat="42.60826" lon="-8.6724283"><ele>81.8</ele><time>2026-04-17T11:55:40.909Z</time></trkpt><trkpt lat="42.608165" lon="-8.6724667"><ele>82.0</ele><time>2026-04-17T11:55:41.909Z</time></trkpt><trkpt lat="42.608075" lon="-8.6725133"><ele>82.0</ele><time>2026-04-17T11:55:42.909Z</time></trkpt><trkpt lat="42.6079833" lon="-8.6725667"><ele>82.0</ele><time>2026-04-17T11:55:43.909Z</time></trkpt><trkpt lat="42.6078883" lon="-8.67262"><ele>82.0</ele><time>2026-04-17T11:55:44.909Z</time></trkpt><trkpt lat="42.607805" lon="-8.67268"><ele>82.0</ele><time>2026-04-17T11:55:45.909Z</time></trkpt><trkpt lat="42.6077167" lon="-8.6727467"><ele>82.0</ele><time>2026-04-17T11:55:46.909Z</time></trkpt><trkpt lat="42.6076317" lon="-8.672815"><ele>83.0</ele><time>2026-04-17T11:55:47.91Z</time></trkpt><trkpt lat="42.6075517" lon="-8.6728967"><ele>84.0</ele><time>2026-04-17T11:55:48.91Z</time></trkpt><trkpt lat="42.6074717" lon="-8.6729833"><ele>85.0</ele><time>2026-04-17T11:55:49.909Z</time></trkpt><trkpt lat="42.6073967" lon="-8.6730617"><ele>86.0</ele><time>2026-04-17T11:55:50.91Z</time></trkpt><trkpt lat="42.6073167" lon="-8.6731217"><ele>87.0</ele><time>2026-04-17T11:55:51.909Z</time></trkpt><trkpt lat="42.607255" lon="-8.6731467"><ele>87.0</ele><time>2026-04-17T11:55:52.91Z</time></trkpt><trkpt lat="42.6071483" lon="-8.6730983"><ele>87.0</ele><time>2026-04-17T11:55:54.91Z</time></trkpt><trkpt lat="42.607105" lon="-8.6729483"><ele>87.0</ele><time>2026-04-17T11:55:56.909Z</time></trkpt><trkpt lat="42.6071017" lon="-8.672845"><ele>87.0</ele><time>2026-04-17T11:55:57.91Z</time></trkpt><trkpt lat="42.6071" lon="-8.672725"><ele>87.0</ele><time>2026-04-17T11:55:58.91Z</time></trkpt><trkpt lat="42.6071" lon="-8.67259"><ele>86.6</ele><time>2026-04-17T11:55:59.91Z</time></trkpt><trkpt lat="42.6070983" lon="-8.67244"><ele>86.19999999999999</ele><time>2026-04-17T11:56:00.91Z</time></trkpt><trkpt lat="42.60709" lon="-8.6722933"><ele>85.8</ele><time>2026-04-17T11:56:01.91Z</time></trkpt><trkpt lat="42.6070817" lon="-8.6721517"><ele>85.4</ele><time>2026-04-17T11:56:02.91Z</time></trkpt><trkpt lat="42.60707" lon="-8.672015"><ele>85.0</ele><time>2026-04-17T11:56:03.909Z</time></trkpt><trkpt lat="42.6070667" lon="-8.671885"><ele>85.83333333333333</ele><time>2026-04-17T11:56:04.91Z</time></trkpt><trkpt lat="42.6070683" lon="-8.6717733"><ele>86.66666666666666</ele><time>2026-04-17T11:56:05.909Z</time></trkpt><trkpt lat="42.6070883" lon="-8.671665"><ele>87.5</ele><time>2026-04-17T11:56:06.909Z</time></trkpt><trkpt lat="42.607135" lon="-8.67156"><ele>88.33333333333333</ele><time>2026-04-17T11:56:07.909Z</time></trkpt><trkpt lat="42.6071917" lon="-8.67146"><ele>89.16666666666667</ele><time>2026-04-17T11:56:08.91Z</time></trkpt><trkpt lat="42.6072633" lon="-8.6713633"><ele>90.0</ele><time>2026-04-17T11:56:09.91Z</time></trkpt><trkpt lat="42.6073333" lon="-8.6712567"><ele>90.0</ele><time>2026-04-17T11:56:10.91Z</time></trkpt><trkpt lat="42.6074033" lon="-8.6711517"><ele>90.0</ele><time>2026-04-17T11:56:11.91Z</time></trkpt><trkpt lat="42.6074683" lon="-8.671065"><ele>90.0</ele><time>2026-04-17T11:56:12.909Z</time></trkpt><trkpt lat="42.607535" lon="-8.6709817"><ele>90.0</ele><time>2026-04-17T11:56:13.909Z</time></trkpt><trkpt lat="42.607595" lon="-8.670895"><ele>90.0</ele><time>2026-04-17T11:56:14.91Z</time></trkpt><trkpt lat="42.60765" lon="-8.6708033"><ele>90.4</ele><time>2026-04-17T11:56:15.91Z</time></trkpt><trkpt lat="42.607695" lon="-8.67071"><ele>90.8</ele><time>2026-04-17T11:56:16.91Z</time></trkpt><trkpt lat="42.60774" lon="-8.6706117"><ele>91.19999999999999</ele><time>2026-04-17T11:56:17.91Z</time></trkpt><trkpt lat="42.6077933" lon="-8.6705017"><ele>91.6</ele><time>2026-04-17T11:56:18.91Z</time></trkpt><trkpt lat="42.6078467" lon="-8.67039"><ele>92.0</ele><time>2026-04-17T11:56:19.91Z</time></trkpt><trkpt lat="42.6078933" lon="-8.6702817"><ele>92.5</ele><time>2026-04-17T11:56:20.91Z</time></trkpt><trkpt lat="42.6079417" lon="-8.670185"><ele>93.0</ele><time>2026-04-17T11:56:21.909Z</time></trkpt><trkpt lat="42.607995" lon="-8.67009"><ele>93.5</ele><time>2026-04-17T11:56:22.91Z</time></trkpt><trkpt lat="42.6080583" lon="-8.6699983"><ele>94.0</ele><time>2026-04-17T11:56:23.91Z</time></trkpt><trkpt lat="42.6081183" lon="-8.669905"><ele>94.5</ele><time>2026-04-17T11:56:24.91Z</time></trkpt><trkpt lat="42.6081783" lon="-8.6698183"><ele>95.0</ele><time>2026-04-17T11:56:25.91Z</time></trkpt><trkpt lat="42.608235" lon="-8.66973"><ele>95.0</ele><time>2026-04-17T11:56:26.91Z</time></trkpt><trkpt lat="42.6082833" lon="-8.66964"><ele>95.0</ele><time>2026-04-17T11:56:27.909Z</time></trkpt><trkpt lat="42.6083333" lon="-8.66955"><ele>95.0</ele><time>2026-04-17T11:56:28.909Z</time></trkpt><trkpt lat="42.60837" lon="-8.6694383"><ele>95.0</ele><time>2026-04-17T11:56:29.91Z</time></trkpt><trkpt lat="42.6083967" lon="-8.6692967"><ele>95.0</ele><time>2026-04-17T11:56:30.909Z</time></trkpt><trkpt lat="42.60841" lon="-8.6691517"><ele>96.16666666666667</ele><time>2026-04-17T11:56:31.909Z</time></trkpt><trkpt lat="42.6084083" lon="-8.6690183"><ele>97.33333333333334</ele><time>2026-04-17T11:56:32.909Z</time></trkpt><trkpt lat="42.608405" lon="-8.6688983"><ele>98.5</ele><time>2026-04-17T11:56:33.909Z</time></trkpt><trkpt lat="42.6084067" lon="-8.668775"><ele>99.66666666666667</ele><time>2026-04-17T11:56:34.909Z</time></trkpt><trkpt lat="42.6084183" lon="-8.66866"><ele>100.83333333333333</ele><time>2026-04-17T11:56:35.909Z</time></trkpt><trkpt lat="42.6084467" lon="-8.668555"><ele>102.0</ele><time>2026-04-17T11:56:36.91Z</time></trkpt><trkpt lat="42.6084867" lon="-8.6684517"><ele>102.16666666666667</ele><time>2026-04-17T11:56:37.91Z</time></trkpt><trkpt lat="42.608535" lon="-8.6683533"><ele>102.33333333333334</ele><time>2026-04-17T11:56:38.91Z</time></trkpt><trkpt lat="42.6085833" lon="-8.668255"><ele>102.5</ele><time>2026-04-17T11:56:39.909Z</time></trkpt><trkpt lat="42.608625" lon="-8.6681533"><ele>102.66666666666667</ele><time>2026-04-17T11:56:40.909Z</time></trkpt><trkpt lat="42.608655" lon="-8.6680533"><ele>102.83333333333334</ele><time>2026-04-17T11:56:41.91Z</time></trkpt><trkpt lat="42.6086883" lon="-8.6679567"><ele>103.0</ele><time>2026-04-17T11:56:42.91Z</time></trkpt><trkpt lat="42.6087283" lon="-8.66786"><ele>103.83333333333334</ele><time>2026-04-17T11:56:43.909Z</time></trkpt><trkpt lat="42.6087733" lon="-8.6677617"><ele>104.66666666666667</ele><time>2026-04-17T11:56:44.909Z</time></trkpt><trkpt lat="42.6088217" lon="-8.6676767"><ele>105.5</ele><time>2026-04-17T11:56:45.909Z</time></trkpt><trkpt lat="42.6088867" lon="-8.66759"><ele>106.33333333333334</ele><time>2026-04-17T11:56:46.91Z</time></trkpt><trkpt lat="42.608965" lon="-8.6675133"><ele>107.16666666666667</ele><time>2026-04-17T11:56:47.909Z</time></trkpt><trkpt lat="42.6090483" lon="-8.6674467"><ele>108.0</ele><time>2026-04-17T11:56:48.91Z</time></trkpt><trkpt lat="42.60913" lon="-8.667385"><ele>108.0</ele><time>2026-04-17T11:56:49.909Z</time></trkpt><trkpt lat="42.6092117" lon="-8.6673217"><ele>108.00000000000001</ele><time>2026-04-17T11:56:50.909Z</time></trkpt><trkpt lat="42.6092917" lon="-8.6672583"><ele>108.00000000000001</ele><time>2026-04-17T11:56:51.91Z</time></trkpt><trkpt lat="42.6093783" lon="-8.6671933"><ele>108.0</ele><time>2026-04-17T11:56:52.91Z</time></trkpt><trkpt lat="42.6094633" lon="-8.66713"><ele>108.0</ele><time>2026-04-17T11:56:53.909Z</time></trkpt><trkpt lat="42.6095467" lon="-8.66707"><ele>107.5</ele><time>2026-04-17T11:56:54.91Z</time></trkpt><trkpt lat="42.6096117" lon="-8.667"><ele>107.0</ele><time>2026-04-17T11:56:55.91Z</time></trkpt><trkpt lat="42.609675" lon="-8.666925"><ele>106.5</ele><time>2026-04-17T11:56:56.909Z</time></trkpt><trkpt lat="42.60975" lon="-8.6668567"><ele>106.0</ele><time>2026-04-17T11:56:57.909Z</time></trkpt><trkpt lat="42.6098217" lon="-8.6667917"><ele>105.5</ele><time>2026-04-17T11:56:58.91Z</time></trkpt><trkpt lat="42.6099017" lon="-8.6667283"><ele>105.0</ele><time>2026-04-17T11:56:59.91Z</time></trkpt><trkpt lat="42.6099817" lon="-8.66667"><ele>106.4</ele><time>2026-04-17T11:57:00.91Z</time></trkpt><trkpt lat="42.61006" lon="-8.6666083"><ele>107.8</ele><time>2026-04-17T11:57:01.909Z</time></trkpt><trkpt lat="42.6101367" lon="-8.6665383"><ele>109.19999999999999</ele><time>2026-04-17T11:57:02.91Z</time></trkpt><trkpt lat="42.6102117" lon="-8.6664717"><ele>110.6</ele><time>2026-04-17T11:57:03.909Z</time></trkpt><trkpt lat="42.6102883" lon="-8.6664083"><ele>112.0</ele><time>2026-04-17T11:57:04.909Z</time></trkpt><trkpt lat="42.610365" lon="-8.6663417"><ele>113.0</ele><time>2026-04-17T11:57:05.909Z</time></trkpt><trkpt lat="42.6104433" lon="-8.6662767"><ele>113.99999999999999</ele><time>2026-04-17T11:57:06.909Z</time></trkpt><trkpt lat="42.6105183" lon="-8.6662117"><ele>114.99999999999999</ele><time>2026-04-17T11:57:07.909Z</time></trkpt><trkpt lat="42.6105967" lon="-8.6661467"><ele>116.0</ele><time>2026-04-17T11:57:08.91Z</time></trkpt><trkpt lat="42.61068" lon="-8.666075"><ele>117.0</ele><time>2026-04-17T11:57:09.909Z</time></trkpt><trkpt lat="42.6107617" lon="-8.6660117"><ele>117.0</ele><time>2026-04-17T11:57:10.91Z</time></trkpt><trkpt lat="42.6108367" lon="-8.6659567"><ele>117.0</ele><time>2026-04-17T11:57:11.909Z</time></trkpt><trkpt lat="42.6109133" lon="-8.6659083"><ele>117.0</ele><time>2026-04-17T11:57:12.909Z</time></trkpt><trkpt lat="42.610995" lon="-8.665865"><ele>117.0</ele><time>2026-04-17T11:57:13.909Z</time></trkpt><trkpt lat="42.6110817" lon="-8.66583"><ele>117.0</ele><time>2026-04-17T11:57:14.91Z</time></trkpt><trkpt lat="42.6111667" lon="-8.6657867"><ele>117.0</ele><time>2026-04-17T11:57:15.91Z</time></trkpt><trkpt lat="42.61125" lon="-8.6657383"><ele>120.0</ele><time>2026-04-17T11:57:16.91Z</time></trkpt><trkpt lat="42.61133" lon="-8.6656767"><ele>122.99999999999999</ele><time>2026-04-17T11:57:17.909Z</time></trkpt><trkpt lat="42.6114133" lon="-8.6656067"><ele>125.99999999999999</ele><time>2026-04-17T11:57:18.91Z</time></trkpt><trkpt lat="42.611495" lon="-8.6655417"><ele>129.0</ele><time>2026-04-17T11:57:19.909Z</time></trkpt><trkpt lat="42.611575" lon="-8.66548"><ele>132.0</ele><time>2026-04-17T11:57:20.91Z</time></trkpt><trkpt lat="42.6116533" lon="-8.6654267"><ele>132.0</ele><time>2026-04-17T11:57:21.91Z</time></trkpt><trkpt lat="42.6117367" lon="-8.6653717"><ele>132.0</ele><time>2026-04-17T11:57:22.909Z</time></trkpt><trkpt lat="42.61182" lon="-8.66532"><ele>132.0</ele><time>2026-04-17T11:57:23.909Z</time></trkpt><trkpt lat="42.6119017" lon="-8.6652717"><ele>132.0</ele><time>2026-04-17T11:57:24.909Z</time></trkpt><trkpt lat="42.611985" lon="-8.6652217"><ele>132.0</ele><time>2026-04-17T11:57:25.909Z</time></trkpt><trkpt lat="42.6120667" lon="-8.66517"><ele>131.66666666666666</ele><time>2026-04-17T11:57:26.909Z</time></trkpt><trkpt lat="42.61215" lon="-8.6651217"><ele>131.33333333333334</ele><time>2026-04-17T11:57:27.909Z</time></trkpt><trkpt lat="42.6122317" lon="-8.66507"><ele>131.0</ele><time>2026-04-17T11:57:28.909Z</time></trkpt><trkpt lat="42.6123117" lon="-8.6650217"><ele>130.66666666666669</ele><time>2026-04-17T11:57:29.91Z</time></trkpt><trkpt lat="42.6123933" lon="-8.6649767"><ele>130.33333333333334</ele><time>2026-04-17T11:57:30.909Z</time></trkpt><trkpt lat="42.6124767" lon="-8.6649367"><ele>130.0</ele><time>2026-04-17T11:57:31.909Z</time></trkpt><trkpt lat="42.6125633" lon="-8.664905"><ele>130.0</ele><time>2026-04-17T11:57:32.909Z</time></trkpt><trkpt lat="42.61265" lon="-8.6648833"><ele>130.0</ele><time>2026-04-17T11:57:33.91Z</time></trkpt><trkpt lat="42.61274" lon="-8.6648817"><ele>130.0</ele><time>2026-04-17T11:57:34.909Z</time></trkpt><trkpt lat="42.6128283" lon="-8.6649"><ele>130.0</ele><time>2026-04-17T11:57:35.91Z</time></trkpt><trkpt lat="42.6129167" lon="-8.6649283"><ele>130.0</ele><time>2026-04-17T11:57:36.91Z</time></trkpt><trkpt lat="42.6130067" lon="-8.6649633"><ele>130.4</ele><time>2026-04-17T11:57:37.909Z</time></trkpt><trkpt lat="42.613095" lon="-8.6650083"><ele>130.8</ele><time>2026-04-17T11:57:38.909Z</time></trkpt><trkpt lat="42.61318" lon="-8.6650483"><ele>131.2</ele><time>2026-04-17T11:57:39.909Z</time></trkpt><trkpt lat="42.613265" lon="-8.665085"><ele>131.6</ele><time>2026-04-17T11:57:40.91Z</time></trkpt><trkpt lat="42.61335" lon="-8.6651217"><ele>132.0</ele><time>2026-04-17T11:57:41.909Z</time></trkpt><trkpt lat="42.6134383" lon="-8.66517"><ele>132.0</ele><time>2026-04-17T11:57:42.909Z</time></trkpt><trkpt lat="42.6135233" lon="-8.6652283"><ele>132.0</ele><time>2026-04-17T11:57:43.91Z</time></trkpt><trkpt lat="42.6135983" lon="-8.6653133"><ele>132.0</ele><time>2026-04-17T11:57:44.91Z</time></trkpt><trkpt lat="42.6136667" lon="-8.6654133"><ele>132.0</ele><time>2026-04-17T11:57:45.909Z</time></trkpt><trkpt lat="42.613735" lon="-8.6655083"><ele>132.0</ele><time>2026-04-17T11:57:46.91Z</time></trkpt><trkpt lat="42.613805" lon="-8.6655983"><ele>133.0</ele><time>2026-04-17T11:57:47.91Z</time></trkpt><trkpt lat="42.61388" lon="-8.6656717"><ele>134.0</ele><time>2026-04-17T11:57:48.909Z</time></trkpt><trkpt lat="42.61396" lon="-8.6657183"><ele>135.0</ele><time>2026-04-17T11:57:49.909Z</time></trkpt><trkpt lat="42.6140433" lon="-8.6657483"><ele>136.0</ele><time>2026-04-17T11:57:50.909Z</time></trkpt><trkpt lat="42.614125" lon="-8.665765"><ele>137.0</ele><time>2026-04-17T11:57:51.909Z</time></trkpt><trkpt lat="42.6142033" lon="-8.6657567"><ele>138.0</ele><time>2026-04-17T11:57:52.91Z</time></trkpt><trkpt lat="42.6142833" lon="-8.66573"><ele>138.0</ele><time>2026-04-17T11:57:53.91Z</time></trkpt><trkpt lat="42.6143683" lon="-8.6656917"><ele>138.0</ele><time>2026-04-17T11:57:54.91Z</time></trkpt><trkpt lat="42.61446" lon="-8.6656583"><ele>138.0</ele><time>2026-04-17T11:57:55.909Z</time></trkpt><trkpt lat="42.6145533" lon="-8.6656383"><ele>138.0</ele><time>2026-04-17T11:57:56.91Z</time></trkpt><trkpt lat="42.6146433" lon="-8.66564"><ele>138.0</ele><time>2026-04-17T11:57:57.909Z</time></trkpt><trkpt lat="42.614735" lon="-8.6656433"><ele>138.83333333333334</ele><time>2026-04-17T11:57:58.909Z</time></trkpt><trkpt lat="42.6148217" lon="-8.6656483"><ele>139.66666666666666</ele><time>2026-04-17T11:57:59.91Z</time></trkpt><trkpt lat="42.6149117" lon="-8.6656567"><ele>140.5</ele><time>2026-04-17T11:58:00.909Z</time></trkpt><trkpt lat="42.6150017" lon="-8.665675"><ele>141.33333333333331</ele><time>2026-04-17T11:58:01.91Z</time></trkpt><trkpt lat="42.6150917" lon="-8.66569"><ele>142.16666666666666</ele><time>2026-04-17T11:58:02.909Z</time></trkpt><trkpt lat="42.6151783" lon="-8.6657017"><ele>143.0</ele><time>2026-04-17T11:58:03.909Z</time></trkpt><trkpt lat="42.6152583" lon="-8.6656967"><ele>144.20000000000002</ele><time>2026-04-17T11:58:04.91Z</time></trkpt><trkpt lat="42.6153583" lon="-8.6656383"><ele>145.4</ele><time>2026-04-17T11:58:06.909Z</time></trkpt><trkpt lat="42.615375" lon="-8.6655483"><ele>146.60000000000002</ele><time>2026-04-17T11:58:07.909Z</time></trkpt><trkpt lat="42.6153767" lon="-8.6654317"><ele>147.8</ele><time>2026-04-17T11:58:08.909Z</time></trkpt><trkpt lat="42.6153683" lon="-8.66529"><ele>149.0</ele><time>2026-04-17T11:58:09.909Z</time></trkpt><trkpt lat="42.6153467" lon="-8.6651417"><ele>149.8</ele><time>2026-04-17T11:58:10.909Z</time></trkpt><trkpt lat="42.6153217" lon="-8.665"><ele>150.60000000000002</ele><time>2026-04-17T11:58:11.909Z</time></trkpt><trkpt lat="42.61531" lon="-8.664875"><ele>151.4</ele><time>2026-04-17T11:58:12.91Z</time></trkpt><trkpt lat="42.6152967" lon="-8.6647517"><ele>152.20000000000002</ele><time>2026-04-17T11:58:13.91Z</time></trkpt><trkpt lat="42.61529" lon="-8.6646333"><ele>153.0</ele><time>2026-04-17T11:58:14.909Z</time></trkpt><trkpt lat="42.6152767" lon="-8.6645167"><ele>153.0</ele><time>2026-04-17T11:58:15.909Z</time></trkpt><trkpt lat="42.6152667" lon="-8.6644"><ele>153.0</ele><time>2026-04-17T11:58:16.91Z</time></trkpt><trkpt lat="42.615275" lon="-8.6642733"><ele>153.0</ele><time>2026-04-17T11:58:17.909Z</time></trkpt><trkpt lat="42.6152967" lon="-8.664155"><ele>153.0</ele><time>2026-04-17T11:58:18.91Z</time></trkpt><trkpt lat="42.6153283" lon="-8.66404"><ele>153.0</ele><time>2026-04-17T11:58:19.91Z</time></trkpt><trkpt lat="42.6153667" lon="-8.6639217"><ele>153.0</ele><time>2026-04-17T11:58:20.909Z</time></trkpt><trkpt lat="42.6154067" lon="-8.663805"><ele>153.0</ele><time>2026-04-17T11:58:21.909Z</time></trkpt><trkpt lat="42.6154517" lon="-8.6636933"><ele>153.0</ele><time>2026-04-17T11:58:22.909Z</time></trkpt><trkpt lat="42.615495" lon="-8.6635817"><ele>153.0</ele><time>2026-04-17T11:58:23.909Z</time></trkpt><trkpt lat="42.6155433" lon="-8.6634767"><ele>153.0</ele><time>2026-04-17T11:58:24.909Z</time></trkpt><trkpt lat="42.6155967" lon="-8.6633817"><ele>151.4</ele><time>2026-04-17T11:58:25.909Z</time></trkpt><trkpt lat="42.6156567" lon="-8.6632917"><ele>149.8</ele><time>2026-04-17T11:58:26.909Z</time></trkpt><trkpt lat="42.6157217" lon="-8.6632117"><ele>148.2</ele><time>2026-04-17T11:58:27.91Z</time></trkpt><trkpt lat="42.6157867" lon="-8.6631183"><ele>146.6</ele><time>2026-04-17T11:58:28.91Z</time></trkpt><trkpt lat="42.6158517" lon="-8.663035"><ele>145.0</ele><time>2026-04-17T11:58:29.909Z</time></trkpt><trkpt lat="42.61592" lon="-8.6629433"><ele>145.0</ele><time>2026-04-17T11:58:30.91Z</time></trkpt><trkpt lat="42.61599" lon="-8.6628567"><ele>145.0</ele><time>2026-04-17T11:58:31.91Z</time></trkpt><trkpt lat="42.61606" lon="-8.6627667"><ele>145.0</ele><time>2026-04-17T11:58:32.909Z</time></trkpt><trkpt lat="42.6161217" lon="-8.6626683"><ele>145.0</ele><time>2026-04-17T11:58:33.91Z</time></trkpt><trkpt lat="42.6161867" lon="-8.662575"><ele>145.0</ele><time>2026-04-17T11:58:34.909Z</time></trkpt><trkpt lat="42.6162533" lon="-8.6624833"><ele>143.4</ele><time>2026-04-17T11:58:35.909Z</time></trkpt><trkpt lat="42.61632" lon="-8.6623967"><ele>141.8</ele><time>2026-04-17T11:58:36.909Z</time></trkpt><trkpt lat="42.6164" lon="-8.662305"><ele>140.2</ele><time>2026-04-17T11:58:37.91Z</time></trkpt><trkpt lat="42.6164833" lon="-8.6622383"><ele>138.6</ele><time>2026-04-17T11:58:38.909Z</time></trkpt><trkpt lat="42.6165617" lon="-8.6621983"><ele>137.0</ele><time>2026-04-17T11:58:39.909Z</time></trkpt><trkpt lat="42.6166517" lon="-8.6621683"><ele>137.0</ele><time>2026-04-17T11:58:40.91Z</time></trkpt><trkpt lat="42.6167583" lon="-8.6621533"><ele>137.0</ele><time>2026-04-17T11:58:41.91Z</time></trkpt><trkpt lat="42.6168633" lon="-8.6621317"><ele>137.0</ele><time>2026-04-17T11:58:42.909Z</time></trkpt><trkpt lat="42.616985" lon="-8.662085"><ele>137.0</ele><time>2026-04-17T11:58:43.909Z</time></trkpt><trkpt lat="42.6171167" lon="-8.66199"><ele>132.33333333333331</ele><time>2026-04-17T11:58:44.91Z</time></trkpt><trkpt lat="42.6172517" lon="-8.6618817"><ele>127.66666666666666</ele><time>2026-04-17T11:58:45.909Z</time></trkpt><trkpt lat="42.6173883" lon="-8.6617917"><ele>123.0</ele><time>2026-04-17T11:58:46.909Z</time></trkpt><trkpt lat="42.6175333" lon="-8.6617183"><ele>123.0</ele><time>2026-04-17T11:58:47.91Z</time></trkpt><trkpt lat="42.617695" lon="-8.6616533"><ele>123.0</ele><time>2026-04-17T11:58:48.909Z</time></trkpt><trkpt lat="42.617845" lon="-8.661615"><ele>123.0</ele><time>2026-04-17T11:58:49.909Z</time></trkpt><trkpt lat="42.6179783" lon="-8.6615983"><ele>124.2</ele><time>2026-04-17T11:58:50.909Z</time></trkpt><trkpt lat="42.6180883" lon="-8.661605"><ele>125.4</ele><time>2026-04-17T11:58:51.909Z</time></trkpt><trkpt lat="42.6181533" lon="-8.66163"><ele>126.60000000000001</ele><time>2026-04-17T11:58:52.91Z</time></trkpt><trkpt lat="42.6182083" lon="-8.6616833"><ele>127.80000000000001</ele><time>2026-04-17T11:58:55.909Z</time></trkpt><trkpt lat="42.6182833" lon="-8.66177"><ele>129.0</ele><time>2026-04-17T11:58:57.909Z</time></trkpt><trkpt lat="42.6183933" lon="-8.6618833"><ele>132.25</ele><time>2026-04-17T11:58:59.909Z</time></trkpt><trkpt lat="42.6184683" lon="-8.6619583"><ele>135.5</ele><time>2026-04-17T11:59:00.909Z</time></trkpt><trkpt lat="42.618555" lon="-8.6620683"><ele>138.75</ele><time>2026-04-17T11:59:01.91Z</time></trkpt><trkpt lat="42.6186517" lon="-8.66223"><ele>142.0</ele><time>2026-04-17T11:59:02.909Z</time></trkpt><trkpt lat="42.6187433" lon="-8.6624183"><ele>142.0</ele><time>2026-04-17T11:59:03.909Z</time></trkpt><trkpt lat="42.61881" lon="-8.6625467"><ele>142.0</ele><time>2026-04-17T11:59:04.91Z</time></trkpt><trkpt lat="42.618885" lon="-8.662645"><ele>142.0</ele><time>2026-04-17T11:59:05.909Z</time></trkpt><trkpt lat="42.61896" lon="-8.66273"><ele>142.0</ele><time>2026-04-17T11:59:06.909Z</time></trkpt><trkpt lat="42.6190333" lon="-8.6628333"><ele>142.0</ele><time>2026-04-17T11:59:07.91Z</time></trkpt><trkpt lat="42.619115" lon="-8.6629333"><ele>142.75</ele><time>2026-04-17T11:59:08.91Z</time></trkpt><trkpt lat="42.6192117" lon="-8.6630467"><ele>143.5</ele><time>2026-04-17T11:59:09.91Z</time></trkpt><trkpt lat="42.6193217" lon="-8.6631433"><ele>144.25</ele><time>2026-04-17T11:59:10.91Z</time></trkpt><trkpt lat="42.61944" lon="-8.6632433"><ele>145.0</ele><time>2026-04-17T11:59:11.909Z</time></trkpt><trkpt lat="42.619565" lon="-8.6633617"><ele>145.0</ele><time>2026-04-17T11:59:12.909Z</time></trkpt><trkpt lat="42.61968" lon="-8.6634817"><ele>145.0</ele><time>2026-04-17T11:59:13.909Z</time></trkpt><trkpt lat="42.61977" lon="-8.6636167"><ele>145.0</ele><time>2026-04-17T11:59:14.91Z</time></trkpt><trkpt lat="42.61984" lon="-8.66379"><ele>145.0</ele><time>2026-04-17T11:59:15.91Z</time></trkpt><trkpt lat="42.6199067" lon="-8.6639733"><ele>146.25</ele><time>2026-04-17T11:59:16.909Z</time></trkpt><trkpt lat="42.6199617" lon="-8.6641467"><ele>147.5</ele><time>2026-04-17T11:59:17.909Z</time></trkpt><trkpt lat="42.6199967" lon="-8.66431"><ele>148.75</ele><time>2026-04-17T11:59:18.909Z</time></trkpt><trkpt lat="42.6200183" lon="-8.6644583"><ele>150.0</ele><time>2026-04-17T11:59:19.909Z</time></trkpt><trkpt lat="42.6200383" lon="-8.6645717"><ele>149.2</ele><time>2026-04-17T11:59:20.91Z</time></trkpt><trkpt lat="42.6200817" lon="-8.66465"><ele>148.4</ele><time>2026-04-17T11:59:21.909Z</time></trkpt><trkpt lat="42.62014" lon="-8.6647283"><ele>147.6</ele><time>2026-04-17T11:59:22.909Z</time></trkpt><trkpt lat="42.6202167" lon="-8.6648133"><ele>146.8</ele><time>2026-04-17T11:59:23.91Z</time></trkpt><trkpt lat="42.620295" lon="-8.66493"><ele>146.0</ele><time>2026-04-17T11:59:24.909Z</time></trkpt><trkpt lat="42.6203667" lon="-8.6650617"><ele>146.0</ele><time>2026-04-17T11:59:25.909Z</time></trkpt><trkpt lat="42.6204383" lon="-8.665215"><ele>146.0</ele><time>2026-04-17T11:59:26.91Z</time></trkpt><trkpt lat="42.6204983" lon="-8.6653683"><ele>146.0</ele><time>2026-04-17T11:59:27.909Z</time></trkpt><trkpt lat="42.6205567" lon="-8.6655017"><ele>146.0</ele><time>2026-04-17T11:59:28.909Z</time></trkpt><trkpt lat="42.620615" lon="-8.6656117"><ele>146.33333333333331</ele><time>2026-04-17T11:59:29.91Z</time></trkpt><trkpt lat="42.6206767" lon="-8.66567"><ele>146.66666666666666</ele><time>2026-04-17T11:59:30.909Z</time></trkpt><trkpt lat="42.620755" lon="-8.6657217"><ele>147.0</ele><time>2026-04-17T11:59:31.91Z</time></trkpt><trkpt lat="42.6208333" lon="-8.6657583"><ele>147.33333333333334</ele><time>2026-04-17T11:59:32.91Z</time></trkpt><trkpt lat="42.6209067" lon="-8.6657667"><ele>147.66666666666669</ele><time>2026-04-17T11:59:34.909Z</time></trkpt><trkpt lat="42.6209117" lon="-8.66568"><ele>148.0</ele><time>2026-04-17T11:59:38.909Z</time></trkpt><trkpt lat="42.6209417" lon="-8.6655967"><ele>148.0</ele><time>2026-04-17T11:59:41.91Z</time></trkpt><trkpt lat="42.6210317" lon="-8.6655483"><ele>148.0</ele><time>2026-04-17T11:59:54.91Z</time></trkpt><trkpt lat="42.6210083" lon="-8.665645"><ele>148.0</ele><time>2026-04-17T11:59:57.91Z</time></trkpt><trkpt lat="42.62102" lon="-8.6657983"><ele>148.0</ele><time>2026-04-17T11:59:59.91Z</time></trkpt><trkpt lat="42.6210467" lon="-8.6658983"><ele>148.0</ele><time>2026-04-17T12:00:00.91Z</time></trkpt><trkpt lat="42.621095" lon="-8.6659817"><ele>148.0</ele><time>2026-04-17T12:00:01.909Z</time></trkpt><trkpt lat="42.62116" lon="-8.6660567"><ele>150.5</ele><time>2026-04-17T12:00:02.909Z</time></trkpt><trkpt lat="42.6212517" lon="-8.6661183"><ele>153.0</ele><time>2026-04-17T12:00:03.91Z</time></trkpt><trkpt lat="42.6213483" lon="-8.6661567"><ele>155.5</ele><time>2026-04-17T12:00:04.909Z</time></trkpt><trkpt lat="42.621465" lon="-8.6661967"><ele>158.0</ele><time>2026-04-17T12:00:05.91Z</time></trkpt><trkpt lat="42.6216117" lon="-8.6662317"><ele>158.0</ele><time>2026-04-17T12:00:06.909Z</time></trkpt><trkpt lat="42.6218" lon="-8.6662667"><ele>158.0</ele><time>2026-04-17T12:00:07.909Z</time></trkpt><trkpt lat="42.6219517" lon="-8.6662983"><ele>158.0</ele><time>2026-04-17T12:00:08.909Z</time></trkpt><trkpt lat="42.6220917" lon="-8.66632"><ele>158.0</ele><time>2026-04-17T12:00:09.91Z</time></trkpt><trkpt lat="42.6222217" lon="-8.6663217"><ele>158.0</ele><time>2026-04-17T12:00:10.91Z</time></trkpt><trkpt lat="42.6223333" lon="-8.666295"><ele>158.0</ele><time>2026-04-17T12:00:11.909Z</time></trkpt><trkpt lat="42.6224333" lon="-8.666235"><ele>158.0</ele><time>2026-04-17T12:00:12.909Z</time></trkpt><trkpt lat="42.6225133" lon="-8.6661567"><ele>155.8</ele><time>2026-04-17T12:00:13.909Z</time></trkpt><trkpt lat="42.6225917" lon="-8.6660967"><ele>153.60000000000002</ele><time>2026-04-17T12:00:14.91Z</time></trkpt><trkpt lat="42.6226767" lon="-8.6660667"><ele>151.39999999999998</ele><time>2026-04-17T12:00:15.909Z</time></trkpt><trkpt lat="42.6227683" lon="-8.6660567"><ele>149.2</ele><time>2026-04-17T12:00:16.91Z</time></trkpt><trkpt lat="42.6228617" lon="-8.6660667"><ele>147.0</ele><time>2026-04-17T12:00:17.91Z</time></trkpt><trkpt lat="42.6229717" lon="-8.6660667"><ele>146.6</ele><time>2026-04-17T12:00:18.91Z</time></trkpt><trkpt lat="42.623085" lon="-8.6660533"><ele>146.2</ele><time>2026-04-17T12:00:19.91Z</time></trkpt><trkpt lat="42.6231983" lon="-8.6660417"><ele>145.8</ele><time>2026-04-17T12:00:20.909Z</time></trkpt><trkpt lat="42.62331" lon="-8.6660533"><ele>145.4</ele><time>2026-04-17T12:00:21.909Z</time></trkpt><trkpt lat="42.6234" lon="-8.6660733"><ele>145.0</ele><time>2026-04-17T12:00:22.91Z</time></trkpt><trkpt lat="42.6234717" lon="-8.6661033"><ele>146.0</ele><time>2026-04-17T12:00:23.909Z</time></trkpt><trkpt lat="42.6235117" lon="-8.6661733"><ele>147.0</ele><time>2026-04-17T12:00:24.909Z</time></trkpt><trkpt lat="42.6235467" lon="-8.66627"><ele>148.0</ele><time>2026-04-17T12:00:25.909Z</time></trkpt><trkpt lat="42.6235717" lon="-8.666375"><ele>149.0</ele><time>2026-04-17T12:00:26.909Z</time></trkpt><trkpt lat="42.6235933" lon="-8.6665067"><ele>150.0</ele><time>2026-04-17T12:00:27.909Z</time></trkpt><trkpt lat="42.62363" lon="-8.6666183"><ele>151.0</ele><time>2026-04-17T12:00:28.91Z</time></trkpt><trkpt lat="42.6236683" lon="-8.6667167"><ele>149.25</ele><time>2026-04-17T12:00:29.909Z</time></trkpt><trkpt lat="42.623725" lon="-8.66683"><ele>147.5</ele><time>2026-04-17T12:00:30.909Z</time></trkpt><trkpt lat="42.62381" lon="-8.6669367"><ele>145.75</ele><time>2026-04-17T12:00:31.909Z</time></trkpt><trkpt lat="42.6239233" lon="-8.66703"><ele>144.0</ele><time>2026-04-17T12:00:32.909Z</time></trkpt><trkpt lat="42.62405" lon="-8.6671233"><ele>144.0</ele><time>2026-04-17T12:00:33.909Z</time></trkpt><trkpt lat="42.6241733" lon="-8.6672283"><ele>144.0</ele><time>2026-04-17T12:00:34.91Z</time></trkpt><trkpt lat="42.62429" lon="-8.6673133"><ele>144.0</ele><time>2026-04-17T12:00:35.91Z</time></trkpt><trkpt lat="42.6243817" lon="-8.6673767"><ele>144.0</ele><time>2026-04-17T12:00:36.909Z</time></trkpt><trkpt lat="42.624435" lon="-8.667425"><ele>144.0</ele><time>2026-04-17T12:00:37.909Z</time></trkpt><trkpt lat="42.6245383" lon="-8.66744"><ele>144.0</ele><time>2026-04-17T12:00:40.909Z</time></trkpt><trkpt lat="42.6246033" lon="-8.6674483"><ele>144.0</ele><time>2026-04-17T12:00:41.909Z</time></trkpt><trkpt lat="42.6247233" lon="-8.66746"><ele>144.0</ele><time>2026-04-17T12:00:42.909Z</time></trkpt><trkpt lat="42.624835" lon="-8.667485"><ele>144.0</ele><time>2026-04-17T12:00:43.91Z</time></trkpt><trkpt lat="42.6249217" lon="-8.6674983"><ele>144.0</ele><time>2026-04-17T12:00:44.91Z</time></trkpt><trkpt lat="42.6249967" lon="-8.6675133"><ele>144.0</ele><time>2026-04-17T12:00:45.909Z</time></trkpt><trkpt lat="42.6250683" lon="-8.6675117"><ele>144.0</ele><time>2026-04-17T12:00:46.91Z</time></trkpt><trkpt lat="42.6251583" lon="-8.6674733"><ele>144.0</ele><time>2026-04-17T12:00:47.909Z</time></trkpt><trkpt lat="42.6252633" lon="-8.66741"><ele>144.0</ele><time>2026-04-17T12:00:48.909Z</time></trkpt><trkpt lat="42.6254083" lon="-8.667305"><ele>144.0</ele><time>2026-04-17T12:00:49.909Z</time></trkpt><trkpt lat="42.625565" lon="-8.6672083"><ele>148.33333333333334</ele><time>2026-04-17T12:00:50.909Z</time></trkpt><trkpt lat="42.62571" lon="-8.6671183"><ele>152.66666666666669</ele><time>2026-04-17T12:00:51.909Z</time></trkpt><trkpt lat="42.6258533" lon="-8.6670117"><ele>157.0</ele><time>2026-04-17T12:00:52.91Z</time></trkpt><trkpt lat="42.6259967" lon="-8.66689"><ele>157.0</ele><time>2026-04-17T12:00:53.909Z</time></trkpt><trkpt lat="42.6261233" lon="-8.666765"><ele>157.0</ele><time>2026-04-17T12:00:54.909Z</time></trkpt><trkpt lat="42.626245" lon="-8.6666517"><ele>157.0</ele><time>2026-04-17T12:00:55.909Z</time></trkpt><trkpt lat="42.626365" lon="-8.6665467"><ele>157.0</ele><time>2026-04-17T12:00:56.909Z</time></trkpt><trkpt lat="42.6265" lon="-8.6664617"><ele>158.5</ele><time>2026-04-17T12:00:57.91Z</time></trkpt><trkpt lat="42.62663" lon="-8.6663917"><ele>160.0</ele><time>2026-04-17T12:00:58.909Z</time></trkpt><trkpt lat="42.6267533" lon="-8.666345"><ele>161.5</ele><time>2026-04-17T12:00:59.91Z</time></trkpt><trkpt lat="42.6268683" lon="-8.66632"><ele>163.0</ele><time>2026-04-17T12:01:00.91Z</time></trkpt><trkpt lat="42.6269783" lon="-8.6663183"><ele>163.5</ele><time>2026-04-17T12:01:01.909Z</time></trkpt><trkpt lat="42.6270883" lon="-8.66635"><ele>164.0</ele><time>2026-04-17T12:01:02.91Z</time></trkpt><trkpt lat="42.6271917" lon="-8.6663983"><ele>164.5</ele><time>2026-04-17T12:01:03.909Z</time></trkpt><trkpt lat="42.6272983" lon="-8.6664867"><ele>165.0</ele><time>2026-04-17T12:01:04.909Z</time></trkpt><trkpt lat="42.6274167" lon="-8.6665783"><ele>165.0</ele><time>2026-04-17T12:01:05.909Z</time></trkpt><trkpt lat="42.62755" lon="-8.66669"><ele>165.0</ele><time>2026-04-17T12:01:06.91Z</time></trkpt><trkpt lat="42.6277067" lon="-8.6668017"><ele>165.0</ele><time>2026-04-17T12:01:07.91Z</time></trkpt><trkpt lat="42.6278717" lon="-8.6669117"><ele>166.33333333333334</ele><time>2026-04-17T12:01:08.909Z</time></trkpt><trkpt lat="42.6280283" lon="-8.6670017"><ele>167.66666666666669</ele><time>2026-04-17T12:01:09.91Z</time></trkpt><trkpt lat="42.6281717" lon="-8.6671"><ele>169.0</ele><time>2026-04-17T12:01:10.91Z</time></trkpt><trkpt lat="42.6282967" lon="-8.6671983"><ele>169.0</ele><time>2026-04-17T12:01:11.909Z</time></trkpt><trkpt lat="42.628405" lon="-8.6673033"><ele>169.0</ele><time>2026-04-17T12:01:12.909Z</time></trkpt><trkpt lat="42.628505" lon="-8.6674333"><ele>169.0</ele><time>2026-04-17T12:01:13.91Z</time></trkpt><trkpt lat="42.62859" lon="-8.6675767"><ele>169.0</ele><time>2026-04-17T12:01:14.91Z</time></trkpt><trkpt lat="42.6286717" lon="-8.6677"><ele>170.39999999999998</ele><time>2026-04-17T12:01:15.91Z</time></trkpt><trkpt lat="42.6287467" lon="-8.6678117"><ele>171.8</ele><time>2026-04-17T12:01:16.91Z</time></trkpt><trkpt lat="42.628815" lon="-8.667885"><ele>173.2</ele><time>2026-04-17T12:01:17.91Z</time></trkpt><trkpt lat="42.6288933" lon="-8.66794"><ele>174.60000000000002</ele><time>2026-04-17T12:01:18.91Z</time></trkpt><trkpt lat="42.62899" lon="-8.6679967"><ele>176.0</ele><time>2026-04-17T12:01:19.91Z</time></trkpt><trkpt lat="42.6291017" lon="-8.66802"><ele>176.0</ele><time>2026-04-17T12:01:20.909Z</time></trkpt><trkpt lat="42.6292317" lon="-8.6680167"><ele>176.0</ele><time>2026-04-17T12:01:21.909Z</time></trkpt><trkpt lat="42.629365" lon="-8.668"><ele>176.0</ele><time>2026-04-17T12:01:22.91Z</time></trkpt><trkpt lat="42.62949" lon="-8.6679717"><ele>176.0</ele><time>2026-04-17T12:01:23.909Z</time></trkpt><trkpt lat="42.6296033" lon="-8.6679567"><ele>176.60000000000002</ele><time>2026-04-17T12:01:24.91Z</time></trkpt><trkpt lat="42.6296967" lon="-8.6679717"><ele>177.2</ele><time>2026-04-17T12:01:25.909Z</time></trkpt><trkpt lat="42.6297883" lon="-8.6680067"><ele>177.8</ele><time>2026-04-17T12:01:26.91Z</time></trkpt><trkpt lat="42.629875" lon="-8.6680633"><ele>178.39999999999998</ele><time>2026-04-17T12:01:27.909Z</time></trkpt><trkpt lat="42.6299633" lon="-8.6681417"><ele>179.0</ele><time>2026-04-17T12:01:28.91Z</time></trkpt><trkpt lat="42.63006" lon="-8.6682467"><ele>179.0</ele><time>2026-04-17T12:01:29.909Z</time></trkpt><trkpt lat="42.63014" lon="-8.6683733"><ele>179.0</ele><time>2026-04-17T12:01:30.91Z</time></trkpt><trkpt lat="42.6301933" lon="-8.6685083"><ele>179.0</ele><time>2026-04-17T12:01:31.91Z</time></trkpt><trkpt lat="42.6302283" lon="-8.6686533"><ele>179.0</ele><time>2026-04-17T12:01:32.91Z</time></trkpt><trkpt lat="42.6302517" lon="-8.6688067"><ele>179.79999999999998</ele><time>2026-04-17T12:01:33.909Z</time></trkpt><trkpt lat="42.6302767" lon="-8.66892"><ele>180.6</ele><time>2026-04-17T12:01:34.91Z</time></trkpt><trkpt lat="42.630335" lon="-8.668995"><ele>181.4</ele><time>2026-04-17T12:01:36.909Z</time></trkpt><trkpt lat="42.63043" lon="-8.66894"><ele>182.2</ele><time>2026-04-17T12:01:38.91Z</time></trkpt><trkpt lat="42.630505" lon="-8.6688767"><ele>183.0</ele><time>2026-04-17T12:01:39.91Z</time></trkpt><trkpt lat="42.6306033" lon="-8.6688"><ele>183.0</ele><time>2026-04-17T12:01:40.91Z</time></trkpt><trkpt lat="42.6307317" lon="-8.668735"><ele>183.0</ele><time>2026-04-17T12:01:41.909Z</time></trkpt><trkpt lat="42.6308433" lon="-8.6686583"><ele>183.0</ele><time>2026-04-17T12:01:42.909Z</time></trkpt><trkpt lat="42.6309333" lon="-8.6685683"><ele>183.0</ele><time>2026-04-17T12:01:43.909Z</time></trkpt><trkpt lat="42.6310167" lon="-8.668425"><ele>184.0</ele><time>2026-04-17T12:01:44.909Z</time></trkpt><trkpt lat="42.6311067" lon="-8.6682917"><ele>185.0</ele><time>2026-04-17T12:01:45.909Z</time></trkpt><trkpt lat="42.63119" lon="-8.6681533"><ele>186.0</ele><time>2026-04-17T12:01:46.91Z</time></trkpt><trkpt lat="42.6312917" lon="-8.668015"><ele>187.0</ele><time>2026-04-17T12:01:47.91Z</time></trkpt><trkpt lat="42.6314333" lon="-8.6678933"><ele>187.0</ele><time>2026-04-17T12:01:48.91Z</time></trkpt><trkpt lat="42.63157" lon="-8.6677817"><ele>187.0</ele><time>2026-04-17T12:01:49.91Z</time></trkpt><trkpt lat="42.63171" lon="-8.66768"><ele>187.0</ele><time>2026-04-17T12:01:50.91Z</time></trkpt><trkpt lat="42.63188" lon="-8.66758"><ele>184.5</ele><time>2026-04-17T12:01:51.91Z</time></trkpt><trkpt lat="42.632015" lon="-8.667505"><ele>182.0</ele><time>2026-04-17T12:01:52.91Z</time></trkpt><trkpt lat="42.6321433" lon="-8.667435"><ele>179.5</ele><time>2026-04-17T12:01:53.91Z</time></trkpt><trkpt lat="42.6322717" lon="-8.6673517"><ele>177.0</ele><time>2026-04-17T12:01:54.909Z</time></trkpt><trkpt lat="42.6323917" lon="-8.6672983"><ele>177.0</ele><time>2026-04-17T12:01:55.909Z</time></trkpt><trkpt lat="42.63251" lon="-8.66726"><ele>177.0</ele><time>2026-04-17T12:01:56.909Z</time></trkpt><trkpt lat="42.6326533" lon="-8.6672433"><ele>177.0</ele><time>2026-04-17T12:01:57.909Z</time></trkpt><trkpt lat="42.6328033" lon="-8.667225"><ele>177.0</ele><time>2026-04-17T12:01:58.91Z</time></trkpt><trkpt lat="42.6329733" lon="-8.6672283"><ele>175.5</ele><time>2026-04-17T12:01:59.909Z</time></trkpt><trkpt lat="42.6331283" lon="-8.6672383"><ele>174.0</ele><time>2026-04-17T12:02:00.909Z</time></trkpt><trkpt lat="42.6332717" lon="-8.66724"><ele>172.5</ele><time>2026-04-17T12:02:01.909Z</time></trkpt><trkpt lat="42.6333783" lon="-8.6672283"><ele>171.0</ele><time>2026-04-17T12:02:02.909Z</time></trkpt><trkpt lat="42.6334633" lon="-8.66719"><ele>171.0</ele><time>2026-04-17T12:02:03.91Z</time></trkpt><trkpt lat="42.633535" lon="-8.6671183"><ele>171.0</ele><time>2026-04-17T12:02:04.91Z</time></trkpt><trkpt lat="42.6335867" lon="-8.6670367"><ele>171.0</ele><time>2026-04-17T12:02:05.91Z</time></trkpt><trkpt lat="42.6336333" lon="-8.66696"><ele>171.0</ele><time>2026-04-17T12:02:06.909Z</time></trkpt><trkpt lat="42.6336833" lon="-8.6668933"><ele>171.0</ele><time>2026-04-17T12:02:07.909Z</time></trkpt><trkpt lat="42.6337983" lon="-8.6669233"><ele>171.0</ele><time>2026-04-17T12:02:09.909Z</time></trkpt><trkpt lat="42.6338567" lon="-8.6669983"><ele>170.4</ele><time>2026-04-17T12:02:10.91Z</time></trkpt><trkpt lat="42.6339133" lon="-8.6671117"><ele>169.8</ele><time>2026-04-17T12:02:11.909Z</time></trkpt><trkpt lat="42.6339617" lon="-8.6672317"><ele>169.20000000000002</ele><time>2026-04-17T12:02:12.91Z</time></trkpt><trkpt lat="42.6340083" lon="-8.6673317"><ele>168.60000000000002</ele><time>2026-04-17T12:02:13.91Z</time></trkpt><trkpt lat="42.6341117" lon="-8.6673683"><ele>168.0</ele><time>2026-04-17T12:02:15.909Z</time></trkpt><trkpt lat="42.6342283" lon="-8.667235"><ele>168.0</ele><time>2026-04-17T12:02:17.91Z</time></trkpt><trkpt lat="42.63428" lon="-8.66706"><ele>168.0</ele><time>2026-04-17T12:02:18.909Z</time></trkpt><trkpt lat="42.6343283" lon="-8.6668983"><ele>168.0</ele><time>2026-04-17T12:02:19.91Z</time></trkpt><trkpt lat="42.6343767" lon="-8.666775"><ele>168.0</ele><time>2026-04-17T12:02:20.909Z</time></trkpt><trkpt lat="42.634435" lon="-8.666705"><ele>168.0</ele><time>2026-04-17T12:02:21.91Z</time></trkpt><trkpt lat="42.63451" lon="-8.6666467"><ele>164.66666666666666</ele><time>2026-04-17T12:02:22.909Z</time></trkpt><trkpt lat="42.6346033" lon="-8.6666117"><ele>161.33333333333334</ele><time>2026-04-17T12:02:23.91Z</time></trkpt><trkpt lat="42.6346883" lon="-8.6666067"><ele>158.0</ele><time>2026-04-17T12:02:24.909Z</time></trkpt><trkpt lat="42.6347583" lon="-8.6666133"><ele>154.66666666666669</ele><time>2026-04-17T12:02:25.91Z</time></trkpt><trkpt lat="42.634835" lon="-8.6666533"><ele>151.33333333333334</ele><time>2026-04-17T12:02:27.909Z</time></trkpt><trkpt lat="42.6347817" lon="-8.6667117"><ele>148.0</ele><time>2026-04-17T12:02:30.909Z</time></trkpt><trkpt lat="42.6346717" lon="-8.6667383"><ele>148.0</ele><time>2026-04-17T12:02:32.91Z</time></trkpt><trkpt lat="42.634595" lon="-8.6667883"><ele>148.0</ele><time>2026-04-17T12:02:33.91Z</time></trkpt><trkpt lat="42.63452" lon="-8.66685"><ele>148.0</ele><time>2026-04-17T12:02:34.909Z</time></trkpt><trkpt lat="42.634465" lon="-8.6669117"><ele>148.0</ele><time>2026-04-17T12:02:35.909Z</time></trkpt><trkpt lat="42.6344617" lon="-8.6670017"><ele>148.0</ele><time>2026-04-17T12:02:37.909Z</time></trkpt><trkpt lat="42.634565" lon="-8.6671167"><ele>148.0</ele><time>2026-04-17T12:02:39.909Z</time></trkpt><trkpt lat="42.6346533" lon="-8.6671833"><ele>153.75</ele><time>2026-04-17T12:02:40.909Z</time></trkpt><trkpt lat="42.6347533" lon="-8.6672733"><ele>159.5</ele><time>2026-04-17T12:02:41.91Z</time></trkpt><trkpt lat="42.63485" lon="-8.66738"><ele>165.25</ele><time>2026-04-17T12:02:42.909Z</time></trkpt><trkpt lat="42.6349267" lon="-8.6675033"><ele>171.0</ele><time>2026-04-17T12:02:43.909Z</time></trkpt><trkpt lat="42.634985" lon="-8.667635"><ele>171.0</ele><time>2026-04-17T12:02:44.91Z</time></trkpt><trkpt lat="42.635035" lon="-8.6677767"><ele>171.0</ele><time>2026-04-17T12:02:45.91Z</time></trkpt><trkpt lat="42.6350917" lon="-8.667905"><ele>171.0</ele><time>2026-04-17T12:02:46.909Z</time></trkpt><trkpt lat="42.6351733" lon="-8.6680067"><ele>171.0</ele><time>2026-04-17T12:02:47.909Z</time></trkpt><trkpt lat="42.6352833" lon="-8.668105"><ele>174.0</ele><time>2026-04-17T12:02:48.909Z</time></trkpt><trkpt lat="42.6353883" lon="-8.66819"><ele>177.0</ele><time>2026-04-17T12:02:49.91Z</time></trkpt><trkpt lat="42.6354617" lon="-8.6682767"><ele>180.0</ele><time>2026-04-17T12:02:50.909Z</time></trkpt><trkpt lat="42.6355067" lon="-8.66837"><ele>183.0</ele><time>2026-04-17T12:02:51.91Z</time></trkpt><trkpt lat="42.635535" lon="-8.6684633"><ele>186.0</ele><time>2026-04-17T12:02:52.91Z</time></trkpt><trkpt lat="42.6355433" lon="-8.6685633"><ele>188.0</ele><time>2026-04-17T12:02:53.909Z</time></trkpt><trkpt lat="42.6355517" lon="-8.6686783"><ele>190.0</ele><time>2026-04-17T12:02:54.909Z</time></trkpt><trkpt lat="42.6355617" lon="-8.668795"><ele>192.0</ele><time>2026-04-17T12:02:55.91Z</time></trkpt><trkpt lat="42.6355667" lon="-8.6689167"><ele>194.0</ele><time>2026-04-17T12:02:56.909Z</time></trkpt><trkpt lat="42.635565" lon="-8.6690317"><ele>196.0</ele><time>2026-04-17T12:02:57.91Z</time></trkpt><trkpt lat="42.6355483" lon="-8.6691317"><ele>198.0</ele><time>2026-04-17T12:02:58.909Z</time></trkpt><trkpt lat="42.6355117" lon="-8.6692233"><ele>198.0</ele><time>2026-04-17T12:02:59.91Z</time></trkpt><trkpt lat="42.63545" lon="-8.66929"><ele>198.0</ele><time>2026-04-17T12:03:00.909Z</time></trkpt><trkpt lat="42.635355" lon="-8.6693433"><ele>198.0</ele><time>2026-04-17T12:03:01.909Z</time></trkpt><trkpt lat="42.6352267" lon="-8.6694033"><ele>198.0</ele><time>2026-04-17T12:03:02.909Z</time></trkpt><trkpt lat="42.6351117" lon="-8.6694817"><ele>198.0</ele><time>2026-04-17T12:03:03.91Z</time></trkpt><trkpt lat="42.6350183" lon="-8.6695833"><ele>200.5</ele><time>2026-04-17T12:03:04.909Z</time></trkpt><trkpt lat="42.6349517" lon="-8.6696933"><ele>203.0</ele><time>2026-04-17T12:03:05.909Z</time></trkpt><trkpt lat="42.63493" lon="-8.6698033"><ele>205.5</ele><time>2026-04-17T12:03:06.91Z</time></trkpt><trkpt lat="42.6349317" lon="-8.6698933"><ele>208.0</ele><time>2026-04-17T12:03:07.909Z</time></trkpt><trkpt lat="42.634985" lon="-8.6700167"><ele>210.5</ele><time>2026-04-17T12:03:09.909Z</time></trkpt><trkpt lat="42.6350467" lon="-8.6700533"><ele>213.0</ele><time>2026-04-17T12:03:10.909Z</time></trkpt><trkpt lat="42.63513" lon="-8.6700867"><ele>213.0</ele><time>2026-04-17T12:03:11.91Z</time></trkpt><trkpt lat="42.6352417" lon="-8.67014"><ele>213.0</ele><time>2026-04-17T12:03:12.909Z</time></trkpt><trkpt lat="42.6353767" lon="-8.6702067"><ele>213.0</ele><time>2026-04-17T12:03:13.909Z</time></trkpt><trkpt lat="42.6355167" lon="-8.6702617"><ele>213.0</ele><time>2026-04-17T12:03:14.909Z</time></trkpt><trkpt lat="42.6356667" lon="-8.6702683"><ele>213.75</ele><time>2026-04-17T12:03:15.909Z</time></trkpt><trkpt lat="42.6358183" lon="-8.67025"><ele>214.5</ele><time>2026-04-17T12:03:16.91Z</time></trkpt><trkpt lat="42.6359633" lon="-8.6702167"><ele>215.25</ele><time>2026-04-17T12:03:17.91Z</time></trkpt><trkpt lat="42.6360983" lon="-8.6702083"><ele>216.0</ele><time>2026-04-17T12:03:18.909Z</time></trkpt><trkpt lat="42.6362467" lon="-8.67022"><ele>218.33333333333331</ele><time>2026-04-17T12:03:19.909Z</time></trkpt><trkpt lat="42.636405" lon="-8.6702317"><ele>220.66666666666666</ele><time>2026-04-17T12:03:20.909Z</time></trkpt><trkpt lat="42.6365667" lon="-8.6702283"><ele>223.0</ele><time>2026-04-17T12:03:21.91Z</time></trkpt><trkpt lat="42.6367267" lon="-8.67023"><ele>223.0</ele><time>2026-04-17T12:03:22.909Z</time></trkpt><trkpt lat="42.6368833" lon="-8.6702483"><ele>223.0</ele><time>2026-04-17T12:03:23.909Z</time></trkpt><trkpt lat="42.6370433" lon="-8.670295"><ele>223.0</ele><time>2026-04-17T12:03:24.909Z</time></trkpt><trkpt lat="42.6371967" lon="-8.670365"><ele>223.8</ele><time>2026-04-17T12:03:25.909Z</time></trkpt><trkpt lat="42.6373283" lon="-8.6704517"><ele>224.60000000000002</ele><time>2026-04-17T12:03:26.909Z</time></trkpt><trkpt lat="42.6374233" lon="-8.6705467"><ele>225.39999999999998</ele><time>2026-04-17T12:03:27.909Z</time></trkpt><trkpt lat="42.6374817" lon="-8.6706483"><ele>226.2</ele><time>2026-04-17T12:03:28.91Z</time></trkpt><trkpt lat="42.637515" lon="-8.67076"><ele>227.0</ele><time>2026-04-17T12:03:29.909Z</time></trkpt><trkpt lat="42.637525" lon="-8.6708883"><ele>227.0</ele><time>2026-04-17T12:03:30.909Z</time></trkpt><trkpt lat="42.637475" lon="-8.6710417"><ele>227.0</ele><time>2026-04-17T12:03:31.91Z</time></trkpt><trkpt lat="42.6374183" lon="-8.6711817"><ele>227.0</ele><time>2026-04-17T12:03:32.911Z</time></trkpt><trkpt lat="42.637345" lon="-8.6713"><ele>227.0</ele><time>2026-04-17T12:03:33.911Z</time></trkpt><trkpt lat="42.6372483" lon="-8.6713867"><ele>226.83333333333334</ele><time>2026-04-17T12:03:34.911Z</time></trkpt><trkpt lat="42.6371367" lon="-8.67144"><ele>226.66666666666669</ele><time>2026-04-17T12:03:35.911Z</time></trkpt><trkpt lat="42.6370333" lon="-8.6714667"><ele>226.5</ele><time>2026-04-17T12:03:36.91Z</time></trkpt><trkpt lat="42.6369533" lon="-8.671485"><ele>226.33333333333331</ele><time>2026-04-17T12:03:37.91Z</time></trkpt><trkpt lat="42.6368867" lon="-8.6715133"><ele>226.16666666666666</ele><time>2026-04-17T12:03:38.911Z</time></trkpt><trkpt lat="42.63683" lon="-8.6715517"><ele>226.0</ele><time>2026-04-17T12:03:39.911Z</time></trkpt><trkpt lat="42.636755" lon="-8.6716983"><ele>230.25</ele><time>2026-04-17T12:03:41.91Z</time></trkpt><trkpt lat="42.6367333" lon="-8.67182"><ele>234.5</ele><time>2026-04-17T12:03:42.911Z</time></trkpt><trkpt lat="42.6366983" lon="-8.671975"><ele>238.75</ele><time>2026-04-17T12:03:43.91Z</time></trkpt><trkpt lat="42.6366333" lon="-8.6721317"><ele>243.0</ele><time>2026-04-17T12:03:44.91Z</time></trkpt><trkpt lat="42.63655" lon="-8.6722883"><ele>243.0</ele><time>2026-04-17T12:03:45.91Z</time></trkpt><trkpt lat="42.6364617" lon="-8.6724383"><ele>243.0</ele><time>2026-04-17T12:03:46.911Z</time></trkpt><trkpt lat="42.6363717" lon="-8.672585"><ele>243.0</ele><time>2026-04-17T12:03:47.911Z</time></trkpt><trkpt lat="42.636275" lon="-8.67273"><ele>243.0</ele><time>2026-04-17T12:03:48.91Z</time></trkpt><trkpt lat="42.6361783" lon="-8.67285"><ele>245.5</ele><time>2026-04-17T12:03:49.911Z</time></trkpt><trkpt lat="42.6360767" lon="-8.672935"><ele>248.0</ele><time>2026-04-17T12:03:50.91Z</time></trkpt><trkpt lat="42.6359767" lon="-8.67301"><ele>250.5</ele><time>2026-04-17T12:03:51.91Z</time></trkpt><trkpt lat="42.6358783" lon="-8.6731167"><ele>253.0</ele><time>2026-04-17T12:03:52.911Z</time></trkpt><trkpt lat="42.63579" lon="-8.673245"><ele>253.0</ele><time>2026-04-17T12:03:53.911Z</time></trkpt><trkpt lat="42.6357067" lon="-8.6733967"><ele>253.0</ele><time>2026-04-17T12:03:54.91Z</time></trkpt><trkpt lat="42.635625" lon="-8.673575"><ele>253.0</ele><time>2026-04-17T12:03:55.911Z</time></trkpt><trkpt lat="42.63554" lon="-8.6737767"><ele>253.0</ele><time>2026-04-17T12:03:56.911Z</time></trkpt><trkpt lat="42.6354483" lon="-8.6740033"><ele>253.0</ele><time>2026-04-17T12:03:57.91Z</time></trkpt><trkpt lat="42.6353567" lon="-8.674225"><ele>253.0</ele><time>2026-04-17T12:03:58.911Z</time></trkpt><trkpt lat="42.6352833" lon="-8.6744183"><ele>255.2</ele><time>2026-04-17T12:03:59.911Z</time></trkpt><trkpt lat="42.6352333" lon="-8.674575"><ele>257.4</ele><time>2026-04-17T12:04:00.91Z</time></trkpt><trkpt lat="42.6352167" lon="-8.67471"><ele>259.59999999999997</ele><time>2026-04-17T12:04:01.911Z</time></trkpt><trkpt lat="42.6352367" lon="-8.674825"><ele>261.8</ele><time>2026-04-17T12:04:02.911Z</time></trkpt><trkpt lat="42.6352683" lon="-8.6749183"><ele>264.0</ele><time>2026-04-17T12:04:03.91Z</time></trkpt><trkpt lat="42.6353133" lon="-8.67499"><ele>264.59999999999997</ele><time>2026-04-17T12:04:04.911Z</time></trkpt><trkpt lat="42.6353867" lon="-8.675025"><ele>265.2</ele><time>2026-04-17T12:04:05.91Z</time></trkpt><trkpt lat="42.6354683" lon="-8.6750283"><ele>265.79999999999995</ele><time>2026-04-17T12:04:06.911Z</time></trkpt><trkpt lat="42.6355517" lon="-8.6750417"><ele>266.4</ele><time>2026-04-17T12:04:08.911Z</time></trkpt><trkpt lat="42.6354583" lon="-8.6751083"><ele>267.0</ele><time>2026-04-17T12:04:11.91Z</time></trkpt><trkpt lat="42.6353483" lon="-8.675155"><ele>266.0</ele><time>2026-04-17T12:04:12.911Z</time></trkpt><trkpt lat="42.635205" lon="-8.6751967"><ele>265.0</ele><time>2026-04-17T12:04:13.911Z</time></trkpt><trkpt lat="42.6350283" lon="-8.6752367"><ele>264.0</ele><time>2026-04-17T12:04:14.91Z</time></trkpt><trkpt lat="42.634825" lon="-8.675275"><ele>267.3333333333333</ele><time>2026-04-17T12:04:15.91Z</time></trkpt><trkpt lat="42.6346333" lon="-8.6753133"><ele>270.66666666666663</ele><time>2026-04-17T12:04:16.91Z</time></trkpt><trkpt lat="42.6344767" lon="-8.67535"><ele>274.0</ele><time>2026-04-17T12:04:17.911Z</time></trkpt><trkpt lat="42.634345" lon="-8.6754067"><ele>274.0</ele><time>2026-04-17T12:04:18.91Z</time></trkpt><trkpt lat="42.6342117" lon="-8.6754983"><ele>274.0</ele><time>2026-04-17T12:04:19.911Z</time></trkpt><trkpt lat="42.6340683" lon="-8.6756267"><ele>274.0</ele><time>2026-04-17T12:04:20.91Z</time></trkpt><trkpt lat="42.6339183" lon="-8.6757617"><ele>274.0</ele><time>2026-04-17T12:04:21.911Z</time></trkpt><trkpt lat="42.6337583" lon="-8.6758683"><ele>274.0</ele><time>2026-04-17T12:04:22.91Z</time></trkpt><trkpt lat="42.6335917" lon="-8.6759683"><ele>274.0</ele><time>2026-04-17T12:04:23.911Z</time></trkpt><trkpt lat="42.6334333" lon="-8.6760617"><ele>275.0</ele><time>2026-04-17T12:04:24.91Z</time></trkpt><trkpt lat="42.6332967" lon="-8.6761533"><ele>276.0</ele><time>2026-04-17T12:04:25.91Z</time></trkpt><trkpt lat="42.633175" lon="-8.6762567"><ele>277.0</ele><time>2026-04-17T12:04:26.911Z</time></trkpt><trkpt lat="42.633075" lon="-8.6763817"><ele>278.0</ele><time>2026-04-17T12:04:27.91Z</time></trkpt><trkpt lat="42.6330033" lon="-8.6765333"><ele>278.0</ele><time>2026-04-17T12:04:28.91Z</time></trkpt><trkpt lat="42.6329717" lon="-8.6766833"><ele>278.0</ele><time>2026-04-17T12:04:29.91Z</time></trkpt><trkpt lat="42.6329467" lon="-8.6768"><ele>278.0</ele><time>2026-04-17T12:04:30.91Z</time></trkpt><trkpt lat="42.63293" lon="-8.676885"><ele>278.0</ele><time>2026-04-17T12:04:31.91Z</time></trkpt><trkpt lat="42.6328917" lon="-8.6769767"><ele>278.0</ele><time>2026-04-17T12:04:33.91Z</time></trkpt><trkpt lat="42.632935" lon="-8.6768533"><ele>278.0</ele><time>2026-04-17T12:04:38.91Z</time></trkpt><trkpt lat="42.63302" lon="-8.676765"><ele>278.0</ele><time>2026-04-17T12:04:40.911Z</time></trkpt><trkpt lat="42.6331367" lon="-8.6767667"><ele>278.0</ele><time>2026-04-17T12:04:42.911Z</time></trkpt><trkpt lat="42.633215" lon="-8.6767833"><ele>278.0</ele><time>2026-04-17T12:04:43.911Z</time></trkpt><trkpt lat="42.6333117" lon="-8.6767783"><ele>278.0</ele><time>2026-04-17T12:04:44.91Z</time></trkpt><trkpt lat="42.633435" lon="-8.6767367"><ele>278.0</ele><time>2026-04-17T12:04:45.911Z</time></trkpt><trkpt lat="42.6335717" lon="-8.6766883"><ele>281.6666666666667</ele><time>2026-04-17T12:04:46.91Z</time></trkpt><trkpt lat="42.6337267" lon="-8.6766467"><ele>285.3333333333333</ele><time>2026-04-17T12:04:47.911Z</time></trkpt><trkpt lat="42.633895" lon="-8.6766067"><ele>289.0</ele><time>2026-04-17T12:04:48.91Z</time></trkpt><trkpt lat="42.6340717" lon="-8.676575"><ele>289.0</ele><time>2026-04-17T12:04:49.91Z</time></trkpt><trkpt lat="42.6342467" lon="-8.6765483"><ele>289.0</ele><time>2026-04-17T12:04:50.91Z</time></trkpt><trkpt lat="42.6344133" lon="-8.6765167"><ele>289.0</ele><time>2026-04-17T12:04:51.911Z</time></trkpt><trkpt lat="42.6345683" lon="-8.6764817"><ele>291.0</ele><time>2026-04-17T12:04:52.911Z</time></trkpt><trkpt lat="42.63471" lon="-8.67645"><ele>293.0</ele><time>2026-04-17T12:04:53.91Z</time></trkpt><trkpt lat="42.6348517" lon="-8.6764217"><ele>295.0</ele><time>2026-04-17T12:04:54.91Z</time></trkpt><trkpt lat="42.6350067" lon="-8.6763917"><ele>297.0</ele><time>2026-04-17T12:04:55.91Z</time></trkpt><trkpt lat="42.6351717" lon="-8.6763683"><ele>296.25</ele><time>2026-04-17T12:04:56.91Z</time></trkpt><trkpt lat="42.6353317" lon="-8.6763433"><ele>295.5</ele><time>2026-04-17T12:04:57.91Z</time></trkpt><trkpt lat="42.6354717" lon="-8.676315"><ele>294.75</ele><time>2026-04-17T12:04:58.911Z</time></trkpt><trkpt lat="42.6355833" lon="-8.6762983"><ele>294.0</ele><time>2026-04-17T12:04:59.91Z</time></trkpt><trkpt lat="42.635665" lon="-8.676295"><ele>294.0</ele><time>2026-04-17T12:05:00.911Z</time></trkpt><trkpt lat="42.6357383" lon="-8.6763417"><ele>294.0</ele><time>2026-04-17T12:05:02.91Z</time></trkpt><trkpt lat="42.6357133" lon="-8.676465"><ele>294.0</ele><time>2026-04-17T12:05:04.91Z</time></trkpt><trkpt lat="42.63565" lon="-8.676525"><ele>294.0</ele><time>2026-04-17T12:05:05.91Z</time></trkpt><trkpt lat="42.63557" lon="-8.6765833"><ele>294.0</ele><time>2026-04-17T12:05:06.911Z</time></trkpt><trkpt lat="42.635475" lon="-8.67665"><ele>294.0</ele><time>2026-04-17T12:05:07.91Z</time></trkpt><trkpt lat="42.6353717" lon="-8.6767283"><ele>294.0</ele><time>2026-04-17T12:05:08.91Z</time></trkpt><trkpt lat="42.6352567" lon="-8.6768217"><ele>294.0</ele><time>2026-04-17T12:05:09.91Z</time></trkpt><trkpt lat="42.63514" lon="-8.6769217"><ele>294.0</ele><time>2026-04-17T12:05:10.911Z</time></trkpt><trkpt lat="42.63502" lon="-8.6770283"><ele>299.5</ele><time>2026-04-17T12:05:11.911Z</time></trkpt><trkpt lat="42.634895" lon="-8.6771467"><ele>305.0</ele><time>2026-04-17T12:05:12.911Z</time></trkpt><trkpt lat="42.6347733" lon="-8.6772633"><ele>310.5</ele><time>2026-04-17T12:05:13.911Z</time></trkpt><trkpt lat="42.6346517" lon="-8.677365"><ele>316.0</ele><time>2026-04-17T12:05:14.911Z</time></trkpt><trkpt lat="42.6345217" lon="-8.6774583"><ele>312.66666666666663</ele><time>2026-04-17T12:05:15.91Z</time></trkpt><trkpt lat="42.6343867" lon="-8.6775583"><ele>309.3333333333333</ele><time>2026-04-17T12:05:16.91Z</time></trkpt><trkpt lat="42.6342417" lon="-8.6776583"><ele>306.0</ele><time>2026-04-17T12:05:17.911Z</time></trkpt><trkpt lat="42.6341233" lon="-8.6777467"><ele>309.25</ele><time>2026-04-17T12:05:18.911Z</time></trkpt><trkpt lat="42.6340233" lon="-8.6778333"><ele>312.5</ele><time>2026-04-17T12:05:19.91Z</time></trkpt><trkpt lat="42.63394" lon="-8.6779383"><ele>315.75</ele><time>2026-04-17T12:05:20.911Z</time></trkpt><trkpt lat="42.6338583" lon="-8.6780733"><ele>319.0</ele><time>2026-04-17T12:05:21.911Z</time></trkpt><trkpt lat="42.63379" lon="-8.6782117"><ele>319.0</ele><time>2026-04-17T12:05:22.91Z</time></trkpt><trkpt lat="42.6337517" lon="-8.6783517"><ele>319.0</ele><time>2026-04-17T12:05:23.91Z</time></trkpt><trkpt lat="42.633735" lon="-8.6785083"><ele>319.0</ele><time>2026-04-17T12:05:24.911Z</time></trkpt><trkpt lat="42.6337183" lon="-8.6786333"><ele>319.0</ele><time>2026-04-17T12:05:25.91Z</time></trkpt><trkpt lat="42.6337283" lon="-8.6787617"><ele>319.0</ele><time>2026-04-17T12:05:27.91Z</time></trkpt><trkpt lat="42.6338" lon="-8.67877"><ele>319.0</ele><time>2026-04-17T12:05:29.91Z</time></trkpt><trkpt lat="42.633885" lon="-8.6786133"><ele>319.0</ele><time>2026-04-17T12:05:31.91Z</time></trkpt><trkpt lat="42.6339317" lon="-8.6784833"><ele>319.0</ele><time>2026-04-17T12:05:32.911Z</time></trkpt><trkpt lat="42.6339883" lon="-8.678355"><ele>319.0</ele><time>2026-04-17T12:05:33.911Z</time></trkpt><trkpt lat="42.6340717" lon="-8.6782467"><ele>319.0</ele><time>2026-04-17T12:05:34.91Z</time></trkpt><trkpt lat="42.63417" lon="-8.6781533"><ele>319.0</ele><time>2026-04-17T12:05:35.91Z</time></trkpt><trkpt lat="42.63427" lon="-8.6780717"><ele>319.0</ele><time>2026-04-17T12:05:36.911Z</time></trkpt><trkpt lat="42.634375" lon="-8.6779967"><ele>319.0</ele><time>2026-04-17T12:05:37.91Z</time></trkpt><trkpt lat="42.6344933" lon="-8.6779267"><ele>322.66666666666663</ele><time>2026-04-17T12:05:38.911Z</time></trkpt><trkpt lat="42.6346317" lon="-8.6778683"><ele>326.3333333333333</ele><time>2026-04-17T12:05:39.911Z</time></trkpt><trkpt lat="42.63479" lon="-8.677825"><ele>330.0</ele><time>2026-04-17T12:05:40.91Z</time></trkpt><trkpt lat="42.634955" lon="-8.6777883"><ele>326.5</ele><time>2026-04-17T12:05:41.91Z</time></trkpt><trkpt lat="42.6351033" lon="-8.6777567"><ele>323.0</ele><time>2026-04-17T12:05:42.91Z</time></trkpt><trkpt lat="42.6352233" lon="-8.677735"><ele>319.5</ele><time>2026-04-17T12:05:43.91Z</time></trkpt><trkpt lat="42.6353217" lon="-8.67773"><ele>316.0</ele><time>2026-04-17T12:05:44.91Z</time></trkpt><trkpt lat="42.6353983" lon="-8.6777617"><ele>316.6</ele><time>2026-04-17T12:05:45.911Z</time></trkpt><trkpt lat="42.6354567" lon="-8.67782"><ele>317.20000000000005</ele><time>2026-04-17T12:05:46.91Z</time></trkpt><trkpt lat="42.6355" lon="-8.6779033"><ele>317.79999999999995</ele><time>2026-04-17T12:05:47.91Z</time></trkpt><trkpt lat="42.6355217" lon="-8.6780167"><ele>318.4</ele><time>2026-04-17T12:05:48.91Z</time></trkpt><trkpt lat="42.6355433" lon="-8.6781517"><ele>319.0</ele><time>2026-04-17T12:05:49.91Z</time></trkpt><trkpt lat="42.6355717" lon="-8.6783067"><ele>319.0</ele><time>2026-04-17T12:05:50.911Z</time></trkpt><trkpt lat="42.635605" lon="-8.6784783"><ele>319.0</ele><time>2026-04-17T12:05:51.911Z</time></trkpt><trkpt lat="42.6356417" lon="-8.678655"><ele>319.0</ele><time>2026-04-17T12:05:52.91Z</time></trkpt><trkpt lat="42.635675" lon="-8.6788217"><ele>319.0</ele><time>2026-04-17T12:05:53.91Z</time></trkpt><trkpt lat="42.635705" lon="-8.678975"><ele>321.2</ele><time>2026-04-17T12:05:54.911Z</time></trkpt><trkpt lat="42.63572" lon="-8.6791017"><ele>323.4</ele><time>2026-04-17T12:05:55.911Z</time></trkpt><trkpt lat="42.635715" lon="-8.679205"><ele>325.6</ele><time>2026-04-17T12:05:56.91Z</time></trkpt><trkpt lat="42.6356783" lon="-8.6792983"><ele>327.8</ele><time>2026-04-17T12:05:57.911Z</time></trkpt><trkpt lat="42.6356083" lon="-8.6793967"><ele>330.0</ele><time>2026-04-17T12:05:58.911Z</time></trkpt><trkpt lat="42.6355167" lon="-8.6795167"><ele>330.75</ele><time>2026-04-17T12:05:59.91Z</time></trkpt><trkpt lat="42.6354267" lon="-8.6796467"><ele>331.5</ele><time>2026-04-17T12:06:00.911Z</time></trkpt><trkpt lat="42.6353433" lon="-8.6797867"><ele>332.25</ele><time>2026-04-17T12:06:01.91Z</time></trkpt><trkpt lat="42.63528" lon="-8.6799483"><ele>333.0</ele><time>2026-04-17T12:06:02.91Z</time></trkpt><trkpt lat="42.6352183" lon="-8.68013"><ele>337.0</ele><time>2026-04-17T12:06:03.91Z</time></trkpt><trkpt lat="42.63515" lon="-8.6803117"><ele>341.0</ele><time>2026-04-17T12:06:04.911Z</time></trkpt><trkpt lat="42.6350667" lon="-8.6804767"><ele>345.0</ele><time>2026-04-17T12:06:05.91Z</time></trkpt><trkpt lat="42.6349517" lon="-8.68062"><ele>345.0</ele><time>2026-04-17T12:06:06.91Z</time></trkpt><trkpt lat="42.6348033" lon="-8.6807467"><ele>345.0</ele><time>2026-04-17T12:06:07.91Z</time></trkpt><trkpt lat="42.6346383" lon="-8.6808467"><ele>345.0</ele><time>2026-04-17T12:06:08.911Z</time></trkpt><trkpt lat="42.63447" lon="-8.680915"><ele>341.3333333333333</ele><time>2026-04-17T12:06:09.911Z</time></trkpt><trkpt lat="42.6343033" lon="-8.680975"><ele>337.66666666666663</ele><time>2026-04-17T12:06:10.911Z</time></trkpt><trkpt lat="42.63413" lon="-8.68102"><ele>334.0</ele><time>2026-04-17T12:06:11.911Z</time></trkpt><trkpt lat="42.633955" lon="-8.6810533"><ele>334.0</ele><time>2026-04-17T12:06:12.91Z</time></trkpt><trkpt lat="42.6337817" lon="-8.6810667"><ele>334.0</ele><time>2026-04-17T12:06:13.911Z</time></trkpt><trkpt lat="42.6336033" lon="-8.6810683"><ele>334.0</ele><time>2026-04-17T12:06:14.911Z</time></trkpt><trkpt lat="42.633415" lon="-8.68103"><ele>332.66666666666663</ele><time>2026-04-17T12:06:15.91Z</time></trkpt><trkpt lat="42.63323" lon="-8.68098"><ele>331.3333333333333</ele><time>2026-04-17T12:06:16.911Z</time></trkpt><trkpt lat="42.633055" lon="-8.6809167"><ele>330.0</ele><time>2026-04-17T12:06:17.91Z</time></trkpt><trkpt lat="42.6329117" lon="-8.680865"><ele>329.0</ele><time>2026-04-17T12:06:18.911Z</time></trkpt><trkpt lat="42.63279" lon="-8.6808267"><ele>328.0</ele><time>2026-04-17T12:06:19.911Z</time></trkpt><trkpt lat="42.6326933" lon="-8.68082"><ele>327.0</ele><time>2026-04-17T12:06:20.91Z</time></trkpt><trkpt lat="42.63259" lon="-8.6808383"><ele>326.0</ele><time>2026-04-17T12:06:21.911Z</time></trkpt><trkpt lat="42.632465" lon="-8.6808833"><ele>326.0</ele><time>2026-04-17T12:06:22.911Z</time></trkpt><trkpt lat="42.63233" lon="-8.680955"><ele>326.0</ele><time>2026-04-17T12:06:23.911Z</time></trkpt><trkpt lat="42.6321817" lon="-8.681055"><ele>326.0</ele><time>2026-04-17T12:06:24.91Z</time></trkpt><trkpt lat="42.6320317" lon="-8.68114"><ele>329.33333333333337</ele><time>2026-04-17T12:06:25.911Z</time></trkpt><trkpt lat="42.6318717" lon="-8.681245"><ele>332.6666666666667</ele><time>2026-04-17T12:06:26.911Z</time></trkpt><trkpt lat="42.6317233" lon="-8.681345"><ele>336.0</ele><time>2026-04-17T12:06:27.91Z</time></trkpt><trkpt lat="42.6316183" lon="-8.6814583"><ele>336.0</ele><time>2026-04-17T12:06:28.911Z</time></trkpt><trkpt lat="42.6315267" lon="-8.681555"><ele>336.0</ele><time>2026-04-17T12:06:29.91Z</time></trkpt><trkpt lat="42.631445" lon="-8.6816617"><ele>336.0</ele><time>2026-04-17T12:06:30.91Z</time></trkpt><trkpt lat="42.6313667" lon="-8.6817933"><ele>336.0</ele><time>2026-04-17T12:06:31.911Z</time></trkpt><trkpt lat="42.6312867" lon="-8.681945"><ele>335.5</ele><time>2026-04-17T12:06:32.911Z</time></trkpt><trkpt lat="42.6312083" lon="-8.6820983"><ele>335.0</ele><time>2026-04-17T12:06:33.911Z</time></trkpt><trkpt lat="42.6311333" lon="-8.6822567"><ele>334.5</ele><time>2026-04-17T12:06:34.911Z</time></trkpt><trkpt lat="42.6310683" lon="-8.682415"><ele>334.0</ele><time>2026-04-17T12:06:35.91Z</time></trkpt><trkpt lat="42.631005" lon="-8.6825567"><ele>334.0</ele><time>2026-04-17T12:06:36.91Z</time></trkpt><trkpt lat="42.6309467" lon="-8.6826817"><ele>334.0</ele><time>2026-04-17T12:06:37.911Z</time></trkpt><trkpt lat="42.6308867" lon="-8.6827967"><ele>334.0</ele><time>2026-04-17T12:06:38.911Z</time></trkpt><trkpt lat="42.6308183" lon="-8.6828833"><ele>334.0</ele><time>2026-04-17T12:06:39.911Z</time></trkpt><trkpt lat="42.63074" lon="-8.6829217"><ele>334.0</ele><time>2026-04-17T12:06:40.91Z</time></trkpt><trkpt lat="42.6306733" lon="-8.68297"><ele>336.79999999999995</ele><time>2026-04-17T12:06:41.91Z</time></trkpt><trkpt lat="42.63061" lon="-8.6830417"><ele>339.59999999999997</ele><time>2026-04-17T12:06:42.911Z</time></trkpt><trkpt lat="42.6305767" lon="-8.6831617"><ele>342.4</ele><time>2026-04-17T12:06:43.91Z</time></trkpt><trkpt lat="42.6305583" lon="-8.683315"><ele>345.2</ele><time>2026-04-17T12:06:44.91Z</time></trkpt><trkpt lat="42.6305383" lon="-8.68347"><ele>348.0</ele><time>2026-04-17T12:06:45.91Z</time></trkpt><trkpt lat="42.6304917" lon="-8.6835717"><ele>348.0</ele><time>2026-04-17T12:06:46.91Z</time></trkpt><trkpt lat="42.630415" lon="-8.6836433"><ele>348.0</ele><time>2026-04-17T12:06:47.911Z</time></trkpt><trkpt lat="42.63031" lon="-8.6836967"><ele>348.0</ele><time>2026-04-17T12:06:48.911Z</time></trkpt><trkpt lat="42.6301683" lon="-8.6837217"><ele>348.0</ele><time>2026-04-17T12:06:49.911Z</time></trkpt><trkpt lat="42.63002" lon="-8.6837267"><ele>348.0</ele><time>2026-04-17T12:06:50.91Z</time></trkpt><trkpt lat="42.6298817" lon="-8.683735"><ele>348.0</ele><time>2026-04-17T12:06:51.911Z</time></trkpt><trkpt lat="42.6297717" lon="-8.6837683"><ele>348.0</ele><time>2026-04-17T12:06:52.91Z</time></trkpt><trkpt lat="42.62969" lon="-8.6838367"><ele>348.0</ele><time>2026-04-17T12:06:53.91Z</time></trkpt><trkpt lat="42.6296117" lon="-8.6839533"><ele>348.0</ele><time>2026-04-17T12:06:54.911Z</time></trkpt><trkpt lat="42.6295333" lon="-8.6840917"><ele>348.0</ele><time>2026-04-17T12:06:55.911Z</time></trkpt><trkpt lat="42.629425" lon="-8.684225"><ele>348.0</ele><time>2026-04-17T12:06:56.91Z</time></trkpt><trkpt lat="42.62929" lon="-8.684345"><ele>348.0</ele><time>2026-04-17T12:06:57.91Z</time></trkpt><trkpt lat="42.6291583" lon="-8.6844483"><ele>347.79999999999995</ele><time>2026-04-17T12:06:58.911Z</time></trkpt><trkpt lat="42.6290367" lon="-8.6845633"><ele>347.6</ele><time>2026-04-17T12:06:59.91Z</time></trkpt><trkpt lat="42.628945" lon="-8.6846767"><ele>347.4</ele><time>2026-04-17T12:07:00.91Z</time></trkpt><trkpt lat="42.628875" lon="-8.6847733"><ele>347.20000000000005</ele><time>2026-04-17T12:07:01.911Z</time></trkpt><trkpt lat="42.6288283" lon="-8.6848533"><ele>347.0</ele><time>2026-04-17T12:07:02.91Z</time></trkpt><trkpt lat="42.6288167" lon="-8.6850083"><ele>347.0</ele><time>2026-04-17T12:07:04.911Z</time></trkpt><trkpt lat="42.6288467" lon="-8.6850983"><ele>347.0</ele><time>2026-04-17T12:07:05.91Z</time></trkpt><trkpt lat="42.6288717" lon="-8.6851967"><ele>347.0</ele><time>2026-04-17T12:07:06.91Z</time></trkpt><trkpt lat="42.628875" lon="-8.6852867"><ele>347.0</ele><time>2026-04-17T12:07:07.91Z</time></trkpt><trkpt lat="42.6287667" lon="-8.685335"><ele>347.0</ele><time>2026-04-17T12:07:09.911Z</time></trkpt><trkpt lat="42.6286833" lon="-8.6853"><ele>347.0</ele><time>2026-04-17T12:07:10.91Z</time></trkpt><trkpt lat="42.62858" lon="-8.6852683"><ele>348.0</ele><time>2026-04-17T12:07:11.91Z</time></trkpt><trkpt lat="42.6284867" lon="-8.6852733"><ele>349.0</ele><time>2026-04-17T12:07:12.91Z</time></trkpt><trkpt lat="42.6284133" lon="-8.6853167"><ele>350.0</ele><time>2026-04-17T12:07:13.911Z</time></trkpt><trkpt lat="42.62835" lon="-8.68539"><ele>351.0</ele><time>2026-04-17T12:07:14.911Z</time></trkpt><trkpt lat="42.6283" lon="-8.685495"><ele>352.0</ele><time>2026-04-17T12:07:15.911Z</time></trkpt><trkpt lat="42.628245" lon="-8.6856283"><ele>352.0</ele><time>2026-04-17T12:07:16.91Z</time></trkpt><trkpt lat="42.6281717" lon="-8.6857783"><ele>352.0</ele><time>2026-04-17T12:07:17.911Z</time></trkpt><trkpt lat="42.62808" lon="-8.6859383"><ele>352.0</ele><time>2026-04-17T12:07:18.91Z</time></trkpt><trkpt lat="42.6279767" lon="-8.6860867"><ele>352.0</ele><time>2026-04-17T12:07:19.911Z</time></trkpt><trkpt lat="42.6278717" lon="-8.68621"><ele>352.5</ele><time>2026-04-17T12:07:20.91Z</time></trkpt><trkpt lat="42.6277683" lon="-8.6863133"><ele>353.0</ele><time>2026-04-17T12:07:21.911Z</time></trkpt><trkpt lat="42.6276633" lon="-8.686425"><ele>353.5</ele><time>2026-04-17T12:07:22.91Z</time></trkpt><trkpt lat="42.627555" lon="-8.6865483"><ele>354.0</ele><time>2026-04-17T12:07:23.911Z</time></trkpt><trkpt lat="42.6274333" lon="-8.6866783"><ele>354.0</ele><time>2026-04-17T12:07:24.91Z</time></trkpt><trkpt lat="42.6273083" lon="-8.6868067"><ele>354.0</ele><time>2026-04-17T12:07:25.911Z</time></trkpt><trkpt lat="42.62718" lon="-8.686945"><ele>354.0</ele><time>2026-04-17T12:07:26.91Z</time></trkpt><trkpt lat="42.627045" lon="-8.6871033"><ele>355.0</ele><time>2026-04-17T12:07:27.91Z</time></trkpt><trkpt lat="42.6269117" lon="-8.6872833"><ele>356.0</ele><time>2026-04-17T12:07:28.91Z</time></trkpt><trkpt lat="42.62677" lon="-8.6874683"><ele>357.0</ele><time>2026-04-17T12:07:29.91Z</time></trkpt><trkpt lat="42.626625" lon="-8.687645"><ele>362.3333333333333</ele><time>2026-04-17T12:07:30.91Z</time></trkpt><trkpt lat="42.6264983" lon="-8.68781"><ele>367.66666666666663</ele><time>2026-04-17T12:07:31.91Z</time></trkpt><trkpt lat="42.6263917" lon="-8.68797"><ele>373.0</ele><time>2026-04-17T12:07:32.91Z</time></trkpt><trkpt lat="42.6263083" lon="-8.6881233"><ele>373.0</ele><time>2026-04-17T12:07:33.911Z</time></trkpt><trkpt lat="42.6262517" lon="-8.6882683"><ele>373.0</ele><time>2026-04-17T12:07:34.91Z</time></trkpt><trkpt lat="42.62621" lon="-8.6884167"><ele>373.0</ele><time>2026-04-17T12:07:35.911Z</time></trkpt><trkpt lat="42.6261767" lon="-8.6885817"><ele>373.0</ele><time>2026-04-17T12:07:36.911Z</time></trkpt><trkpt lat="42.6261383" lon="-8.6887633"><ele>373.3333333333333</ele><time>2026-04-17T12:07:37.91Z</time></trkpt><trkpt lat="42.62609" lon="-8.6889567"><ele>373.6666666666667</ele><time>2026-04-17T12:07:38.911Z</time></trkpt><trkpt lat="42.62604" lon="-8.6891683"><ele>374.0</ele><time>2026-04-17T12:07:39.91Z</time></trkpt><trkpt lat="42.625995" lon="-8.689375"><ele>376.2</ele><time>2026-04-17T12:07:40.91Z</time></trkpt><trkpt lat="42.625945" lon="-8.6895433"><ele>378.4</ele><time>2026-04-17T12:07:41.91Z</time></trkpt><trkpt lat="42.62588" lon="-8.6896617"><ele>380.6</ele><time>2026-04-17T12:07:42.911Z</time></trkpt><trkpt lat="42.625805" lon="-8.6897233"><ele>382.8</ele><time>2026-04-17T12:07:43.91Z</time></trkpt><trkpt lat="42.6257317" lon="-8.6897433"><ele>385.0</ele><time>2026-04-17T12:07:44.91Z</time></trkpt><trkpt lat="42.625665" lon="-8.6897267"><ele>385.0</ele><time>2026-04-17T12:07:45.91Z</time></trkpt><trkpt lat="42.6256017" lon="-8.68967"><ele>385.0</ele><time>2026-04-17T12:07:46.91Z</time></trkpt><trkpt lat="42.625535" lon="-8.6895433"><ele>385.0</ele><time>2026-04-17T12:07:47.911Z</time></trkpt><trkpt lat="42.6254567" lon="-8.689365"><ele>385.0</ele><time>2026-04-17T12:07:48.911Z</time></trkpt><trkpt lat="42.6253667" lon="-8.68912"><ele>379.6666666666667</ele><time>2026-04-17T12:07:49.911Z</time></trkpt><trkpt lat="42.6252767" lon="-8.688885"><ele>374.33333333333337</ele><time>2026-04-17T12:07:50.91Z</time></trkpt><trkpt lat="42.6251917" lon="-8.6887033"><ele>369.0</ele><time>2026-04-17T12:07:51.91Z</time></trkpt><trkpt lat="42.6251067" lon="-8.68857"><ele>367.6</ele><time>2026-04-17T12:07:52.91Z</time></trkpt><trkpt lat="42.6250033" lon="-8.6884783"><ele>366.2</ele><time>2026-04-17T12:07:53.911Z</time></trkpt><trkpt lat="42.6248983" lon="-8.688425"><ele>364.8</ele><time>2026-04-17T12:07:54.911Z</time></trkpt><trkpt lat="42.6248083" lon="-8.688425"><ele>363.40000000000003</ele><time>2026-04-17T12:07:55.91Z</time></trkpt><trkpt lat="42.624725" lon="-8.6884667"><ele>362.0</ele><time>2026-04-17T12:07:56.911Z</time></trkpt><trkpt lat="42.6246217" lon="-8.68854"><ele>363.5</ele><time>2026-04-17T12:07:57.911Z</time></trkpt><trkpt lat="42.6245033" lon="-8.6886217"><ele>365.0</ele><time>2026-04-17T12:07:58.911Z</time></trkpt><trkpt lat="42.62437" lon="-8.6887"><ele>366.5</ele><time>2026-04-17T12:07:59.91Z</time></trkpt><trkpt lat="42.6242317" lon="-8.688775"><ele>368.0</ele><time>2026-04-17T12:08:00.911Z</time></trkpt><trkpt lat="42.6240817" lon="-8.6888567"><ele>368.0</ele><time>2026-04-17T12:08:01.91Z</time></trkpt><trkpt lat="42.6239283" lon="-8.6889433"><ele>368.0</ele><time>2026-04-17T12:08:02.911Z</time></trkpt><trkpt lat="42.6237867" lon="-8.6890417"><ele>368.0</ele><time>2026-04-17T12:08:03.91Z</time></trkpt><trkpt lat="42.6236667" lon="-8.6891467"><ele>367.0</ele><time>2026-04-17T12:08:04.91Z</time></trkpt><trkpt lat="42.62355" lon="-8.6892633"><ele>366.0</ele><time>2026-04-17T12:08:05.911Z</time></trkpt><trkpt lat="42.6234383" lon="-8.6893867"><ele>365.0</ele><time>2026-04-17T12:08:06.91Z</time></trkpt><trkpt lat="42.6233217" lon="-8.6895117"><ele>364.0</ele><time>2026-04-17T12:08:07.911Z</time></trkpt><trkpt lat="42.6231917" lon="-8.6896333"><ele>369.3333333333333</ele><time>2026-04-17T12:08:08.91Z</time></trkpt><trkpt lat="42.62306" lon="-8.6897433"><ele>374.6666666666667</ele><time>2026-04-17T12:08:09.91Z</time></trkpt><trkpt lat="42.6229383" lon="-8.6898667"><ele>380.0</ele><time>2026-04-17T12:08:10.91Z</time></trkpt><trkpt lat="42.622825" lon="-8.6900133"><ele>378.33333333333337</ele><time>2026-04-17T12:08:11.91Z</time></trkpt><trkpt lat="42.6227117" lon="-8.690175"><ele>376.6666666666667</ele><time>2026-04-17T12:08:12.911Z</time></trkpt><trkpt lat="42.6225983" lon="-8.690345"><ele>375.0</ele><time>2026-04-17T12:08:13.911Z</time></trkpt><trkpt lat="42.6224967" lon="-8.6905217"><ele>377.75</ele><time>2026-04-17T12:08:14.91Z</time></trkpt><trkpt lat="42.6224083" lon="-8.6906983"><ele>380.5</ele><time>2026-04-17T12:08:15.91Z</time></trkpt><trkpt lat="42.6223367" lon="-8.69087"><ele>383.25</ele><time>2026-04-17T12:08:16.91Z</time></trkpt><trkpt lat="42.622285" lon="-8.6910567"><ele>386.0</ele><time>2026-04-17T12:08:17.91Z</time></trkpt><trkpt lat="42.6222633" lon="-8.6912533"><ele>388.0</ele><time>2026-04-17T12:08:18.911Z</time></trkpt><trkpt lat="42.6222683" lon="-8.69146"><ele>390.0</ele><time>2026-04-17T12:08:19.91Z</time></trkpt><trkpt lat="42.6222817" lon="-8.6916833"><ele>392.0</ele><time>2026-04-17T12:08:20.911Z</time></trkpt><trkpt lat="42.6222783" lon="-8.6919417"><ele>392.0</ele><time>2026-04-17T12:08:21.91Z</time></trkpt><trkpt lat="42.622265" lon="-8.6922033"><ele>392.0</ele><time>2026-04-17T12:08:22.911Z</time></trkpt><trkpt lat="42.6222533" lon="-8.69243"><ele>392.0</ele><time>2026-04-17T12:08:23.911Z</time></trkpt><trkpt lat="42.6222433" lon="-8.6926033"><ele>392.0</ele><time>2026-04-17T12:08:24.91Z</time></trkpt><trkpt lat="42.62224" lon="-8.6927333"><ele>392.0</ele><time>2026-04-17T12:08:25.91Z</time></trkpt><trkpt lat="42.6222483" lon="-8.692855"><ele>392.0</ele><time>2026-04-17T12:08:26.91Z</time></trkpt><trkpt lat="42.6222833" lon="-8.692975"><ele>392.0</ele><time>2026-04-17T12:08:27.91Z</time></trkpt><trkpt lat="42.6223517" lon="-8.6931117"><ele>392.0</ele><time>2026-04-17T12:08:28.91Z</time></trkpt><trkpt lat="42.6224317" lon="-8.6932633"><ele>391.3333333333333</ele><time>2026-04-17T12:08:29.91Z</time></trkpt><trkpt lat="42.6225183" lon="-8.6934383"><ele>390.66666666666663</ele><time>2026-04-17T12:08:30.911Z</time></trkpt><trkpt lat="42.62261" lon="-8.6936217"><ele>390.0</ele><time>2026-04-17T12:08:31.911Z</time></trkpt><trkpt lat="42.622695" lon="-8.69379"><ele>389.75</ele><time>2026-04-17T12:08:32.911Z</time></trkpt><trkpt lat="42.6227733" lon="-8.6939433"><ele>389.5</ele><time>2026-04-17T12:08:33.91Z</time></trkpt><trkpt lat="42.6228583" lon="-8.6941083"><ele>389.25</ele><time>2026-04-17T12:08:34.911Z</time></trkpt><trkpt lat="42.622935" lon="-8.694265"><ele>389.0</ele><time>2026-04-17T12:08:35.91Z</time></trkpt><trkpt lat="42.62302" lon="-8.69442"><ele>394.25</ele><time>2026-04-17T12:08:36.911Z</time></trkpt><trkpt lat="42.623105" lon="-8.6945583"><ele>399.5</ele><time>2026-04-17T12:08:37.91Z</time></trkpt><trkpt lat="42.62319" lon="-8.6946883"><ele>404.75</ele><time>2026-04-17T12:08:38.91Z</time></trkpt><trkpt lat="42.623275" lon="-8.69482"><ele>410.0</ele><time>2026-04-17T12:08:39.911Z</time></trkpt><trkpt lat="42.62336" lon="-8.6949683"><ele>410.0</ele><time>2026-04-17T12:08:40.91Z</time></trkpt><trkpt lat="42.62345" lon="-8.695135"><ele>410.0</ele><time>2026-04-17T12:08:41.911Z</time></trkpt><trkpt lat="42.6235267" lon="-8.6953033"><ele>410.0</ele><time>2026-04-17T12:08:42.91Z</time></trkpt><trkpt lat="42.623575" lon="-8.69545"><ele>410.0</ele><time>2026-04-17T12:08:43.911Z</time></trkpt><trkpt lat="42.623605" lon="-8.6955917"><ele>411.0</ele><time>2026-04-17T12:08:44.91Z</time></trkpt><trkpt lat="42.6236117" lon="-8.6957467"><ele>412.0</ele><time>2026-04-17T12:08:45.911Z</time></trkpt><trkpt lat="42.6236133" lon="-8.6959033"><ele>413.0</ele><time>2026-04-17T12:08:46.911Z</time></trkpt><trkpt lat="42.6236283" lon="-8.696045"><ele>414.0</ele><time>2026-04-17T12:08:47.911Z</time></trkpt><trkpt lat="42.623665" lon="-8.696175"><ele>415.0</ele><time>2026-04-17T12:08:48.91Z</time></trkpt><trkpt lat="42.6237317" lon="-8.6962867"><ele>419.25</ele><time>2026-04-17T12:08:49.911Z</time></trkpt><trkpt lat="42.6238067" lon="-8.6963867"><ele>423.5</ele><time>2026-04-17T12:08:50.91Z</time></trkpt><trkpt lat="42.6238983" lon="-8.69647"><ele>427.75</ele><time>2026-04-17T12:08:51.91Z</time></trkpt><trkpt lat="42.6240233" lon="-8.6965217"><ele>432.0</ele><time>2026-04-17T12:08:52.91Z</time></trkpt><trkpt lat="42.6241483" lon="-8.696575"><ele>432.0</ele><time>2026-04-17T12:08:53.91Z</time></trkpt><trkpt lat="42.624265" lon="-8.6966067"><ele>432.00000000000006</ele><time>2026-04-17T12:08:54.91Z</time></trkpt><trkpt lat="42.6243833" lon="-8.6966"><ele>432.00000000000006</ele><time>2026-04-17T12:08:55.911Z</time></trkpt><trkpt lat="42.6244933" lon="-8.6965783"><ele>432.0</ele><time>2026-04-17T12:08:56.911Z</time></trkpt><trkpt lat="42.6245817" lon="-8.6965183"><ele>432.0</ele><time>2026-04-17T12:08:57.91Z</time></trkpt><trkpt lat="42.624655" lon="-8.69643"><ele>435.0</ele><time>2026-04-17T12:08:58.911Z</time></trkpt><trkpt lat="42.62472" lon="-8.696315"><ele>438.0</ele><time>2026-04-17T12:08:59.91Z</time></trkpt><trkpt lat="42.62476" lon="-8.6962067"><ele>441.0</ele><time>2026-04-17T12:09:00.911Z</time></trkpt><trkpt lat="42.6248117" lon="-8.696105"><ele>444.0</ele><time>2026-04-17T12:09:02.911Z</time></trkpt><trkpt lat="42.6248417" lon="-8.6960117"><ele>447.0</ele><time>2026-04-17T12:09:04.91Z</time></trkpt><trkpt lat="42.62485" lon="-8.6958983"><ele>450.0</ele><time>2026-04-17T12:09:06.91Z</time></trkpt><trkpt lat="42.6249333" lon="-8.695955"><ele>450.0</ele><time>2026-04-17T12:09:10.911Z</time></trkpt><trkpt lat="42.6249667" lon="-8.6960433"><ele>450.0</ele><time>2026-04-17T12:09:11.91Z</time></trkpt><trkpt lat="42.6250117" lon="-8.6961667"><ele>450.0</ele><time>2026-04-17T12:09:12.91Z</time></trkpt><trkpt lat="42.6250583" lon="-8.6962883"><ele>450.0</ele><time>2026-04-17T12:09:13.91Z</time></trkpt><trkpt lat="42.6251183" lon="-8.6963983"><ele>450.0</ele><time>2026-04-17T12:09:14.91Z</time></trkpt><trkpt lat="42.6251717" lon="-8.696495"><ele>450.0</ele><time>2026-04-17T12:09:15.91Z</time></trkpt><trkpt lat="42.6252267" lon="-8.69661"><ele>450.0</ele><time>2026-04-17T12:09:17.911Z</time></trkpt><trkpt lat="42.6253017" lon="-8.6966883"><ele>450.0</ele><time>2026-04-17T12:09:19.911Z</time></trkpt><trkpt lat="42.625355" lon="-8.6967467"><ele>450.0</ele><time>2026-04-17T12:09:20.91Z</time></trkpt><trkpt lat="42.6254267" lon="-8.6968233"><ele>450.0</ele><time>2026-04-17T12:09:21.911Z</time></trkpt><trkpt lat="42.6254983" lon="-8.6969217"><ele>454.75</ele><time>2026-04-17T12:09:22.91Z</time></trkpt><trkpt lat="42.6255583" lon="-8.6970283"><ele>459.5</ele><time>2026-04-17T12:09:23.91Z</time></trkpt><trkpt lat="42.6256133" lon="-8.6971583"><ele>464.25</ele><time>2026-04-17T12:09:24.91Z</time></trkpt><trkpt lat="42.62567" lon="-8.69732"><ele>469.0</ele><time>2026-04-17T12:09:25.911Z</time></trkpt><trkpt lat="42.6257317" lon="-8.6974967"><ele>469.0</ele><time>2026-04-17T12:09:26.91Z</time></trkpt><trkpt lat="42.6257967" lon="-8.697675"><ele>469.0</ele><time>2026-04-17T12:09:27.91Z</time></trkpt><trkpt lat="42.625865" lon="-8.6978067"><ele>469.0</ele><time>2026-04-17T12:09:28.91Z</time></trkpt><trkpt lat="42.6259467" lon="-8.6979133"><ele>469.0</ele><time>2026-04-17T12:09:29.91Z</time></trkpt><trkpt lat="42.6260433" lon="-8.6980067"><ele>471.4</ele><time>2026-04-17T12:09:30.911Z</time></trkpt><trkpt lat="42.6261633" lon="-8.6980817"><ele>473.79999999999995</ele><time>2026-04-17T12:09:31.91Z</time></trkpt><trkpt lat="42.62626" lon="-8.698165"><ele>476.20000000000005</ele><time>2026-04-17T12:09:32.911Z</time></trkpt><trkpt lat="42.62632" lon="-8.69824"><ele>478.6</ele><time>2026-04-17T12:09:33.911Z</time></trkpt><trkpt lat="42.626385" lon="-8.6983533"><ele>481.0</ele><time>2026-04-17T12:09:35.91Z</time></trkpt><trkpt lat="42.62637" lon="-8.6985133"><ele>480.8</ele><time>2026-04-17T12:09:37.91Z</time></trkpt><trkpt lat="42.6263333" lon="-8.6986167"><ele>480.6</ele><time>2026-04-17T12:09:38.91Z</time></trkpt><trkpt lat="42.6262917" lon="-8.6987367"><ele>480.4</ele><time>2026-04-17T12:09:39.911Z</time></trkpt><trkpt lat="42.6262533" lon="-8.6988733"><ele>480.2</ele><time>2026-04-17T12:09:40.91Z</time></trkpt><trkpt lat="42.626235" lon="-8.6990133"><ele>480.0</ele><time>2026-04-17T12:09:41.911Z</time></trkpt><trkpt lat="42.6262533" lon="-8.69916"><ele>480.0</ele><time>2026-04-17T12:09:42.91Z</time></trkpt><trkpt lat="42.6262867" lon="-8.6993283"><ele>480.0</ele><time>2026-04-17T12:09:43.911Z</time></trkpt><trkpt lat="42.626335" lon="-8.699515"><ele>480.0</ele><time>2026-04-17T12:09:44.91Z</time></trkpt><trkpt lat="42.6263767" lon="-8.6996917"><ele>480.0</ele><time>2026-04-17T12:09:45.91Z</time></trkpt><trkpt lat="42.6264183" lon="-8.6998883"><ele>479.0</ele><time>2026-04-17T12:09:46.91Z</time></trkpt><trkpt lat="42.6264533" lon="-8.7000917"><ele>478.0</ele><time>2026-04-17T12:09:47.91Z</time></trkpt><trkpt lat="42.626475" lon="-8.700295"><ele>477.0</ele><time>2026-04-17T12:09:48.911Z</time></trkpt><trkpt lat="42.6264867" lon="-8.7005067"><ele>476.66666666666663</ele><time>2026-04-17T12:09:49.911Z</time></trkpt><trkpt lat="42.6264917" lon="-8.7007267"><ele>476.3333333333333</ele><time>2026-04-17T12:09:50.911Z</time></trkpt><trkpt lat="42.6264867" lon="-8.7009517"><ele>476.0</ele><time>2026-04-17T12:09:51.91Z</time></trkpt><trkpt lat="42.626465" lon="-8.7011783"><ele>477.3333333333333</ele><time>2026-04-17T12:09:52.911Z</time></trkpt><trkpt lat="42.6264367" lon="-8.7014167"><ele>478.66666666666663</ele><time>2026-04-17T12:09:53.91Z</time></trkpt><trkpt lat="42.6264" lon="-8.7016567"><ele>480.0</ele><time>2026-04-17T12:09:54.91Z</time></trkpt><trkpt lat="42.6263583" lon="-8.7019033"><ele>483.66666666666663</ele><time>2026-04-17T12:09:55.91Z</time></trkpt><trkpt lat="42.6263067" lon="-8.702145"><ele>487.3333333333333</ele><time>2026-04-17T12:09:56.911Z</time></trkpt><trkpt lat="42.6262383" lon="-8.7023933"><ele>491.0</ele><time>2026-04-17T12:09:57.911Z</time></trkpt><trkpt lat="42.6261667" lon="-8.7026283"><ele>484.0</ele><time>2026-04-17T12:09:58.91Z</time></trkpt><trkpt lat="42.6261017" lon="-8.7028483"><ele>477.0</ele><time>2026-04-17T12:09:59.91Z</time></trkpt><trkpt lat="42.6260333" lon="-8.7030683"><ele>470.0</ele><time>2026-04-17T12:10:00.91Z</time></trkpt><trkpt lat="42.6259667" lon="-8.7032683"><ele>470.0</ele><time>2026-04-17T12:10:01.91Z</time></trkpt><trkpt lat="42.6259067" lon="-8.7034283"><ele>470.0</ele><time>2026-04-17T12:10:02.911Z</time></trkpt><trkpt lat="42.6258433" lon="-8.7035733"><ele>470.0</ele><time>2026-04-17T12:10:03.911Z</time></trkpt><trkpt lat="42.6257683" lon="-8.703725"><ele>470.0</ele><time>2026-04-17T12:10:04.91Z</time></trkpt><trkpt lat="42.6256867" lon="-8.703915"><ele>472.66666666666663</ele><time>2026-04-17T12:10:05.91Z</time></trkpt><trkpt lat="42.6256067" lon="-8.7040983"><ele>475.33333333333337</ele><time>2026-04-17T12:10:06.911Z</time></trkpt><trkpt lat="42.6255433" lon="-8.7042867"><ele>478.0</ele><time>2026-04-17T12:10:07.91Z</time></trkpt><trkpt lat="42.6254817" lon="-8.704485"><ele>480.33333333333337</ele><time>2026-04-17T12:10:08.911Z</time></trkpt><trkpt lat="42.6254233" lon="-8.704675"><ele>482.66666666666663</ele><time>2026-04-17T12:10:09.911Z</time></trkpt><trkpt lat="42.6253433" lon="-8.70486"><ele>485.0</ele><time>2026-04-17T12:10:10.911Z</time></trkpt><trkpt lat="42.62525" lon="-8.7050117"><ele>482.0</ele><time>2026-04-17T12:10:11.911Z</time></trkpt><trkpt lat="42.625145" lon="-8.7051833"><ele>479.0</ele><time>2026-04-17T12:10:12.91Z</time></trkpt><trkpt lat="42.62505" lon="-8.705345"><ele>476.0</ele><time>2026-04-17T12:10:13.91Z</time></trkpt><trkpt lat="42.6249733" lon="-8.705485"><ele>473.0</ele><time>2026-04-17T12:10:14.91Z</time></trkpt><trkpt lat="42.62493" lon="-8.7055933"><ele>472.99999999999994</ele><time>2026-04-17T12:10:15.911Z</time></trkpt><trkpt lat="42.62491" lon="-8.7056867"><ele>473.0</ele><time>2026-04-17T12:10:16.91Z</time></trkpt><trkpt lat="42.6249167" lon="-8.70578"><ele>473.0</ele><time>2026-04-17T12:10:17.911Z</time></trkpt><trkpt lat="42.6249367" lon="-8.705875"><ele>473.0</ele><time>2026-04-17T12:10:18.91Z</time></trkpt><trkpt lat="42.6249567" lon="-8.70599"><ele>472.99999999999994</ele><time>2026-04-17T12:10:19.91Z</time></trkpt><trkpt lat="42.6249733" lon="-8.70612"><ele>473.0</ele><time>2026-04-17T12:10:20.91Z</time></trkpt><trkpt lat="42.6249717" lon="-8.7062633"><ele>472.49999999999994</ele><time>2026-04-17T12:10:21.911Z</time></trkpt><trkpt lat="42.6249567" lon="-8.7064133"><ele>472.0</ele><time>2026-04-17T12:10:22.91Z</time></trkpt><trkpt lat="42.6249433" lon="-8.7065467"><ele>471.5</ele><time>2026-04-17T12:10:23.91Z</time></trkpt><trkpt lat="42.6249317" lon="-8.7066633"><ele>471.0</ele><time>2026-04-17T12:10:24.91Z</time></trkpt><trkpt lat="42.6249233" lon="-8.7067533"><ele>470.49999999999994</ele><time>2026-04-17T12:10:25.91Z</time></trkpt><trkpt lat="42.62493" lon="-8.7068567"><ele>470.0</ele><time>2026-04-17T12:10:26.911Z</time></trkpt><trkpt lat="42.6249583" lon="-8.706965"><ele>467.25</ele><time>2026-04-17T12:10:27.911Z</time></trkpt><trkpt lat="42.6250033" lon="-8.707085"><ele>464.5</ele><time>2026-04-17T12:10:28.911Z</time></trkpt><trkpt lat="42.6250767" lon="-8.7072233"><ele>461.75</ele><time>2026-04-17T12:10:29.91Z</time></trkpt><trkpt lat="42.62516" lon="-8.7073867"><ele>459.0</ele><time>2026-04-17T12:10:30.91Z</time></trkpt><trkpt lat="42.625245" lon="-8.7075567"><ele>461.66666666666663</ele><time>2026-04-17T12:10:31.91Z</time></trkpt><trkpt lat="42.6253417" lon="-8.7077217"><ele>464.3333333333333</ele><time>2026-04-17T12:10:32.91Z</time></trkpt><trkpt lat="42.6254483" lon="-8.7079033"><ele>467.0</ele><time>2026-04-17T12:10:33.911Z</time></trkpt><trkpt lat="42.6255567" lon="-8.7080733"><ele>467.0</ele><time>2026-04-17T12:10:34.91Z</time></trkpt><trkpt lat="42.62565" lon="-8.7082333"><ele>467.0</ele><time>2026-04-17T12:10:35.911Z</time></trkpt><trkpt lat="42.625725" lon="-8.7083917"><ele>467.0</ele><time>2026-04-17T12:10:36.91Z</time></trkpt><trkpt lat="42.6258" lon="-8.7085367"><ele>467.0</ele><time>2026-04-17T12:10:37.91Z</time></trkpt><trkpt lat="42.6258667" lon="-8.7087017"><ele>463.75</ele><time>2026-04-17T12:10:38.911Z</time></trkpt><trkpt lat="42.6259433" lon="-8.70885"><ele>460.5</ele><time>2026-04-17T12:10:39.91Z</time></trkpt><trkpt lat="42.6260267" lon="-8.7089833"><ele>457.25</ele><time>2026-04-17T12:10:40.91Z</time></trkpt><trkpt lat="42.6261133" lon="-8.7091083"><ele>454.0</ele><time>2026-04-17T12:10:41.911Z</time></trkpt><trkpt lat="42.6262067" lon="-8.7092183"><ele>454.0</ele><time>2026-04-17T12:10:42.91Z</time></trkpt><trkpt lat="42.62631" lon="-8.7093083"><ele>454.0</ele><time>2026-04-17T12:10:43.91Z</time></trkpt><trkpt lat="42.6264217" lon="-8.709375"><ele>454.0</ele><time>2026-04-17T12:10:44.91Z</time></trkpt><trkpt lat="42.626525" lon="-8.709445"><ele>454.0</ele><time>2026-04-17T12:10:45.91Z</time></trkpt><trkpt lat="42.6266383" lon="-8.7095017"><ele>449.75</ele><time>2026-04-17T12:10:46.911Z</time></trkpt><trkpt lat="42.626765" lon="-8.7095483"><ele>445.5</ele><time>2026-04-17T12:10:47.911Z</time></trkpt><trkpt lat="42.6269033" lon="-8.7095817"><ele>441.25</ele><time>2026-04-17T12:10:48.911Z</time></trkpt><trkpt lat="42.6270267" lon="-8.70962"><ele>437.0</ele><time>2026-04-17T12:10:49.91Z</time></trkpt><trkpt lat="42.62715" lon="-8.7096533"><ele>436.75</ele><time>2026-04-17T12:10:50.91Z</time></trkpt><trkpt lat="42.6272867" lon="-8.7096867"><ele>436.5</ele><time>2026-04-17T12:10:51.911Z</time></trkpt><trkpt lat="42.6274383" lon="-8.7097083"><ele>436.25</ele><time>2026-04-17T12:10:52.91Z</time></trkpt><trkpt lat="42.6275867" lon="-8.7097233"><ele>436.0</ele><time>2026-04-17T12:10:53.91Z</time></trkpt><trkpt lat="42.6277217" lon="-8.7097467"><ele>436.75</ele><time>2026-04-17T12:10:54.91Z</time></trkpt><trkpt lat="42.627855" lon="-8.7097933"><ele>437.5</ele><time>2026-04-17T12:10:55.911Z</time></trkpt><trkpt lat="42.6279817" lon="-8.70985"><ele>438.25</ele><time>2026-04-17T12:10:56.911Z</time></trkpt><trkpt lat="42.628105" lon="-8.70991"><ele>439.0</ele><time>2026-04-17T12:10:57.91Z</time></trkpt><trkpt lat="42.6282267" lon="-8.70997"><ele>439.00000000000006</ele><time>2026-04-17T12:10:58.911Z</time></trkpt><trkpt lat="42.628335" lon="-8.7100133"><ele>439.0</ele><time>2026-04-17T12:10:59.911Z</time></trkpt><trkpt lat="42.6284233" lon="-8.7100133"><ele>439.0</ele><time>2026-04-17T12:11:00.911Z</time></trkpt><trkpt lat="42.62849" lon="-8.709975"><ele>439.0</ele><time>2026-04-17T12:11:01.91Z</time></trkpt><trkpt lat="42.6285533" lon="-8.709915"><ele>439.00000000000006</ele><time>2026-04-17T12:11:02.911Z</time></trkpt><trkpt lat="42.6286133" lon="-8.7098167"><ele>439.0</ele><time>2026-04-17T12:11:03.911Z</time></trkpt><trkpt lat="42.62866" lon="-8.709675"><ele>439.79999999999995</ele><time>2026-04-17T12:11:04.911Z</time></trkpt><trkpt lat="42.6287067" lon="-8.7095283"><ele>440.59999999999997</ele><time>2026-04-17T12:11:05.91Z</time></trkpt><trkpt lat="42.6287617" lon="-8.709415"><ele>441.4</ele><time>2026-04-17T12:11:06.91Z</time></trkpt><trkpt lat="42.628825" lon="-8.7093267"><ele>442.2</ele><time>2026-04-17T12:11:07.91Z</time></trkpt><trkpt lat="42.6289017" lon="-8.709265"><ele>443.0</ele><time>2026-04-17T12:11:08.91Z</time></trkpt><trkpt lat="42.6289917" lon="-8.7092517"><ele>443.0</ele><time>2026-04-17T12:11:09.91Z</time></trkpt><trkpt lat="42.6290817" lon="-8.7092967"><ele>443.0</ele><time>2026-04-17T12:11:10.911Z</time></trkpt><trkpt lat="42.6291583" lon="-8.70942"><ele>443.0</ele><time>2026-04-17T12:11:11.911Z</time></trkpt><trkpt lat="42.62922" lon="-8.7095683"><ele>443.0</ele><time>2026-04-17T12:11:12.91Z</time></trkpt><trkpt lat="42.6292733" lon="-8.7097167"><ele>441.2</ele><time>2026-04-17T12:11:13.911Z</time></trkpt><trkpt lat="42.6293017" lon="-8.7098517"><ele>439.4</ele><time>2026-04-17T12:11:14.911Z</time></trkpt><trkpt lat="42.6292967" lon="-8.71001"><ele>437.59999999999997</ele><time>2026-04-17T12:11:15.911Z</time></trkpt><trkpt lat="42.629285" lon="-8.7101233"><ele>435.79999999999995</ele><time>2026-04-17T12:11:16.911Z</time></trkpt><trkpt lat="42.6292633" lon="-8.7102067"><ele>434.0</ele><time>2026-04-17T12:11:17.91Z</time></trkpt><trkpt lat="42.6292417" lon="-8.7103367"><ele>433.49999999999994</ele><time>2026-04-17T12:11:19.911Z</time></trkpt><trkpt lat="42.629255" lon="-8.7104267"><ele>433.0</ele><time>2026-04-17T12:11:20.91Z</time></trkpt><trkpt lat="42.6292617" lon="-8.7105367"><ele>432.5</ele><time>2026-04-17T12:11:21.911Z</time></trkpt><trkpt lat="42.629275" lon="-8.7106533"><ele>432.0</ele><time>2026-04-17T12:11:22.911Z</time></trkpt><trkpt lat="42.62929" lon="-8.7107883"><ele>431.49999999999994</ele><time>2026-04-17T12:11:23.91Z</time></trkpt><trkpt lat="42.6293183" lon="-8.710925"><ele>431.0</ele><time>2026-04-17T12:11:24.91Z</time></trkpt><trkpt lat="42.6293583" lon="-8.711065"><ele>429.25</ele><time>2026-04-17T12:11:25.911Z</time></trkpt><trkpt lat="42.6293983" lon="-8.7112033"><ele>427.5</ele><time>2026-04-17T12:11:26.91Z</time></trkpt><trkpt lat="42.62943" lon="-8.71136"><ele>425.75</ele><time>2026-04-17T12:11:27.911Z</time></trkpt><trkpt lat="42.6294367" lon="-8.71153"><ele>424.0</ele><time>2026-04-17T12:11:28.91Z</time></trkpt><trkpt lat="42.62943" lon="-8.7117383"><ele>422.25</ele><time>2026-04-17T12:11:29.911Z</time></trkpt><trkpt lat="42.6294133" lon="-8.7119433"><ele>420.5</ele><time>2026-04-17T12:11:30.911Z</time></trkpt><trkpt lat="42.6293967" lon="-8.7121"><ele>418.75</ele><time>2026-04-17T12:11:31.91Z</time></trkpt><trkpt lat="42.6293917" lon="-8.712225"><ele>417.0</ele><time>2026-04-17T12:11:32.911Z</time></trkpt><trkpt lat="42.6294017" lon="-8.7123467"><ele>417.0</ele><time>2026-04-17T12:11:33.91Z</time></trkpt><trkpt lat="42.6294367" lon="-8.71248"><ele>417.0</ele><time>2026-04-17T12:11:34.911Z</time></trkpt><trkpt lat="42.629495" lon="-8.712625"><ele>417.0</ele><time>2026-04-17T12:11:35.911Z</time></trkpt><trkpt lat="42.6295567" lon="-8.71279"><ele>417.0</ele><time>2026-04-17T12:11:36.91Z</time></trkpt><trkpt lat="42.629595" lon="-8.7129667"><ele>416.5</ele><time>2026-04-17T12:11:37.91Z</time></trkpt><trkpt lat="42.6296283" lon="-8.713125"><ele>416.0</ele><time>2026-04-17T12:11:38.91Z</time></trkpt><trkpt lat="42.6296683" lon="-8.7132833"><ele>415.5</ele><time>2026-04-17T12:11:39.911Z</time></trkpt><trkpt lat="42.629715" lon="-8.7134617"><ele>415.0</ele><time>2026-04-17T12:11:40.91Z</time></trkpt><trkpt lat="42.62978" lon="-8.7136567"><ele>413.75</ele><time>2026-04-17T12:11:41.91Z</time></trkpt><trkpt lat="42.6298367" lon="-8.7138467"><ele>412.5</ele><time>2026-04-17T12:11:42.911Z</time></trkpt><trkpt lat="42.6298817" lon="-8.7140183"><ele>411.25</ele><time>2026-04-17T12:11:43.91Z</time></trkpt><trkpt lat="42.6299183" lon="-8.7141583"><ele>410.0</ele><time>2026-04-17T12:11:44.911Z</time></trkpt><trkpt lat="42.6299317" lon="-8.7142717"><ele>410.0</ele><time>2026-04-17T12:11:45.91Z</time></trkpt><trkpt lat="42.629935" lon="-8.7143633"><ele>410.0</ele><time>2026-04-17T12:11:46.91Z</time></trkpt><trkpt lat="42.62998" lon="-8.71445"><ele>410.0</ele><time>2026-04-17T12:11:48.911Z</time></trkpt><trkpt lat="42.63011" lon="-8.714455"><ele>410.0</ele><time>2026-04-17T12:11:50.91Z</time></trkpt><trkpt lat="42.6302217" lon="-8.7144433"><ele>410.0</ele><time>2026-04-17T12:11:51.911Z</time></trkpt><trkpt lat="42.6303767" lon="-8.7144333"><ele>409.8</ele><time>2026-04-17T12:11:52.911Z</time></trkpt><trkpt lat="42.6305133" lon="-8.714425"><ele>409.6</ele><time>2026-04-17T12:11:53.91Z</time></trkpt><trkpt lat="42.6306183" lon="-8.714435"><ele>409.4</ele><time>2026-04-17T12:11:54.91Z</time></trkpt><trkpt lat="42.6306967" lon="-8.7144617"><ele>409.2</ele><time>2026-04-17T12:11:55.91Z</time></trkpt><trkpt lat="42.63076" lon="-8.7144933"><ele>409.0</ele><time>2026-04-17T12:11:56.911Z</time></trkpt><trkpt lat="42.6307483" lon="-8.714405"><ele>409.1666666666667</ele><time>2026-04-17T12:12:07.911Z</time></trkpt><trkpt lat="42.6307983" lon="-8.7142733"><ele>409.33333333333337</ele><time>2026-04-17T12:12:10.911Z</time></trkpt><trkpt lat="42.6308467" lon="-8.7142033"><ele>409.5</ele><time>2026-04-17T12:12:11.911Z</time></trkpt><trkpt lat="42.630895" lon="-8.7141167"><ele>409.66666666666663</ele><time>2026-04-17T12:12:12.911Z</time></trkpt><trkpt lat="42.6309367" lon="-8.71401"><ele>409.8333333333333</ele><time>2026-04-17T12:12:13.91Z</time></trkpt><trkpt lat="42.6309783" lon="-8.7138867"><ele>410.0</ele><time>2026-04-17T12:12:14.911Z</time></trkpt><trkpt lat="42.6310283" lon="-8.7137567"><ele>410.0</ele><time>2026-04-17T12:12:15.91Z</time></trkpt><trkpt lat="42.6310917" lon="-8.7136133"><ele>410.0</ele><time>2026-04-17T12:12:16.91Z</time></trkpt><trkpt lat="42.6311667" lon="-8.713445"><ele>410.0</ele><time>2026-04-17T12:12:17.911Z</time></trkpt><trkpt lat="42.6312467" lon="-8.713255"><ele>410.0</ele><time>2026-04-17T12:12:18.911Z</time></trkpt><trkpt lat="42.6313383" lon="-8.7130483"><ele>410.66666666666663</ele><time>2026-04-17T12:12:19.91Z</time></trkpt><trkpt lat="42.63144" lon="-8.7128183"><ele>411.33333333333337</ele><time>2026-04-17T12:12:20.911Z</time></trkpt><trkpt lat="42.6315383" lon="-8.7125983"><ele>412.0</ele><time>2026-04-17T12:12:21.911Z</time></trkpt><trkpt lat="42.6316217" lon="-8.712425"><ele>414.8</ele><time>2026-04-17T12:12:22.91Z</time></trkpt><trkpt lat="42.6316967" lon="-8.7123017"><ele>417.6</ele><time>2026-04-17T12:12:23.91Z</time></trkpt><trkpt lat="42.6317867" lon="-8.7122083"><ele>420.40000000000003</ele><time>2026-04-17T12:12:24.91Z</time></trkpt><trkpt lat="42.6318633" lon="-8.71215"><ele>423.20000000000005</ele><time>2026-04-17T12:12:25.911Z</time></trkpt><trkpt lat="42.6319433" lon="-8.7121467"><ele>426.0</ele><time>2026-04-17T12:12:26.911Z</time></trkpt><trkpt lat="42.6320167" lon="-8.7121833"><ele>425.5</ele><time>2026-04-17T12:12:27.91Z</time></trkpt><trkpt lat="42.6320833" lon="-8.7123117"><ele>425.0</ele><time>2026-04-17T12:12:28.911Z</time></trkpt><trkpt lat="42.63214" lon="-8.7124817"><ele>424.5</ele><time>2026-04-17T12:12:29.911Z</time></trkpt><trkpt lat="42.6321833" lon="-8.7127083"><ele>424.0</ele><time>2026-04-17T12:12:30.91Z</time></trkpt><trkpt lat="42.6322183" lon="-8.7129533"><ele>424.0</ele><time>2026-04-17T12:12:31.91Z</time></trkpt><trkpt lat="42.6322783" lon="-8.7132017"><ele>424.0</ele><time>2026-04-17T12:12:32.911Z</time></trkpt><trkpt lat="42.6323533" lon="-8.7134317"><ele>424.0</ele><time>2026-04-17T12:12:33.911Z</time></trkpt><trkpt lat="42.6324417" lon="-8.7136333"><ele>420.5</ele><time>2026-04-17T12:12:34.911Z</time></trkpt><trkpt lat="42.6325317" lon="-8.7137917"><ele>417.0</ele><time>2026-04-17T12:12:35.91Z</time></trkpt><trkpt lat="42.632615" lon="-8.7139017"><ele>413.5</ele><time>2026-04-17T12:12:36.911Z</time></trkpt><trkpt lat="42.6327" lon="-8.713965"><ele>410.0</ele><time>2026-04-17T12:12:37.91Z</time></trkpt><trkpt lat="42.6328067" lon="-8.7139917"><ele>409.5</ele><time>2026-04-17T12:12:38.911Z</time></trkpt><trkpt lat="42.6329283" lon="-8.7139817"><ele>409.0</ele><time>2026-04-17T12:12:39.911Z</time></trkpt><trkpt lat="42.633065" lon="-8.71395"><ele>408.5</ele><time>2026-04-17T12:12:40.91Z</time></trkpt><trkpt lat="42.6331983" lon="-8.7138867"><ele>408.0</ele><time>2026-04-17T12:12:41.91Z</time></trkpt><trkpt lat="42.6333317" lon="-8.7137967"><ele>408.0</ele><time>2026-04-17T12:12:42.91Z</time></trkpt><trkpt lat="42.6334717" lon="-8.7136683"><ele>408.0</ele><time>2026-04-17T12:12:43.91Z</time></trkpt><trkpt lat="42.6336083" lon="-8.7135117"><ele>408.0</ele><time>2026-04-17T12:12:44.911Z</time></trkpt><trkpt lat="42.6337517" lon="-8.7133367"><ele>406.66666666666663</ele><time>2026-04-17T12:12:45.91Z</time></trkpt><trkpt lat="42.6338933" lon="-8.7131483"><ele>405.3333333333333</ele><time>2026-04-17T12:12:46.911Z</time></trkpt><trkpt lat="42.6340217" lon="-8.7129667"><ele>404.0</ele><time>2026-04-17T12:12:47.911Z</time></trkpt><trkpt lat="42.6341317" lon="-8.712785"><ele>406.66666666666663</ele><time>2026-04-17T12:12:48.91Z</time></trkpt><trkpt lat="42.634235" lon="-8.7125983"><ele>409.33333333333337</ele><time>2026-04-17T12:12:49.91Z</time></trkpt><trkpt lat="42.6343283" lon="-8.7123833"><ele>412.0</ele><time>2026-04-17T12:12:50.911Z</time></trkpt><trkpt lat="42.6344067" lon="-8.7122017"><ele>411.8</ele><time>2026-04-17T12:12:51.91Z</time></trkpt><trkpt lat="42.6344933" lon="-8.71206"><ele>411.6</ele><time>2026-04-17T12:12:52.911Z</time></trkpt><trkpt lat="42.6345867" lon="-8.7119533"><ele>411.40000000000003</ele><time>2026-04-17T12:12:53.91Z</time></trkpt><trkpt lat="42.6346717" lon="-8.711875"><ele>411.20000000000005</ele><time>2026-04-17T12:12:54.91Z</time></trkpt><trkpt lat="42.6347583" lon="-8.7118517"><ele>411.0</ele><time>2026-04-17T12:12:55.91Z</time></trkpt><trkpt lat="42.634845" lon="-8.7118617"><ele>408.5</ele><time>2026-04-17T12:12:56.91Z</time></trkpt><trkpt lat="42.63493" lon="-8.7119117"><ele>406.0</ele><time>2026-04-17T12:12:57.911Z</time></trkpt><trkpt lat="42.6350133" lon="-8.71202"><ele>403.5</ele><time>2026-04-17T12:12:58.911Z</time></trkpt><trkpt lat="42.6351117" lon="-8.7122233"><ele>401.0</ele><time>2026-04-17T12:12:59.91Z</time></trkpt><trkpt lat="42.6352217" lon="-8.7124467"><ele>403.0</ele><time>2026-04-17T12:13:00.911Z</time></trkpt><trkpt lat="42.63533" lon="-8.7126233"><ele>405.0</ele><time>2026-04-17T12:13:01.911Z</time></trkpt><trkpt lat="42.6354483" lon="-8.7127767"><ele>407.0</ele><time>2026-04-17T12:13:02.911Z</time></trkpt><trkpt lat="42.635575" lon="-8.7129083"><ele>402.75</ele><time>2026-04-17T12:13:03.91Z</time></trkpt><trkpt lat="42.6356883" lon="-8.7130083"><ele>398.5</ele><time>2026-04-17T12:13:04.91Z</time></trkpt><trkpt lat="42.6357933" lon="-8.7130767"><ele>394.25</ele><time>2026-04-17T12:13:05.91Z</time></trkpt><trkpt lat="42.6359" lon="-8.71312"><ele>390.0</ele><time>2026-04-17T12:13:06.911Z</time></trkpt><trkpt lat="42.6360167" lon="-8.7131367"><ele>390.0</ele><time>2026-04-17T12:13:07.911Z</time></trkpt><trkpt lat="42.6361317" lon="-8.7131133"><ele>390.0</ele><time>2026-04-17T12:13:08.911Z</time></trkpt><trkpt lat="42.63625" lon="-8.713045"><ele>390.0</ele><time>2026-04-17T12:13:09.911Z</time></trkpt><trkpt lat="42.6363733" lon="-8.7129333"><ele>390.0</ele><time>2026-04-17T12:13:10.91Z</time></trkpt><trkpt lat="42.636515" lon="-8.7128"><ele>392.0</ele><time>2026-04-17T12:13:11.911Z</time></trkpt><trkpt lat="42.6366683" lon="-8.7126517"><ele>394.0</ele><time>2026-04-17T12:13:12.91Z</time></trkpt><trkpt lat="42.63683" lon="-8.7124833"><ele>396.0</ele><time>2026-04-17T12:13:13.91Z</time></trkpt><trkpt lat="42.63699" lon="-8.7123017"><ele>392.0</ele><time>2026-04-17T12:13:14.91Z</time></trkpt><trkpt lat="42.6371383" lon="-8.7121183"><ele>388.0</ele><time>2026-04-17T12:13:15.911Z</time></trkpt><trkpt lat="42.6372733" lon="-8.7119217"><ele>384.0</ele><time>2026-04-17T12:13:16.911Z</time></trkpt><trkpt lat="42.6374033" lon="-8.7117017"><ele>384.0</ele><time>2026-04-17T12:13:17.91Z</time></trkpt><trkpt lat="42.6375367" lon="-8.71146"><ele>384.0</ele><time>2026-04-17T12:13:18.91Z</time></trkpt><trkpt lat="42.6376717" lon="-8.7112133"><ele>384.0</ele><time>2026-04-17T12:13:19.91Z</time></trkpt><trkpt lat="42.6378067" lon="-8.7109817"><ele>380.6666666666667</ele><time>2026-04-17T12:13:20.91Z</time></trkpt><trkpt lat="42.63794" lon="-8.71076"><ele>377.33333333333337</ele><time>2026-04-17T12:13:21.911Z</time></trkpt><trkpt lat="42.6380683" lon="-8.71055"><ele>374.0</ele><time>2026-04-17T12:13:22.91Z</time></trkpt><trkpt lat="42.6381817" lon="-8.7103367"><ele>376.6666666666667</ele><time>2026-04-17T12:13:23.91Z</time></trkpt><trkpt lat="42.6382767" lon="-8.71012"><ele>379.3333333333333</ele><time>2026-04-17T12:13:24.911Z</time></trkpt><trkpt lat="42.6383467" lon="-8.70988"><ele>382.0</ele><time>2026-04-17T12:13:25.91Z</time></trkpt><trkpt lat="42.638395" lon="-8.7096133"><ele>385.66666666666663</ele><time>2026-04-17T12:13:26.91Z</time></trkpt><trkpt lat="42.638425" lon="-8.7093233"><ele>389.3333333333333</ele><time>2026-04-17T12:13:27.911Z</time></trkpt><trkpt lat="42.63845" lon="-8.7090083"><ele>393.0</ele><time>2026-04-17T12:13:28.911Z</time></trkpt><trkpt lat="42.6384783" lon="-8.7086733"><ele>396.0</ele><time>2026-04-17T12:13:29.91Z</time></trkpt><trkpt lat="42.63851" lon="-8.7083233"><ele>399.0</ele><time>2026-04-17T12:13:30.91Z</time></trkpt><trkpt lat="42.63854" lon="-8.7079883"><ele>400.5</ele><time>2026-04-17T12:13:31.911Z</time></trkpt><trkpt lat="42.6385583" lon="-8.7076733"><ele>402.0</ele><time>2026-04-17T12:13:32.91Z</time></trkpt><trkpt lat="42.638565" lon="-8.70736"><ele>402.0</ele><time>2026-04-17T12:13:33.91Z</time></trkpt><trkpt lat="42.63856" lon="-8.7070617"><ele>402.0</ele><time>2026-04-17T12:13:34.91Z</time></trkpt><trkpt lat="42.6385467" lon="-8.70679"><ele>402.0</ele><time>2026-04-17T12:13:35.911Z</time></trkpt><trkpt lat="42.6385267" lon="-8.7065633"><ele>401.5</ele><time>2026-04-17T12:13:36.91Z</time></trkpt><trkpt lat="42.6384983" lon="-8.7063933"><ele>401.0</ele><time>2026-04-17T12:13:37.91Z</time></trkpt><trkpt lat="42.6384467" lon="-8.7062433"><ele>400.5</ele><time>2026-04-17T12:13:38.91Z</time></trkpt><trkpt lat="42.6383633" lon="-8.7061033"><ele>400.0</ele><time>2026-04-17T12:13:39.911Z</time></trkpt><trkpt lat="42.6382717" lon="-8.7059767"><ele>398.8</ele><time>2026-04-17T12:13:40.91Z</time></trkpt><trkpt lat="42.6381983" lon="-8.7058617"><ele>397.6</ele><time>2026-04-17T12:13:41.91Z</time></trkpt><trkpt lat="42.63817" lon="-8.7057633"><ele>396.4</ele><time>2026-04-17T12:13:42.91Z</time></trkpt><trkpt lat="42.6381667" lon="-8.705655"><ele>395.2</ele><time>2026-04-17T12:13:43.91Z</time></trkpt><trkpt lat="42.638185" lon="-8.7055333"><ele>394.0</ele><time>2026-04-17T12:13:44.91Z</time></trkpt><trkpt lat="42.6382183" lon="-8.7053917"><ele>396.0</ele><time>2026-04-17T12:13:45.911Z</time></trkpt><trkpt lat="42.6383017" lon="-8.705245"><ele>398.0</ele><time>2026-04-17T12:13:46.91Z</time></trkpt><trkpt lat="42.638405" lon="-8.7050467"><ele>400.0</ele><time>2026-04-17T12:13:47.91Z</time></trkpt><trkpt lat="42.6385217" lon="-8.7048083"><ele>393.5</ele><time>2026-04-17T12:13:48.91Z</time></trkpt><trkpt lat="42.6386417" lon="-8.704515"><ele>387.0</ele><time>2026-04-17T12:13:49.91Z</time></trkpt><trkpt lat="42.6387433" lon="-8.7042117"><ele>387.0</ele><time>2026-04-17T12:13:50.91Z</time></trkpt><trkpt lat="42.6388217" lon="-8.70392"><ele>387.0</ele><time>2026-04-17T12:13:51.911Z</time></trkpt><trkpt lat="42.6388867" lon="-8.70369"><ele>387.0</ele><time>2026-04-17T12:13:52.91Z</time></trkpt><trkpt lat="42.638935" lon="-8.7034983"><ele>387.75</ele><time>2026-04-17T12:13:53.91Z</time></trkpt><trkpt lat="42.6389617" lon="-8.70333"><ele>388.5</ele><time>2026-04-17T12:13:54.911Z</time></trkpt><trkpt lat="42.63896" lon="-8.7031933"><ele>389.25</ele><time>2026-04-17T12:13:55.911Z</time></trkpt><trkpt lat="42.6388983" lon="-8.7030633"><ele>390.0</ele><time>2026-04-17T12:13:56.91Z</time></trkpt><trkpt lat="42.6388233" lon="-8.7029233"><ele>390.0</ele><time>2026-04-17T12:13:57.91Z</time></trkpt><trkpt lat="42.6387383" lon="-8.70275"><ele>390.0</ele><time>2026-04-17T12:13:58.911Z</time></trkpt><trkpt lat="42.638655" lon="-8.7025467"><ele>390.0</ele><time>2026-04-17T12:13:59.91Z</time></trkpt><trkpt lat="42.6385933" lon="-8.70234"><ele>393.2</ele><time>2026-04-17T12:14:00.91Z</time></trkpt><trkpt lat="42.63855" lon="-8.70215"><ele>396.4</ele><time>2026-04-17T12:14:01.91Z</time></trkpt><trkpt lat="42.6385283" lon="-8.70199"><ele>399.6</ele><time>2026-04-17T12:14:02.911Z</time></trkpt><trkpt lat="42.638535" lon="-8.7018783"><ele>402.8</ele><time>2026-04-17T12:14:03.91Z</time></trkpt><trkpt lat="42.6385833" lon="-8.7018217"><ele>406.0</ele><time>2026-04-17T12:14:04.911Z</time></trkpt><trkpt lat="42.6387167" lon="-8.7017733"><ele>406.0</ele><time>2026-04-17T12:14:06.91Z</time></trkpt><trkpt lat="42.6388867" lon="-8.7019"><ele>406.0</ele><time>2026-04-17T12:14:07.91Z</time></trkpt><trkpt lat="42.6390067" lon="-8.7019017"><ele>406.0</ele><time>2026-04-17T12:14:08.91Z</time></trkpt><trkpt lat="42.6391333" lon="-8.7018267"><ele>406.0</ele><time>2026-04-17T12:14:09.911Z</time></trkpt><trkpt lat="42.6392617" lon="-8.7017167"><ele>406.0</ele><time>2026-04-17T12:14:10.911Z</time></trkpt><trkpt lat="42.6393967" lon="-8.7015733"><ele>406.0</ele><time>2026-04-17T12:14:11.91Z</time></trkpt><trkpt lat="42.639535" lon="-8.701405"><ele>404.0</ele><time>2026-04-17T12:14:12.911Z</time></trkpt><trkpt lat="42.639685" lon="-8.7012083"><ele>402.0</ele><time>2026-04-17T12:14:13.911Z</time></trkpt><trkpt lat="42.6398367" lon="-8.7009833"><ele>400.0</ele><time>2026-04-17T12:14:14.91Z</time></trkpt><trkpt lat="42.640005" lon="-8.700725"><ele>400.0</ele><time>2026-04-17T12:14:15.91Z</time></trkpt><trkpt lat="42.640175" lon="-8.70045"><ele>400.0</ele><time>2026-04-17T12:14:16.91Z</time></trkpt><trkpt lat="42.6403483" lon="-8.70016"><ele>392.5</ele><time>2026-04-17T12:14:17.91Z</time></trkpt><trkpt lat="42.64052" lon="-8.6998667"><ele>385.0</ele><time>2026-04-17T12:14:18.91Z</time></trkpt><trkpt lat="42.6407017" lon="-8.69957"><ele>394.5</ele><time>2026-04-17T12:14:19.911Z</time></trkpt><trkpt lat="42.640875" lon="-8.6992733"><ele>404.0</ele><time>2026-04-17T12:14:20.91Z</time></trkpt><trkpt lat="42.641035" lon="-8.6990017"><ele>397.3333333333333</ele><time>2026-04-17T12:14:21.91Z</time></trkpt><trkpt lat="42.6411783" lon="-8.69876"><ele>390.66666666666663</ele><time>2026-04-17T12:14:22.911Z</time></trkpt><trkpt lat="42.6413117" lon="-8.6985383"><ele>384.0</ele><time>2026-04-17T12:14:23.91Z</time></trkpt><trkpt lat="42.6414333" lon="-8.698315"><ele>384.0</ele><time>2026-04-17T12:14:24.91Z</time></trkpt><trkpt lat="42.6415367" lon="-8.6980683"><ele>384.0</ele><time>2026-04-17T12:14:25.91Z</time></trkpt><trkpt lat="42.6416217" lon="-8.6978233"><ele>384.0</ele><time>2026-04-17T12:14:26.911Z</time></trkpt><trkpt lat="42.641685" lon="-8.6975833"><ele>386.33333333333337</ele><time>2026-04-17T12:14:27.911Z</time></trkpt><trkpt lat="42.641725" lon="-8.6973217"><ele>388.6666666666667</ele><time>2026-04-17T12:14:28.911Z</time></trkpt><trkpt lat="42.641745" lon="-8.69705"><ele>391.0</ele><time>2026-04-17T12:14:29.911Z</time></trkpt><trkpt lat="42.641745" lon="-8.6967783"><ele>391.33333333333337</ele><time>2026-04-17T12:14:30.911Z</time></trkpt><trkpt lat="42.6417233" lon="-8.6965017"><ele>391.66666666666663</ele><time>2026-04-17T12:14:31.911Z</time></trkpt><trkpt lat="42.6416867" lon="-8.6962417"><ele>392.0</ele><time>2026-04-17T12:14:32.91Z</time></trkpt><trkpt lat="42.6416333" lon="-8.6959983"><ele>390.66666666666663</ele><time>2026-04-17T12:14:33.911Z</time></trkpt><trkpt lat="42.6415617" lon="-8.695765"><ele>389.33333333333337</ele><time>2026-04-17T12:14:34.91Z</time></trkpt><trkpt lat="42.6414867" lon="-8.6955783"><ele>388.0</ele><time>2026-04-17T12:14:35.911Z</time></trkpt><trkpt lat="42.6414333" lon="-8.6954467"><ele>388.0</ele><time>2026-04-17T12:14:36.911Z</time></trkpt><trkpt lat="42.641425" lon="-8.6953467"><ele>388.0</ele><time>2026-04-17T12:14:37.911Z</time></trkpt><trkpt lat="42.6414683" lon="-8.69518"><ele>388.0</ele><time>2026-04-17T12:14:39.911Z</time></trkpt><trkpt lat="42.64153" lon="-8.6950817"><ele>388.0</ele><time>2026-04-17T12:14:40.91Z</time></trkpt><trkpt lat="42.6416317" lon="-8.6949767"><ele>388.0</ele><time>2026-04-17T12:14:41.911Z</time></trkpt><trkpt lat="42.641765" lon="-8.69485"><ele>389.33333333333337</ele><time>2026-04-17T12:14:42.91Z</time></trkpt><trkpt lat="42.6418867" lon="-8.6946767"><ele>390.66666666666663</ele><time>2026-04-17T12:14:43.91Z</time></trkpt><trkpt lat="42.6420083" lon="-8.6944883"><ele>392.0</ele><time>2026-04-17T12:14:44.911Z</time></trkpt><trkpt lat="42.64214" lon="-8.6942967"><ele>389.75</ele><time>2026-04-17T12:14:45.91Z</time></trkpt><trkpt lat="42.6422367" lon="-8.69415"><ele>387.5</ele><time>2026-04-17T12:14:46.911Z</time></trkpt><trkpt lat="42.6423017" lon="-8.6940217"><ele>385.25</ele><time>2026-04-17T12:14:47.91Z</time></trkpt><trkpt lat="42.6423667" lon="-8.69391"><ele>383.0</ele><time>2026-04-17T12:14:48.91Z</time></trkpt><trkpt lat="42.6424217" lon="-8.6937617"><ele>383.0</ele><time>2026-04-17T12:14:50.91Z</time></trkpt><trkpt lat="42.642465" lon="-8.6936717"><ele>383.0</ele><time>2026-04-17T12:14:51.911Z</time></trkpt><trkpt lat="42.64251" lon="-8.69359"><ele>383.0</ele><time>2026-04-17T12:14:52.91Z</time></trkpt><trkpt lat="42.642565" lon="-8.69351"><ele>383.0</ele><time>2026-04-17T12:14:53.911Z</time></trkpt><trkpt lat="42.642635" lon="-8.69343"><ele>383.0</ele><time>2026-04-17T12:14:54.911Z</time></trkpt><trkpt lat="42.6427133" lon="-8.69333"><ele>383.0</ele><time>2026-04-17T12:14:55.91Z</time></trkpt><trkpt lat="42.6427933" lon="-8.6932417"><ele>383.79999999999995</ele><time>2026-04-17T12:14:56.911Z</time></trkpt><trkpt lat="42.64286" lon="-8.6931617"><ele>384.6</ele><time>2026-04-17T12:14:57.91Z</time></trkpt><trkpt lat="42.6429117" lon="-8.693085"><ele>385.4</ele><time>2026-04-17T12:14:58.911Z</time></trkpt><trkpt lat="42.6429533" lon="-8.6929567"><ele>386.20000000000005</ele><time>2026-04-17T12:15:00.911Z</time></trkpt><trkpt lat="42.642925" lon="-8.69281"><ele>387.0</ele><time>2026-04-17T12:15:02.911Z</time></trkpt><trkpt lat="42.6428483" lon="-8.692695"><ele>393.5</ele><time>2026-04-17T12:15:04.911Z</time></trkpt><trkpt lat="42.6427617" lon="-8.6925433"><ele>400.0</ele><time>2026-04-17T12:15:06.911Z</time></trkpt><trkpt lat="42.6427" lon="-8.6924233"><ele>406.5</ele><time>2026-04-17T12:15:07.911Z</time></trkpt><trkpt lat="42.6426417" lon="-8.6923017"><ele>413.0</ele><time>2026-04-17T12:15:08.91Z</time></trkpt><trkpt lat="42.6425667" lon="-8.6921517"><ele>413.0</ele><time>2026-04-17T12:15:09.91Z</time></trkpt><trkpt lat="42.64249" lon="-8.692005"><ele>413.0</ele><time>2026-04-17T12:15:10.911Z</time></trkpt><trkpt lat="42.6424217" lon="-8.6918617"><ele>413.0</ele><time>2026-04-17T12:15:11.911Z</time></trkpt><trkpt lat="42.64235" lon="-8.691715"><ele>413.0</ele><time>2026-04-17T12:15:12.91Z</time></trkpt><trkpt lat="42.6422633" lon="-8.69157"><ele>414.4</ele><time>2026-04-17T12:15:13.911Z</time></trkpt><trkpt lat="42.64217" lon="-8.6914417"><ele>415.79999999999995</ele><time>2026-04-17T12:15:14.911Z</time></trkpt><trkpt lat="42.64209" lon="-8.6913483"><ele>417.2</ele><time>2026-04-17T12:15:15.911Z</time></trkpt><trkpt lat="42.64202" lon="-8.6912783"><ele>418.6</ele><time>2026-04-17T12:15:16.91Z</time></trkpt><trkpt lat="42.6419567" lon="-8.6912333"><ele>420.0</ele><time>2026-04-17T12:15:17.911Z</time></trkpt><trkpt lat="42.64188" lon="-8.6912583"><ele>425.33333333333337</ele><time>2026-04-17T12:15:19.91Z</time></trkpt><trkpt lat="42.6417933" lon="-8.6914133"><ele>430.6666666666667</ele><time>2026-04-17T12:15:21.91Z</time></trkpt><trkpt lat="42.6417183" lon="-8.691545"><ele>436.0</ele><time>2026-04-17T12:15:22.911Z</time></trkpt><trkpt lat="42.6415867" lon="-8.6917217"><ele>436.0</ele><time>2026-04-17T12:15:23.91Z</time></trkpt><trkpt lat="42.6414467" lon="-8.6919117"><ele>436.0</ele><time>2026-04-17T12:15:24.911Z</time></trkpt><trkpt lat="42.6412967" lon="-8.6921333"><ele>436.0</ele><time>2026-04-17T12:15:25.91Z</time></trkpt><trkpt lat="42.6411683" lon="-8.6923333"><ele>438.33333333333337</ele><time>2026-04-17T12:15:26.911Z</time></trkpt><trkpt lat="42.6410683" lon="-8.692525"><ele>440.66666666666663</ele><time>2026-04-17T12:15:27.911Z</time></trkpt><trkpt lat="42.6409733" lon="-8.6926983"><ele>443.0</ele><time>2026-04-17T12:15:28.91Z</time></trkpt><trkpt lat="42.6408833" lon="-8.692865"><ele>443.0</ele><time>2026-04-17T12:15:29.91Z</time></trkpt><trkpt lat="42.6408133" lon="-8.6930033"><ele>443.0</ele><time>2026-04-17T12:15:30.911Z</time></trkpt><trkpt lat="42.6407617" lon="-8.6931183"><ele>443.0</ele><time>2026-04-17T12:15:31.91Z</time></trkpt><trkpt lat="42.6407367" lon="-8.6932567"><ele>443.0</ele><time>2026-04-17T12:15:32.91Z</time></trkpt><trkpt lat="42.6407233" lon="-8.6934317"><ele>440.25</ele><time>2026-04-17T12:15:33.91Z</time></trkpt><trkpt lat="42.6406933" lon="-8.6936033"><ele>437.5</ele><time>2026-04-17T12:15:34.91Z</time></trkpt><trkpt lat="42.64064" lon="-8.6937733"><ele>434.75</ele><time>2026-04-17T12:15:35.91Z</time></trkpt><trkpt lat="42.6405667" lon="-8.6939333"><ele>432.0</ele><time>2026-04-17T12:15:36.91Z</time></trkpt><trkpt lat="42.6404767" lon="-8.6940917"><ele>432.0</ele><time>2026-04-17T12:15:37.91Z</time></trkpt><trkpt lat="42.6403683" lon="-8.69424"><ele>432.0</ele><time>2026-04-17T12:15:38.91Z</time></trkpt><trkpt lat="42.6402633" lon="-8.6943667"><ele>432.0</ele><time>2026-04-17T12:15:39.91Z</time></trkpt><trkpt lat="42.640175" lon="-8.6944833"><ele>432.0</ele><time>2026-04-17T12:15:40.911Z</time></trkpt><trkpt lat="42.6401117" lon="-8.6945967"><ele>436.5</ele><time>2026-04-17T12:15:41.91Z</time></trkpt><trkpt lat="42.640085" lon="-8.6947233"><ele>441.0</ele><time>2026-04-17T12:15:42.91Z</time></trkpt><trkpt lat="42.640075" lon="-8.694875"><ele>445.5</ele><time>2026-04-17T12:15:43.91Z</time></trkpt><trkpt lat="42.6400867" lon="-8.6950333"><ele>450.0</ele><time>2026-04-17T12:15:44.911Z</time></trkpt><trkpt lat="42.6401233" lon="-8.6952033"><ele>451.33333333333337</ele><time>2026-04-17T12:15:45.911Z</time></trkpt><trkpt lat="42.6401817" lon="-8.69541"><ele>452.6666666666667</ele><time>2026-04-17T12:15:46.91Z</time></trkpt><trkpt lat="42.640245" lon="-8.6956433"><ele>454.0</ele><time>2026-04-17T12:15:47.91Z</time></trkpt><trkpt lat="42.6403017" lon="-8.695875"><ele>447.5</ele><time>2026-04-17T12:15:48.91Z</time></trkpt><trkpt lat="42.6403467" lon="-8.6960683"><ele>441.0</ele><time>2026-04-17T12:15:49.911Z</time></trkpt><trkpt lat="42.6403767" lon="-8.6962433"><ele>434.5</ele><time>2026-04-17T12:15:50.911Z</time></trkpt><trkpt lat="42.6403867" lon="-8.69638"><ele>428.0</ele><time>2026-04-17T12:15:51.911Z</time></trkpt><trkpt lat="42.6403583" lon="-8.69647"><ele>427.99999999999994</ele><time>2026-04-17T12:15:52.91Z</time></trkpt><trkpt lat="42.6403183" lon="-8.6965367"><ele>428.0</ele><time>2026-04-17T12:15:53.91Z</time></trkpt><trkpt lat="42.64025" lon="-8.6965833"><ele>428.0</ele><time>2026-04-17T12:15:54.911Z</time></trkpt><trkpt lat="42.6401683" lon="-8.6966383"><ele>428.0</ele><time>2026-04-17T12:15:55.911Z</time></trkpt><trkpt lat="42.6400833" lon="-8.6967133"><ele>427.99999999999994</ele><time>2026-04-17T12:15:56.911Z</time></trkpt><trkpt lat="42.6400233" lon="-8.6968167"><ele>428.0</ele><time>2026-04-17T12:15:57.911Z</time></trkpt><trkpt lat="42.6399783" lon="-8.69695"><ele>436.0</ele><time>2026-04-17T12:15:58.911Z</time></trkpt><trkpt lat="42.6399517" lon="-8.6971317"><ele>444.0</ele><time>2026-04-17T12:15:59.91Z</time></trkpt><trkpt lat="42.6399267" lon="-8.6973333"><ele>452.0</ele><time>2026-04-17T12:16:00.911Z</time></trkpt><trkpt lat="42.63989" lon="-8.6975367"><ele>460.0</ele><time>2026-04-17T12:16:01.91Z</time></trkpt><trkpt lat="42.63983" lon="-8.6977333"><ele>456.33333333333337</ele><time>2026-04-17T12:16:02.91Z</time></trkpt><trkpt lat="42.6397417" lon="-8.6979383"><ele>452.66666666666663</ele><time>2026-04-17T12:16:03.91Z</time></trkpt><trkpt lat="42.6396333" lon="-8.6981317"><ele>449.0</ele><time>2026-04-17T12:16:04.911Z</time></trkpt><trkpt lat="42.63951" lon="-8.69832"><ele>453.0</ele><time>2026-04-17T12:16:05.911Z</time></trkpt><trkpt lat="42.6393817" lon="-8.6985183"><ele>457.0</ele><time>2026-04-17T12:16:06.911Z</time></trkpt><trkpt lat="42.6392467" lon="-8.69871"><ele>461.0</ele><time>2026-04-17T12:16:07.911Z</time></trkpt><trkpt lat="42.6391217" lon="-8.69888"><ele>461.0</ele><time>2026-04-17T12:16:08.91Z</time></trkpt><trkpt lat="42.6390067" lon="-8.6990217"><ele>461.0</ele><time>2026-04-17T12:16:09.911Z</time></trkpt><trkpt lat="42.638885" lon="-8.6991333"><ele>461.0</ele><time>2026-04-17T12:16:10.911Z</time></trkpt><trkpt lat="42.6387583" lon="-8.69922"><ele>461.0</ele><time>2026-04-17T12:16:11.911Z</time></trkpt><trkpt lat="42.6386317" lon="-8.6992683"><ele>462.0</ele><time>2026-04-17T12:16:12.911Z</time></trkpt><trkpt lat="42.6385067" lon="-8.6992767"><ele>463.0</ele><time>2026-04-17T12:16:13.91Z</time></trkpt><trkpt lat="42.6383933" lon="-8.6992567"><ele>464.0</ele><time>2026-04-17T12:16:14.911Z</time></trkpt><trkpt lat="42.6382883" lon="-8.69921"><ele>465.0</ele><time>2026-04-17T12:16:15.91Z</time></trkpt><trkpt lat="42.6381767" lon="-8.699145"><ele>465.0</ele><time>2026-04-17T12:16:16.91Z</time></trkpt><trkpt lat="42.6380533" lon="-8.6990817"><ele>465.0</ele><time>2026-04-17T12:16:17.91Z</time></trkpt><trkpt lat="42.6379283" lon="-8.6990267"><ele>465.0</ele><time>2026-04-17T12:16:18.91Z</time></trkpt><trkpt lat="42.6378133" lon="-8.6990067"><ele>465.0</ele><time>2026-04-17T12:16:19.911Z</time></trkpt><trkpt lat="42.6377083" lon="-8.6990333"><ele>465.75</ele><time>2026-04-17T12:16:20.911Z</time></trkpt><trkpt lat="42.6376083" lon="-8.6991017"><ele>466.5</ele><time>2026-04-17T12:16:21.912Z</time></trkpt><trkpt lat="42.6375083" lon="-8.699205"><ele>467.25</ele><time>2026-04-17T12:16:22.912Z</time></trkpt><trkpt lat="42.6374017" lon="-8.6993317"><ele>468.0</ele><time>2026-04-17T12:16:23.911Z</time></trkpt><trkpt lat="42.63729" lon="-8.69945"><ele>467.25</ele><time>2026-04-17T12:16:24.911Z</time></trkpt><trkpt lat="42.6371733" lon="-8.69955"><ele>466.5</ele><time>2026-04-17T12:16:25.911Z</time></trkpt><trkpt lat="42.63707" lon="-8.6996533"><ele>465.75</ele><time>2026-04-17T12:16:26.911Z</time></trkpt><trkpt lat="42.6369817" lon="-8.6997783"><ele>465.0</ele><time>2026-04-17T12:16:27.912Z</time></trkpt><trkpt lat="42.636895" lon="-8.6998883"><ele>465.0</ele><time>2026-04-17T12:16:28.911Z</time></trkpt><trkpt lat="42.636805" lon="-8.6999667"><ele>465.0</ele><time>2026-04-17T12:16:29.912Z</time></trkpt><trkpt lat="42.6366933" lon="-8.7000167"><ele>465.0</ele><time>2026-04-17T12:16:30.911Z</time></trkpt><trkpt lat="42.63658" lon="-8.7000733"><ele>465.0</ele><time>2026-04-17T12:16:31.911Z</time></trkpt><trkpt lat="42.63647" lon="-8.7001383"><ele>465.0</ele><time>2026-04-17T12:16:32.911Z</time></trkpt><trkpt lat="42.636385" lon="-8.700205"><ele>465.0</ele><time>2026-04-17T12:16:33.912Z</time></trkpt><trkpt lat="42.6363217" lon="-8.7002867"><ele>465.0</ele><time>2026-04-17T12:16:34.911Z</time></trkpt><trkpt lat="42.6362867" lon="-8.7003767"><ele>465.0</ele><time>2026-04-17T12:16:35.912Z</time></trkpt><trkpt lat="42.6362933" lon="-8.7004683"><ele>465.0</ele><time>2026-04-17T12:16:36.911Z</time></trkpt><trkpt lat="42.6363467" lon="-8.7005667"><ele>465.0</ele><time>2026-04-17T12:16:37.911Z</time></trkpt><trkpt lat="42.6364533" lon="-8.7006717"><ele>465.33333333333337</ele><time>2026-04-17T12:16:38.911Z</time></trkpt><trkpt lat="42.636575" lon="-8.7007967"><ele>465.6666666666667</ele><time>2026-04-17T12:16:39.912Z</time></trkpt><trkpt lat="42.6366817" lon="-8.7009383"><ele>466.0</ele><time>2026-04-17T12:16:40.911Z</time></trkpt><trkpt lat="42.6367817" lon="-8.701095"><ele>470.25</ele><time>2026-04-17T12:16:41.912Z</time></trkpt><trkpt lat="42.6368683" lon="-8.701255"><ele>474.5</ele><time>2026-04-17T12:16:42.911Z</time></trkpt><trkpt lat="42.636955" lon="-8.7013917"><ele>478.75</ele><time>2026-04-17T12:16:43.912Z</time></trkpt><trkpt lat="42.6370567" lon="-8.7014983"><ele>483.0</ele><time>2026-04-17T12:16:44.911Z</time></trkpt><trkpt lat="42.6371683" lon="-8.7016167"><ele>475.5</ele><time>2026-04-17T12:16:45.911Z</time></trkpt><trkpt lat="42.63727" lon="-8.701765"><ele>468.0</ele><time>2026-04-17T12:16:46.912Z</time></trkpt><trkpt lat="42.6373567" lon="-8.7019283"><ele>460.5</ele><time>2026-04-17T12:16:47.911Z</time></trkpt><trkpt lat="42.6374183" lon="-8.70211"><ele>453.0</ele><time>2026-04-17T12:16:48.912Z</time></trkpt><trkpt lat="42.63746" lon="-8.7022983"><ele>453.0</ele><time>2026-04-17T12:16:49.911Z</time></trkpt><trkpt lat="42.637485" lon="-8.7024883"><ele>453.0</ele><time>2026-04-17T12:16:50.912Z</time></trkpt><trkpt lat="42.6374983" lon="-8.702675"><ele>453.0</ele><time>2026-04-17T12:16:51.911Z</time></trkpt><trkpt lat="42.6374883" lon="-8.7028717"><ele>453.0</ele><time>2026-04-17T12:16:52.912Z</time></trkpt><trkpt lat="42.6374683" lon="-8.7030783"><ele>451.25</ele><time>2026-04-17T12:16:53.911Z</time></trkpt><trkpt lat="42.6374417" lon="-8.703265"><ele>449.5</ele><time>2026-04-17T12:16:54.911Z</time></trkpt><trkpt lat="42.6373983" lon="-8.7034433"><ele>447.75</ele><time>2026-04-17T12:16:55.911Z</time></trkpt><trkpt lat="42.6373367" lon="-8.7036133"><ele>446.0</ele><time>2026-04-17T12:16:56.912Z</time></trkpt><trkpt lat="42.6372617" lon="-8.7037817"><ele>442.0</ele><time>2026-04-17T12:16:57.912Z</time></trkpt><trkpt lat="42.637175" lon="-8.7039567"><ele>438.0</ele><time>2026-04-17T12:16:58.911Z</time></trkpt><trkpt lat="42.6370833" lon="-8.70414"><ele>434.0</ele><time>2026-04-17T12:16:59.911Z</time></trkpt><trkpt lat="42.636995" lon="-8.70433"><ele>438.3333333333333</ele><time>2026-04-17T12:17:00.912Z</time></trkpt><trkpt lat="42.6369083" lon="-8.7045167"><ele>442.66666666666663</ele><time>2026-04-17T12:17:01.911Z</time></trkpt><trkpt lat="42.6368233" lon="-8.7046917"><ele>447.0</ele><time>2026-04-17T12:17:02.911Z</time></trkpt><trkpt lat="42.636725" lon="-8.7048417"><ele>447.0</ele><time>2026-04-17T12:17:03.911Z</time></trkpt><trkpt lat="42.6366117" lon="-8.7049817"><ele>447.0</ele><time>2026-04-17T12:17:04.911Z</time></trkpt><trkpt lat="42.63649" lon="-8.7051217"><ele>447.0</ele><time>2026-04-17T12:17:05.911Z</time></trkpt><trkpt lat="42.6363733" lon="-8.70527"><ele>444.0</ele><time>2026-04-17T12:17:06.911Z</time></trkpt><trkpt lat="42.6362717" lon="-8.7054283"><ele>441.0</ele><time>2026-04-17T12:17:07.912Z</time></trkpt><trkpt lat="42.636185" lon="-8.7056"><ele>438.0</ele><time>2026-04-17T12:17:08.912Z</time></trkpt><trkpt lat="42.636125" lon="-8.7058067"><ele>442.0</ele><time>2026-04-17T12:17:09.912Z</time></trkpt><trkpt lat="42.63608" lon="-8.7060367"><ele>446.0</ele><time>2026-04-17T12:17:10.912Z</time></trkpt><trkpt lat="42.6360467" lon="-8.7062683"><ele>450.0</ele><time>2026-04-17T12:17:11.912Z</time></trkpt><trkpt lat="42.6360183" lon="-8.7064833"><ele>450.0</ele><time>2026-04-17T12:17:12.911Z</time></trkpt><trkpt lat="42.6359817" lon="-8.70667"><ele>450.0</ele><time>2026-04-17T12:17:13.911Z</time></trkpt><trkpt lat="42.6359567" lon="-8.7068283"><ele>450.0</ele><time>2026-04-17T12:17:14.912Z</time></trkpt><trkpt lat="42.6359367" lon="-8.7069583"><ele>450.0</ele><time>2026-04-17T12:17:15.911Z</time></trkpt><trkpt lat="42.63591" lon="-8.7070667"><ele>450.0</ele><time>2026-04-17T12:17:16.912Z</time></trkpt><trkpt lat="42.6358633" lon="-8.7071617"><ele>451.25</ele><time>2026-04-17T12:17:17.911Z</time></trkpt><trkpt lat="42.6357967" lon="-8.70725"><ele>452.5</ele><time>2026-04-17T12:17:18.911Z</time></trkpt><trkpt lat="42.6357167" lon="-8.7073483"><ele>453.75</ele><time>2026-04-17T12:17:19.912Z</time></trkpt><trkpt lat="42.6356183" lon="-8.7074617"><ele>455.0</ele><time>2026-04-17T12:17:20.912Z</time></trkpt><trkpt lat="42.6355167" lon="-8.7075917"><ele>455.0</ele><time>2026-04-17T12:17:21.912Z</time></trkpt><trkpt lat="42.6353983" lon="-8.7077383"><ele>455.0</ele><time>2026-04-17T12:17:22.911Z</time></trkpt><trkpt lat="42.6352617" lon="-8.7079017"><ele>455.0</ele><time>2026-04-17T12:17:23.911Z</time></trkpt><trkpt lat="42.6351267" lon="-8.708065"><ele>455.3333333333333</ele><time>2026-04-17T12:17:24.911Z</time></trkpt><trkpt lat="42.634995" lon="-8.7082283"><ele>455.66666666666663</ele><time>2026-04-17T12:17:25.911Z</time></trkpt><trkpt lat="42.634855" lon="-8.7084083"><ele>456.0</ele><time>2026-04-17T12:17:26.911Z</time></trkpt><trkpt lat="42.6347133" lon="-8.7086133"><ele>457.0</ele><time>2026-04-17T12:17:27.912Z</time></trkpt><trkpt lat="42.634575" lon="-8.7088367"><ele>458.0</ele><time>2026-04-17T12:17:28.912Z</time></trkpt><trkpt lat="42.6344417" lon="-8.7090617"><ele>459.0</ele><time>2026-04-17T12:17:29.911Z</time></trkpt><trkpt lat="42.6343233" lon="-8.7092817"><ele>455.0</ele><time>2026-04-17T12:17:30.912Z</time></trkpt><trkpt lat="42.6342217" lon="-8.7094883"><ele>451.0</ele><time>2026-04-17T12:17:31.911Z</time></trkpt><trkpt lat="42.634125" lon="-8.7096683"><ele>447.0</ele><time>2026-04-17T12:17:32.911Z</time></trkpt><trkpt lat="42.6340267" lon="-8.7098233"><ele>447.0</ele><time>2026-04-17T12:17:33.911Z</time></trkpt><trkpt lat="42.633915" lon="-8.7099567"><ele>447.0</ele><time>2026-04-17T12:17:34.912Z</time></trkpt><trkpt lat="42.6337783" lon="-8.71008"><ele>447.0</ele><time>2026-04-17T12:17:35.911Z</time></trkpt><trkpt lat="42.6336217" lon="-8.7101983"><ele>448.33333333333337</ele><time>2026-04-17T12:17:36.911Z</time></trkpt><trkpt lat="42.63345" lon="-8.7103133"><ele>449.6666666666667</ele><time>2026-04-17T12:17:37.911Z</time></trkpt><trkpt lat="42.633275" lon="-8.7104117"><ele>451.0</ele><time>2026-04-17T12:17:38.911Z</time></trkpt><trkpt lat="42.63311" lon="-8.7104917"><ele>451.0</ele><time>2026-04-17T12:17:39.911Z</time></trkpt><trkpt lat="42.6329567" lon="-8.7105533"><ele>451.0</ele><time>2026-04-17T12:17:40.911Z</time></trkpt><trkpt lat="42.63282" lon="-8.7105933"><ele>451.0</ele><time>2026-04-17T12:17:41.911Z</time></trkpt><trkpt lat="42.63269" lon="-8.710615"><ele>451.0</ele><time>2026-04-17T12:17:42.911Z</time></trkpt><trkpt lat="42.632575" lon="-8.7106183"><ele>451.6</ele><time>2026-04-17T12:17:43.912Z</time></trkpt><trkpt lat="42.6324883" lon="-8.710605"><ele>452.20000000000005</ele><time>2026-04-17T12:17:44.912Z</time></trkpt><trkpt lat="42.6324083" lon="-8.710535"><ele>452.79999999999995</ele><time>2026-04-17T12:17:46.912Z</time></trkpt><trkpt lat="42.63245" lon="-8.7104217"><ele>453.4</ele><time>2026-04-17T12:17:48.911Z</time></trkpt><trkpt lat="42.6325033" lon="-8.7103433"><ele>454.0</ele><time>2026-04-17T12:17:49.912Z</time></trkpt><trkpt lat="42.6325717" lon="-8.71025"><ele>455.25</ele><time>2026-04-17T12:17:50.912Z</time></trkpt><trkpt lat="42.632655" lon="-8.7101267"><ele>456.5</ele><time>2026-04-17T12:17:51.912Z</time></trkpt><trkpt lat="42.6327383" lon="-8.7099667"><ele>457.75</ele><time>2026-04-17T12:17:52.911Z</time></trkpt><trkpt lat="42.6328" lon="-8.709795"><ele>459.0</ele><time>2026-04-17T12:17:53.912Z</time></trkpt><trkpt lat="42.63282" lon="-8.7096167"><ele>459.0</ele><time>2026-04-17T12:17:54.912Z</time></trkpt><trkpt lat="42.63282" lon="-8.7094283"><ele>459.0</ele><time>2026-04-17T12:17:55.912Z</time></trkpt><trkpt lat="42.6328167" lon="-8.7092267"><ele>459.0</ele><time>2026-04-17T12:17:56.912Z</time></trkpt><trkpt lat="42.6328283" lon="-8.7090283"><ele>459.0</ele><time>2026-04-17T12:17:57.912Z</time></trkpt><trkpt lat="42.6328617" lon="-8.70884"><ele>462.0</ele><time>2026-04-17T12:17:58.911Z</time></trkpt><trkpt lat="42.6329117" lon="-8.708655"><ele>465.0</ele><time>2026-04-17T12:17:59.912Z</time></trkpt><trkpt lat="42.632985" lon="-8.7084717"><ele>468.0</ele><time>2026-04-17T12:18:00.911Z</time></trkpt><trkpt lat="42.6330833" lon="-8.7082867"><ele>470.66666666666663</ele><time>2026-04-17T12:18:01.912Z</time></trkpt><trkpt lat="42.6331933" lon="-8.7081033"><ele>473.3333333333333</ele><time>2026-04-17T12:18:02.911Z</time></trkpt><trkpt lat="42.6333" lon="-8.7079217"><ele>476.0</ele><time>2026-04-17T12:18:03.912Z</time></trkpt><trkpt lat="42.6333967" lon="-8.7077367"><ele>478.0</ele><time>2026-04-17T12:18:04.911Z</time></trkpt><trkpt lat="42.6334833" lon="-8.70755"><ele>480.0</ele><time>2026-04-17T12:18:05.912Z</time></trkpt><trkpt lat="42.6335617" lon="-8.7073783"><ele>482.0</ele><time>2026-04-17T12:18:06.912Z</time></trkpt><trkpt lat="42.6336317" lon="-8.70721"><ele>481.0</ele><time>2026-04-17T12:18:07.912Z</time></trkpt><trkpt lat="42.6336917" lon="-8.7070417"><ele>480.0</ele><time>2026-04-17T12:18:08.912Z</time></trkpt><trkpt lat="42.6337433" lon="-8.7068817"><ele>479.0</ele><time>2026-04-17T12:18:09.912Z</time></trkpt><trkpt lat="42.633785" lon="-8.7067333"><ele>478.0</ele><time>2026-04-17T12:18:10.912Z</time></trkpt><trkpt lat="42.6338183" lon="-8.7066183"><ele>478.00000000000006</ele><time>2026-04-17T12:18:11.911Z</time></trkpt><trkpt lat="42.6338467" lon="-8.706525"><ele>478.0</ele><time>2026-04-17T12:18:12.912Z</time></trkpt><trkpt lat="42.6338967" lon="-8.7064167"><ele>478.0</ele><time>2026-04-17T12:18:14.912Z</time></trkpt><trkpt lat="42.6339417" lon="-8.7063533"><ele>478.0</ele><time>2026-04-17T12:18:15.911Z</time></trkpt><trkpt lat="42.633995" lon="-8.7062617"><ele>478.00000000000006</ele><time>2026-04-17T12:18:16.912Z</time></trkpt><trkpt lat="42.634055" lon="-8.706135"><ele>478.0</ele><time>2026-04-17T12:18:17.912Z</time></trkpt><trkpt lat="42.63412" lon="-8.7059517"><ele>481.6666666666667</ele><time>2026-04-17T12:18:18.911Z</time></trkpt><trkpt lat="42.6341833" lon="-8.7057517"><ele>485.33333333333337</ele><time>2026-04-17T12:18:19.912Z</time></trkpt><trkpt lat="42.6342583" lon="-8.7055383"><ele>489.0</ele><time>2026-04-17T12:18:20.912Z</time></trkpt><trkpt lat="42.6343433" lon="-8.705325"><ele>487.0</ele><time>2026-04-17T12:18:21.911Z</time></trkpt><trkpt lat="42.634445" lon="-8.705125"><ele>485.0</ele><time>2026-04-17T12:18:22.912Z</time></trkpt><trkpt lat="42.6345517" lon="-8.7049367"><ele>483.0</ele><time>2026-04-17T12:18:23.912Z</time></trkpt><trkpt lat="42.6346717" lon="-8.7047533"><ele>483.0</ele><time>2026-04-17T12:18:24.911Z</time></trkpt><trkpt lat="42.6348017" lon="-8.70457"><ele>483.0</ele><time>2026-04-17T12:18:25.911Z</time></trkpt><trkpt lat="42.6349367" lon="-8.7043667"><ele>483.0</ele><time>2026-04-17T12:18:26.911Z</time></trkpt><trkpt lat="42.6350783" lon="-8.7041367"><ele>478.5</ele><time>2026-04-17T12:18:27.912Z</time></trkpt><trkpt lat="42.63522" lon="-8.7038933"><ele>474.0</ele><time>2026-04-17T12:18:28.911Z</time></trkpt><trkpt lat="42.6353533" lon="-8.7036383"><ele>478.5</ele><time>2026-04-17T12:18:29.911Z</time></trkpt><trkpt lat="42.6354767" lon="-8.70338"><ele>483.0</ele><time>2026-04-17T12:18:30.912Z</time></trkpt><trkpt lat="42.6355917" lon="-8.70312"><ele>483.0</ele><time>2026-04-17T12:18:31.912Z</time></trkpt><trkpt lat="42.635695" lon="-8.7028617"><ele>483.0</ele><time>2026-04-17T12:18:32.911Z</time></trkpt><trkpt lat="42.6357833" lon="-8.702615"><ele>483.0</ele><time>2026-04-17T12:18:33.911Z</time></trkpt><trkpt lat="42.6358567" lon="-8.7023783"><ele>487.33333333333337</ele><time>2026-04-17T12:18:34.911Z</time></trkpt><trkpt lat="42.63592" lon="-8.7021417"><ele>491.6666666666667</ele><time>2026-04-17T12:18:35.912Z</time></trkpt><trkpt lat="42.6359683" lon="-8.70192"><ele>496.0</ele><time>2026-04-17T12:18:36.912Z</time></trkpt><trkpt lat="42.636" lon="-8.7017283"><ele>496.0</ele><time>2026-04-17T12:18:37.911Z</time></trkpt><trkpt lat="42.6360067" lon="-8.7015583"><ele>496.0</ele><time>2026-04-17T12:18:38.912Z</time></trkpt><trkpt lat="42.6359783" lon="-8.701405"><ele>496.0</ele><time>2026-04-17T12:18:39.911Z</time></trkpt><trkpt lat="42.6359183" lon="-8.7012483"><ele>496.0</ele><time>2026-04-17T12:18:40.911Z</time></trkpt><trkpt lat="42.6358283" lon="-8.7010783"><ele>496.0</ele><time>2026-04-17T12:18:41.912Z</time></trkpt><trkpt lat="42.6357267" lon="-8.700905"><ele>496.0</ele><time>2026-04-17T12:18:42.912Z</time></trkpt><trkpt lat="42.6356467" lon="-8.700735"><ele>496.0</ele><time>2026-04-17T12:18:43.911Z</time></trkpt><trkpt lat="42.635595" lon="-8.7005733"><ele>496.0</ele><time>2026-04-17T12:18:44.912Z</time></trkpt><trkpt lat="42.63558" lon="-8.70042"><ele>496.0</ele><time>2026-04-17T12:18:45.911Z</time></trkpt><trkpt lat="42.6356033" lon="-8.7002583"><ele>496.0</ele><time>2026-04-17T12:18:46.912Z</time></trkpt><trkpt lat="42.6356583" lon="-8.70008"><ele>496.0</ele><time>2026-04-17T12:18:47.912Z</time></trkpt><trkpt lat="42.6357333" lon="-8.699895"><ele>496.0</ele><time>2026-04-17T12:18:48.911Z</time></trkpt><trkpt lat="42.6358167" lon="-8.6997267"><ele>495.5</ele><time>2026-04-17T12:18:49.912Z</time></trkpt><trkpt lat="42.6359117" lon="-8.699585"><ele>495.0</ele><time>2026-04-17T12:18:50.911Z</time></trkpt><trkpt lat="42.6360217" lon="-8.6994633"><ele>494.5</ele><time>2026-04-17T12:18:51.911Z</time></trkpt><trkpt lat="42.6361583" lon="-8.699365"><ele>494.0</ele><time>2026-04-17T12:18:52.911Z</time></trkpt><trkpt lat="42.6363217" lon="-8.6992833"><ele>489.0</ele><time>2026-04-17T12:18:53.912Z</time></trkpt><trkpt lat="42.6365083" lon="-8.6992033"><ele>484.0</ele><time>2026-04-17T12:18:54.911Z</time></trkpt><trkpt lat="42.6367017" lon="-8.699115"><ele>479.0</ele><time>2026-04-17T12:18:55.911Z</time></trkpt><trkpt lat="42.636885" lon="-8.699015"><ele>475.3333333333333</ele><time>2026-04-17T12:18:56.912Z</time></trkpt><trkpt lat="42.6370533" lon="-8.6989"><ele>471.66666666666663</ele><time>2026-04-17T12:18:57.912Z</time></trkpt><trkpt lat="42.6372117" lon="-8.6987583"><ele>468.0</ele><time>2026-04-17T12:18:58.911Z</time></trkpt><trkpt lat="42.6373683" lon="-8.69859"><ele>470.0</ele><time>2026-04-17T12:18:59.911Z</time></trkpt><trkpt lat="42.6375217" lon="-8.698425"><ele>472.0</ele><time>2026-04-17T12:19:00.911Z</time></trkpt><trkpt lat="42.6376767" lon="-8.698285"><ele>474.0</ele><time>2026-04-17T12:19:01.911Z</time></trkpt><trkpt lat="42.637845" lon="-8.698175"><ele>474.0</ele><time>2026-04-17T12:19:02.912Z</time></trkpt><trkpt lat="42.6380267" lon="-8.698095"><ele>474.0</ele><time>2026-04-17T12:19:03.911Z</time></trkpt><trkpt lat="42.6382067" lon="-8.698035"><ele>474.0</ele><time>2026-04-17T12:19:04.912Z</time></trkpt><trkpt lat="42.6383617" lon="-8.69797"><ele>474.0</ele><time>2026-04-17T12:19:05.911Z</time></trkpt><trkpt lat="42.6384917" lon="-8.6978883"><ele>474.0</ele><time>2026-04-17T12:19:06.912Z</time></trkpt><trkpt lat="42.6386" lon="-8.69777"><ele>474.0</ele><time>2026-04-17T12:19:07.912Z</time></trkpt><trkpt lat="42.6386933" lon="-8.6976183"><ele>474.0</ele><time>2026-04-17T12:19:08.911Z</time></trkpt><trkpt lat="42.6387783" lon="-8.697435"><ele>473.0</ele><time>2026-04-17T12:19:09.911Z</time></trkpt><trkpt lat="42.6388617" lon="-8.697225"><ele>472.0</ele><time>2026-04-17T12:19:10.912Z</time></trkpt><trkpt lat="42.6389467" lon="-8.6969917"><ele>471.0</ele><time>2026-04-17T12:19:11.912Z</time></trkpt><trkpt lat="42.6390367" lon="-8.6967317"><ele>474.66666666666663</ele><time>2026-04-17T12:19:12.911Z</time></trkpt><trkpt lat="42.6391233" lon="-8.6964583"><ele>478.3333333333333</ele><time>2026-04-17T12:19:13.911Z</time></trkpt><trkpt lat="42.6391967" lon="-8.6961983"><ele>482.0</ele><time>2026-04-17T12:19:14.911Z</time></trkpt><trkpt lat="42.6392483" lon="-8.6959717"><ele>483.3333333333333</ele><time>2026-04-17T12:19:15.911Z</time></trkpt><trkpt lat="42.6392817" lon="-8.6957617"><ele>484.66666666666663</ele><time>2026-04-17T12:19:16.911Z</time></trkpt><trkpt lat="42.63929" lon="-8.6955333"><ele>486.0</ele><time>2026-04-17T12:19:17.911Z</time></trkpt><trkpt lat="42.6392717" lon="-8.695285"><ele>485.0</ele><time>2026-04-17T12:19:18.912Z</time></trkpt><trkpt lat="42.6392383" lon="-8.6950217"><ele>484.0</ele><time>2026-04-17T12:19:19.912Z</time></trkpt><trkpt lat="42.639215" lon="-8.6947683"><ele>483.0</ele><time>2026-04-17T12:19:20.912Z</time></trkpt><trkpt lat="42.6392" lon="-8.6945183"><ele>482.33333333333337</ele><time>2026-04-17T12:19:21.912Z</time></trkpt><trkpt lat="42.639195" lon="-8.6942633"><ele>481.6666666666667</ele><time>2026-04-17T12:19:22.911Z</time></trkpt><trkpt lat="42.6392117" lon="-8.693995"><ele>481.0</ele><time>2026-04-17T12:19:23.912Z</time></trkpt><trkpt lat="42.639255" lon="-8.69373"><ele>483.0</ele><time>2026-04-17T12:19:24.912Z</time></trkpt><trkpt lat="42.6393083" lon="-8.6934867"><ele>485.0</ele><time>2026-04-17T12:19:25.911Z</time></trkpt><trkpt lat="42.6393483" lon="-8.69326"><ele>487.0</ele><time>2026-04-17T12:19:26.911Z</time></trkpt><trkpt lat="42.639375" lon="-8.6930333"><ele>487.0</ele><time>2026-04-17T12:19:27.911Z</time></trkpt><trkpt lat="42.63938" lon="-8.6927917"><ele>487.0</ele><time>2026-04-17T12:19:28.911Z</time></trkpt><trkpt lat="42.639375" lon="-8.6925317"><ele>487.0</ele><time>2026-04-17T12:19:29.911Z</time></trkpt><trkpt lat="42.63936" lon="-8.6922667"><ele>486.6666666666667</ele><time>2026-04-17T12:19:30.911Z</time></trkpt><trkpt lat="42.63933" lon="-8.6920183"><ele>486.33333333333337</ele><time>2026-04-17T12:19:31.911Z</time></trkpt><trkpt lat="42.6392933" lon="-8.6917917"><ele>486.0</ele><time>2026-04-17T12:19:32.912Z</time></trkpt><trkpt lat="42.6392633" lon="-8.69158"><ele>486.75</ele><time>2026-04-17T12:19:33.912Z</time></trkpt><trkpt lat="42.6392467" lon="-8.6913883"><ele>487.5</ele><time>2026-04-17T12:19:34.912Z</time></trkpt><trkpt lat="42.6392483" lon="-8.6912133"><ele>488.25</ele><time>2026-04-17T12:19:35.911Z</time></trkpt><trkpt lat="42.6392717" lon="-8.6910433"><ele>489.0</ele><time>2026-04-17T12:19:36.911Z</time></trkpt><trkpt lat="42.639305" lon="-8.6908733"><ele>491.0</ele><time>2026-04-17T12:19:37.911Z</time></trkpt><trkpt lat="42.6393367" lon="-8.6907117"><ele>493.0</ele><time>2026-04-17T12:19:38.911Z</time></trkpt><trkpt lat="42.639345" lon="-8.6905567"><ele>495.0</ele><time>2026-04-17T12:19:39.911Z</time></trkpt><trkpt lat="42.6393233" lon="-8.6903983"><ele>497.0</ele><time>2026-04-17T12:19:40.911Z</time></trkpt><trkpt lat="42.6392767" lon="-8.690255"><ele>498.75</ele><time>2026-04-17T12:19:41.912Z</time></trkpt><trkpt lat="42.6392117" lon="-8.690135"><ele>500.5</ele><time>2026-04-17T12:19:42.911Z</time></trkpt><trkpt lat="42.6391283" lon="-8.6900267"><ele>502.25</ele><time>2026-04-17T12:19:43.912Z</time></trkpt><trkpt lat="42.6390233" lon="-8.68993"><ele>504.0</ele><time>2026-04-17T12:19:44.912Z</time></trkpt><trkpt lat="42.638895" lon="-8.6898333"><ele>504.0</ele><time>2026-04-17T12:19:45.912Z</time></trkpt><trkpt lat="42.6387483" lon="-8.6897383"><ele>504.0</ele><time>2026-04-17T12:19:46.912Z</time></trkpt><trkpt lat="42.6386017" lon="-8.6896483"><ele>504.0</ele><time>2026-04-17T12:19:47.911Z</time></trkpt><trkpt lat="42.6384667" lon="-8.6895783"><ele>507.0</ele><time>2026-04-17T12:19:48.912Z</time></trkpt><trkpt lat="42.6383383" lon="-8.6895333"><ele>510.0</ele><time>2026-04-17T12:19:49.912Z</time></trkpt><trkpt lat="42.6382183" lon="-8.68952"><ele>513.0</ele><time>2026-04-17T12:19:50.912Z</time></trkpt><trkpt lat="42.6381183" lon="-8.6895367"><ele>516.0</ele><time>2026-04-17T12:19:51.911Z</time></trkpt><trkpt lat="42.6380283" lon="-8.689585"><ele>516.0</ele><time>2026-04-17T12:19:52.912Z</time></trkpt><trkpt lat="42.637935" lon="-8.6896717"><ele>516.0</ele><time>2026-04-17T12:19:53.911Z</time></trkpt><trkpt lat="42.637855" lon="-8.689775"><ele>516.0</ele><time>2026-04-17T12:19:54.911Z</time></trkpt><trkpt lat="42.63779" lon="-8.6898833"><ele>516.0</ele><time>2026-04-17T12:19:55.911Z</time></trkpt><trkpt lat="42.6377333" lon="-8.690005"><ele>516.0</ele><time>2026-04-17T12:19:56.911Z</time></trkpt><trkpt lat="42.6376867" lon="-8.6901283"><ele>517.3333333333334</ele><time>2026-04-17T12:19:57.912Z</time></trkpt><trkpt lat="42.6376517" lon="-8.6902267"><ele>518.6666666666666</ele><time>2026-04-17T12:19:58.912Z</time></trkpt><trkpt lat="42.6376167" lon="-8.6903417"><ele>520.0</ele><time>2026-04-17T12:20:00.911Z</time></trkpt><trkpt lat="42.6375967" lon="-8.6904283"><ele>521.3333333333333</ele><time>2026-04-17T12:20:02.912Z</time></trkpt><trkpt lat="42.6376" lon="-8.690585"><ele>522.6666666666666</ele><time>2026-04-17T12:20:04.911Z</time></trkpt><trkpt lat="42.6376067" lon="-8.69071"><ele>524.0</ele><time>2026-04-17T12:20:05.911Z</time></trkpt><trkpt lat="42.637615" lon="-8.6908733"><ele>526.3333333333333</ele><time>2026-04-17T12:20:06.912Z</time></trkpt><trkpt lat="42.63762" lon="-8.6910667"><ele>528.6666666666666</ele><time>2026-04-17T12:20:07.911Z</time></trkpt><trkpt lat="42.63762" lon="-8.691285"><ele>531.0</ele><time>2026-04-17T12:20:08.911Z</time></trkpt><trkpt lat="42.6376217" lon="-8.6915267"><ele>532.0</ele><time>2026-04-17T12:20:09.912Z</time></trkpt><trkpt lat="42.6376283" lon="-8.691775"><ele>533.0</ele><time>2026-04-17T12:20:10.911Z</time></trkpt><trkpt lat="42.63763" lon="-8.69202"><ele>534.0</ele><time>2026-04-17T12:20:11.912Z</time></trkpt><trkpt lat="42.6376317" lon="-8.6922433"><ele>535.3333333333334</ele><time>2026-04-17T12:20:12.912Z</time></trkpt><trkpt lat="42.63764" lon="-8.6924567"><ele>536.6666666666667</ele><time>2026-04-17T12:20:13.912Z</time></trkpt><trkpt lat="42.6376533" lon="-8.692685"><ele>538.0</ele><time>2026-04-17T12:20:14.911Z</time></trkpt><trkpt lat="42.6376717" lon="-8.6929283"><ele>539.0</ele><time>2026-04-17T12:20:15.911Z</time></trkpt><trkpt lat="42.6376967" lon="-8.6931817"><ele>540.0</ele><time>2026-04-17T12:20:16.912Z</time></trkpt><trkpt lat="42.6377183" lon="-8.69343"><ele>541.0</ele><time>2026-04-17T12:20:17.911Z</time></trkpt><trkpt lat="42.6377367" lon="-8.6936683"><ele>541.0</ele><time>2026-04-17T12:20:18.911Z</time></trkpt><trkpt lat="42.63774" lon="-8.6939017"><ele>541.0</ele><time>2026-04-17T12:20:19.911Z</time></trkpt><trkpt lat="42.63773" lon="-8.694145"><ele>541.0</ele><time>2026-04-17T12:20:20.911Z</time></trkpt><trkpt lat="42.6377167" lon="-8.6943867"><ele>540.6666666666667</ele><time>2026-04-17T12:20:21.911Z</time></trkpt><trkpt lat="42.6377033" lon="-8.694625"><ele>540.3333333333334</ele><time>2026-04-17T12:20:22.912Z</time></trkpt><trkpt lat="42.6376883" lon="-8.6948567"><ele>540.0</ele><time>2026-04-17T12:20:23.911Z</time></trkpt><trkpt lat="42.6376667" lon="-8.6950667"><ele>540.0</ele><time>2026-04-17T12:20:24.911Z</time></trkpt><trkpt lat="42.637625" lon="-8.6952533"><ele>540.0</ele><time>2026-04-17T12:20:25.911Z</time></trkpt><trkpt lat="42.63756" lon="-8.6954233"><ele>540.0</ele><time>2026-04-17T12:20:26.911Z</time></trkpt><trkpt lat="42.6374733" lon="-8.695575"><ele>540.0</ele><time>2026-04-17T12:20:27.911Z</time></trkpt><trkpt lat="42.637365" lon="-8.6957133"><ele>539.3333333333334</ele><time>2026-04-17T12:20:28.912Z</time></trkpt><trkpt lat="42.63724" lon="-8.6958367"><ele>538.6666666666667</ele><time>2026-04-17T12:20:29.912Z</time></trkpt><trkpt lat="42.6371017" lon="-8.6959567"><ele>538.0</ele><time>2026-04-17T12:20:30.912Z</time></trkpt><trkpt lat="42.636965" lon="-8.69609"><ele>538.0</ele><time>2026-04-17T12:20:31.911Z</time></trkpt><trkpt lat="42.6368383" lon="-8.6962433"><ele>538.0</ele><time>2026-04-17T12:20:32.911Z</time></trkpt><trkpt lat="42.63672" lon="-8.6964233"><ele>538.0</ele><time>2026-04-17T12:20:33.911Z</time></trkpt><trkpt lat="42.6366033" lon="-8.6966267"><ele>538.0</ele><time>2026-04-17T12:20:34.912Z</time></trkpt><trkpt lat="42.6364883" lon="-8.69683"><ele>538.0</ele><time>2026-04-17T12:20:35.912Z</time></trkpt><trkpt lat="42.6363683" lon="-8.69702"><ele>538.0</ele><time>2026-04-17T12:20:36.911Z</time></trkpt><trkpt lat="42.6362367" lon="-8.6972033"><ele>538.6666666666667</ele><time>2026-04-17T12:20:37.911Z</time></trkpt><trkpt lat="42.636085" lon="-8.69738"><ele>539.3333333333334</ele><time>2026-04-17T12:20:38.911Z</time></trkpt><trkpt lat="42.6359133" lon="-8.6975483"><ele>540.0</ele><time>2026-04-17T12:20:39.912Z</time></trkpt><trkpt lat="42.635745" lon="-8.6977067"><ele>542.0</ele><time>2026-04-17T12:20:40.911Z</time></trkpt><trkpt lat="42.63558" lon="-8.6978583"><ele>544.0</ele><time>2026-04-17T12:20:41.912Z</time></trkpt><trkpt lat="42.6354167" lon="-8.6979983"><ele>546.0</ele><time>2026-04-17T12:20:42.912Z</time></trkpt><trkpt lat="42.6352633" lon="-8.698125"><ele>546.0</ele><time>2026-04-17T12:20:43.911Z</time></trkpt><trkpt lat="42.6351267" lon="-8.6982467"><ele>546.0</ele><time>2026-04-17T12:20:44.911Z</time></trkpt><trkpt lat="42.635015" lon="-8.6983783"><ele>546.0</ele><time>2026-04-17T12:20:45.911Z</time></trkpt><trkpt lat="42.6349283" lon="-8.6985317"><ele>540.3333333333334</ele><time>2026-04-17T12:20:46.911Z</time></trkpt><trkpt lat="42.634865" lon="-8.6987183"><ele>534.6666666666667</ele><time>2026-04-17T12:20:47.911Z</time></trkpt><trkpt lat="42.6348167" lon="-8.6989267"><ele>529.0</ele><time>2026-04-17T12:20:48.912Z</time></trkpt><trkpt lat="42.6347633" lon="-8.6991433"><ele>529.0</ele><time>2026-04-17T12:20:49.912Z</time></trkpt><trkpt lat="42.63469" lon="-8.6993583"><ele>529.0</ele><time>2026-04-17T12:20:50.911Z</time></trkpt><trkpt lat="42.6346067" lon="-8.6995567"><ele>529.0</ele><time>2026-04-17T12:20:51.912Z</time></trkpt><trkpt lat="42.634525" lon="-8.6997317"><ele>535.25</ele><time>2026-04-17T12:20:52.912Z</time></trkpt><trkpt lat="42.634465" lon="-8.6998883"><ele>541.5</ele><time>2026-04-17T12:20:53.912Z</time></trkpt><trkpt lat="42.63443" lon="-8.700045"><ele>547.75</ele><time>2026-04-17T12:20:54.911Z</time></trkpt><trkpt lat="42.6344217" lon="-8.700215"><ele>554.0</ele><time>2026-04-17T12:20:55.911Z</time></trkpt><trkpt lat="42.634445" lon="-8.7003917"><ele>542.6666666666666</ele><time>2026-04-17T12:20:56.912Z</time></trkpt><trkpt lat="42.6344917" lon="-8.70058"><ele>531.3333333333334</ele><time>2026-04-17T12:20:57.911Z</time></trkpt><trkpt lat="42.6345383" lon="-8.7007767"><ele>520.0</ele><time>2026-04-17T12:20:58.911Z</time></trkpt><trkpt lat="42.634565" lon="-8.7009817"><ele>521.3333333333334</ele><time>2026-04-17T12:20:59.912Z</time></trkpt><trkpt lat="42.6345667" lon="-8.701185"><ele>522.6666666666666</ele><time>2026-04-17T12:21:00.912Z</time></trkpt><trkpt lat="42.634545" lon="-8.7013883"><ele>524.0</ele><time>2026-04-17T12:21:01.912Z</time></trkpt><trkpt lat="42.6345033" lon="-8.7016033"><ele>529.6666666666666</ele><time>2026-04-17T12:21:02.912Z</time></trkpt><trkpt lat="42.6344417" lon="-8.7018183"><ele>535.3333333333334</ele><time>2026-04-17T12:21:03.911Z</time></trkpt><trkpt lat="42.6343633" lon="-8.7020283"><ele>541.0</ele><time>2026-04-17T12:21:04.911Z</time></trkpt><trkpt lat="42.634265" lon="-8.7022283"><ele>541.0</ele><time>2026-04-17T12:21:05.912Z</time></trkpt><trkpt lat="42.6341583" lon="-8.7024133"><ele>541.0</ele><time>2026-04-17T12:21:06.912Z</time></trkpt><trkpt lat="42.6340567" lon="-8.7025767"><ele>541.0</ele><time>2026-04-17T12:21:07.912Z</time></trkpt><trkpt lat="42.6339617" lon="-8.7027133"><ele>541.75</ele><time>2026-04-17T12:21:08.912Z</time></trkpt><trkpt lat="42.6338683" lon="-8.7028217"><ele>542.5</ele><time>2026-04-17T12:21:09.912Z</time></trkpt><trkpt lat="42.6337733" lon="-8.70292"><ele>543.25</ele><time>2026-04-17T12:21:10.912Z</time></trkpt><trkpt lat="42.633665" lon="-8.7030117"><ele>544.0</ele><time>2026-04-17T12:21:11.911Z</time></trkpt><trkpt lat="42.6335467" lon="-8.7031017"><ele>544.0</ele><time>2026-04-17T12:21:12.911Z</time></trkpt><trkpt lat="42.6334183" lon="-8.70319"><ele>544.0</ele><time>2026-04-17T12:21:13.912Z</time></trkpt><trkpt lat="42.6332783" lon="-8.7032733"><ele>544.0</ele><time>2026-04-17T12:21:14.912Z</time></trkpt><trkpt lat="42.6331317" lon="-8.7033383"><ele>544.0</ele><time>2026-04-17T12:21:15.911Z</time></trkpt><trkpt lat="42.6329767" lon="-8.7033783"><ele>544.0</ele><time>2026-04-17T12:21:16.911Z</time></trkpt><trkpt lat="42.632815" lon="-8.7033917"><ele>544.0</ele><time>2026-04-17T12:21:17.911Z</time></trkpt><trkpt lat="42.6326483" lon="-8.7033833"><ele>545.6666666666667</ele><time>2026-04-17T12:21:18.911Z</time></trkpt><trkpt lat="42.6324883" lon="-8.7033617"><ele>547.3333333333334</ele><time>2026-04-17T12:21:19.912Z</time></trkpt><trkpt lat="42.6323417" lon="-8.7033333"><ele>549.0</ele><time>2026-04-17T12:21:20.911Z</time></trkpt><trkpt lat="42.6322" lon="-8.703305"><ele>549.0</ele><time>2026-04-17T12:21:21.912Z</time></trkpt><trkpt lat="42.632055" lon="-8.7032817"><ele>549.0</ele><time>2026-04-17T12:21:22.912Z</time></trkpt><trkpt lat="42.6319067" lon="-8.703245"><ele>549.0</ele><time>2026-04-17T12:21:23.912Z</time></trkpt><trkpt lat="42.6317617" lon="-8.7031767"><ele>546.6666666666666</ele><time>2026-04-17T12:21:24.911Z</time></trkpt><trkpt lat="42.6316117" lon="-8.70308"><ele>544.3333333333333</ele><time>2026-04-17T12:21:25.911Z</time></trkpt><trkpt lat="42.6314517" lon="-8.7029567"><ele>542.0</ele><time>2026-04-17T12:21:26.912Z</time></trkpt><trkpt lat="42.6312783" lon="-8.7028183"><ele>545.6666666666666</ele><time>2026-04-17T12:21:27.912Z</time></trkpt><trkpt lat="42.6311" lon="-8.7026783"><ele>549.3333333333334</ele><time>2026-04-17T12:21:28.912Z</time></trkpt><trkpt lat="42.630925" lon="-8.7025433"><ele>553.0</ele><time>2026-04-17T12:21:29.912Z</time></trkpt><trkpt lat="42.630765" lon="-8.702415"><ele>553.0</ele><time>2026-04-17T12:21:30.911Z</time></trkpt><trkpt lat="42.6306183" lon="-8.7022967"><ele>553.0</ele><time>2026-04-17T12:21:31.911Z</time></trkpt><trkpt lat="42.63048" lon="-8.7021933"><ele>553.0</ele><time>2026-04-17T12:21:32.911Z</time></trkpt><trkpt lat="42.6303433" lon="-8.7021167"><ele>552.0</ele><time>2026-04-17T12:21:33.912Z</time></trkpt><trkpt lat="42.6302033" lon="-8.7020583"><ele>551.0</ele><time>2026-04-17T12:21:34.911Z</time></trkpt><trkpt lat="42.6300667" lon="-8.702005"><ele>550.0</ele><time>2026-04-17T12:21:35.911Z</time></trkpt><trkpt lat="42.6299367" lon="-8.7019367"><ele>549.0</ele><time>2026-04-17T12:21:36.912Z</time></trkpt><trkpt lat="42.6298183" lon="-8.70184"><ele>550.25</ele><time>2026-04-17T12:21:37.912Z</time></trkpt><trkpt lat="42.62971" lon="-8.7017167"><ele>551.5</ele><time>2026-04-17T12:21:38.911Z</time></trkpt><trkpt lat="42.6296167" lon="-8.70157"><ele>552.75</ele><time>2026-04-17T12:21:39.911Z</time></trkpt><trkpt lat="42.6295367" lon="-8.7014"><ele>554.0</ele><time>2026-04-17T12:21:40.912Z</time></trkpt><trkpt lat="42.6294683" lon="-8.701215"><ele>553.3333333333333</ele><time>2026-04-17T12:21:41.912Z</time></trkpt><trkpt lat="42.6294083" lon="-8.7010167"><ele>552.6666666666666</ele><time>2026-04-17T12:21:42.911Z</time></trkpt><trkpt lat="42.6293583" lon="-8.7007967"><ele>552.0</ele><time>2026-04-17T12:21:43.911Z</time></trkpt><trkpt lat="42.6293167" lon="-8.7005583"><ele>552.0</ele><time>2026-04-17T12:21:44.911Z</time></trkpt><trkpt lat="42.6292833" lon="-8.7003"><ele>552.0</ele><time>2026-04-17T12:21:45.912Z</time></trkpt><trkpt lat="42.62926" lon="-8.70003"><ele>552.0</ele><time>2026-04-17T12:21:46.912Z</time></trkpt><trkpt lat="42.6292367" lon="-8.6997533"><ele>552.3333333333334</ele><time>2026-04-17T12:21:47.911Z</time></trkpt><trkpt lat="42.62921" lon="-8.6994733"><ele>552.6666666666667</ele><time>2026-04-17T12:21:48.912Z</time></trkpt><trkpt lat="42.6291867" lon="-8.6991867"><ele>553.0</ele><time>2026-04-17T12:21:49.912Z</time></trkpt><trkpt lat="42.6291667" lon="-8.698885"><ele>553.6666666666667</ele><time>2026-04-17T12:21:50.912Z</time></trkpt><trkpt lat="42.6291483" lon="-8.69859"><ele>554.3333333333334</ele><time>2026-04-17T12:21:51.911Z</time></trkpt><trkpt lat="42.6291317" lon="-8.6983117"><ele>555.0</ele><time>2026-04-17T12:21:52.912Z</time></trkpt><trkpt lat="42.6291117" lon="-8.6980533"><ele>556.0</ele><time>2026-04-17T12:21:53.911Z</time></trkpt><trkpt lat="42.6290867" lon="-8.6978133"><ele>557.0</ele><time>2026-04-17T12:21:54.912Z</time></trkpt><trkpt lat="42.6290533" lon="-8.6976133"><ele>558.0</ele><time>2026-04-17T12:21:55.912Z</time></trkpt><trkpt lat="42.6290067" lon="-8.6974567"><ele>558.75</ele><time>2026-04-17T12:21:56.911Z</time></trkpt><trkpt lat="42.6289383" lon="-8.6973267"><ele>559.5</ele><time>2026-04-17T12:21:57.912Z</time></trkpt><trkpt lat="42.6288417" lon="-8.69721"><ele>560.25</ele><time>2026-04-17T12:21:58.911Z</time></trkpt><trkpt lat="42.6287267" lon="-8.69711"><ele>561.0</ele><time>2026-04-17T12:21:59.911Z</time></trkpt><trkpt lat="42.6286" lon="-8.6970183"><ele>558.25</ele><time>2026-04-17T12:22:00.912Z</time></trkpt><trkpt lat="42.6284733" lon="-8.69692"><ele>555.5</ele><time>2026-04-17T12:22:01.912Z</time></trkpt><trkpt lat="42.6283633" lon="-8.6968083"><ele>552.75</ele><time>2026-04-17T12:22:02.911Z</time></trkpt><trkpt lat="42.62827" lon="-8.696675"><ele>550.0</ele><time>2026-04-17T12:22:03.912Z</time></trkpt><trkpt lat="42.6281833" lon="-8.6965183"><ele>550.0</ele><time>2026-04-17T12:22:04.912Z</time></trkpt><trkpt lat="42.6281" lon="-8.6963433"><ele>550.0</ele><time>2026-04-17T12:22:05.912Z</time></trkpt><trkpt lat="42.628015" lon="-8.6961633"><ele>550.0</ele><time>2026-04-17T12:22:06.912Z</time></trkpt><trkpt lat="42.6279283" lon="-8.695985"><ele>549.25</ele><time>2026-04-17T12:22:07.911Z</time></trkpt><trkpt lat="42.6278433" lon="-8.6958117"><ele>548.5</ele><time>2026-04-17T12:22:08.911Z</time></trkpt><trkpt lat="42.6277633" lon="-8.6956433"><ele>547.75</ele><time>2026-04-17T12:22:09.911Z</time></trkpt><trkpt lat="42.6276883" lon="-8.69548"><ele>547.0</ele><time>2026-04-17T12:22:10.912Z</time></trkpt><trkpt lat="42.6276167" lon="-8.6953167"><ele>543.0</ele><time>2026-04-17T12:22:11.911Z</time></trkpt><trkpt lat="42.62755" lon="-8.6951617"><ele>539.0</ele><time>2026-04-17T12:22:12.912Z</time></trkpt><trkpt lat="42.6274867" lon="-8.69502"><ele>535.0</ele><time>2026-04-17T12:22:13.911Z</time></trkpt><trkpt lat="42.627425" lon="-8.69489"><ele>531.0</ele><time>2026-04-17T12:22:14.912Z</time></trkpt><trkpt lat="42.6273583" lon="-8.694775"><ele>531.0</ele><time>2026-04-17T12:22:15.912Z</time></trkpt><trkpt lat="42.62729" lon="-8.6946817"><ele>531.0</ele><time>2026-04-17T12:22:16.911Z</time></trkpt><trkpt lat="42.6272167" lon="-8.6946067"><ele>531.0</ele><time>2026-04-17T12:22:17.911Z</time></trkpt><trkpt lat="42.6271367" lon="-8.6945483"><ele>531.0</ele><time>2026-04-17T12:22:18.912Z</time></trkpt><trkpt lat="42.627045" lon="-8.6945133"><ele>531.0</ele><time>2026-04-17T12:22:19.911Z</time></trkpt><trkpt lat="42.6269517" lon="-8.6945133"><ele>526.5</ele><time>2026-04-17T12:22:20.912Z</time></trkpt><trkpt lat="42.6268517" lon="-8.694555"><ele>522.0</ele><time>2026-04-17T12:22:21.911Z</time></trkpt><trkpt lat="42.6267567" lon="-8.6946383"><ele>517.5</ele><time>2026-04-17T12:22:22.912Z</time></trkpt><trkpt lat="42.6266783" lon="-8.694755"><ele>513.0</ele><time>2026-04-17T12:22:23.911Z</time></trkpt><trkpt lat="42.6266167" lon="-8.6949033"><ele>513.0</ele><time>2026-04-17T12:22:24.911Z</time></trkpt><trkpt lat="42.6265617" lon="-8.6950767"><ele>513.0</ele><time>2026-04-17T12:22:25.911Z</time></trkpt><trkpt lat="42.6265083" lon="-8.6952467"><ele>513.0</ele><time>2026-04-17T12:22:26.911Z</time></trkpt><trkpt lat="42.6264583" lon="-8.6954033"><ele>513.0</ele><time>2026-04-17T12:22:27.912Z</time></trkpt><trkpt lat="42.6264133" lon="-8.69556"><ele>513.25</ele><time>2026-04-17T12:22:28.912Z</time></trkpt><trkpt lat="42.626385" lon="-8.69572"><ele>513.5</ele><time>2026-04-17T12:22:29.911Z</time></trkpt><trkpt lat="42.6263717" lon="-8.6958967"><ele>513.75</ele><time>2026-04-17T12:22:30.911Z</time></trkpt><trkpt lat="42.6263717" lon="-8.6960883"><ele>514.0</ele><time>2026-04-17T12:22:31.912Z</time></trkpt><trkpt lat="42.6263817" lon="-8.69628"><ele>512.0</ele><time>2026-04-17T12:22:32.911Z</time></trkpt><trkpt lat="42.626395" lon="-8.6964533"><ele>510.0</ele><time>2026-04-17T12:22:33.911Z</time></trkpt><trkpt lat="42.6264167" lon="-8.6966033"><ele>508.0</ele><time>2026-04-17T12:22:34.911Z</time></trkpt><trkpt lat="42.6264367" lon="-8.6967317"><ele>506.0</ele><time>2026-04-17T12:22:35.911Z</time></trkpt><trkpt lat="42.6264583" lon="-8.69684"><ele>504.0</ele><time>2026-04-17T12:22:36.912Z</time></trkpt><trkpt lat="42.6264767" lon="-8.6969367"><ele>504.0</ele><time>2026-04-17T12:22:37.911Z</time></trkpt><trkpt lat="42.62649" lon="-8.6970233"><ele>504.0</ele><time>2026-04-17T12:22:38.912Z</time></trkpt><trkpt lat="42.6264267" lon="-8.6970567"><ele>504.0</ele><time>2026-04-17T12:22:42.912Z</time></trkpt><trkpt lat="42.62637" lon="-8.6970033"><ele>504.0</ele><time>2026-04-17T12:22:43.911Z</time></trkpt><trkpt lat="42.62628" lon="-8.6969167"><ele>504.0</ele><time>2026-04-17T12:22:44.912Z</time></trkpt><trkpt lat="42.6261933" lon="-8.69682"><ele>504.0</ele><time>2026-04-17T12:22:45.911Z</time></trkpt><trkpt lat="42.6261217" lon="-8.6967117"><ele>497.0</ele><time>2026-04-17T12:22:46.912Z</time></trkpt><trkpt lat="42.6260517" lon="-8.6965867"><ele>490.0</ele><time>2026-04-17T12:22:47.912Z</time></trkpt><trkpt lat="42.625985" lon="-8.6964533"><ele>483.0</ele><time>2026-04-17T12:22:48.912Z</time></trkpt><trkpt lat="42.6259217" lon="-8.6963267"><ele>476.0</ele><time>2026-04-17T12:22:49.912Z</time></trkpt><trkpt lat="42.6258567" lon="-8.6962083"><ele>475.99999999999994</ele><time>2026-04-17T12:22:50.911Z</time></trkpt><trkpt lat="42.6257967" lon="-8.6961"><ele>476.0</ele><time>2026-04-17T12:22:51.912Z</time></trkpt><trkpt lat="42.6257417" lon="-8.696"><ele>476.0</ele><time>2026-04-17T12:22:52.912Z</time></trkpt><trkpt lat="42.62569" lon="-8.6959033"><ele>476.0</ele><time>2026-04-17T12:22:53.911Z</time></trkpt><trkpt lat="42.6256433" lon="-8.695805"><ele>475.99999999999994</ele><time>2026-04-17T12:22:54.911Z</time></trkpt><trkpt lat="42.6256033" lon="-8.6957067"><ele>476.0</ele><time>2026-04-17T12:22:55.911Z</time></trkpt><trkpt lat="42.6255667" lon="-8.695595"><ele>477.0</ele><time>2026-04-17T12:22:56.912Z</time></trkpt><trkpt lat="42.6255367" lon="-8.6954717"><ele>478.0</ele><time>2026-04-17T12:22:57.912Z</time></trkpt><trkpt lat="42.62551" lon="-8.69535"><ele>479.0</ele><time>2026-04-17T12:22:58.911Z</time></trkpt><trkpt lat="42.6254833" lon="-8.6952333"><ele>480.0</ele><time>2026-04-17T12:22:59.911Z</time></trkpt><trkpt lat="42.625455" lon="-8.6951167"><ele>481.0</ele><time>2026-04-17T12:23:00.911Z</time></trkpt><trkpt lat="42.625425" lon="-8.6950083"><ele>481.00000000000006</ele><time>2026-04-17T12:23:01.911Z</time></trkpt><trkpt lat="42.6254" lon="-8.69491"><ele>481.0</ele><time>2026-04-17T12:23:02.911Z</time></trkpt><trkpt lat="42.62538" lon="-8.6948067"><ele>481.0</ele><time>2026-04-17T12:23:03.911Z</time></trkpt><trkpt lat="42.625365" lon="-8.6946883"><ele>481.0</ele><time>2026-04-17T12:23:04.911Z</time></trkpt><trkpt lat="42.6253483" lon="-8.6945583"><ele>481.00000000000006</ele><time>2026-04-17T12:23:05.912Z</time></trkpt><trkpt lat="42.62533" lon="-8.6944217"><ele>481.0</ele><time>2026-04-17T12:23:06.911Z</time></trkpt><trkpt lat="42.62531" lon="-8.6942733"><ele>475.6</ele><time>2026-04-17T12:23:07.911Z</time></trkpt><trkpt lat="42.6252967" lon="-8.6941167"><ele>470.20000000000005</ele><time>2026-04-17T12:23:08.912Z</time></trkpt><trkpt lat="42.6252817" lon="-8.6939667"><ele>464.79999999999995</ele><time>2026-04-17T12:23:09.912Z</time></trkpt><trkpt lat="42.6252567" lon="-8.693835"><ele>459.4</ele><time>2026-04-17T12:23:10.911Z</time></trkpt><trkpt lat="42.6252233" lon="-8.6937267"><ele>454.0</ele><time>2026-04-17T12:23:11.912Z</time></trkpt><trkpt lat="42.6251933" lon="-8.6936383"><ele>454.2</ele><time>2026-04-17T12:23:12.912Z</time></trkpt><trkpt lat="42.6251933" lon="-8.6934783"><ele>454.4</ele><time>2026-04-17T12:23:14.911Z</time></trkpt><trkpt lat="42.6252467" lon="-8.6933967"><ele>454.6</ele><time>2026-04-17T12:23:15.911Z</time></trkpt><trkpt lat="42.625325" lon="-8.6933"><ele>454.8</ele><time>2026-04-17T12:23:16.911Z</time></trkpt><trkpt lat="42.6254267" lon="-8.6931933"><ele>455.0</ele><time>2026-04-17T12:23:17.912Z</time></trkpt><trkpt lat="42.6255317" lon="-8.6930717"><ele>453.0</ele><time>2026-04-17T12:23:18.912Z</time></trkpt><trkpt lat="42.6256433" lon="-8.692945"><ele>451.0</ele><time>2026-04-17T12:23:19.912Z</time></trkpt><trkpt lat="42.625765" lon="-8.6928217"><ele>449.0</ele><time>2026-04-17T12:23:20.912Z</time></trkpt><trkpt lat="42.6258917" lon="-8.692695"><ele>449.0</ele><time>2026-04-17T12:23:21.911Z</time></trkpt><trkpt lat="42.6260217" lon="-8.6925683"><ele>449.0</ele><time>2026-04-17T12:23:22.911Z</time></trkpt><trkpt lat="42.6261533" lon="-8.6924417"><ele>449.0</ele><time>2026-04-17T12:23:23.911Z</time></trkpt><trkpt lat="42.626285" lon="-8.6923217"><ele>451.5</ele><time>2026-04-17T12:23:24.911Z</time></trkpt><trkpt lat="42.6264133" lon="-8.692215"><ele>454.0</ele><time>2026-04-17T12:23:25.911Z</time></trkpt><trkpt lat="42.626535" lon="-8.6921167"><ele>456.5</ele><time>2026-04-17T12:23:26.911Z</time></trkpt><trkpt lat="42.6266517" lon="-8.69203"><ele>459.0</ele><time>2026-04-17T12:23:27.912Z</time></trkpt><trkpt lat="42.6267733" lon="-8.6919633"><ele>456.5</ele><time>2026-04-17T12:23:28.911Z</time></trkpt><trkpt lat="42.6269067" lon="-8.69192"><ele>454.0</ele><time>2026-04-17T12:23:29.912Z</time></trkpt><trkpt lat="42.6270467" lon="-8.6918933"><ele>451.5</ele><time>2026-04-17T12:23:30.911Z</time></trkpt><trkpt lat="42.6271883" lon="-8.6918717"><ele>449.0</ele><time>2026-04-17T12:23:31.911Z</time></trkpt><trkpt lat="42.6273267" lon="-8.6918417"><ele>449.0</ele><time>2026-04-17T12:23:32.911Z</time></trkpt><trkpt lat="42.6274533" lon="-8.6917833"><ele>449.0</ele><time>2026-04-17T12:23:33.912Z</time></trkpt><trkpt lat="42.627565" lon="-8.6916983"><ele>449.0</ele><time>2026-04-17T12:23:34.912Z</time></trkpt><trkpt lat="42.6276717" lon="-8.691595"><ele>449.0</ele><time>2026-04-17T12:23:35.911Z</time></trkpt><trkpt lat="42.627775" lon="-8.6914817"><ele>452.0</ele><time>2026-04-17T12:23:36.911Z</time></trkpt><trkpt lat="42.6278833" lon="-8.691355"><ele>455.0</ele><time>2026-04-17T12:23:37.912Z</time></trkpt><trkpt lat="42.62801" lon="-8.6912267"><ele>458.0</ele><time>2026-04-17T12:23:38.912Z</time></trkpt><trkpt lat="42.628145" lon="-8.6911017"><ele>452.66666666666663</ele><time>2026-04-17T12:23:39.911Z</time></trkpt><trkpt lat="42.6282717" lon="-8.6909783"><ele>447.33333333333337</ele><time>2026-04-17T12:23:40.911Z</time></trkpt><trkpt lat="42.6283933" lon="-8.6908383"><ele>442.0</ele><time>2026-04-17T12:23:41.911Z</time></trkpt><trkpt lat="42.62851" lon="-8.6906833"><ele>442.0</ele><time>2026-04-17T12:23:42.912Z</time></trkpt><trkpt lat="42.62862" lon="-8.690535"><ele>442.0</ele><time>2026-04-17T12:23:43.912Z</time></trkpt><trkpt lat="42.6287217" lon="-8.6904083"><ele>442.0</ele><time>2026-04-17T12:23:44.911Z</time></trkpt><trkpt lat="42.6288167" lon="-8.6903183"><ele>442.0</ele><time>2026-04-17T12:23:45.912Z</time></trkpt><trkpt lat="42.62891" lon="-8.6902717"><ele>442.5</ele><time>2026-04-17T12:23:46.912Z</time></trkpt><trkpt lat="42.6290083" lon="-8.69026"><ele>443.0</ele><time>2026-04-17T12:23:47.911Z</time></trkpt><trkpt lat="42.6291183" lon="-8.6902817"><ele>443.5</ele><time>2026-04-17T12:23:48.911Z</time></trkpt><trkpt lat="42.629245" lon="-8.690335"><ele>444.0</ele><time>2026-04-17T12:23:49.911Z</time></trkpt><trkpt lat="42.6293683" lon="-8.6904117"><ele>444.0</ele><time>2026-04-17T12:23:50.911Z</time></trkpt><trkpt lat="42.6294717" lon="-8.6904883"><ele>444.0</ele><time>2026-04-17T12:23:51.912Z</time></trkpt><trkpt lat="42.6295467" lon="-8.6905417"><ele>444.0</ele><time>2026-04-17T12:23:52.911Z</time></trkpt><trkpt lat="42.62965" lon="-8.6905517"><ele>444.0</ele><time>2026-04-17T12:23:54.912Z</time></trkpt><trkpt lat="42.6296783" lon="-8.69047"><ele>444.0</ele><time>2026-04-17T12:23:55.911Z</time></trkpt><trkpt lat="42.6297017" lon="-8.690345"><ele>442.5</ele><time>2026-04-17T12:23:56.912Z</time></trkpt><trkpt lat="42.6297283" lon="-8.6901833"><ele>441.0</ele><time>2026-04-17T12:23:57.912Z</time></trkpt><trkpt lat="42.6297583" lon="-8.6900067"><ele>439.5</ele><time>2026-04-17T12:23:58.912Z</time></trkpt><trkpt lat="42.6297967" lon="-8.6898383"><ele>438.0</ele><time>2026-04-17T12:23:59.911Z</time></trkpt><trkpt lat="42.62984" lon="-8.689685"><ele>438.0</ele><time>2026-04-17T12:24:00.912Z</time></trkpt><trkpt lat="42.6298917" lon="-8.68954"><ele>437.99999999999994</ele><time>2026-04-17T12:24:01.911Z</time></trkpt><trkpt lat="42.6299433" lon="-8.6894083"><ele>437.99999999999994</ele><time>2026-04-17T12:24:02.912Z</time></trkpt><trkpt lat="42.63" lon="-8.6892917"><ele>438.0</ele><time>2026-04-17T12:24:03.912Z</time></trkpt><trkpt lat="42.6300683" lon="-8.6892017"><ele>438.0</ele><time>2026-04-17T12:24:04.911Z</time></trkpt><trkpt lat="42.6301483" lon="-8.68913"><ele>438.5</ele><time>2026-04-17T12:24:05.911Z</time></trkpt><trkpt lat="42.6302233" lon="-8.68907"><ele>439.0</ele><time>2026-04-17T12:24:06.912Z</time></trkpt><trkpt lat="42.6302833" lon="-8.6890133"><ele>439.5</ele><time>2026-04-17T12:24:07.911Z</time></trkpt><trkpt lat="42.6303217" lon="-8.6889333"><ele>440.0</ele><time>2026-04-17T12:24:08.912Z</time></trkpt><trkpt lat="42.6303367" lon="-8.68882"><ele>440.5</ele><time>2026-04-17T12:24:09.912Z</time></trkpt><trkpt lat="42.6303317" lon="-8.6886867"><ele>441.0</ele><time>2026-04-17T12:24:10.911Z</time></trkpt><trkpt lat="42.6303267" lon="-8.688565"><ele>438.3333333333333</ele><time>2026-04-17T12:24:11.912Z</time></trkpt><trkpt lat="42.630325" lon="-8.6884583"><ele>435.66666666666663</ele><time>2026-04-17T12:24:12.912Z</time></trkpt><trkpt lat="42.6303233" lon="-8.6883683"><ele>433.0</ele><time>2026-04-17T12:24:13.912Z</time></trkpt><trkpt lat="42.6303233" lon="-8.6882733"><ele>430.3333333333333</ele><time>2026-04-17T12:24:14.911Z</time></trkpt><trkpt lat="42.6303333" lon="-8.68816"><ele>427.66666666666663</ele><time>2026-04-17T12:24:15.911Z</time></trkpt><trkpt lat="42.6303567" lon="-8.6880167"><ele>425.0</ele><time>2026-04-17T12:24:16.911Z</time></trkpt><trkpt lat="42.6303867" lon="-8.68788"><ele>425.0</ele><time>2026-04-17T12:24:17.912Z</time></trkpt><trkpt lat="42.6304233" lon="-8.6877617"><ele>425.0</ele><time>2026-04-17T12:24:18.912Z</time></trkpt><trkpt lat="42.6304767" lon="-8.6876583"><ele>425.0</ele><time>2026-04-17T12:24:19.912Z</time></trkpt><trkpt lat="42.630545" lon="-8.6875567"><ele>425.0</ele><time>2026-04-17T12:24:20.912Z</time></trkpt><trkpt lat="42.6306217" lon="-8.6874433"><ele>425.0</ele><time>2026-04-17T12:24:21.911Z</time></trkpt><trkpt lat="42.6306983" lon="-8.687325"><ele>422.2</ele><time>2026-04-17T12:24:22.911Z</time></trkpt><trkpt lat="42.63077" lon="-8.6872167"><ele>419.4</ele><time>2026-04-17T12:24:23.912Z</time></trkpt><trkpt lat="42.6308417" lon="-8.6871283"><ele>416.6</ele><time>2026-04-17T12:24:24.911Z</time></trkpt><trkpt lat="42.63093" lon="-8.687055"><ele>413.8</ele><time>2026-04-17T12:24:25.911Z</time></trkpt><trkpt lat="42.63104" lon="-8.686995"><ele>411.0</ele><time>2026-04-17T12:24:26.911Z</time></trkpt><trkpt lat="42.6311617" lon="-8.6869317"><ele>409.20000000000005</ele><time>2026-04-17T12:24:27.912Z</time></trkpt><trkpt lat="42.6312683" lon="-8.6868633"><ele>407.40000000000003</ele><time>2026-04-17T12:24:28.912Z</time></trkpt><trkpt lat="42.6313417" lon="-8.6867967"><ele>405.6</ele><time>2026-04-17T12:24:29.912Z</time></trkpt><trkpt lat="42.6313867" lon="-8.6867367"><ele>403.8</ele><time>2026-04-17T12:24:30.912Z</time></trkpt><trkpt lat="42.6314117" lon="-8.6865617"><ele>402.0</ele><time>2026-04-17T12:24:32.912Z</time></trkpt><trkpt lat="42.63138" lon="-8.6864267"><ele>402.0</ele><time>2026-04-17T12:24:33.912Z</time></trkpt><trkpt lat="42.6313567" lon="-8.6862767"><ele>402.0</ele><time>2026-04-17T12:24:34.912Z</time></trkpt><trkpt lat="42.631345" lon="-8.6861467"><ele>402.0</ele><time>2026-04-17T12:24:35.912Z</time></trkpt><trkpt lat="42.6313317" lon="-8.6860533"><ele>402.0</ele><time>2026-04-17T12:24:36.912Z</time></trkpt><trkpt lat="42.6314183" lon="-8.6860533"><ele>402.0</ele><time>2026-04-17T12:24:46.911Z</time></trkpt><trkpt lat="42.6315367" lon="-8.6860583"><ele>400.8</ele><time>2026-04-17T12:24:48.912Z</time></trkpt><trkpt lat="42.6316183" lon="-8.6860367"><ele>399.6</ele><time>2026-04-17T12:24:49.911Z</time></trkpt><trkpt lat="42.6317133" lon="-8.6859983"><ele>398.40000000000003</ele><time>2026-04-17T12:24:50.911Z</time></trkpt><trkpt lat="42.6318167" lon="-8.6859533"><ele>397.20000000000005</ele><time>2026-04-17T12:24:51.912Z</time></trkpt><trkpt lat="42.631935" lon="-8.6859133"><ele>396.0</ele><time>2026-04-17T12:24:52.911Z</time></trkpt><trkpt lat="42.632065" lon="-8.6858867"><ele>399.0</ele><time>2026-04-17T12:24:53.911Z</time></trkpt><trkpt lat="42.632205" lon="-8.6858633"><ele>402.0</ele><time>2026-04-17T12:24:54.912Z</time></trkpt><trkpt lat="42.632335" lon="-8.68583"><ele>405.0</ele><time>2026-04-17T12:24:55.912Z</time></trkpt><trkpt lat="42.6324417" lon="-8.6857783"><ele>408.0</ele><time>2026-04-17T12:24:56.912Z</time></trkpt><trkpt lat="42.632525" lon="-8.6857"><ele>408.0</ele><time>2026-04-17T12:24:57.911Z</time></trkpt><trkpt lat="42.63259" lon="-8.6855783"><ele>408.0</ele><time>2026-04-17T12:24:58.911Z</time></trkpt><trkpt lat="42.63265" lon="-8.6854133"><ele>408.0</ele><time>2026-04-17T12:24:59.912Z</time></trkpt><trkpt lat="42.632715" lon="-8.6852117"><ele>408.0</ele><time>2026-04-17T12:25:00.911Z</time></trkpt><trkpt lat="42.6327917" lon="-8.68499"><ele>411.33333333333337</ele><time>2026-04-17T12:25:01.912Z</time></trkpt><trkpt lat="42.632865" lon="-8.68475"><ele>414.6666666666667</ele><time>2026-04-17T12:25:02.911Z</time></trkpt><trkpt lat="42.6329233" lon="-8.684525"><ele>418.0</ele><time>2026-04-17T12:25:03.912Z</time></trkpt><trkpt lat="42.63298" lon="-8.6843433"><ele>418.0</ele><time>2026-04-17T12:25:04.912Z</time></trkpt><trkpt lat="42.633045" lon="-8.68421"><ele>418.0</ele><time>2026-04-17T12:25:05.911Z</time></trkpt><trkpt lat="42.6331217" lon="-8.6841233"><ele>418.0</ele><time>2026-04-17T12:25:06.911Z</time></trkpt><trkpt lat="42.6332183" lon="-8.6840683"><ele>418.0</ele><time>2026-04-17T12:25:07.911Z</time></trkpt><trkpt lat="42.633335" lon="-8.6840317"><ele>418.0</ele><time>2026-04-17T12:25:08.912Z</time></trkpt><trkpt lat="42.6334717" lon="-8.684"><ele>418.0</ele><time>2026-04-17T12:25:09.912Z</time></trkpt><trkpt lat="42.63362" lon="-8.68399"><ele>418.0</ele><time>2026-04-17T12:25:10.911Z</time></trkpt><trkpt lat="42.6337733" lon="-8.6840067"><ele>418.0</ele><time>2026-04-17T12:25:11.912Z</time></trkpt><trkpt lat="42.6339433" lon="-8.6840233"><ele>421.6666666666667</ele><time>2026-04-17T12:25:12.912Z</time></trkpt><trkpt lat="42.6341317" lon="-8.68401"><ele>425.33333333333337</ele><time>2026-04-17T12:25:13.911Z</time></trkpt><trkpt lat="42.6343367" lon="-8.6839767"><ele>429.0</ele><time>2026-04-17T12:25:14.911Z</time></trkpt><trkpt lat="42.6345533" lon="-8.6839317"><ele>432.33333333333337</ele><time>2026-04-17T12:25:15.912Z</time></trkpt><trkpt lat="42.6347683" lon="-8.6838833"><ele>435.6666666666667</ele><time>2026-04-17T12:25:16.911Z</time></trkpt><trkpt lat="42.6349683" lon="-8.6838417"><ele>439.0</ele><time>2026-04-17T12:25:17.911Z</time></trkpt><trkpt lat="42.6351567" lon="-8.68381"><ele>440.6666666666667</ele><time>2026-04-17T12:25:18.912Z</time></trkpt><trkpt lat="42.6353383" lon="-8.6837833"><ele>442.33333333333337</ele><time>2026-04-17T12:25:19.912Z</time></trkpt><trkpt lat="42.6355133" lon="-8.68375"><ele>444.0</ele><time>2026-04-17T12:25:20.911Z</time></trkpt><trkpt lat="42.6356833" lon="-8.683715"><ele>444.0</ele><time>2026-04-17T12:25:21.911Z</time></trkpt><trkpt lat="42.6358483" lon="-8.6836783"><ele>444.0</ele><time>2026-04-17T12:25:22.911Z</time></trkpt><trkpt lat="42.636005" lon="-8.6836467"><ele>444.0</ele><time>2026-04-17T12:25:23.912Z</time></trkpt><trkpt lat="42.636145" lon="-8.6836267"><ele>443.0</ele><time>2026-04-17T12:25:24.912Z</time></trkpt><trkpt lat="42.636275" lon="-8.683625"><ele>442.0</ele><time>2026-04-17T12:25:25.912Z</time></trkpt><trkpt lat="42.6364017" lon="-8.6836467"><ele>441.0</ele><time>2026-04-17T12:25:26.911Z</time></trkpt><trkpt lat="42.6365167" lon="-8.6836933"><ele>440.0</ele><time>2026-04-17T12:25:27.912Z</time></trkpt><trkpt lat="42.6366117" lon="-8.6837417"><ele>440.0</ele><time>2026-04-17T12:25:28.912Z</time></trkpt><trkpt lat="42.6366867" lon="-8.6837483"><ele>440.0</ele><time>2026-04-17T12:25:29.911Z</time></trkpt><trkpt lat="42.6367583" lon="-8.683725"><ele>440.0</ele><time>2026-04-17T12:25:30.911Z</time></trkpt><trkpt lat="42.63685" lon="-8.683675"><ele>440.0</ele><time>2026-04-17T12:25:31.912Z</time></trkpt><trkpt lat="42.6369667" lon="-8.6836333"><ele>440.0</ele><time>2026-04-17T12:25:32.912Z</time></trkpt><trkpt lat="42.637105" lon="-8.683605"><ele>435.3333333333333</ele><time>2026-04-17T12:25:33.911Z</time></trkpt><trkpt lat="42.6372633" lon="-8.6835817"><ele>430.66666666666663</ele><time>2026-04-17T12:25:34.911Z</time></trkpt><trkpt lat="42.63743" lon="-8.6835567"><ele>426.0</ele><time>2026-04-17T12:25:35.911Z</time></trkpt><trkpt lat="42.6375867" lon="-8.6835333"><ele>426.0</ele><time>2026-04-17T12:25:36.912Z</time></trkpt><trkpt lat="42.6377467" lon="-8.6835167"><ele>426.0</ele><time>2026-04-17T12:25:37.911Z</time></trkpt><trkpt lat="42.6379117" lon="-8.6834983"><ele>426.0</ele><time>2026-04-17T12:25:38.911Z</time></trkpt><trkpt lat="42.6380883" lon="-8.6834833"><ele>425.33333333333337</ele><time>2026-04-17T12:25:39.912Z</time></trkpt><trkpt lat="42.6382717" lon="-8.6834683"><ele>424.6666666666667</ele><time>2026-04-17T12:25:40.911Z</time></trkpt><trkpt lat="42.6384617" lon="-8.683445"><ele>424.0</ele><time>2026-04-17T12:25:41.912Z</time></trkpt><trkpt lat="42.638655" lon="-8.6834067"><ele>426.0</ele><time>2026-04-17T12:25:42.912Z</time></trkpt><trkpt lat="42.6388433" lon="-8.683365"><ele>428.0</ele><time>2026-04-17T12:25:43.912Z</time></trkpt><trkpt lat="42.6390267" lon="-8.68333"><ele>430.0</ele><time>2026-04-17T12:25:44.911Z</time></trkpt><trkpt lat="42.6392067" lon="-8.6833"><ele>430.0</ele><time>2026-04-17T12:25:45.911Z</time></trkpt><trkpt lat="42.639385" lon="-8.6832667"><ele>430.0</ele><time>2026-04-17T12:25:46.912Z</time></trkpt><trkpt lat="42.639555" lon="-8.6832233"><ele>430.0</ele><time>2026-04-17T12:25:47.911Z</time></trkpt><trkpt lat="42.6349683" lon="-8.6838417"><ele>433.0</ele><time>2026-04-17T12:25:17.911Z</time></trkpt><trkpt lat="42.6351567" lon="-8.68381"><ele>436.0</ele><time>2026-04-17T12:25:18.912Z</time></trkpt><trkpt lat="42.6353383" lon="-8.6837833"><ele>439.0</ele><time>2026-04-17T12:25:19.912Z</time></trkpt><trkpt lat="42.6355133" lon="-8.68375"><ele>440.6666666666667</ele><time>2026-04-17T12:25:20.911Z</time></trkpt><trkpt lat="42.6356833" lon="-8.683715"><ele>442.33333333333337</ele><time>2026-04-17T12:25:21.911Z</time></trkpt><trkpt lat="42.6358483" lon="-8.6836783"><ele>444.0</ele><time>2026-04-17T12:25:22.911Z</time></trkpt><trkpt lat="42.636005" lon="-8.6836467"><ele>443.0</ele><time>2026-04-17T12:25:23.912Z</time></trkpt><trkpt lat="42.636145" lon="-8.6836267"><ele>442.0</ele><time>2026-04-17T12:25:24.912Z</time></trkpt><trkpt lat="42.636275" lon="-8.683625"><ele>441.0</ele><time>2026-04-17T12:25:25.912Z</time></trkpt><trkpt lat="42.6364017" lon="-8.6836467"><ele>440.0</ele><time>2026-04-17T12:25:26.911Z</time></trkpt><trkpt lat="42.6365167" lon="-8.6836933"><ele>440.0</ele><time>2026-04-17T12:25:27.912Z</time></trkpt><trkpt lat="42.6366117" lon="-8.6837417"><ele>440.0</ele><time>2026-04-17T12:25:28.912Z</time></trkpt><trkpt lat="42.6366867" lon="-8.6837483"><ele>440.0</ele><time>2026-04-17T12:25:29.911Z</time></trkpt><trkpt lat="42.6367583" lon="-8.683725"><ele>440.0</ele><time>2026-04-17T12:25:30.911Z</time></trkpt><trkpt lat="42.63685" lon="-8.683675"><ele>440.0</ele><time>2026-04-17T12:25:31.912Z</time></trkpt><trkpt lat="42.6369667" lon="-8.6836333"><ele>441.0</ele><time>2026-04-17T12:25:32.912Z</time></trkpt><trkpt lat="42.637105" lon="-8.683605"><ele>442.0</ele><time>2026-04-17T12:25:33.911Z</time></trkpt><trkpt lat="42.6372633" lon="-8.6835817"><ele>443.0</ele><time>2026-04-17T12:25:34.911Z</time></trkpt><trkpt lat="42.63743" lon="-8.6835567"><ele>437.3333333333333</ele><time>2026-04-17T12:25:35.911Z</time></trkpt><trkpt lat="42.6375867" lon="-8.6835333"><ele>431.66666666666663</ele><time>2026-04-17T12:25:36.912Z</time></trkpt><trkpt lat="42.6377467" lon="-8.6835167"><ele>426.0</ele><time>2026-04-17T12:25:37.911Z</time></trkpt><trkpt lat="42.6379117" lon="-8.6834983"><ele>425.33333333333337</ele><time>2026-04-17T12:25:38.911Z</time></trkpt><trkpt lat="42.6380883" lon="-8.6834833"><ele>424.6666666666667</ele><time>2026-04-17T12:25:39.912Z</time></trkpt><trkpt lat="42.6382717" lon="-8.6834683"><ele>424.0</ele><time>2026-04-17T12:25:40.911Z</time></trkpt><trkpt lat="42.6384617" lon="-8.683445"><ele>426.0</ele><time>2026-04-17T12:25:41.912Z</time></trkpt><trkpt lat="42.638655" lon="-8.6834067"><ele>428.0</ele><time>2026-04-17T12:25:42.912Z</time></trkpt><trkpt lat="42.6388433" lon="-8.683365"><ele>430.0</ele><time>2026-04-17T12:25:43.912Z</time></trkpt><trkpt lat="42.6390267" lon="-8.68333"><ele>430.0</ele><time>2026-04-17T12:25:44.911Z</time></trkpt><trkpt lat="42.6392067" lon="-8.6833"><ele>430.0</ele><time>2026-04-17T12:25:45.911Z</time></trkpt><trkpt lat="42.639385" lon="-8.6832667"><ele>430.0</ele><time>2026-04-17T12:25:46.912Z</time></trkpt><trkpt lat="42.639555" lon="-8.6832233"><ele>433.0</ele><time>2026-04-17T12:25:47.911Z</time></trkpt><trkpt lat="42.6397217" lon="-8.6831983"><ele>436.0</ele><time>2026-04-17T12:25:48.911Z</time></trkpt><trkpt lat="42.6398967" lon="-8.6831733"><ele>439.0</ele><time>2026-04-17T12:25:49.911Z</time></trkpt><trkpt lat="42.6400717" lon="-8.6831467"><ele>439.0</ele><time>2026-04-17T12:25:50.911Z</time></trkpt><trkpt lat="42.6402517" lon="-8.68312"><ele>439.0</ele><time>2026-04-17T12:25:51.912Z</time></trkpt><trkpt lat="42.64044" lon="-8.6830933"><ele>439.0</ele><time>2026-04-17T12:25:52.911Z</time></trkpt><trkpt lat="42.640625" lon="-8.6830633"><ele>439.75</ele><time>2026-04-17T12:25:53.911Z</time></trkpt><trkpt lat="42.64079" lon="-8.6830467"><ele>440.5</ele><time>2026-04-17T12:25:54.911Z</time></trkpt><trkpt lat="42.6409183" lon="-8.6830467"><ele>441.25</ele><time>2026-04-17T12:25:55.911Z</time></trkpt><trkpt lat="42.641" lon="-8.6830617"><ele>442.0</ele><time>2026-04-17T12:25:56.911Z</time></trkpt><trkpt lat="42.6410733" lon="-8.6831383"><ele>442.0</ele><time>2026-04-17T12:25:58.911Z</time></trkpt><trkpt lat="42.6410783" lon="-8.683235"><ele>442.00000000000006</ele><time>2026-04-17T12:25:59.912Z</time></trkpt><trkpt lat="42.6410817" lon="-8.6833633"><ele>442.00000000000006</ele><time>2026-04-17T12:26:00.911Z</time></trkpt><trkpt lat="42.6410867" lon="-8.6835217"><ele>442.0</ele><time>2026-04-17T12:26:01.911Z</time></trkpt><trkpt lat="42.6411" lon="-8.6836883"><ele>442.0</ele><time>2026-04-17T12:26:02.912Z</time></trkpt><trkpt lat="42.641125" lon="-8.683845"><ele>441.8</ele><time>2026-04-17T12:26:03.911Z</time></trkpt><trkpt lat="42.641165" lon="-8.6839883"><ele>441.6</ele><time>2026-04-17T12:26:04.911Z</time></trkpt><trkpt lat="42.6412133" lon="-8.68412"><ele>441.40000000000003</ele><time>2026-04-17T12:26:05.911Z</time></trkpt><trkpt lat="42.6412683" lon="-8.6842467"><ele>441.20000000000005</ele><time>2026-04-17T12:26:06.911Z</time></trkpt><trkpt lat="42.641315" lon="-8.6843683"><ele>441.0</ele><time>2026-04-17T12:26:07.912Z</time></trkpt><trkpt lat="42.6413483" lon="-8.684495"><ele>440.8</ele><time>2026-04-17T12:26:08.911Z</time></trkpt><trkpt lat="42.641345" lon="-8.6846233"><ele>440.6</ele><time>2026-04-17T12:26:09.912Z</time></trkpt><trkpt lat="42.641315" lon="-8.68475"><ele>440.4</ele><time>2026-04-17T12:26:10.911Z</time></trkpt><trkpt lat="42.64127" lon="-8.68489"><ele>440.2</ele><time>2026-04-17T12:26:11.911Z</time></trkpt><trkpt lat="42.6412167" lon="-8.685065"><ele>440.0</ele><time>2026-04-17T12:26:12.911Z</time></trkpt><trkpt lat="42.6411717" lon="-8.68526"><ele>437.66666666666663</ele><time>2026-04-17T12:26:13.912Z</time></trkpt><trkpt lat="42.641155" lon="-8.6854483"><ele>435.33333333333337</ele><time>2026-04-17T12:26:14.912Z</time></trkpt><trkpt lat="42.6411717" lon="-8.6856417"><ele>433.0</ele><time>2026-04-17T12:26:15.911Z</time></trkpt><trkpt lat="42.6412183" lon="-8.68587"><ele>432.6666666666667</ele><time>2026-04-17T12:26:16.912Z</time></trkpt><trkpt lat="42.6412783" lon="-8.686125"><ele>432.33333333333337</ele><time>2026-04-17T12:26:17.912Z</time></trkpt><trkpt lat="42.6413383" lon="-8.6864"><ele>432.0</ele><time>2026-04-17T12:26:18.912Z</time></trkpt><trkpt lat="42.64138" lon="-8.68667"><ele>432.0</ele><time>2026-04-17T12:26:19.911Z</time></trkpt><trkpt lat="42.6414183" lon="-8.6869167"><ele>432.0</ele><time>2026-04-17T12:26:20.912Z</time></trkpt><trkpt lat="42.6414717" lon="-8.6871317"><ele>432.0</ele><time>2026-04-17T12:26:21.911Z</time></trkpt><trkpt lat="42.64155" lon="-8.6873383"><ele>431.75</ele><time>2026-04-17T12:26:22.911Z</time></trkpt><trkpt lat="42.64163" lon="-8.6875267"><ele>431.5</ele><time>2026-04-17T12:26:23.911Z</time></trkpt><trkpt lat="42.6416967" lon="-8.6876917"><ele>431.25</ele><time>2026-04-17T12:26:24.912Z</time></trkpt><trkpt lat="42.6417483" lon="-8.687815"><ele>431.0</ele><time>2026-04-17T12:26:25.911Z</time></trkpt><trkpt lat="42.6417883" lon="-8.6878883"><ele>431.0</ele><time>2026-04-17T12:26:26.911Z</time></trkpt><trkpt lat="42.641865" lon="-8.6879183"><ele>431.0</ele><time>2026-04-17T12:26:28.911Z</time></trkpt><trkpt lat="42.6419117" lon="-8.6878067"><ele>431.0</ele><time>2026-04-17T12:26:30.912Z</time></trkpt><trkpt lat="42.641915" lon="-8.68769"><ele>431.0</ele><time>2026-04-17T12:26:31.911Z</time></trkpt><trkpt lat="42.64193" lon="-8.6875567"><ele>431.0</ele><time>2026-04-17T12:26:32.912Z</time></trkpt><trkpt lat="42.6419517" lon="-8.6873567"><ele>425.0</ele><time>2026-04-17T12:26:33.912Z</time></trkpt><trkpt lat="42.6420117" lon="-8.6870433"><ele>419.0</ele><time>2026-04-17T12:26:34.912Z</time></trkpt><trkpt lat="42.6420883" lon="-8.686825"><ele>413.0</ele><time>2026-04-17T12:26:35.911Z</time></trkpt><trkpt lat="42.6421767" lon="-8.6866167"><ele>413.0</ele><time>2026-04-17T12:26:36.912Z</time></trkpt><trkpt lat="42.6422817" lon="-8.68643"><ele>413.0</ele><time>2026-04-17T12:26:37.912Z</time></trkpt><trkpt lat="42.6423933" lon="-8.68626"><ele>413.0</ele><time>2026-04-17T12:26:38.911Z</time></trkpt><trkpt lat="42.6425033" lon="-8.686095"><ele>414.66666666666663</ele><time>2026-04-17T12:26:39.912Z</time></trkpt><trkpt lat="42.6426" lon="-8.6859233"><ele>416.33333333333337</ele><time>2026-04-17T12:26:40.911Z</time></trkpt><trkpt lat="42.6426883" lon="-8.68573"><ele>418.0</ele><time>2026-04-17T12:26:41.911Z</time></trkpt><trkpt lat="42.6427717" lon="-8.68553"><ele>414.5</ele><time>2026-04-17T12:26:42.911Z</time></trkpt><trkpt lat="42.64285" lon="-8.6853517"><ele>411.0</ele><time>2026-04-17T12:26:43.911Z</time></trkpt><trkpt lat="42.642925" lon="-8.6852167"><ele>407.5</ele><time>2026-04-17T12:26:44.911Z</time></trkpt><trkpt lat="42.6430117" lon="-8.685115"><ele>404.0</ele><time>2026-04-17T12:26:45.912Z</time></trkpt><trkpt lat="42.6431133" lon="-8.6850433"><ele>404.0</ele><time>2026-04-17T12:26:46.911Z</time></trkpt><trkpt lat="42.6432433" lon="-8.685005"><ele>404.0</ele><time>2026-04-17T12:26:47.911Z</time></trkpt><trkpt lat="42.6434" lon="-8.68498"><ele>404.0</ele><time>2026-04-17T12:26:48.912Z</time></trkpt><trkpt lat="42.64357" lon="-8.68495"><ele>399.66666666666663</ele><time>2026-04-17T12:26:49.912Z</time></trkpt><trkpt lat="42.643745" lon="-8.6849283"><ele>395.33333333333337</ele><time>2026-04-17T12:26:50.911Z</time></trkpt><trkpt lat="42.6439083" lon="-8.6849083"><ele>391.0</ele><time>2026-04-17T12:26:51.912Z</time></trkpt><trkpt lat="42.6440767" lon="-8.684875"><ele>391.0</ele><time>2026-04-17T12:26:52.912Z</time></trkpt><trkpt lat="42.6442433" lon="-8.684815"><ele>391.0</ele><time>2026-04-17T12:26:53.912Z</time></trkpt><trkpt lat="42.6444067" lon="-8.6847233"><ele>391.0</ele><time>2026-04-17T12:26:54.911Z</time></trkpt><trkpt lat="42.644565" lon="-8.6846017"><ele>388.33333333333337</ele><time>2026-04-17T12:26:55.912Z</time></trkpt><trkpt lat="42.644725" lon="-8.684455"><ele>385.6666666666667</ele><time>2026-04-17T12:26:56.911Z</time></trkpt><trkpt lat="42.64488" lon="-8.6842833"><ele>383.0</ele><time>2026-04-17T12:26:57.911Z</time></trkpt><trkpt lat="42.6450267" lon="-8.6841"><ele>383.0</ele><time>2026-04-17T12:26:58.911Z</time></trkpt><trkpt lat="42.6451583" lon="-8.6839183"><ele>383.0</ele><time>2026-04-17T12:26:59.911Z</time></trkpt><trkpt lat="42.6452717" lon="-8.68374"><ele>383.0</ele><time>2026-04-17T12:27:00.911Z</time></trkpt><trkpt lat="42.6453683" lon="-8.68355"><ele>380.33333333333337</ele><time>2026-04-17T12:27:01.912Z</time></trkpt><trkpt lat="42.645455" lon="-8.68333"><ele>377.6666666666667</ele><time>2026-04-17T12:27:02.911Z</time></trkpt><trkpt lat="42.6455367" lon="-8.68309"><ele>375.0</ele><time>2026-04-17T12:27:03.911Z</time></trkpt><trkpt lat="42.6456217" lon="-8.6828633"><ele>376.0</ele><time>2026-04-17T12:27:04.912Z</time></trkpt><trkpt lat="42.6457067" lon="-8.6826767"><ele>377.0</ele><time>2026-04-17T12:27:05.912Z</time></trkpt><trkpt lat="42.64578" lon="-8.6825483"><ele>378.0</ele><time>2026-04-17T12:27:06.911Z</time></trkpt><trkpt lat="42.645835" lon="-8.6824817"><ele>379.0</ele><time>2026-04-17T12:27:07.911Z</time></trkpt><trkpt lat="42.64592" lon="-8.6824817"><ele>380.0</ele><time>2026-04-17T12:27:09.911Z</time></trkpt><trkpt lat="42.64598" lon="-8.6826567"><ele>379.0</ele><time>2026-04-17T12:27:11.912Z</time></trkpt><trkpt lat="42.6459733" lon="-8.6828033"><ele>378.0</ele><time>2026-04-17T12:27:12.912Z</time></trkpt><trkpt lat="42.64594" lon="-8.68296"><ele>377.0</ele><time>2026-04-17T12:27:13.912Z</time></trkpt><trkpt lat="42.6458933" lon="-8.6831"><ele>376.0</ele><time>2026-04-17T12:27:14.912Z</time></trkpt><trkpt lat="42.6458617" lon="-8.6832183"><ele>375.0</ele><time>2026-04-17T12:27:15.912Z</time></trkpt><trkpt lat="42.642925" lon="-8.6852167"><ele>382.25</ele><time>2026-04-17T12:26:44.911Z</time></trkpt><trkpt lat="42.6430117" lon="-8.685115"><ele>389.5</ele><time>2026-04-17T12:26:45.912Z</time></trkpt><trkpt lat="42.6431133" lon="-8.6850433"><ele>396.75</ele><time>2026-04-17T12:26:46.911Z</time></trkpt><trkpt lat="42.6432433" lon="-8.685005"><ele>404.0</ele><time>2026-04-17T12:26:47.911Z</time></trkpt><trkpt lat="42.6434" lon="-8.68498"><ele>404.0</ele><time>2026-04-17T12:26:48.912Z</time></trkpt><trkpt lat="42.64357" lon="-8.68495"><ele>404.0</ele><time>2026-04-17T12:26:49.912Z</time></trkpt><trkpt lat="42.643745" lon="-8.6849283"><ele>404.0</ele><time>2026-04-17T12:26:50.911Z</time></trkpt><trkpt lat="42.6439083" lon="-8.6849083"><ele>399.66666666666663</ele><time>2026-04-17T12:26:51.912Z</time></trkpt><trkpt lat="42.6440767" lon="-8.684875"><ele>395.33333333333337</ele><time>2026-04-17T12:26:52.912Z</time></trkpt><trkpt lat="42.6442433" lon="-8.684815"><ele>391.0</ele><time>2026-04-17T12:26:53.912Z</time></trkpt><trkpt lat="42.6444067" lon="-8.6847233"><ele>388.33333333333337</ele><time>2026-04-17T12:26:54.911Z</time></trkpt><trkpt lat="42.644565" lon="-8.6846017"><ele>385.6666666666667</ele><time>2026-04-17T12:26:55.912Z</time></trkpt><trkpt lat="42.644725" lon="-8.684455"><ele>383.0</ele><time>2026-04-17T12:26:56.911Z</time></trkpt><trkpt lat="42.64488" lon="-8.6842833"><ele>383.0</ele><time>2026-04-17T12:26:57.911Z</time></trkpt><trkpt lat="42.6450267" lon="-8.6841"><ele>383.0</ele><time>2026-04-17T12:26:58.911Z</time></trkpt><trkpt lat="42.6451583" lon="-8.6839183"><ele>383.0</ele><time>2026-04-17T12:26:59.911Z</time></trkpt><trkpt lat="42.6452717" lon="-8.68374"><ele>380.33333333333337</ele><time>2026-04-17T12:27:00.911Z</time></trkpt><trkpt lat="42.6453683" lon="-8.68355"><ele>377.6666666666667</ele><time>2026-04-17T12:27:01.912Z</time></trkpt><trkpt lat="42.645455" lon="-8.68333"><ele>375.0</ele><time>2026-04-17T12:27:02.911Z</time></trkpt><trkpt lat="42.6455367" lon="-8.68309"><ele>375.0</ele><time>2026-04-17T12:27:03.911Z</time></trkpt><trkpt lat="42.6456217" lon="-8.6828633"><ele>375.0</ele><time>2026-04-17T12:27:04.912Z</time></trkpt><trkpt lat="42.6457067" lon="-8.6826767"><ele>375.0</ele><time>2026-04-17T12:27:05.912Z</time></trkpt><trkpt lat="42.64578" lon="-8.6825483"><ele>375.0</ele><time>2026-04-17T12:27:06.911Z</time></trkpt><trkpt lat="42.645835" lon="-8.6824817"><ele>375.0</ele><time>2026-04-17T12:27:07.911Z</time></trkpt><trkpt lat="42.64592" lon="-8.6824817"><ele>375.0</ele><time>2026-04-17T12:27:09.911Z</time></trkpt><trkpt lat="42.64598" lon="-8.6826567"><ele>375.0</ele><time>2026-04-17T12:27:11.912Z</time></trkpt><trkpt lat="42.6459733" lon="-8.6828033"><ele>375.0</ele><time>2026-04-17T12:27:12.912Z</time></trkpt><trkpt lat="42.64594" lon="-8.68296"><ele>375.0</ele><time>2026-04-17T12:27:13.912Z</time></trkpt><trkpt lat="42.6458933" lon="-8.6831"><ele>375.0</ele><time>2026-04-17T12:27:14.912Z</time></trkpt><trkpt lat="42.6458617" lon="-8.6832183"><ele>375.0</ele><time>2026-04-17T12:27:15.912Z</time></trkpt><trkpt lat="42.645845" lon="-8.6833183"><ele>375.0</ele><time>2026-04-17T12:27:16.911Z</time></trkpt><trkpt lat="42.6459367" lon="-8.6834033"><ele>375.0</ele><time>2026-04-17T12:27:18.912Z</time></trkpt><trkpt lat="42.6460417" lon="-8.68341"><ele>370.5</ele><time>2026-04-17T12:27:19.911Z</time></trkpt><trkpt lat="42.646165" lon="-8.683375"><ele>366.0</ele><time>2026-04-17T12:27:20.911Z</time></trkpt><trkpt lat="42.6462867" lon="-8.6832917"><ele>361.5</ele><time>2026-04-17T12:27:21.912Z</time></trkpt><trkpt lat="42.6463933" lon="-8.6831433"><ele>357.0</ele><time>2026-04-17T12:27:22.911Z</time></trkpt><trkpt lat="42.646465" lon="-8.6829683"><ele>357.0</ele><time>2026-04-17T12:27:23.912Z</time></trkpt><trkpt lat="42.646515" lon="-8.68277"><ele>357.0</ele><time>2026-04-17T12:27:24.911Z</time></trkpt><trkpt lat="42.6465567" lon="-8.68254"><ele>357.0</ele><time>2026-04-17T12:27:25.911Z</time></trkpt><trkpt lat="42.6465933" lon="-8.6822767"><ele>359.6666666666667</ele><time>2026-04-17T12:27:26.911Z</time></trkpt><trkpt lat="42.6466367" lon="-8.68201"><ele>362.33333333333337</ele><time>2026-04-17T12:27:27.912Z</time></trkpt><trkpt lat="42.6466783" lon="-8.6817683"><ele>365.0</ele><time>2026-04-17T12:27:28.912Z</time></trkpt><trkpt lat="42.6467333" lon="-8.68157"><ele>365.75</ele><time>2026-04-17T12:27:29.911Z</time></trkpt><trkpt lat="42.6468083" lon="-8.6814033"><ele>366.5</ele><time>2026-04-17T12:27:30.912Z</time></trkpt><trkpt lat="42.6469083" lon="-8.6812617"><ele>367.25</ele><time>2026-04-17T12:27:31.912Z</time></trkpt><trkpt lat="42.6470217" lon="-8.6811317"><ele>368.0</ele><time>2026-04-17T12:27:32.911Z</time></trkpt><trkpt lat="42.6471383" lon="-8.6810167"><ele>365.5</ele><time>2026-04-17T12:27:33.911Z</time></trkpt><trkpt lat="42.64725" lon="-8.680915"><ele>363.0</ele><time>2026-04-17T12:27:34.912Z</time></trkpt><trkpt lat="42.6473533" lon="-8.680815"><ele>360.5</ele><time>2026-04-17T12:27:35.912Z</time></trkpt><trkpt lat="42.6474417" lon="-8.6806933"><ele>358.0</ele><time>2026-04-17T12:27:36.912Z</time></trkpt><trkpt lat="42.647515" lon="-8.6805467"><ele>358.0</ele><time>2026-04-17T12:27:37.911Z</time></trkpt><trkpt lat="42.6475733" lon="-8.68037"><ele>358.0</ele><time>2026-04-17T12:27:38.911Z</time></trkpt><trkpt lat="42.647625" lon="-8.68017"><ele>358.0</ele><time>2026-04-17T12:27:39.911Z</time></trkpt><trkpt lat="42.6476783" lon="-8.6799467"><ele>358.0</ele><time>2026-04-17T12:27:40.912Z</time></trkpt><trkpt lat="42.6477283" lon="-8.6797217"><ele>358.0</ele><time>2026-04-17T12:27:41.912Z</time></trkpt><trkpt lat="42.647765" lon="-8.6795083"><ele>358.0</ele><time>2026-04-17T12:27:42.912Z</time></trkpt><trkpt lat="42.647795" lon="-8.6793167"><ele>355.59999999999997</ele><time>2026-04-17T12:27:43.912Z</time></trkpt><trkpt lat="42.6478217" lon="-8.6791667"><ele>353.2</ele><time>2026-04-17T12:27:44.911Z</time></trkpt><trkpt lat="42.6478667" lon="-8.6790517"><ele>350.8</ele><time>2026-04-17T12:27:45.912Z</time></trkpt><trkpt lat="42.647935" lon="-8.67898"><ele>348.4</ele><time>2026-04-17T12:27:46.912Z</time></trkpt><trkpt lat="42.6480233" lon="-8.6789517"><ele>346.0</ele><time>2026-04-17T12:27:47.912Z</time></trkpt><trkpt lat="42.648135" lon="-8.6789667"><ele>346.0</ele><time>2026-04-17T12:27:48.912Z</time></trkpt><trkpt lat="42.6482533" lon="-8.6790183"><ele>346.0</ele><time>2026-04-17T12:27:49.911Z</time></trkpt><trkpt lat="42.648365" lon="-8.6791017"><ele>346.0</ele><time>2026-04-17T12:27:50.911Z</time></trkpt><trkpt lat="42.6484833" lon="-8.6792133"><ele>346.0</ele><time>2026-04-17T12:27:51.911Z</time></trkpt><trkpt lat="42.6486083" lon="-8.6793183"><ele>342.8</ele><time>2026-04-17T12:27:52.911Z</time></trkpt><trkpt lat="42.6487267" lon="-8.679395"><ele>339.6</ele><time>2026-04-17T12:27:53.911Z</time></trkpt><trkpt lat="42.6488317" lon="-8.6794317"><ele>336.4</ele><time>2026-04-17T12:27:54.911Z</time></trkpt><trkpt lat="42.6489167" lon="-8.6794367"><ele>333.2</ele><time>2026-04-17T12:27:55.912Z</time></trkpt><trkpt lat="42.6489933" lon="-8.67941"><ele>330.0</ele><time>2026-04-17T12:27:56.911Z</time></trkpt><trkpt lat="42.6490617" lon="-8.6793483"><ele>329.0</ele><time>2026-04-17T12:27:57.912Z</time></trkpt><trkpt lat="42.6491067" lon="-8.6791783"><ele>328.0</ele><time>2026-04-17T12:27:58.912Z</time></trkpt><trkpt lat="42.64913" lon="-8.679"><ele>327.0</ele><time>2026-04-17T12:27:59.911Z</time></trkpt><trkpt lat="42.6491383" lon="-8.6788383"><ele>326.0</ele><time>2026-04-17T12:28:00.911Z</time></trkpt><trkpt lat="42.649125" lon="-8.678685"><ele>323.75</ele><time>2026-04-17T12:28:01.911Z</time></trkpt><trkpt lat="42.64907" lon="-8.6785517"><ele>321.5</ele><time>2026-04-17T12:28:02.912Z</time></trkpt><trkpt lat="42.6489733" lon="-8.678415"><ele>319.25</ele><time>2026-04-17T12:28:03.912Z</time></trkpt><trkpt lat="42.64884" lon="-8.6782583"><ele>317.0</ele><time>2026-04-17T12:28:04.911Z</time></trkpt><trkpt lat="42.6486717" lon="-8.6780817"><ele>317.5</ele><time>2026-04-17T12:28:05.912Z</time></trkpt><trkpt lat="42.648495" lon="-8.677895"><ele>318.0</ele><time>2026-04-17T12:28:06.912Z</time></trkpt><trkpt lat="42.6483083" lon="-8.6776917"><ele>318.0</ele><time>2026-04-17T12:28:07.911Z</time></trkpt><trkpt lat="42.64812" lon="-8.67751"><ele>318.0</ele><time>2026-04-17T12:28:08.911Z</time></trkpt><trkpt lat="42.6479417" lon="-8.6773617"><ele>318.0</ele><time>2026-04-17T12:28:09.912Z</time></trkpt><trkpt lat="42.6477783" lon="-8.6772433"><ele>318.5</ele><time>2026-04-17T12:28:10.912Z</time></trkpt><trkpt lat="42.6476367" lon="-8.67714"><ele>319.0</ele><time>2026-04-17T12:28:11.911Z</time></trkpt><trkpt lat="42.647525" lon="-8.6770267"><ele>319.5</ele><time>2026-04-17T12:28:12.911Z</time></trkpt><trkpt lat="42.6474283" lon="-8.67689"><ele>320.0</ele><time>2026-04-17T12:28:13.912Z</time></trkpt><trkpt lat="42.6473417" lon="-8.6767217"><ele>320.0</ele><time>2026-04-17T12:28:14.911Z</time></trkpt><trkpt lat="42.6472583" lon="-8.6765317"><ele>320.0</ele><time>2026-04-17T12:28:15.912Z</time></trkpt><trkpt lat="42.6471767" lon="-8.6763533"><ele>320.0</ele><time>2026-04-17T12:28:16.911Z</time></trkpt><trkpt lat="42.6470917" lon="-8.6762067"><ele>318.0</ele><time>2026-04-17T12:28:17.912Z</time></trkpt><trkpt lat="42.647" lon="-8.6760967"><ele>316.0</ele><time>2026-04-17T12:28:18.912Z</time></trkpt><trkpt lat="42.6469" lon="-8.67601"><ele>314.0</ele><time>2026-04-17T12:28:19.911Z</time></trkpt><trkpt lat="42.646805" lon="-8.675925"><ele>312.0</ele><time>2026-04-17T12:28:20.911Z</time></trkpt><trkpt lat="42.6467333" lon="-8.6758283"><ele>312.0</ele><time>2026-04-17T12:28:21.911Z</time></trkpt><trkpt lat="42.6466917" lon="-8.6757267"><ele>312.0</ele><time>2026-04-17T12:28:22.911Z</time></trkpt><trkpt lat="42.6466583" lon="-8.675635"><ele>312.0</ele><time>2026-04-17T12:28:23.911Z</time></trkpt><trkpt lat="42.6465833" lon="-8.6755183"><ele>312.0</ele><time>2026-04-17T12:28:25.911Z</time></trkpt><trkpt lat="42.6465283" lon="-8.6754717"><ele>312.0</ele><time>2026-04-17T12:28:26.912Z</time></trkpt><trkpt lat="42.6464633" lon="-8.67542"><ele>312.0</ele><time>2026-04-17T12:28:27.911Z</time></trkpt><trkpt lat="42.6464067" lon="-8.6753733"><ele>312.0</ele><time>2026-04-17T12:28:28.912Z</time></trkpt><trkpt lat="42.64631" lon="-8.67534"><ele>312.0</ele><time>2026-04-17T12:28:30.912Z</time></trkpt><trkpt lat="42.6462467" lon="-8.67535"><ele>312.0</ele><time>2026-04-17T12:28:32.911Z</time></trkpt><trkpt lat="42.647525" lon="-8.6770267"><ele>314.6666666666667</ele><time>2026-04-17T12:28:12.911Z</time></trkpt><trkpt lat="42.6474283" lon="-8.67689"><ele>317.33333333333337</ele><time>2026-04-17T12:28:13.912Z</time></trkpt><trkpt lat="42.6473417" lon="-8.6767217"><ele>320.0</ele><time>2026-04-17T12:28:14.911Z</time></trkpt><trkpt lat="42.6472583" lon="-8.6765317"><ele>320.0</ele><time>2026-04-17T12:28:15.912Z</time></trkpt><trkpt lat="42.6471767" lon="-8.6763533"><ele>320.0</ele><time>2026-04-17T12:28:16.911Z</time></trkpt><trkpt lat="42.6470917" lon="-8.6762067"><ele>320.0</ele><time>2026-04-17T12:28:17.912Z</time></trkpt><trkpt lat="42.647" lon="-8.6760967"><ele>320.0</ele><time>2026-04-17T12:28:18.912Z</time></trkpt><trkpt lat="42.6469" lon="-8.67601"><ele>318.4</ele><time>2026-04-17T12:28:19.911Z</time></trkpt><trkpt lat="42.646805" lon="-8.675925"><ele>316.8</ele><time>2026-04-17T12:28:20.911Z</time></trkpt><trkpt lat="42.6467333" lon="-8.6758283"><ele>315.2</ele><time>2026-04-17T12:28:21.911Z</time></trkpt><trkpt lat="42.6466917" lon="-8.6757267"><ele>313.6</ele><time>2026-04-17T12:28:22.911Z</time></trkpt><trkpt lat="42.6466583" lon="-8.675635"><ele>312.0</ele><time>2026-04-17T12:28:23.911Z</time></trkpt><trkpt lat="42.6465833" lon="-8.6755183"><ele>312.0</ele><time>2026-04-17T12:28:25.911Z</time></trkpt><trkpt lat="42.6465283" lon="-8.6754717"><ele>312.0</ele><time>2026-04-17T12:28:26.912Z</time></trkpt><trkpt lat="42.6464633" lon="-8.67542"><ele>312.0</ele><time>2026-04-17T12:28:27.911Z</time></trkpt><trkpt lat="42.6464067" lon="-8.6753733"><ele>312.0</ele><time>2026-04-17T12:28:28.912Z</time></trkpt><trkpt lat="42.64631" lon="-8.67534"><ele>312.0</ele><time>2026-04-17T12:28:30.912Z</time></trkpt><trkpt lat="42.6462467" lon="-8.67535"><ele>312.0</ele><time>2026-04-17T12:28:32.911Z</time></trkpt><trkpt lat="42.6463183" lon="-8.675355"><ele>312.0</ele><time>2026-04-17T12:28:46.911Z</time></trkpt><trkpt lat="42.646395" lon="-8.6753117"><ele>311.0</ele><time>2026-04-17T12:28:49.911Z</time></trkpt><trkpt lat="42.64641" lon="-8.6751783"><ele>310.0</ele><time>2026-04-17T12:28:51.911Z</time></trkpt><trkpt lat="42.6463983" lon="-8.6750867"><ele>309.0</ele><time>2026-04-17T12:28:52.912Z</time></trkpt><trkpt lat="42.6463717" lon="-8.67499"><ele>308.0</ele><time>2026-04-17T12:28:53.912Z</time></trkpt><trkpt lat="42.6463417" lon="-8.6749"><ele>307.0</ele><time>2026-04-17T12:28:54.911Z</time></trkpt><trkpt lat="42.6462733" lon="-8.6747883"><ele>306.0</ele><time>2026-04-17T12:28:55.912Z</time></trkpt><trkpt lat="42.6462067" lon="-8.674665"><ele>306.0</ele><time>2026-04-17T12:28:57.912Z</time></trkpt><trkpt lat="42.646245" lon="-8.6745483"><ele>306.0</ele><time>2026-04-17T12:29:00.912Z</time></trkpt><trkpt lat="42.6462983" lon="-8.6744983"><ele>306.0</ele><time>2026-04-17T12:29:01.912Z</time></trkpt><trkpt lat="42.6463417" lon="-8.6744317"><ele>306.0</ele><time>2026-04-17T12:29:02.912Z</time></trkpt><trkpt lat="42.6464" lon="-8.6743567"><ele>306.0</ele><time>2026-04-17T12:29:03.912Z</time></trkpt><trkpt lat="42.6464583" lon="-8.6742883"><ele>306.0</ele><time>2026-04-17T12:29:04.912Z</time></trkpt><trkpt lat="42.6465017" lon="-8.67421"><ele>304.0</ele><time>2026-04-17T12:29:05.912Z</time></trkpt><trkpt lat="42.646535" lon="-8.6741317"><ele>302.0</ele><time>2026-04-17T12:29:06.912Z</time></trkpt><trkpt lat="42.6465783" lon="-8.67406"><ele>300.0</ele><time>2026-04-17T12:29:07.911Z</time></trkpt><trkpt lat="42.6466267" lon="-8.673995"><ele>298.0</ele><time>2026-04-17T12:29:08.911Z</time></trkpt><trkpt lat="42.6466733" lon="-8.6739333"><ele>296.0</ele><time>2026-04-17T12:29:09.911Z</time></trkpt><trkpt lat="42.6467233" lon="-8.6738767"><ele>294.0</ele><time>2026-04-17T12:29:10.912Z</time></trkpt><trkpt lat="42.6467667" lon="-8.6738083"><ele>292.0</ele><time>2026-04-17T12:29:11.912Z</time></trkpt><trkpt lat="42.6468233" lon="-8.6736533"><ele>290.0</ele><time>2026-04-17T12:29:13.912Z</time></trkpt><trkpt lat="42.6468117" lon="-8.673535"><ele>288.0</ele><time>2026-04-17T12:29:15.912Z</time></trkpt><trkpt lat="42.6467617" lon="-8.6734183"><ele>286.0</ele><time>2026-04-17T12:29:17.911Z</time></trkpt><trkpt lat="42.6467117" lon="-8.6733633"><ele>284.0</ele><time>2026-04-17T12:29:18.911Z</time></trkpt><trkpt lat="42.6465917" lon="-8.67327"><ele>282.0</ele><time>2026-04-17T12:29:20.911Z</time></trkpt><trkpt lat="42.646515" lon="-8.6732183"><ele>282.0</ele><time>2026-04-17T12:29:21.911Z</time></trkpt><trkpt lat="42.6464617" lon="-8.6731217"><ele>282.0</ele><time>2026-04-17T12:29:23.912Z</time></trkpt><trkpt lat="42.6465533" lon="-8.6731083"><ele>282.0</ele><time>2026-04-17T12:29:25.912Z</time></trkpt><trkpt lat="42.6466333" lon="-8.6731183"><ele>282.0</ele><time>2026-04-17T12:29:26.912Z</time></trkpt><trkpt lat="42.6467183" lon="-8.673135"><ele>282.0</ele><time>2026-04-17T12:29:27.912Z</time></trkpt><trkpt lat="42.6468033" lon="-8.6731617"><ele>282.0</ele><time>2026-04-17T12:29:28.911Z</time></trkpt><trkpt lat="42.646885" lon="-8.6731967"><ele>284.3333333333333</ele><time>2026-04-17T12:29:29.911Z</time></trkpt><trkpt lat="42.6469633" lon="-8.6732383"><ele>286.6666666666667</ele><time>2026-04-17T12:29:30.912Z</time></trkpt><trkpt lat="42.6470417" lon="-8.6732783"><ele>289.0</ele><time>2026-04-17T12:29:31.912Z</time></trkpt><trkpt lat="42.64711" lon="-8.6733083"><ele>291.33333333333337</ele><time>2026-04-17T12:29:32.912Z</time></trkpt><trkpt lat="42.6471983" lon="-8.6733583"><ele>293.6666666666667</ele><time>2026-04-17T12:29:34.912Z</time></trkpt><trkpt lat="42.6472717" lon="-8.6734517"><ele>296.0</ele><time>2026-04-17T12:29:36.911Z</time></trkpt><trkpt lat="42.6473167" lon="-8.6735367"><ele>295.5</ele><time>2026-04-17T12:29:37.912Z</time></trkpt><trkpt lat="42.64735" lon="-8.6736267"><ele>295.0</ele><time>2026-04-17T12:29:38.911Z</time></trkpt><trkpt lat="42.6473767" lon="-8.6737133"><ele>294.5</ele><time>2026-04-17T12:29:39.912Z</time></trkpt><trkpt lat="42.6474" lon="-8.673805"><ele>294.0</ele><time>2026-04-17T12:29:40.912Z</time></trkpt><trkpt lat="42.647425" lon="-8.6739083"><ele>293.5</ele><time>2026-04-17T12:29:41.912Z</time></trkpt><trkpt lat="42.6474533" lon="-8.6740283"><ele>293.0</ele><time>2026-04-17T12:29:42.912Z</time></trkpt><trkpt lat="42.6474867" lon="-8.6741583"><ele>293.0</ele><time>2026-04-17T12:29:43.912Z</time></trkpt><trkpt lat="42.6475233" lon="-8.6742983"><ele>293.0</ele><time>2026-04-17T12:29:44.911Z</time></trkpt><trkpt lat="42.6475633" lon="-8.67445"><ele>293.0</ele><time>2026-04-17T12:29:45.912Z</time></trkpt><trkpt lat="42.6476" lon="-8.674605"><ele>293.0</ele><time>2026-04-17T12:29:46.911Z</time></trkpt><trkpt lat="42.6476383" lon="-8.6747617"><ele>294.5</ele><time>2026-04-17T12:29:47.911Z</time></trkpt><trkpt lat="42.64767" lon="-8.674915"><ele>296.0</ele><time>2026-04-17T12:29:48.912Z</time></trkpt><trkpt lat="42.647705" lon="-8.67507"><ele>297.5</ele><time>2026-04-17T12:29:49.913Z</time></trkpt><trkpt lat="42.6477433" lon="-8.6752283"><ele>299.0</ele><time>2026-04-17T12:29:50.913Z</time></trkpt><trkpt lat="42.64779" lon="-8.67539"><ele>298.0</ele><time>2026-04-17T12:29:51.912Z</time></trkpt><trkpt lat="42.6478433" lon="-8.6755433"><ele>297.0</ele><time>2026-04-17T12:29:52.913Z</time></trkpt><trkpt lat="42.6479117" lon="-8.67569"><ele>296.0</ele><time>2026-04-17T12:29:53.913Z</time></trkpt><trkpt lat="42.6479867" lon="-8.6758283"><ele>295.0</ele><time>2026-04-17T12:29:54.913Z</time></trkpt><trkpt lat="42.6480717" lon="-8.675965"><ele>295.0</ele><time>2026-04-17T12:29:55.913Z</time></trkpt><trkpt lat="42.6481717" lon="-8.6760933"><ele>295.0</ele><time>2026-04-17T12:29:56.912Z</time></trkpt><trkpt lat="42.64828" lon="-8.6762133"><ele>295.0</ele><time>2026-04-17T12:29:57.912Z</time></trkpt><trkpt lat="42.6483983" lon="-8.67632"><ele>295.0</ele><time>2026-04-17T12:29:58.912Z</time></trkpt><trkpt lat="42.6485217" lon="-8.6764217"><ele>291.75</ele><time>2026-04-17T12:29:59.912Z</time></trkpt><trkpt lat="42.6486467" lon="-8.6765183"><ele>288.5</ele><time>2026-04-17T12:30:00.912Z</time></trkpt><trkpt lat="42.648775" lon="-8.6766183"><ele>285.25</ele><time>2026-04-17T12:30:01.913Z</time></trkpt><trkpt lat="42.6489033" lon="-8.676715"><ele>282.0</ele><time>2026-04-17T12:30:02.913Z</time></trkpt><trkpt lat="42.6490317" lon="-8.67681"><ele>282.0</ele><time>2026-04-17T12:30:03.913Z</time></trkpt><trkpt lat="42.64916" lon="-8.6769117"><ele>282.0</ele><time>2026-04-17T12:30:04.913Z</time></trkpt><trkpt lat="42.6492867" lon="-8.6770133"><ele>282.0</ele><time>2026-04-17T12:30:05.913Z</time></trkpt><trkpt lat="42.6494133" lon="-8.677115"><ele>282.0</ele><time>2026-04-17T12:30:06.912Z</time></trkpt><trkpt lat="42.6495367" lon="-8.6772117"><ele>280.0</ele><time>2026-04-17T12:30:07.912Z</time></trkpt><trkpt lat="42.649655" lon="-8.6773117"><ele>278.0</ele><time>2026-04-17T12:30:08.912Z</time></trkpt><trkpt lat="42.6497633" lon="-8.6774267"><ele>276.0</ele><time>2026-04-17T12:30:09.913Z</time></trkpt><trkpt lat="42.64986" lon="-8.6775583"><ele>274.0</ele><time>2026-04-17T12:30:10.913Z</time></trkpt><trkpt lat="42.649945" lon="-8.6776983"><ele>276.66666666666663</ele><time>2026-04-17T12:30:11.912Z</time></trkpt><trkpt lat="42.6500217" lon="-8.6778483"><ele>279.3333333333333</ele><time>2026-04-17T12:30:12.912Z</time></trkpt><trkpt lat="42.6500933" lon="-8.6780117"><ele>282.0</ele><time>2026-04-17T12:30:13.913Z</time></trkpt><trkpt lat="42.647425" lon="-8.6739083"><ele>284.2</ele><time>2026-04-17T12:29:41.912Z</time></trkpt><trkpt lat="42.6474533" lon="-8.6740283"><ele>286.4</ele><time>2026-04-17T12:29:42.912Z</time></trkpt><trkpt lat="42.6474867" lon="-8.6741583"><ele>288.6</ele><time>2026-04-17T12:29:43.912Z</time></trkpt><trkpt lat="42.6475233" lon="-8.6742983"><ele>290.8</ele><time>2026-04-17T12:29:44.911Z</time></trkpt><trkpt lat="42.6475633" lon="-8.67445"><ele>293.0</ele><time>2026-04-17T12:29:45.912Z</time></trkpt><trkpt lat="42.6476" lon="-8.674605"><ele>294.5</ele><time>2026-04-17T12:29:46.911Z</time></trkpt><trkpt lat="42.6476383" lon="-8.6747617"><ele>296.0</ele><time>2026-04-17T12:29:47.911Z</time></trkpt><trkpt lat="42.64767" lon="-8.674915"><ele>297.5</ele><time>2026-04-17T12:29:48.912Z</time></trkpt><trkpt lat="42.647705" lon="-8.67507"><ele>299.0</ele><time>2026-04-17T12:29:49.913Z</time></trkpt><trkpt lat="42.6477433" lon="-8.6752283"><ele>298.0</ele><time>2026-04-17T12:29:50.913Z</time></trkpt><trkpt lat="42.64779" lon="-8.67539"><ele>297.0</ele><time>2026-04-17T12:29:51.912Z</time></trkpt><trkpt lat="42.6478433" lon="-8.6755433"><ele>296.0</ele><time>2026-04-17T12:29:52.913Z</time></trkpt><trkpt lat="42.6479117" lon="-8.67569"><ele>295.0</ele><time>2026-04-17T12:29:53.913Z</time></trkpt><trkpt lat="42.6479867" lon="-8.6758283"><ele>295.0</ele><time>2026-04-17T12:29:54.913Z</time></trkpt><trkpt lat="42.6480717" lon="-8.675965"><ele>295.0</ele><time>2026-04-17T12:29:55.913Z</time></trkpt><trkpt lat="42.6481717" lon="-8.6760933"><ele>295.0</ele><time>2026-04-17T12:29:56.912Z</time></trkpt><trkpt lat="42.64828" lon="-8.6762133"><ele>295.0</ele><time>2026-04-17T12:29:57.912Z</time></trkpt><trkpt lat="42.6483983" lon="-8.67632"><ele>297.0</ele><time>2026-04-17T12:29:58.912Z</time></trkpt><trkpt lat="42.6485217" lon="-8.6764217"><ele>299.0</ele><time>2026-04-17T12:29:59.912Z</time></trkpt><trkpt lat="42.6486467" lon="-8.6765183"><ele>301.0</ele><time>2026-04-17T12:30:00.912Z</time></trkpt><trkpt lat="42.648775" lon="-8.6766183"><ele>303.0</ele><time>2026-04-17T12:30:01.913Z</time></trkpt><trkpt lat="42.6489033" lon="-8.676715"><ele>301.75</ele><time>2026-04-17T12:30:02.913Z</time></trkpt><trkpt lat="42.6490317" lon="-8.67681"><ele>300.5</ele><time>2026-04-17T12:30:03.913Z</time></trkpt><trkpt lat="42.64916" lon="-8.6769117"><ele>299.25</ele><time>2026-04-17T12:30:04.913Z</time></trkpt><trkpt lat="42.6492867" lon="-8.6770133"><ele>298.0</ele><time>2026-04-17T12:30:05.913Z</time></trkpt><trkpt lat="42.6494133" lon="-8.677115"><ele>292.0</ele><time>2026-04-17T12:30:06.912Z</time></trkpt><trkpt lat="42.6495367" lon="-8.6772117"><ele>286.0</ele><time>2026-04-17T12:30:07.912Z</time></trkpt><trkpt lat="42.649655" lon="-8.6773117"><ele>280.0</ele><time>2026-04-17T12:30:08.912Z</time></trkpt><trkpt lat="42.6497633" lon="-8.6774267"><ele>274.0</ele><time>2026-04-17T12:30:09.913Z</time></trkpt><trkpt lat="42.64986" lon="-8.6775583"><ele>274.0</ele><time>2026-04-17T12:30:10.913Z</time></trkpt><trkpt lat="42.649945" lon="-8.6776983"><ele>274.0</ele><time>2026-04-17T12:30:11.912Z</time></trkpt><trkpt lat="42.6500217" lon="-8.6778483"><ele>274.0</ele><time>2026-04-17T12:30:12.912Z</time></trkpt><trkpt lat="42.6500933" lon="-8.6780117"><ele>274.0</ele><time>2026-04-17T12:30:13.913Z</time></trkpt><trkpt lat="42.6501667" lon="-8.67818"><ele>273.5</ele><time>2026-04-17T12:30:14.912Z</time></trkpt><trkpt lat="42.6502467" lon="-8.678345"><ele>273.0</ele><time>2026-04-17T12:30:15.912Z</time></trkpt><trkpt lat="42.6503367" lon="-8.678495"><ele>272.5</ele><time>2026-04-17T12:30:16.913Z</time></trkpt><trkpt lat="42.650435" lon="-8.6786383"><ele>272.0</ele><time>2026-04-17T12:30:17.912Z</time></trkpt><trkpt lat="42.650545" lon="-8.67876"><ele>272.0</ele><time>2026-04-17T12:30:18.912Z</time></trkpt><trkpt lat="42.6506583" lon="-8.67887"><ele>272.0</ele><time>2026-04-17T12:30:19.913Z</time></trkpt><trkpt lat="42.6507833" lon="-8.6789717"><ele>272.0</ele><time>2026-04-17T12:30:20.913Z</time></trkpt><trkpt lat="42.6509117" lon="-8.6790717"><ele>272.0</ele><time>2026-04-17T12:30:21.912Z</time></trkpt><trkpt lat="42.6510367" lon="-8.6791783"><ele>271.33333333333337</ele><time>2026-04-17T12:30:22.912Z</time></trkpt><trkpt lat="42.651165" lon="-8.6792883"><ele>270.6666666666667</ele><time>2026-04-17T12:30:23.913Z</time></trkpt><trkpt lat="42.6512917" lon="-8.6793967"><ele>270.0</ele><time>2026-04-17T12:30:24.912Z</time></trkpt><trkpt lat="42.65142" lon="-8.6795067"><ele>270.0</ele><time>2026-04-17T12:30:25.913Z</time></trkpt><trkpt lat="42.651545" lon="-8.679615"><ele>270.0</ele><time>2026-04-17T12:30:26.912Z</time></trkpt><trkpt lat="42.6516733" lon="-8.6797267"><ele>270.0</ele><time>2026-04-17T12:30:27.912Z</time></trkpt><trkpt lat="42.6517983" lon="-8.6798333"><ele>270.0</ele><time>2026-04-17T12:30:28.913Z</time></trkpt><trkpt lat="42.6519233" lon="-8.67994"><ele>267.25</ele><time>2026-04-17T12:30:29.913Z</time></trkpt><trkpt lat="42.65205" lon="-8.6800467"><ele>264.5</ele><time>2026-04-17T12:30:30.912Z</time></trkpt><trkpt lat="42.652175" lon="-8.6801533"><ele>261.75</ele><time>2026-04-17T12:30:31.913Z</time></trkpt><trkpt lat="42.6522983" lon="-8.6802617"><ele>259.0</ele><time>2026-04-17T12:30:32.912Z</time></trkpt><trkpt lat="42.65242" lon="-8.6803733"><ele>259.0</ele><time>2026-04-17T12:30:33.913Z</time></trkpt><trkpt lat="42.6525383" lon="-8.680495"><ele>259.0</ele><time>2026-04-17T12:30:34.913Z</time></trkpt><trkpt lat="42.6526517" lon="-8.6806233"><ele>259.0</ele><time>2026-04-17T12:30:35.912Z</time></trkpt><trkpt lat="42.6527567" lon="-8.680755"><ele>259.0</ele><time>2026-04-17T12:30:36.913Z</time></trkpt><trkpt lat="42.6528583" lon="-8.6808917"><ele>256.25</ele><time>2026-04-17T12:30:37.913Z</time></trkpt><trkpt lat="42.6529533" lon="-8.6810367"><ele>253.5</ele><time>2026-04-17T12:30:38.912Z</time></trkpt><trkpt lat="42.65304" lon="-8.6811917"><ele>250.75</ele><time>2026-04-17T12:30:39.912Z</time></trkpt><trkpt lat="42.6531217" lon="-8.6813517"><ele>248.0</ele><time>2026-04-17T12:30:40.912Z</time></trkpt><trkpt lat="42.6531933" lon="-8.68152"><ele>248.0</ele><time>2026-04-17T12:30:41.913Z</time></trkpt><trkpt lat="42.65326" lon="-8.6816933"><ele>248.0</ele><time>2026-04-17T12:30:42.913Z</time></trkpt><trkpt lat="42.6533167" lon="-8.6818733"><ele>248.0</ele><time>2026-04-17T12:30:43.913Z</time></trkpt><trkpt lat="42.653365" lon="-8.6820517"><ele>248.0</ele><time>2026-04-17T12:30:44.913Z</time></trkpt><trkpt lat="42.6534033" lon="-8.6822333"><ele>248.5</ele><time>2026-04-17T12:30:45.913Z</time></trkpt><trkpt lat="42.6534333" lon="-8.6824233"><ele>249.0</ele><time>2026-04-17T12:30:46.913Z</time></trkpt><trkpt lat="42.653455" lon="-8.6826167"><ele>249.5</ele><time>2026-04-17T12:30:47.912Z</time></trkpt><trkpt lat="42.653475" lon="-8.682815"><ele>250.0</ele><time>2026-04-17T12:30:48.912Z</time></trkpt><trkpt lat="42.6534867" lon="-8.6830067"><ele>249.0</ele><time>2026-04-17T12:30:49.913Z</time></trkpt><trkpt lat="42.6534983" lon="-8.6831967"><ele>248.0</ele><time>2026-04-17T12:30:50.912Z</time></trkpt><trkpt lat="42.653515" lon="-8.6833933"><ele>247.0</ele><time>2026-04-17T12:30:51.912Z</time></trkpt><trkpt lat="42.6535233" lon="-8.68359"><ele>246.0</ele><time>2026-04-17T12:30:52.912Z</time></trkpt><trkpt lat="42.653525" lon="-8.683785"><ele>244.75</ele><time>2026-04-17T12:30:53.912Z</time></trkpt><trkpt lat="42.6535133" lon="-8.68398"><ele>243.5</ele><time>2026-04-17T12:30:54.913Z</time></trkpt><trkpt lat="42.6534867" lon="-8.68417"><ele>242.25</ele><time>2026-04-17T12:30:55.912Z</time></trkpt><trkpt lat="42.65344" lon="-8.684355"><ele>241.0</ele><time>2026-04-17T12:30:56.913Z</time></trkpt><trkpt lat="42.6533767" lon="-8.6845283"><ele>239.75</ele><time>2026-04-17T12:30:57.912Z</time></trkpt><trkpt lat="42.6533017" lon="-8.68469"><ele>238.5</ele><time>2026-04-17T12:30:58.912Z</time></trkpt><trkpt lat="42.65321" lon="-8.6848367"><ele>237.25</ele><time>2026-04-17T12:30:59.912Z</time></trkpt><trkpt lat="42.6531067" lon="-8.68497"><ele>236.0</ele><time>2026-04-17T12:31:00.913Z</time></trkpt><trkpt lat="42.6529933" lon="-8.6850883"><ele>236.0</ele><time>2026-04-17T12:31:01.913Z</time></trkpt><trkpt lat="42.6528767" lon="-8.6851917"><ele>236.0</ele><time>2026-04-17T12:31:02.912Z</time></trkpt><trkpt lat="42.652755" lon="-8.68529"><ele>236.0</ele><time>2026-04-17T12:31:03.913Z</time></trkpt><trkpt lat="42.6526317" lon="-8.68538"><ele>236.0</ele><time>2026-04-17T12:31:04.912Z</time></trkpt><trkpt lat="42.6525083" lon="-8.685465"><ele>233.75</ele><time>2026-04-17T12:31:05.913Z</time></trkpt><trkpt lat="42.6523867" lon="-8.6855533"><ele>231.5</ele><time>2026-04-17T12:31:06.912Z</time></trkpt><trkpt lat="42.6522717" lon="-8.6856533"><ele>229.25</ele><time>2026-04-17T12:31:07.912Z</time></trkpt><trkpt lat="42.6521617" lon="-8.6857683"><ele>227.0</ele><time>2026-04-17T12:31:08.913Z</time></trkpt><trkpt lat="42.6520633" lon="-8.685895"><ele>227.0</ele><time>2026-04-17T12:31:09.912Z</time></trkpt><trkpt lat="42.6519783" lon="-8.6860333"><ele>227.0</ele><time>2026-04-17T12:31:10.913Z</time></trkpt><trkpt lat="42.651905" lon="-8.6861883"><ele>227.0</ele><time>2026-04-17T12:31:11.912Z</time></trkpt><trkpt lat="42.6518433" lon="-8.6863617"><ele>227.0</ele><time>2026-04-17T12:31:12.913Z</time></trkpt><trkpt lat="42.6517983" lon="-8.6865467"><ele>226.75</ele><time>2026-04-17T12:31:13.912Z</time></trkpt><trkpt lat="42.6517667" lon="-8.686745"><ele>226.5</ele><time>2026-04-17T12:31:14.913Z</time></trkpt><trkpt lat="42.651755" lon="-8.6869433"><ele>226.25</ele><time>2026-04-17T12:31:15.913Z</time></trkpt><trkpt lat="42.651745" lon="-8.6871367"><ele>226.0</ele><time>2026-04-17T12:31:16.912Z</time></trkpt><trkpt lat="42.6517417" lon="-8.6873233"><ele>225.5</ele><time>2026-04-17T12:31:17.913Z</time></trkpt><trkpt lat="42.6517517" lon="-8.68752"><ele>225.0</ele><time>2026-04-17T12:31:18.912Z</time></trkpt><trkpt lat="42.6517583" lon="-8.6877183"><ele>224.5</ele><time>2026-04-17T12:31:19.912Z</time></trkpt><trkpt lat="42.6517617" lon="-8.6879133"><ele>224.0</ele><time>2026-04-17T12:31:20.912Z</time></trkpt><trkpt lat="42.6517617" lon="-8.68811"><ele>222.75</ele><time>2026-04-17T12:31:21.913Z</time></trkpt><trkpt lat="42.6517683" lon="-8.68831"><ele>221.5</ele><time>2026-04-17T12:31:22.913Z</time></trkpt><trkpt lat="42.6517783" lon="-8.688505"><ele>220.25</ele><time>2026-04-17T12:31:23.913Z</time></trkpt><trkpt lat="42.6517933" lon="-8.6886967"><ele>219.0</ele><time>2026-04-17T12:31:24.912Z</time></trkpt><trkpt lat="42.6518167" lon="-8.68888"><ele>218.75</ele><time>2026-04-17T12:31:25.913Z</time></trkpt><trkpt lat="42.6518517" lon="-8.6890583"><ele>218.5</ele><time>2026-04-17T12:31:26.913Z</time></trkpt><trkpt lat="42.6519" lon="-8.6892233"><ele>218.25</ele><time>2026-04-17T12:31:27.912Z</time></trkpt><trkpt lat="42.651955" lon="-8.6893583"><ele>218.0</ele><time>2026-04-17T12:31:28.913Z</time></trkpt><trkpt lat="42.6520017" lon="-8.6894567"><ele>218.0</ele><time>2026-04-17T12:31:29.913Z</time></trkpt><trkpt lat="42.6520517" lon="-8.6895817"><ele>218.0</ele><time>2026-04-17T12:31:31.912Z</time></trkpt><trkpt lat="42.6519733" lon="-8.6894933"><ele>218.0</ele><time>2026-04-17T12:31:35.913Z</time></trkpt><trkpt lat="42.6519317" lon="-8.6893733"><ele>218.0</ele><time>2026-04-17T12:31:36.912Z</time></trkpt><trkpt lat="42.6518933" lon="-8.689235"><ele>218.0</ele><time>2026-04-17T12:31:37.913Z</time></trkpt><trkpt lat="42.651875" lon="-8.6890883"><ele>218.0</ele><time>2026-04-17T12:31:38.912Z</time></trkpt><trkpt lat="42.6518883" lon="-8.688985"><ele>218.0</ele><time>2026-04-17T12:31:39.912Z</time></trkpt><trkpt lat="42.65194" lon="-8.6888933"><ele>218.0</ele><time>2026-04-17T12:31:40.912Z</time></trkpt><trkpt lat="42.6520117" lon="-8.688795"><ele>218.0</ele><time>2026-04-17T12:31:41.912Z</time></trkpt><trkpt lat="42.6520883" lon="-8.6887"><ele>218.0</ele><time>2026-04-17T12:31:42.913Z</time></trkpt><trkpt lat="42.6521633" lon="-8.68862"><ele>217.8</ele><time>2026-04-17T12:31:43.913Z</time></trkpt><trkpt lat="42.6522367" lon="-8.6885683"><ele>217.60000000000002</ele><time>2026-04-17T12:31:44.913Z</time></trkpt><trkpt lat="42.652315" lon="-8.68854"><ele>217.39999999999998</ele><time>2026-04-17T12:31:45.913Z</time></trkpt><trkpt lat="42.6524033" lon="-8.6885383"><ele>217.2</ele><time>2026-04-17T12:31:46.912Z</time></trkpt><trkpt lat="42.6525117" lon="-8.6885567"><ele>217.0</ele><time>2026-04-17T12:31:47.912Z</time></trkpt><trkpt lat="42.6526533" lon="-8.6886"><ele>213.75</ele><time>2026-04-17T12:31:48.912Z</time></trkpt><trkpt lat="42.6527917" lon="-8.6886433"><ele>210.5</ele><time>2026-04-17T12:31:49.913Z</time></trkpt><trkpt lat="42.6529167" lon="-8.6887"><ele>207.25</ele><time>2026-04-17T12:31:50.913Z</time></trkpt><trkpt lat="42.65303" lon="-8.6887633"><ele>204.0</ele><time>2026-04-17T12:31:51.912Z</time></trkpt><trkpt lat="42.6531183" lon="-8.6888067"><ele>204.0</ele><time>2026-04-17T12:31:52.913Z</time></trkpt><trkpt lat="42.6531967" lon="-8.6888317"><ele>204.0</ele><time>2026-04-17T12:31:53.913Z</time></trkpt><trkpt lat="42.6532817" lon="-8.68883"><ele>204.0</ele><time>2026-04-17T12:31:55.912Z</time></trkpt><trkpt lat="42.6533233" lon="-8.6886933"><ele>204.0</ele><time>2026-04-17T12:31:57.912Z</time></trkpt><trkpt lat="42.65337" lon="-8.68858"><ele>204.0</ele><time>2026-04-17T12:31:58.913Z</time></trkpt><trkpt lat="42.65344" lon="-8.688465"><ele>203.66666666666669</ele><time>2026-04-17T12:31:59.912Z</time></trkpt><trkpt lat="42.65355" lon="-8.6883533"><ele>203.33333333333334</ele><time>2026-04-17T12:32:00.913Z</time></trkpt><trkpt lat="42.653695" lon="-8.688225"><ele>203.0</ele><time>2026-04-17T12:32:01.912Z</time></trkpt><trkpt lat="42.6538517" lon="-8.688115"><ele>200.33333333333334</ele><time>2026-04-17T12:32:02.912Z</time></trkpt><trkpt lat="42.654005" lon="-8.6880217"><ele>197.66666666666669</ele><time>2026-04-17T12:32:03.913Z</time></trkpt><trkpt lat="42.6541517" lon="-8.68795"><ele>195.0</ele><time>2026-04-17T12:32:04.912Z</time></trkpt><trkpt lat="42.65428" lon="-8.6879033"><ele>195.0</ele><time>2026-04-17T12:32:05.912Z</time></trkpt><trkpt lat="42.6543933" lon="-8.6878983"><ele>195.0</ele><time>2026-04-17T12:32:06.913Z</time></trkpt><trkpt lat="42.6545167" lon="-8.6879333"><ele>195.0</ele><time>2026-04-17T12:32:07.912Z</time></trkpt><trkpt lat="42.6546567" lon="-8.6879733"><ele>195.0</ele><time>2026-04-17T12:32:08.912Z</time></trkpt><trkpt lat="42.654815" lon="-8.6879933"><ele>192.66666666666666</ele><time>2026-04-17T12:32:09.913Z</time></trkpt><trkpt lat="42.6549767" lon="-8.6879917"><ele>190.33333333333331</ele><time>2026-04-17T12:32:10.913Z</time></trkpt><trkpt lat="42.6551267" lon="-8.687995"><ele>188.0</ele><time>2026-04-17T12:32:11.913Z</time></trkpt><trkpt lat="42.6552733" lon="-8.6880083"><ele>187.8</ele><time>2026-04-17T12:32:12.913Z</time></trkpt><trkpt lat="42.6554167" lon="-8.6880267"><ele>187.60000000000002</ele><time>2026-04-17T12:32:13.912Z</time></trkpt><trkpt lat="42.65554" lon="-8.6880467"><ele>187.39999999999998</ele><time>2026-04-17T12:32:14.913Z</time></trkpt><trkpt lat="42.6556433" lon="-8.6880583"><ele>187.2</ele><time>2026-04-17T12:32:15.913Z</time></trkpt><trkpt lat="42.65571" lon="-8.6880667"><ele>187.0</ele><time>2026-04-17T12:32:16.913Z</time></trkpt><trkpt lat="42.6525117" lon="-8.6885567"><ele>191.25</ele><time>2026-04-17T12:31:47.912Z</time></trkpt><trkpt lat="42.6526533" lon="-8.6886"><ele>195.5</ele><time>2026-04-17T12:31:48.912Z</time></trkpt><trkpt lat="42.6527917" lon="-8.6886433"><ele>199.75</ele><time>2026-04-17T12:31:49.913Z</time></trkpt><trkpt lat="42.6529167" lon="-8.6887"><ele>204.0</ele><time>2026-04-17T12:31:50.913Z</time></trkpt><trkpt lat="42.65303" lon="-8.6887633"><ele>204.0</ele><time>2026-04-17T12:31:51.912Z</time></trkpt><trkpt lat="42.6531183" lon="-8.6888067"><ele>204.0</ele><time>2026-04-17T12:31:52.913Z</time></trkpt><trkpt lat="42.6531967" lon="-8.6888317"><ele>204.0</ele><time>2026-04-17T12:31:53.913Z</time></trkpt><trkpt lat="42.6532817" lon="-8.68883"><ele>204.0</ele><time>2026-04-17T12:31:55.912Z</time></trkpt><trkpt lat="42.6533233" lon="-8.6886933"><ele>204.0</ele><time>2026-04-17T12:31:57.912Z</time></trkpt><trkpt lat="42.65337" lon="-8.68858"><ele>203.75</ele><time>2026-04-17T12:31:58.913Z</time></trkpt><trkpt lat="42.65344" lon="-8.688465"><ele>203.5</ele><time>2026-04-17T12:31:59.912Z</time></trkpt><trkpt lat="42.65355" lon="-8.6883533"><ele>203.25</ele><time>2026-04-17T12:32:00.913Z</time></trkpt><trkpt lat="42.653695" lon="-8.688225"><ele>203.0</ele><time>2026-04-17T12:32:01.912Z</time></trkpt><trkpt lat="42.6538517" lon="-8.688115"><ele>200.33333333333334</ele><time>2026-04-17T12:32:02.912Z</time></trkpt><trkpt lat="42.654005" lon="-8.6880217"><ele>197.66666666666669</ele><time>2026-04-17T12:32:03.913Z</time></trkpt><trkpt lat="42.6541517" lon="-8.68795"><ele>195.0</ele><time>2026-04-17T12:32:04.912Z</time></trkpt><trkpt lat="42.65428" lon="-8.6879033"><ele>195.0</ele><time>2026-04-17T12:32:05.912Z</time></trkpt><trkpt lat="42.6543933" lon="-8.6878983"><ele>195.0</ele><time>2026-04-17T12:32:06.913Z</time></trkpt><trkpt lat="42.6545167" lon="-8.6879333"><ele>195.0</ele><time>2026-04-17T12:32:07.912Z</time></trkpt><trkpt lat="42.6546567" lon="-8.6879733"><ele>195.0</ele><time>2026-04-17T12:32:08.912Z</time></trkpt><trkpt lat="42.654815" lon="-8.6879933"><ele>192.66666666666666</ele><time>2026-04-17T12:32:09.913Z</time></trkpt><trkpt lat="42.6549767" lon="-8.6879917"><ele>190.33333333333331</ele><time>2026-04-17T12:32:10.913Z</time></trkpt><trkpt lat="42.6551267" lon="-8.687995"><ele>188.0</ele><time>2026-04-17T12:32:11.913Z</time></trkpt><trkpt lat="42.6552733" lon="-8.6880083"><ele>187.8</ele><time>2026-04-17T12:32:12.913Z</time></trkpt><trkpt lat="42.6554167" lon="-8.6880267"><ele>187.60000000000002</ele><time>2026-04-17T12:32:13.912Z</time></trkpt><trkpt lat="42.65554" lon="-8.6880467"><ele>187.39999999999998</ele><time>2026-04-17T12:32:14.913Z</time></trkpt><trkpt lat="42.6556433" lon="-8.6880583"><ele>187.2</ele><time>2026-04-17T12:32:15.913Z</time></trkpt><trkpt lat="42.65571" lon="-8.6880667"><ele>187.0</ele><time>2026-04-17T12:32:16.913Z</time></trkpt><trkpt lat="42.6556233" lon="-8.6879817"><ele>187.0</ele><time>2026-04-17T12:32:20.913Z</time></trkpt><trkpt lat="42.65554" lon="-8.687945"><ele>187.0</ele><time>2026-04-17T12:32:21.912Z</time></trkpt><trkpt lat="42.65543" lon="-8.6878933"><ele>187.0</ele><time>2026-04-17T12:32:22.913Z</time></trkpt><trkpt lat="42.6552833" lon="-8.68782"><ele>187.0</ele><time>2026-04-17T12:32:23.912Z</time></trkpt><trkpt lat="42.6551333" lon="-8.68775"><ele>190.75</ele><time>2026-04-17T12:32:24.913Z</time></trkpt><trkpt lat="42.6549767" lon="-8.6876867"><ele>194.5</ele><time>2026-04-17T12:32:25.912Z</time></trkpt><trkpt lat="42.6548333" lon="-8.687625"><ele>198.25</ele><time>2026-04-17T12:32:26.912Z</time></trkpt><trkpt lat="42.6547083" lon="-8.6875633"><ele>202.0</ele><time>2026-04-17T12:32:27.913Z</time></trkpt><trkpt lat="42.6546067" lon="-8.6874867"><ele>201.99999999999997</ele><time>2026-04-17T12:32:28.912Z</time></trkpt><trkpt lat="42.654515" lon="-8.68739"><ele>202.0</ele><time>2026-04-17T12:32:29.913Z</time></trkpt><trkpt lat="42.6544483" lon="-8.687295"><ele>202.0</ele><time>2026-04-17T12:32:30.912Z</time></trkpt><trkpt lat="42.6544133" lon="-8.6872117"><ele>202.0</ele><time>2026-04-17T12:32:31.912Z</time></trkpt><trkpt lat="42.6544317" lon="-8.6871183"><ele>201.99999999999997</ele><time>2026-04-17T12:32:33.912Z</time></trkpt><trkpt lat="42.6545233" lon="-8.6870933"><ele>202.0</ele><time>2026-04-17T12:32:35.913Z</time></trkpt><trkpt lat="42.6546117" lon="-8.6871033"><ele>202.0</ele><time>2026-04-17T12:32:36.913Z</time></trkpt><trkpt lat="42.6547367" lon="-8.68712"><ele>202.0</ele><time>2026-04-17T12:32:37.913Z</time></trkpt><trkpt lat="42.6548867" lon="-8.6871083"><ele>202.0</ele><time>2026-04-17T12:32:38.912Z</time></trkpt><trkpt lat="42.6550367" lon="-8.6870667"><ele>202.0</ele><time>2026-04-17T12:32:39.912Z</time></trkpt><trkpt lat="42.6552017" lon="-8.6870233"><ele>201.33333333333331</ele><time>2026-04-17T12:32:40.912Z</time></trkpt><trkpt lat="42.65537" lon="-8.6870033"><ele>200.66666666666669</ele><time>2026-04-17T12:32:41.912Z</time></trkpt><trkpt lat="42.65553" lon="-8.6869933"><ele>200.0</ele><time>2026-04-17T12:32:42.913Z</time></trkpt><trkpt lat="42.655675" lon="-8.6869883"><ele>200.0</ele><time>2026-04-17T12:32:43.913Z</time></trkpt><trkpt lat="42.6557983" lon="-8.6869733"><ele>200.0</ele><time>2026-04-17T12:32:44.913Z</time></trkpt><trkpt lat="42.6558983" lon="-8.6869383"><ele>200.0</ele><time>2026-04-17T12:32:45.912Z</time></trkpt><trkpt lat="42.655985" lon="-8.6868667"><ele>200.0</ele><time>2026-04-17T12:32:46.912Z</time></trkpt><trkpt lat="42.6560633" lon="-8.6867633"><ele>200.0</ele><time>2026-04-17T12:32:47.912Z</time></trkpt><trkpt lat="42.656135" lon="-8.6866533"><ele>200.8</ele><time>2026-04-17T12:32:48.913Z</time></trkpt><trkpt lat="42.6562" lon="-8.68655"><ele>201.6</ele><time>2026-04-17T12:32:49.913Z</time></trkpt><trkpt lat="42.6562583" lon="-8.686435"><ele>202.39999999999998</ele><time>2026-04-17T12:32:50.913Z</time></trkpt><trkpt lat="42.6563167" lon="-8.6863133"><ele>203.2</ele><time>2026-04-17T12:32:51.912Z</time></trkpt><trkpt lat="42.6563667" lon="-8.6862067"><ele>204.0</ele><time>2026-04-17T12:32:52.912Z</time></trkpt><trkpt lat="42.65642" lon="-8.6861183"><ele>203.6</ele><time>2026-04-17T12:32:53.913Z</time></trkpt><trkpt lat="42.6564867" lon="-8.6860433"><ele>203.2</ele><time>2026-04-17T12:32:54.913Z</time></trkpt><trkpt lat="42.6565717" lon="-8.6859817"><ele>202.79999999999998</ele><time>2026-04-17T12:32:55.912Z</time></trkpt><trkpt lat="42.6566783" lon="-8.6859183"><ele>202.39999999999998</ele><time>2026-04-17T12:32:56.913Z</time></trkpt><trkpt lat="42.65679" lon="-8.6858417"><ele>202.0</ele><time>2026-04-17T12:32:57.913Z</time></trkpt><trkpt lat="42.6569" lon="-8.68577"><ele>199.75</ele><time>2026-04-17T12:32:58.912Z</time></trkpt><trkpt lat="42.6570217" lon="-8.6857117"><ele>197.5</ele><time>2026-04-17T12:32:59.913Z</time></trkpt><trkpt lat="42.657165" lon="-8.6856717"><ele>195.25</ele><time>2026-04-17T12:33:00.912Z</time></trkpt><trkpt lat="42.6573333" lon="-8.6856467"><ele>193.0</ele><time>2026-04-17T12:33:01.912Z</time></trkpt><trkpt lat="42.6574983" lon="-8.68561"><ele>193.0</ele><time>2026-04-17T12:33:02.913Z</time></trkpt><trkpt lat="42.65765" lon="-8.6855683"><ele>193.0</ele><time>2026-04-17T12:33:03.912Z</time></trkpt><trkpt lat="42.6577983" lon="-8.685535"><ele>193.0</ele><time>2026-04-17T12:33:04.913Z</time></trkpt><trkpt lat="42.65795" lon="-8.685525"><ele>188.75</ele><time>2026-04-17T12:33:05.912Z</time></trkpt><trkpt lat="42.6581" lon="-8.685525"><ele>184.5</ele><time>2026-04-17T12:33:06.912Z</time></trkpt><trkpt lat="42.6582433" lon="-8.6855417"><ele>180.25</ele><time>2026-04-17T12:33:07.913Z</time></trkpt><trkpt lat="42.6583917" lon="-8.68558"><ele>176.0</ele><time>2026-04-17T12:33:08.912Z</time></trkpt><trkpt lat="42.6585117" lon="-8.6856183"><ele>172.20000000000002</ele><time>2026-04-17T12:33:09.912Z</time></trkpt><trkpt lat="42.65862" lon="-8.6856183"><ele>168.4</ele><time>2026-04-17T12:33:10.913Z</time></trkpt><trkpt lat="42.6587233" lon="-8.6855567"><ele>164.6</ele><time>2026-04-17T12:33:11.913Z</time></trkpt><trkpt lat="42.6588317" lon="-8.68549"><ele>160.8</ele><time>2026-04-17T12:33:12.912Z</time></trkpt><trkpt lat="42.65892" lon="-8.6854467"><ele>157.0</ele><time>2026-04-17T12:33:13.912Z</time></trkpt><trkpt lat="42.65899" lon="-8.6854067"><ele>157.0</ele><time>2026-04-17T12:33:14.913Z</time></trkpt><trkpt lat="42.6590417" lon="-8.6853567"><ele>157.0</ele><time>2026-04-17T12:33:15.913Z</time></trkpt><trkpt lat="42.659065" lon="-8.685235"><ele>157.0</ele><time>2026-04-17T12:33:17.912Z</time></trkpt><trkpt lat="42.6589917" lon="-8.6850967"><ele>157.0</ele><time>2026-04-17T12:33:18.913Z</time></trkpt><trkpt lat="42.65894" lon="-8.6849783"><ele>157.0</ele><time>2026-04-17T12:33:19.913Z</time></trkpt><trkpt lat="42.6588417" lon="-8.6848417"><ele>157.5</ele><time>2026-04-17T12:33:20.913Z</time></trkpt><trkpt lat="42.6587083" lon="-8.6847233"><ele>158.0</ele><time>2026-04-17T12:33:21.912Z</time></trkpt><trkpt lat="42.65858" lon="-8.6846283"><ele>158.5</ele><time>2026-04-17T12:33:22.912Z</time></trkpt><trkpt lat="42.65847" lon="-8.6845383"><ele>159.0</ele><time>2026-04-17T12:33:23.913Z</time></trkpt><trkpt lat="42.6583817" lon="-8.6844417"><ele>158.83333333333334</ele><time>2026-04-17T12:33:24.913Z</time></trkpt><trkpt lat="42.6583317" lon="-8.6843517"><ele>158.66666666666666</ele><time>2026-04-17T12:33:25.913Z</time></trkpt><trkpt lat="42.658305" lon="-8.6842667"><ele>158.5</ele><time>2026-04-17T12:33:26.913Z</time></trkpt><trkpt lat="42.6582983" lon="-8.68417"><ele>158.33333333333331</ele><time>2026-04-17T12:33:27.912Z</time></trkpt><trkpt lat="42.6583167" lon="-8.6840583"><ele>158.16666666666666</ele><time>2026-04-17T12:33:28.912Z</time></trkpt><trkpt lat="42.6583567" lon="-8.683935"><ele>158.0</ele><time>2026-04-17T12:33:29.913Z</time></trkpt><trkpt lat="42.658405" lon="-8.6838067"><ele>158.0</ele><time>2026-04-17T12:33:30.912Z</time></trkpt><trkpt lat="42.6584583" lon="-8.6836867"><ele>158.0</ele><time>2026-04-17T12:33:31.913Z</time></trkpt><trkpt lat="42.6585167" lon="-8.6835667"><ele>158.0</ele><time>2026-04-17T12:33:32.913Z</time></trkpt><trkpt lat="42.6585867" lon="-8.6834417"><ele>158.0</ele><time>2026-04-17T12:33:33.912Z</time></trkpt><trkpt lat="42.658665" lon="-8.6833117"><ele>158.0</ele><time>2026-04-17T12:33:34.913Z</time></trkpt><trkpt lat="42.6587317" lon="-8.6831783"><ele>154.33333333333331</ele><time>2026-04-17T12:33:35.912Z</time></trkpt><trkpt lat="42.6587867" lon="-8.68306"><ele>150.66666666666666</ele><time>2026-04-17T12:33:36.912Z</time></trkpt><trkpt lat="42.6588083" lon="-8.682975"><ele>147.0</ele><time>2026-04-17T12:33:37.913Z</time></trkpt><trkpt lat="42.6587767" lon="-8.6828667"><ele>143.33333333333334</ele><time>2026-04-17T12:33:39.912Z</time></trkpt><trkpt lat="42.6587133" lon="-8.6828"><ele>139.66666666666669</ele><time>2026-04-17T12:33:40.913Z</time></trkpt><trkpt lat="42.65864" lon="-8.6827283"><ele>136.0</ele><time>2026-04-17T12:33:41.912Z</time></trkpt><trkpt lat="42.6585083" lon="-8.6826367"><ele>135.66666666666669</ele><time>2026-04-17T12:33:42.913Z</time></trkpt><trkpt lat="42.6583317" lon="-8.6825283"><ele>135.33333333333334</ele><time>2026-04-17T12:33:43.913Z</time></trkpt><trkpt lat="42.658155" lon="-8.6824283"><ele>135.0</ele><time>2026-04-17T12:33:44.912Z</time></trkpt><trkpt lat="42.657975" lon="-8.6823567"><ele>135.0</ele><time>2026-04-17T12:33:45.912Z</time></trkpt><trkpt lat="42.6578233" lon="-8.6823067"><ele>135.0</ele><time>2026-04-17T12:33:46.913Z</time></trkpt><trkpt lat="42.657685" lon="-8.6822833"><ele>135.0</ele><time>2026-04-17T12:33:47.912Z</time></trkpt><trkpt lat="42.6590417" lon="-8.6853567"><ele>141.0</ele><time>2026-04-17T12:33:15.913Z</time></trkpt><trkpt lat="42.659065" lon="-8.685235"><ele>147.0</ele><time>2026-04-17T12:33:17.912Z</time></trkpt><trkpt lat="42.6589917" lon="-8.6850967"><ele>153.0</ele><time>2026-04-17T12:33:18.913Z</time></trkpt><trkpt lat="42.65894" lon="-8.6849783"><ele>159.0</ele><time>2026-04-17T12:33:19.913Z</time></trkpt><trkpt lat="42.6588417" lon="-8.6848417"><ele>159.0</ele><time>2026-04-17T12:33:20.913Z</time></trkpt><trkpt lat="42.6587083" lon="-8.6847233"><ele>159.0</ele><time>2026-04-17T12:33:21.912Z</time></trkpt><trkpt lat="42.65858" lon="-8.6846283"><ele>159.0</ele><time>2026-04-17T12:33:22.912Z</time></trkpt><trkpt lat="42.65847" lon="-8.6845383"><ele>159.0</ele><time>2026-04-17T12:33:23.913Z</time></trkpt><trkpt lat="42.6583817" lon="-8.6844417"><ele>158.83333333333334</ele><time>2026-04-17T12:33:24.913Z</time></trkpt><trkpt lat="42.6583317" lon="-8.6843517"><ele>158.66666666666666</ele><time>2026-04-17T12:33:25.913Z</time></trkpt><trkpt lat="42.658305" lon="-8.6842667"><ele>158.5</ele><time>2026-04-17T12:33:26.913Z</time></trkpt><trkpt lat="42.6582983" lon="-8.68417"><ele>158.33333333333331</ele><time>2026-04-17T12:33:27.912Z</time></trkpt><trkpt lat="42.6583167" lon="-8.6840583"><ele>158.16666666666666</ele><time>2026-04-17T12:33:28.912Z</time></trkpt><trkpt lat="42.6583567" lon="-8.683935"><ele>158.0</ele><time>2026-04-17T12:33:29.913Z</time></trkpt><trkpt lat="42.658405" lon="-8.6838067"><ele>158.0</ele><time>2026-04-17T12:33:30.912Z</time></trkpt><trkpt lat="42.6584583" lon="-8.6836867"><ele>158.0</ele><time>2026-04-17T12:33:31.913Z</time></trkpt><trkpt lat="42.6585167" lon="-8.6835667"><ele>158.0</ele><time>2026-04-17T12:33:32.913Z</time></trkpt><trkpt lat="42.6585867" lon="-8.6834417"><ele>158.0</ele><time>2026-04-17T12:33:33.912Z</time></trkpt><trkpt lat="42.658665" lon="-8.6833117"><ele>158.0</ele><time>2026-04-17T12:33:34.913Z</time></trkpt><trkpt lat="42.6587317" lon="-8.6831783"><ele>154.33333333333331</ele><time>2026-04-17T12:33:35.912Z</time></trkpt><trkpt lat="42.6587867" lon="-8.68306"><ele>150.66666666666666</ele><time>2026-04-17T12:33:36.912Z</time></trkpt><trkpt lat="42.6588083" lon="-8.682975"><ele>147.0</ele><time>2026-04-17T12:33:37.913Z</time></trkpt><trkpt lat="42.6587767" lon="-8.6828667"><ele>143.33333333333334</ele><time>2026-04-17T12:33:39.912Z</time></trkpt><trkpt lat="42.6587133" lon="-8.6828"><ele>139.66666666666669</ele><time>2026-04-17T12:33:40.913Z</time></trkpt><trkpt lat="42.65864" lon="-8.6827283"><ele>136.0</ele><time>2026-04-17T12:33:41.912Z</time></trkpt><trkpt lat="42.6585083" lon="-8.6826367"><ele>135.66666666666669</ele><time>2026-04-17T12:33:42.913Z</time></trkpt><trkpt lat="42.6583317" lon="-8.6825283"><ele>135.33333333333334</ele><time>2026-04-17T12:33:43.913Z</time></trkpt><trkpt lat="42.658155" lon="-8.6824283"><ele>135.0</ele><time>2026-04-17T12:33:44.912Z</time></trkpt><trkpt lat="42.657975" lon="-8.6823567"><ele>135.0</ele><time>2026-04-17T12:33:45.912Z</time></trkpt><trkpt lat="42.6578233" lon="-8.6823067"><ele>135.0</ele><time>2026-04-17T12:33:46.913Z</time></trkpt><trkpt lat="42.657685" lon="-8.6822833"><ele>135.0</ele><time>2026-04-17T12:33:47.912Z</time></trkpt><trkpt lat="42.6575633" lon="-8.6822767"><ele>135.0</ele><time>2026-04-17T12:33:48.912Z</time></trkpt><trkpt lat="42.6574417" lon="-8.682255"><ele>138.5</ele><time>2026-04-17T12:33:49.912Z</time></trkpt><trkpt lat="42.6573383" lon="-8.68221"><ele>142.0</ele><time>2026-04-17T12:33:50.912Z</time></trkpt><trkpt lat="42.65725" lon="-8.68213"><ele>145.5</ele><time>2026-04-17T12:33:51.912Z</time></trkpt><trkpt lat="42.6571817" lon="-8.6820067"><ele>149.0</ele><time>2026-04-17T12:33:52.913Z</time></trkpt><trkpt lat="42.65712" lon="-8.6818517"><ele>149.0</ele><time>2026-04-17T12:33:53.913Z</time></trkpt><trkpt lat="42.6570633" lon="-8.681685"><ele>149.0</ele><time>2026-04-17T12:33:54.912Z</time></trkpt><trkpt lat="42.6569983" lon="-8.68154"><ele>149.0</ele><time>2026-04-17T12:33:55.912Z</time></trkpt><trkpt lat="42.6569117" lon="-8.6814333"><ele>149.0</ele><time>2026-04-17T12:33:56.913Z</time></trkpt><trkpt lat="42.6567983" lon="-8.6813433"><ele>154.0</ele><time>2026-04-17T12:33:57.913Z</time></trkpt><trkpt lat="42.656665" lon="-8.6812633"><ele>159.0</ele><time>2026-04-17T12:33:58.913Z</time></trkpt><trkpt lat="42.656495" lon="-8.6811917"><ele>164.0</ele><time>2026-04-17T12:33:59.912Z</time></trkpt><trkpt lat="42.656345" lon="-8.6811283"><ele>162.39999999999998</ele><time>2026-04-17T12:34:00.912Z</time></trkpt><trkpt lat="42.656225" lon="-8.6810667"><ele>160.79999999999998</ele><time>2026-04-17T12:34:01.912Z</time></trkpt><trkpt lat="42.65614" lon="-8.6809983"><ele>159.2</ele><time>2026-04-17T12:34:02.912Z</time></trkpt><trkpt lat="42.656085" lon="-8.6809133"><ele>157.6</ele><time>2026-04-17T12:34:03.912Z</time></trkpt><trkpt lat="42.656045" lon="-8.68081"><ele>156.0</ele><time>2026-04-17T12:34:04.913Z</time></trkpt><trkpt lat="42.6560067" lon="-8.6807083"><ele>159.2</ele><time>2026-04-17T12:34:05.912Z</time></trkpt><trkpt lat="42.655965" lon="-8.6806217"><ele>162.39999999999998</ele><time>2026-04-17T12:34:06.912Z</time></trkpt><trkpt lat="42.6559117" lon="-8.6805317"><ele>165.6</ele><time>2026-04-17T12:34:07.913Z</time></trkpt><trkpt lat="42.6558483" lon="-8.68045"><ele>168.79999999999998</ele><time>2026-04-17T12:34:08.912Z</time></trkpt><trkpt lat="42.6557667" lon="-8.680375"><ele>172.0</ele><time>2026-04-17T12:34:09.912Z</time></trkpt><trkpt lat="42.6556683" lon="-8.6803083"><ele>171.16666666666669</ele><time>2026-04-17T12:34:10.912Z</time></trkpt><trkpt lat="42.655575" lon="-8.680255"><ele>170.33333333333334</ele><time>2026-04-17T12:34:11.912Z</time></trkpt><trkpt lat="42.65549" lon="-8.6802083"><ele>169.5</ele><time>2026-04-17T12:34:12.913Z</time></trkpt><trkpt lat="42.6554183" lon="-8.68015"><ele>168.66666666666666</ele><time>2026-04-17T12:34:13.913Z</time></trkpt><trkpt lat="42.655355" lon="-8.6800817"><ele>167.83333333333331</ele><time>2026-04-17T12:34:14.912Z</time></trkpt><trkpt lat="42.655295" lon="-8.6800067"><ele>167.0</ele><time>2026-04-17T12:34:15.913Z</time></trkpt><trkpt lat="42.655235" lon="-8.6799267"><ele>170.0</ele><time>2026-04-17T12:34:16.913Z</time></trkpt><trkpt lat="42.6551783" lon="-8.6798533"><ele>173.0</ele><time>2026-04-17T12:34:17.912Z</time></trkpt><trkpt lat="42.65512" lon="-8.6797467"><ele>176.0</ele><time>2026-04-17T12:34:19.913Z</time></trkpt><trkpt lat="42.6551083" lon="-8.679635"><ele>179.0</ele><time>2026-04-17T12:34:21.912Z</time></trkpt><trkpt lat="42.65515" lon="-8.67948"><ele>182.0</ele><time>2026-04-17T12:34:23.912Z</time></trkpt><trkpt lat="42.6552117" lon="-8.679385"><ele>180.0</ele><time>2026-04-17T12:34:24.913Z</time></trkpt><trkpt lat="42.6552883" lon="-8.6792917"><ele>178.0</ele><time>2026-04-17T12:34:25.913Z</time></trkpt><trkpt lat="42.6553633" lon="-8.679195"><ele>176.0</ele><time>2026-04-17T12:34:26.913Z</time></trkpt><trkpt lat="42.6554717" lon="-8.6791017"><ele>174.0</ele><time>2026-04-17T12:34:27.913Z</time></trkpt><trkpt lat="42.6555967" lon="-8.679025"><ele>174.0</ele><time>2026-04-17T12:34:28.912Z</time></trkpt><trkpt lat="42.65571" lon="-8.6789417"><ele>174.0</ele><time>2026-04-17T12:34:29.912Z</time></trkpt><trkpt lat="42.6558033" lon="-8.6788567"><ele>174.0</ele><time>2026-04-17T12:34:30.912Z</time></trkpt><trkpt lat="42.6558733" lon="-8.67876"><ele>174.0</ele><time>2026-04-17T12:34:31.912Z</time></trkpt><trkpt lat="42.6559317" lon="-8.678645"><ele>174.0</ele><time>2026-04-17T12:34:32.912Z</time></trkpt><trkpt lat="42.6559667" lon="-8.67849"><ele>175.0</ele><time>2026-04-17T12:34:33.913Z</time></trkpt><trkpt lat="42.6559833" lon="-8.6782883"><ele>176.0</ele><time>2026-04-17T12:34:34.913Z</time></trkpt><trkpt lat="42.656015" lon="-8.678105"><ele>177.0</ele><time>2026-04-17T12:34:35.912Z</time></trkpt><trkpt lat="42.6560583" lon="-8.6779267"><ele>178.0</ele><time>2026-04-17T12:34:36.912Z</time></trkpt><trkpt lat="42.6561233" lon="-8.6777317"><ele>178.0</ele><time>2026-04-17T12:34:37.912Z</time></trkpt><trkpt lat="42.6561933" lon="-8.6775417"><ele>178.0</ele><time>2026-04-17T12:34:38.912Z</time></trkpt><trkpt lat="42.65626" lon="-8.67738"><ele>178.0</ele><time>2026-04-17T12:34:39.912Z</time></trkpt><trkpt lat="42.6563367" lon="-8.6772533"><ele>178.0</ele><time>2026-04-17T12:34:40.913Z</time></trkpt><trkpt lat="42.6564283" lon="-8.6771567"><ele>178.0</ele><time>2026-04-17T12:34:41.913Z</time></trkpt><trkpt lat="42.6565367" lon="-8.6770883"><ele>178.0</ele><time>2026-04-17T12:34:42.913Z</time></trkpt><trkpt lat="42.6566617" lon="-8.6770383"><ele>178.0</ele><time>2026-04-17T12:34:43.913Z</time></trkpt><trkpt lat="42.65678" lon="-8.676985"><ele>178.0</ele><time>2026-04-17T12:34:44.913Z</time></trkpt><trkpt lat="42.6569" lon="-8.6769333"><ele>180.60000000000002</ele><time>2026-04-17T12:34:45.913Z</time></trkpt><trkpt lat="42.6570133" lon="-8.676885"><ele>183.20000000000002</ele><time>2026-04-17T12:34:46.912Z</time></trkpt><trkpt lat="42.657105" lon="-8.6768383"><ele>185.8</ele><time>2026-04-17T12:34:47.913Z</time></trkpt><trkpt lat="42.65718" lon="-8.6767867"><ele>188.4</ele><time>2026-04-17T12:34:48.912Z</time></trkpt><trkpt lat="42.657255" lon="-8.6767417"><ele>191.0</ele><time>2026-04-17T12:34:49.912Z</time></trkpt><trkpt lat="42.6573417" lon="-8.67671"><ele>191.0</ele><time>2026-04-17T12:34:50.912Z</time></trkpt><trkpt lat="42.6574417" lon="-8.676685"><ele>191.0</ele><time>2026-04-17T12:34:51.912Z</time></trkpt><trkpt lat="42.65757" lon="-8.6766517"><ele>191.0</ele><time>2026-04-17T12:34:52.912Z</time></trkpt><trkpt lat="42.6577267" lon="-8.67661"><ele>191.0</ele><time>2026-04-17T12:34:53.913Z</time></trkpt><trkpt lat="42.657905" lon="-8.6765583"><ele>188.5</ele><time>2026-04-17T12:34:54.912Z</time></trkpt><trkpt lat="42.6580717" lon="-8.6765117"><ele>186.0</ele><time>2026-04-17T12:34:55.913Z</time></trkpt><trkpt lat="42.6582233" lon="-8.67648"><ele>183.5</ele><time>2026-04-17T12:34:56.913Z</time></trkpt><trkpt lat="42.65834" lon="-8.6764533"><ele>181.0</ele><time>2026-04-17T12:34:57.913Z</time></trkpt><trkpt lat="42.6584183" lon="-8.6764367"><ele>181.0</ele><time>2026-04-17T12:34:58.913Z</time></trkpt><trkpt lat="42.6584283" lon="-8.6763333"><ele>181.0</ele><time>2026-04-17T12:35:01.913Z</time></trkpt><trkpt lat="42.6583733" lon="-8.6762083"><ele>181.0</ele><time>2026-04-17T12:35:03.912Z</time></trkpt><trkpt lat="42.658365" lon="-8.6761033"><ele>181.0</ele><time>2026-04-17T12:35:04.912Z</time></trkpt><trkpt lat="42.6583567" lon="-8.6759833"><ele>181.0</ele><time>2026-04-17T12:35:05.912Z</time></trkpt><trkpt lat="42.6583433" lon="-8.6758667"><ele>181.0</ele><time>2026-04-17T12:35:06.912Z</time></trkpt><trkpt lat="42.6583083" lon="-8.6757433"><ele>183.5</ele><time>2026-04-17T12:35:07.912Z</time></trkpt><trkpt lat="42.6582567" lon="-8.6756167"><ele>186.0</ele><time>2026-04-17T12:35:08.912Z</time></trkpt><trkpt lat="42.6581883" lon="-8.67548"><ele>188.5</ele><time>2026-04-17T12:35:09.912Z</time></trkpt><trkpt lat="42.6581083" lon="-8.6753317"><ele>191.0</ele><time>2026-04-17T12:35:10.912Z</time></trkpt><trkpt lat="42.65801" lon="-8.6751783"><ele>193.20000000000002</ele><time>2026-04-17T12:35:11.913Z</time></trkpt><trkpt lat="42.65792" lon="-8.6750267"><ele>195.4</ele><time>2026-04-17T12:35:12.913Z</time></trkpt><trkpt lat="42.65786" lon="-8.6749"><ele>197.6</ele><time>2026-04-17T12:35:13.913Z</time></trkpt><trkpt lat="42.65783" lon="-8.6748167"><ele>199.8</ele><time>2026-04-17T12:35:14.912Z</time></trkpt><trkpt lat="42.6578083" lon="-8.67472"><ele>202.0</ele><time>2026-04-17T12:35:16.913Z</time></trkpt><trkpt lat="42.657885" lon="-8.6746733"><ele>202.0</ele><time>2026-04-17T12:35:18.912Z</time></trkpt><trkpt lat="42.657975" lon="-8.6746683"><ele>202.0</ele><time>2026-04-17T12:35:19.912Z</time></trkpt><trkpt lat="42.658065" lon="-8.6746567"><ele>202.0</ele><time>2026-04-17T12:35:20.912Z</time></trkpt><trkpt lat="42.6582067" lon="-8.6746533"><ele>202.0</ele><time>2026-04-17T12:35:21.912Z</time></trkpt><trkpt lat="42.6584317" lon="-8.6746567"><ele>201.33333333333331</ele><time>2026-04-17T12:35:22.912Z</time></trkpt><trkpt lat="42.65864" lon="-8.6746467"><ele>200.66666666666669</ele><time>2026-04-17T12:35:23.912Z</time></trkpt><trkpt lat="42.658825" lon="-8.6746317"><ele>200.0</ele><time>2026-04-17T12:35:24.912Z</time></trkpt><trkpt lat="42.6589817" lon="-8.6745817"><ele>200.0</ele><time>2026-04-17T12:35:25.912Z</time></trkpt><trkpt lat="42.6591183" lon="-8.67451"><ele>200.0</ele><time>2026-04-17T12:35:26.912Z</time></trkpt><trkpt lat="42.6592567" lon="-8.6744267"><ele>200.0</ele><time>2026-04-17T12:35:27.912Z</time></trkpt><trkpt lat="42.6594" lon="-8.6743317"><ele>202.66666666666669</ele><time>2026-04-17T12:35:28.912Z</time></trkpt><trkpt lat="42.659555" lon="-8.6742317"><ele>205.33333333333331</ele><time>2026-04-17T12:35:29.912Z</time></trkpt><trkpt lat="42.65971" lon="-8.674145"><ele>208.0</ele><time>2026-04-17T12:35:30.912Z</time></trkpt><trkpt lat="42.6598667" lon="-8.6740933"><ele>208.0</ele><time>2026-04-17T12:35:31.912Z</time></trkpt><trkpt lat="42.6600167" lon="-8.674065"><ele>208.0</ele><time>2026-04-17T12:35:32.912Z</time></trkpt><trkpt lat="42.66017" lon="-8.674075"><ele>208.0</ele><time>2026-04-17T12:35:33.913Z</time></trkpt><trkpt lat="42.6603217" lon="-8.6740983"><ele>206.66666666666666</ele><time>2026-04-17T12:35:34.913Z</time></trkpt><trkpt lat="42.6604783" lon="-8.6741533"><ele>205.33333333333331</ele><time>2026-04-17T12:35:35.913Z</time></trkpt><trkpt lat="42.66064" lon="-8.67423"><ele>204.0</ele><time>2026-04-17T12:35:36.913Z</time></trkpt><trkpt lat="42.6607933" lon="-8.67432"><ele>204.0</ele><time>2026-04-17T12:35:37.913Z</time></trkpt><trkpt lat="42.6609367" lon="-8.6743983"><ele>204.0</ele><time>2026-04-17T12:35:38.912Z</time></trkpt><trkpt lat="42.66107" lon="-8.6744733"><ele>204.0</ele><time>2026-04-17T12:35:39.913Z</time></trkpt><trkpt lat="42.6611933" lon="-8.6745467"><ele>204.0</ele><time>2026-04-17T12:35:40.913Z</time></trkpt><trkpt lat="42.661305" lon="-8.6746117"><ele>200.25</ele><time>2026-04-17T12:35:41.913Z</time></trkpt><trkpt lat="42.6614083" lon="-8.67466"><ele>196.5</ele><time>2026-04-17T12:35:42.912Z</time></trkpt><trkpt lat="42.6615083" lon="-8.674685"><ele>192.75</ele><time>2026-04-17T12:35:43.912Z</time></trkpt><trkpt lat="42.66163" lon="-8.674685"><ele>189.0</ele><time>2026-04-17T12:35:44.912Z</time></trkpt><trkpt lat="42.6617633" lon="-8.6746617"><ele>189.0</ele><time>2026-04-17T12:35:45.913Z</time></trkpt><trkpt lat="42.6618783" lon="-8.6746267"><ele>189.0</ele><time>2026-04-17T12:35:46.912Z</time></trkpt><trkpt lat="42.661985" lon="-8.6746033"><ele>189.0</ele><time>2026-04-17T12:35:47.912Z</time></trkpt><trkpt lat="42.662075" lon="-8.6745883"><ele>189.0</ele><time>2026-04-17T12:35:48.912Z</time></trkpt><trkpt lat="42.6621583" lon="-8.6746117"><ele>189.0</ele><time>2026-04-17T12:35:49.912Z</time></trkpt><trkpt lat="42.6622233" lon="-8.6746567"><ele>202.0</ele><time>2026-04-17T12:35:50.912Z</time></trkpt><trkpt lat="42.6578083" lon="-8.67472"><ele>202.0</ele><time>2026-04-17T12:35:16.913Z</time></trkpt><trkpt lat="42.657885" lon="-8.6746733"><ele>202.0</ele><time>2026-04-17T12:35:18.912Z</time></trkpt><trkpt lat="42.657975" lon="-8.6746683"><ele>202.0</ele><time>2026-04-17T12:35:19.912Z</time></trkpt><trkpt lat="42.658065" lon="-8.6746567"><ele>202.0</ele><time>2026-04-17T12:35:20.912Z</time></trkpt><trkpt lat="42.6582067" lon="-8.6746533"><ele>202.0</ele><time>2026-04-17T12:35:21.912Z</time></trkpt><trkpt lat="42.6584317" lon="-8.6746567"><ele>201.33333333333331</ele><time>2026-04-17T12:35:22.912Z</time></trkpt><trkpt lat="42.65864" lon="-8.6746467"><ele>200.66666666666669</ele><time>2026-04-17T12:35:23.912Z</time></trkpt><trkpt lat="42.658825" lon="-8.6746317"><ele>200.0</ele><time>2026-04-17T12:35:24.912Z</time></trkpt><trkpt lat="42.6589817" lon="-8.6745817"><ele>200.0</ele><time>2026-04-17T12:35:25.912Z</time></trkpt><trkpt lat="42.6591183" lon="-8.67451"><ele>200.0</ele><time>2026-04-17T12:35:26.912Z</time></trkpt><trkpt lat="42.6592567" lon="-8.6744267"><ele>200.0</ele><time>2026-04-17T12:35:27.912Z</time></trkpt><trkpt lat="42.6594" lon="-8.6743317"><ele>202.66666666666669</ele><time>2026-04-17T12:35:28.912Z</time></trkpt><trkpt lat="42.659555" lon="-8.6742317"><ele>205.33333333333331</ele><time>2026-04-17T12:35:29.912Z</time></trkpt><trkpt lat="42.65971" lon="-8.674145"><ele>208.0</ele><time>2026-04-17T12:35:30.912Z</time></trkpt><trkpt lat="42.6598667" lon="-8.6740933"><ele>208.0</ele><time>2026-04-17T12:35:31.912Z</time></trkpt><trkpt lat="42.6600167" lon="-8.674065"><ele>208.0</ele><time>2026-04-17T12:35:32.912Z</time></trkpt><trkpt lat="42.66017" lon="-8.674075"><ele>208.0</ele><time>2026-04-17T12:35:33.913Z</time></trkpt><trkpt lat="42.6603217" lon="-8.6740983"><ele>206.66666666666666</ele><time>2026-04-17T12:35:34.913Z</time></trkpt><trkpt lat="42.6604783" lon="-8.6741533"><ele>205.33333333333331</ele><time>2026-04-17T12:35:35.913Z</time></trkpt><trkpt lat="42.66064" lon="-8.67423"><ele>204.0</ele><time>2026-04-17T12:35:36.913Z</time></trkpt><trkpt lat="42.6607933" lon="-8.67432"><ele>204.0</ele><time>2026-04-17T12:35:37.913Z</time></trkpt><trkpt lat="42.6609367" lon="-8.6743983"><ele>204.0</ele><time>2026-04-17T12:35:38.912Z</time></trkpt><trkpt lat="42.66107" lon="-8.6744733"><ele>204.0</ele><time>2026-04-17T12:35:39.913Z</time></trkpt><trkpt lat="42.6611933" lon="-8.6745467"><ele>204.0</ele><time>2026-04-17T12:35:40.913Z</time></trkpt><trkpt lat="42.661305" lon="-8.6746117"><ele>200.25</ele><time>2026-04-17T12:35:41.913Z</time></trkpt><trkpt lat="42.6614083" lon="-8.67466"><ele>196.5</ele><time>2026-04-17T12:35:42.912Z</time></trkpt><trkpt lat="42.6615083" lon="-8.674685"><ele>192.75</ele><time>2026-04-17T12:35:43.912Z</time></trkpt><trkpt lat="42.66163" lon="-8.674685"><ele>189.0</ele><time>2026-04-17T12:35:44.912Z</time></trkpt><trkpt lat="42.6617633" lon="-8.6746617"><ele>189.0</ele><time>2026-04-17T12:35:45.913Z</time></trkpt><trkpt lat="42.6618783" lon="-8.6746267"><ele>189.0</ele><time>2026-04-17T12:35:46.912Z</time></trkpt><trkpt lat="42.661985" lon="-8.6746033"><ele>189.0</ele><time>2026-04-17T12:35:47.912Z</time></trkpt><trkpt lat="42.662075" lon="-8.6745883"><ele>189.0</ele><time>2026-04-17T12:35:48.912Z</time></trkpt><trkpt lat="42.6621583" lon="-8.6746117"><ele>189.0</ele><time>2026-04-17T12:35:49.912Z</time></trkpt><trkpt lat="42.6622233" lon="-8.6746567"><ele>186.33333333333334</ele><time>2026-04-17T12:35:50.912Z</time></trkpt><trkpt lat="42.66229" lon="-8.6747117"><ele>183.66666666666666</ele><time>2026-04-17T12:35:51.913Z</time></trkpt><trkpt lat="42.6623533" lon="-8.6747617"><ele>181.0</ele><time>2026-04-17T12:35:52.912Z</time></trkpt><trkpt lat="42.66242" lon="-8.6748117"><ele>178.33333333333331</ele><time>2026-04-17T12:35:53.912Z</time></trkpt><trkpt lat="42.6624917" lon="-8.674865"><ele>175.66666666666666</ele><time>2026-04-17T12:35:54.912Z</time></trkpt><trkpt lat="42.6625667" lon="-8.674915"><ele>173.0</ele><time>2026-04-17T12:35:55.913Z</time></trkpt><trkpt lat="42.6626383" lon="-8.67496"><ele>173.0</ele><time>2026-04-17T12:35:56.913Z</time></trkpt><trkpt lat="42.66271" lon="-8.6749983"><ele>173.0</ele><time>2026-04-17T12:35:57.913Z</time></trkpt><trkpt lat="42.6627867" lon="-8.67503"><ele>173.0</ele><time>2026-04-17T12:35:58.912Z</time></trkpt><trkpt lat="42.6628583" lon="-8.67505"><ele>173.0</ele><time>2026-04-17T12:35:59.913Z</time></trkpt><trkpt lat="42.6629267" lon="-8.675055"><ele>173.0</ele><time>2026-04-17T12:36:00.913Z</time></trkpt><trkpt lat="42.6629933" lon="-8.6750417"><ele>173.0</ele><time>2026-04-17T12:36:01.913Z</time></trkpt><trkpt lat="42.6630617" lon="-8.67501"><ele>173.0</ele><time>2026-04-17T12:36:02.912Z</time></trkpt><trkpt lat="42.663135" lon="-8.6749733"><ele>173.0</ele><time>2026-04-17T12:36:03.913Z</time></trkpt><trkpt lat="42.6632133" lon="-8.6749383"><ele>173.0</ele><time>2026-04-17T12:36:04.912Z</time></trkpt><trkpt lat="42.663295" lon="-8.6749017"><ele>173.0</ele><time>2026-04-17T12:36:05.913Z</time></trkpt><trkpt lat="42.6633717" lon="-8.674865"><ele>173.0</ele><time>2026-04-17T12:36:06.913Z</time></trkpt><trkpt lat="42.6634383" lon="-8.674835"><ele>173.0</ele><time>2026-04-17T12:36:07.912Z</time></trkpt><trkpt lat="42.6635467" lon="-8.6748333"><ele>173.0</ele><time>2026-04-17T12:36:09.912Z</time></trkpt><trkpt lat="42.66363" lon="-8.67488"><ele>173.0</ele><time>2026-04-17T12:36:11.912Z</time></trkpt><trkpt lat="42.6636967" lon="-8.6748517"><ele>173.0</ele><time>2026-04-17T12:36:13.913Z</time></trkpt><trkpt lat="42.6636967" lon="-8.674715"><ele>173.0</ele><time>2026-04-17T12:36:15.912Z</time></trkpt><trkpt lat="42.663685" lon="-8.6746283"><ele>173.0</ele><time>2026-04-17T12:36:16.912Z</time></trkpt><trkpt lat="42.6636783" lon="-8.6745367"><ele>173.0</ele><time>2026-04-17T12:36:17.912Z</time></trkpt><trkpt lat="42.663665" lon="-8.67437"><ele>173.0</ele><time>2026-04-17T12:36:19.913Z</time></trkpt><trkpt lat="42.66365" lon="-8.6742867"><ele>175.5</ele><time>2026-04-17T12:36:20.912Z</time></trkpt><trkpt lat="42.6635933" lon="-8.6741433"><ele>178.0</ele><time>2026-04-17T12:36:22.913Z</time></trkpt><trkpt lat="42.663515" lon="-8.674025"><ele>180.5</ele><time>2026-04-17T12:36:24.913Z</time></trkpt><trkpt lat="42.663425" lon="-8.6739333"><ele>183.0</ele><time>2026-04-17T12:36:26.913Z</time></trkpt><trkpt lat="42.66332" lon="-8.6738433"><ele>183.0</ele><time>2026-04-17T12:36:28.912Z</time></trkpt><trkpt lat="42.6632233" lon="-8.6737367"><ele>183.0</ele><time>2026-04-17T12:36:30.913Z</time></trkpt><trkpt lat="42.6631633" lon="-8.6736217"><ele>183.0</ele><time>2026-04-17T12:36:32.912Z</time></trkpt><trkpt lat="42.6632" lon="-8.673525"><ele>183.0</ele><time>2026-04-17T12:36:34.912Z</time></trkpt><trkpt lat="42.6633317" lon="-8.6734833"><ele>183.0</ele><time>2026-04-17T12:36:36.912Z</time></trkpt><trkpt lat="42.6634167" lon="-8.6734683"><ele>187.0</ele><time>2026-04-17T12:36:37.913Z</time></trkpt><trkpt lat="42.663515" lon="-8.67345"><ele>191.0</ele><time>2026-04-17T12:36:38.913Z</time></trkpt><trkpt lat="42.6636283" lon="-8.673425"><ele>195.0</ele><time>2026-04-17T12:36:39.912Z</time></trkpt><trkpt lat="42.66377" lon="-8.6733967"><ele>199.0</ele><time>2026-04-17T12:36:40.913Z</time></trkpt><trkpt lat="42.6639233" lon="-8.673355"><ele>202.33333333333331</ele><time>2026-04-17T12:36:41.912Z</time></trkpt><trkpt lat="42.66408" lon="-8.67331"><ele>205.66666666666669</ele><time>2026-04-17T12:36:42.912Z</time></trkpt><trkpt lat="42.6642283" lon="-8.6732517"><ele>209.0</ele><time>2026-04-17T12:36:43.912Z</time></trkpt><trkpt lat="42.6643733" lon="-8.673175"><ele>211.66666666666669</ele><time>2026-04-17T12:36:44.912Z</time></trkpt><trkpt lat="42.6645217" lon="-8.673085"><ele>214.33333333333331</ele><time>2026-04-17T12:36:45.912Z</time></trkpt><trkpt lat="42.6646817" lon="-8.67299"><ele>217.0</ele><time>2026-04-17T12:36:46.913Z</time></trkpt><trkpt lat="42.6648567" lon="-8.672905"><ele>217.0</ele><time>2026-04-17T12:36:47.912Z</time></trkpt><trkpt lat="42.6650433" lon="-8.6728317"><ele>217.0</ele><time>2026-04-17T12:36:48.912Z</time></trkpt><trkpt lat="42.66522" lon="-8.6727717"><ele>217.0</ele><time>2026-04-17T12:36:49.912Z</time></trkpt><trkpt lat="42.6653933" lon="-8.6727283"><ele>225.33333333333331</ele><time>2026-04-17T12:36:50.913Z</time></trkpt><trkpt lat="42.6655767" lon="-8.6726983"><ele>233.66666666666669</ele><time>2026-04-17T12:36:51.912Z</time></trkpt><trkpt lat="42.6657733" lon="-8.6726883"><ele>242.0</ele><time>2026-04-17T12:36:52.913Z</time></trkpt><trkpt lat="42.6659733" lon="-8.6726983"><ele>244.25</ele><time>2026-04-17T12:36:53.912Z</time></trkpt><trkpt lat="42.666135" lon="-8.6727233"><ele>246.5</ele><time>2026-04-17T12:36:54.912Z</time></trkpt><trkpt lat="42.666265" lon="-8.67279"><ele>248.75</ele><time>2026-04-17T12:36:55.913Z</time></trkpt><trkpt lat="42.6663917" lon="-8.6728933"><ele>251.0</ele><time>2026-04-17T12:36:56.913Z</time></trkpt><trkpt lat="42.6665317" lon="-8.6730117"><ele>247.0</ele><time>2026-04-17T12:36:57.913Z</time></trkpt><trkpt lat="42.6666983" lon="-8.6731083"><ele>243.0</ele><time>2026-04-17T12:36:58.912Z</time></trkpt><trkpt lat="42.66688" lon="-8.67318"><ele>239.0</ele><time>2026-04-17T12:36:59.912Z</time></trkpt><trkpt lat="42.667075" lon="-8.6732383"><ele>239.0</ele><time>2026-04-17T12:37:00.912Z</time></trkpt><trkpt lat="42.667265" lon="-8.67329"><ele>239.0</ele><time>2026-04-17T12:37:01.912Z</time></trkpt><trkpt lat="42.6674483" lon="-8.6733517"><ele>239.0</ele><time>2026-04-17T12:37:02.913Z</time></trkpt><trkpt lat="42.6676367" lon="-8.6734317"><ele>242.66666666666669</ele><time>2026-04-17T12:37:03.912Z</time></trkpt><trkpt lat="42.6678117" lon="-8.6735083"><ele>246.33333333333331</ele><time>2026-04-17T12:37:04.912Z</time></trkpt><trkpt lat="42.6679583" lon="-8.67356"><ele>250.0</ele><time>2026-04-17T12:37:05.913Z</time></trkpt><trkpt lat="42.668075" lon="-8.673595"><ele>250.0</ele><time>2026-04-17T12:37:06.912Z</time></trkpt><trkpt lat="42.6681483" lon="-8.67363"><ele>250.0</ele><time>2026-04-17T12:37:07.912Z</time></trkpt><trkpt lat="42.6680083" lon="-8.6735967"><ele>250.0</ele><time>2026-04-17T12:37:13.912Z</time></trkpt><trkpt lat="42.6678933" lon="-8.6736133"><ele>250.0</ele><time>2026-04-17T12:37:15.912Z</time></trkpt><trkpt lat="42.667655" lon="-8.6736533"><ele>241.0</ele><time>2026-04-17T12:37:16.912Z</time></trkpt><trkpt lat="42.6675283" lon="-8.6736867"><ele>232.0</ele><time>2026-04-17T12:37:17.912Z</time></trkpt><trkpt lat="42.667415" lon="-8.67371"><ele>223.0</ele><time>2026-04-17T12:37:18.912Z</time></trkpt><trkpt lat="42.6648567" lon="-8.672905"><ele>221.0</ele><time>2026-04-17T12:36:47.912Z</time></trkpt><trkpt lat="42.6650433" lon="-8.6728317"><ele>219.0</ele><time>2026-04-17T12:36:48.912Z</time></trkpt><trkpt lat="42.66522" lon="-8.6727717"><ele>217.0</ele><time>2026-04-17T12:36:49.912Z</time></trkpt><trkpt lat="42.6653933" lon="-8.6727283"><ele>225.33333333333331</ele><time>2026-04-17T12:36:50.913Z</time></trkpt><trkpt lat="42.6655767" lon="-8.6726983"><ele>233.66666666666669</ele><time>2026-04-17T12:36:51.912Z</time></trkpt><trkpt lat="42.6657733" lon="-8.6726883"><ele>242.0</ele><time>2026-04-17T12:36:52.913Z</time></trkpt><trkpt lat="42.6659733" lon="-8.6726983"><ele>244.25</ele><time>2026-04-17T12:36:53.912Z</time></trkpt><trkpt lat="42.666135" lon="-8.6727233"><ele>246.5</ele><time>2026-04-17T12:36:54.912Z</time></trkpt><trkpt lat="42.666265" lon="-8.67279"><ele>248.75</ele><time>2026-04-17T12:36:55.913Z</time></trkpt><trkpt lat="42.6663917" lon="-8.6728933"><ele>251.0</ele><time>2026-04-17T12:36:56.913Z</time></trkpt><trkpt lat="42.6665317" lon="-8.6730117"><ele>247.0</ele><time>2026-04-17T12:36:57.913Z</time></trkpt><trkpt lat="42.6666983" lon="-8.6731083"><ele>243.0</ele><time>2026-04-17T12:36:58.912Z</time></trkpt><trkpt lat="42.66688" lon="-8.67318"><ele>239.0</ele><time>2026-04-17T12:36:59.912Z</time></trkpt><trkpt lat="42.667075" lon="-8.6732383"><ele>239.0</ele><time>2026-04-17T12:37:00.912Z</time></trkpt><trkpt lat="42.667265" lon="-8.67329"><ele>239.0</ele><time>2026-04-17T12:37:01.912Z</time></trkpt><trkpt lat="42.6674483" lon="-8.6733517"><ele>239.0</ele><time>2026-04-17T12:37:02.913Z</time></trkpt><trkpt lat="42.6676367" lon="-8.6734317"><ele>242.66666666666669</ele><time>2026-04-17T12:37:03.912Z</time></trkpt><trkpt lat="42.6678117" lon="-8.6735083"><ele>246.33333333333331</ele><time>2026-04-17T12:37:04.912Z</time></trkpt><trkpt lat="42.6679583" lon="-8.67356"><ele>250.0</ele><time>2026-04-17T12:37:05.913Z</time></trkpt><trkpt lat="42.668075" lon="-8.673595"><ele>250.0</ele><time>2026-04-17T12:37:06.912Z</time></trkpt><trkpt lat="42.6681483" lon="-8.67363"><ele>250.0</ele><time>2026-04-17T12:37:07.912Z</time></trkpt><trkpt lat="42.6680083" lon="-8.6735967"><ele>250.0</ele><time>2026-04-17T12:37:13.912Z</time></trkpt><trkpt lat="42.6678933" lon="-8.6736133"><ele>250.0</ele><time>2026-04-17T12:37:15.912Z</time></trkpt><trkpt lat="42.667655" lon="-8.6736533"><ele>243.25</ele><time>2026-04-17T12:37:16.912Z</time></trkpt><trkpt lat="42.6675283" lon="-8.6736867"><ele>236.5</ele><time>2026-04-17T12:37:17.912Z</time></trkpt><trkpt lat="42.667415" lon="-8.67371"><ele>229.75</ele><time>2026-04-17T12:37:18.912Z</time></trkpt><trkpt lat="42.6672933" lon="-8.6737317"><ele>223.0</ele><time>2026-04-17T12:37:19.913Z</time></trkpt><trkpt lat="42.6671567" lon="-8.673775"><ele>223.0</ele><time>2026-04-17T12:37:20.912Z</time></trkpt><trkpt lat="42.66702" lon="-8.6738367"><ele>223.0</ele><time>2026-04-17T12:37:21.912Z</time></trkpt><trkpt lat="42.6668867" lon="-8.6739117"><ele>223.0</ele><time>2026-04-17T12:37:22.912Z</time></trkpt><trkpt lat="42.666755" lon="-8.6739867"><ele>223.0</ele><time>2026-04-17T12:37:23.913Z</time></trkpt><trkpt lat="42.6666283" lon="-8.674055"><ele>221.0</ele><time>2026-04-17T12:37:24.913Z</time></trkpt><trkpt lat="42.6665117" lon="-8.6741183"><ele>219.0</ele><time>2026-04-17T12:37:25.913Z</time></trkpt><trkpt lat="42.66642" lon="-8.6741517"><ele>217.0</ele><time>2026-04-17T12:37:26.912Z</time></trkpt><trkpt lat="42.66635" lon="-8.674195"><ele>215.0</ele><time>2026-04-17T12:37:27.912Z</time></trkpt><trkpt lat="42.6662883" lon="-8.6742917"><ele>213.0</ele><time>2026-04-17T12:37:29.913Z</time></trkpt><trkpt lat="42.6662517" lon="-8.674425"><ele>210.16666666666666</ele><time>2026-04-17T12:37:31.913Z</time></trkpt><trkpt lat="42.6662467" lon="-8.6745117"><ele>207.33333333333331</ele><time>2026-04-17T12:37:32.913Z</time></trkpt><trkpt lat="42.66629" lon="-8.6746067"><ele>204.5</ele><time>2026-04-17T12:37:34.913Z</time></trkpt><trkpt lat="42.6663783" lon="-8.6746917"><ele>201.66666666666666</ele><time>2026-04-17T12:37:36.912Z</time></trkpt><trkpt lat="42.6664583" lon="-8.67473"><ele>198.83333333333331</ele><time>2026-04-17T12:37:37.913Z</time></trkpt><trkpt lat="42.66654" lon="-8.6747517"><ele>196.0</ele><time>2026-04-17T12:37:38.913Z</time></trkpt><trkpt lat="42.66663" lon="-8.6747733"><ele>196.0</ele><time>2026-04-17T12:37:39.912Z</time></trkpt><trkpt lat="42.6667317" lon="-8.6747833"><ele>196.0</ele><time>2026-04-17T12:37:40.912Z</time></trkpt><trkpt lat="42.6668517" lon="-8.674795"><ele>196.0</ele><time>2026-04-17T12:37:41.913Z</time></trkpt><trkpt lat="42.6669767" lon="-8.6747917"><ele>196.0</ele><time>2026-04-17T12:37:42.913Z</time></trkpt><trkpt lat="42.667135" lon="-8.6747683"><ele>200.66666666666666</ele><time>2026-04-17T12:37:43.913Z</time></trkpt><trkpt lat="42.6673" lon="-8.674745"><ele>205.33333333333331</ele><time>2026-04-17T12:37:44.913Z</time></trkpt><trkpt lat="42.66748" lon="-8.67471"><ele>210.0</ele><time>2026-04-17T12:37:45.912Z</time></trkpt><trkpt lat="42.6676367" lon="-8.6746717"><ele>214.66666666666669</ele><time>2026-04-17T12:37:46.913Z</time></trkpt><trkpt lat="42.6677833" lon="-8.674655"><ele>219.33333333333334</ele><time>2026-04-17T12:37:47.912Z</time></trkpt><trkpt lat="42.6679333" lon="-8.6746433"><ele>224.0</ele><time>2026-04-17T12:37:48.912Z</time></trkpt><trkpt lat="42.66809" lon="-8.6746367"><ele>224.0</ele><time>2026-04-17T12:37:49.912Z</time></trkpt><trkpt lat="42.6682567" lon="-8.674635"><ele>224.0</ele><time>2026-04-17T12:37:50.913Z</time></trkpt><trkpt lat="42.6684317" lon="-8.67464"><ele>224.0</ele><time>2026-04-17T12:37:51.913Z</time></trkpt><trkpt lat="42.6686067" lon="-8.674645"><ele>229.33333333333334</ele><time>2026-04-17T12:37:52.912Z</time></trkpt><trkpt lat="42.6687883" lon="-8.6746567"><ele>234.66666666666669</ele><time>2026-04-17T12:37:53.913Z</time></trkpt><trkpt lat="42.6689633" lon="-8.6746817"><ele>240.0</ele><time>2026-04-17T12:37:54.913Z</time></trkpt><trkpt lat="42.6691317" lon="-8.6747083"><ele>240.0</ele><time>2026-04-17T12:37:55.912Z</time></trkpt><trkpt lat="42.6692583" lon="-8.6747367"><ele>240.0</ele><time>2026-04-17T12:37:56.912Z</time></trkpt><trkpt lat="42.6693267" lon="-8.6747767"><ele>240.0</ele><time>2026-04-17T12:37:57.913Z</time></trkpt><trkpt lat="42.6693383" lon="-8.6748833"><ele>240.0</ele><time>2026-04-17T12:37:59.912Z</time></trkpt><trkpt lat="42.6692867" lon="-8.6749767"><ele>240.0</ele><time>2026-04-17T12:38:01.912Z</time></trkpt><trkpt lat="42.6692017" lon="-8.6750883"><ele>240.0</ele><time>2026-04-17T12:38:03.912Z</time></trkpt><trkpt lat="42.66915" lon="-8.6751517"><ele>240.0</ele><time>2026-04-17T12:38:04.912Z</time></trkpt><trkpt lat="42.6690933" lon="-8.6752167"><ele>240.0</ele><time>2026-04-17T12:38:05.913Z</time></trkpt><trkpt lat="42.669035" lon="-8.675275"><ele>240.0</ele><time>2026-04-17T12:38:06.912Z</time></trkpt><trkpt lat="42.6689667" lon="-8.6753083"><ele>240.0</ele><time>2026-04-17T12:38:07.912Z</time></trkpt><trkpt lat="42.668885" lon="-8.675345"><ele>240.0</ele><time>2026-04-17T12:38:08.913Z</time></trkpt><trkpt lat="42.668785" lon="-8.675385"><ele>241.75</ele><time>2026-04-17T12:38:09.912Z</time></trkpt><trkpt lat="42.6686717" lon="-8.6754517"><ele>243.5</ele><time>2026-04-17T12:38:10.912Z</time></trkpt><trkpt lat="42.6685533" lon="-8.675515"><ele>245.25</ele><time>2026-04-17T12:38:11.913Z</time></trkpt><trkpt lat="42.66843" lon="-8.6755667"><ele>247.0</ele><time>2026-04-17T12:38:12.913Z</time></trkpt><trkpt lat="42.668275" lon="-8.6755933"><ele>239.66666666666666</ele><time>2026-04-17T12:38:13.912Z</time></trkpt><trkpt lat="42.66806" lon="-8.6755783"><ele>232.33333333333331</ele><time>2026-04-17T12:38:14.912Z</time></trkpt><trkpt lat="42.66786" lon="-8.6755667"><ele>225.0</ele><time>2026-04-17T12:38:15.912Z</time></trkpt><trkpt lat="42.66769" lon="-8.6755517"><ele>218.66666666666669</ele><time>2026-04-17T12:38:16.912Z</time></trkpt><trkpt lat="42.6675167" lon="-8.6755283"><ele>212.33333333333334</ele><time>2026-04-17T12:38:17.913Z</time></trkpt><trkpt lat="42.667355" lon="-8.675505"><ele>206.0</ele><time>2026-04-17T12:38:18.913Z</time></trkpt><trkpt lat="42.66721" lon="-8.675495"><ele>206.0</ele><time>2026-04-17T12:38:19.912Z</time></trkpt><trkpt lat="42.6670683" lon="-8.6755"><ele>206.0</ele><time>2026-04-17T12:38:20.913Z</time></trkpt><trkpt lat="42.66692" lon="-8.6755133"><ele>206.0</ele><time>2026-04-17T12:38:21.913Z</time></trkpt><trkpt lat="42.6667917" lon="-8.675555"><ele>206.0</ele><time>2026-04-17T12:38:22.913Z</time></trkpt><trkpt lat="42.6667017" lon="-8.67561"><ele>204.4</ele><time>2026-04-17T12:38:23.913Z</time></trkpt><trkpt lat="42.6666517" lon="-8.675665"><ele>202.8</ele><time>2026-04-17T12:38:24.913Z</time></trkpt><trkpt lat="42.666595" lon="-8.6757833"><ele>201.20000000000002</ele><time>2026-04-17T12:38:26.912Z</time></trkpt><trkpt lat="42.6665633" lon="-8.6758883"><ele>199.60000000000002</ele><time>2026-04-17T12:38:28.913Z</time></trkpt><trkpt lat="42.6666833" lon="-8.6760083"><ele>198.0</ele><time>2026-04-17T12:38:35.912Z</time></trkpt><trkpt lat="42.6667483" lon="-8.6761183"><ele>198.0</ele><time>2026-04-17T12:38:37.913Z</time></trkpt><trkpt lat="42.6668017" lon="-8.676235"><ele>198.0</ele><time>2026-04-17T12:38:39.912Z</time></trkpt><trkpt lat="42.6668683" lon="-8.6763717"><ele>198.0</ele><time>2026-04-17T12:38:41.913Z</time></trkpt><trkpt lat="42.66693" lon="-8.6765217"><ele>198.0</ele><time>2026-04-17T12:38:43.913Z</time></trkpt><trkpt lat="42.6669667" lon="-8.6766967"><ele>201.4</ele><time>2026-04-17T12:38:45.913Z</time></trkpt><trkpt lat="42.6669917" lon="-8.67688"><ele>204.8</ele><time>2026-04-17T12:38:47.912Z</time></trkpt><trkpt lat="42.6670017" lon="-8.6770067"><ele>208.2</ele><time>2026-04-17T12:38:48.913Z</time></trkpt><trkpt lat="42.6669867" lon="-8.677125"><ele>211.6</ele><time>2026-04-17T12:38:49.912Z</time></trkpt><trkpt lat="42.6669617" lon="-8.6772267"><ele>215.0</ele><time>2026-04-17T12:38:50.913Z</time></trkpt><trkpt lat="42.6669517" lon="-8.677385"><ele>211.6</ele><time>2026-04-17T12:38:52.912Z</time></trkpt><trkpt lat="42.666885" lon="-8.6775233"><ele>208.2</ele><time>2026-04-17T12:38:54.913Z</time></trkpt><trkpt lat="42.6668417" lon="-8.6776117"><ele>204.8</ele><time>2026-04-17T12:38:55.913Z</time></trkpt><trkpt lat="42.666795" lon="-8.6777183"><ele>201.4</ele><time>2026-04-17T12:38:56.913Z</time></trkpt><trkpt lat="42.6667533" lon="-8.6778267"><ele>198.0</ele><time>2026-04-17T12:38:57.913Z</time></trkpt><trkpt lat="42.6667" lon="-8.6779267"><ele>198.0</ele><time>2026-04-17T12:38:58.912Z</time></trkpt><trkpt lat="42.6666517" lon="-8.67804"><ele>198.0</ele><time>2026-04-17T12:38:59.913Z</time></trkpt><trkpt lat="42.6666067" lon="-8.67814"><ele>198.0</ele><time>2026-04-17T12:39:00.913Z</time></trkpt><trkpt lat="42.6665667" lon="-8.6782467"><ele>198.0</ele><time>2026-04-17T12:39:01.912Z</time></trkpt><trkpt lat="42.6665283" lon="-8.6783233"><ele>198.0</ele><time>2026-04-17T12:39:02.913Z</time></trkpt><trkpt lat="42.6664633" lon="-8.6784333"><ele>198.0</ele><time>2026-04-17T12:39:04.912Z</time></trkpt><trkpt lat="42.6663883" lon="-8.678555"><ele>197.0</ele><time>2026-04-17T12:39:06.912Z</time></trkpt><trkpt lat="42.6663433" lon="-8.67864"><ele>196.0</ele><time>2026-04-17T12:39:07.913Z</time></trkpt><trkpt lat="42.6662867" lon="-8.67874"><ele>195.0</ele><time>2026-04-17T12:39:08.913Z</time></trkpt><trkpt lat="42.6662233" lon="-8.6788483"><ele>194.0</ele><time>2026-04-17T12:39:09.912Z</time></trkpt><trkpt lat="42.6661767" lon="-8.6789667"><ele>193.0</ele><time>2026-04-17T12:39:10.912Z</time></trkpt><trkpt lat="42.66614" lon="-8.6790833"><ele>193.0</ele><time>2026-04-17T12:39:11.912Z</time></trkpt><trkpt lat="42.6661433" lon="-8.67919"><ele>193.0</ele><time>2026-04-17T12:39:12.912Z</time></trkpt><trkpt lat="42.6661533" lon="-8.67931"><ele>193.0</ele><time>2026-04-17T12:39:13.913Z</time></trkpt><trkpt lat="42.6661883" lon="-8.6794183"><ele>193.0</ele><time>2026-04-17T12:39:14.913Z</time></trkpt><trkpt lat="42.6662333" lon="-8.6795317"><ele>193.0</ele><time>2026-04-17T12:39:15.912Z</time></trkpt><trkpt lat="42.6662817" lon="-8.679655"><ele>190.5</ele><time>2026-04-17T12:39:16.912Z</time></trkpt><trkpt lat="42.666335" lon="-8.6798017"><ele>188.0</ele><time>2026-04-17T12:39:17.912Z</time></trkpt><trkpt lat="42.6663833" lon="-8.679955"><ele>185.5</ele><time>2026-04-17T12:39:18.912Z</time></trkpt><trkpt lat="42.6664267" lon="-8.6801417"><ele>183.0</ele><time>2026-04-17T12:39:19.913Z</time></trkpt><trkpt lat="42.6664717" lon="-8.6802883"><ele>180.60000000000002</ele><time>2026-04-17T12:39:20.912Z</time></trkpt><trkpt lat="42.6664983" lon="-8.6804133"><ele>178.20000000000002</ele><time>2026-04-17T12:39:21.913Z</time></trkpt><trkpt lat="42.6665167" lon="-8.6805483"><ele>175.8</ele><time>2026-04-17T12:39:22.912Z</time></trkpt><trkpt lat="42.66653" lon="-8.6806717"><ele>173.4</ele><time>2026-04-17T12:39:23.913Z</time></trkpt><trkpt lat="42.666545" lon="-8.68079"><ele>171.0</ele><time>2026-04-17T12:39:24.912Z</time></trkpt><trkpt lat="42.6665667" lon="-8.68092"><ele>170.99999999999997</ele><time>2026-04-17T12:39:25.913Z</time></trkpt><trkpt lat="42.66659" lon="-8.6810367"><ele>171.0</ele><time>2026-04-17T12:39:26.913Z</time></trkpt><trkpt lat="42.6666083" lon="-8.6811317"><ele>171.0</ele><time>2026-04-17T12:39:27.912Z</time></trkpt><trkpt lat="42.6666167" lon="-8.6812233"><ele>171.0</ele><time>2026-04-17T12:39:28.912Z</time></trkpt><trkpt lat="42.6666167" lon="-8.6813167"><ele>171.0</ele><time>2026-04-17T12:39:29.913Z</time></trkpt><trkpt lat="42.6666067" lon="-8.6814083"><ele>170.99999999999997</ele><time>2026-04-17T12:39:30.912Z</time></trkpt><trkpt lat="42.6666033" lon="-8.6815017"><ele>171.0</ele><time>2026-04-17T12:39:31.912Z</time></trkpt><trkpt lat="42.6666067" lon="-8.6816"><ele>169.33333333333334</ele><time>2026-04-17T12:39:32.913Z</time></trkpt><trkpt lat="42.6666133" lon="-8.68171"><ele>167.66666666666666</ele><time>2026-04-17T12:39:33.912Z</time></trkpt><trkpt lat="42.6666217" lon="-8.6818083"><ele>166.0</ele><time>2026-04-17T12:39:34.912Z</time></trkpt><trkpt lat="42.6666267" lon="-8.6819083"><ele>164.33333333333331</ele><time>2026-04-17T12:39:35.912Z</time></trkpt><trkpt lat="42.6666367" lon="-8.6820317"><ele>162.66666666666666</ele><time>2026-04-17T12:39:36.913Z</time></trkpt><trkpt lat="42.6666417" lon="-8.6821367"><ele>161.0</ele><time>2026-04-17T12:39:37.913Z</time></trkpt><trkpt lat="42.6666517" lon="-8.6822317"><ele>159.85714285714286</ele><time>2026-04-17T12:39:38.913Z</time></trkpt><trkpt lat="42.66666" lon="-8.682325"><ele>158.71428571428572</ele><time>2026-04-17T12:39:39.912Z</time></trkpt><trkpt lat="42.6666683" lon="-8.6824233"><ele>157.57142857142856</ele><time>2026-04-17T12:39:40.912Z</time></trkpt><trkpt lat="42.66668" lon="-8.6825333"><ele>156.42857142857144</ele><time>2026-04-17T12:39:41.913Z</time></trkpt><trkpt lat="42.66669" lon="-8.6826317"><ele>155.28571428571428</ele><time>2026-04-17T12:39:42.912Z</time></trkpt><trkpt lat="42.6666983" lon="-8.6827217"><ele>154.14285714285714</ele><time>2026-04-17T12:39:43.913Z</time></trkpt><trkpt lat="42.6667033" lon="-8.6828117"><ele>153.0</ele><time>2026-04-17T12:39:44.913Z</time></trkpt><trkpt lat="42.6667" lon="-8.682955"><ele>150.33333333333334</ele><time>2026-04-17T12:39:46.913Z</time></trkpt><trkpt lat="42.6666467" lon="-8.6830133"><ele>147.66666666666669</ele><time>2026-04-17T12:39:48.912Z</time></trkpt><trkpt lat="42.666545" lon="-8.6829983"><ele>145.0</ele><time>2026-04-17T12:39:50.913Z</time></trkpt><trkpt lat="42.6664267" lon="-8.6801417"><ele>150.2</ele><time>2026-04-17T12:39:19.913Z</time></trkpt><trkpt lat="42.6664717" lon="-8.6802883"><ele>155.4</ele><time>2026-04-17T12:39:20.912Z</time></trkpt><trkpt lat="42.6664983" lon="-8.6804133"><ele>160.60000000000002</ele><time>2026-04-17T12:39:21.913Z</time></trkpt><trkpt lat="42.6665167" lon="-8.6805483"><ele>165.8</ele><time>2026-04-17T12:39:22.912Z</time></trkpt><trkpt lat="42.66653" lon="-8.6806717"><ele>171.0</ele><time>2026-04-17T12:39:23.913Z</time></trkpt><trkpt lat="42.666545" lon="-8.68079"><ele>171.0</ele><time>2026-04-17T12:39:24.912Z</time></trkpt><trkpt lat="42.6665667" lon="-8.68092"><ele>171.0</ele><time>2026-04-17T12:39:25.913Z</time></trkpt><trkpt lat="42.66659" lon="-8.6810367"><ele>171.0</ele><time>2026-04-17T12:39:26.913Z</time></trkpt><trkpt lat="42.6666083" lon="-8.6811317"><ele>171.0</ele><time>2026-04-17T12:39:27.912Z</time></trkpt><trkpt lat="42.6666167" lon="-8.6812233"><ele>171.0</ele><time>2026-04-17T12:39:28.912Z</time></trkpt><trkpt lat="42.6666167" lon="-8.6813167"><ele>171.0</ele><time>2026-04-17T12:39:29.913Z</time></trkpt><trkpt lat="42.6666067" lon="-8.6814083"><ele>169.33333333333334</ele><time>2026-04-17T12:39:30.912Z</time></trkpt><trkpt lat="42.6666033" lon="-8.6815017"><ele>167.66666666666666</ele><time>2026-04-17T12:39:31.912Z</time></trkpt><trkpt lat="42.6666067" lon="-8.6816"><ele>166.0</ele><time>2026-04-17T12:39:32.913Z</time></trkpt><trkpt lat="42.6666133" lon="-8.68171"><ele>164.33333333333331</ele><time>2026-04-17T12:39:33.912Z</time></trkpt><trkpt lat="42.6666217" lon="-8.6818083"><ele>162.66666666666666</ele><time>2026-04-17T12:39:34.912Z</time></trkpt><trkpt lat="42.6666267" lon="-8.6819083"><ele>161.0</ele><time>2026-04-17T12:39:35.912Z</time></trkpt><trkpt lat="42.6666367" lon="-8.6820317"><ele>159.85714285714286</ele><time>2026-04-17T12:39:36.913Z</time></trkpt><trkpt lat="42.6666417" lon="-8.6821367"><ele>158.71428571428572</ele><time>2026-04-17T12:39:37.913Z</time></trkpt><trkpt lat="42.6666517" lon="-8.6822317"><ele>157.57142857142856</ele><time>2026-04-17T12:39:38.913Z</time></trkpt><trkpt lat="42.66666" lon="-8.682325"><ele>156.42857142857144</ele><time>2026-04-17T12:39:39.912Z</time></trkpt><trkpt lat="42.6666683" lon="-8.6824233"><ele>155.28571428571428</ele><time>2026-04-17T12:39:40.912Z</time></trkpt><trkpt lat="42.66668" lon="-8.6825333"><ele>154.14285714285714</ele><time>2026-04-17T12:39:41.913Z</time></trkpt><trkpt lat="42.66669" lon="-8.6826317"><ele>153.0</ele><time>2026-04-17T12:39:42.912Z</time></trkpt><trkpt lat="42.6666983" lon="-8.6827217"><ele>151.4</ele><time>2026-04-17T12:39:43.913Z</time></trkpt><trkpt lat="42.6667033" lon="-8.6828117"><ele>149.8</ele><time>2026-04-17T12:39:44.913Z</time></trkpt><trkpt lat="42.6667" lon="-8.682955"><ele>148.2</ele><time>2026-04-17T12:39:46.913Z</time></trkpt><trkpt lat="42.6666467" lon="-8.6830133"><ele>146.6</ele><time>2026-04-17T12:39:48.912Z</time></trkpt><trkpt lat="42.666545" lon="-8.6829983"><ele>145.0</ele><time>2026-04-17T12:39:50.913Z</time></trkpt><trkpt lat="42.6664183" lon="-8.6829733"><ele>145.0</ele><time>2026-04-17T12:39:52.913Z</time></trkpt><trkpt lat="42.666355" lon="-8.68296"><ele>145.0</ele><time>2026-04-17T12:39:53.913Z</time></trkpt><trkpt lat="42.6662433" lon="-8.682935"><ele>145.0</ele><time>2026-04-17T12:39:55.913Z</time></trkpt><trkpt lat="42.66616" lon="-8.6829317"><ele>145.0</ele><time>2026-04-17T12:39:57.913Z</time></trkpt><trkpt lat="42.6660933" lon="-8.6829683"><ele>145.0</ele><time>2026-04-17T12:40:05.912Z</time></trkpt><trkpt lat="42.666195" lon="-8.682935"><ele>145.0</ele><time>2026-04-17T12:40:08.913Z</time></trkpt><trkpt lat="42.6662767" lon="-8.6829533"><ele>145.0</ele><time>2026-04-17T12:40:09.912Z</time></trkpt><trkpt lat="42.666365" lon="-8.6829867"><ele>145.0</ele><time>2026-04-17T12:40:10.912Z</time></trkpt><trkpt lat="42.666445" lon="-8.683015"><ele>145.0</ele><time>2026-04-17T12:40:11.912Z</time></trkpt><trkpt lat="42.66651" lon="-8.683045"><ele>145.0</ele><time>2026-04-17T12:40:12.913Z</time></trkpt><trkpt lat="42.6665833" lon="-8.6831383"><ele>145.0</ele><time>2026-04-17T12:40:14.912Z</time></trkpt><trkpt lat="42.6666367" lon="-8.6833117"><ele>145.0</ele><time>2026-04-17T12:40:16.913Z</time></trkpt><trkpt lat="42.66668" lon="-8.683445"><ele>145.0</ele><time>2026-04-17T12:40:17.912Z</time></trkpt><trkpt lat="42.66673" lon="-8.6835967"><ele>145.0</ele><time>2026-04-17T12:40:18.912Z</time></trkpt><trkpt lat="42.66678" lon="-8.6837483"><ele>145.0</ele><time>2026-04-17T12:40:19.912Z</time></trkpt><trkpt lat="42.6668317" lon="-8.683895"><ele>145.75</ele><time>2026-04-17T12:40:20.912Z</time></trkpt><trkpt lat="42.6668833" lon="-8.6840483"><ele>146.5</ele><time>2026-04-17T12:40:21.913Z</time></trkpt><trkpt lat="42.6669417" lon="-8.684215"><ele>147.25</ele><time>2026-04-17T12:40:22.913Z</time></trkpt><trkpt lat="42.667" lon="-8.684375"><ele>148.0</ele><time>2026-04-17T12:40:23.913Z</time></trkpt><trkpt lat="42.6670617" lon="-8.6845183"><ele>149.5</ele><time>2026-04-17T12:40:24.912Z</time></trkpt><trkpt lat="42.667135" lon="-8.6846483"><ele>151.0</ele><time>2026-04-17T12:40:25.913Z</time></trkpt><trkpt lat="42.6672133" lon="-8.6847433"><ele>152.5</ele><time>2026-04-17T12:40:26.913Z</time></trkpt><trkpt lat="42.66734" lon="-8.6848583"><ele>154.0</ele><time>2026-04-17T12:40:27.912Z</time></trkpt><trkpt lat="42.6674717" lon="-8.6849517"><ele>154.0</ele><time>2026-04-17T12:40:28.913Z</time></trkpt><trkpt lat="42.6675967" lon="-8.685055"><ele>154.0</ele><time>2026-04-17T12:40:29.912Z</time></trkpt><trkpt lat="42.6677083" lon="-8.685155"><ele>154.0</ele><time>2026-04-17T12:40:30.912Z</time></trkpt><trkpt lat="42.6678067" lon="-8.6852667"><ele>154.0</ele><time>2026-04-17T12:40:31.912Z</time></trkpt><trkpt lat="42.6679033" lon="-8.6853833"><ele>154.0</ele><time>2026-04-17T12:40:32.913Z</time></trkpt><trkpt lat="42.6679933" lon="-8.68551"><ele>154.0</ele><time>2026-04-17T12:40:33.913Z</time></trkpt><trkpt lat="42.66808" lon="-8.68563"><ele>154.0</ele><time>2026-04-17T12:40:34.912Z</time></trkpt><trkpt lat="42.6681717" lon="-8.6857517"><ele>154.0</ele><time>2026-04-17T12:40:35.913Z</time></trkpt><trkpt lat="42.6682633" lon="-8.6858533"><ele>154.0</ele><time>2026-04-17T12:40:36.913Z</time></trkpt><trkpt lat="42.66836" lon="-8.6859183"><ele>154.0</ele><time>2026-04-17T12:40:37.913Z</time></trkpt><trkpt lat="42.6684817" lon="-8.68597"><ele>154.0</ele><time>2026-04-17T12:40:38.913Z</time></trkpt><trkpt lat="42.6686167" lon="-8.6859983"><ele>154.0</ele><time>2026-04-17T12:40:39.912Z</time></trkpt><trkpt lat="42.6687517" lon="-8.686015"><ele>154.83333333333334</ele><time>2026-04-17T12:40:40.912Z</time></trkpt><trkpt lat="42.66887" lon="-8.686045"><ele>155.66666666666669</ele><time>2026-04-17T12:40:41.913Z</time></trkpt><trkpt lat="42.6689483" lon="-8.6860883"><ele>156.5</ele><time>2026-04-17T12:40:42.913Z</time></trkpt><trkpt lat="42.669005" lon="-8.6861367"><ele>157.33333333333334</ele><time>2026-04-17T12:40:43.913Z</time></trkpt><trkpt lat="42.669055" lon="-8.6862167"><ele>158.16666666666666</ele><time>2026-04-17T12:40:44.913Z</time></trkpt><trkpt lat="42.66911" lon="-8.6863267"><ele>159.0</ele><time>2026-04-17T12:40:45.913Z</time></trkpt><trkpt lat="42.6691667" lon="-8.6864667"><ele>159.0</ele><time>2026-04-17T12:40:46.913Z</time></trkpt><trkpt lat="42.6692367" lon="-8.6866183"><ele>159.0</ele><time>2026-04-17T12:40:47.913Z</time></trkpt><trkpt lat="42.66931" lon="-8.68675"><ele>159.0</ele><time>2026-04-17T12:40:48.913Z</time></trkpt><trkpt lat="42.66938" lon="-8.68687"><ele>159.0</ele><time>2026-04-17T12:40:49.912Z</time></trkpt><trkpt lat="42.6694533" lon="-8.6869717"><ele>160.6</ele><time>2026-04-17T12:40:50.912Z</time></trkpt><trkpt lat="42.6695383" lon="-8.68704"><ele>162.2</ele><time>2026-04-17T12:40:51.912Z</time></trkpt><trkpt lat="42.6696467" lon="-8.6870917"><ele>163.79999999999998</ele><time>2026-04-17T12:40:52.913Z</time></trkpt><trkpt lat="42.6697533" lon="-8.6871433"><ele>165.4</ele><time>2026-04-17T12:40:53.912Z</time></trkpt><trkpt lat="42.66982" lon="-8.68719"><ele>167.0</ele><time>2026-04-17T12:40:54.913Z</time></trkpt><trkpt lat="42.6698567" lon="-8.6872683"><ele>167.0</ele><time>2026-04-17T12:40:56.912Z</time></trkpt><trkpt lat="42.6697567" lon="-8.68738"><ele>167.0</ele><time>2026-04-17T12:40:58.912Z</time></trkpt><trkpt lat="42.6696533" lon="-8.6874783"><ele>167.0</ele><time>2026-04-17T12:40:59.912Z</time></trkpt><trkpt lat="42.669555" lon="-8.6876067"><ele>167.0</ele><time>2026-04-17T12:41:00.912Z</time></trkpt><trkpt lat="42.6694767" lon="-8.6877733"><ele>162.0</ele><time>2026-04-17T12:41:01.912Z</time></trkpt><trkpt lat="42.6694133" lon="-8.687955"><ele>157.0</ele><time>2026-04-17T12:41:02.912Z</time></trkpt><trkpt lat="42.6693617" lon="-8.6881267"><ele>152.0</ele><time>2026-04-17T12:41:03.912Z</time></trkpt><trkpt lat="42.669345" lon="-8.6883017"><ele>147.0</ele><time>2026-04-17T12:41:04.913Z</time></trkpt><trkpt lat="42.66938" lon="-8.688495"><ele>145.75</ele><time>2026-04-17T12:41:05.912Z</time></trkpt><trkpt lat="42.6694117" lon="-8.6886717"><ele>144.5</ele><time>2026-04-17T12:41:06.912Z</time></trkpt><trkpt lat="42.66946" lon="-8.688845"><ele>143.25</ele><time>2026-04-17T12:41:07.912Z</time></trkpt><trkpt lat="42.66951" lon="-8.6890183"><ele>142.0</ele><time>2026-04-17T12:41:08.913Z</time></trkpt><trkpt lat="42.6695583" lon="-8.689175"><ele>143.0</ele><time>2026-04-17T12:41:09.913Z</time></trkpt><trkpt lat="42.6695933" lon="-8.689315"><ele>144.0</ele><time>2026-04-17T12:41:10.912Z</time></trkpt><trkpt lat="42.6696033" lon="-8.6894333"><ele>145.0</ele><time>2026-04-17T12:41:11.912Z</time></trkpt><trkpt lat="42.66961" lon="-8.6895333"><ele>146.0</ele><time>2026-04-17T12:41:12.912Z</time></trkpt><trkpt lat="42.6696117" lon="-8.6896767"><ele>147.0</ele><time>2026-04-17T12:41:14.913Z</time></trkpt><trkpt lat="42.6696767" lon="-8.6897617"><ele>147.0</ele><time>2026-04-17T12:41:16.913Z</time></trkpt><trkpt lat="42.66981" lon="-8.689845"><ele>147.0</ele><time>2026-04-17T12:41:18.913Z</time></trkpt><trkpt lat="42.6698983" lon="-8.6898933"><ele>147.0</ele><time>2026-04-17T12:41:19.913Z</time></trkpt><trkpt lat="42.6699667" lon="-8.68994"><ele>147.0</ele><time>2026-04-17T12:41:20.913Z</time></trkpt><trkpt lat="42.6700217" lon="-8.689995"><ele>147.0</ele><time>2026-04-17T12:41:21.913Z</time></trkpt><trkpt lat="42.6700617" lon="-8.690065"><ele>147.0</ele><time>2026-04-17T12:41:22.912Z</time></trkpt><trkpt lat="42.67008" lon="-8.6901767"><ele>147.0</ele><time>2026-04-17T12:41:23.912Z</time></trkpt><trkpt lat="42.6700833" lon="-8.6903367"><ele>147.0</ele><time>2026-04-17T12:41:24.913Z</time></trkpt><trkpt lat="42.6700883" lon="-8.6905183"><ele>147.0</ele><time>2026-04-17T12:41:25.912Z</time></trkpt><trkpt lat="42.6700933" lon="-8.6907217"><ele>144.75</ele><time>2026-04-17T12:41:26.912Z</time></trkpt><trkpt lat="42.67011" lon="-8.6908967"><ele>142.5</ele><time>2026-04-17T12:41:27.913Z</time></trkpt><trkpt lat="42.6701483" lon="-8.69104"><ele>140.25</ele><time>2026-04-17T12:41:28.913Z</time></trkpt><trkpt lat="42.6702183" lon="-8.6911717"><ele>138.0</ele><time>2026-04-17T12:41:29.913Z</time></trkpt><trkpt lat="42.6703083" lon="-8.6912733"><ele>138.0</ele><time>2026-04-17T12:41:30.913Z</time></trkpt><trkpt lat="42.6704083" lon="-8.6913467"><ele>138.0</ele><time>2026-04-17T12:41:31.913Z</time></trkpt><trkpt lat="42.670525" lon="-8.69139"><ele>138.0</ele><time>2026-04-17T12:41:32.912Z</time></trkpt><trkpt lat="42.670655" lon="-8.6914117"><ele>138.0</ele><time>2026-04-17T12:41:33.912Z</time></trkpt><trkpt lat="42.6707933" lon="-8.69143"><ele>138.0</ele><time>2026-04-17T12:41:34.913Z</time></trkpt><trkpt lat="42.6709483" lon="-8.6914467"><ele>138.0</ele><time>2026-04-17T12:41:35.912Z</time></trkpt><trkpt lat="42.6711017" lon="-8.6914617"><ele>138.0</ele><time>2026-04-17T12:41:36.913Z</time></trkpt><trkpt lat="42.6712333" lon="-8.69148"><ele>138.0</ele><time>2026-04-17T12:41:37.912Z</time></trkpt><trkpt lat="42.6713667" lon="-8.6915033"><ele>139.0</ele><time>2026-04-17T12:41:38.912Z</time></trkpt><trkpt lat="42.671485" lon="-8.6915133"><ele>140.0</ele><time>2026-04-17T12:41:39.912Z</time></trkpt><trkpt lat="42.6715717" lon="-8.6915117"><ele>141.0</ele><time>2026-04-17T12:41:40.912Z</time></trkpt><trkpt lat="42.671665" lon="-8.6914917"><ele>142.0</ele><time>2026-04-17T12:41:42.912Z</time></trkpt><trkpt lat="42.67172" lon="-8.6914333"><ele>143.0</ele><time>2026-04-17T12:41:44.913Z</time></trkpt><trkpt lat="42.6718067" lon="-8.69128"><ele>143.0</ele><time>2026-04-17T12:41:46.912Z</time></trkpt><trkpt lat="42.6718533" lon="-8.6911733"><ele>143.0</ele><time>2026-04-17T12:41:47.912Z</time></trkpt><trkpt lat="42.6718917" lon="-8.691045"><ele>143.0</ele><time>2026-04-17T12:41:48.912Z</time></trkpt><trkpt lat="42.6719183" lon="-8.690895"><ele>143.0</ele><time>2026-04-17T12:41:49.913Z</time></trkpt><trkpt lat="42.6698983" lon="-8.6898933"><ele>143.66666666666666</ele><time>2026-04-17T12:41:19.913Z</time></trkpt><trkpt lat="42.6699667" lon="-8.68994"><ele>144.33333333333331</ele><time>2026-04-17T12:41:20.913Z</time></trkpt><trkpt lat="42.6700217" lon="-8.689995"><ele>145.0</ele><time>2026-04-17T12:41:21.913Z</time></trkpt><trkpt lat="42.6700617" lon="-8.690065"><ele>145.66666666666666</ele><time>2026-04-17T12:41:22.912Z</time></trkpt><trkpt lat="42.67008" lon="-8.6901767"><ele>146.33333333333334</ele><time>2026-04-17T12:41:23.912Z</time></trkpt><trkpt lat="42.6700833" lon="-8.6903367"><ele>147.0</ele><time>2026-04-17T12:41:24.913Z</time></trkpt><trkpt lat="42.6700883" lon="-8.6905183"><ele>144.5</ele><time>2026-04-17T12:41:25.912Z</time></trkpt><trkpt lat="42.6700933" lon="-8.6907217"><ele>142.0</ele><time>2026-04-17T12:41:26.912Z</time></trkpt><trkpt lat="42.67011" lon="-8.6908967"><ele>139.5</ele><time>2026-04-17T12:41:27.913Z</time></trkpt><trkpt lat="42.6701483" lon="-8.69104"><ele>137.0</ele><time>2026-04-17T12:41:28.913Z</time></trkpt><trkpt lat="42.6702183" lon="-8.6911717"><ele>137.25</ele><time>2026-04-17T12:41:29.913Z</time></trkpt><trkpt lat="42.6703083" lon="-8.6912733"><ele>137.5</ele><time>2026-04-17T12:41:30.913Z</time></trkpt><trkpt lat="42.6704083" lon="-8.6913467"><ele>137.75</ele><time>2026-04-17T12:41:31.913Z</time></trkpt><trkpt lat="42.670525" lon="-8.69139"><ele>138.0</ele><time>2026-04-17T12:41:32.912Z</time></trkpt><trkpt lat="42.670655" lon="-8.6914117"><ele>138.0</ele><time>2026-04-17T12:41:33.912Z</time></trkpt><trkpt lat="42.6707933" lon="-8.69143"><ele>138.0</ele><time>2026-04-17T12:41:34.913Z</time></trkpt><trkpt lat="42.6709483" lon="-8.6914467"><ele>138.0</ele><time>2026-04-17T12:41:35.912Z</time></trkpt><trkpt lat="42.6711017" lon="-8.6914617"><ele>138.0</ele><time>2026-04-17T12:41:36.913Z</time></trkpt><trkpt lat="42.6712333" lon="-8.69148"><ele>139.0</ele><time>2026-04-17T12:41:37.912Z</time></trkpt><trkpt lat="42.6713667" lon="-8.6915033"><ele>140.0</ele><time>2026-04-17T12:41:38.912Z</time></trkpt><trkpt lat="42.671485" lon="-8.6915133"><ele>141.0</ele><time>2026-04-17T12:41:39.912Z</time></trkpt><trkpt lat="42.6715717" lon="-8.6915117"><ele>142.0</ele><time>2026-04-17T12:41:40.912Z</time></trkpt><trkpt lat="42.671665" lon="-8.6914917"><ele>143.0</ele><time>2026-04-17T12:41:42.912Z</time></trkpt><trkpt lat="42.67172" lon="-8.6914333"><ele>143.0</ele><time>2026-04-17T12:41:44.913Z</time></trkpt><trkpt lat="42.6718067" lon="-8.69128"><ele>143.0</ele><time>2026-04-17T12:41:46.912Z</time></trkpt><trkpt lat="42.6718533" lon="-8.6911733"><ele>143.0</ele><time>2026-04-17T12:41:47.912Z</time></trkpt><trkpt lat="42.6718917" lon="-8.691045"><ele>143.0</ele><time>2026-04-17T12:41:48.912Z</time></trkpt><trkpt lat="42.6719183" lon="-8.690895"><ele>143.0</ele><time>2026-04-17T12:41:49.913Z</time></trkpt><trkpt lat="42.6719533" lon="-8.69073"><ele>145.4</ele><time>2026-04-17T12:41:50.912Z</time></trkpt><trkpt lat="42.6719983" lon="-8.6905817"><ele>147.8</ele><time>2026-04-17T12:41:51.912Z</time></trkpt><trkpt lat="42.6720617" lon="-8.6904533"><ele>150.2</ele><time>2026-04-17T12:41:52.913Z</time></trkpt><trkpt lat="42.6721267" lon="-8.69035"><ele>152.6</ele><time>2026-04-17T12:41:53.913Z</time></trkpt><trkpt lat="42.672195" lon="-8.6902667"><ele>155.0</ele><time>2026-04-17T12:41:54.912Z</time></trkpt><trkpt lat="42.6722733" lon="-8.690205"><ele>158.25</ele><time>2026-04-17T12:41:55.912Z</time></trkpt><trkpt lat="42.6723717" lon="-8.690165"><ele>161.5</ele><time>2026-04-17T12:41:56.913Z</time></trkpt><trkpt lat="42.6724917" lon="-8.6901517"><ele>164.75</ele><time>2026-04-17T12:41:57.912Z</time></trkpt><trkpt lat="42.6726217" lon="-8.690165"><ele>168.0</ele><time>2026-04-17T12:41:58.912Z</time></trkpt><trkpt lat="42.6727567" lon="-8.6901867"><ele>170.75</ele><time>2026-04-17T12:41:59.912Z</time></trkpt><trkpt lat="42.6728917" lon="-8.6901983"><ele>173.5</ele><time>2026-04-17T12:42:00.913Z</time></trkpt><trkpt lat="42.673025" lon="-8.690195"><ele>176.25</ele><time>2026-04-17T12:42:01.912Z</time></trkpt><trkpt lat="42.67314" lon="-8.690185"><ele>179.0</ele><time>2026-04-17T12:42:02.913Z</time></trkpt><trkpt lat="42.6732333" lon="-8.6901717"><ele>179.0</ele><time>2026-04-17T12:42:03.913Z</time></trkpt><trkpt lat="42.673305" lon="-8.690095"><ele>179.0</ele><time>2026-04-17T12:42:05.912Z</time></trkpt><trkpt lat="42.6732783" lon="-8.6899383"><ele>179.0</ele><time>2026-04-17T12:42:07.912Z</time></trkpt><trkpt lat="42.6732317" lon="-8.6897883"><ele>179.0</ele><time>2026-04-17T12:42:09.912Z</time></trkpt><trkpt lat="42.6731" lon="-8.6895533"><ele>183.0</ele><time>2026-04-17T12:42:11.913Z</time></trkpt><trkpt lat="42.6730133" lon="-8.68938"><ele>187.0</ele><time>2026-04-17T12:42:12.913Z</time></trkpt><trkpt lat="42.672945" lon="-8.6892117"><ele>191.0</ele><time>2026-04-17T12:42:13.913Z</time></trkpt><trkpt lat="42.6729017" lon="-8.6890633"><ele>195.0</ele><time>2026-04-17T12:42:14.912Z</time></trkpt><trkpt lat="42.6728917" lon="-8.6889317"><ele>195.0</ele><time>2026-04-17T12:42:15.913Z</time></trkpt><trkpt lat="42.67292" lon="-8.6888117"><ele>195.0</ele><time>2026-04-17T12:42:16.912Z</time></trkpt><trkpt lat="42.672965" lon="-8.6886917"><ele>195.0</ele><time>2026-04-17T12:42:17.912Z</time></trkpt><trkpt lat="42.6730367" lon="-8.6885667"><ele>195.0</ele><time>2026-04-17T12:42:18.912Z</time></trkpt><trkpt lat="42.673105" lon="-8.688455"><ele>195.0</ele><time>2026-04-17T12:42:19.912Z</time></trkpt><trkpt lat="42.6731783" lon="-8.68836"><ele>196.75</ele><time>2026-04-17T12:42:20.913Z</time></trkpt><trkpt lat="42.6732633" lon="-8.6882867"><ele>198.5</ele><time>2026-04-17T12:42:21.912Z</time></trkpt><trkpt lat="42.67336" lon="-8.6882167"><ele>200.25</ele><time>2026-04-17T12:42:22.912Z</time></trkpt><trkpt lat="42.6734667" lon="-8.6881417"><ele>202.0</ele><time>2026-04-17T12:42:23.912Z</time></trkpt><trkpt lat="42.67358" lon="-8.6880617"><ele>204.8</ele><time>2026-04-17T12:42:24.913Z</time></trkpt><trkpt lat="42.673685" lon="-8.6880083"><ele>207.6</ele><time>2026-04-17T12:42:25.912Z</time></trkpt><trkpt lat="42.6737783" lon="-8.687985"><ele>210.40000000000003</ele><time>2026-04-17T12:42:26.913Z</time></trkpt><trkpt lat="42.6738617" lon="-8.68802"><ele>213.20000000000002</ele><time>2026-04-17T12:42:27.912Z</time></trkpt><trkpt lat="42.6739333" lon="-8.68809"><ele>216.0</ele><time>2026-04-17T12:42:28.913Z</time></trkpt><trkpt lat="42.6739983" lon="-8.6881817"><ele>216.0</ele><time>2026-04-17T12:42:29.912Z</time></trkpt><trkpt lat="42.674065" lon="-8.6882733"><ele>216.00000000000003</ele><time>2026-04-17T12:42:30.912Z</time></trkpt><trkpt lat="42.6741217" lon="-8.6883483"><ele>216.00000000000003</ele><time>2026-04-17T12:42:31.912Z</time></trkpt><trkpt lat="42.6741467" lon="-8.6884467"><ele>216.0</ele><time>2026-04-17T12:42:33.912Z</time></trkpt><trkpt lat="42.6741467" lon="-8.68833"><ele>216.0</ele><time>2026-04-17T12:42:38.912Z</time></trkpt><trkpt lat="42.674225" lon="-8.6882183"><ele>216.0</ele><time>2026-04-17T12:42:40.913Z</time></trkpt><trkpt lat="42.674305" lon="-8.688165"><ele>216.00000000000003</ele><time>2026-04-17T12:42:41.913Z</time></trkpt><trkpt lat="42.674405" lon="-8.68811"><ele>216.00000000000003</ele><time>2026-04-17T12:42:42.912Z</time></trkpt><trkpt lat="42.6745117" lon="-8.688065"><ele>216.0</ele><time>2026-04-17T12:42:43.912Z</time></trkpt><trkpt lat="42.674625" lon="-8.6880017"><ele>216.0</ele><time>2026-04-17T12:42:44.913Z</time></trkpt><trkpt lat="42.6747433" lon="-8.6879283"><ele>217.25</ele><time>2026-04-17T12:42:45.912Z</time></trkpt><trkpt lat="42.67485" lon="-8.6878483"><ele>218.5</ele><time>2026-04-17T12:42:46.912Z</time></trkpt><trkpt lat="42.67496" lon="-8.6877517"><ele>219.75</ele><time>2026-04-17T12:42:47.912Z</time></trkpt><trkpt lat="42.6750733" lon="-8.687635"><ele>221.0</ele><time>2026-04-17T12:42:48.913Z</time></trkpt><trkpt lat="42.6751833" lon="-8.6874917"><ele>224.66666666666669</ele><time>2026-04-17T12:42:49.912Z</time></trkpt><trkpt lat="42.67532" lon="-8.6873233"><ele>228.33333333333331</ele><time>2026-04-17T12:42:50.913Z</time></trkpt><trkpt lat="42.6754567" lon="-8.6871517"><ele>232.0</ele><time>2026-04-17T12:42:51.913Z</time></trkpt><trkpt lat="42.6755967" lon="-8.68699"><ele>237.0</ele><time>2026-04-17T12:42:52.912Z</time></trkpt><trkpt lat="42.675745" lon="-8.6868233"><ele>242.0</ele><time>2026-04-17T12:42:53.912Z</time></trkpt><trkpt lat="42.6758933" lon="-8.6866683"><ele>247.0</ele><time>2026-04-17T12:42:54.913Z</time></trkpt><trkpt lat="42.6760333" lon="-8.68653"><ele>246.6</ele><time>2026-04-17T12:42:55.913Z</time></trkpt><trkpt lat="42.6761483" lon="-8.6864083"><ele>246.2</ele><time>2026-04-17T12:42:56.913Z</time></trkpt><trkpt lat="42.676235" lon="-8.6862983"><ele>245.8</ele><time>2026-04-17T12:42:57.912Z</time></trkpt><trkpt lat="42.6763" lon="-8.6862"><ele>245.4</ele><time>2026-04-17T12:42:58.913Z</time></trkpt><trkpt lat="42.676335" lon="-8.686095"><ele>245.0</ele><time>2026-04-17T12:42:59.913Z</time></trkpt><trkpt lat="42.6763383" lon="-8.6859867"><ele>247.75</ele><time>2026-04-17T12:43:00.913Z</time></trkpt><trkpt lat="42.6763383" lon="-8.685865"><ele>250.5</ele><time>2026-04-17T12:43:01.913Z</time></trkpt><trkpt lat="42.67633" lon="-8.6857167"><ele>253.25</ele><time>2026-04-17T12:43:02.912Z</time></trkpt><trkpt lat="42.6763133" lon="-8.6855567"><ele>256.0</ele><time>2026-04-17T12:43:03.913Z</time></trkpt><trkpt lat="42.6762933" lon="-8.6853783"><ele>259.66666666666663</ele><time>2026-04-17T12:43:04.912Z</time></trkpt><trkpt lat="42.676265" lon="-8.685135"><ele>263.3333333333333</ele><time>2026-04-17T12:43:05.912Z</time></trkpt><trkpt lat="42.67624" lon="-8.684915"><ele>267.0</ele><time>2026-04-17T12:43:06.912Z</time></trkpt><trkpt lat="42.6762183" lon="-8.68469"><ele>267.0</ele><time>2026-04-17T12:43:07.913Z</time></trkpt><trkpt lat="42.6761967" lon="-8.68446"><ele>267.0</ele><time>2026-04-17T12:43:08.913Z</time></trkpt><trkpt lat="42.676185" lon="-8.6842367"><ele>267.0</ele><time>2026-04-17T12:43:09.913Z</time></trkpt><trkpt lat="42.6761783" lon="-8.6840133"><ele>270.0</ele><time>2026-04-17T12:43:10.912Z</time></trkpt><trkpt lat="42.6761633" lon="-8.6837733"><ele>273.0</ele><time>2026-04-17T12:43:11.912Z</time></trkpt><trkpt lat="42.6761467" lon="-8.6835267"><ele>276.0</ele><time>2026-04-17T12:43:12.912Z</time></trkpt><trkpt lat="42.676105" lon="-8.6832833"><ele>279.5</ele><time>2026-04-17T12:43:13.912Z</time></trkpt><trkpt lat="42.6760683" lon="-8.6830483"><ele>283.0</ele><time>2026-04-17T12:43:14.913Z</time></trkpt><trkpt lat="42.6760383" lon="-8.6828517"><ele>286.5</ele><time>2026-04-17T12:43:15.912Z</time></trkpt><trkpt lat="42.6759933" lon="-8.6827167"><ele>290.0</ele><time>2026-04-17T12:43:16.913Z</time></trkpt><trkpt lat="42.675945" lon="-8.68264"><ele>295.0</ele><time>2026-04-17T12:43:17.913Z</time></trkpt><trkpt lat="42.67588" lon="-8.6826033"><ele>300.0</ele><time>2026-04-17T12:43:18.913Z</time></trkpt><trkpt lat="42.67485" lon="-8.6878483"><ele>284.0</ele><time>2026-04-17T12:42:46.912Z</time></trkpt><trkpt lat="42.67496" lon="-8.6877517"><ele>268.0</ele><time>2026-04-17T12:42:47.912Z</time></trkpt><trkpt lat="42.6750733" lon="-8.687635"><ele>252.0</ele><time>2026-04-17T12:42:48.913Z</time></trkpt><trkpt lat="42.6751833" lon="-8.6874917"><ele>236.0</ele><time>2026-04-17T12:42:49.912Z</time></trkpt><trkpt lat="42.67532" lon="-8.6873233"><ele>234.66666666666669</ele><time>2026-04-17T12:42:50.913Z</time></trkpt><trkpt lat="42.6754567" lon="-8.6871517"><ele>233.33333333333331</ele><time>2026-04-17T12:42:51.913Z</time></trkpt><trkpt lat="42.6755967" lon="-8.68699"><ele>232.0</ele><time>2026-04-17T12:42:52.912Z</time></trkpt><trkpt lat="42.675745" lon="-8.6868233"><ele>236.33333333333331</ele><time>2026-04-17T12:42:53.912Z</time></trkpt><trkpt lat="42.6758933" lon="-8.6866683"><ele>240.66666666666669</ele><time>2026-04-17T12:42:54.913Z</time></trkpt><trkpt lat="42.6760333" lon="-8.68653"><ele>245.0</ele><time>2026-04-17T12:42:55.913Z</time></trkpt><trkpt lat="42.6761483" lon="-8.6864083"><ele>245.0</ele><time>2026-04-17T12:42:56.913Z</time></trkpt><trkpt lat="42.676235" lon="-8.6862983"><ele>245.0</ele><time>2026-04-17T12:42:57.912Z</time></trkpt><trkpt lat="42.6763" lon="-8.6862"><ele>245.0</ele><time>2026-04-17T12:42:58.913Z</time></trkpt><trkpt lat="42.676335" lon="-8.686095"><ele>245.0</ele><time>2026-04-17T12:42:59.913Z</time></trkpt><trkpt lat="42.6763383" lon="-8.6859867"><ele>245.0</ele><time>2026-04-17T12:43:00.913Z</time></trkpt><trkpt lat="42.6763383" lon="-8.685865"><ele>247.75</ele><time>2026-04-17T12:43:01.913Z</time></trkpt><trkpt lat="42.67633" lon="-8.6857167"><ele>250.5</ele><time>2026-04-17T12:43:02.912Z</time></trkpt><trkpt lat="42.6763133" lon="-8.6855567"><ele>253.25</ele><time>2026-04-17T12:43:03.913Z</time></trkpt><trkpt lat="42.6762933" lon="-8.6853783"><ele>256.0</ele><time>2026-04-17T12:43:04.912Z</time></trkpt><trkpt lat="42.676265" lon="-8.685135"><ele>259.66666666666663</ele><time>2026-04-17T12:43:05.912Z</time></trkpt><trkpt lat="42.67624" lon="-8.684915"><ele>263.3333333333333</ele><time>2026-04-17T12:43:06.912Z</time></trkpt><trkpt lat="42.6762183" lon="-8.68469"><ele>267.0</ele><time>2026-04-17T12:43:07.913Z</time></trkpt><trkpt lat="42.6761967" lon="-8.68446"><ele>270.0</ele><time>2026-04-17T12:43:08.913Z</time></trkpt><trkpt lat="42.676185" lon="-8.6842367"><ele>273.0</ele><time>2026-04-17T12:43:09.913Z</time></trkpt><trkpt lat="42.6761783" lon="-8.6840133"><ele>276.0</ele><time>2026-04-17T12:43:10.912Z</time></trkpt><trkpt lat="42.6761633" lon="-8.6837733"><ele>276.0</ele><time>2026-04-17T12:43:11.912Z</time></trkpt><trkpt lat="42.6761467" lon="-8.6835267"><ele>276.0</ele><time>2026-04-17T12:43:12.912Z</time></trkpt><trkpt lat="42.676105" lon="-8.6832833"><ele>276.0</ele><time>2026-04-17T12:43:13.912Z</time></trkpt><trkpt lat="42.6760683" lon="-8.6830483"><ele>278.8</ele><time>2026-04-17T12:43:14.913Z</time></trkpt><trkpt lat="42.6760383" lon="-8.6828517"><ele>281.6</ele><time>2026-04-17T12:43:15.912Z</time></trkpt><trkpt lat="42.6759933" lon="-8.6827167"><ele>284.4</ele><time>2026-04-17T12:43:16.913Z</time></trkpt><trkpt lat="42.675945" lon="-8.68264"><ele>287.2</ele><time>2026-04-17T12:43:17.913Z</time></trkpt><trkpt lat="42.67588" lon="-8.6826033"><ele>290.0</ele><time>2026-04-17T12:43:18.913Z</time></trkpt><trkpt lat="42.675795" lon="-8.68261"><ele>292.5</ele><time>2026-04-17T12:43:19.913Z</time></trkpt><trkpt lat="42.67568" lon="-8.6826433"><ele>295.0</ele><time>2026-04-17T12:43:20.912Z</time></trkpt><trkpt lat="42.675545" lon="-8.6826833"><ele>297.5</ele><time>2026-04-17T12:43:21.913Z</time></trkpt><trkpt lat="42.675395" lon="-8.682705"><ele>300.0</ele><time>2026-04-17T12:43:22.912Z</time></trkpt><trkpt lat="42.675265" lon="-8.68273"><ele>299.6</ele><time>2026-04-17T12:43:23.912Z</time></trkpt><trkpt lat="42.6751517" lon="-8.6827517"><ele>299.2</ele><time>2026-04-17T12:43:24.912Z</time></trkpt><trkpt lat="42.6750633" lon="-8.682765"><ele>298.8</ele><time>2026-04-17T12:43:25.913Z</time></trkpt><trkpt lat="42.6749633" lon="-8.6827233"><ele>298.4</ele><time>2026-04-17T12:43:27.912Z</time></trkpt><trkpt lat="42.6749317" lon="-8.682625"><ele>298.0</ele><time>2026-04-17T12:43:29.912Z</time></trkpt><trkpt lat="42.6749617" lon="-8.6825433"><ele>300.5</ele><time>2026-04-17T12:43:30.912Z</time></trkpt><trkpt lat="42.6750367" lon="-8.682405"><ele>303.0</ele><time>2026-04-17T12:43:31.913Z</time></trkpt><trkpt lat="42.67515" lon="-8.682255"><ele>305.5</ele><time>2026-04-17T12:43:32.913Z</time></trkpt><trkpt lat="42.675255" lon="-8.682085"><ele>308.0</ele><time>2026-04-17T12:43:33.913Z</time></trkpt><trkpt lat="42.6753733" lon="-8.6818683"><ele>308.0</ele><time>2026-04-17T12:43:34.912Z</time></trkpt><trkpt lat="42.6754833" lon="-8.6816583"><ele>308.0</ele><time>2026-04-17T12:43:35.913Z</time></trkpt><trkpt lat="42.675605" lon="-8.6814517"><ele>308.0</ele><time>2026-04-17T12:43:36.913Z</time></trkpt><trkpt lat="42.6757317" lon="-8.6812617"><ele>311.0</ele><time>2026-04-17T12:43:37.912Z</time></trkpt><trkpt lat="42.6758433" lon="-8.6810533"><ele>314.0</ele><time>2026-04-17T12:43:38.912Z</time></trkpt><trkpt lat="42.6759517" lon="-8.68085"><ele>317.0</ele><time>2026-04-17T12:43:39.913Z</time></trkpt><trkpt lat="42.67604" lon="-8.6806667"><ele>312.5</ele><time>2026-04-17T12:43:40.912Z</time></trkpt><trkpt lat="42.6761133" lon="-8.6804883"><ele>308.0</ele><time>2026-04-17T12:43:41.913Z</time></trkpt><trkpt lat="42.6761783" lon="-8.6803017"><ele>303.5</ele><time>2026-04-17T12:43:42.912Z</time></trkpt><trkpt lat="42.6762267" lon="-8.68013"><ele>299.0</ele><time>2026-04-17T12:43:43.912Z</time></trkpt><trkpt lat="42.6762583" lon="-8.6799667"><ele>299.0</ele><time>2026-04-17T12:43:44.912Z</time></trkpt><trkpt lat="42.6762617" lon="-8.6797983"><ele>299.0</ele><time>2026-04-17T12:43:45.912Z</time></trkpt><trkpt lat="42.676245" lon="-8.6796183"><ele>299.0</ele><time>2026-04-17T12:43:46.913Z</time></trkpt><trkpt lat="42.676225" lon="-8.6794367"><ele>299.0</ele><time>2026-04-17T12:43:47.913Z</time></trkpt><trkpt lat="42.6762083" lon="-8.6792583"><ele>298.75</ele><time>2026-04-17T12:43:48.913Z</time></trkpt><trkpt lat="42.6761983" lon="-8.67909"><ele>298.5</ele><time>2026-04-17T12:43:49.913Z</time></trkpt><trkpt lat="42.6761917" lon="-8.678925"><ele>298.25</ele><time>2026-04-17T12:43:50.913Z</time></trkpt><trkpt lat="42.6761767" lon="-8.67876"><ele>298.0</ele><time>2026-04-17T12:43:51.913Z</time></trkpt><trkpt lat="42.6761483" lon="-8.6785983"><ele>298.0</ele><time>2026-04-17T12:43:52.912Z</time></trkpt><trkpt lat="42.6761133" lon="-8.6784467"><ele>298.0</ele><time>2026-04-17T12:43:53.912Z</time></trkpt><trkpt lat="42.6760683" lon="-8.67829"><ele>298.0</ele><time>2026-04-17T12:43:54.912Z</time></trkpt><trkpt lat="42.676015" lon="-8.6781117"><ele>298.0</ele><time>2026-04-17T12:43:55.912Z</time></trkpt><trkpt lat="42.6759467" lon="-8.677915"><ele>303.0</ele><time>2026-04-17T12:43:56.913Z</time></trkpt><trkpt lat="42.675875" lon="-8.677725"><ele>308.0</ele><time>2026-04-17T12:43:57.913Z</time></trkpt><trkpt lat="42.6758" lon="-8.6775533"><ele>313.0</ele><time>2026-04-17T12:43:58.913Z</time></trkpt><trkpt lat="42.6757083" lon="-8.6773967"><ele>313.0</ele><time>2026-04-17T12:43:59.913Z</time></trkpt><trkpt lat="42.6755983" lon="-8.6772433"><ele>313.0</ele><time>2026-04-17T12:44:00.913Z</time></trkpt><trkpt lat="42.67548" lon="-8.6770933"><ele>313.0</ele><time>2026-04-17T12:44:01.912Z</time></trkpt><trkpt lat="42.6753667" lon="-8.6769517"><ele>315.25</ele><time>2026-04-17T12:44:02.913Z</time></trkpt><trkpt lat="42.67526" lon="-8.6768133"><ele>317.5</ele><time>2026-04-17T12:44:03.913Z</time></trkpt><trkpt lat="42.675165" lon="-8.676675"><ele>319.75</ele><time>2026-04-17T12:44:04.913Z</time></trkpt><trkpt lat="42.6750817" lon="-8.67654"><ele>322.0</ele><time>2026-04-17T12:44:05.913Z</time></trkpt><trkpt lat="42.6749933" lon="-8.6764083"><ele>322.0</ele><time>2026-04-17T12:44:06.912Z</time></trkpt><trkpt lat="42.6748883" lon="-8.6762783"><ele>322.0</ele><time>2026-04-17T12:44:07.913Z</time></trkpt><trkpt lat="42.6747833" lon="-8.676155"><ele>322.0</ele><time>2026-04-17T12:44:08.913Z</time></trkpt><trkpt lat="42.6746783" lon="-8.6760383"><ele>322.0</ele><time>2026-04-17T12:44:09.913Z</time></trkpt><trkpt lat="42.6745683" lon="-8.6759217"><ele>321.0</ele><time>2026-04-17T12:44:10.913Z</time></trkpt><trkpt lat="42.6744567" lon="-8.6758033"><ele>320.0</ele><time>2026-04-17T12:44:11.912Z</time></trkpt><trkpt lat="42.674345" lon="-8.6756783"><ele>319.0</ele><time>2026-04-17T12:44:12.912Z</time></trkpt><trkpt lat="42.6742233" lon="-8.6755433"><ele>318.0</ele><time>2026-04-17T12:44:13.912Z</time></trkpt><trkpt lat="42.6741017" lon="-8.675405"><ele>313.25</ele><time>2026-04-17T12:44:14.913Z</time></trkpt><trkpt lat="42.67399" lon="-8.6752667"><ele>308.5</ele><time>2026-04-17T12:44:15.912Z</time></trkpt><trkpt lat="42.6738917" lon="-8.67513"><ele>303.75</ele><time>2026-04-17T12:44:16.912Z</time></trkpt><trkpt lat="42.6737983" lon="-8.6749933"><ele>299.0</ele><time>2026-04-17T12:44:17.912Z</time></trkpt><trkpt lat="42.6737083" lon="-8.6748517"><ele>299.0</ele><time>2026-04-17T12:44:18.913Z</time></trkpt><trkpt lat="42.6736217" lon="-8.67471"><ele>299.0</ele><time>2026-04-17T12:44:19.913Z</time></trkpt><trkpt lat="42.673535" lon="-8.6745833"><ele>299.0</ele><time>2026-04-17T12:44:20.912Z</time></trkpt><trkpt lat="42.6734433" lon="-8.67447"><ele>299.0</ele><time>2026-04-17T12:44:21.913Z</time></trkpt><trkpt lat="42.6733567" lon="-8.6743583"><ele>298.0</ele><time>2026-04-17T12:44:22.913Z</time></trkpt><trkpt lat="42.673285" lon="-8.6742417"><ele>297.0</ele><time>2026-04-17T12:44:23.912Z</time></trkpt><trkpt lat="42.6732183" lon="-8.674105"><ele>296.0</ele><time>2026-04-17T12:44:24.912Z</time></trkpt><trkpt lat="42.6731517" lon="-8.67395"><ele>295.0</ele><time>2026-04-17T12:44:25.912Z</time></trkpt><trkpt lat="42.6730833" lon="-8.673795"><ele>295.0</ele><time>2026-04-17T12:44:26.912Z</time></trkpt><trkpt lat="42.6729967" lon="-8.6736367"><ele>295.0</ele><time>2026-04-17T12:44:27.912Z</time></trkpt><trkpt lat="42.6729" lon="-8.6734717"><ele>295.0</ele><time>2026-04-17T12:44:28.912Z</time></trkpt><trkpt lat="42.67279" lon="-8.673315"><ele>293.25</ele><time>2026-04-17T12:44:29.912Z</time></trkpt><trkpt lat="42.67268" lon="-8.6731733"><ele>291.5</ele><time>2026-04-17T12:44:30.913Z</time></trkpt><trkpt lat="42.6725817" lon="-8.6730583"><ele>289.75</ele><time>2026-04-17T12:44:31.912Z</time></trkpt><trkpt lat="42.672505" lon="-8.67297"><ele>288.0</ele><time>2026-04-17T12:44:32.912Z</time></trkpt><trkpt lat="42.6724517" lon="-8.6728983"><ele>288.0</ele><time>2026-04-17T12:44:33.912Z</time></trkpt><trkpt lat="42.67239" lon="-8.67281"><ele>288.0</ele><time>2026-04-17T12:44:35.912Z</time></trkpt><trkpt lat="42.6722767" lon="-8.6728917"><ele>288.0</ele><time>2026-04-17T12:44:38.912Z</time></trkpt><trkpt lat="42.6722183" lon="-8.67294"><ele>288.0</ele><time>2026-04-17T12:44:39.912Z</time></trkpt><trkpt lat="42.672125" lon="-8.6729617"><ele>288.0</ele><time>2026-04-17T12:44:41.913Z</time></trkpt><trkpt lat="42.6720267" lon="-8.67285"><ele>287.75</ele><time>2026-04-17T12:44:43.912Z</time></trkpt><trkpt lat="42.6719667" lon="-8.672765"><ele>287.5</ele><time>2026-04-17T12:44:44.913Z</time></trkpt><trkpt lat="42.671905" lon="-8.6726767"><ele>287.25</ele><time>2026-04-17T12:44:45.913Z</time></trkpt><trkpt lat="42.671835" lon="-8.6725733"><ele>287.0</ele><time>2026-04-17T12:44:46.913Z</time></trkpt><trkpt lat="42.67399" lon="-8.6752667"><ele>290.0</ele><time>2026-04-17T12:44:15.912Z</time></trkpt><trkpt lat="42.6738917" lon="-8.67513"><ele>293.0</ele><time>2026-04-17T12:44:16.912Z</time></trkpt><trkpt lat="42.6737983" lon="-8.6749933"><ele>296.0</ele><time>2026-04-17T12:44:17.912Z</time></trkpt><trkpt lat="42.6737083" lon="-8.6748517"><ele>299.0</ele><time>2026-04-17T12:44:18.913Z</time></trkpt><trkpt lat="42.6736217" lon="-8.67471"><ele>298.0</ele><time>2026-04-17T12:44:19.913Z</time></trkpt><trkpt lat="42.673535" lon="-8.6745833"><ele>297.0</ele><time>2026-04-17T12:44:20.912Z</time></trkpt><trkpt lat="42.6734433" lon="-8.67447"><ele>296.0</ele><time>2026-04-17T12:44:21.913Z</time></trkpt><trkpt lat="42.6733567" lon="-8.6743583"><ele>295.0</ele><time>2026-04-17T12:44:22.913Z</time></trkpt><trkpt lat="42.673285" lon="-8.6742417"><ele>295.0</ele><time>2026-04-17T12:44:23.912Z</time></trkpt><trkpt lat="42.6732183" lon="-8.674105"><ele>295.0</ele><time>2026-04-17T12:44:24.912Z</time></trkpt><trkpt lat="42.6731517" lon="-8.67395"><ele>295.0</ele><time>2026-04-17T12:44:25.912Z</time></trkpt><trkpt lat="42.6730833" lon="-8.673795"><ele>295.0</ele><time>2026-04-17T12:44:26.912Z</time></trkpt><trkpt lat="42.6729967" lon="-8.6736367"><ele>292.66666666666663</ele><time>2026-04-17T12:44:27.912Z</time></trkpt><trkpt lat="42.6729" lon="-8.6734717"><ele>290.3333333333333</ele><time>2026-04-17T12:44:28.912Z</time></trkpt><trkpt lat="42.67279" lon="-8.673315"><ele>288.0</ele><time>2026-04-17T12:44:29.912Z</time></trkpt><trkpt lat="42.67268" lon="-8.6731733"><ele>288.0</ele><time>2026-04-17T12:44:30.913Z</time></trkpt><trkpt lat="42.6725817" lon="-8.6730583"><ele>288.0</ele><time>2026-04-17T12:44:31.912Z</time></trkpt><trkpt lat="42.672505" lon="-8.67297"><ele>288.0</ele><time>2026-04-17T12:44:32.912Z</time></trkpt><trkpt lat="42.6724517" lon="-8.6728983"><ele>288.0</ele><time>2026-04-17T12:44:33.912Z</time></trkpt><trkpt lat="42.67239" lon="-8.67281"><ele>288.0</ele><time>2026-04-17T12:44:35.912Z</time></trkpt><trkpt lat="42.6722767" lon="-8.6728917"><ele>288.0</ele><time>2026-04-17T12:44:38.912Z</time></trkpt><trkpt lat="42.6722183" lon="-8.67294"><ele>288.0</ele><time>2026-04-17T12:44:39.912Z</time></trkpt><trkpt lat="42.672125" lon="-8.6729617"><ele>288.0</ele><time>2026-04-17T12:44:41.913Z</time></trkpt><trkpt lat="42.6720267" lon="-8.67285"><ele>288.0</ele><time>2026-04-17T12:44:43.912Z</time></trkpt><trkpt lat="42.6719667" lon="-8.672765"><ele>288.0</ele><time>2026-04-17T12:44:44.913Z</time></trkpt><trkpt lat="42.671905" lon="-8.6726767"><ele>289.5</ele><time>2026-04-17T12:44:45.913Z</time></trkpt><trkpt lat="42.671835" lon="-8.6725733"><ele>291.0</ele><time>2026-04-17T12:44:46.913Z</time></trkpt><trkpt lat="42.67175" lon="-8.6724467"><ele>292.5</ele><time>2026-04-17T12:44:47.912Z</time></trkpt><trkpt lat="42.6716567" lon="-8.6723067"><ele>294.0</ele><time>2026-04-17T12:44:48.913Z</time></trkpt><trkpt lat="42.67155" lon="-8.6721567"><ele>294.0</ele><time>2026-04-17T12:44:49.912Z</time></trkpt><trkpt lat="42.6714583" lon="-8.6720033"><ele>294.0</ele><time>2026-04-17T12:44:50.912Z</time></trkpt><trkpt lat="42.67137" lon="-8.671855"><ele>294.0</ele><time>2026-04-17T12:44:51.912Z</time></trkpt><trkpt lat="42.6712833" lon="-8.6717133"><ele>294.0</ele><time>2026-04-17T12:44:52.913Z</time></trkpt><trkpt lat="42.6711917" lon="-8.6715783"><ele>298.0</ele><time>2026-04-17T12:44:53.912Z</time></trkpt><trkpt lat="42.6710983" lon="-8.67144"><ele>302.0</ele><time>2026-04-17T12:44:54.912Z</time></trkpt><trkpt lat="42.6710083" lon="-8.6713033"><ele>306.0</ele><time>2026-04-17T12:44:55.912Z</time></trkpt><trkpt lat="42.6709217" lon="-8.671175"><ele>310.0</ele><time>2026-04-17T12:44:56.913Z</time></trkpt><trkpt lat="42.67084" lon="-8.6710517"><ele>311.5</ele><time>2026-04-17T12:44:57.913Z</time></trkpt><trkpt lat="42.6707683" lon="-8.6709367"><ele>313.0</ele><time>2026-04-17T12:44:58.912Z</time></trkpt><trkpt lat="42.6707067" lon="-8.67083"><ele>314.5</ele><time>2026-04-17T12:44:59.913Z</time></trkpt><trkpt lat="42.6706733" lon="-8.6707267"><ele>316.0</ele><time>2026-04-17T12:45:00.913Z</time></trkpt><trkpt lat="42.6706617" lon="-8.670625"><ele>317.5</ele><time>2026-04-17T12:45:01.913Z</time></trkpt><trkpt lat="42.6706683" lon="-8.6705267"><ele>319.0</ele><time>2026-04-17T12:45:02.912Z</time></trkpt><trkpt lat="42.670695" lon="-8.670435"><ele>319.0</ele><time>2026-04-17T12:45:03.912Z</time></trkpt><trkpt lat="42.6707267" lon="-8.670335"><ele>319.0</ele><time>2026-04-17T12:45:04.912Z</time></trkpt><trkpt lat="42.6707467" lon="-8.6702383"><ele>319.0</ele><time>2026-04-17T12:45:05.913Z</time></trkpt><trkpt lat="42.6707467" lon="-8.67015"><ele>319.0</ele><time>2026-04-17T12:45:06.913Z</time></trkpt><trkpt lat="42.6706917" lon="-8.6700183"><ele>319.0</ele><time>2026-04-17T12:45:08.914Z</time></trkpt><trkpt lat="42.670625" lon="-8.6699783"><ele>319.0</ele><time>2026-04-17T12:45:09.913Z</time></trkpt><trkpt lat="42.67053" lon="-8.6699483"><ele>319.6</ele><time>2026-04-17T12:45:10.913Z</time></trkpt><trkpt lat="42.67042" lon="-8.66992"><ele>320.2</ele><time>2026-04-17T12:45:11.914Z</time></trkpt><trkpt lat="42.6703233" lon="-8.66991"><ele>320.8</ele><time>2026-04-17T12:45:12.913Z</time></trkpt><trkpt lat="42.67023" lon="-8.6699383"><ele>321.40000000000003</ele><time>2026-04-17T12:45:13.914Z</time></trkpt><trkpt lat="42.67013" lon="-8.6699867"><ele>322.0</ele><time>2026-04-17T12:45:14.914Z</time></trkpt><trkpt lat="42.6700183" lon="-8.67002"><ele>324.25</ele><time>2026-04-17T12:45:15.914Z</time></trkpt><trkpt lat="42.669905" lon="-8.6700317"><ele>326.5</ele><time>2026-04-17T12:45:16.914Z</time></trkpt><trkpt lat="42.6697933" lon="-8.67001"><ele>328.75</ele><time>2026-04-17T12:45:17.913Z</time></trkpt><trkpt lat="42.6696817" lon="-8.6699617"><ele>331.0</ele><time>2026-04-17T12:45:18.914Z</time></trkpt><trkpt lat="42.6695733" lon="-8.669905"><ele>331.0</ele><time>2026-04-17T12:45:19.913Z</time></trkpt><trkpt lat="42.669475" lon="-8.6698433"><ele>331.0</ele><time>2026-04-17T12:45:20.914Z</time></trkpt><trkpt lat="42.6693817" lon="-8.6697733"><ele>331.0</ele><time>2026-04-17T12:45:21.914Z</time></trkpt><trkpt lat="42.66928" lon="-8.66971"><ele>331.0</ele><time>2026-04-17T12:45:22.914Z</time></trkpt><trkpt lat="42.6691667" lon="-8.6696633"><ele>331.0</ele><time>2026-04-17T12:45:23.913Z</time></trkpt><trkpt lat="42.6690567" lon="-8.6696117"><ele>331.0</ele><time>2026-04-17T12:45:24.914Z</time></trkpt><trkpt lat="42.6689433" lon="-8.669545"><ele>331.0</ele><time>2026-04-17T12:45:25.914Z</time></trkpt><trkpt lat="42.66882" lon="-8.6694617"><ele>331.0</ele><time>2026-04-17T12:45:26.914Z</time></trkpt><trkpt lat="42.6686967" lon="-8.6693783"><ele>331.0</ele><time>2026-04-17T12:45:27.913Z</time></trkpt><trkpt lat="42.66859" lon="-8.669305"><ele>331.0</ele><time>2026-04-17T12:45:28.914Z</time></trkpt><trkpt lat="42.6685017" lon="-8.6692533"><ele>331.0</ele><time>2026-04-17T12:45:29.914Z</time></trkpt><trkpt lat="42.6684217" lon="-8.6692133"><ele>331.0</ele><time>2026-04-17T12:45:30.913Z</time></trkpt><trkpt lat="42.6683417" lon="-8.6691717"><ele>331.0</ele><time>2026-04-17T12:45:31.913Z</time></trkpt><trkpt lat="42.66826" lon="-8.6691283"><ele>331.0</ele><time>2026-04-17T12:45:32.913Z</time></trkpt><trkpt lat="42.6681617" lon="-8.6690783"><ele>331.0</ele><time>2026-04-17T12:45:33.913Z</time></trkpt><trkpt lat="42.668055" lon="-8.6690183"><ele>331.0</ele><time>2026-04-17T12:45:34.913Z</time></trkpt><trkpt lat="42.66795" lon="-8.6689533"><ele>331.0</ele><time>2026-04-17T12:45:35.913Z</time></trkpt><trkpt lat="42.6678517" lon="-8.6689"><ele>331.0</ele><time>2026-04-17T12:45:36.913Z</time></trkpt><trkpt lat="42.6677617" lon="-8.6688633"><ele>331.0</ele><time>2026-04-17T12:45:37.914Z</time></trkpt><trkpt lat="42.6676767" lon="-8.668845"><ele>331.0</ele><time>2026-04-17T12:45:39.913Z</time></trkpt><trkpt lat="42.6677633" lon="-8.668845"><ele>331.0</ele><time>2026-04-17T12:45:43.913Z</time></trkpt><trkpt lat="42.6678383" lon="-8.6688933"><ele>331.0</ele><time>2026-04-17T12:45:44.913Z</time></trkpt><trkpt lat="42.6679317" lon="-8.66895"><ele>331.0</ele><time>2026-04-17T12:45:45.914Z</time></trkpt><trkpt lat="42.6680383" lon="-8.6690083"><ele>331.0</ele><time>2026-04-17T12:45:46.914Z</time></trkpt><trkpt lat="42.6681583" lon="-8.669075"><ele>331.0</ele><time>2026-04-17T12:45:47.913Z</time></trkpt><trkpt lat="42.66828" lon="-8.6691433"><ele>331.0</ele><time>2026-04-17T12:45:48.913Z</time></trkpt><trkpt lat="42.6683967" lon="-8.6692067"><ele>331.0</ele><time>2026-04-17T12:45:49.913Z</time></trkpt><trkpt lat="42.6685" lon="-8.6692617"><ele>331.0</ele><time>2026-04-17T12:45:50.914Z</time></trkpt><trkpt lat="42.6685883" lon="-8.6693133"><ele>331.0</ele><time>2026-04-17T12:45:51.913Z</time></trkpt><trkpt lat="42.668665" lon="-8.66936"><ele>331.0</ele><time>2026-04-17T12:45:52.914Z</time></trkpt><trkpt lat="42.6687383" lon="-8.6694033"><ele>331.0</ele><time>2026-04-17T12:45:53.914Z</time></trkpt><trkpt lat="42.6688283" lon="-8.669455"><ele>331.0</ele><time>2026-04-17T12:45:54.914Z</time></trkpt><trkpt lat="42.66892" lon="-8.6695117"><ele>331.0</ele><time>2026-04-17T12:45:55.913Z</time></trkpt><trkpt lat="42.6690083" lon="-8.6695733"><ele>331.0</ele><time>2026-04-17T12:45:56.914Z</time></trkpt><trkpt lat="42.6690917" lon="-8.6696267"><ele>331.0</ele><time>2026-04-17T12:45:57.914Z</time></trkpt><trkpt lat="42.6691683" lon="-8.6696733"><ele>331.0</ele><time>2026-04-17T12:45:58.913Z</time></trkpt><trkpt lat="42.669235" lon="-8.669715"><ele>331.0</ele><time>2026-04-17T12:45:59.913Z</time></trkpt><trkpt lat="42.6693083" lon="-8.6697767"><ele>331.0</ele><time>2026-04-17T12:46:01.914Z</time></trkpt><trkpt lat="42.6693733" lon="-8.669825"><ele>331.0</ele><time>2026-04-17T12:46:06.914Z</time></trkpt><trkpt lat="42.6694933" lon="-8.6698533"><ele>331.0</ele><time>2026-04-17T12:46:08.914Z</time></trkpt><trkpt lat="42.6695667" lon="-8.6698833"><ele>331.0</ele><time>2026-04-17T12:46:09.913Z</time></trkpt><trkpt lat="42.6696333" lon="-8.6699117"><ele>331.0</ele><time>2026-04-17T12:46:10.914Z</time></trkpt><trkpt lat="42.6696933" lon="-8.6699433"><ele>331.0</ele><time>2026-04-17T12:46:11.914Z</time></trkpt><trkpt lat="42.669785" lon="-8.6699967"><ele>331.0</ele><time>2026-04-17T12:46:13.913Z</time></trkpt><trkpt lat="42.6698433" lon="-8.6700367"><ele>331.0</ele><time>2026-04-17T12:46:15.914Z</time></trkpt><trkpt lat="42.6677633" lon="-8.668845"><ele>331.0</ele><time>2026-04-17T12:45:43.913Z</time></trkpt><trkpt lat="42.6678383" lon="-8.6688933"><ele>331.0</ele><time>2026-04-17T12:45:44.913Z</time></trkpt><trkpt lat="42.6679317" lon="-8.66895"><ele>331.0</ele><time>2026-04-17T12:45:45.914Z</time></trkpt><trkpt lat="42.6680383" lon="-8.6690083"><ele>331.0</ele><time>2026-04-17T12:45:46.914Z</time></trkpt><trkpt lat="42.6681583" lon="-8.669075"><ele>331.0</ele><time>2026-04-17T12:45:47.913Z</time></trkpt><trkpt lat="42.66828" lon="-8.6691433"><ele>331.0</ele><time>2026-04-17T12:45:48.913Z</time></trkpt><trkpt lat="42.6683967" lon="-8.6692067"><ele>331.0</ele><time>2026-04-17T12:45:49.913Z</time></trkpt><trkpt lat="42.6685" lon="-8.6692617"><ele>331.0</ele><time>2026-04-17T12:45:50.914Z</time></trkpt><trkpt lat="42.6685883" lon="-8.6693133"><ele>331.0</ele><time>2026-04-17T12:45:51.913Z</time></trkpt><trkpt lat="42.668665" lon="-8.66936"><ele>331.0</ele><time>2026-04-17T12:45:52.914Z</time></trkpt><trkpt lat="42.6687383" lon="-8.6694033"><ele>331.0</ele><time>2026-04-17T12:45:53.914Z</time></trkpt><trkpt lat="42.6688283" lon="-8.669455"><ele>331.0</ele><time>2026-04-17T12:45:54.914Z</time></trkpt><trkpt lat="42.66892" lon="-8.6695117"><ele>331.0</ele><time>2026-04-17T12:45:55.913Z</time></trkpt><trkpt lat="42.6690083" lon="-8.6695733"><ele>331.0</ele><time>2026-04-17T12:45:56.914Z</time></trkpt><trkpt lat="42.6690917" lon="-8.6696267"><ele>331.0</ele><time>2026-04-17T12:45:57.914Z</time></trkpt><trkpt lat="42.6691683" lon="-8.6696733"><ele>331.0</ele><time>2026-04-17T12:45:58.913Z</time></trkpt><trkpt lat="42.669235" lon="-8.669715"><ele>331.0</ele><time>2026-04-17T12:45:59.913Z</time></trkpt><trkpt lat="42.6693083" lon="-8.6697767"><ele>331.0</ele><time>2026-04-17T12:46:01.914Z</time></trkpt><trkpt lat="42.6693733" lon="-8.669825"><ele>331.0</ele><time>2026-04-17T12:46:06.914Z</time></trkpt><trkpt lat="42.6694933" lon="-8.6698533"><ele>331.0</ele><time>2026-04-17T12:46:08.914Z</time></trkpt><trkpt lat="42.6695667" lon="-8.6698833"><ele>331.0</ele><time>2026-04-17T12:46:09.913Z</time></trkpt><trkpt lat="42.6696333" lon="-8.6699117"><ele>331.0</ele><time>2026-04-17T12:46:10.914Z</time></trkpt><trkpt lat="42.6696933" lon="-8.6699433"><ele>331.0</ele><time>2026-04-17T12:46:11.914Z</time></trkpt><trkpt lat="42.669785" lon="-8.6699967"><ele>331.0</ele><time>2026-04-17T12:46:13.913Z</time></trkpt><trkpt lat="42.6698433" lon="-8.6700367"><ele>331.0</ele><time>2026-04-17T12:46:15.914Z</time></trkpt><trkpt lat="42.6697617" lon="-8.67002"><ele>331.0</ele><time>2026-04-17T12:46:41.914Z</time></trkpt><trkpt lat="42.6696817" lon="-8.66998"><ele>331.0</ele><time>2026-04-17T12:46:43.913Z</time></trkpt><trkpt lat="42.669615" lon="-8.6699533"><ele>331.0</ele><time>2026-04-17T12:46:45.913Z</time></trkpt><trkpt lat="42.6696833" lon="-8.6699583"><ele>331.0</ele><time>2026-04-17T12:46:49.913Z</time></trkpt><trkpt lat="42.6697467" lon="-8.66999"><ele>331.0</ele><time>2026-04-17T12:46:50.914Z</time></trkpt><trkpt lat="42.6698283" lon="-8.6700217"><ele>331.0</ele><time>2026-04-17T12:46:51.914Z</time></trkpt><trkpt lat="42.6699317" lon="-8.670045"><ele>331.0</ele><time>2026-04-17T12:46:52.913Z</time></trkpt><trkpt lat="42.6700367" lon="-8.670055"><ele>331.0</ele><time>2026-04-17T12:46:53.914Z</time></trkpt><trkpt lat="42.6701367" lon="-8.6700283"><ele>331.0</ele><time>2026-04-17T12:46:54.913Z</time></trkpt><trkpt lat="42.6702233" lon="-8.6699683"><ele>331.0</ele><time>2026-04-17T12:46:55.913Z</time></trkpt><trkpt lat="42.670305" lon="-8.6699133"><ele>331.0</ele><time>2026-04-17T12:46:56.913Z</time></trkpt><trkpt lat="42.6703933" lon="-8.66988"><ele>331.0</ele><time>2026-04-17T12:46:57.914Z</time></trkpt><trkpt lat="42.6704867" lon="-8.6698867"><ele>331.0</ele><time>2026-04-17T12:46:58.914Z</time></trkpt><trkpt lat="42.6705833" lon="-8.669925"><ele>329.5</ele><time>2026-04-17T12:46:59.914Z</time></trkpt><trkpt lat="42.670675" lon="-8.669975"><ele>328.0</ele><time>2026-04-17T12:47:00.913Z</time></trkpt><trkpt lat="42.670745" lon="-8.670035"><ele>326.5</ele><time>2026-04-17T12:47:01.914Z</time></trkpt><trkpt lat="42.6707917" lon="-8.670105"><ele>325.0</ele><time>2026-04-17T12:47:02.913Z</time></trkpt><trkpt lat="42.6707983" lon="-8.6702033"><ele>323.5</ele><time>2026-04-17T12:47:03.914Z</time></trkpt><trkpt lat="42.6707867" lon="-8.6703217"><ele>322.0</ele><time>2026-04-17T12:47:04.913Z</time></trkpt><trkpt lat="42.670755" lon="-8.6704583"><ele>321.40000000000003</ele><time>2026-04-17T12:47:05.913Z</time></trkpt><trkpt lat="42.67072" lon="-8.67059"><ele>320.8</ele><time>2026-04-17T12:47:06.913Z</time></trkpt><trkpt lat="42.6707033" lon="-8.670705"><ele>320.2</ele><time>2026-04-17T12:47:07.913Z</time></trkpt><trkpt lat="42.670715" lon="-8.6708167"><ele>319.6</ele><time>2026-04-17T12:47:08.913Z</time></trkpt><trkpt lat="42.6707567" lon="-8.6709283"><ele>319.0</ele><time>2026-04-17T12:47:09.913Z</time></trkpt><trkpt lat="42.67082" lon="-8.6710383"><ele>316.75</ele><time>2026-04-17T12:47:10.914Z</time></trkpt><trkpt lat="42.6708917" lon="-8.6711433"><ele>314.5</ele><time>2026-04-17T12:47:11.913Z</time></trkpt><trkpt lat="42.6709667" lon="-8.67125"><ele>312.25</ele><time>2026-04-17T12:47:12.913Z</time></trkpt><trkpt lat="42.6710483" lon="-8.6713683"><ele>310.0</ele><time>2026-04-17T12:47:13.914Z</time></trkpt><trkpt lat="42.6711367" lon="-8.6715"><ele>306.75</ele><time>2026-04-17T12:47:14.913Z</time></trkpt><trkpt lat="42.6712317" lon="-8.6716417"><ele>303.5</ele><time>2026-04-17T12:47:15.914Z</time></trkpt><trkpt lat="42.6713233" lon="-8.67178"><ele>300.25</ele><time>2026-04-17T12:47:16.913Z</time></trkpt><trkpt lat="42.6714067" lon="-8.6719083"><ele>297.0</ele><time>2026-04-17T12:47:17.914Z</time></trkpt><trkpt lat="42.6714817" lon="-8.6720267"><ele>296.25</ele><time>2026-04-17T12:47:18.913Z</time></trkpt><trkpt lat="42.6715533" lon="-8.6721367"><ele>295.5</ele><time>2026-04-17T12:47:19.914Z</time></trkpt><trkpt lat="42.6716267" lon="-8.6722533"><ele>294.75</ele><time>2026-04-17T12:47:20.914Z</time></trkpt><trkpt lat="42.67171" lon="-8.67238"><ele>294.0</ele><time>2026-04-17T12:47:21.913Z</time></trkpt><trkpt lat="42.671795" lon="-8.6725067"><ele>294.0</ele><time>2026-04-17T12:47:22.914Z</time></trkpt><trkpt lat="42.6718783" lon="-8.67263"><ele>294.0</ele><time>2026-04-17T12:47:23.914Z</time></trkpt><trkpt lat="42.671955" lon="-8.67274"><ele>294.0</ele><time>2026-04-17T12:47:24.913Z</time></trkpt><trkpt lat="42.6720283" lon="-8.6728383"><ele>294.0</ele><time>2026-04-17T12:47:25.914Z</time></trkpt><trkpt lat="42.6720917" lon="-8.6729183"><ele>294.0</ele><time>2026-04-17T12:47:26.913Z</time></trkpt><trkpt lat="42.6721433" lon="-8.672975"><ele>293.0</ele><time>2026-04-17T12:47:27.913Z</time></trkpt><trkpt lat="42.67219" lon="-8.6730433"><ele>292.0</ele><time>2026-04-17T12:47:29.913Z</time></trkpt><trkpt lat="42.6721033" lon="-8.6731483"><ele>291.0</ele><time>2026-04-17T12:47:32.913Z</time></trkpt><trkpt lat="42.6720483" lon="-8.673205"><ele>290.0</ele><time>2026-04-17T12:47:33.913Z</time></trkpt><trkpt lat="42.6719817" lon="-8.67326"><ele>289.0</ele><time>2026-04-17T12:47:34.914Z</time></trkpt><trkpt lat="42.67189" lon="-8.6733083"><ele>288.0</ele><time>2026-04-17T12:47:35.914Z</time></trkpt><trkpt lat="42.6717733" lon="-8.6733517"><ele>287.3333333333333</ele><time>2026-04-17T12:47:36.913Z</time></trkpt><trkpt lat="42.671635" lon="-8.673405"><ele>286.66666666666663</ele><time>2026-04-17T12:47:37.913Z</time></trkpt><trkpt lat="42.6714817" lon="-8.67346"><ele>286.0</ele><time>2026-04-17T12:47:38.914Z</time></trkpt><trkpt lat="42.6713317" lon="-8.6735167"><ele>286.0</ele><time>2026-04-17T12:47:39.914Z</time></trkpt><trkpt lat="42.6711933" lon="-8.6735733"><ele>286.0</ele><time>2026-04-17T12:47:40.913Z</time></trkpt><trkpt lat="42.6710717" lon="-8.6736233"><ele>286.0</ele><time>2026-04-17T12:47:41.913Z</time></trkpt><trkpt lat="42.6709717" lon="-8.6736667"><ele>286.0</ele><time>2026-04-17T12:47:42.914Z</time></trkpt><trkpt lat="42.6708967" lon="-8.6736933"><ele>277.0</ele><time>2026-04-17T12:47:43.913Z</time></trkpt><trkpt lat="42.670835" lon="-8.6737117"><ele>268.0</ele><time>2026-04-17T12:47:44.914Z</time></trkpt><trkpt lat="42.6709667" lon="-8.67125"><ele>275.25</ele><time>2026-04-17T12:47:12.913Z</time></trkpt><trkpt lat="42.6710483" lon="-8.6713683"><ele>282.5</ele><time>2026-04-17T12:47:13.914Z</time></trkpt><trkpt lat="42.6711367" lon="-8.6715"><ele>289.75</ele><time>2026-04-17T12:47:14.913Z</time></trkpt><trkpt lat="42.6712317" lon="-8.6716417"><ele>297.0</ele><time>2026-04-17T12:47:15.914Z</time></trkpt><trkpt lat="42.6713233" lon="-8.67178"><ele>297.0</ele><time>2026-04-17T12:47:16.913Z</time></trkpt><trkpt lat="42.6714067" lon="-8.6719083"><ele>297.0</ele><time>2026-04-17T12:47:17.914Z</time></trkpt><trkpt lat="42.6714817" lon="-8.6720267"><ele>297.0</ele><time>2026-04-17T12:47:18.913Z</time></trkpt><trkpt lat="42.6715533" lon="-8.6721367"><ele>297.0</ele><time>2026-04-17T12:47:19.914Z</time></trkpt><trkpt lat="42.6716267" lon="-8.6722533"><ele>296.25</ele><time>2026-04-17T12:47:20.914Z</time></trkpt><trkpt lat="42.67171" lon="-8.67238"><ele>295.5</ele><time>2026-04-17T12:47:21.913Z</time></trkpt><trkpt lat="42.671795" lon="-8.6725067"><ele>294.75</ele><time>2026-04-17T12:47:22.914Z</time></trkpt><trkpt lat="42.6718783" lon="-8.67263"><ele>294.0</ele><time>2026-04-17T12:47:23.914Z</time></trkpt><trkpt lat="42.671955" lon="-8.67274"><ele>293.0</ele><time>2026-04-17T12:47:24.913Z</time></trkpt><trkpt lat="42.6720283" lon="-8.6728383"><ele>292.0</ele><time>2026-04-17T12:47:25.914Z</time></trkpt><trkpt lat="42.6720917" lon="-8.6729183"><ele>291.0</ele><time>2026-04-17T12:47:26.913Z</time></trkpt><trkpt lat="42.6721433" lon="-8.672975"><ele>290.0</ele><time>2026-04-17T12:47:27.913Z</time></trkpt><trkpt lat="42.67219" lon="-8.6730433"><ele>289.0</ele><time>2026-04-17T12:47:29.913Z</time></trkpt><trkpt lat="42.6721033" lon="-8.6731483"><ele>288.0</ele><time>2026-04-17T12:47:32.913Z</time></trkpt><trkpt lat="42.6720483" lon="-8.673205"><ele>288.0</ele><time>2026-04-17T12:47:33.913Z</time></trkpt><trkpt lat="42.6719817" lon="-8.67326"><ele>288.0</ele><time>2026-04-17T12:47:34.914Z</time></trkpt><trkpt lat="42.67189" lon="-8.6733083"><ele>288.0</ele><time>2026-04-17T12:47:35.914Z</time></trkpt><trkpt lat="42.6717733" lon="-8.6733517"><ele>288.0</ele><time>2026-04-17T12:47:36.913Z</time></trkpt><trkpt lat="42.671635" lon="-8.673405"><ele>288.0</ele><time>2026-04-17T12:47:37.913Z</time></trkpt><trkpt lat="42.6714817" lon="-8.67346"><ele>287.5</ele><time>2026-04-17T12:47:38.914Z</time></trkpt><trkpt lat="42.6713317" lon="-8.6735167"><ele>287.0</ele><time>2026-04-17T12:47:39.914Z</time></trkpt><trkpt lat="42.6711933" lon="-8.6735733"><ele>286.5</ele><time>2026-04-17T12:47:40.913Z</time></trkpt><trkpt lat="42.6710717" lon="-8.6736233"><ele>286.0</ele><time>2026-04-17T12:47:41.913Z</time></trkpt><trkpt lat="42.6709717" lon="-8.6736667"><ele>284.8333333333333</ele><time>2026-04-17T12:47:42.914Z</time></trkpt><trkpt lat="42.6708967" lon="-8.6736933"><ele>283.66666666666663</ele><time>2026-04-17T12:47:43.913Z</time></trkpt><trkpt lat="42.670835" lon="-8.6737117"><ele>282.5</ele><time>2026-04-17T12:47:44.914Z</time></trkpt><trkpt lat="42.67074" lon="-8.6736717"><ele>281.3333333333333</ele><time>2026-04-17T12:47:46.914Z</time></trkpt><trkpt lat="42.6706933" lon="-8.673605"><ele>280.1666666666667</ele><time>2026-04-17T12:47:47.913Z</time></trkpt><trkpt lat="42.67062" lon="-8.6735083"><ele>279.0</ele><time>2026-04-17T12:47:48.913Z</time></trkpt><trkpt lat="42.670545" lon="-8.673395"><ele>279.0</ele><time>2026-04-17T12:47:49.913Z</time></trkpt><trkpt lat="42.67045" lon="-8.6732267"><ele>279.0</ele><time>2026-04-17T12:47:50.913Z</time></trkpt><trkpt lat="42.6703717" lon="-8.673055"><ele>279.0</ele><time>2026-04-17T12:47:51.913Z</time></trkpt><trkpt lat="42.6703017" lon="-8.6728883"><ele>279.0</ele><time>2026-04-17T12:47:52.913Z</time></trkpt><trkpt lat="42.6702317" lon="-8.6727417"><ele>281.4</ele><time>2026-04-17T12:47:53.913Z</time></trkpt><trkpt lat="42.6701583" lon="-8.6726183"><ele>283.79999999999995</ele><time>2026-04-17T12:47:54.914Z</time></trkpt><trkpt lat="42.6700883" lon="-8.6725067"><ele>286.20000000000005</ele><time>2026-04-17T12:47:55.913Z</time></trkpt><trkpt lat="42.6700267" lon="-8.6724133"><ele>288.6</ele><time>2026-04-17T12:47:56.914Z</time></trkpt><trkpt lat="42.6699717" lon="-8.6723517"><ele>291.0</ele><time>2026-04-17T12:47:57.913Z</time></trkpt><trkpt lat="42.6699083" lon="-8.6723133"><ele>291.0</ele><time>2026-04-17T12:47:58.913Z</time></trkpt><trkpt lat="42.6698267" lon="-8.6722767"><ele>291.0</ele><time>2026-04-17T12:47:59.913Z</time></trkpt><trkpt lat="42.6697417" lon="-8.672225"><ele>291.0</ele><time>2026-04-17T12:48:00.913Z</time></trkpt><trkpt lat="42.6696583" lon="-8.6721583"><ele>291.0</ele><time>2026-04-17T12:48:01.913Z</time></trkpt><trkpt lat="42.669575" lon="-8.6720733"><ele>291.0</ele><time>2026-04-17T12:48:02.914Z</time></trkpt><trkpt lat="42.66949" lon="-8.6719767"><ele>294.25</ele><time>2026-04-17T12:48:03.913Z</time></trkpt><trkpt lat="42.66941" lon="-8.67188"><ele>297.5</ele><time>2026-04-17T12:48:04.914Z</time></trkpt><trkpt lat="42.6693217" lon="-8.671785"><ele>300.75</ele><time>2026-04-17T12:48:05.913Z</time></trkpt><trkpt lat="42.6692267" lon="-8.6716933"><ele>304.0</ele><time>2026-04-17T12:48:06.913Z</time></trkpt><trkpt lat="42.6691267" lon="-8.67161"><ele>304.0</ele><time>2026-04-17T12:48:07.913Z</time></trkpt><trkpt lat="42.6690217" lon="-8.6715367"><ele>304.0</ele><time>2026-04-17T12:48:08.913Z</time></trkpt><trkpt lat="42.6689183" lon="-8.6714683"><ele>304.0</ele><time>2026-04-17T12:48:09.914Z</time></trkpt><trkpt lat="42.6688233" lon="-8.6714083"><ele>304.0</ele><time>2026-04-17T12:48:10.914Z</time></trkpt><trkpt lat="42.6687267" lon="-8.671345"><ele>304.0</ele><time>2026-04-17T12:48:11.914Z</time></trkpt><trkpt lat="42.6686567" lon="-8.6712867"><ele>302.8</ele><time>2026-04-17T12:48:12.914Z</time></trkpt><trkpt lat="42.668595" lon="-8.6712167"><ele>301.59999999999997</ele><time>2026-04-17T12:48:13.914Z</time></trkpt><trkpt lat="42.6685467" lon="-8.67114"><ele>300.4</ele><time>2026-04-17T12:48:14.913Z</time></trkpt><trkpt lat="42.668525" lon="-8.67103"><ele>299.2</ele><time>2026-04-17T12:48:15.914Z</time></trkpt><trkpt lat="42.6685317" lon="-8.6708767"><ele>298.0</ele><time>2026-04-17T12:48:16.913Z</time></trkpt><trkpt lat="42.6685567" lon="-8.670695"><ele>301.0</ele><time>2026-04-17T12:48:17.913Z</time></trkpt><trkpt lat="42.66856" lon="-8.670515"><ele>304.0</ele><time>2026-04-17T12:48:18.913Z</time></trkpt><trkpt lat="42.66854" lon="-8.6703533"><ele>307.0</ele><time>2026-04-17T12:48:19.913Z</time></trkpt><trkpt lat="42.6685133" lon="-8.670225"><ele>310.0</ele><time>2026-04-17T12:48:20.913Z</time></trkpt><trkpt lat="42.6684983" lon="-8.6701133"><ele>313.0</ele><time>2026-04-17T12:48:21.913Z</time></trkpt><trkpt lat="42.6684983" lon="-8.6700017"><ele>315.0</ele><time>2026-04-17T12:48:22.913Z</time></trkpt><trkpt lat="42.66852" lon="-8.6698967"><ele>317.0</ele><time>2026-04-17T12:48:23.914Z</time></trkpt><trkpt lat="42.6685617" lon="-8.66979"><ele>319.0</ele><time>2026-04-17T12:48:24.913Z</time></trkpt><trkpt lat="42.6686033" lon="-8.669685"><ele>321.0</ele><time>2026-04-17T12:48:25.913Z</time></trkpt><trkpt lat="42.6686433" lon="-8.6695933"><ele>323.0</ele><time>2026-04-17T12:48:26.913Z</time></trkpt><trkpt lat="42.66866" lon="-8.6694967"><ele>325.0</ele><time>2026-04-17T12:48:28.913Z</time></trkpt><trkpt lat="42.6685483" lon="-8.6694517"><ele>326.2</ele><time>2026-04-17T12:48:30.914Z</time></trkpt><trkpt lat="42.6684583" lon="-8.6694233"><ele>327.4</ele><time>2026-04-17T12:48:31.913Z</time></trkpt><trkpt lat="42.6683567" lon="-8.669395"><ele>328.6</ele><time>2026-04-17T12:48:32.913Z</time></trkpt><trkpt lat="42.66825" lon="-8.66937"><ele>329.8</ele><time>2026-04-17T12:48:33.914Z</time></trkpt><trkpt lat="42.6681333" lon="-8.6693467"><ele>331.0</ele><time>2026-04-17T12:48:34.913Z</time></trkpt><trkpt lat="42.6680117" lon="-8.6693267"><ele>331.0</ele><time>2026-04-17T12:48:35.913Z</time></trkpt><trkpt lat="42.667885" lon="-8.6693133"><ele>331.0</ele><time>2026-04-17T12:48:36.914Z</time></trkpt><trkpt lat="42.6677533" lon="-8.6693067"><ele>331.0</ele><time>2026-04-17T12:48:37.913Z</time></trkpt><trkpt lat="42.667615" lon="-8.6693033"><ele>331.0</ele><time>2026-04-17T12:48:38.913Z</time></trkpt><trkpt lat="42.667485" lon="-8.6693067"><ele>330.75</ele><time>2026-04-17T12:48:39.914Z</time></trkpt><trkpt lat="42.6673583" lon="-8.66931"><ele>330.5</ele><time>2026-04-17T12:48:40.913Z</time></trkpt><trkpt lat="42.6672367" lon="-8.6693083"><ele>330.25</ele><time>2026-04-17T12:48:41.913Z</time></trkpt><trkpt lat="42.6671183" lon="-8.6693"><ele>330.0</ele><time>2026-04-17T12:48:42.913Z</time></trkpt><trkpt lat="42.6669983" lon="-8.6692733"><ele>329.75</ele><time>2026-04-17T12:48:43.913Z</time></trkpt><trkpt lat="42.6668717" lon="-8.6692267"><ele>329.5</ele><time>2026-04-17T12:48:44.913Z</time></trkpt><trkpt lat="42.66673" lon="-8.669155"><ele>329.25</ele><time>2026-04-17T12:48:45.914Z</time></trkpt><trkpt lat="42.666575" lon="-8.6690733"><ele>329.0</ele><time>2026-04-17T12:48:46.914Z</time></trkpt><trkpt lat="42.6664167" lon="-8.669005"><ele>329.0</ele><time>2026-04-17T12:48:47.913Z</time></trkpt><trkpt lat="42.6662633" lon="-8.6689683"><ele>329.0</ele><time>2026-04-17T12:48:48.914Z</time></trkpt><trkpt lat="42.6661033" lon="-8.6689767"><ele>329.0</ele><time>2026-04-17T12:48:49.914Z</time></trkpt><trkpt lat="42.6659417" lon="-8.6690217"><ele>330.0</ele><time>2026-04-17T12:48:50.913Z</time></trkpt><trkpt lat="42.6657917" lon="-8.66909"><ele>331.0</ele><time>2026-04-17T12:48:51.914Z</time></trkpt><trkpt lat="42.6656433" lon="-8.66915"><ele>332.0</ele><time>2026-04-17T12:48:52.913Z</time></trkpt><trkpt lat="42.665475" lon="-8.6691817"><ele>332.0</ele><time>2026-04-17T12:48:53.913Z</time></trkpt><trkpt lat="42.6652917" lon="-8.669195"><ele>332.0</ele><time>2026-04-17T12:48:54.914Z</time></trkpt><trkpt lat="42.6651117" lon="-8.6692133"><ele>332.0</ele><time>2026-04-17T12:48:55.914Z</time></trkpt><trkpt lat="42.66495" lon="-8.6692417"><ele>331.25</ele><time>2026-04-17T12:48:56.914Z</time></trkpt><trkpt lat="42.6648067" lon="-8.6692667"><ele>330.5</ele><time>2026-04-17T12:48:57.913Z</time></trkpt><trkpt lat="42.6646667" lon="-8.6692733"><ele>329.75</ele><time>2026-04-17T12:48:58.914Z</time></trkpt><trkpt lat="42.66451" lon="-8.6692483"><ele>329.0</ele><time>2026-04-17T12:48:59.913Z</time></trkpt><trkpt lat="42.66433" lon="-8.6692017"><ele>328.0</ele><time>2026-04-17T12:49:00.913Z</time></trkpt><trkpt lat="42.6641417" lon="-8.6691583"><ele>327.0</ele><time>2026-04-17T12:49:01.913Z</time></trkpt><trkpt lat="42.6639483" lon="-8.6691317"><ele>326.0</ele><time>2026-04-17T12:49:02.914Z</time></trkpt><trkpt lat="42.6637667" lon="-8.6691117"><ele>323.0</ele><time>2026-04-17T12:49:03.914Z</time></trkpt><trkpt lat="42.6635917" lon="-8.6690883"><ele>320.0</ele><time>2026-04-17T12:49:04.914Z</time></trkpt><trkpt lat="42.6634183" lon="-8.6690517"><ele>317.0</ele><time>2026-04-17T12:49:05.914Z</time></trkpt><trkpt lat="42.6632517" lon="-8.6690083"><ele>317.0</ele><time>2026-04-17T12:49:06.913Z</time></trkpt><trkpt lat="42.6631017" lon="-8.6689567"><ele>317.0</ele><time>2026-04-17T12:49:07.914Z</time></trkpt><trkpt lat="42.6629583" lon="-8.668885"><ele>317.0</ele><time>2026-04-17T12:49:08.914Z</time></trkpt><trkpt lat="42.6628183" lon="-8.6687917"><ele>319.6666666666667</ele><time>2026-04-17T12:49:09.913Z</time></trkpt><trkpt lat="42.66268" lon="-8.6686783"><ele>322.3333333333333</ele><time>2026-04-17T12:49:10.914Z</time></trkpt><trkpt lat="42.662535" lon="-8.668565"><ele>325.0</ele><time>2026-04-17T12:49:11.914Z</time></trkpt><trkpt lat="42.662375" lon="-8.6684583"><ele>325.0</ele><time>2026-04-17T12:49:12.914Z</time></trkpt><trkpt lat="42.6622117" lon="-8.6683583"><ele>325.0</ele><time>2026-04-17T12:49:13.913Z</time></trkpt><trkpt lat="42.6672367" lon="-8.6693083"><ele>326.0</ele><time>2026-04-17T12:48:41.913Z</time></trkpt><trkpt lat="42.6671183" lon="-8.6693"><ele>327.0</ele><time>2026-04-17T12:48:42.913Z</time></trkpt><trkpt lat="42.6669983" lon="-8.6692733"><ele>328.0</ele><time>2026-04-17T12:48:43.913Z</time></trkpt><trkpt lat="42.6668717" lon="-8.6692267"><ele>329.0</ele><time>2026-04-17T12:48:44.913Z</time></trkpt><trkpt lat="42.66673" lon="-8.669155"><ele>329.0</ele><time>2026-04-17T12:48:45.914Z</time></trkpt><trkpt lat="42.666575" lon="-8.6690733"><ele>329.0</ele><time>2026-04-17T12:48:46.914Z</time></trkpt><trkpt lat="42.6664167" lon="-8.669005"><ele>329.0</ele><time>2026-04-17T12:48:47.913Z</time></trkpt><trkpt lat="42.6662633" lon="-8.6689683"><ele>330.0</ele><time>2026-04-17T12:48:48.914Z</time></trkpt><trkpt lat="42.6661033" lon="-8.6689767"><ele>331.0</ele><time>2026-04-17T12:48:49.914Z</time></trkpt><trkpt lat="42.6659417" lon="-8.6690217"><ele>332.0</ele><time>2026-04-17T12:48:50.913Z</time></trkpt><trkpt lat="42.6657917" lon="-8.66909"><ele>332.0</ele><time>2026-04-17T12:48:51.914Z</time></trkpt><trkpt lat="42.6656433" lon="-8.66915"><ele>332.0</ele><time>2026-04-17T12:48:52.913Z</time></trkpt><trkpt lat="42.665475" lon="-8.6691817"><ele>332.0</ele><time>2026-04-17T12:48:53.913Z</time></trkpt><trkpt lat="42.6652917" lon="-8.669195"><ele>331.0</ele><time>2026-04-17T12:48:54.914Z</time></trkpt><trkpt lat="42.6651117" lon="-8.6692133"><ele>330.0</ele><time>2026-04-17T12:48:55.914Z</time></trkpt><trkpt lat="42.66495" lon="-8.6692417"><ele>329.0</ele><time>2026-04-17T12:48:56.914Z</time></trkpt><trkpt lat="42.6648067" lon="-8.6692667"><ele>329.0</ele><time>2026-04-17T12:48:57.913Z</time></trkpt><trkpt lat="42.6646667" lon="-8.6692733"><ele>329.0</ele><time>2026-04-17T12:48:58.914Z</time></trkpt><trkpt lat="42.66451" lon="-8.6692483"><ele>329.0</ele><time>2026-04-17T12:48:59.913Z</time></trkpt><trkpt lat="42.66433" lon="-8.6692017"><ele>328.0</ele><time>2026-04-17T12:49:00.913Z</time></trkpt><trkpt lat="42.6641417" lon="-8.6691583"><ele>327.0</ele><time>2026-04-17T12:49:01.913Z</time></trkpt><trkpt lat="42.6639483" lon="-8.6691317"><ele>326.0</ele><time>2026-04-17T12:49:02.914Z</time></trkpt><trkpt lat="42.6637667" lon="-8.6691117"><ele>323.0</ele><time>2026-04-17T12:49:03.914Z</time></trkpt><trkpt lat="42.6635917" lon="-8.6690883"><ele>320.0</ele><time>2026-04-17T12:49:04.914Z</time></trkpt><trkpt lat="42.6634183" lon="-8.6690517"><ele>317.0</ele><time>2026-04-17T12:49:05.914Z</time></trkpt><trkpt lat="42.6632517" lon="-8.6690083"><ele>317.0</ele><time>2026-04-17T12:49:06.913Z</time></trkpt><trkpt lat="42.6631017" lon="-8.6689567"><ele>317.0</ele><time>2026-04-17T12:49:07.914Z</time></trkpt><trkpt lat="42.6629583" lon="-8.668885"><ele>317.0</ele><time>2026-04-17T12:49:08.914Z</time></trkpt><trkpt lat="42.6628183" lon="-8.6687917"><ele>319.6666666666667</ele><time>2026-04-17T12:49:09.913Z</time></trkpt><trkpt lat="42.66268" lon="-8.6686783"><ele>322.3333333333333</ele><time>2026-04-17T12:49:10.914Z</time></trkpt><trkpt lat="42.662535" lon="-8.668565"><ele>325.0</ele><time>2026-04-17T12:49:11.914Z</time></trkpt><trkpt lat="42.662375" lon="-8.6684583"><ele>325.0</ele><time>2026-04-17T12:49:12.914Z</time></trkpt><trkpt lat="42.6622117" lon="-8.6683583"><ele>325.0</ele><time>2026-04-17T12:49:13.913Z</time></trkpt><trkpt lat="42.6620567" lon="-8.6682683"><ele>325.0</ele><time>2026-04-17T12:49:14.914Z</time></trkpt><trkpt lat="42.6619033" lon="-8.66818"><ele>322.0</ele><time>2026-04-17T12:49:15.914Z</time></trkpt><trkpt lat="42.6617417" lon="-8.6680867"><ele>319.0</ele><time>2026-04-17T12:49:16.914Z</time></trkpt><trkpt lat="42.6615717" lon="-8.668"><ele>316.0</ele><time>2026-04-17T12:49:17.914Z</time></trkpt><trkpt lat="42.6613967" lon="-8.6679267"><ele>316.0</ele><time>2026-04-17T12:49:18.913Z</time></trkpt><trkpt lat="42.661225" lon="-8.6678767"><ele>316.0</ele><time>2026-04-17T12:49:19.913Z</time></trkpt><trkpt lat="42.661055" lon="-8.6678567"><ele>316.0</ele><time>2026-04-17T12:49:20.913Z</time></trkpt><trkpt lat="42.6608783" lon="-8.6678617"><ele>315.3333333333333</ele><time>2026-04-17T12:49:21.914Z</time></trkpt><trkpt lat="42.6606983" lon="-8.66788"><ele>314.6666666666667</ele><time>2026-04-17T12:49:22.913Z</time></trkpt><trkpt lat="42.6605283" lon="-8.667905"><ele>314.0</ele><time>2026-04-17T12:49:23.914Z</time></trkpt><trkpt lat="42.6603783" lon="-8.6679383"><ele>315.0</ele><time>2026-04-17T12:49:24.913Z</time></trkpt><trkpt lat="42.6602383" lon="-8.668"><ele>316.0</ele><time>2026-04-17T12:49:25.913Z</time></trkpt><trkpt lat="42.6601067" lon="-8.668085"><ele>317.0</ele><time>2026-04-17T12:49:26.913Z</time></trkpt><trkpt lat="42.6599867" lon="-8.6681517"><ele>318.0</ele><time>2026-04-17T12:49:27.913Z</time></trkpt><trkpt lat="42.6598917" lon="-8.6681817"><ele>318.0</ele><time>2026-04-17T12:49:28.913Z</time></trkpt><trkpt lat="42.6598267" lon="-8.6681767"><ele>318.0</ele><time>2026-04-17T12:49:29.913Z</time></trkpt><trkpt lat="42.659765" lon="-8.668145"><ele>318.0</ele><time>2026-04-17T12:49:30.914Z</time></trkpt><trkpt lat="42.6596967" lon="-8.6680833"><ele>318.0</ele><time>2026-04-17T12:49:31.914Z</time></trkpt><trkpt lat="42.6596167" lon="-8.6680017"><ele>318.0</ele><time>2026-04-17T12:49:32.914Z</time></trkpt><trkpt lat="42.6595117" lon="-8.6679283"><ele>318.0</ele><time>2026-04-17T12:49:33.913Z</time></trkpt><trkpt lat="42.65939" lon="-8.6678933"><ele>317.3333333333333</ele><time>2026-04-17T12:49:34.913Z</time></trkpt><trkpt lat="42.659255" lon="-8.6679233"><ele>316.66666666666663</ele><time>2026-04-17T12:49:35.913Z</time></trkpt><trkpt lat="42.6591033" lon="-8.6680083"><ele>316.0</ele><time>2026-04-17T12:49:36.913Z</time></trkpt><trkpt lat="42.6589417" lon="-8.668115"><ele>316.0</ele><time>2026-04-17T12:49:37.914Z</time></trkpt><trkpt lat="42.6587833" lon="-8.6682233"><ele>316.0</ele><time>2026-04-17T12:49:38.914Z</time></trkpt><trkpt lat="42.6586383" lon="-8.66832"><ele>316.0</ele><time>2026-04-17T12:49:39.913Z</time></trkpt><trkpt lat="42.65849" lon="-8.66839"><ele>317.0</ele><time>2026-04-17T12:49:40.913Z</time></trkpt><trkpt lat="42.65833" lon="-8.6684533"><ele>318.0</ele><time>2026-04-17T12:49:41.913Z</time></trkpt><trkpt lat="42.6581567" lon="-8.66852"><ele>319.0</ele><time>2026-04-17T12:49:42.913Z</time></trkpt><trkpt lat="42.6579767" lon="-8.6686017"><ele>316.0</ele><time>2026-04-17T12:49:43.914Z</time></trkpt><trkpt lat="42.657805" lon="-8.6687017"><ele>313.0</ele><time>2026-04-17T12:49:44.913Z</time></trkpt><trkpt lat="42.6576367" lon="-8.6688183"><ele>310.0</ele><time>2026-04-17T12:49:45.913Z</time></trkpt><trkpt lat="42.6574683" lon="-8.6689317"><ele>310.0</ele><time>2026-04-17T12:49:46.913Z</time></trkpt><trkpt lat="42.6572983" lon="-8.6690317"><ele>310.0</ele><time>2026-04-17T12:49:47.914Z</time></trkpt><trkpt lat="42.6571267" lon="-8.669125"><ele>310.0</ele><time>2026-04-17T12:49:48.913Z</time></trkpt><trkpt lat="42.6569583" lon="-8.66923"><ele>312.3333333333333</ele><time>2026-04-17T12:49:49.913Z</time></trkpt><trkpt lat="42.6567983" lon="-8.6693517"><ele>314.6666666666667</ele><time>2026-04-17T12:49:50.913Z</time></trkpt><trkpt lat="42.6566467" lon="-8.66946"><ele>317.0</ele><time>2026-04-17T12:49:51.914Z</time></trkpt><trkpt lat="42.656495" lon="-8.669535"><ele>313.0</ele><time>2026-04-17T12:49:52.913Z</time></trkpt><trkpt lat="42.656335" lon="-8.6695767"><ele>309.0</ele><time>2026-04-17T12:49:53.914Z</time></trkpt><trkpt lat="42.6561733" lon="-8.6696067"><ele>305.0</ele><time>2026-04-17T12:49:54.913Z</time></trkpt><trkpt lat="42.6560267" lon="-8.6696533"><ele>305.0</ele><time>2026-04-17T12:49:55.913Z</time></trkpt><trkpt lat="42.6558933" lon="-8.6697317"><ele>305.0</ele><time>2026-04-17T12:49:56.913Z</time></trkpt><trkpt lat="42.6557683" lon="-8.6698617"><ele>305.0</ele><time>2026-04-17T12:49:57.914Z</time></trkpt><trkpt lat="42.655645" lon="-8.6700017"><ele>305.0</ele><time>2026-04-17T12:49:58.914Z</time></trkpt><trkpt lat="42.6555233" lon="-8.6701133"><ele>305.0</ele><time>2026-04-17T12:49:59.913Z</time></trkpt><trkpt lat="42.6554" lon="-8.6701783"><ele>305.0</ele><time>2026-04-17T12:50:00.913Z</time></trkpt><trkpt lat="42.6552733" lon="-8.67021"><ele>305.0</ele><time>2026-04-17T12:50:01.913Z</time></trkpt><trkpt lat="42.65514" lon="-8.6702283"><ele>303.0</ele><time>2026-04-17T12:50:02.914Z</time></trkpt><trkpt lat="42.655" lon="-8.6702467"><ele>301.0</ele><time>2026-04-17T12:50:03.913Z</time></trkpt><trkpt lat="42.65485" lon="-8.6702733"><ele>299.0</ele><time>2026-04-17T12:50:04.913Z</time></trkpt><trkpt lat="42.6546967" lon="-8.6703017"><ele>297.0</ele><time>2026-04-17T12:50:05.914Z</time></trkpt><trkpt lat="42.6545433" lon="-8.6703183"><ele>300.0</ele><time>2026-04-17T12:50:06.913Z</time></trkpt><trkpt lat="42.6544" lon="-8.6703183"><ele>303.0</ele><time>2026-04-17T12:50:07.913Z</time></trkpt><trkpt lat="42.65426" lon="-8.6702967"><ele>306.0</ele><time>2026-04-17T12:50:08.913Z</time></trkpt><trkpt lat="42.6541217" lon="-8.6702617"><ele>309.0</ele><time>2026-04-17T12:50:09.913Z</time></trkpt><trkpt lat="42.6539833" lon="-8.670235"><ele>310.0</ele><time>2026-04-17T12:50:10.914Z</time></trkpt><trkpt lat="42.6538383" lon="-8.6702167"><ele>311.0</ele><time>2026-04-17T12:50:11.913Z</time></trkpt><trkpt lat="42.653685" lon="-8.6702017"><ele>312.0</ele><time>2026-04-17T12:50:12.914Z</time></trkpt><trkpt lat="42.6535283" lon="-8.6701833"><ele>312.0</ele><time>2026-04-17T12:50:13.914Z</time></trkpt><trkpt lat="42.6533733" lon="-8.670165"><ele>312.0</ele><time>2026-04-17T12:50:14.914Z</time></trkpt><trkpt lat="42.653225" lon="-8.6701517"><ele>312.0</ele><time>2026-04-17T12:50:15.914Z</time></trkpt><trkpt lat="42.6530867" lon="-8.6701383"><ele>312.0</ele><time>2026-04-17T12:50:16.914Z</time></trkpt><trkpt lat="42.6529567" lon="-8.6701233"><ele>312.0</ele><time>2026-04-17T12:50:17.914Z</time></trkpt><trkpt lat="42.6528267" lon="-8.670105"><ele>312.0</ele><time>2026-04-17T12:50:18.914Z</time></trkpt><trkpt lat="42.6526967" lon="-8.6700817"><ele>312.0</ele><time>2026-04-17T12:50:19.914Z</time></trkpt><trkpt lat="42.6525667" lon="-8.6700433"><ele>312.0</ele><time>2026-04-17T12:50:20.914Z</time></trkpt><trkpt lat="42.652425" lon="-8.66998"><ele>310.0</ele><time>2026-04-17T12:50:21.913Z</time></trkpt><trkpt lat="42.652275" lon="-8.669895"><ele>308.0</ele><time>2026-04-17T12:50:22.913Z</time></trkpt><trkpt lat="42.6521317" lon="-8.6698033"><ele>306.0</ele><time>2026-04-17T12:50:23.913Z</time></trkpt><trkpt lat="42.651995" lon="-8.6697133"><ele>306.0</ele><time>2026-04-17T12:50:24.914Z</time></trkpt><trkpt lat="42.65186" lon="-8.669625"><ele>306.0</ele><time>2026-04-17T12:50:25.913Z</time></trkpt><trkpt lat="42.6517317" lon="-8.669545"><ele>306.0</ele><time>2026-04-17T12:50:26.913Z</time></trkpt><trkpt lat="42.651615" lon="-8.6694833"><ele>306.0</ele><time>2026-04-17T12:50:27.913Z</time></trkpt><trkpt lat="42.6515167" lon="-8.6694317"><ele>304.0</ele><time>2026-04-17T12:50:28.914Z</time></trkpt><trkpt lat="42.651445" lon="-8.6693817"><ele>302.0</ele><time>2026-04-17T12:50:29.913Z</time></trkpt><trkpt lat="42.6513833" lon="-8.6692833"><ele>300.0</ele><time>2026-04-17T12:50:31.913Z</time></trkpt><trkpt lat="42.6514417" lon="-8.669235"><ele>298.0</ele><time>2026-04-17T12:50:33.913Z</time></trkpt><trkpt lat="42.6515117" lon="-8.6692467"><ele>296.0</ele><time>2026-04-17T12:50:34.913Z</time></trkpt><trkpt lat="42.6516167" lon="-8.6692533"><ele>294.0</ele><time>2026-04-17T12:50:35.913Z</time></trkpt><trkpt lat="42.6517417" lon="-8.6692483"><ele>294.0</ele><time>2026-04-17T12:50:36.913Z</time></trkpt><trkpt lat="42.6518817" lon="-8.66923"><ele>294.0</ele><time>2026-04-17T12:50:37.913Z</time></trkpt><trkpt lat="42.6520367" lon="-8.6691817"><ele>294.0</ele><time>2026-04-17T12:50:38.913Z</time></trkpt><trkpt lat="42.6521783" lon="-8.6691017"><ele>296.0</ele><time>2026-04-17T12:50:39.913Z</time></trkpt><trkpt lat="42.6522917" lon="-8.66902"><ele>298.0</ele><time>2026-04-17T12:50:40.914Z</time></trkpt><trkpt lat="42.6523733" lon="-8.6689417"><ele>300.0</ele><time>2026-04-17T12:50:41.914Z</time></trkpt><trkpt lat="42.6539833" lon="-8.670235"><ele>304.0</ele><time>2026-04-17T12:50:10.914Z</time></trkpt><trkpt lat="42.6538383" lon="-8.6702167"><ele>308.0</ele><time>2026-04-17T12:50:11.913Z</time></trkpt><trkpt lat="42.653685" lon="-8.6702017"><ele>312.0</ele><time>2026-04-17T12:50:12.914Z</time></trkpt><trkpt lat="42.6535283" lon="-8.6701833"><ele>312.0</ele><time>2026-04-17T12:50:13.914Z</time></trkpt><trkpt lat="42.6533733" lon="-8.670165"><ele>312.0</ele><time>2026-04-17T12:50:14.914Z</time></trkpt><trkpt lat="42.653225" lon="-8.6701517"><ele>312.0</ele><time>2026-04-17T12:50:15.914Z</time></trkpt><trkpt lat="42.6530867" lon="-8.6701383"><ele>312.0</ele><time>2026-04-17T12:50:16.914Z</time></trkpt><trkpt lat="42.6529567" lon="-8.6701233"><ele>312.0</ele><time>2026-04-17T12:50:17.914Z</time></trkpt><trkpt lat="42.6528267" lon="-8.670105"><ele>312.0</ele><time>2026-04-17T12:50:18.914Z</time></trkpt><trkpt lat="42.6526967" lon="-8.6700817"><ele>312.0</ele><time>2026-04-17T12:50:19.914Z</time></trkpt><trkpt lat="42.6525667" lon="-8.6700433"><ele>312.0</ele><time>2026-04-17T12:50:20.914Z</time></trkpt><trkpt lat="42.652425" lon="-8.66998"><ele>310.0</ele><time>2026-04-17T12:50:21.913Z</time></trkpt><trkpt lat="42.652275" lon="-8.669895"><ele>308.0</ele><time>2026-04-17T12:50:22.913Z</time></trkpt><trkpt lat="42.6521317" lon="-8.6698033"><ele>306.0</ele><time>2026-04-17T12:50:23.913Z</time></trkpt><trkpt lat="42.651995" lon="-8.6697133"><ele>306.0</ele><time>2026-04-17T12:50:24.914Z</time></trkpt><trkpt lat="42.65186" lon="-8.669625"><ele>306.0</ele><time>2026-04-17T12:50:25.913Z</time></trkpt><trkpt lat="42.6517317" lon="-8.669545"><ele>306.0</ele><time>2026-04-17T12:50:26.913Z</time></trkpt><trkpt lat="42.651615" lon="-8.6694833"><ele>306.0</ele><time>2026-04-17T12:50:27.913Z</time></trkpt><trkpt lat="42.6515167" lon="-8.6694317"><ele>304.0</ele><time>2026-04-17T12:50:28.914Z</time></trkpt><trkpt lat="42.651445" lon="-8.6693817"><ele>302.0</ele><time>2026-04-17T12:50:29.913Z</time></trkpt><trkpt lat="42.6513833" lon="-8.6692833"><ele>300.0</ele><time>2026-04-17T12:50:31.913Z</time></trkpt><trkpt lat="42.6514417" lon="-8.669235"><ele>298.0</ele><time>2026-04-17T12:50:33.913Z</time></trkpt><trkpt lat="42.6515117" lon="-8.6692467"><ele>296.0</ele><time>2026-04-17T12:50:34.913Z</time></trkpt><trkpt lat="42.6516167" lon="-8.6692533"><ele>294.0</ele><time>2026-04-17T12:50:35.913Z</time></trkpt><trkpt lat="42.6517417" lon="-8.6692483"><ele>294.0</ele><time>2026-04-17T12:50:36.913Z</time></trkpt><trkpt lat="42.6518817" lon="-8.66923"><ele>294.0</ele><time>2026-04-17T12:50:37.913Z</time></trkpt><trkpt lat="42.6520367" lon="-8.6691817"><ele>294.0</ele><time>2026-04-17T12:50:38.913Z</time></trkpt><trkpt lat="42.6521783" lon="-8.6691017"><ele>295.2</ele><time>2026-04-17T12:50:39.913Z</time></trkpt><trkpt lat="42.6522917" lon="-8.66902"><ele>296.4</ele><time>2026-04-17T12:50:40.914Z</time></trkpt><trkpt lat="42.6523733" lon="-8.6689417"><ele>297.6</ele><time>2026-04-17T12:50:41.914Z</time></trkpt><trkpt lat="42.65243" lon="-8.668855"><ele>298.8</ele><time>2026-04-17T12:50:42.914Z</time></trkpt><trkpt lat="42.6524717" lon="-8.66876"><ele>300.0</ele><time>2026-04-17T12:50:43.913Z</time></trkpt><trkpt lat="42.6525017" lon="-8.6686833"><ele>300.0</ele><time>2026-04-17T12:50:44.913Z</time></trkpt><trkpt lat="42.65254" lon="-8.668605"><ele>300.0</ele><time>2026-04-17T12:50:47.914Z</time></trkpt><trkpt lat="42.6524717" lon="-8.6687367"><ele>300.0</ele><time>2026-04-17T12:50:57.914Z</time></trkpt><trkpt lat="42.6524733" lon="-8.6688767"><ele>300.0</ele><time>2026-04-17T12:50:59.913Z</time></trkpt><trkpt lat="42.65254" lon="-8.6688983"><ele>300.0</ele><time>2026-04-17T12:51:01.914Z</time></trkpt><trkpt lat="42.6526033" lon="-8.66886"><ele>300.0</ele><time>2026-04-17T12:51:02.913Z</time></trkpt><trkpt lat="42.6526817" lon="-8.6688033"><ele>300.0</ele><time>2026-04-17T12:51:03.913Z</time></trkpt><trkpt lat="42.652785" lon="-8.6687233"><ele>300.0</ele><time>2026-04-17T12:51:04.914Z</time></trkpt><trkpt lat="42.65291" lon="-8.6686367"><ele>300.0</ele><time>2026-04-17T12:51:05.913Z</time></trkpt><trkpt lat="42.65305" lon="-8.668555"><ele>300.0</ele><time>2026-04-17T12:51:06.913Z</time></trkpt><trkpt lat="42.6532033" lon="-8.6684783"><ele>298.6666666666667</ele><time>2026-04-17T12:51:07.913Z</time></trkpt><trkpt lat="42.6533567" lon="-8.6684033"><ele>297.33333333333337</ele><time>2026-04-17T12:51:08.913Z</time></trkpt><trkpt lat="42.653505" lon="-8.6683183"><ele>296.0</ele><time>2026-04-17T12:51:09.914Z</time></trkpt><trkpt lat="42.6536433" lon="-8.66822"><ele>298.6666666666667</ele><time>2026-04-17T12:51:10.914Z</time></trkpt><trkpt lat="42.6537933" lon="-8.6681167"><ele>301.3333333333333</ele><time>2026-04-17T12:51:11.913Z</time></trkpt><trkpt lat="42.6539567" lon="-8.6680167"><ele>304.0</ele><time>2026-04-17T12:51:12.913Z</time></trkpt><trkpt lat="42.65414" lon="-8.6679233"><ele>304.0</ele><time>2026-04-17T12:51:13.913Z</time></trkpt><trkpt lat="42.6543433" lon="-8.66784"><ele>304.0</ele><time>2026-04-17T12:51:14.913Z</time></trkpt><trkpt lat="42.6545433" lon="-8.66778"><ele>304.0</ele><time>2026-04-17T12:51:15.913Z</time></trkpt><trkpt lat="42.65475" lon="-8.66775"><ele>305.66666666666663</ele><time>2026-04-17T12:51:16.914Z</time></trkpt><trkpt lat="42.6549567" lon="-8.6677283"><ele>307.3333333333333</ele><time>2026-04-17T12:51:17.914Z</time></trkpt><trkpt lat="42.6551417" lon="-8.6677"><ele>309.0</ele><time>2026-04-17T12:51:18.914Z</time></trkpt><trkpt lat="42.6553" lon="-8.6676517"><ele>309.0</ele><time>2026-04-17T12:51:19.913Z</time></trkpt><trkpt lat="42.6554433" lon="-8.6675733"><ele>309.0</ele><time>2026-04-17T12:51:20.914Z</time></trkpt><trkpt lat="42.6555833" lon="-8.6674517"><ele>309.0</ele><time>2026-04-17T12:51:21.913Z</time></trkpt><trkpt lat="42.6557317" lon="-8.667295"><ele>309.0</ele><time>2026-04-17T12:51:22.914Z</time></trkpt><trkpt lat="42.65588" lon="-8.6671383"><ele>309.0</ele><time>2026-04-17T12:51:23.914Z</time></trkpt><trkpt lat="42.6560383" lon="-8.666995"><ele>309.0</ele><time>2026-04-17T12:51:24.914Z</time></trkpt><trkpt lat="42.6562217" lon="-8.6668617"><ele>307.5</ele><time>2026-04-17T12:51:25.913Z</time></trkpt><trkpt lat="42.656425" lon="-8.6667367"><ele>306.0</ele><time>2026-04-17T12:51:26.913Z</time></trkpt><trkpt lat="42.6566417" lon="-8.6666083"><ele>306.0</ele><time>2026-04-17T12:51:27.913Z</time></trkpt><trkpt lat="42.6568683" lon="-8.666475"><ele>306.0</ele><time>2026-04-17T12:51:28.914Z</time></trkpt><trkpt lat="42.6570867" lon="-8.6663483"><ele>303.0</ele><time>2026-04-17T12:51:29.913Z</time></trkpt><trkpt lat="42.6572833" lon="-8.666235"><ele>300.0</ele><time>2026-04-17T12:51:30.914Z</time></trkpt><trkpt lat="42.6574617" lon="-8.6661483"><ele>297.0</ele><time>2026-04-17T12:51:31.914Z</time></trkpt><trkpt lat="42.6576267" lon="-8.666095"><ele>300.0</ele><time>2026-04-17T12:51:32.913Z</time></trkpt><trkpt lat="42.657795" lon="-8.6660867"><ele>303.0</ele><time>2026-04-17T12:51:33.913Z</time></trkpt><trkpt lat="42.6579683" lon="-8.666105"><ele>306.0</ele><time>2026-04-17T12:51:34.913Z</time></trkpt><trkpt lat="42.6581367" lon="-8.6661033"><ele>306.0</ele><time>2026-04-17T12:51:35.914Z</time></trkpt><trkpt lat="42.6582967" lon="-8.6660533"><ele>306.0</ele><time>2026-04-17T12:51:36.914Z</time></trkpt><trkpt lat="42.6584283" lon="-8.6659583"><ele>306.0</ele><time>2026-04-17T12:51:37.914Z</time></trkpt><trkpt lat="42.6585367" lon="-8.6658183"><ele>309.75</ele><time>2026-04-17T12:51:38.913Z</time></trkpt><trkpt lat="42.658635" lon="-8.6656717"><ele>313.5</ele><time>2026-04-17T12:51:39.913Z</time></trkpt><trkpt lat="42.6587417" lon="-8.665535"><ele>317.25</ele><time>2026-04-17T12:51:40.913Z</time></trkpt><trkpt lat="42.6588667" lon="-8.665425"><ele>321.0</ele><time>2026-04-17T12:51:41.914Z</time></trkpt><trkpt lat="42.6590167" lon="-8.66532"><ele>322.3333333333333</ele><time>2026-04-17T12:51:42.913Z</time></trkpt><trkpt lat="42.659185" lon="-8.665195"><ele>323.66666666666663</ele><time>2026-04-17T12:51:43.913Z</time></trkpt><trkpt lat="42.65936" lon="-8.66504"><ele>325.0</ele><time>2026-04-17T12:51:44.913Z</time></trkpt><trkpt lat="42.6595267" lon="-8.6648817"><ele>325.0</ele><time>2026-04-17T12:51:45.914Z</time></trkpt><trkpt lat="42.6596717" lon="-8.6647433"><ele>325.0</ele><time>2026-04-17T12:51:46.913Z</time></trkpt><trkpt lat="42.6598183" lon="-8.6646183"><ele>325.0</ele><time>2026-04-17T12:51:47.913Z</time></trkpt><trkpt lat="42.6599883" lon="-8.6645067"><ele>324.3333333333333</ele><time>2026-04-17T12:51:48.914Z</time></trkpt><trkpt lat="42.6601767" lon="-8.6644017"><ele>323.6666666666667</ele><time>2026-04-17T12:51:49.914Z</time></trkpt><trkpt lat="42.66037" lon="-8.6642833"><ele>323.0</ele><time>2026-04-17T12:51:50.913Z</time></trkpt><trkpt lat="42.66055" lon="-8.6641467"><ele>323.0</ele><time>2026-04-17T12:51:51.914Z</time></trkpt><trkpt lat="42.660715" lon="-8.664005"><ele>323.0</ele><time>2026-04-17T12:51:52.913Z</time></trkpt><trkpt lat="42.6608783" lon="-8.6638817"><ele>323.0</ele><time>2026-04-17T12:51:53.913Z</time></trkpt><trkpt lat="42.661045" lon="-8.663795"><ele>324.6666666666667</ele><time>2026-04-17T12:51:54.914Z</time></trkpt><trkpt lat="42.6612067" lon="-8.6637483"><ele>326.3333333333333</ele><time>2026-04-17T12:51:55.913Z</time></trkpt><trkpt lat="42.661365" lon="-8.6637433"><ele>328.0</ele><time>2026-04-17T12:51:56.914Z</time></trkpt><trkpt lat="42.66153" lon="-8.6637817"><ele>328.0</ele><time>2026-04-17T12:51:57.914Z</time></trkpt><trkpt lat="42.661705" lon="-8.6638617"><ele>328.0</ele><time>2026-04-17T12:51:58.913Z</time></trkpt><trkpt lat="42.661875" lon="-8.6639467"><ele>328.0</ele><time>2026-04-17T12:51:59.913Z</time></trkpt><trkpt lat="42.662035" lon="-8.66399"><ele>328.3333333333333</ele><time>2026-04-17T12:52:00.914Z</time></trkpt><trkpt lat="42.6621983" lon="-8.6639783"><ele>328.6666666666667</ele><time>2026-04-17T12:52:01.914Z</time></trkpt><trkpt lat="42.6623733" lon="-8.6639233"><ele>329.0</ele><time>2026-04-17T12:52:02.914Z</time></trkpt><trkpt lat="42.66256" lon="-8.6638467"><ele>329.0</ele><time>2026-04-17T12:52:03.914Z</time></trkpt><trkpt lat="42.66277" lon="-8.6637633"><ele>329.0</ele><time>2026-04-17T12:52:04.914Z</time></trkpt><trkpt lat="42.6629983" lon="-8.6636883"><ele>329.0</ele><time>2026-04-17T12:52:05.914Z</time></trkpt><trkpt lat="42.663225" lon="-8.663625"><ele>329.0</ele><time>2026-04-17T12:52:06.913Z</time></trkpt><trkpt lat="42.6634183" lon="-8.663565"><ele>329.0</ele><time>2026-04-17T12:52:07.913Z</time></trkpt><trkpt lat="42.6635817" lon="-8.6634933"><ele>324.5</ele><time>2026-04-17T12:52:08.914Z</time></trkpt><trkpt lat="42.6637283" lon="-8.6633867"><ele>320.0</ele><time>2026-04-17T12:52:09.914Z</time></trkpt><trkpt lat="42.6585367" lon="-8.6658183"><ele>320.25</ele><time>2026-04-17T12:51:38.913Z</time></trkpt><trkpt lat="42.658635" lon="-8.6656717"><ele>320.5</ele><time>2026-04-17T12:51:39.913Z</time></trkpt><trkpt lat="42.6587417" lon="-8.665535"><ele>320.75</ele><time>2026-04-17T12:51:40.913Z</time></trkpt><trkpt lat="42.6588667" lon="-8.665425"><ele>321.0</ele><time>2026-04-17T12:51:41.914Z</time></trkpt><trkpt lat="42.6590167" lon="-8.66532"><ele>322.3333333333333</ele><time>2026-04-17T12:51:42.913Z</time></trkpt><trkpt lat="42.659185" lon="-8.665195"><ele>323.66666666666663</ele><time>2026-04-17T12:51:43.913Z</time></trkpt><trkpt lat="42.65936" lon="-8.66504"><ele>325.0</ele><time>2026-04-17T12:51:44.913Z</time></trkpt><trkpt lat="42.6595267" lon="-8.6648817"><ele>325.0</ele><time>2026-04-17T12:51:45.914Z</time></trkpt><trkpt lat="42.6596717" lon="-8.6647433"><ele>325.0</ele><time>2026-04-17T12:51:46.913Z</time></trkpt><trkpt lat="42.6598183" lon="-8.6646183"><ele>325.0</ele><time>2026-04-17T12:51:47.913Z</time></trkpt><trkpt lat="42.6599883" lon="-8.6645067"><ele>324.3333333333333</ele><time>2026-04-17T12:51:48.914Z</time></trkpt><trkpt lat="42.6601767" lon="-8.6644017"><ele>323.6666666666667</ele><time>2026-04-17T12:51:49.914Z</time></trkpt><trkpt lat="42.66037" lon="-8.6642833"><ele>323.0</ele><time>2026-04-17T12:51:50.913Z</time></trkpt><trkpt lat="42.66055" lon="-8.6641467"><ele>323.0</ele><time>2026-04-17T12:51:51.914Z</time></trkpt><trkpt lat="42.660715" lon="-8.664005"><ele>323.0</ele><time>2026-04-17T12:51:52.913Z</time></trkpt><trkpt lat="42.6608783" lon="-8.6638817"><ele>323.0</ele><time>2026-04-17T12:51:53.913Z</time></trkpt><trkpt lat="42.661045" lon="-8.663795"><ele>324.6666666666667</ele><time>2026-04-17T12:51:54.914Z</time></trkpt><trkpt lat="42.6612067" lon="-8.6637483"><ele>326.3333333333333</ele><time>2026-04-17T12:51:55.913Z</time></trkpt><trkpt lat="42.661365" lon="-8.6637433"><ele>328.0</ele><time>2026-04-17T12:51:56.914Z</time></trkpt><trkpt lat="42.66153" lon="-8.6637817"><ele>328.0</ele><time>2026-04-17T12:51:57.914Z</time></trkpt><trkpt lat="42.661705" lon="-8.6638617"><ele>328.0</ele><time>2026-04-17T12:51:58.913Z</time></trkpt><trkpt lat="42.661875" lon="-8.6639467"><ele>328.0</ele><time>2026-04-17T12:51:59.913Z</time></trkpt><trkpt lat="42.662035" lon="-8.66399"><ele>328.3333333333333</ele><time>2026-04-17T12:52:00.914Z</time></trkpt><trkpt lat="42.6621983" lon="-8.6639783"><ele>328.6666666666667</ele><time>2026-04-17T12:52:01.914Z</time></trkpt><trkpt lat="42.6623733" lon="-8.6639233"><ele>329.0</ele><time>2026-04-17T12:52:02.914Z</time></trkpt><trkpt lat="42.66256" lon="-8.6638467"><ele>329.0</ele><time>2026-04-17T12:52:03.914Z</time></trkpt><trkpt lat="42.66277" lon="-8.6637633"><ele>329.0</ele><time>2026-04-17T12:52:04.914Z</time></trkpt><trkpt lat="42.6629983" lon="-8.6636883"><ele>329.0</ele><time>2026-04-17T12:52:05.914Z</time></trkpt><trkpt lat="42.663225" lon="-8.663625"><ele>329.0</ele><time>2026-04-17T12:52:06.913Z</time></trkpt><trkpt lat="42.6634183" lon="-8.663565"><ele>329.0</ele><time>2026-04-17T12:52:07.913Z</time></trkpt><trkpt lat="42.6635817" lon="-8.6634933"><ele>326.0</ele><time>2026-04-17T12:52:08.914Z</time></trkpt><trkpt lat="42.6637283" lon="-8.6633867"><ele>323.0</ele><time>2026-04-17T12:52:09.914Z</time></trkpt><trkpt lat="42.6638567" lon="-8.6632567"><ele>320.0</ele><time>2026-04-17T12:52:10.914Z</time></trkpt><trkpt lat="42.663975" lon="-8.66315"><ele>320.0</ele><time>2026-04-17T12:52:11.913Z</time></trkpt><trkpt lat="42.6640967" lon="-8.66308"><ele>320.0</ele><time>2026-04-17T12:52:12.913Z</time></trkpt><trkpt lat="42.6642367" lon="-8.6630467"><ele>320.0</ele><time>2026-04-17T12:52:13.913Z</time></trkpt><trkpt lat="42.664395" lon="-8.6630433"><ele>320.0</ele><time>2026-04-17T12:52:14.913Z</time></trkpt><trkpt lat="42.6645583" lon="-8.663055"><ele>318.5</ele><time>2026-04-17T12:52:15.913Z</time></trkpt><trkpt lat="42.6647083" lon="-8.66309"><ele>317.0</ele><time>2026-04-17T12:52:16.914Z</time></trkpt><trkpt lat="42.6648433" lon="-8.6631583"><ele>315.5</ele><time>2026-04-17T12:52:17.913Z</time></trkpt><trkpt lat="42.6649733" lon="-8.66326"><ele>314.0</ele><time>2026-04-17T12:52:18.913Z</time></trkpt><trkpt lat="42.665095" lon="-8.66337"><ele>314.0</ele><time>2026-04-17T12:52:19.914Z</time></trkpt><trkpt lat="42.6652083" lon="-8.6634567"><ele>314.0</ele><time>2026-04-17T12:52:20.914Z</time></trkpt><trkpt lat="42.665335" lon="-8.6635083"><ele>314.0</ele><time>2026-04-17T12:52:21.913Z</time></trkpt><trkpt lat="42.6654833" lon="-8.6635283"><ele>314.0</ele><time>2026-04-17T12:52:22.913Z</time></trkpt><trkpt lat="42.665645" lon="-8.66355"><ele>312.33333333333337</ele><time>2026-04-17T12:52:23.913Z</time></trkpt><trkpt lat="42.665815" lon="-8.6635967"><ele>310.6666666666667</ele><time>2026-04-17T12:52:24.914Z</time></trkpt><trkpt lat="42.66598" lon="-8.66367"><ele>309.0</ele><time>2026-04-17T12:52:25.914Z</time></trkpt><trkpt lat="42.6661317" lon="-8.6637683"><ele>309.0</ele><time>2026-04-17T12:52:26.913Z</time></trkpt><trkpt lat="42.666275" lon="-8.663885"><ele>309.0</ele><time>2026-04-17T12:52:27.914Z</time></trkpt><trkpt lat="42.666415" lon="-8.6639883"><ele>309.0</ele><time>2026-04-17T12:52:28.913Z</time></trkpt><trkpt lat="42.6665633" lon="-8.6640517"><ele>309.0</ele><time>2026-04-17T12:52:29.914Z</time></trkpt><trkpt lat="42.6667283" lon="-8.664085"><ele>309.0</ele><time>2026-04-17T12:52:30.913Z</time></trkpt><trkpt lat="42.666895" lon="-8.6641133"><ele>309.0</ele><time>2026-04-17T12:52:31.914Z</time></trkpt><trkpt lat="42.6670567" lon="-8.6641567"><ele>305.6666666666667</ele><time>2026-04-17T12:52:32.913Z</time></trkpt><trkpt lat="42.6672067" lon="-8.6642183"><ele>302.33333333333337</ele><time>2026-04-17T12:52:33.914Z</time></trkpt><trkpt lat="42.6673433" lon="-8.664305"><ele>299.0</ele><time>2026-04-17T12:52:34.913Z</time></trkpt><trkpt lat="42.66746" lon="-8.6644183"><ele>299.5</ele><time>2026-04-17T12:52:35.913Z</time></trkpt><trkpt lat="42.6675567" lon="-8.6645617"><ele>300.0</ele><time>2026-04-17T12:52:36.914Z</time></trkpt><trkpt lat="42.6676383" lon="-8.664725"><ele>300.5</ele><time>2026-04-17T12:52:37.913Z</time></trkpt><trkpt lat="42.6677167" lon="-8.6648683"><ele>301.0</ele><time>2026-04-17T12:52:38.913Z</time></trkpt><trkpt lat="42.6678017" lon="-8.664975"><ele>301.0</ele><time>2026-04-17T12:52:39.914Z</time></trkpt><trkpt lat="42.6679033" lon="-8.665035"><ele>301.0</ele><time>2026-04-17T12:52:40.914Z</time></trkpt><trkpt lat="42.6680333" lon="-8.6650517"><ele>301.0</ele><time>2026-04-17T12:52:41.913Z</time></trkpt><trkpt lat="42.6681917" lon="-8.6650417"><ele>301.0</ele><time>2026-04-17T12:52:42.913Z</time></trkpt><trkpt lat="42.66838" lon="-8.66503"><ele>301.0</ele><time>2026-04-17T12:52:43.913Z</time></trkpt><trkpt lat="42.6685633" lon="-8.6650383"><ele>301.0</ele><time>2026-04-17T12:52:44.914Z</time></trkpt><trkpt lat="42.66873" lon="-8.66508"><ele>301.0</ele><time>2026-04-17T12:52:45.914Z</time></trkpt><trkpt lat="42.6688933" lon="-8.6651633"><ele>300.0</ele><time>2026-04-17T12:52:46.913Z</time></trkpt><trkpt lat="42.6690567" lon="-8.6652667"><ele>299.0</ele><time>2026-04-17T12:52:47.913Z</time></trkpt><trkpt lat="42.669215" lon="-8.665375"><ele>298.0</ele><time>2026-04-17T12:52:48.913Z</time></trkpt><trkpt lat="42.6693767" lon="-8.665485"><ele>299.3333333333333</ele><time>2026-04-17T12:52:49.914Z</time></trkpt><trkpt lat="42.6695217" lon="-8.66559"><ele>300.6666666666667</ele><time>2026-04-17T12:52:50.913Z</time></trkpt><trkpt lat="42.6696567" lon="-8.665705"><ele>302.0</ele><time>2026-04-17T12:52:51.914Z</time></trkpt><trkpt lat="42.6697867" lon="-8.66586"><ele>302.0</ele><time>2026-04-17T12:52:52.913Z</time></trkpt><trkpt lat="42.66991" lon="-8.66603"><ele>302.0</ele><time>2026-04-17T12:52:53.914Z</time></trkpt><trkpt lat="42.6700467" lon="-8.6661867"><ele>302.0</ele><time>2026-04-17T12:52:54.913Z</time></trkpt><trkpt lat="42.6702" lon="-8.666325"><ele>302.0</ele><time>2026-04-17T12:52:55.913Z</time></trkpt><trkpt lat="42.670355" lon="-8.6664333"><ele>302.0</ele><time>2026-04-17T12:52:56.914Z</time></trkpt><trkpt lat="42.6705133" lon="-8.6665333"><ele>302.0</ele><time>2026-04-17T12:52:57.913Z</time></trkpt><trkpt lat="42.670675" lon="-8.6666333"><ele>302.0</ele><time>2026-04-17T12:52:58.914Z</time></trkpt><trkpt lat="42.67083" lon="-8.6667367"><ele>302.0</ele><time>2026-04-17T12:52:59.914Z</time></trkpt><trkpt lat="42.6709867" lon="-8.6668267"><ele>302.0</ele><time>2026-04-17T12:53:00.914Z</time></trkpt><trkpt lat="42.671145" lon="-8.6668967"><ele>301.6666666666667</ele><time>2026-04-17T12:53:01.914Z</time></trkpt><trkpt lat="42.6713" lon="-8.666955"><ele>301.3333333333333</ele><time>2026-04-17T12:53:02.914Z</time></trkpt><trkpt lat="42.671445" lon="-8.6670183"><ele>301.0</ele><time>2026-04-17T12:53:03.914Z</time></trkpt><trkpt lat="42.67158" lon="-8.6671017"><ele>301.0</ele><time>2026-04-17T12:53:04.913Z</time></trkpt><trkpt lat="42.671705" lon="-8.667215"><ele>301.0</ele><time>2026-04-17T12:53:05.913Z</time></trkpt><trkpt lat="42.67181" lon="-8.66735"><ele>301.0</ele><time>2026-04-17T12:53:06.913Z</time></trkpt><trkpt lat="42.6718983" lon="-8.6674967"><ele>301.0</ele><time>2026-04-17T12:53:07.914Z</time></trkpt><trkpt lat="42.6719667" lon="-8.66767"><ele>293.66666666666663</ele><time>2026-04-17T12:53:08.914Z</time></trkpt><trkpt lat="42.672015" lon="-8.66787"><ele>286.3333333333333</ele><time>2026-04-17T12:53:09.913Z</time></trkpt><trkpt lat="42.672055" lon="-8.6681"><ele>279.0</ele><time>2026-04-17T12:53:10.914Z</time></trkpt><trkpt lat="42.6720983" lon="-8.668345"><ele>279.0</ele><time>2026-04-17T12:53:11.913Z</time></trkpt><trkpt lat="42.6721433" lon="-8.6685933"><ele>279.0</ele><time>2026-04-17T12:53:12.913Z</time></trkpt><trkpt lat="42.6721833" lon="-8.66883"><ele>279.0</ele><time>2026-04-17T12:53:13.914Z</time></trkpt><trkpt lat="42.672205" lon="-8.6690667"><ele>278.6666666666667</ele><time>2026-04-17T12:53:14.914Z</time></trkpt><trkpt lat="42.672205" lon="-8.6692983"><ele>278.33333333333337</ele><time>2026-04-17T12:53:15.914Z</time></trkpt><trkpt lat="42.6721983" lon="-8.669535"><ele>278.0</ele><time>2026-04-17T12:53:16.913Z</time></trkpt><trkpt lat="42.672205" lon="-8.66975"><ele>277.5</ele><time>2026-04-17T12:53:17.914Z</time></trkpt><trkpt lat="42.6722083" lon="-8.6699367"><ele>277.0</ele><time>2026-04-17T12:53:18.913Z</time></trkpt><trkpt lat="42.6722033" lon="-8.6701233"><ele>276.5</ele><time>2026-04-17T12:53:19.914Z</time></trkpt><trkpt lat="42.672185" lon="-8.670325"><ele>276.0</ele><time>2026-04-17T12:53:20.914Z</time></trkpt><trkpt lat="42.672165" lon="-8.6705367"><ele>276.0</ele><time>2026-04-17T12:53:21.913Z</time></trkpt><trkpt lat="42.6721683" lon="-8.670755"><ele>276.0</ele><time>2026-04-17T12:53:22.913Z</time></trkpt><trkpt lat="42.6722017" lon="-8.6709717"><ele>276.0</ele><time>2026-04-17T12:53:23.913Z</time></trkpt><trkpt lat="42.6722567" lon="-8.6711733"><ele>277.5</ele><time>2026-04-17T12:53:24.913Z</time></trkpt><trkpt lat="42.67233" lon="-8.67134"><ele>279.0</ele><time>2026-04-17T12:53:25.914Z</time></trkpt><trkpt lat="42.672435" lon="-8.67148"><ele>280.5</ele><time>2026-04-17T12:53:26.914Z</time></trkpt><trkpt lat="42.6725467" lon="-8.6715883"><ele>282.0</ele><time>2026-04-17T12:53:27.914Z</time></trkpt><trkpt lat="42.672665" lon="-8.67166"><ele>280.5</ele><time>2026-04-17T12:53:28.914Z</time></trkpt><trkpt lat="42.6728017" lon="-8.6717067"><ele>279.0</ele><time>2026-04-17T12:53:29.913Z</time></trkpt><trkpt lat="42.67295" lon="-8.671745"><ele>277.5</ele><time>2026-04-17T12:53:30.914Z</time></trkpt><trkpt lat="42.67309" lon="-8.6717967"><ele>276.0</ele><time>2026-04-17T12:53:31.913Z</time></trkpt><trkpt lat="42.6732133" lon="-8.6718783"><ele>278.0</ele><time>2026-04-17T12:53:32.914Z</time></trkpt><trkpt lat="42.6733183" lon="-8.6719783"><ele>280.0</ele><time>2026-04-17T12:53:33.913Z</time></trkpt><trkpt lat="42.6733967" lon="-8.6720983"><ele>282.0</ele><time>2026-04-17T12:53:34.913Z</time></trkpt><trkpt lat="42.6734617" lon="-8.6722433"><ele>284.0</ele><time>2026-04-17T12:53:35.914Z</time></trkpt><trkpt lat="42.6735267" lon="-8.67241"><ele>284.0</ele><time>2026-04-17T12:53:36.914Z</time></trkpt><trkpt lat="42.673595" lon="-8.6725783"><ele>284.0</ele><time>2026-04-17T12:53:37.913Z</time></trkpt><trkpt lat="42.67181" lon="-8.66735"><ele>282.75</ele><time>2026-04-17T12:53:06.913Z</time></trkpt><trkpt lat="42.6718983" lon="-8.6674967"><ele>281.5</ele><time>2026-04-17T12:53:07.914Z</time></trkpt><trkpt lat="42.6719667" lon="-8.66767"><ele>280.25</ele><time>2026-04-17T12:53:08.914Z</time></trkpt><trkpt lat="42.672015" lon="-8.66787"><ele>279.0</ele><time>2026-04-17T12:53:09.913Z</time></trkpt><trkpt lat="42.672055" lon="-8.6681"><ele>279.0</ele><time>2026-04-17T12:53:10.914Z</time></trkpt><trkpt lat="42.6720983" lon="-8.668345"><ele>279.0</ele><time>2026-04-17T12:53:11.913Z</time></trkpt><trkpt lat="42.6721433" lon="-8.6685933"><ele>279.0</ele><time>2026-04-17T12:53:12.913Z</time></trkpt><trkpt lat="42.6721833" lon="-8.66883"><ele>278.6666666666667</ele><time>2026-04-17T12:53:13.914Z</time></trkpt><trkpt lat="42.672205" lon="-8.6690667"><ele>278.33333333333337</ele><time>2026-04-17T12:53:14.914Z</time></trkpt><trkpt lat="42.672205" lon="-8.6692983"><ele>278.0</ele><time>2026-04-17T12:53:15.914Z</time></trkpt><trkpt lat="42.6721983" lon="-8.669535"><ele>277.5</ele><time>2026-04-17T12:53:16.913Z</time></trkpt><trkpt lat="42.672205" lon="-8.66975"><ele>277.0</ele><time>2026-04-17T12:53:17.914Z</time></trkpt><trkpt lat="42.6722083" lon="-8.6699367"><ele>276.5</ele><time>2026-04-17T12:53:18.913Z</time></trkpt><trkpt lat="42.6722033" lon="-8.6701233"><ele>276.0</ele><time>2026-04-17T12:53:19.914Z</time></trkpt><trkpt lat="42.672185" lon="-8.670325"><ele>276.0</ele><time>2026-04-17T12:53:20.914Z</time></trkpt><trkpt lat="42.672165" lon="-8.6705367"><ele>276.0</ele><time>2026-04-17T12:53:21.913Z</time></trkpt><trkpt lat="42.6721683" lon="-8.670755"><ele>276.0</ele><time>2026-04-17T12:53:22.913Z</time></trkpt><trkpt lat="42.6722017" lon="-8.6709717"><ele>277.5</ele><time>2026-04-17T12:53:23.913Z</time></trkpt><trkpt lat="42.6722567" lon="-8.6711733"><ele>279.0</ele><time>2026-04-17T12:53:24.913Z</time></trkpt><trkpt lat="42.67233" lon="-8.67134"><ele>280.5</ele><time>2026-04-17T12:53:25.914Z</time></trkpt><trkpt lat="42.672435" lon="-8.67148"><ele>282.0</ele><time>2026-04-17T12:53:26.914Z</time></trkpt><trkpt lat="42.6725467" lon="-8.6715883"><ele>282.0</ele><time>2026-04-17T12:53:27.914Z</time></trkpt><trkpt lat="42.672665" lon="-8.67166"><ele>282.0</ele><time>2026-04-17T12:53:28.914Z</time></trkpt><trkpt lat="42.6728017" lon="-8.6717067"><ele>282.0</ele><time>2026-04-17T12:53:29.913Z</time></trkpt><trkpt lat="42.67295" lon="-8.671745"><ele>282.0</ele><time>2026-04-17T12:53:30.914Z</time></trkpt><trkpt lat="42.67309" lon="-8.6717967"><ele>282.5</ele><time>2026-04-17T12:53:31.913Z</time></trkpt><trkpt lat="42.6732133" lon="-8.6718783"><ele>283.0</ele><time>2026-04-17T12:53:32.914Z</time></trkpt><trkpt lat="42.6733183" lon="-8.6719783"><ele>283.5</ele><time>2026-04-17T12:53:33.913Z</time></trkpt><trkpt lat="42.6733967" lon="-8.6720983"><ele>284.0</ele><time>2026-04-17T12:53:34.913Z</time></trkpt><trkpt lat="42.6734617" lon="-8.6722433"><ele>284.0</ele><time>2026-04-17T12:53:35.914Z</time></trkpt><trkpt lat="42.6735267" lon="-8.67241"><ele>284.0</ele><time>2026-04-17T12:53:36.914Z</time></trkpt><trkpt lat="42.673595" lon="-8.6725783"><ele>284.0</ele><time>2026-04-17T12:53:37.913Z</time></trkpt><trkpt lat="42.673675" lon="-8.67272"><ele>284.0</ele><time>2026-04-17T12:53:38.914Z</time></trkpt><trkpt lat="42.67377" lon="-8.6728533"><ele>282.0</ele><time>2026-04-17T12:53:39.913Z</time></trkpt><trkpt lat="42.6738717" lon="-8.6729983"><ele>280.0</ele><time>2026-04-17T12:53:40.914Z</time></trkpt><trkpt lat="42.6739633" lon="-8.673165"><ele>278.0</ele><time>2026-04-17T12:53:41.913Z</time></trkpt><trkpt lat="42.6740417" lon="-8.6733633"><ele>278.0</ele><time>2026-04-17T12:53:42.913Z</time></trkpt><trkpt lat="42.6741183" lon="-8.6735767"><ele>278.0</ele><time>2026-04-17T12:53:43.914Z</time></trkpt><trkpt lat="42.6742033" lon="-8.673785"><ele>278.0</ele><time>2026-04-17T12:53:44.913Z</time></trkpt><trkpt lat="42.6743" lon="-8.6739817"><ele>279.5</ele><time>2026-04-17T12:53:45.913Z</time></trkpt><trkpt lat="42.6743983" lon="-8.674145"><ele>281.0</ele><time>2026-04-17T12:53:46.914Z</time></trkpt><trkpt lat="42.6745117" lon="-8.6742633"><ele>282.5</ele><time>2026-04-17T12:53:47.914Z</time></trkpt><trkpt lat="42.6746233" lon="-8.6743283"><ele>284.0</ele><time>2026-04-17T12:53:48.913Z</time></trkpt><trkpt lat="42.6747233" lon="-8.6743467"><ele>281.4</ele><time>2026-04-17T12:53:49.914Z</time></trkpt><trkpt lat="42.67479" lon="-8.6743367"><ele>278.79999999999995</ele><time>2026-04-17T12:53:50.914Z</time></trkpt><trkpt lat="42.6748383" lon="-8.67426"><ele>276.20000000000005</ele><time>2026-04-17T12:53:52.914Z</time></trkpt><trkpt lat="42.6747583" lon="-8.67413"><ele>273.6</ele><time>2026-04-17T12:53:54.913Z</time></trkpt><trkpt lat="42.67468" lon="-8.6740267"><ele>271.0</ele><time>2026-04-17T12:53:55.913Z</time></trkpt><trkpt lat="42.6746017" lon="-8.6738967"><ele>271.0</ele><time>2026-04-17T12:53:56.913Z</time></trkpt><trkpt lat="42.6745417" lon="-8.673735"><ele>271.0</ele><time>2026-04-17T12:53:57.913Z</time></trkpt><trkpt lat="42.6745" lon="-8.6735533"><ele>271.0</ele><time>2026-04-17T12:53:58.913Z</time></trkpt><trkpt lat="42.67446" lon="-8.6733567"><ele>271.0</ele><time>2026-04-17T12:53:59.914Z</time></trkpt><trkpt lat="42.674405" lon="-8.6731417"><ele>271.0</ele><time>2026-04-17T12:54:00.913Z</time></trkpt><trkpt lat="42.674345" lon="-8.6729167"><ele>271.0</ele><time>2026-04-17T12:54:01.913Z</time></trkpt><trkpt lat="42.6742867" lon="-8.6727"><ele>271.0</ele><time>2026-04-17T12:54:02.913Z</time></trkpt><trkpt lat="42.67423" lon="-8.6725017"><ele>271.0</ele><time>2026-04-17T12:54:03.914Z</time></trkpt><trkpt lat="42.6741883" lon="-8.6723167"><ele>271.0</ele><time>2026-04-17T12:54:04.913Z</time></trkpt><trkpt lat="42.6741667" lon="-8.672135"><ele>271.0</ele><time>2026-04-17T12:54:05.913Z</time></trkpt><trkpt lat="42.674165" lon="-8.6719633"><ele>271.0</ele><time>2026-04-17T12:54:06.913Z</time></trkpt><trkpt lat="42.6741817" lon="-8.6718167"><ele>270.0</ele><time>2026-04-17T12:54:07.913Z</time></trkpt><trkpt lat="42.6742217" lon="-8.67169"><ele>269.0</ele><time>2026-04-17T12:54:08.914Z</time></trkpt><trkpt lat="42.67429" lon="-8.67158"><ele>268.0</ele><time>2026-04-17T12:54:09.914Z</time></trkpt><trkpt lat="42.67438" lon="-8.6714867"><ele>267.0</ele><time>2026-04-17T12:54:10.913Z</time></trkpt><trkpt lat="42.6744517" lon="-8.6713883"><ele>266.0</ele><time>2026-04-17T12:54:11.913Z</time></trkpt><trkpt lat="42.6744933" lon="-8.6712733"><ele>259.25</ele><time>2026-04-17T12:54:12.914Z</time></trkpt><trkpt lat="42.6745183" lon="-8.6711283"><ele>252.5</ele><time>2026-04-17T12:54:13.913Z</time></trkpt><trkpt lat="42.6745467" lon="-8.6709533"><ele>245.75</ele><time>2026-04-17T12:54:14.914Z</time></trkpt><trkpt lat="42.6745783" lon="-8.6707733"><ele>239.0</ele><time>2026-04-17T12:54:15.914Z</time></trkpt><trkpt lat="42.6746067" lon="-8.6706217"><ele>238.66666666666669</ele><time>2026-04-17T12:54:16.913Z</time></trkpt><trkpt lat="42.6746217" lon="-8.6704983"><ele>238.33333333333334</ele><time>2026-04-17T12:54:17.913Z</time></trkpt><trkpt lat="42.6746317" lon="-8.6704017"><ele>238.0</ele><time>2026-04-17T12:54:18.914Z</time></trkpt><trkpt lat="42.6746967" lon="-8.6704167"><ele>237.66666666666669</ele><time>2026-04-17T12:54:22.913Z</time></trkpt><trkpt lat="42.6747117" lon="-8.6705067"><ele>237.33333333333334</ele><time>2026-04-17T12:54:23.913Z</time></trkpt><trkpt lat="42.67471" lon="-8.6706367"><ele>237.0</ele><time>2026-04-17T12:54:24.913Z</time></trkpt><trkpt lat="42.674715" lon="-8.6707883"><ele>237.0</ele><time>2026-04-17T12:54:25.913Z</time></trkpt><trkpt lat="42.67476" lon="-8.671005"><ele>237.0</ele><time>2026-04-17T12:54:26.914Z</time></trkpt><trkpt lat="42.6748183" lon="-8.6711633"><ele>237.0</ele><time>2026-04-17T12:54:27.913Z</time></trkpt><trkpt lat="42.6748683" lon="-8.6713217"><ele>237.0</ele><time>2026-04-17T12:54:28.914Z</time></trkpt><trkpt lat="42.6748933" lon="-8.6714783"><ele>237.33333333333334</ele><time>2026-04-17T12:54:29.913Z</time></trkpt><trkpt lat="42.6749117" lon="-8.6716167"><ele>237.66666666666669</ele><time>2026-04-17T12:54:30.913Z</time></trkpt><trkpt lat="42.6749317" lon="-8.6717383"><ele>238.0</ele><time>2026-04-17T12:54:31.913Z</time></trkpt><trkpt lat="42.6749783" lon="-8.6718217"><ele>238.33333333333334</ele><time>2026-04-17T12:54:33.913Z</time></trkpt><trkpt lat="42.675035" lon="-8.6717367"><ele>238.66666666666669</ele><time>2026-04-17T12:54:35.914Z</time></trkpt><trkpt lat="42.6750717" lon="-8.671645"><ele>239.0</ele><time>2026-04-17T12:54:36.913Z</time></trkpt><trkpt lat="42.6751083" lon="-8.6715133"><ele>239.0</ele><time>2026-04-17T12:54:37.913Z</time></trkpt><trkpt lat="42.6751483" lon="-8.6714233"><ele>239.0</ele><time>2026-04-17T12:54:38.914Z</time></trkpt><trkpt lat="42.6751867" lon="-8.6713033"><ele>239.0</ele><time>2026-04-17T12:54:39.913Z</time></trkpt><trkpt lat="42.6752467" lon="-8.671105"><ele>239.0</ele><time>2026-04-17T12:54:40.914Z</time></trkpt><trkpt lat="42.6752967" lon="-8.670855"><ele>226.0</ele><time>2026-04-17T12:54:41.914Z</time></trkpt><trkpt lat="42.6753417" lon="-8.6706067"><ele>213.0</ele><time>2026-04-17T12:54:42.914Z</time></trkpt><trkpt lat="42.6754017" lon="-8.670425"><ele>200.0</ele><time>2026-04-17T12:54:43.914Z</time></trkpt><trkpt lat="42.675445" lon="-8.67028"><ele>201.4</ele><time>2026-04-17T12:54:44.913Z</time></trkpt><trkpt lat="42.6755367" lon="-8.67019"><ele>202.8</ele><time>2026-04-17T12:54:45.914Z</time></trkpt><trkpt lat="42.67565" lon="-8.6701417"><ele>204.2</ele><time>2026-04-17T12:54:46.913Z</time></trkpt><trkpt lat="42.6757467" lon="-8.6700767"><ele>205.6</ele><time>2026-04-17T12:54:47.914Z</time></trkpt><trkpt lat="42.6758167" lon="-8.6700133"><ele>207.0</ele><time>2026-04-17T12:54:48.913Z</time></trkpt><trkpt lat="42.6758617" lon="-8.6699467"><ele>207.0</ele><time>2026-04-17T12:54:49.914Z</time></trkpt><trkpt lat="42.67589" lon="-8.66987"><ele>207.0</ele><time>2026-04-17T12:54:50.913Z</time></trkpt><trkpt lat="42.6759117" lon="-8.669765"><ele>207.0</ele><time>2026-04-17T12:54:51.913Z</time></trkpt><trkpt lat="42.6758933" lon="-8.6695883"><ele>207.0</ele><time>2026-04-17T12:54:52.913Z</time></trkpt><trkpt lat="42.6758583" lon="-8.6694283"><ele>207.0</ele><time>2026-04-17T12:54:53.914Z</time></trkpt><trkpt lat="42.6758317" lon="-8.66929"><ele>205.5</ele><time>2026-04-17T12:54:54.913Z</time></trkpt><trkpt lat="42.6757983" lon="-8.6691833"><ele>204.0</ele><time>2026-04-17T12:54:55.914Z</time></trkpt><trkpt lat="42.6757617" lon="-8.66907"><ele>202.5</ele><time>2026-04-17T12:54:56.913Z</time></trkpt><trkpt lat="42.6757" lon="-8.6690033"><ele>201.0</ele><time>2026-04-17T12:54:57.913Z</time></trkpt><trkpt lat="42.6756217" lon="-8.668955"><ele>199.5</ele><time>2026-04-17T12:54:58.914Z</time></trkpt><trkpt lat="42.67554" lon="-8.6689217"><ele>198.0</ele><time>2026-04-17T12:54:59.914Z</time></trkpt><trkpt lat="42.67546" lon="-8.6688983"><ele>198.0</ele><time>2026-04-17T12:55:00.914Z</time></trkpt><trkpt lat="42.6753917" lon="-8.668855"><ele>198.0</ele><time>2026-04-17T12:55:01.914Z</time></trkpt><trkpt lat="42.675225" lon="-8.6687183"><ele>198.0</ele><time>2026-04-17T12:55:02.913Z</time></trkpt><trkpt lat="42.67518" lon="-8.6686"><ele>198.0</ele><time>2026-04-17T12:55:03.914Z</time></trkpt><trkpt lat="42.6751283" lon="-8.6684067"><ele>201.0</ele><time>2026-04-17T12:55:04.914Z</time></trkpt><trkpt lat="42.6750867" lon="-8.668185"><ele>204.0</ele><time>2026-04-17T12:55:05.914Z</time></trkpt><trkpt lat="42.6750767" lon="-8.6679133"><ele>207.0</ele><time>2026-04-17T12:55:06.914Z</time></trkpt><trkpt lat="42.6750733" lon="-8.6675933"><ele>207.0</ele><time>2026-04-17T12:55:07.914Z</time></trkpt><trkpt lat="42.6750817" lon="-8.6672683"><ele>207.0</ele><time>2026-04-17T12:55:08.914Z</time></trkpt><trkpt lat="42.6750883" lon="-8.6669783"><ele>207.33333333333331</ele><time>2026-04-17T12:55:09.913Z</time></trkpt><trkpt lat="42.6750667" lon="-8.6667233"><ele>207.66666666666666</ele><time>2026-04-17T12:55:10.914Z</time></trkpt><trkpt lat="42.6750217" lon="-8.66649"><ele>208.0</ele><time>2026-04-17T12:55:11.913Z</time></trkpt><trkpt lat="42.6749533" lon="-8.6662633"><ele>207.0</ele><time>2026-04-17T12:55:12.914Z</time></trkpt><trkpt lat="42.6748717" lon="-8.6660533"><ele>206.0</ele><time>2026-04-17T12:55:13.913Z</time></trkpt><trkpt lat="42.6747883" lon="-8.6658683"><ele>205.0</ele><time>2026-04-17T12:55:14.914Z</time></trkpt><trkpt lat="42.674725" lon="-8.6657033"><ele>205.0</ele><time>2026-04-17T12:55:15.914Z</time></trkpt><trkpt lat="42.6746967" lon="-8.66556"><ele>205.0</ele><time>2026-04-17T12:55:16.913Z</time></trkpt><trkpt lat="42.6747067" lon="-8.6654217"><ele>205.0</ele><time>2026-04-17T12:55:17.913Z</time></trkpt><trkpt lat="42.674725" lon="-8.6652883"><ele>205.0</ele><time>2026-04-17T12:55:18.914Z</time></trkpt><trkpt lat="42.6747433" lon="-8.6651517"><ele>205.0</ele><time>2026-04-17T12:55:19.913Z</time></trkpt><trkpt lat="42.6747533" lon="-8.6650033"><ele>202.25</ele><time>2026-04-17T12:55:20.913Z</time></trkpt><trkpt lat="42.6747517" lon="-8.6648433"><ele>199.5</ele><time>2026-04-17T12:55:21.914Z</time></trkpt><trkpt lat="42.6747367" lon="-8.6646717"><ele>196.75</ele><time>2026-04-17T12:55:22.913Z</time></trkpt><trkpt lat="42.67472" lon="-8.66449"><ele>194.0</ele><time>2026-04-17T12:55:23.914Z</time></trkpt><trkpt lat="42.6747017" lon="-8.66431"><ele>192.5</ele><time>2026-04-17T12:55:24.913Z</time></trkpt><trkpt lat="42.6746867" lon="-8.664135"><ele>191.0</ele><time>2026-04-17T12:55:25.914Z</time></trkpt><trkpt lat="42.674675" lon="-8.6639617"><ele>189.5</ele><time>2026-04-17T12:55:26.913Z</time></trkpt><trkpt lat="42.6746617" lon="-8.6638017"><ele>188.0</ele><time>2026-04-17T12:55:27.914Z</time></trkpt><trkpt lat="42.674645" lon="-8.6636567"><ele>187.25</ele><time>2026-04-17T12:55:28.913Z</time></trkpt><trkpt lat="42.6746083" lon="-8.6635117"><ele>186.5</ele><time>2026-04-17T12:55:29.914Z</time></trkpt><trkpt lat="42.6745567" lon="-8.663365"><ele>185.75</ele><time>2026-04-17T12:55:30.913Z</time></trkpt><trkpt lat="42.674495" lon="-8.6632167"><ele>185.0</ele><time>2026-04-17T12:55:31.914Z</time></trkpt><trkpt lat="42.6744317" lon="-8.66307"><ele>183.75</ele><time>2026-04-17T12:55:32.913Z</time></trkpt><trkpt lat="42.6743583" lon="-8.6629367"><ele>182.5</ele><time>2026-04-17T12:55:33.913Z</time></trkpt><trkpt lat="42.6742483" lon="-8.6628117"><ele>181.25</ele><time>2026-04-17T12:55:34.913Z</time></trkpt><trkpt lat="42.6741267" lon="-8.662715"><ele>180.0</ele><time>2026-04-17T12:55:35.914Z</time></trkpt><trkpt lat="42.6740183" lon="-8.6626367"><ele>180.0</ele><time>2026-04-17T12:55:36.913Z</time></trkpt><trkpt lat="42.673925" lon="-8.662565"><ele>180.0</ele><time>2026-04-17T12:55:37.913Z</time></trkpt><trkpt lat="42.6738517" lon="-8.6624917"><ele>180.0</ele><time>2026-04-17T12:55:38.913Z</time></trkpt><trkpt lat="42.673795" lon="-8.66242"><ele>180.0</ele><time>2026-04-17T12:55:39.914Z</time></trkpt><trkpt lat="42.6737533" lon="-8.662335"><ele>180.0</ele><time>2026-04-17T12:55:40.914Z</time></trkpt><trkpt lat="42.6737133" lon="-8.6622383"><ele>180.0</ele><time>2026-04-17T12:55:41.913Z</time></trkpt><trkpt lat="42.6736767" lon="-8.6621283"><ele>180.0</ele><time>2026-04-17T12:55:42.914Z</time></trkpt><trkpt lat="42.67364" lon="-8.6620183"><ele>180.0</ele><time>2026-04-17T12:55:43.914Z</time></trkpt><trkpt lat="42.6736" lon="-8.6619217"><ele>180.0</ele><time>2026-04-17T12:55:44.914Z</time></trkpt><trkpt lat="42.6735417" lon="-8.6618467"><ele>180.0</ele><time>2026-04-17T12:55:45.913Z</time></trkpt><trkpt lat="42.6734483" lon="-8.6617983"><ele>180.0</ele><time>2026-04-17T12:55:46.913Z</time></trkpt><trkpt lat="42.67333" lon="-8.6617717"><ele>179.66666666666666</ele><time>2026-04-17T12:55:47.913Z</time></trkpt><trkpt lat="42.673195" lon="-8.6617917"><ele>179.33333333333331</ele><time>2026-04-17T12:55:48.913Z</time></trkpt><trkpt lat="42.6730333" lon="-8.661855"><ele>179.0</ele><time>2026-04-17T12:55:49.913Z</time></trkpt><trkpt lat="42.6728717" lon="-8.66194"><ele>182.0</ele><time>2026-04-17T12:55:50.913Z</time></trkpt><trkpt lat="42.672695" lon="-8.662015"><ele>185.0</ele><time>2026-04-17T12:55:51.914Z</time></trkpt><trkpt lat="42.67252" lon="-8.662095"><ele>188.0</ele><time>2026-04-17T12:55:52.913Z</time></trkpt><trkpt lat="42.6723733" lon="-8.66217"><ele>188.0</ele><time>2026-04-17T12:55:53.914Z</time></trkpt><trkpt lat="42.672255" lon="-8.6622383"><ele>188.0</ele><time>2026-04-17T12:55:54.913Z</time></trkpt><trkpt lat="42.6721667" lon="-8.6623267"><ele>188.0</ele><time>2026-04-17T12:55:55.914Z</time></trkpt><trkpt lat="42.6720983" lon="-8.6624583"><ele>188.0</ele><time>2026-04-17T12:55:56.914Z</time></trkpt><trkpt lat="42.6720317" lon="-8.6626083"><ele>188.0</ele><time>2026-04-17T12:55:57.913Z</time></trkpt><trkpt lat="42.67195" lon="-8.6627467"><ele>188.0</ele><time>2026-04-17T12:55:58.913Z</time></trkpt><trkpt lat="42.67186" lon="-8.6628767"><ele>188.0</ele><time>2026-04-17T12:55:59.913Z</time></trkpt><trkpt lat="42.6717667" lon="-8.6629667"><ele>188.0</ele><time>2026-04-17T12:56:00.913Z</time></trkpt><trkpt lat="42.6716667" lon="-8.6630133"><ele>187.75</ele><time>2026-04-17T12:56:01.914Z</time></trkpt><trkpt lat="42.6715517" lon="-8.6630183"><ele>187.5</ele><time>2026-04-17T12:56:02.913Z</time></trkpt><trkpt lat="42.6714383" lon="-8.6630033"><ele>187.25</ele><time>2026-04-17T12:56:03.913Z</time></trkpt><trkpt lat="42.6712617" lon="-8.6628733"><ele>187.0</ele><time>2026-04-17T12:56:04.913Z</time></trkpt><trkpt lat="42.6710767" lon="-8.6627283"><ele>187.0</ele><time>2026-04-17T12:56:05.914Z</time></trkpt><trkpt lat="42.67091" lon="-8.6626117"><ele>187.0</ele><time>2026-04-17T12:56:06.914Z</time></trkpt><trkpt lat="42.67074" lon="-8.6625317"><ele>187.0</ele><time>2026-04-17T12:56:07.913Z</time></trkpt><trkpt lat="42.6705533" lon="-8.66248"><ele>187.0</ele><time>2026-04-17T12:56:08.913Z</time></trkpt><trkpt lat="42.670355" lon="-8.6624283"><ele>187.0</ele><time>2026-04-17T12:56:09.914Z</time></trkpt><trkpt lat="42.670155" lon="-8.66238"><ele>187.0</ele><time>2026-04-17T12:56:10.914Z</time></trkpt><trkpt lat="42.6699683" lon="-8.662325"><ele>192.66666666666669</ele><time>2026-04-17T12:56:11.913Z</time></trkpt><trkpt lat="42.6697917" lon="-8.6622633"><ele>198.33333333333334</ele><time>2026-04-17T12:56:12.914Z</time></trkpt><trkpt lat="42.66963" lon="-8.6622167"><ele>204.0</ele><time>2026-04-17T12:56:13.914Z</time></trkpt><trkpt lat="42.66948" lon="-8.662175"><ele>210.66666666666669</ele><time>2026-04-17T12:56:14.914Z</time></trkpt><trkpt lat="42.6693267" lon="-8.6621367"><ele>217.33333333333334</ele><time>2026-04-17T12:56:15.914Z</time></trkpt><trkpt lat="42.66917" lon="-8.6620717"><ele>224.0</ele><time>2026-04-17T12:56:16.913Z</time></trkpt><trkpt lat="42.669015" lon="-8.6619967"><ele>223.66666666666669</ele><time>2026-04-17T12:56:17.913Z</time></trkpt><trkpt lat="42.6688583" lon="-8.661925"><ele>223.33333333333331</ele><time>2026-04-17T12:56:18.913Z</time></trkpt><trkpt lat="42.66869" lon="-8.6618667"><ele>223.0</ele><time>2026-04-17T12:56:19.913Z</time></trkpt><trkpt lat="42.668505" lon="-8.6618167"><ele>223.0</ele><time>2026-04-17T12:56:20.913Z</time></trkpt><trkpt lat="42.6683267" lon="-8.661765"><ele>223.0</ele><time>2026-04-17T12:56:21.914Z</time></trkpt><trkpt lat="42.6681667" lon="-8.6617133"><ele>223.0</ele><time>2026-04-17T12:56:22.914Z</time></trkpt><trkpt lat="42.6680183" lon="-8.6616667"><ele>223.0</ele><time>2026-04-17T12:56:23.914Z</time></trkpt><trkpt lat="42.6678683" lon="-8.66163"><ele>223.0</ele><time>2026-04-17T12:56:24.914Z</time></trkpt><trkpt lat="42.6677133" lon="-8.6616083"><ele>223.0</ele><time>2026-04-17T12:56:25.913Z</time></trkpt><trkpt lat="42.6675567" lon="-8.6615983"><ele>225.75</ele><time>2026-04-17T12:56:26.914Z</time></trkpt><trkpt lat="42.6674067" lon="-8.6616017"><ele>228.5</ele><time>2026-04-17T12:56:27.914Z</time></trkpt><trkpt lat="42.667265" lon="-8.6616083"><ele>231.25</ele><time>2026-04-17T12:56:28.914Z</time></trkpt><trkpt lat="42.6671317" lon="-8.661605"><ele>234.0</ele><time>2026-04-17T12:56:29.914Z</time></trkpt><trkpt lat="42.66701" lon="-8.661575"><ele>234.75</ele><time>2026-04-17T12:56:30.913Z</time></trkpt><trkpt lat="42.666885" lon="-8.6615233"><ele>235.5</ele><time>2026-04-17T12:56:31.914Z</time></trkpt><trkpt lat="42.6667583" lon="-8.6614683"><ele>236.25</ele><time>2026-04-17T12:56:32.913Z</time></trkpt><trkpt lat="42.6666367" lon="-8.6614017"><ele>237.0</ele><time>2026-04-17T12:56:33.913Z</time></trkpt><trkpt lat="42.66652" lon="-8.6613333"><ele>237.0</ele><time>2026-04-17T12:56:34.913Z</time></trkpt><trkpt lat="42.666405" lon="-8.6612733"><ele>237.0</ele><time>2026-04-17T12:56:35.913Z</time></trkpt><trkpt lat="42.66629" lon="-8.6612217"><ele>237.0</ele><time>2026-04-17T12:56:36.913Z</time></trkpt><trkpt lat="42.66614" lon="-8.6611683"><ele>237.0</ele><time>2026-04-17T12:56:37.914Z</time></trkpt><trkpt lat="42.6659717" lon="-8.6611267"><ele>231.33333333333331</ele><time>2026-04-17T12:56:38.913Z</time></trkpt><trkpt lat="42.6657983" lon="-8.661085"><ele>225.66666666666666</ele><time>2026-04-17T12:56:39.914Z</time></trkpt><trkpt lat="42.6656217" lon="-8.6610233"><ele>220.0</ele><time>2026-04-17T12:56:40.914Z</time></trkpt><trkpt lat="42.6654383" lon="-8.660955"><ele>223.66666666666666</ele><time>2026-04-17T12:56:41.914Z</time></trkpt><trkpt lat="42.6652383" lon="-8.660875"><ele>227.33333333333331</ele><time>2026-04-17T12:56:42.913Z</time></trkpt><trkpt lat="42.6650383" lon="-8.660795"><ele>231.0</ele><time>2026-04-17T12:56:43.913Z</time></trkpt><trkpt lat="42.66485" lon="-8.6607117"><ele>231.0</ele><time>2026-04-17T12:56:44.913Z</time></trkpt><trkpt lat="42.6646683" lon="-8.6606267"><ele>231.0</ele><time>2026-04-17T12:56:45.913Z</time></trkpt><trkpt lat="42.6645017" lon="-8.66053"><ele>231.0</ele><time>2026-04-17T12:56:46.914Z</time></trkpt><trkpt lat="42.6643417" lon="-8.6604433"><ele>234.33333333333331</ele><time>2026-04-17T12:56:47.913Z</time></trkpt><trkpt lat="42.6641883" lon="-8.6603917"><ele>237.66666666666666</ele><time>2026-04-17T12:56:48.913Z</time></trkpt><trkpt lat="42.664025" lon="-8.6603683"><ele>241.0</ele><time>2026-04-17T12:56:49.913Z</time></trkpt><trkpt lat="42.66385" lon="-8.660375"><ele>241.0</ele><time>2026-04-17T12:56:50.913Z</time></trkpt><trkpt lat="42.6636667" lon="-8.6604017"><ele>241.0</ele><time>2026-04-17T12:56:51.914Z</time></trkpt><trkpt lat="42.6634817" lon="-8.6604383"><ele>241.0</ele><time>2026-04-17T12:56:52.913Z</time></trkpt><trkpt lat="42.663295" lon="-8.660485"><ele>241.66666666666666</ele><time>2026-04-17T12:56:53.914Z</time></trkpt><trkpt lat="42.6631133" lon="-8.6605333"><ele>242.33333333333331</ele><time>2026-04-17T12:56:54.913Z</time></trkpt><trkpt lat="42.6629383" lon="-8.6605833"><ele>243.0</ele><time>2026-04-17T12:56:55.914Z</time></trkpt><trkpt lat="42.6627817" lon="-8.6606283"><ele>241.25</ele><time>2026-04-17T12:56:56.914Z</time></trkpt><trkpt lat="42.6626467" lon="-8.6606783"><ele>239.5</ele><time>2026-04-17T12:56:57.913Z</time></trkpt><trkpt lat="42.66254" lon="-8.6607433"><ele>237.75</ele><time>2026-04-17T12:56:58.914Z</time></trkpt><trkpt lat="42.6624517" lon="-8.6608333"><ele>236.0</ele><time>2026-04-17T12:56:59.913Z</time></trkpt><trkpt lat="42.6623683" lon="-8.6609117"><ele>236.0</ele><time>2026-04-17T12:57:00.914Z</time></trkpt><trkpt lat="42.6622783" lon="-8.6609533"><ele>236.00000000000003</ele><time>2026-04-17T12:57:01.913Z</time></trkpt><trkpt lat="42.6621817" lon="-8.66097"><ele>236.00000000000003</ele><time>2026-04-17T12:57:02.913Z</time></trkpt><trkpt lat="42.66208" lon="-8.6609467"><ele>236.0</ele><time>2026-04-17T12:57:03.914Z</time></trkpt><trkpt lat="42.6619767" lon="-8.6609083"><ele>236.0</ele><time>2026-04-17T12:57:04.913Z</time></trkpt><trkpt lat="42.66187" lon="-8.6608767"><ele>235.0</ele><time>2026-04-17T12:57:05.913Z</time></trkpt><trkpt lat="42.6617617" lon="-8.6608717"><ele>234.0</ele><time>2026-04-17T12:57:06.914Z</time></trkpt><trkpt lat="42.6616433" lon="-8.6608883"><ele>233.0</ele><time>2026-04-17T12:57:07.913Z</time></trkpt><trkpt lat="42.6615317" lon="-8.6609217"><ele>232.0</ele><time>2026-04-17T12:57:08.913Z</time></trkpt><trkpt lat="42.661425" lon="-8.66095"><ele>232.0</ele><time>2026-04-17T12:57:09.914Z</time></trkpt><trkpt lat="42.661315" lon="-8.6609733"><ele>232.0</ele><time>2026-04-17T12:57:10.913Z</time></trkpt><trkpt lat="42.6612017" lon="-8.6610033"><ele>232.0</ele><time>2026-04-17T12:57:11.914Z</time></trkpt><trkpt lat="42.6610867" lon="-8.661045"><ele>232.0</ele><time>2026-04-17T12:57:12.913Z</time></trkpt><trkpt lat="42.6609733" lon="-8.661095"><ele>238.5</ele><time>2026-04-17T12:57:13.914Z</time></trkpt><trkpt lat="42.6608583" lon="-8.6611483"><ele>245.0</ele><time>2026-04-17T12:57:14.913Z</time></trkpt><trkpt lat="42.66074" lon="-8.6612067"><ele>251.5</ele><time>2026-04-17T12:57:15.914Z</time></trkpt><trkpt lat="42.6606133" lon="-8.6612717"><ele>258.0</ele><time>2026-04-17T12:57:16.914Z</time></trkpt><trkpt lat="42.6604817" lon="-8.6613517"><ele>258.0</ele><time>2026-04-17T12:57:17.913Z</time></trkpt><trkpt lat="42.66034" lon="-8.6614417"><ele>258.0</ele><time>2026-04-17T12:57:18.914Z</time></trkpt><trkpt lat="42.6601933" lon="-8.66154"><ele>258.0</ele><time>2026-04-17T12:57:19.914Z</time></trkpt><trkpt lat="42.6600517" lon="-8.6616417"><ele>257.0</ele><time>2026-04-17T12:57:20.914Z</time></trkpt><trkpt lat="42.65992" lon="-8.6617333"><ele>256.0</ele><time>2026-04-17T12:57:21.913Z</time></trkpt><trkpt lat="42.6597967" lon="-8.6618067"><ele>255.0</ele><time>2026-04-17T12:57:22.914Z</time></trkpt><trkpt lat="42.6596717" lon="-8.6618667"><ele>254.0</ele><time>2026-04-17T12:57:23.914Z</time></trkpt><trkpt lat="42.65955" lon="-8.6619217"><ele>258.2</ele><time>2026-04-17T12:57:24.913Z</time></trkpt><trkpt lat="42.6594383" lon="-8.66197"><ele>262.4</ele><time>2026-04-17T12:57:25.913Z</time></trkpt><trkpt lat="42.659335" lon="-8.6619983"><ele>266.6</ele><time>2026-04-17T12:57:26.913Z</time></trkpt><trkpt lat="42.65923" lon="-8.662025"><ele>270.8</ele><time>2026-04-17T12:57:27.913Z</time></trkpt><trkpt lat="42.6591217" lon="-8.6620683"><ele>275.0</ele><time>2026-04-17T12:57:28.913Z</time></trkpt><trkpt lat="42.6590217" lon="-8.6621283"><ele>275.0</ele><time>2026-04-17T12:57:29.913Z</time></trkpt><trkpt lat="42.6589433" lon="-8.6621983"><ele>275.0</ele><time>2026-04-17T12:57:30.913Z</time></trkpt><trkpt lat="42.6588733" lon="-8.6622767"><ele>275.0</ele><time>2026-04-17T12:57:31.913Z</time></trkpt><trkpt lat="42.6588083" lon="-8.6623517"><ele>275.0</ele><time>2026-04-17T12:57:32.913Z</time></trkpt><trkpt lat="42.6587533" lon="-8.6624017"><ele>275.0</ele><time>2026-04-17T12:57:33.913Z</time></trkpt><trkpt lat="42.6586433" lon="-8.6624417"><ele>273.2</ele><time>2026-04-17T12:57:35.914Z</time></trkpt><trkpt lat="42.6585717" lon="-8.6624367"><ele>271.4</ele><time>2026-04-17T12:57:36.914Z</time></trkpt><trkpt lat="42.658475" lon="-8.6624267"><ele>269.6</ele><time>2026-04-17T12:57:37.913Z</time></trkpt><trkpt lat="42.6583617" lon="-8.66241"><ele>267.8</ele><time>2026-04-17T12:57:38.914Z</time></trkpt><trkpt lat="42.658235" lon="-8.6623917"><ele>266.0</ele><time>2026-04-17T12:57:39.913Z</time></trkpt><trkpt lat="42.6581" lon="-8.6623817"><ele>266.0</ele><time>2026-04-17T12:57:40.914Z</time></trkpt><trkpt lat="42.6579683" lon="-8.662375"><ele>266.0</ele><time>2026-04-17T12:57:41.914Z</time></trkpt><trkpt lat="42.6578417" lon="-8.6623667"><ele>266.0</ele><time>2026-04-17T12:57:42.913Z</time></trkpt><trkpt lat="42.65773" lon="-8.66235"><ele>266.0</ele><time>2026-04-17T12:57:43.914Z</time></trkpt><trkpt lat="42.6576333" lon="-8.6623033"><ele>264.8</ele><time>2026-04-17T12:57:44.913Z</time></trkpt><trkpt lat="42.6575433" lon="-8.662235"><ele>263.6</ele><time>2026-04-17T12:57:45.913Z</time></trkpt><trkpt lat="42.657445" lon="-8.6621683"><ele>262.4</ele><time>2026-04-17T12:57:46.913Z</time></trkpt><trkpt lat="42.65734" lon="-8.662105"><ele>261.2</ele><time>2026-04-17T12:57:47.913Z</time></trkpt><trkpt lat="42.6572383" lon="-8.6620633"><ele>260.0</ele><time>2026-04-17T12:57:48.913Z</time></trkpt><trkpt lat="42.657135" lon="-8.6620483"><ele>260.0</ele><time>2026-04-17T12:57:49.913Z</time></trkpt><trkpt lat="42.65703" lon="-8.662045"><ele>260.0</ele><time>2026-04-17T12:57:50.913Z</time></trkpt><trkpt lat="42.656925" lon="-8.6620467"><ele>260.0</ele><time>2026-04-17T12:57:51.914Z</time></trkpt><trkpt lat="42.65682" lon="-8.6620533"><ele>260.0</ele><time>2026-04-17T12:57:52.913Z</time></trkpt><trkpt lat="42.6567" lon="-8.6620717"><ele>260.0</ele><time>2026-04-17T12:57:53.913Z</time></trkpt><trkpt lat="42.6565717" lon="-8.6621017"><ele>258.0</ele><time>2026-04-17T12:57:54.913Z</time></trkpt><trkpt lat="42.65644" lon="-8.66214"><ele>256.0</ele><time>2026-04-17T12:57:55.914Z</time></trkpt><trkpt lat="42.6563" lon="-8.6621817"><ele>254.0</ele><time>2026-04-17T12:57:56.914Z</time></trkpt><trkpt lat="42.656155" lon="-8.6622367"><ele>252.0</ele><time>2026-04-17T12:57:57.914Z</time></trkpt><trkpt lat="42.6560117" lon="-8.6622983"><ele>248.25</ele><time>2026-04-17T12:57:58.913Z</time></trkpt><trkpt lat="42.6558783" lon="-8.662365"><ele>244.5</ele><time>2026-04-17T12:57:59.913Z</time></trkpt><trkpt lat="42.6557683" lon="-8.662425"><ele>240.75</ele><time>2026-04-17T12:58:00.913Z</time></trkpt><trkpt lat="42.65568" lon="-8.662495"><ele>237.0</ele><time>2026-04-17T12:58:01.914Z</time></trkpt><trkpt lat="42.6555933" lon="-8.6625883"><ele>237.0</ele><time>2026-04-17T12:58:02.914Z</time></trkpt><trkpt lat="42.6555017" lon="-8.6627067"><ele>237.0</ele><time>2026-04-17T12:58:03.913Z</time></trkpt><trkpt lat="42.65541" lon="-8.66282"><ele>237.0</ele><time>2026-04-17T12:58:04.914Z</time></trkpt><trkpt lat="42.655335" lon="-8.6629033"><ele>237.0</ele><time>2026-04-17T12:58:05.914Z</time></trkpt><trkpt lat="42.655265" lon="-8.662965"><ele>237.0</ele><time>2026-04-17T12:58:06.913Z</time></trkpt><trkpt lat="42.6551983" lon="-8.6630283"><ele>237.0</ele><time>2026-04-17T12:58:07.913Z</time></trkpt><trkpt lat="42.6551333" lon="-8.6630867"><ele>237.0</ele><time>2026-04-17T12:58:08.914Z</time></trkpt><trkpt lat="42.6550767" lon="-8.6631417"><ele>237.0</ele><time>2026-04-17T12:58:09.914Z</time></trkpt><trkpt lat="42.654985" lon="-8.663215"><ele>237.0</ele><time>2026-04-17T12:58:11.913Z</time></trkpt><trkpt lat="42.6548833" lon="-8.6633133"><ele>237.0</ele><time>2026-04-17T12:58:13.914Z</time></trkpt><trkpt lat="42.6548333" lon="-8.6633683"><ele>237.0</ele><time>2026-04-17T12:58:14.914Z</time></trkpt><trkpt lat="42.65475" lon="-8.6634467"><ele>237.0</ele><time>2026-04-17T12:58:16.913Z</time></trkpt><trkpt lat="42.65468" lon="-8.6634683"><ele>237.0</ele><time>2026-04-17T12:58:18.913Z</time></trkpt><trkpt lat="42.65458" lon="-8.6634833"><ele>237.0</ele><time>2026-04-17T12:58:20.914Z</time></trkpt><trkpt lat="42.6544867" lon="-8.6634783"><ele>237.0</ele><time>2026-04-17T12:58:21.913Z</time></trkpt><trkpt lat="42.654395" lon="-8.6634733"><ele>237.0</ele><time>2026-04-17T12:58:22.914Z</time></trkpt><trkpt lat="42.654295" lon="-8.663465"><ele>236.2</ele><time>2026-04-17T12:58:23.913Z</time></trkpt><trkpt lat="42.6542017" lon="-8.6634533"><ele>235.39999999999998</ele><time>2026-04-17T12:58:24.913Z</time></trkpt><trkpt lat="42.6541083" lon="-8.6634417"><ele>234.60000000000002</ele><time>2026-04-17T12:58:25.913Z</time></trkpt><trkpt lat="42.6540217" lon="-8.6634283"><ele>233.8</ele><time>2026-04-17T12:58:26.913Z</time></trkpt><trkpt lat="42.653935" lon="-8.6633983"><ele>233.0</ele><time>2026-04-17T12:58:27.913Z</time></trkpt><trkpt lat="42.6538433" lon="-8.6633583"><ele>233.0</ele><time>2026-04-17T12:58:28.914Z</time></trkpt><trkpt lat="42.6537583" lon="-8.6633017"><ele>233.0</ele><time>2026-04-17T12:58:29.913Z</time></trkpt><trkpt lat="42.6536667" lon="-8.6632217"><ele>233.0</ele><time>2026-04-17T12:58:30.914Z</time></trkpt><trkpt lat="42.6535667" lon="-8.663115"><ele>233.0</ele><time>2026-04-17T12:58:31.913Z</time></trkpt><trkpt lat="42.6534717" lon="-8.6629783"><ele>234.25</ele><time>2026-04-17T12:58:32.913Z</time></trkpt><trkpt lat="42.6533717" lon="-8.66285"><ele>235.5</ele><time>2026-04-17T12:58:33.913Z</time></trkpt><trkpt lat="42.6532717" lon="-8.662735"><ele>236.75</ele><time>2026-04-17T12:58:34.914Z</time></trkpt><trkpt lat="42.6531667" lon="-8.6626317"><ele>238.0</ele><time>2026-04-17T12:58:35.913Z</time></trkpt><trkpt lat="42.6530517" lon="-8.6625417"><ele>233.66666666666666</ele><time>2026-04-17T12:58:36.913Z</time></trkpt><trkpt lat="42.6529183" lon="-8.6624617"><ele>229.33333333333331</ele><time>2026-04-17T12:58:37.913Z</time></trkpt><trkpt lat="42.65277" lon="-8.6623867"><ele>225.0</ele><time>2026-04-17T12:58:38.914Z</time></trkpt><trkpt lat="42.6526217" lon="-8.66232"><ele>225.0</ele><time>2026-04-17T12:58:39.913Z</time></trkpt><trkpt lat="42.6524833" lon="-8.6622567"><ele>225.0</ele><time>2026-04-17T12:58:40.913Z</time></trkpt><trkpt lat="42.652355" lon="-8.6621983"><ele>225.0</ele><time>2026-04-17T12:58:41.913Z</time></trkpt><trkpt lat="42.652235" lon="-8.6621567"><ele>225.0</ele><time>2026-04-17T12:58:42.913Z</time></trkpt><trkpt lat="42.6521167" lon="-8.662135"><ele>225.0</ele><time>2026-04-17T12:58:43.913Z</time></trkpt><trkpt lat="42.6520067" lon="-8.6621233"><ele>225.0</ele><time>2026-04-17T12:58:44.913Z</time></trkpt><trkpt lat="42.6518933" lon="-8.66212"><ele>225.0</ele><time>2026-04-17T12:58:45.914Z</time></trkpt><trkpt lat="42.65179" lon="-8.6621167"><ele>225.0</ele><time>2026-04-17T12:58:46.913Z</time></trkpt><trkpt lat="42.6516967" lon="-8.6621"><ele>225.0</ele><time>2026-04-17T12:58:47.913Z</time></trkpt><trkpt lat="42.651615" lon="-8.6620617"><ele>223.5</ele><time>2026-04-17T12:58:48.914Z</time></trkpt><trkpt lat="42.6515533" lon="-8.661995"><ele>222.0</ele><time>2026-04-17T12:58:49.914Z</time></trkpt><trkpt lat="42.651515" lon="-8.6619083"><ele>220.5</ele><time>2026-04-17T12:58:50.914Z</time></trkpt><trkpt lat="42.6514883" lon="-8.66182"><ele>219.0</ele><time>2026-04-17T12:58:51.914Z</time></trkpt><trkpt lat="42.6514683" lon="-8.6617383"><ele>217.5</ele><time>2026-04-17T12:58:52.914Z</time></trkpt><trkpt lat="42.65149" lon="-8.6615967"><ele>216.0</ele><time>2026-04-17T12:58:54.913Z</time></trkpt><trkpt lat="42.651585" lon="-8.661475"><ele>214.75</ele><time>2026-04-17T12:58:56.913Z</time></trkpt><trkpt lat="42.65165" lon="-8.6613933"><ele>213.5</ele><time>2026-04-17T12:58:57.914Z</time></trkpt><trkpt lat="42.6517483" lon="-8.6613117"><ele>212.25</ele><time>2026-04-17T12:58:58.913Z</time></trkpt><trkpt lat="42.6518667" lon="-8.66123"><ele>211.0</ele><time>2026-04-17T12:58:59.913Z</time></trkpt><trkpt lat="42.6519983" lon="-8.66116"><ele>208.25</ele><time>2026-04-17T12:59:00.914Z</time></trkpt><trkpt lat="42.6521367" lon="-8.6610933"><ele>205.5</ele><time>2026-04-17T12:59:01.914Z</time></trkpt><trkpt lat="42.6522767" lon="-8.6610217"><ele>202.75</ele><time>2026-04-17T12:59:02.913Z</time></trkpt><trkpt lat="42.6524117" lon="-8.6609267"><ele>200.0</ele><time>2026-04-17T12:59:03.913Z</time></trkpt><trkpt lat="42.6525517" lon="-8.6608267"><ele>200.0</ele><time>2026-04-17T12:59:04.913Z</time></trkpt><trkpt lat="42.65267" lon="-8.6607517"><ele>200.0</ele><time>2026-04-17T12:59:05.913Z</time></trkpt><trkpt lat="42.6527533" lon="-8.660675"><ele>200.0</ele><time>2026-04-17T12:59:06.913Z</time></trkpt><trkpt lat="42.6528" lon="-8.6605833"><ele>200.0</ele><time>2026-04-17T12:59:07.913Z</time></trkpt><trkpt lat="42.652855" lon="-8.6604933"><ele>200.0</ele><time>2026-04-17T12:59:08.913Z</time></trkpt><trkpt lat="42.6529317" lon="-8.660425"><ele>200.33333333333334</ele><time>2026-04-17T12:59:09.913Z</time></trkpt><trkpt lat="42.6530167" lon="-8.6603817"><ele>200.66666666666669</ele><time>2026-04-17T12:59:10.914Z</time></trkpt><trkpt lat="42.6531117" lon="-8.660375"><ele>201.0</ele><time>2026-04-17T12:59:11.913Z</time></trkpt><trkpt lat="42.6531967" lon="-8.6603883"><ele>201.33333333333331</ele><time>2026-04-17T12:59:12.913Z</time></trkpt><trkpt lat="42.653275" lon="-8.6604167"><ele>201.66666666666666</ele><time>2026-04-17T12:59:13.914Z</time></trkpt><trkpt lat="42.6533483" lon="-8.6604383"><ele>202.0</ele><time>2026-04-17T12:59:14.914Z</time></trkpt><trkpt lat="42.653425" lon="-8.6604417"><ele>202.0</ele><time>2026-04-17T12:59:15.913Z</time></trkpt><trkpt lat="42.6535117" lon="-8.6604283"><ele>202.0</ele><time>2026-04-17T12:59:16.914Z</time></trkpt><trkpt lat="42.6536033" lon="-8.66039"><ele>202.0</ele><time>2026-04-17T12:59:17.913Z</time></trkpt><trkpt lat="42.6536983" lon="-8.660335"><ele>202.0</ele><time>2026-04-17T12:59:18.913Z</time></trkpt><trkpt lat="42.6538" lon="-8.660265"><ele>202.0</ele><time>2026-04-17T12:59:19.913Z</time></trkpt><trkpt lat="42.653895" lon="-8.66019"><ele>198.6</ele><time>2026-04-17T12:59:20.914Z</time></trkpt><trkpt lat="42.6539767" lon="-8.6601183"><ele>195.2</ele><time>2026-04-17T12:59:21.914Z</time></trkpt><trkpt lat="42.654035" lon="-8.6600383"><ele>191.8</ele><time>2026-04-17T12:59:22.913Z</time></trkpt><trkpt lat="42.65407" lon="-8.65994"><ele>188.4</ele><time>2026-04-17T12:59:23.913Z</time></trkpt><trkpt lat="42.654085" lon="-8.6598383"><ele>185.0</ele><time>2026-04-17T12:59:24.914Z</time></trkpt><trkpt lat="42.65402" lon="-8.6597017"><ele>185.0</ele><time>2026-04-17T12:59:26.913Z</time></trkpt><trkpt lat="42.6539183" lon="-8.6596833"><ele>185.0</ele><time>2026-04-17T12:59:27.914Z</time></trkpt><trkpt lat="42.6537867" lon="-8.6596917"><ele>185.0</ele><time>2026-04-17T12:59:28.913Z</time></trkpt><trkpt lat="42.6536683" lon="-8.6596683"><ele>185.0</ele><time>2026-04-17T12:59:29.913Z</time></trkpt><trkpt lat="42.6535617" lon="-8.6595883"><ele>186.25</ele><time>2026-04-17T12:59:30.914Z</time></trkpt><trkpt lat="42.65348" lon="-8.6594767"><ele>187.5</ele><time>2026-04-17T12:59:31.913Z</time></trkpt><trkpt lat="42.6534067" lon="-8.659355"><ele>188.75</ele><time>2026-04-17T12:59:32.913Z</time></trkpt><trkpt lat="42.6533333" lon="-8.6592417"><ele>190.0</ele><time>2026-04-17T12:59:33.913Z</time></trkpt><trkpt lat="42.6532683" lon="-8.6591183"><ele>186.25</ele><time>2026-04-17T12:59:34.914Z</time></trkpt><trkpt lat="42.6532183" lon="-8.6589717"><ele>182.5</ele><time>2026-04-17T12:59:35.913Z</time></trkpt><trkpt lat="42.653175" lon="-8.65881"><ele>178.75</ele><time>2026-04-17T12:59:36.914Z</time></trkpt><trkpt lat="42.653135" lon="-8.6586417"><ele>175.0</ele><time>2026-04-17T12:59:37.914Z</time></trkpt><trkpt lat="42.6531017" lon="-8.6584817"><ele>173.16666666666669</ele><time>2026-04-17T12:59:38.913Z</time></trkpt><trkpt lat="42.6530833" lon="-8.6583433"><ele>171.33333333333334</ele><time>2026-04-17T12:59:39.913Z</time></trkpt><trkpt lat="42.653085" lon="-8.6582367"><ele>169.5</ele><time>2026-04-17T12:59:40.913Z</time></trkpt><trkpt lat="42.6531083" lon="-8.658155"><ele>167.66666666666666</ele><time>2026-04-17T12:59:41.913Z</time></trkpt><trkpt lat="42.6531567" lon="-8.6580933"><ele>165.83333333333331</ele><time>2026-04-17T12:59:42.913Z</time></trkpt><trkpt lat="42.653235" lon="-8.658055"><ele>164.0</ele><time>2026-04-17T12:59:43.914Z</time></trkpt><trkpt lat="42.6533433" lon="-8.6580433"><ele>164.0</ele><time>2026-04-17T12:59:44.913Z</time></trkpt><trkpt lat="42.6534933" lon="-8.6580617"><ele>164.0</ele><time>2026-04-17T12:59:45.914Z</time></trkpt><trkpt lat="42.6536467" lon="-8.658085"><ele>164.0</ele><time>2026-04-17T12:59:46.914Z</time></trkpt><trkpt lat="42.653795" lon="-8.6581133"><ele>163.39999999999998</ele><time>2026-04-17T12:59:47.914Z</time></trkpt><trkpt lat="42.6539267" lon="-8.65813"><ele>162.8</ele><time>2026-04-17T12:59:48.913Z</time></trkpt><trkpt lat="42.65404" lon="-8.6581333"><ele>162.2</ele><time>2026-04-17T12:59:49.913Z</time></trkpt><trkpt lat="42.6541283" lon="-8.6581083"><ele>161.60000000000002</ele><time>2026-04-17T12:59:50.913Z</time></trkpt><trkpt lat="42.6541967" lon="-8.6580717"><ele>161.0</ele><time>2026-04-17T12:59:51.913Z</time></trkpt><trkpt lat="42.6542417" lon="-8.6579783"><ele>161.0</ele><time>2026-04-17T12:59:53.914Z</time></trkpt><trkpt lat="42.6541733" lon="-8.65782"><ele>161.0</ele><time>2026-04-17T12:59:55.913Z</time></trkpt><trkpt lat="42.6540917" lon="-8.6577033"><ele>161.0</ele><time>2026-04-17T12:59:56.913Z</time></trkpt><trkpt lat="42.6540183" lon="-8.65757"><ele>161.0</ele><time>2026-04-17T12:59:57.913Z</time></trkpt><trkpt lat="42.6539617" lon="-8.6574383"><ele>159.66666666666666</ele><time>2026-04-17T12:59:58.913Z</time></trkpt><trkpt lat="42.653925" lon="-8.65732"><ele>158.33333333333331</ele><time>2026-04-17T12:59:59.913Z</time></trkpt><trkpt lat="42.65392" lon="-8.6572167"><ele>157.0</ele><time>2026-04-17T13:00:00.913Z</time></trkpt><trkpt lat="42.6539417" lon="-8.65713"><ele>155.66666666666666</ele><time>2026-04-17T13:00:01.913Z</time></trkpt><trkpt lat="42.6539733" lon="-8.6570533"><ele>154.33333333333334</ele><time>2026-04-17T13:00:02.913Z</time></trkpt><trkpt lat="42.654" lon="-8.6569517"><ele>153.0</ele><time>2026-04-17T13:00:04.914Z</time></trkpt><trkpt lat="42.65388" lon="-8.65694"><ele>151.33333333333334</ele><time>2026-04-17T13:00:07.914Z</time></trkpt><trkpt lat="42.6538083" lon="-8.6569467"><ele>149.66666666666666</ele><time>2026-04-17T13:00:08.913Z</time></trkpt><trkpt lat="42.6537333" lon="-8.65695"><ele>148.0</ele><time>2026-04-17T13:00:09.913Z</time></trkpt><trkpt lat="42.6536583" lon="-8.6569433"><ele>146.33333333333331</ele><time>2026-04-17T13:00:10.914Z</time></trkpt><trkpt lat="42.653585" lon="-8.6569117"><ele>144.66666666666666</ele><time>2026-04-17T13:00:11.914Z</time></trkpt><trkpt lat="42.6535233" lon="-8.6568567"><ele>143.0</ele><time>2026-04-17T13:00:12.914Z</time></trkpt><trkpt lat="42.6534683" lon="-8.6567783"><ele>142.8</ele><time>2026-04-17T13:00:13.913Z</time></trkpt><trkpt lat="42.6534333" lon="-8.6566967"><ele>142.60000000000002</ele><time>2026-04-17T13:00:14.914Z</time></trkpt><trkpt lat="42.6534117" lon="-8.65661"><ele>142.39999999999998</ele><time>2026-04-17T13:00:15.914Z</time></trkpt><trkpt lat="42.6534083" lon="-8.6564983"><ele>142.2</ele><time>2026-04-17T13:00:16.913Z</time></trkpt><trkpt lat="42.6534467" lon="-8.6562433"><ele>142.0</ele><time>2026-04-17T13:00:17.913Z</time></trkpt><trkpt lat="42.653485" lon="-8.65606"><ele>141.75</ele><time>2026-04-17T13:00:18.913Z</time></trkpt><trkpt lat="42.65354" lon="-8.6558933"><ele>141.5</ele><time>2026-04-17T13:00:19.913Z</time></trkpt><trkpt lat="42.6536117" lon="-8.6557383"><ele>141.25</ele><time>2026-04-17T13:00:20.913Z</time></trkpt><trkpt lat="42.6536833" lon="-8.6555967"><ele>141.0</ele><time>2026-04-17T13:00:21.913Z</time></trkpt><trkpt lat="42.6537367" lon="-8.6554517"><ele>141.0</ele><time>2026-04-17T13:00:22.914Z</time></trkpt><trkpt lat="42.6537867" lon="-8.6553133"><ele>141.0</ele><time>2026-04-17T13:00:23.913Z</time></trkpt><trkpt lat="42.6538317" lon="-8.6551733"><ele>141.0</ele><time>2026-04-17T13:00:24.913Z</time></trkpt><trkpt lat="42.6538683" lon="-8.6550367"><ele>141.0</ele><time>2026-04-17T13:00:25.913Z</time></trkpt><trkpt lat="42.6538817" lon="-8.6548933"><ele>141.0</ele><time>2026-04-17T13:00:26.914Z</time></trkpt><trkpt lat="42.6538583" lon="-8.6547833"><ele>140.5</ele><time>2026-04-17T13:00:27.913Z</time></trkpt><trkpt lat="42.653845" lon="-8.6546683"><ele>140.0</ele><time>2026-04-17T13:00:28.914Z</time></trkpt><trkpt lat="42.6538317" lon="-8.6545433"><ele>139.5</ele><time>2026-04-17T13:00:29.914Z</time></trkpt><trkpt lat="42.6538083" lon="-8.6544267"><ele>139.0</ele><time>2026-04-17T13:00:30.914Z</time></trkpt><trkpt lat="42.6537733" lon="-8.65434"><ele>138.5</ele><time>2026-04-17T13:00:31.913Z</time></trkpt><trkpt lat="42.6537233" lon="-8.6542733"><ele>138.0</ele><time>2026-04-17T13:00:32.913Z</time></trkpt><trkpt lat="42.653645" lon="-8.6542233"><ele>139.0</ele><time>2026-04-17T13:00:33.913Z</time></trkpt><trkpt lat="42.6535783" lon="-8.6541617"><ele>140.0</ele><time>2026-04-17T13:00:34.913Z</time></trkpt><trkpt lat="42.653525" lon="-8.6540917"><ele>141.0</ele><time>2026-04-17T13:00:35.913Z</time></trkpt><trkpt lat="42.6534867" lon="-8.6540117"><ele>142.0</ele><time>2026-04-17T13:00:36.913Z</time></trkpt><trkpt lat="42.6535467" lon="-8.653865"><ele>143.0</ele><time>2026-04-17T13:00:38.913Z</time></trkpt><trkpt lat="42.6536083" lon="-8.6537967"><ele>144.0</ele><time>2026-04-17T13:00:39.914Z</time></trkpt><trkpt lat="42.6536867" lon="-8.6537233"><ele>140.6</ele><time>2026-04-17T13:00:40.914Z</time></trkpt><trkpt lat="42.653755" lon="-8.6536417"><ele>137.2</ele><time>2026-04-17T13:00:41.913Z</time></trkpt><trkpt lat="42.6537933" lon="-8.653545"><ele>133.79999999999998</ele><time>2026-04-17T13:00:42.914Z</time></trkpt><trkpt lat="42.6537833" lon="-8.65344"><ele>130.4</ele><time>2026-04-17T13:00:43.914Z</time></trkpt><trkpt lat="42.6537383" lon="-8.6533083"><ele>127.0</ele><time>2026-04-17T13:00:44.914Z</time></trkpt><trkpt lat="42.653675" lon="-8.6531667"><ele>125.6</ele><time>2026-04-17T13:00:45.914Z</time></trkpt><trkpt lat="42.65363" lon="-8.6530233"><ele>124.19999999999999</ele><time>2026-04-17T13:00:46.913Z</time></trkpt><trkpt lat="42.6536083" lon="-8.6528783"><ele>122.8</ele><time>2026-04-17T13:00:47.913Z</time></trkpt><trkpt lat="42.6535867" lon="-8.652735"><ele>121.4</ele><time>2026-04-17T13:00:48.914Z</time></trkpt><trkpt lat="42.65356" lon="-8.6526033"><ele>120.0</ele><time>2026-04-17T13:00:49.914Z</time></trkpt><trkpt lat="42.6535483" lon="-8.6524867"><ele>121.2</ele><time>2026-04-17T13:00:50.914Z</time></trkpt><trkpt lat="42.6535417" lon="-8.6523767"><ele>122.4</ele><time>2026-04-17T13:00:51.913Z</time></trkpt><trkpt lat="42.6535417" lon="-8.6522867"><ele>123.6</ele><time>2026-04-17T13:00:52.913Z</time></trkpt><trkpt lat="42.65362" lon="-8.6521283"><ele>124.8</ele><time>2026-04-17T13:00:54.913Z</time></trkpt><trkpt lat="42.6537367" lon="-8.6519967"><ele>126.0</ele><time>2026-04-17T13:00:55.914Z</time></trkpt><trkpt lat="42.6538233" lon="-8.6518667"><ele>128.6</ele><time>2026-04-17T13:00:56.914Z</time></trkpt><trkpt lat="42.6538783" lon="-8.6517433"><ele>131.2</ele><time>2026-04-17T13:00:57.913Z</time></trkpt><trkpt lat="42.6539167" lon="-8.651625"><ele>133.8</ele><time>2026-04-17T13:00:58.914Z</time></trkpt><trkpt lat="42.653945" lon="-8.6515183"><ele>136.4</ele><time>2026-04-17T13:00:59.913Z</time></trkpt><trkpt lat="42.6539867" lon="-8.6514283"><ele>139.0</ele><time>2026-04-17T13:01:00.914Z</time></trkpt><trkpt lat="42.6540533" lon="-8.6513283"><ele>139.0</ele><time>2026-04-17T13:01:02.913Z</time></trkpt><trkpt lat="42.65414" lon="-8.6513233"><ele>139.0</ele><time>2026-04-17T13:01:04.913Z</time></trkpt><trkpt lat="42.6542633" lon="-8.65143"><ele>139.0</ele><time>2026-04-17T13:01:06.914Z</time></trkpt><trkpt lat="42.6543817" lon="-8.6514933"><ele>139.0</ele><time>2026-04-17T13:01:07.913Z</time></trkpt><trkpt lat="42.65451" lon="-8.6515433"><ele>139.75</ele><time>2026-04-17T13:01:08.914Z</time></trkpt><trkpt lat="42.6546467" lon="-8.65155"><ele>140.5</ele><time>2026-04-17T13:01:09.913Z</time></trkpt><trkpt lat="42.65477" lon="-8.6515283"><ele>141.25</ele><time>2026-04-17T13:01:10.914Z</time></trkpt><trkpt lat="42.65486" lon="-8.6514633"><ele>142.0</ele><time>2026-04-17T13:01:11.914Z</time></trkpt><trkpt lat="42.6549333" lon="-8.65134"><ele>142.0</ele><time>2026-04-17T13:01:12.913Z</time></trkpt><trkpt lat="42.654985" lon="-8.651155"><ele>142.0</ele><time>2026-04-17T13:01:13.913Z</time></trkpt><trkpt lat="42.6550433" lon="-8.650995"><ele>142.0</ele><time>2026-04-17T13:01:14.913Z</time></trkpt><trkpt lat="42.655085" lon="-8.650865"><ele>142.0</ele><time>2026-04-17T13:01:15.913Z</time></trkpt><trkpt lat="42.655105" lon="-8.6507733"><ele>143.83333333333334</ele><time>2026-04-17T13:01:16.914Z</time></trkpt><trkpt lat="42.655035" lon="-8.650705"><ele>145.66666666666669</ele><time>2026-04-17T13:01:20.914Z</time></trkpt><trkpt lat="42.6549383" lon="-8.6506833"><ele>147.5</ele><time>2026-04-17T13:01:22.914Z</time></trkpt><trkpt lat="42.654855" lon="-8.650655"><ele>149.33333333333334</ele><time>2026-04-17T13:01:23.913Z</time></trkpt><trkpt lat="42.6547667" lon="-8.6506017"><ele>151.16666666666666</ele><time>2026-04-17T13:01:24.913Z</time></trkpt><trkpt lat="42.6547033" lon="-8.6505333"><ele>153.0</ele><time>2026-04-17T13:01:25.914Z</time></trkpt><trkpt lat="42.654635" lon="-8.6504633"><ele>153.0</ele><time>2026-04-17T13:01:26.914Z</time></trkpt><trkpt lat="42.654565" lon="-8.6504017"><ele>153.0</ele><time>2026-04-17T13:01:27.913Z</time></trkpt><trkpt lat="42.654545" lon="-8.6503167"><ele>153.0</ele><time>2026-04-17T13:01:29.913Z</time></trkpt><trkpt lat="42.6546267" lon="-8.65032"><ele>153.0</ele><time>2026-04-17T13:01:30.914Z</time></trkpt><trkpt lat="42.6547333" lon="-8.6503117"><ele>153.0</ele><time>2026-04-17T13:01:31.913Z</time></trkpt><trkpt lat="42.6548433" lon="-8.6502833"><ele>153.0</ele><time>2026-04-17T13:01:32.913Z</time></trkpt><trkpt lat="42.6549217" lon="-8.650245"><ele>155.0</ele><time>2026-04-17T13:01:33.914Z</time></trkpt><trkpt lat="42.6549733" lon="-8.65017"><ele>157.0</ele><time>2026-04-17T13:01:34.913Z</time></trkpt><trkpt lat="42.65498" lon="-8.6500783"><ele>159.0</ele><time>2026-04-17T13:01:35.913Z</time></trkpt><trkpt lat="42.6549267" lon="-8.649955"><ele>161.0</ele><time>2026-04-17T13:01:37.913Z</time></trkpt><trkpt lat="42.65499" lon="-8.6499017"><ele>163.0</ele><time>2026-04-17T13:01:51.913Z</time></trkpt><trkpt lat="42.6550917" lon="-8.6498017"><ele>165.0</ele><time>2026-04-17T13:01:52.914Z</time></trkpt><trkpt lat="42.6552067" lon="-8.6496867"><ele>164.66666666666666</ele><time>2026-04-17T13:01:53.913Z</time></trkpt><trkpt lat="42.655335" lon="-8.6495567"><ele>164.33333333333331</ele><time>2026-04-17T13:01:54.913Z</time></trkpt><trkpt lat="42.6554767" lon="-8.6494117"><ele>164.0</ele><time>2026-04-17T13:01:55.914Z</time></trkpt><trkpt lat="42.6556417" lon="-8.6492533"><ele>164.66666666666666</ele><time>2026-04-17T13:01:56.914Z</time></trkpt><trkpt lat="42.655815" lon="-8.6490933"><ele>165.33333333333334</ele><time>2026-04-17T13:01:57.913Z</time></trkpt><trkpt lat="42.65599" lon="-8.6489333"><ele>166.0</ele><time>2026-04-17T13:01:58.913Z</time></trkpt><trkpt lat="42.6561483" lon="-8.6487867"><ele>166.0</ele><time>2026-04-17T13:01:59.913Z</time></trkpt><trkpt lat="42.6562883" lon="-8.648655"><ele>166.0</ele><time>2026-04-17T13:02:00.913Z</time></trkpt><trkpt lat="42.6564167" lon="-8.6485317"><ele>166.0</ele><time>2026-04-17T13:02:01.914Z</time></trkpt><trkpt lat="42.6565433" lon="-8.648415"><ele>166.75</ele><time>2026-04-17T13:02:02.914Z</time></trkpt><trkpt lat="42.6566717" lon="-8.6483017"><ele>167.5</ele><time>2026-04-17T13:02:03.913Z</time></trkpt><trkpt lat="42.6567933" lon="-8.6482033"><ele>168.25</ele><time>2026-04-17T13:02:04.914Z</time></trkpt><trkpt lat="42.6569" lon="-8.6481217"><ele>169.0</ele><time>2026-04-17T13:02:05.913Z</time></trkpt><trkpt lat="42.6569833" lon="-8.6480367"><ele>167.75</ele><time>2026-04-17T13:02:06.914Z</time></trkpt><trkpt lat="42.657055" lon="-8.647925"><ele>166.5</ele><time>2026-04-17T13:02:07.914Z</time></trkpt><trkpt lat="42.6571367" lon="-8.6477933"><ele>165.25</ele><time>2026-04-17T13:02:08.913Z</time></trkpt><trkpt lat="42.6572267" lon="-8.64766"><ele>164.0</ele><time>2026-04-17T13:02:09.913Z</time></trkpt><trkpt lat="42.65732" lon="-8.6475367"><ele>164.0</ele><time>2026-04-17T13:02:10.913Z</time></trkpt><trkpt lat="42.6574117" lon="-8.64742"><ele>164.0</ele><time>2026-04-17T13:02:11.913Z</time></trkpt><trkpt lat="42.6575" lon="-8.6473117"><ele>164.0</ele><time>2026-04-17T13:02:12.914Z</time></trkpt><trkpt lat="42.657585" lon="-8.6472067"><ele>164.0</ele><time>2026-04-17T13:02:13.914Z</time></trkpt><trkpt lat="42.6576717" lon="-8.6470983"><ele>164.0</ele><time>2026-04-17T13:02:14.913Z</time></trkpt><trkpt lat="42.6577567" lon="-8.6469783"><ele>164.0</ele><time>2026-04-17T13:02:15.913Z</time></trkpt><trkpt lat="42.657845" lon="-8.6468633"><ele>164.0</ele><time>2026-04-17T13:02:16.914Z</time></trkpt><trkpt lat="42.6579367" lon="-8.64675"><ele>164.0</ele><time>2026-04-17T13:02:17.914Z</time></trkpt><trkpt lat="42.6580283" lon="-8.6466367"><ele>162.0</ele><time>2026-04-17T13:02:18.913Z</time></trkpt><trkpt lat="42.6581083" lon="-8.64654"><ele>160.0</ele><time>2026-04-17T13:02:19.913Z</time></trkpt><trkpt lat="42.6581767" lon="-8.646465"><ele>158.0</ele><time>2026-04-17T13:02:20.914Z</time></trkpt><trkpt lat="42.6582283" lon="-8.64641"><ele>156.0</ele><time>2026-04-17T13:02:21.914Z</time></trkpt><trkpt lat="42.6582767" lon="-8.64635"><ele>154.0</ele><time>2026-04-17T13:02:22.914Z</time></trkpt><trkpt lat="42.65833" lon="-8.6462683"><ele>152.0</ele><time>2026-04-17T13:02:23.914Z</time></trkpt><trkpt lat="42.6583967" lon="-8.6461633"><ele>152.0</ele><time>2026-04-17T13:02:24.914Z</time></trkpt><trkpt lat="42.6584683" lon="-8.6460517"><ele>152.0</ele><time>2026-04-17T13:02:25.914Z</time></trkpt><trkpt lat="42.6585317" lon="-8.6459483"><ele>152.0</ele><time>2026-04-17T13:02:26.914Z</time></trkpt><trkpt lat="42.6585883" lon="-8.6458617"><ele>152.0</ele><time>2026-04-17T13:02:27.913Z</time></trkpt><trkpt lat="42.6586433" lon="-8.645805"><ele>152.0</ele><time>2026-04-17T13:02:28.914Z</time></trkpt><trkpt lat="42.6587033" lon="-8.6457767"><ele>152.0</ele><time>2026-04-17T13:02:30.914Z</time></trkpt><trkpt lat="42.6587817" lon="-8.6458317"><ele>151.66666666666666</ele><time>2026-04-17T13:02:32.913Z</time></trkpt><trkpt lat="42.6588433" lon="-8.6458867"><ele>151.33333333333331</ele><time>2026-04-17T13:02:33.914Z</time></trkpt><trkpt lat="42.6589017" lon="-8.6459433"><ele>151.0</ele><time>2026-04-17T13:02:34.914Z</time></trkpt><trkpt lat="42.6589533" lon="-8.6459933"><ele>150.66666666666666</ele><time>2026-04-17T13:02:35.913Z</time></trkpt><trkpt lat="42.6590483" lon="-8.64607"><ele>150.33333333333334</ele><time>2026-04-17T13:02:37.913Z</time></trkpt><trkpt lat="42.6591133" lon="-8.6461017"><ele>150.0</ele><time>2026-04-17T13:02:38.913Z</time></trkpt><trkpt lat="42.6591917" lon="-8.646125"><ele>150.0</ele><time>2026-04-17T13:02:39.913Z</time></trkpt><trkpt lat="42.6592817" lon="-8.64613"><ele>150.0</ele><time>2026-04-17T13:02:40.913Z</time></trkpt><trkpt lat="42.65939" lon="-8.6461217"><ele>150.0</ele><time>2026-04-17T13:02:41.914Z</time></trkpt><trkpt lat="42.6595067" lon="-8.6460967"><ele>150.0</ele><time>2026-04-17T13:02:42.915Z</time></trkpt><trkpt lat="42.6596067" lon="-8.6460533"><ele>150.0</ele><time>2026-04-17T13:02:43.914Z</time></trkpt><trkpt lat="42.65969" lon="-8.6459983"><ele>151.0</ele><time>2026-04-17T13:02:44.914Z</time></trkpt><trkpt lat="42.65976" lon="-8.6459183"><ele>152.0</ele><time>2026-04-17T13:02:45.915Z</time></trkpt><trkpt lat="42.6598083" lon="-8.645815"><ele>153.0</ele><time>2026-04-17T13:02:46.915Z</time></trkpt><trkpt lat="42.65985" lon="-8.6457233"><ele>154.0</ele><time>2026-04-17T13:02:47.914Z</time></trkpt><trkpt lat="42.6599" lon="-8.6456617"><ele>155.0</ele><time>2026-04-17T13:02:48.914Z</time></trkpt><trkpt lat="42.6600217" lon="-8.645615"><ele>155.0</ele><time>2026-04-17T13:02:50.915Z</time></trkpt><trkpt lat="42.660105" lon="-8.64561"><ele>155.0</ele><time>2026-04-17T13:02:51.915Z</time></trkpt><trkpt lat="42.6602083" lon="-8.6456217"><ele>155.0</ele><time>2026-04-17T13:02:52.915Z</time></trkpt><trkpt lat="42.6603367" lon="-8.64565"><ele>155.0</ele><time>2026-04-17T13:02:53.915Z</time></trkpt><trkpt lat="42.660495" lon="-8.6457017"><ele>154.5</ele><time>2026-04-17T13:02:54.915Z</time></trkpt><trkpt lat="42.66064" lon="-8.64575"><ele>154.0</ele><time>2026-04-17T13:02:55.915Z</time></trkpt><trkpt lat="42.6607683" lon="-8.64578"><ele>153.5</ele><time>2026-04-17T13:02:56.915Z</time></trkpt><trkpt lat="42.6609" lon="-8.645785"><ele>153.0</ele><time>2026-04-17T13:02:57.914Z</time></trkpt><trkpt lat="42.661045" lon="-8.6457767"><ele>152.0</ele><time>2026-04-17T13:02:58.915Z</time></trkpt><trkpt lat="42.6611867" lon="-8.6457767"><ele>151.0</ele><time>2026-04-17T13:02:59.914Z</time></trkpt><trkpt lat="42.6613217" lon="-8.6458117"><ele>150.0</ele><time>2026-04-17T13:03:00.915Z</time></trkpt><trkpt lat="42.6614567" lon="-8.6458733"><ele>149.0</ele><time>2026-04-17T13:03:01.914Z</time></trkpt><trkpt lat="42.6615917" lon="-8.6459467"><ele>149.0</ele><time>2026-04-17T13:03:02.914Z</time></trkpt><trkpt lat="42.6617333" lon="-8.6460167"><ele>149.0</ele><time>2026-04-17T13:03:03.914Z</time></trkpt><trkpt lat="42.6618883" lon="-8.64611"><ele>149.0</ele><time>2026-04-17T13:03:04.914Z</time></trkpt><trkpt lat="42.662025" lon="-8.6462233"><ele>149.2</ele><time>2026-04-17T13:03:05.915Z</time></trkpt><trkpt lat="42.6621433" lon="-8.6463133"><ele>149.4</ele><time>2026-04-17T13:03:06.914Z</time></trkpt><trkpt lat="42.662235" lon="-8.64636"><ele>149.6</ele><time>2026-04-17T13:03:07.914Z</time></trkpt><trkpt lat="42.6623267" lon="-8.64637"><ele>149.8</ele><time>2026-04-17T13:03:08.914Z</time></trkpt><trkpt lat="42.6624183" lon="-8.646365"><ele>150.0</ele><time>2026-04-17T13:03:09.915Z</time></trkpt><trkpt lat="42.6625" lon="-8.646375"><ele>150.0</ele><time>2026-04-17T13:03:10.914Z</time></trkpt><trkpt lat="42.6625767" lon="-8.6464083"><ele>150.0</ele><time>2026-04-17T13:03:11.915Z</time></trkpt><trkpt lat="42.6626517" lon="-8.6464733"><ele>150.0</ele><time>2026-04-17T13:03:12.915Z</time></trkpt><trkpt lat="42.6627267" lon="-8.64656"><ele>150.0</ele><time>2026-04-17T13:03:13.914Z</time></trkpt><trkpt lat="42.662795" lon="-8.646685"><ele>150.0</ele><time>2026-04-17T13:03:14.915Z</time></trkpt><trkpt lat="42.6628567" lon="-8.64683"><ele>148.4</ele><time>2026-04-17T13:03:15.915Z</time></trkpt><trkpt lat="42.662915" lon="-8.6469833"><ele>146.8</ele><time>2026-04-17T13:03:16.915Z</time></trkpt><trkpt lat="42.66298" lon="-8.6471217"><ele>145.2</ele><time>2026-04-17T13:03:17.915Z</time></trkpt><trkpt lat="42.6630383" lon="-8.647235"><ele>143.6</ele><time>2026-04-17T13:03:18.914Z</time></trkpt><trkpt lat="42.6631017" lon="-8.6473083"><ele>142.0</ele><time>2026-04-17T13:03:19.914Z</time></trkpt><trkpt lat="42.6631817" lon="-8.6473433"><ele>142.0</ele><time>2026-04-17T13:03:20.914Z</time></trkpt><trkpt lat="42.6632867" lon="-8.6473433"><ele>142.0</ele><time>2026-04-17T13:03:21.914Z</time></trkpt><trkpt lat="42.66338" lon="-8.6473367"><ele>142.0</ele><time>2026-04-17T13:03:22.915Z</time></trkpt><trkpt lat="42.6634767" lon="-8.6473383"><ele>142.0</ele><time>2026-04-17T13:03:23.915Z</time></trkpt><trkpt lat="42.6635867" lon="-8.6473283"><ele>142.0</ele><time>2026-04-17T13:03:24.915Z</time></trkpt><trkpt lat="42.6637183" lon="-8.6472867"><ele>143.66666666666669</ele><time>2026-04-17T13:03:25.914Z</time></trkpt><trkpt lat="42.6638733" lon="-8.647215"><ele>145.33333333333334</ele><time>2026-04-17T13:03:26.915Z</time></trkpt><trkpt lat="42.6640367" lon="-8.6471183"><ele>147.0</ele><time>2026-04-17T13:03:27.915Z</time></trkpt><trkpt lat="42.664165" lon="-8.6470467"><ele>147.75</ele><time>2026-04-17T13:03:28.914Z</time></trkpt><trkpt lat="42.66431" lon="-8.6469367"><ele>148.5</ele><time>2026-04-17T13:03:29.914Z</time></trkpt><trkpt lat="42.664395" lon="-8.6467967"><ele>149.25</ele><time>2026-04-17T13:03:30.914Z</time></trkpt><trkpt lat="42.664465" lon="-8.646665"><ele>150.0</ele><time>2026-04-17T13:03:31.915Z</time></trkpt><trkpt lat="42.664505" lon="-8.6465467"><ele>150.0</ele><time>2026-04-17T13:03:32.915Z</time></trkpt><trkpt lat="42.6645483" lon="-8.6464217"><ele>150.0</ele><time>2026-04-17T13:03:33.915Z</time></trkpt><trkpt lat="42.6645683" lon="-8.64627"><ele>150.0</ele><time>2026-04-17T13:03:34.914Z</time></trkpt><trkpt lat="42.664545" lon="-8.6461367"><ele>150.0</ele><time>2026-04-17T13:03:35.915Z</time></trkpt><trkpt lat="42.664475" lon="-8.645995"><ele>150.0</ele><time>2026-04-17T13:03:36.914Z</time></trkpt><trkpt lat="42.664345" lon="-8.6458483"><ele>151.0</ele><time>2026-04-17T13:03:37.914Z</time></trkpt><trkpt lat="42.6641817" lon="-8.6457"><ele>152.0</ele><time>2026-04-17T13:03:38.914Z</time></trkpt><trkpt lat="42.6640367" lon="-8.64556"><ele>153.0</ele><time>2026-04-17T13:03:39.915Z</time></trkpt><trkpt lat="42.6639183" lon="-8.6454333"><ele>153.0</ele><time>2026-04-17T13:03:40.914Z</time></trkpt><trkpt lat="42.6638383" lon="-8.645315"><ele>153.0</ele><time>2026-04-17T13:03:41.915Z</time></trkpt><trkpt lat="42.663805" lon="-8.6451967"><ele>153.0</ele><time>2026-04-17T13:03:42.915Z</time></trkpt><trkpt lat="42.6638083" lon="-8.645065"><ele>153.0</ele><time>2026-04-17T13:03:43.914Z</time></trkpt><trkpt lat="42.6638383" lon="-8.6449433"><ele>153.0</ele><time>2026-04-17T13:03:44.915Z</time></trkpt><trkpt lat="42.6638817" lon="-8.6448433"><ele>152.33333333333334</ele><time>2026-04-17T13:03:45.915Z</time></trkpt><trkpt lat="42.6639417" lon="-8.64476"><ele>151.66666666666666</ele><time>2026-04-17T13:03:46.915Z</time></trkpt><trkpt lat="42.6640167" lon="-8.6446933"><ele>151.0</ele><time>2026-04-17T13:03:47.914Z</time></trkpt><trkpt lat="42.6640883" lon="-8.6446333"><ele>150.33333333333331</ele><time>2026-04-17T13:03:48.915Z</time></trkpt><trkpt lat="42.6641533" lon="-8.64457"><ele>149.66666666666666</ele><time>2026-04-17T13:03:49.914Z</time></trkpt><trkpt lat="42.6642033" lon="-8.644475"><ele>149.0</ele><time>2026-04-17T13:03:50.915Z</time></trkpt><trkpt lat="42.6642283" lon="-8.6443233"><ele>146.4</ele><time>2026-04-17T13:03:51.915Z</time></trkpt><trkpt lat="42.6642283" lon="-8.6441467"><ele>143.8</ele><time>2026-04-17T13:03:52.915Z</time></trkpt><trkpt lat="42.66422" lon="-8.644"><ele>141.2</ele><time>2026-04-17T13:03:53.914Z</time></trkpt><trkpt lat="42.6642233" lon="-8.64388"><ele>138.6</ele><time>2026-04-17T13:03:54.915Z</time></trkpt><trkpt lat="42.6642483" lon="-8.6437833"><ele>136.0</ele><time>2026-04-17T13:03:55.915Z</time></trkpt><trkpt lat="42.664295" lon="-8.6437"><ele>133.0</ele><time>2026-04-17T13:03:56.915Z</time></trkpt><trkpt lat="42.66437" lon="-8.64362"><ele>130.0</ele><time>2026-04-17T13:03:57.914Z</time></trkpt><trkpt lat="42.6644717" lon="-8.643555"><ele>127.0</ele><time>2026-04-17T13:03:58.915Z</time></trkpt><trkpt lat="42.664575" lon="-8.6435183"><ele>124.0</ele><time>2026-04-17T13:03:59.914Z</time></trkpt><trkpt lat="42.6646867" lon="-8.6435217"><ele>121.0</ele><time>2026-04-17T13:04:00.914Z</time></trkpt><trkpt lat="42.664805" lon="-8.6435667"><ele>120.4</ele><time>2026-04-17T13:04:01.914Z</time></trkpt><trkpt lat="42.664915" lon="-8.64363"><ele>119.8</ele><time>2026-04-17T13:04:02.915Z</time></trkpt><trkpt lat="42.6650117" lon="-8.6436967"><ele>119.20000000000002</ele><time>2026-04-17T13:04:03.915Z</time></trkpt><trkpt lat="42.6651" lon="-8.6437583"><ele>118.60000000000001</ele><time>2026-04-17T13:04:04.914Z</time></trkpt><trkpt lat="42.66518" lon="-8.6438167"><ele>118.0</ele><time>2026-04-17T13:04:05.915Z</time></trkpt><trkpt lat="42.6652683" lon="-8.6438667"><ele>120.0</ele><time>2026-04-17T13:04:06.914Z</time></trkpt><trkpt lat="42.6653717" lon="-8.6438933"><ele>122.00000000000001</ele><time>2026-04-17T13:04:07.915Z</time></trkpt><trkpt lat="42.6654717" lon="-8.643895"><ele>124.00000000000001</ele><time>2026-04-17T13:04:08.914Z</time></trkpt><trkpt lat="42.6655617" lon="-8.6438783"><ele>126.0</ele><time>2026-04-17T13:04:09.914Z</time></trkpt><trkpt lat="42.6656517" lon="-8.64385"><ele>128.0</ele><time>2026-04-17T13:04:10.914Z</time></trkpt><trkpt lat="42.6657417" lon="-8.6438133"><ele>127.99999999999999</ele><time>2026-04-17T13:04:11.914Z</time></trkpt><trkpt lat="42.66583" lon="-8.643775"><ele>128.0</ele><time>2026-04-17T13:04:12.915Z</time></trkpt><trkpt lat="42.6659133" lon="-8.6437367"><ele>128.0</ele><time>2026-04-17T13:04:13.914Z</time></trkpt><trkpt lat="42.6659983" lon="-8.6437067"><ele>128.0</ele><time>2026-04-17T13:04:14.914Z</time></trkpt><trkpt lat="42.6660833" lon="-8.643675"><ele>127.99999999999999</ele><time>2026-04-17T13:04:15.914Z</time></trkpt><trkpt lat="42.6661617" lon="-8.6436567"><ele>128.0</ele><time>2026-04-17T13:04:16.914Z</time></trkpt><trkpt lat="42.6662233" lon="-8.6436333"><ele>125.4</ele><time>2026-04-17T13:04:17.914Z</time></trkpt><trkpt lat="42.6662583" lon="-8.6435383"><ele>122.80000000000001</ele><time>2026-04-17T13:04:19.914Z</time></trkpt><trkpt lat="42.666235" lon="-8.64336"><ele>120.2</ele><time>2026-04-17T13:04:21.914Z</time></trkpt><trkpt lat="42.666205" lon="-8.6432267"><ele>117.6</ele><time>2026-04-17T13:04:22.915Z</time></trkpt><trkpt lat="42.66617" lon="-8.6430833"><ele>115.0</ele><time>2026-04-17T13:04:23.915Z</time></trkpt><trkpt lat="42.6661267" lon="-8.6429417"><ele>115.0</ele><time>2026-04-17T13:04:24.914Z</time></trkpt><trkpt lat="42.6660817" lon="-8.6427917"><ele>115.0</ele><time>2026-04-17T13:04:25.915Z</time></trkpt><trkpt lat="42.6660233" lon="-8.6426567"><ele>115.0</ele><time>2026-04-17T13:04:26.915Z</time></trkpt><trkpt lat="42.6659617" lon="-8.6425233"><ele>115.0</ele><time>2026-04-17T13:04:27.915Z</time></trkpt><trkpt lat="42.6658933" lon="-8.6423933"><ele>115.0</ele><time>2026-04-17T13:04:28.914Z</time></trkpt><trkpt lat="42.6658283" lon="-8.6422633"><ele>115.0</ele><time>2026-04-17T13:04:29.914Z</time></trkpt><trkpt lat="42.6657683" lon="-8.6421433"><ele>115.0</ele><time>2026-04-17T13:04:30.915Z</time></trkpt><trkpt lat="42.6657167" lon="-8.6420183"><ele>115.0</ele><time>2026-04-17T13:04:31.915Z</time></trkpt><trkpt lat="42.6656733" lon="-8.6418883"><ele>115.0</ele><time>2026-04-17T13:04:32.914Z</time></trkpt><trkpt lat="42.66564" lon="-8.6417583"><ele>116.4</ele><time>2026-04-17T13:04:33.915Z</time></trkpt><trkpt lat="42.665615" lon="-8.641625"><ele>117.8</ele><time>2026-04-17T13:04:34.914Z</time></trkpt><trkpt lat="42.66559" lon="-8.6414867"><ele>119.19999999999999</ele><time>2026-04-17T13:04:35.914Z</time></trkpt><trkpt lat="42.6655583" lon="-8.6413567"><ele>120.6</ele><time>2026-04-17T13:04:36.914Z</time></trkpt><trkpt lat="42.6655133" lon="-8.6412333"><ele>122.0</ele><time>2026-04-17T13:04:37.914Z</time></trkpt><trkpt lat="42.6654567" lon="-8.6411167"><ele>123.0</ele><time>2026-04-17T13:04:38.915Z</time></trkpt><trkpt lat="42.6653933" lon="-8.641005"><ele>124.0</ele><time>2026-04-17T13:04:39.914Z</time></trkpt><trkpt lat="42.6653333" lon="-8.6408767"><ele>125.0</ele><time>2026-04-17T13:04:40.915Z</time></trkpt><trkpt lat="42.66529" lon="-8.64073"><ele>126.0</ele><time>2026-04-17T13:04:41.914Z</time></trkpt><trkpt lat="42.66526" lon="-8.640575"><ele>126.0</ele><time>2026-04-17T13:04:42.914Z</time></trkpt><trkpt lat="42.6652433" lon="-8.6404167"><ele>126.0</ele><time>2026-04-17T13:04:43.914Z</time></trkpt><trkpt lat="42.665235" lon="-8.6402567"><ele>126.0</ele><time>2026-04-17T13:04:44.915Z</time></trkpt><trkpt lat="42.6652317" lon="-8.6400967"><ele>126.0</ele><time>2026-04-17T13:04:45.914Z</time></trkpt><trkpt lat="42.66523" lon="-8.6399367"><ele>126.0</ele><time>2026-04-17T13:04:46.915Z</time></trkpt><trkpt lat="42.66523" lon="-8.6397783"><ele>126.0</ele><time>2026-04-17T13:04:47.914Z</time></trkpt><trkpt lat="42.6652317" lon="-8.6396183"><ele>126.0</ele><time>2026-04-17T13:04:48.915Z</time></trkpt><trkpt lat="42.6652367" lon="-8.6394517"><ele>126.0</ele><time>2026-04-17T13:04:49.915Z</time></trkpt><trkpt lat="42.665235" lon="-8.63929"><ele>126.16666666666667</ele><time>2026-04-17T13:04:50.915Z</time></trkpt><trkpt lat="42.6652267" lon="-8.639135"><ele>126.33333333333334</ele><time>2026-04-17T13:04:51.914Z</time></trkpt><trkpt lat="42.6652067" lon="-8.6389967"><ele>126.5</ele><time>2026-04-17T13:04:52.914Z</time></trkpt><trkpt lat="42.665195" lon="-8.6388767"><ele>126.66666666666667</ele><time>2026-04-17T13:04:53.915Z</time></trkpt><trkpt lat="42.6652" lon="-8.6387733"><ele>126.83333333333334</ele><time>2026-04-17T13:04:54.914Z</time></trkpt><trkpt lat="42.6652283" lon="-8.6386917"><ele>127.0</ele><time>2026-04-17T13:04:55.914Z</time></trkpt><trkpt lat="42.665355" lon="-8.6386183"><ele>127.6</ele><time>2026-04-17T13:04:57.914Z</time></trkpt><trkpt lat="42.6654267" lon="-8.6385883"><ele>128.2</ele><time>2026-04-17T13:04:58.914Z</time></trkpt><trkpt lat="42.6655" lon="-8.6385117"><ele>128.8</ele><time>2026-04-17T13:04:59.914Z</time></trkpt><trkpt lat="42.6655667" lon="-8.63841"><ele>129.4</ele><time>2026-04-17T13:05:00.914Z</time></trkpt><trkpt lat="42.6656183" lon="-8.6382933"><ele>130.0</ele><time>2026-04-17T13:05:01.914Z</time></trkpt><trkpt lat="42.6656617" lon="-8.6381567"><ele>130.0</ele><time>2026-04-17T13:05:02.914Z</time></trkpt><trkpt lat="42.6657" lon="-8.6380167"><ele>130.0</ele><time>2026-04-17T13:05:03.915Z</time></trkpt><trkpt lat="42.6657417" lon="-8.6378717"><ele>130.0</ele><time>2026-04-17T13:05:04.915Z</time></trkpt><trkpt lat="42.6657783" lon="-8.6377283"><ele>130.0</ele><time>2026-04-17T13:05:05.915Z</time></trkpt><trkpt lat="42.66581" lon="-8.6375867"><ele>130.0</ele><time>2026-04-17T13:05:06.914Z</time></trkpt><trkpt lat="42.665835" lon="-8.6374483"><ele>130.8</ele><time>2026-04-17T13:05:07.914Z</time></trkpt><trkpt lat="42.6658467" lon="-8.637315"><ele>131.6</ele><time>2026-04-17T13:05:08.914Z</time></trkpt><trkpt lat="42.6658367" lon="-8.6371867"><ele>132.4</ele><time>2026-04-17T13:05:09.914Z</time></trkpt><trkpt lat="42.6658033" lon="-8.63706"><ele>133.2</ele><time>2026-04-17T13:05:10.914Z</time></trkpt><trkpt lat="42.6657567" lon="-8.636935"><ele>134.0</ele><time>2026-04-17T13:05:11.914Z</time></trkpt><trkpt lat="42.6657017" lon="-8.6368083"><ele>134.8</ele><time>2026-04-17T13:05:12.914Z</time></trkpt><trkpt lat="42.6656467" lon="-8.6366867"><ele>135.60000000000002</ele><time>2026-04-17T13:05:13.915Z</time></trkpt><trkpt lat="42.6656033" lon="-8.636565"><ele>136.4</ele><time>2026-04-17T13:05:14.914Z</time></trkpt><trkpt lat="42.6655733" lon="-8.6364317"><ele>137.20000000000002</ele><time>2026-04-17T13:05:15.914Z</time></trkpt><trkpt lat="42.66555" lon="-8.6362933"><ele>138.0</ele><time>2026-04-17T13:05:16.914Z</time></trkpt><trkpt lat="42.6655217" lon="-8.6361767"><ele>137.83333333333334</ele><time>2026-04-17T13:05:17.915Z</time></trkpt><trkpt lat="42.6654817" lon="-8.6360933"><ele>137.66666666666666</ele><time>2026-04-17T13:05:18.914Z</time></trkpt><trkpt lat="42.6654217" lon="-8.6360517"><ele>137.5</ele><time>2026-04-17T13:05:19.914Z</time></trkpt><trkpt lat="42.665345" lon="-8.6360167"><ele>137.33333333333331</ele><time>2026-04-17T13:05:20.914Z</time></trkpt><trkpt lat="42.6652883" lon="-8.635965"><ele>137.16666666666666</ele><time>2026-04-17T13:05:21.914Z</time></trkpt><trkpt lat="42.665255" lon="-8.63589"><ele>137.0</ele><time>2026-04-17T13:05:22.915Z</time></trkpt><trkpt lat="42.6653533" lon="-8.6357767"><ele>137.0</ele><time>2026-04-17T13:05:24.915Z</time></trkpt><trkpt lat="42.6654317" lon="-8.6357717"><ele>137.0</ele><time>2026-04-17T13:05:25.914Z</time></trkpt><trkpt lat="42.6655117" lon="-8.6357617"><ele>137.0</ele><time>2026-04-17T13:05:26.915Z</time></trkpt><trkpt lat="42.6655933" lon="-8.6357333"><ele>137.0</ele><time>2026-04-17T13:05:27.915Z</time></trkpt><trkpt lat="42.665675" lon="-8.6356933"><ele>137.0</ele><time>2026-04-17T13:05:28.914Z</time></trkpt><trkpt lat="42.6657617" lon="-8.6356433"><ele>137.0</ele><time>2026-04-17T13:05:29.914Z</time></trkpt><trkpt lat="42.66585" lon="-8.6355933"><ele>137.0</ele><time>2026-04-17T13:05:30.915Z</time></trkpt><trkpt lat="42.6659383" lon="-8.6355383"><ele>137.0</ele><time>2026-04-17T13:05:31.914Z</time></trkpt><trkpt lat="42.6660317" lon="-8.6354817"><ele>137.0</ele><time>2026-04-17T13:05:32.915Z</time></trkpt><trkpt lat="42.6661283" lon="-8.635425"><ele>137.0</ele><time>2026-04-17T13:05:33.914Z</time></trkpt><trkpt lat="42.66623" lon="-8.63537"><ele>137.0</ele><time>2026-04-17T13:05:34.915Z</time></trkpt><trkpt lat="42.6663383" lon="-8.6353217"><ele>137.75</ele><time>2026-04-17T13:05:35.915Z</time></trkpt><trkpt lat="42.6664517" lon="-8.6352833"><ele>138.5</ele><time>2026-04-17T13:05:36.915Z</time></trkpt><trkpt lat="42.6665733" lon="-8.635255"><ele>139.25</ele><time>2026-04-17T13:05:37.914Z</time></trkpt><trkpt lat="42.6666883" lon="-8.6352383"><ele>140.0</ele><time>2026-04-17T13:05:38.914Z</time></trkpt><trkpt lat="42.6667933" lon="-8.6352267"><ele>140.0</ele><time>2026-04-17T13:05:39.915Z</time></trkpt><trkpt lat="42.666885" lon="-8.635205"><ele>140.0</ele><time>2026-04-17T13:05:40.914Z</time></trkpt><trkpt lat="42.6669533" lon="-8.6351633"><ele>140.0</ele><time>2026-04-17T13:05:41.914Z</time></trkpt><trkpt lat="42.6670067" lon="-8.6350983"><ele>140.0</ele><time>2026-04-17T13:05:42.915Z</time></trkpt><trkpt lat="42.6670417" lon="-8.635"><ele>140.0</ele><time>2026-04-17T13:05:43.915Z</time></trkpt><trkpt lat="42.6670533" lon="-8.6348633"><ele>140.0</ele><time>2026-04-17T13:05:44.914Z</time></trkpt><trkpt lat="42.6670667" lon="-8.6347"><ele>139.6</ele><time>2026-04-17T13:05:45.915Z</time></trkpt><trkpt lat="42.6670817" lon="-8.6345417"><ele>139.2</ele><time>2026-04-17T13:05:46.914Z</time></trkpt><trkpt lat="42.667095" lon="-8.634395"><ele>138.8</ele><time>2026-04-17T13:05:47.914Z</time></trkpt><trkpt lat="42.66711" lon="-8.6342467"><ele>138.4</ele><time>2026-04-17T13:05:48.915Z</time></trkpt><trkpt lat="42.6671233" lon="-8.634095"><ele>138.0</ele><time>2026-04-17T13:05:49.914Z</time></trkpt><trkpt lat="42.6671367" lon="-8.633945"><ele>137.6</ele><time>2026-04-17T13:05:50.914Z</time></trkpt><trkpt lat="42.6671533" lon="-8.6337917"><ele>137.20000000000002</ele><time>2026-04-17T13:05:51.914Z</time></trkpt><trkpt lat="42.6671733" lon="-8.6336417"><ele>136.8</ele><time>2026-04-17T13:05:52.915Z</time></trkpt><trkpt lat="42.6671933" lon="-8.63349"><ele>136.4</ele><time>2026-04-17T13:05:53.915Z</time></trkpt><trkpt lat="42.6672117" lon="-8.6333433"><ele>136.0</ele><time>2026-04-17T13:05:54.915Z</time></trkpt><trkpt lat="42.66723" lon="-8.633195"><ele>136.0</ele><time>2026-04-17T13:05:55.915Z</time></trkpt><trkpt lat="42.6672467" lon="-8.6330483"><ele>136.0</ele><time>2026-04-17T13:05:56.915Z</time></trkpt><trkpt lat="42.6672667" lon="-8.6329033"><ele>136.0</ele><time>2026-04-17T13:05:57.915Z</time></trkpt><trkpt lat="42.667285" lon="-8.6327583"><ele>136.0</ele><time>2026-04-17T13:05:58.915Z</time></trkpt><trkpt lat="42.6673033" lon="-8.6326067"><ele>136.0</ele><time>2026-04-17T13:05:59.915Z</time></trkpt><trkpt lat="42.6673183" lon="-8.6324583"><ele>136.8</ele><time>2026-04-17T13:06:00.915Z</time></trkpt><trkpt lat="42.6673367" lon="-8.6323117"><ele>137.6</ele><time>2026-04-17T13:06:01.915Z</time></trkpt><trkpt lat="42.6673533" lon="-8.632165"><ele>138.4</ele><time>2026-04-17T13:06:02.915Z</time></trkpt><trkpt lat="42.66737" lon="-8.6320183"><ele>139.2</ele><time>2026-04-17T13:06:03.915Z</time></trkpt><trkpt lat="42.66739" lon="-8.631875"><ele>140.0</ele><time>2026-04-17T13:06:04.915Z</time></trkpt><trkpt lat="42.6674083" lon="-8.6317267"><ele>140.4</ele><time>2026-04-17T13:06:05.915Z</time></trkpt><trkpt lat="42.66743" lon="-8.6315767"><ele>140.8</ele><time>2026-04-17T13:06:06.914Z</time></trkpt><trkpt lat="42.6674517" lon="-8.63143"><ele>141.2</ele><time>2026-04-17T13:06:07.915Z</time></trkpt><trkpt lat="42.6674717" lon="-8.631285"><ele>141.6</ele><time>2026-04-17T13:06:08.914Z</time></trkpt><trkpt lat="42.6674917" lon="-8.63114"><ele>142.0</ele><time>2026-04-17T13:06:09.915Z</time></trkpt><trkpt lat="42.66751" lon="-8.6309883"><ele>142.79999999999998</ele><time>2026-04-17T13:06:10.914Z</time></trkpt><trkpt lat="42.6675267" lon="-8.6308383"><ele>143.6</ele><time>2026-04-17T13:06:11.914Z</time></trkpt><trkpt lat="42.6675367" lon="-8.6306883"><ele>144.39999999999998</ele><time>2026-04-17T13:06:12.914Z</time></trkpt><trkpt lat="42.6675367" lon="-8.63054"><ele>145.2</ele><time>2026-04-17T13:06:13.914Z</time></trkpt><trkpt lat="42.6675117" lon="-8.6303983"><ele>146.0</ele><time>2026-04-17T13:06:14.914Z</time></trkpt><trkpt lat="42.6674533" lon="-8.6302767"><ele>147.25</ele><time>2026-04-17T13:06:15.914Z</time></trkpt><trkpt lat="42.6673617" lon="-8.630195"><ele>148.5</ele><time>2026-04-17T13:06:16.914Z</time></trkpt><trkpt lat="42.6672517" lon="-8.6301367"><ele>149.75</ele><time>2026-04-17T13:06:17.915Z</time></trkpt><trkpt lat="42.667135" lon="-8.630085"><ele>151.0</ele><time>2026-04-17T13:06:18.914Z</time></trkpt><trkpt lat="42.66702" lon="-8.6300317"><ele>150.75</ele><time>2026-04-17T13:06:19.915Z</time></trkpt><trkpt lat="42.6669083" lon="-8.6299783"><ele>150.5</ele><time>2026-04-17T13:06:20.914Z</time></trkpt><trkpt lat="42.6668033" lon="-8.6299233"><ele>150.25</ele><time>2026-04-17T13:06:21.915Z</time></trkpt><trkpt lat="42.6666917" lon="-8.62987"><ele>150.0</ele><time>2026-04-17T13:06:22.915Z</time></trkpt><trkpt lat="42.6665817" lon="-8.6298083"><ele>150.0</ele><time>2026-04-17T13:06:23.914Z</time></trkpt><trkpt lat="42.666475" lon="-8.629735"><ele>150.0</ele><time>2026-04-17T13:06:24.915Z</time></trkpt><trkpt lat="42.6663783" lon="-8.629645"><ele>150.0</ele><time>2026-04-17T13:06:25.914Z</time></trkpt><trkpt lat="42.6662883" lon="-8.6295417"><ele>150.0</ele><time>2026-04-17T13:06:26.915Z</time></trkpt><trkpt lat="42.6662" lon="-8.62943"><ele>151.5</ele><time>2026-04-17T13:06:27.914Z</time></trkpt><trkpt lat="42.666115" lon="-8.62931"><ele>153.0</ele><time>2026-04-17T13:06:28.914Z</time></trkpt><trkpt lat="42.6660333" lon="-8.6291867"><ele>154.5</ele><time>2026-04-17T13:06:29.914Z</time></trkpt><trkpt lat="42.6659567" lon="-8.629055"><ele>156.0</ele><time>2026-04-17T13:06:30.915Z</time></trkpt><trkpt lat="42.66589" lon="-8.6289133"><ele>156.0</ele><time>2026-04-17T13:06:31.914Z</time></trkpt><trkpt lat="42.6658317" lon="-8.6287667"><ele>156.0</ele><time>2026-04-17T13:06:32.914Z</time></trkpt><trkpt lat="42.6657767" lon="-8.6286167"><ele>156.0</ele><time>2026-04-17T13:06:33.914Z</time></trkpt><trkpt lat="42.665725" lon="-8.6284683"><ele>156.0</ele><time>2026-04-17T13:06:34.915Z</time></trkpt><trkpt lat="42.66567" lon="-8.6283217"><ele>158.0</ele><time>2026-04-17T13:06:35.914Z</time></trkpt><trkpt lat="42.665615" lon="-8.6281767"><ele>160.0</ele><time>2026-04-17T13:06:36.914Z</time></trkpt><trkpt lat="42.6655717" lon="-8.6280333"><ele>162.0</ele><time>2026-04-17T13:06:37.915Z</time></trkpt><trkpt lat="42.66555" lon="-8.6278767"><ele>164.0</ele><time>2026-04-17T13:06:38.915Z</time></trkpt><trkpt lat="42.665555" lon="-8.6277183"><ele>166.0</ele><time>2026-04-17T13:06:39.914Z</time></trkpt><trkpt lat="42.6655767" lon="-8.6275567"><ele>168.0</ele><time>2026-04-17T13:06:40.915Z</time></trkpt><trkpt lat="42.6656067" lon="-8.627395"><ele>170.0</ele><time>2026-04-17T13:06:41.915Z</time></trkpt><trkpt lat="42.665635" lon="-8.627235"><ele>172.0</ele><time>2026-04-17T13:06:42.915Z</time></trkpt><trkpt lat="42.665665" lon="-8.62707"><ele>172.0</ele><time>2026-04-17T13:06:43.915Z</time></trkpt><trkpt lat="42.6656933" lon="-8.6269067"><ele>172.0</ele><time>2026-04-17T13:06:44.914Z</time></trkpt><trkpt lat="42.6657217" lon="-8.6267433"><ele>172.0</ele><time>2026-04-17T13:06:45.914Z</time></trkpt><trkpt lat="42.6657533" lon="-8.6265767"><ele>172.0</ele><time>2026-04-17T13:06:46.914Z</time></trkpt><trkpt lat="42.665785" lon="-8.62641"><ele>172.0</ele><time>2026-04-17T13:06:47.915Z</time></trkpt><trkpt lat="42.6658183" lon="-8.6262417"><ele>172.0</ele><time>2026-04-17T13:06:48.915Z</time></trkpt><trkpt lat="42.6658417" lon="-8.6260733"><ele>172.0</ele><time>2026-04-17T13:06:49.915Z</time></trkpt><trkpt lat="42.66585" lon="-8.6259083"><ele>172.0</ele><time>2026-04-17T13:06:50.915Z</time></trkpt><trkpt lat="42.6658317" lon="-8.6257483"><ele>172.25</ele><time>2026-04-17T13:06:51.915Z</time></trkpt><trkpt lat="42.66578" lon="-8.625605"><ele>172.5</ele><time>2026-04-17T13:06:52.915Z</time></trkpt><trkpt lat="42.6657133" lon="-8.6254833"><ele>172.75</ele><time>2026-04-17T13:06:53.915Z</time></trkpt><trkpt lat="42.665635" lon="-8.6253733"><ele>173.0</ele><time>2026-04-17T13:06:54.914Z</time></trkpt><trkpt lat="42.6655483" lon="-8.6252583"><ele>173.0</ele><time>2026-04-17T13:06:55.914Z</time></trkpt><trkpt lat="42.6654667" lon="-8.6251383"><ele>173.0</ele><time>2026-04-17T13:06:56.915Z</time></trkpt><trkpt lat="42.665385" lon="-8.62502"><ele>173.0</ele><time>2026-04-17T13:06:57.914Z</time></trkpt><trkpt lat="42.665295" lon="-8.6249233"><ele>173.0</ele><time>2026-04-17T13:06:58.915Z</time></trkpt><trkpt lat="42.665195" lon="-8.6248683"><ele>174.0</ele><time>2026-04-17T13:06:59.914Z</time></trkpt><trkpt lat="42.665085" lon="-8.6248717"><ele>175.0</ele><time>2026-04-17T13:07:00.915Z</time></trkpt><trkpt lat="42.6649817" lon="-8.624945"><ele>176.0</ele><time>2026-04-17T13:07:01.914Z</time></trkpt><trkpt lat="42.6648933" lon="-8.6250617"><ele>177.0</ele><time>2026-04-17T13:07:02.915Z</time></trkpt><trkpt lat="42.6648017" lon="-8.6251783"><ele>177.0</ele><time>2026-04-17T13:07:03.915Z</time></trkpt><trkpt lat="42.6647083" lon="-8.6252883"><ele>177.0</ele><time>2026-04-17T13:07:04.914Z</time></trkpt><trkpt lat="42.6646017" lon="-8.62536"><ele>177.0</ele><time>2026-04-17T13:07:05.915Z</time></trkpt><trkpt lat="42.664495" lon="-8.6254167"><ele>177.0</ele><time>2026-04-17T13:07:06.915Z</time></trkpt><trkpt lat="42.6643783" lon="-8.6254383"><ele>177.0</ele><time>2026-04-17T13:07:07.914Z</time></trkpt><trkpt lat="42.6642633" lon="-8.62544"><ele>177.0</ele><time>2026-04-17T13:07:08.915Z</time></trkpt><trkpt lat="42.6641383" lon="-8.6254383"><ele>177.0</ele><time>2026-04-17T13:07:09.914Z</time></trkpt><trkpt lat="42.66401" lon="-8.6254517"><ele>177.0</ele><time>2026-04-17T13:07:10.915Z</time></trkpt><trkpt lat="42.6638933" lon="-8.6255033"><ele>177.0</ele><time>2026-04-17T13:07:11.914Z</time></trkpt><trkpt lat="42.663795" lon="-8.625595"><ele>177.0</ele><time>2026-04-17T13:07:12.915Z</time></trkpt><trkpt lat="42.6637033" lon="-8.6256833"><ele>177.0</ele><time>2026-04-17T13:07:13.915Z</time></trkpt><trkpt lat="42.6636117" lon="-8.6257517"><ele>177.0</ele><time>2026-04-17T13:07:14.914Z</time></trkpt><trkpt lat="42.6635117" lon="-8.6257933"><ele>177.0</ele><time>2026-04-17T13:07:15.915Z</time></trkpt><trkpt lat="42.6634033" lon="-8.6258033"><ele>180.75</ele><time>2026-04-17T13:07:16.914Z</time></trkpt><trkpt lat="42.6632867" lon="-8.625785"><ele>184.5</ele><time>2026-04-17T13:07:17.915Z</time></trkpt><trkpt lat="42.66317" lon="-8.6257433"><ele>188.25</ele><time>2026-04-17T13:07:18.914Z</time></trkpt><trkpt lat="42.6630533" lon="-8.6256867"><ele>192.0</ele><time>2026-04-17T13:07:19.915Z</time></trkpt><trkpt lat="42.6629433" lon="-8.625615"><ele>192.0</ele><time>2026-04-17T13:07:20.915Z</time></trkpt><trkpt lat="42.6628417" lon="-8.62555"><ele>192.0</ele><time>2026-04-17T13:07:21.915Z</time></trkpt><trkpt lat="42.6627483" lon="-8.62549"><ele>192.0</ele><time>2026-04-17T13:07:22.914Z</time></trkpt><trkpt lat="42.6626583" lon="-8.625425"><ele>192.0</ele><time>2026-04-17T13:07:23.915Z</time></trkpt><trkpt lat="42.662565" lon="-8.6253467"><ele>192.0</ele><time>2026-04-17T13:07:24.914Z</time></trkpt><trkpt lat="42.6624817" lon="-8.62525"><ele>193.5</ele><time>2026-04-17T13:07:25.914Z</time></trkpt><trkpt lat="42.6624017" lon="-8.62514"><ele>195.0</ele><time>2026-04-17T13:07:26.915Z</time></trkpt><trkpt lat="42.662325" lon="-8.6250167"><ele>196.5</ele><time>2026-04-17T13:07:27.915Z</time></trkpt><trkpt lat="42.66225" lon="-8.6248883"><ele>198.0</ele><time>2026-04-17T13:07:28.915Z</time></trkpt><trkpt lat="42.6621667" lon="-8.62476"><ele>198.0</ele><time>2026-04-17T13:07:29.915Z</time></trkpt><trkpt lat="42.6620883" lon="-8.6246333"><ele>198.0</ele><time>2026-04-17T13:07:30.915Z</time></trkpt><trkpt lat="42.6620133" lon="-8.6245067"><ele>198.0</ele><time>2026-04-17T13:07:31.914Z</time></trkpt><trkpt lat="42.6619383" lon="-8.6243833"><ele>198.0</ele><time>2026-04-17T13:07:32.914Z</time></trkpt><trkpt lat="42.661865" lon="-8.6242583"><ele>198.25</ele><time>2026-04-17T13:07:33.914Z</time></trkpt><trkpt lat="42.6617917" lon="-8.62413"><ele>198.5</ele><time>2026-04-17T13:07:34.915Z</time></trkpt><trkpt lat="42.6617183" lon="-8.624005"><ele>198.75</ele><time>2026-04-17T13:07:35.914Z</time></trkpt><trkpt lat="42.6616467" lon="-8.6238883"><ele>199.0</ele><time>2026-04-17T13:07:36.914Z</time></trkpt><trkpt lat="42.66158" lon="-8.6237817"><ele>198.99999999999997</ele><time>2026-04-17T13:07:37.915Z</time></trkpt><trkpt lat="42.6615217" lon="-8.6236917"><ele>199.0</ele><time>2026-04-17T13:07:38.915Z</time></trkpt><trkpt lat="42.6614733" lon="-8.6236233"><ele>199.0</ele><time>2026-04-17T13:07:39.915Z</time></trkpt><trkpt lat="42.66142" lon="-8.6235333"><ele>199.0</ele><time>2026-04-17T13:07:41.915Z</time></trkpt><trkpt lat="42.66151" lon="-8.6234483"><ele>198.99999999999997</ele><time>2026-04-17T13:07:47.914Z</time></trkpt><trkpt lat="42.6615667" lon="-8.6233817"><ele>199.0</ele><time>2026-04-17T13:07:48.915Z</time></trkpt><trkpt lat="42.6616233" lon="-8.6232933"><ele>199.39999999999998</ele><time>2026-04-17T13:07:49.914Z</time></trkpt><trkpt lat="42.6616833" lon="-8.6231867"><ele>199.8</ele><time>2026-04-17T13:07:50.914Z</time></trkpt><trkpt lat="42.6617467" lon="-8.6230633"><ele>200.2</ele><time>2026-04-17T13:07:51.915Z</time></trkpt><trkpt lat="42.6618033" lon="-8.62294"><ele>200.60000000000002</ele><time>2026-04-17T13:07:52.914Z</time></trkpt><trkpt lat="42.6618483" lon="-8.6228317"><ele>201.0</ele><time>2026-04-17T13:07:53.915Z</time></trkpt><trkpt lat="42.6618867" lon="-8.62275"><ele>202.5</ele><time>2026-04-17T13:07:54.915Z</time></trkpt><trkpt lat="42.6619283" lon="-8.6226817"><ele>204.0</ele><time>2026-04-17T13:07:55.914Z</time></trkpt><trkpt lat="42.6619817" lon="-8.6226233"><ele>205.5</ele><time>2026-04-17T13:07:56.914Z</time></trkpt><trkpt lat="42.66205" lon="-8.6225833"><ele>207.0</ele><time>2026-04-17T13:07:57.914Z</time></trkpt><trkpt lat="42.66213" lon="-8.6225633"><ele>208.5</ele><time>2026-04-17T13:07:58.915Z</time></trkpt><trkpt lat="42.6622017" lon="-8.62254"><ele>210.0</ele><time>2026-04-17T13:07:59.914Z</time></trkpt><trkpt lat="42.6622933" lon="-8.6224717"><ele>210.66666666666666</ele><time>2026-04-17T13:08:01.914Z</time></trkpt><trkpt lat="42.6623" lon="-8.6223483"><ele>211.33333333333331</ele><time>2026-04-17T13:08:03.914Z</time></trkpt><trkpt lat="42.662275" lon="-8.6222667"><ele>212.0</ele><time>2026-04-17T13:08:04.915Z</time></trkpt><trkpt lat="42.6622383" lon="-8.6221717"><ele>212.66666666666666</ele><time>2026-04-17T13:08:05.914Z</time></trkpt><trkpt lat="42.662185" lon="-8.622065"><ele>213.33333333333331</ele><time>2026-04-17T13:08:06.915Z</time></trkpt><trkpt lat="42.6621317" lon="-8.6219483"><ele>214.0</ele><time>2026-04-17T13:08:07.915Z</time></trkpt><trkpt lat="42.6620917" lon="-8.6218183"><ele>216.6</ele><time>2026-04-17T13:08:08.914Z</time></trkpt><trkpt lat="42.6620633" lon="-8.6216833"><ele>219.2</ele><time>2026-04-17T13:08:09.914Z</time></trkpt><trkpt lat="42.6620517" lon="-8.6215433"><ele>221.79999999999998</ele><time>2026-04-17T13:08:10.915Z</time></trkpt><trkpt lat="42.6620533" lon="-8.6214067"><ele>224.39999999999998</ele><time>2026-04-17T13:08:11.914Z</time></trkpt><trkpt lat="42.6620617" lon="-8.6212633"><ele>227.0</ele><time>2026-04-17T13:08:12.914Z</time></trkpt><trkpt lat="42.66207" lon="-8.6211183"><ele>228.75</ele><time>2026-04-17T13:08:13.915Z</time></trkpt><trkpt lat="42.662075" lon="-8.6209633"><ele>230.5</ele><time>2026-04-17T13:08:14.915Z</time></trkpt><trkpt lat="42.6620667" lon="-8.62078"><ele>232.25</ele><time>2026-04-17T13:08:15.914Z</time></trkpt><trkpt lat="42.6620517" lon="-8.6206133"><ele>234.0</ele><time>2026-04-17T13:08:16.914Z</time></trkpt><trkpt lat="42.6620283" lon="-8.620445"><ele>235.0</ele><time>2026-04-17T13:08:17.914Z</time></trkpt><trkpt lat="42.661995" lon="-8.6202867"><ele>236.0</ele><time>2026-04-17T13:08:18.915Z</time></trkpt><trkpt lat="42.6619483" lon="-8.6201317"><ele>237.0</ele><time>2026-04-17T13:08:19.915Z</time></trkpt><trkpt lat="42.6619033" lon="-8.6199767"><ele>238.0</ele><time>2026-04-17T13:08:20.914Z</time></trkpt><trkpt lat="42.6618667" lon="-8.61982"><ele>238.0</ele><time>2026-04-17T13:08:21.915Z</time></trkpt><trkpt lat="42.6618183" lon="-8.6196683"><ele>238.0</ele><time>2026-04-17T13:08:22.915Z</time></trkpt><trkpt lat="42.6617767" lon="-8.619525"><ele>238.0</ele><time>2026-04-17T13:08:23.915Z</time></trkpt><trkpt lat="42.66174" lon="-8.6193767"><ele>238.0</ele><time>2026-04-17T13:08:24.914Z</time></trkpt><trkpt lat="42.6617017" lon="-8.6192283"><ele>237.75</ele><time>2026-04-17T13:08:25.914Z</time></trkpt><trkpt lat="42.6616617" lon="-8.6190767"><ele>237.5</ele><time>2026-04-17T13:08:26.914Z</time></trkpt><trkpt lat="42.6616217" lon="-8.618925"><ele>237.25</ele><time>2026-04-17T13:08:27.914Z</time></trkpt><trkpt lat="42.6615917" lon="-8.6187667"><ele>237.0</ele><time>2026-04-17T13:08:28.914Z</time></trkpt><trkpt lat="42.661565" lon="-8.6186083"><ele>237.0</ele><time>2026-04-17T13:08:29.915Z</time></trkpt><trkpt lat="42.6615417" lon="-8.61845"><ele>237.0</ele><time>2026-04-17T13:08:30.914Z</time></trkpt><trkpt lat="42.66152" lon="-8.6182933"><ele>237.0</ele><time>2026-04-17T13:08:31.914Z</time></trkpt><trkpt lat="42.6615033" lon="-8.6181383"><ele>237.0</ele><time>2026-04-17T13:08:32.914Z</time></trkpt><trkpt lat="42.6614833" lon="-8.6179867"><ele>237.0</ele><time>2026-04-17T13:08:33.915Z</time></trkpt><trkpt lat="42.6614683" lon="-8.61784"><ele>237.0</ele><time>2026-04-17T13:08:34.915Z</time></trkpt><trkpt lat="42.661455" lon="-8.617695"><ele>237.0</ele><time>2026-04-17T13:08:35.914Z</time></trkpt><trkpt lat="42.6614517" lon="-8.6175567"><ele>237.0</ele><time>2026-04-17T13:08:36.914Z</time></trkpt><trkpt lat="42.6614583" lon="-8.6174217"><ele>237.0</ele><time>2026-04-17T13:08:37.914Z</time></trkpt><trkpt lat="42.6614733" lon="-8.6172917"><ele>237.2</ele><time>2026-04-17T13:08:38.914Z</time></trkpt><trkpt lat="42.6614933" lon="-8.6171583"><ele>237.39999999999998</ele><time>2026-04-17T13:08:39.914Z</time></trkpt><trkpt lat="42.66152" lon="-8.6170267"><ele>237.60000000000002</ele><time>2026-04-17T13:08:40.915Z</time></trkpt><trkpt lat="42.66155" lon="-8.6169"><ele>237.8</ele><time>2026-04-17T13:08:41.914Z</time></trkpt><trkpt lat="42.6615867" lon="-8.6167783"><ele>238.0</ele><time>2026-04-17T13:08:42.914Z</time></trkpt><trkpt lat="42.66163" lon="-8.6166617"><ele>238.0</ele><time>2026-04-17T13:08:43.914Z</time></trkpt><trkpt lat="42.661675" lon="-8.6165517"><ele>238.0</ele><time>2026-04-17T13:08:44.915Z</time></trkpt><trkpt lat="42.6617217" lon="-8.6164467"><ele>238.0</ele><time>2026-04-17T13:08:45.914Z</time></trkpt><trkpt lat="42.6617717" lon="-8.6163467"><ele>238.0</ele><time>2026-04-17T13:08:46.914Z</time></trkpt><trkpt lat="42.6618267" lon="-8.616245"><ele>238.0</ele><time>2026-04-17T13:08:47.915Z</time></trkpt><trkpt lat="42.6618783" lon="-8.6161483"><ele>237.99999999999997</ele><time>2026-04-17T13:08:48.915Z</time></trkpt><trkpt lat="42.6619183" lon="-8.6160633"><ele>238.0</ele><time>2026-04-17T13:08:49.915Z</time></trkpt><trkpt lat="42.6619733" lon="-8.61594"><ele>238.0</ele><time>2026-04-17T13:08:51.914Z</time></trkpt><trkpt lat="42.6619683" lon="-8.6160667"><ele>238.0</ele><time>2026-04-17T13:08:57.915Z</time></trkpt><trkpt lat="42.6619117" lon="-8.6161383"><ele>237.99999999999997</ele><time>2026-04-17T13:08:58.915Z</time></trkpt><trkpt lat="42.66185" lon="-8.6162217"><ele>238.0</ele><time>2026-04-17T13:08:59.915Z</time></trkpt><trkpt lat="42.6617833" lon="-8.6163183"><ele>238.0</ele><time>2026-04-17T13:09:00.915Z</time></trkpt><trkpt lat="42.66172" lon="-8.6164367"><ele>238.0</ele><time>2026-04-17T13:09:01.914Z</time></trkpt><trkpt lat="42.66166" lon="-8.61657"><ele>238.0</ele><time>2026-04-17T13:09:02.914Z</time></trkpt><trkpt lat="42.6616033" lon="-8.6167083"><ele>238.0</ele><time>2026-04-17T13:09:03.915Z</time></trkpt><trkpt lat="42.66156" lon="-8.616845"><ele>238.0</ele><time>2026-04-17T13:09:04.915Z</time></trkpt><trkpt lat="42.66153" lon="-8.6169767"><ele>238.4</ele><time>2026-04-17T13:09:05.915Z</time></trkpt><trkpt lat="42.661505" lon="-8.6170933"><ele>238.8</ele><time>2026-04-17T13:09:06.915Z</time></trkpt><trkpt lat="42.6614833" lon="-8.61721"><ele>239.2</ele><time>2026-04-17T13:09:07.914Z</time></trkpt><trkpt lat="42.6614617" lon="-8.61734"><ele>239.6</ele><time>2026-04-17T13:09:08.915Z</time></trkpt><trkpt lat="42.6614483" lon="-8.6174783"><ele>240.0</ele><time>2026-04-17T13:09:09.914Z</time></trkpt><trkpt lat="42.6614467" lon="-8.6176217"><ele>240.0</ele><time>2026-04-17T13:09:10.914Z</time></trkpt><trkpt lat="42.6614517" lon="-8.617765"><ele>240.0</ele><time>2026-04-17T13:09:11.914Z</time></trkpt><trkpt lat="42.661465" lon="-8.6179"><ele>240.0</ele><time>2026-04-17T13:09:12.915Z</time></trkpt><trkpt lat="42.6614833" lon="-8.6180183"><ele>240.0</ele><time>2026-04-17T13:09:13.915Z</time></trkpt><trkpt lat="42.6615" lon="-8.6181217"><ele>240.0</ele><time>2026-04-17T13:09:14.915Z</time></trkpt><trkpt lat="42.6615167" lon="-8.6182333"><ele>239.4</ele><time>2026-04-17T13:09:15.914Z</time></trkpt><trkpt lat="42.6615333" lon="-8.6183533"><ele>238.8</ele><time>2026-04-17T13:09:16.914Z</time></trkpt><trkpt lat="42.6615533" lon="-8.6184733"><ele>238.2</ele><time>2026-04-17T13:09:17.914Z</time></trkpt><trkpt lat="42.6615767" lon="-8.61859"><ele>237.6</ele><time>2026-04-17T13:09:18.914Z</time></trkpt><trkpt lat="42.6616017" lon="-8.618715"><ele>237.0</ele><time>2026-04-17T13:09:19.915Z</time></trkpt><trkpt lat="42.6616267" lon="-8.6188417"><ele>237.0</ele><time>2026-04-17T13:09:20.914Z</time></trkpt><trkpt lat="42.66165" lon="-8.6189633"><ele>237.0</ele><time>2026-04-17T13:09:21.914Z</time></trkpt><trkpt lat="42.6616733" lon="-8.619075"><ele>237.0</ele><time>2026-04-17T13:09:22.915Z</time></trkpt><trkpt lat="42.6616967" lon="-8.6191733"><ele>237.0</ele><time>2026-04-17T13:09:23.914Z</time></trkpt><trkpt lat="42.661725" lon="-8.6192517"><ele>237.0</ele><time>2026-04-17T13:09:24.915Z</time></trkpt><trkpt lat="42.661785" lon="-8.6193417"><ele>237.0</ele><time>2026-04-17T13:09:26.914Z</time></trkpt><trkpt lat="42.6618617" lon="-8.6194"><ele>237.33333333333334</ele><time>2026-04-17T13:09:29.915Z</time></trkpt><trkpt lat="42.661965" lon="-8.6194567"><ele>237.66666666666669</ele><time>2026-04-17T13:09:31.914Z</time></trkpt><trkpt lat="42.66203" lon="-8.6194883"><ele>238.0</ele><time>2026-04-17T13:09:32.914Z</time></trkpt><trkpt lat="42.6621017" lon="-8.6195267"><ele>238.33333333333334</ele><time>2026-04-17T13:09:33.914Z</time></trkpt><trkpt lat="42.6621717" lon="-8.6195717"><ele>238.66666666666669</ele><time>2026-04-17T13:09:34.915Z</time></trkpt><trkpt lat="42.662245" lon="-8.61962"><ele>239.0</ele><time>2026-04-17T13:09:35.915Z</time></trkpt><trkpt lat="42.6623183" lon="-8.6196717"><ele>239.00000000000003</ele><time>2026-04-17T13:09:36.914Z</time></trkpt><trkpt lat="42.66239" lon="-8.6197233"><ele>239.0</ele><time>2026-04-17T13:09:37.914Z</time></trkpt><trkpt lat="42.662455" lon="-8.61978"><ele>239.0</ele><time>2026-04-17T13:09:38.915Z</time></trkpt><trkpt lat="42.6625183" lon="-8.6198417"><ele>239.0</ele><time>2026-04-17T13:09:39.915Z</time></trkpt><trkpt lat="42.6625783" lon="-8.6199083"><ele>239.00000000000003</ele><time>2026-04-17T13:09:40.915Z</time></trkpt><trkpt lat="42.6626367" lon="-8.6199683"><ele>239.0</ele><time>2026-04-17T13:09:41.915Z</time></trkpt><trkpt lat="42.6627" lon="-8.6200333"><ele>239.00000000000003</ele><time>2026-04-17T13:09:42.914Z</time></trkpt><trkpt lat="42.6627667" lon="-8.6201"><ele>239.0</ele><time>2026-04-17T13:09:43.915Z</time></trkpt><trkpt lat="42.66283" lon="-8.6201633"><ele>239.0</ele><time>2026-04-17T13:09:44.915Z</time></trkpt><trkpt lat="42.6628983" lon="-8.6202133"><ele>239.0</ele><time>2026-04-17T13:09:45.914Z</time></trkpt><trkpt lat="42.6629667" lon="-8.62026"><ele>239.00000000000003</ele><time>2026-04-17T13:09:46.915Z</time></trkpt><trkpt lat="42.6630317" lon="-8.6203083"><ele>239.0</ele><time>2026-04-17T13:09:47.914Z</time></trkpt><trkpt lat="42.6631033" lon="-8.6203567"><ele>236.66666666666669</ele><time>2026-04-17T13:09:48.914Z</time></trkpt><trkpt lat="42.6631817" lon="-8.6203917"><ele>234.33333333333334</ele><time>2026-04-17T13:09:49.914Z</time></trkpt><trkpt lat="42.6632633" lon="-8.6204183"><ele>232.0</ele><time>2026-04-17T13:09:50.915Z</time></trkpt><trkpt lat="42.66335" lon="-8.6204383"><ele>229.66666666666669</ele><time>2026-04-17T13:09:51.914Z</time></trkpt><trkpt lat="42.6634383" lon="-8.6204533"><ele>227.33333333333334</ele><time>2026-04-17T13:09:52.915Z</time></trkpt><trkpt lat="42.663525" lon="-8.620465"><ele>225.0</ele><time>2026-04-17T13:09:53.915Z</time></trkpt><trkpt lat="42.6636033" lon="-8.6204767"><ele>224.66666666666666</ele><time>2026-04-17T13:09:54.914Z</time></trkpt><trkpt lat="42.663675" lon="-8.620485"><ele>224.33333333333331</ele><time>2026-04-17T13:09:55.914Z</time></trkpt><trkpt lat="42.6637883" lon="-8.6204917"><ele>224.0</ele><time>2026-04-17T13:09:57.914Z</time></trkpt><trkpt lat="42.6638633" lon="-8.6204817"><ele>223.66666666666666</ele><time>2026-04-17T13:09:59.914Z</time></trkpt><trkpt lat="42.6639633" lon="-8.62046"><ele>223.33333333333331</ele><time>2026-04-17T13:10:01.915Z</time></trkpt><trkpt lat="42.6640317" lon="-8.6204417"><ele>223.0</ele><time>2026-04-17T13:10:02.914Z</time></trkpt><trkpt lat="42.6641083" lon="-8.6204233"><ele>222.99999999999997</ele><time>2026-04-17T13:10:03.914Z</time></trkpt><trkpt lat="42.6641867" lon="-8.6204083"><ele>223.0</ele><time>2026-04-17T13:10:04.915Z</time></trkpt><trkpt lat="42.664265" lon="-8.6203883"><ele>223.0</ele><time>2026-04-17T13:10:05.914Z</time></trkpt><trkpt lat="42.6643417" lon="-8.6203617"><ele>223.0</ele><time>2026-04-17T13:10:06.914Z</time></trkpt><trkpt lat="42.6644183" lon="-8.6203283"><ele>222.99999999999997</ele><time>2026-04-17T13:10:07.915Z</time></trkpt><trkpt lat="42.66449" lon="-8.6202883"><ele>223.0</ele><time>2026-04-17T13:10:08.915Z</time></trkpt><trkpt lat="42.6645533" lon="-8.6202417"><ele>226.83333333333331</ele><time>2026-04-17T13:10:09.915Z</time></trkpt><trkpt lat="42.6646133" lon="-8.620185"><ele>230.66666666666666</ele><time>2026-04-17T13:10:10.914Z</time></trkpt><trkpt lat="42.6646717" lon="-8.6201267"><ele>234.5</ele><time>2026-04-17T13:10:11.914Z</time></trkpt><trkpt lat="42.66473" lon="-8.62006"><ele>238.33333333333331</ele><time>2026-04-17T13:10:12.914Z</time></trkpt><trkpt lat="42.66479" lon="-8.6199817"><ele>242.16666666666666</ele><time>2026-04-17T13:10:13.914Z</time></trkpt><trkpt lat="42.6648467" lon="-8.6198917"><ele>246.0</ele><time>2026-04-17T13:10:14.915Z</time></trkpt><trkpt lat="42.6649017" lon="-8.61979"><ele>246.0</ele><time>2026-04-17T13:10:15.915Z</time></trkpt><trkpt lat="42.6649667" lon="-8.6196767"><ele>246.0</ele><time>2026-04-17T13:10:16.914Z</time></trkpt><trkpt lat="42.6650367" lon="-8.6195483"><ele>246.0</ele><time>2026-04-17T13:10:17.914Z</time></trkpt><trkpt lat="42.6651067" lon="-8.6194133"><ele>246.0</ele><time>2026-04-17T13:10:18.914Z</time></trkpt><trkpt lat="42.6651717" lon="-8.6192783"><ele>248.20000000000002</ele><time>2026-04-17T13:10:19.914Z</time></trkpt><trkpt lat="42.66523" lon="-8.6191517"><ele>250.40000000000003</ele><time>2026-04-17T13:10:20.915Z</time></trkpt><trkpt lat="42.665285" lon="-8.6190333"><ele>252.6</ele><time>2026-04-17T13:10:21.915Z</time></trkpt><trkpt lat="42.6653317" lon="-8.618925"><ele>254.8</ele><time>2026-04-17T13:10:22.914Z</time></trkpt><trkpt lat="42.665365" lon="-8.6188267"><ele>257.0</ele><time>2026-04-17T13:10:23.915Z</time></trkpt><trkpt lat="42.665385" lon="-8.6187333"><ele>257.0</ele><time>2026-04-17T13:10:24.914Z</time></trkpt><trkpt lat="42.665395" lon="-8.6186467"><ele>257.0</ele><time>2026-04-17T13:10:25.915Z</time></trkpt><trkpt lat="42.6653467" lon="-8.6184717"><ele>257.0</ele><time>2026-04-17T13:10:27.914Z</time></trkpt><trkpt lat="42.665285" lon="-8.6183817"><ele>257.0</ele><time>2026-04-17T13:10:28.915Z</time></trkpt><trkpt lat="42.6651883" lon="-8.6182783"><ele>257.0</ele><time>2026-04-17T13:10:29.914Z</time></trkpt><trkpt lat="42.6650983" lon="-8.6181683"><ele>257.0</ele><time>2026-04-17T13:10:30.914Z</time></trkpt><trkpt lat="42.6649983" lon="-8.6180467"><ele>257.0</ele><time>2026-04-17T13:10:31.915Z</time></trkpt><trkpt lat="42.6649" lon="-8.6179117"><ele>257.0</ele><time>2026-04-17T13:10:32.915Z</time></trkpt><trkpt lat="42.664805" lon="-8.6177633"><ele>257.0</ele><time>2026-04-17T13:10:33.915Z</time></trkpt><trkpt lat="42.6647067" lon="-8.6176083"><ele>257.25</ele><time>2026-04-17T13:10:34.914Z</time></trkpt><trkpt lat="42.66462" lon="-8.6174467"><ele>257.5</ele><time>2026-04-17T13:10:35.914Z</time></trkpt><trkpt lat="42.664535" lon="-8.6172833"><ele>257.75</ele><time>2026-04-17T13:10:36.915Z</time></trkpt><trkpt lat="42.6644633" lon="-8.6171283"><ele>258.0</ele><time>2026-04-17T13:10:37.915Z</time></trkpt><trkpt lat="42.6644017" lon="-8.6169933"><ele>258.4</ele><time>2026-04-17T13:10:38.914Z</time></trkpt><trkpt lat="42.66434" lon="-8.61688"><ele>258.8</ele><time>2026-04-17T13:10:39.915Z</time></trkpt><trkpt lat="42.66427" lon="-8.6167683"><ele>259.2</ele><time>2026-04-17T13:10:40.914Z</time></trkpt><trkpt lat="42.66418" lon="-8.61668"><ele>259.6</ele><time>2026-04-17T13:10:41.915Z</time></trkpt><trkpt lat="42.664085" lon="-8.616605"><ele>260.0</ele><time>2026-04-17T13:10:42.914Z</time></trkpt><trkpt lat="42.6639867" lon="-8.6165183"><ele>260.0</ele><time>2026-04-17T13:10:43.915Z</time></trkpt><trkpt lat="42.663885" lon="-8.6164183"><ele>260.0</ele><time>2026-04-17T13:10:44.915Z</time></trkpt><trkpt lat="42.663785" lon="-8.6162983"><ele>260.0</ele><time>2026-04-17T13:10:45.915Z</time></trkpt><trkpt lat="42.6636867" lon="-8.6161733"><ele>260.0</ele><time>2026-04-17T13:10:46.914Z</time></trkpt><trkpt lat="42.6635983" lon="-8.6160433"><ele>260.1666666666667</ele><time>2026-04-17T13:10:47.915Z</time></trkpt><trkpt lat="42.663535" lon="-8.6159317"><ele>260.33333333333337</ele><time>2026-04-17T13:10:48.915Z</time></trkpt><trkpt lat="42.6635183" lon="-8.6158317"><ele>260.5</ele><time>2026-04-17T13:10:49.914Z</time></trkpt><trkpt lat="42.6635267" lon="-8.6157433"><ele>260.6666666666667</ele><time>2026-04-17T13:10:50.914Z</time></trkpt><trkpt lat="42.663555" lon="-8.615665"><ele>260.8333333333333</ele><time>2026-04-17T13:10:51.914Z</time></trkpt><trkpt lat="42.6636" lon="-8.6155767"><ele>261.0</ele><time>2026-04-17T13:10:52.915Z</time></trkpt><trkpt lat="42.6636617" lon="-8.615465"><ele>261.0</ele><time>2026-04-17T13:10:53.915Z</time></trkpt><trkpt lat="42.66375" lon="-8.615305"><ele>261.0</ele><time>2026-04-17T13:10:54.914Z</time></trkpt><trkpt lat="42.663845" lon="-8.6150933"><ele>261.0</ele><time>2026-04-17T13:10:55.914Z</time></trkpt><trkpt lat="42.6639583" lon="-8.61484"><ele>261.0</ele><time>2026-04-17T13:10:56.915Z</time></trkpt><trkpt lat="42.6640767" lon="-8.6145667"><ele>261.0</ele><time>2026-04-17T13:10:57.915Z</time></trkpt><trkpt lat="42.6642033" lon="-8.6142833"><ele>260.5</ele><time>2026-04-17T13:10:58.914Z</time></trkpt><trkpt lat="42.66433" lon="-8.6139967"><ele>260.0</ele><time>2026-04-17T13:10:59.915Z</time></trkpt><trkpt lat="42.6644683" lon="-8.6136983"><ele>264.0</ele><time>2026-04-17T13:11:00.915Z</time></trkpt><trkpt lat="42.6646017" lon="-8.613395"><ele>268.0</ele><time>2026-04-17T13:11:01.915Z</time></trkpt><trkpt lat="42.66473" lon="-8.6131017"><ele>268.0</ele><time>2026-04-17T13:11:02.915Z</time></trkpt><trkpt lat="42.6648517" lon="-8.6128383"><ele>268.0</ele><time>2026-04-17T13:11:03.915Z</time></trkpt><trkpt lat="42.6649717" lon="-8.6125933"><ele>268.0</ele><time>2026-04-17T13:11:04.915Z</time></trkpt><trkpt lat="42.6650933" lon="-8.61236"><ele>268.0</ele><time>2026-04-17T13:11:05.914Z</time></trkpt><trkpt lat="42.6652183" lon="-8.612165"><ele>268.0</ele><time>2026-04-17T13:11:06.914Z</time></trkpt><trkpt lat="42.6653417" lon="-8.6120083"><ele>268.0</ele><time>2026-04-17T13:11:07.915Z</time></trkpt><trkpt lat="42.6654733" lon="-8.611885"><ele>269.0</ele><time>2026-04-17T13:11:08.914Z</time></trkpt><trkpt lat="42.6656067" lon="-8.6117983"><ele>270.0</ele><time>2026-04-17T13:11:09.915Z</time></trkpt><trkpt lat="42.6657367" lon="-8.6117617"><ele>271.0</ele><time>2026-04-17T13:11:10.915Z</time></trkpt><trkpt lat="42.6658617" lon="-8.6117833"><ele>272.0</ele><time>2026-04-17T13:11:11.914Z</time></trkpt><trkpt lat="42.6659933" lon="-8.6118567"><ele>273.33333333333337</ele><time>2026-04-17T13:11:12.914Z</time></trkpt><trkpt lat="42.6661233" lon="-8.61194"><ele>274.6666666666667</ele><time>2026-04-17T13:11:13.915Z</time></trkpt><trkpt lat="42.6662633" lon="-8.612025"><ele>276.0</ele><time>2026-04-17T13:11:14.915Z</time></trkpt><trkpt lat="42.6664083" lon="-8.612095"><ele>276.0</ele><time>2026-04-17T13:11:15.914Z</time></trkpt><trkpt lat="42.6665467" lon="-8.61214"><ele>276.0</ele><time>2026-04-17T13:11:16.915Z</time></trkpt><trkpt lat="42.666665" lon="-8.612155"><ele>276.0</ele><time>2026-04-17T13:11:17.914Z</time></trkpt><trkpt lat="42.66676" lon="-8.6121517"><ele>276.0</ele><time>2026-04-17T13:11:18.914Z</time></trkpt><trkpt lat="42.6668317" lon="-8.6121033"><ele>276.0</ele><time>2026-04-17T13:11:19.914Z</time></trkpt><trkpt lat="42.6669067" lon="-8.6120167"><ele>274.0</ele><time>2026-04-17T13:11:20.914Z</time></trkpt><trkpt lat="42.6669833" lon="-8.61191"><ele>272.0</ele><time>2026-04-17T13:11:21.914Z</time></trkpt><trkpt lat="42.66707" lon="-8.6117467"><ele>270.0</ele><time>2026-04-17T13:11:22.914Z</time></trkpt><trkpt lat="42.6671717" lon="-8.6115617"><ele>268.0</ele><time>2026-04-17T13:11:23.914Z</time></trkpt><trkpt lat="42.6672833" lon="-8.61137"><ele>269.3333333333333</ele><time>2026-04-17T13:11:24.914Z</time></trkpt><trkpt lat="42.66742" lon="-8.611125"><ele>270.6666666666667</ele><time>2026-04-17T13:11:25.914Z</time></trkpt><trkpt lat="42.6675467" lon="-8.6109417"><ele>272.0</ele><time>2026-04-17T13:11:26.914Z</time></trkpt><trkpt lat="42.66768" lon="-8.6107933"><ele>271.0</ele><time>2026-04-17T13:11:27.915Z</time></trkpt><trkpt lat="42.6678333" lon="-8.610665"><ele>270.0</ele><time>2026-04-17T13:11:28.915Z</time></trkpt><trkpt lat="42.6680133" lon="-8.6105583"><ele>269.0</ele><time>2026-04-17T13:11:29.914Z</time></trkpt><trkpt lat="42.6681933" lon="-8.6104583"><ele>269.0</ele><time>2026-04-17T13:11:30.914Z</time></trkpt><trkpt lat="42.6683467" lon="-8.6103733"><ele>269.0</ele><time>2026-04-17T13:11:31.915Z</time></trkpt><trkpt lat="42.6684617" lon="-8.6102867"><ele>269.0</ele><time>2026-04-17T13:11:32.915Z</time></trkpt><trkpt lat="42.668545" lon="-8.6102033"><ele>269.0</ele><time>2026-04-17T13:11:33.915Z</time></trkpt><trkpt lat="42.6686117" lon="-8.6101033"><ele>270.25</ele><time>2026-04-17T13:11:34.915Z</time></trkpt><trkpt lat="42.66866" lon="-8.6099633"><ele>271.5</ele><time>2026-04-17T13:11:35.914Z</time></trkpt><trkpt lat="42.66869" lon="-8.6097783"><ele>272.75</ele><time>2026-04-17T13:11:36.914Z</time></trkpt><trkpt lat="42.6687133" lon="-8.60955"><ele>274.0</ele><time>2026-04-17T13:11:37.915Z</time></trkpt><trkpt lat="42.6687333" lon="-8.6093217"><ele>274.75</ele><time>2026-04-17T13:11:38.915Z</time></trkpt><trkpt lat="42.6687733" lon="-8.60912"><ele>275.5</ele><time>2026-04-17T13:11:39.915Z</time></trkpt><trkpt lat="42.66881" lon="-8.6089467"><ele>276.25</ele><time>2026-04-17T13:11:40.915Z</time></trkpt><trkpt lat="42.6688517" lon="-8.6087917"><ele>277.0</ele><time>2026-04-17T13:11:41.914Z</time></trkpt><trkpt lat="42.6688833" lon="-8.60869"><ele>277.0</ele><time>2026-04-17T13:11:42.914Z</time></trkpt><trkpt lat="42.6689133" lon="-8.6086133"><ele>277.0</ele><time>2026-04-17T13:11:43.915Z</time></trkpt><trkpt lat="42.6689967" lon="-8.6086517"><ele>277.0</ele><time>2026-04-17T13:11:47.915Z</time></trkpt><trkpt lat="42.66908" lon="-8.6086733"><ele>277.0</ele><time>2026-04-17T13:11:50.914Z</time></trkpt><trkpt lat="42.6691683" lon="-8.6087383"><ele>277.0</ele><time>2026-04-17T13:11:52.914Z</time></trkpt><trkpt lat="42.66924" lon="-8.60881"><ele>277.0</ele><time>2026-04-17T13:11:53.914Z</time></trkpt><trkpt lat="42.6693133" lon="-8.6088333"><ele>277.0</ele><time>2026-04-17T13:11:54.914Z</time></trkpt><trkpt lat="42.6693867" lon="-8.6088667"><ele>277.0</ele><time>2026-04-17T13:11:55.914Z</time></trkpt><trkpt lat="42.669465" lon="-8.60892"><ele>277.0</ele><time>2026-04-17T13:11:56.915Z</time></trkpt><trkpt lat="42.669535" lon="-8.608965"><ele>277.0</ele><time>2026-04-17T13:11:57.915Z</time></trkpt><trkpt lat="42.66995" lon="-8.6095483"><ele>278.0</ele><time>2026-04-17T13:11:58.915Z</time></trkpt><trkpt lat="42.6701283" lon="-8.6095867"><ele>279.0</ele><time>2026-04-17T13:11:59.915Z</time></trkpt><trkpt lat="42.6702283" lon="-8.6095183"><ele>280.0</ele><time>2026-04-17T13:12:00.915Z</time></trkpt><trkpt lat="42.6703283" lon="-8.60945"><ele>281.0</ele><time>2026-04-17T13:12:01.915Z</time></trkpt><trkpt lat="42.6704283" lon="-8.6093833"><ele>281.0</ele><time>2026-04-17T13:12:02.915Z</time></trkpt><trkpt lat="42.6705133" lon="-8.6092467"><ele>281.0</ele><time>2026-04-17T13:12:03.914Z</time></trkpt><trkpt lat="42.6705533" lon="-8.60908"><ele>281.0</ele><time>2026-04-17T13:12:04.915Z</time></trkpt><trkpt lat="42.6704933" lon="-8.60873"><ele>284.0</ele><time>2026-04-17T13:12:05.914Z</time></trkpt><trkpt lat="42.670545" lon="-8.608565"><ele>287.0</ele><time>2026-04-17T13:12:06.915Z</time></trkpt><trkpt lat="42.6706367" lon="-8.608285"><ele>290.0</ele><time>2026-04-17T13:12:07.914Z</time></trkpt><trkpt lat="42.6707533" lon="-8.608125"><ele>290.0</ele><time>2026-04-17T13:12:08.914Z</time></trkpt><trkpt lat="42.6708783" lon="-8.6079917"><ele>290.0</ele><time>2026-04-17T13:12:09.914Z</time></trkpt><trkpt lat="42.6709917" lon="-8.6078667"><ele>290.0</ele><time>2026-04-17T13:12:10.915Z</time></trkpt><trkpt lat="42.671095" lon="-8.6077267"><ele>296.6666666666667</ele><time>2026-04-17T13:12:11.914Z</time></trkpt><trkpt lat="42.6711883" lon="-8.6075617"><ele>303.3333333333333</ele><time>2026-04-17T13:12:12.914Z</time></trkpt><trkpt lat="42.6712767" lon="-8.6073717"><ele>310.0</ele><time>2026-04-17T13:12:13.914Z</time></trkpt><trkpt lat="42.6713783" lon="-8.607175"><ele>309.3333333333333</ele><time>2026-04-17T13:12:14.915Z</time></trkpt><trkpt lat="42.6715083" lon="-8.606965"><ele>308.6666666666667</ele><time>2026-04-17T13:12:15.914Z</time></trkpt><trkpt lat="42.671625" lon="-8.6067617"><ele>308.0</ele><time>2026-04-17T13:12:16.915Z</time></trkpt><trkpt lat="42.6717267" lon="-8.6065633"><ele>308.0</ele><time>2026-04-17T13:12:17.915Z</time></trkpt><trkpt lat="42.6717933" lon="-8.6063433"><ele>308.0</ele><time>2026-04-17T13:12:18.914Z</time></trkpt><trkpt lat="42.6718417" lon="-8.6061017"><ele>308.0</ele><time>2026-04-17T13:12:19.915Z</time></trkpt><trkpt lat="42.6719017" lon="-8.60586"><ele>313.33333333333337</ele><time>2026-04-17T13:12:20.914Z</time></trkpt><trkpt lat="42.6719717" lon="-8.605625"><ele>318.6666666666667</ele><time>2026-04-17T13:12:21.915Z</time></trkpt><trkpt lat="42.6720417" lon="-8.60542"><ele>324.0</ele><time>2026-04-17T13:12:22.914Z</time></trkpt><trkpt lat="42.6721183" lon="-8.6052533"><ele>324.0</ele><time>2026-04-17T13:12:23.915Z</time></trkpt><trkpt lat="42.67221" lon="-8.605135"><ele>324.0</ele><time>2026-04-17T13:12:24.915Z</time></trkpt><trkpt lat="42.6722967" lon="-8.60503"><ele>324.0</ele><time>2026-04-17T13:12:25.914Z</time></trkpt><trkpt lat="42.67239" lon="-8.6049867"><ele>324.0</ele><time>2026-04-17T13:12:26.915Z</time></trkpt><trkpt lat="42.67246" lon="-8.6049933"><ele>324.0</ele><time>2026-04-17T13:12:27.915Z</time></trkpt><trkpt lat="42.6725467" lon="-8.6049817"><ele>324.0</ele><time>2026-04-17T13:12:29.914Z</time></trkpt><trkpt lat="42.6725917" lon="-8.6049033"><ele>324.0</ele><time>2026-04-17T13:12:31.914Z</time></trkpt><trkpt lat="42.6725917" lon="-8.604805"><ele>324.0</ele><time>2026-04-17T13:12:32.914Z</time></trkpt><trkpt lat="42.6725833" lon="-8.6047067"><ele>324.0</ele><time>2026-04-17T13:12:33.914Z</time></trkpt><trkpt lat="42.6725733" lon="-8.6045883"><ele>324.0</ele><time>2026-04-17T13:12:34.914Z</time></trkpt><trkpt lat="42.67255" lon="-8.60446"><ele>324.0</ele><time>2026-04-17T13:12:35.914Z</time></trkpt><trkpt lat="42.6724967" lon="-8.6043017"><ele>330.5</ele><time>2026-04-17T13:12:36.914Z</time></trkpt><trkpt lat="42.6722633" lon="-8.6039717"><ele>337.0</ele><time>2026-04-17T13:12:37.914Z</time></trkpt><trkpt lat="42.672135" lon="-8.6036767"><ele>343.5</ele><time>2026-04-17T13:12:38.915Z</time></trkpt><trkpt lat="42.672045" lon="-8.6033933"><ele>350.0</ele><time>2026-04-17T13:12:39.915Z</time></trkpt><trkpt lat="42.671965" lon="-8.6030633"><ele>345.33333333333337</ele><time>2026-04-17T13:12:40.915Z</time></trkpt><trkpt lat="42.6718933" lon="-8.6027833"><ele>340.6666666666667</ele><time>2026-04-17T13:12:41.914Z</time></trkpt><trkpt lat="42.6718117" lon="-8.6025367"><ele>336.0</ele><time>2026-04-17T13:12:42.914Z</time></trkpt><trkpt lat="42.6717067" lon="-8.6023067"><ele>336.0</ele><time>2026-04-17T13:12:43.914Z</time></trkpt><trkpt lat="42.6715667" lon="-8.6020833"><ele>336.0</ele><time>2026-04-17T13:12:44.915Z</time></trkpt><trkpt lat="42.6714183" lon="-8.6018567"><ele>336.0</ele><time>2026-04-17T13:12:45.914Z</time></trkpt><trkpt lat="42.6712633" lon="-8.601625"><ele>335.6666666666667</ele><time>2026-04-17T13:12:46.914Z</time></trkpt><trkpt lat="42.6711183" lon="-8.6014033"><ele>335.33333333333337</ele><time>2026-04-17T13:12:47.915Z</time></trkpt><trkpt lat="42.6709767" lon="-8.601205"><ele>335.0</ele><time>2026-04-17T13:12:48.914Z</time></trkpt><trkpt lat="42.670845" lon="-8.6010267"><ele>339.33333333333337</ele><time>2026-04-17T13:12:49.915Z</time></trkpt><trkpt lat="42.6707167" lon="-8.6008533"><ele>343.6666666666667</ele><time>2026-04-17T13:12:50.915Z</time></trkpt><trkpt lat="42.6706083" lon="-8.600645"><ele>348.0</ele><time>2026-04-17T13:12:51.914Z</time></trkpt><trkpt lat="42.6705233" lon="-8.6004"><ele>350.3333333333333</ele><time>2026-04-17T13:12:52.914Z</time></trkpt><trkpt lat="42.670455" lon="-8.600145"><ele>352.66666666666663</ele><time>2026-04-17T13:12:53.914Z</time></trkpt><trkpt lat="42.6704033" lon="-8.599895"><ele>355.0</ele><time>2026-04-17T13:12:54.914Z</time></trkpt><trkpt lat="42.6703483" lon="-8.599655"><ele>351.3333333333333</ele><time>2026-04-17T13:12:55.915Z</time></trkpt><trkpt lat="42.67029" lon="-8.5994267"><ele>347.6666666666667</ele><time>2026-04-17T13:12:56.915Z</time></trkpt><trkpt lat="42.6702083" lon="-8.5992183"><ele>344.0</ele><time>2026-04-17T13:12:57.914Z</time></trkpt><trkpt lat="42.6701117" lon="-8.5990167"><ele>344.0</ele><time>2026-04-17T13:12:58.914Z</time></trkpt><trkpt lat="42.669995" lon="-8.5988317"><ele>344.0</ele><time>2026-04-17T13:12:59.914Z</time></trkpt><trkpt lat="42.6698667" lon="-8.5986717"><ele>344.0</ele><time>2026-04-17T13:13:00.915Z</time></trkpt><trkpt lat="42.6697317" lon="-8.5985233"><ele>345.33333333333337</ele><time>2026-04-17T13:13:01.914Z</time></trkpt><trkpt lat="42.669605" lon="-8.59837"><ele>346.6666666666667</ele><time>2026-04-17T13:13:02.914Z</time></trkpt><trkpt lat="42.6694883" lon="-8.59822"><ele>348.0</ele><time>2026-04-17T13:13:03.914Z</time></trkpt><trkpt lat="42.6693967" lon="-8.5980633"><ele>348.0</ele><time>2026-04-17T13:13:04.915Z</time></trkpt><trkpt lat="42.6693267" lon="-8.5978967"><ele>348.0</ele><time>2026-04-17T13:13:05.914Z</time></trkpt><trkpt lat="42.6692717" lon="-8.59771"><ele>348.0</ele><time>2026-04-17T13:13:06.915Z</time></trkpt><trkpt lat="42.669235" lon="-8.5975083"><ele>348.0</ele><time>2026-04-17T13:13:07.914Z</time></trkpt><trkpt lat="42.6692067" lon="-8.5972917"><ele>351.0</ele><time>2026-04-17T13:13:08.914Z</time></trkpt><trkpt lat="42.6691967" lon="-8.59707"><ele>354.0</ele><time>2026-04-17T13:13:09.915Z</time></trkpt><trkpt lat="42.669185" lon="-8.5968367"><ele>357.0</ele><time>2026-04-17T13:13:10.915Z</time></trkpt><trkpt lat="42.66918" lon="-8.5965967"><ele>358.3333333333333</ele><time>2026-04-17T13:13:11.914Z</time></trkpt><trkpt lat="42.669175" lon="-8.5963467"><ele>359.66666666666663</ele><time>2026-04-17T13:13:12.915Z</time></trkpt><trkpt lat="42.6691817" lon="-8.596095"><ele>361.0</ele><time>2026-04-17T13:13:13.914Z</time></trkpt><trkpt lat="42.6691883" lon="-8.5958617"><ele>362.66666666666663</ele><time>2026-04-17T13:13:14.914Z</time></trkpt><trkpt lat="42.6692" lon="-8.595635"><ele>364.3333333333333</ele><time>2026-04-17T13:13:15.914Z</time></trkpt><trkpt lat="42.6692017" lon="-8.595415"><ele>366.0</ele><time>2026-04-17T13:13:16.914Z</time></trkpt><trkpt lat="42.669195" lon="-8.5952183"><ele>368.25</ele><time>2026-04-17T13:13:17.914Z</time></trkpt><trkpt lat="42.6691733" lon="-8.5950467"><ele>370.5</ele><time>2026-04-17T13:13:18.914Z</time></trkpt><trkpt lat="42.6691367" lon="-8.5948917"><ele>372.75</ele><time>2026-04-17T13:13:19.914Z</time></trkpt><trkpt lat="42.669125" lon="-8.59475"><ele>375.0</ele><time>2026-04-17T13:13:20.915Z</time></trkpt><trkpt lat="42.6690483" lon="-8.5946317"><ele>375.0</ele><time>2026-04-17T13:13:21.914Z</time></trkpt><trkpt lat="42.6689467" lon="-8.59452"><ele>375.0</ele><time>2026-04-17T13:13:22.914Z</time></trkpt><trkpt lat="42.6688517" lon="-8.5944033"><ele>375.0</ele><time>2026-04-17T13:13:23.915Z</time></trkpt><trkpt lat="42.6687933" lon="-8.594255"><ele>375.0</ele><time>2026-04-17T13:13:24.914Z</time></trkpt><trkpt lat="42.6687583" lon="-8.5940883"><ele>378.66666666666663</ele><time>2026-04-17T13:13:25.914Z</time></trkpt><trkpt lat="42.6687783" lon="-8.593875"><ele>382.3333333333333</ele><time>2026-04-17T13:13:26.914Z</time></trkpt><trkpt lat="42.6688217" lon="-8.5936633"><ele>386.0</ele><time>2026-04-17T13:13:27.915Z</time></trkpt><trkpt lat="42.6688867" lon="-8.593455"><ele>388.3333333333333</ele><time>2026-04-17T13:13:28.914Z</time></trkpt><trkpt lat="42.6689583" lon="-8.5932567"><ele>390.66666666666663</ele><time>2026-04-17T13:13:29.914Z</time></trkpt><trkpt lat="42.66902" lon="-8.5930517"><ele>393.0</ele><time>2026-04-17T13:13:30.915Z</time></trkpt><trkpt lat="42.66906" lon="-8.5928483"><ele>394.25</ele><time>2026-04-17T13:13:31.914Z</time></trkpt><trkpt lat="42.6690767" lon="-8.592655"><ele>395.5</ele><time>2026-04-17T13:13:32.915Z</time></trkpt><trkpt lat="42.66907" lon="-8.5924583"><ele>396.75</ele><time>2026-04-17T13:13:33.915Z</time></trkpt><trkpt lat="42.6690517" lon="-8.5922933"><ele>398.0</ele><time>2026-04-17T13:13:34.915Z</time></trkpt><trkpt lat="42.66903" lon="-8.5921667"><ele>398.0</ele><time>2026-04-17T13:13:35.915Z</time></trkpt><trkpt lat="42.6690067" lon="-8.5920283"><ele>398.0</ele><time>2026-04-17T13:13:36.915Z</time></trkpt><trkpt lat="42.6689817" lon="-8.59188"><ele>398.0</ele><time>2026-04-17T13:13:37.915Z</time></trkpt><trkpt lat="42.6689517" lon="-8.591685"><ele>398.0</ele><time>2026-04-17T13:13:38.914Z</time></trkpt><trkpt lat="42.6689167" lon="-8.59147"><ele>400.3333333333333</ele><time>2026-04-17T13:13:39.914Z</time></trkpt><trkpt lat="42.6688783" lon="-8.5912217"><ele>402.66666666666663</ele><time>2026-04-17T13:13:40.914Z</time></trkpt><trkpt lat="42.6688367" lon="-8.5909417"><ele>405.0</ele><time>2026-04-17T13:13:41.914Z</time></trkpt><trkpt lat="42.668795" lon="-8.5906283"><ele>415.0</ele><time>2026-04-17T13:13:42.914Z</time></trkpt><trkpt lat="42.668755" lon="-8.5903033"><ele>425.0</ele><time>2026-04-17T13:13:43.914Z</time></trkpt><trkpt lat="42.6687117" lon="-8.5899733"><ele>425.0</ele><time>2026-04-17T13:13:44.915Z</time></trkpt><trkpt lat="42.66867" lon="-8.5896883"><ele>425.0</ele><time>2026-04-17T13:13:45.914Z</time></trkpt><trkpt lat="42.6686333" lon="-8.58945"><ele>425.0</ele><time>2026-04-17T13:13:46.915Z</time></trkpt><trkpt lat="42.668595" lon="-8.5892633"><ele>423.8</ele><time>2026-04-17T13:13:47.914Z</time></trkpt><trkpt lat="42.6685533" lon="-8.5891183"><ele>422.6</ele><time>2026-04-17T13:13:48.914Z</time></trkpt><trkpt lat="42.6685133" lon="-8.5890367"><ele>421.4</ele><time>2026-04-17T13:13:49.915Z</time></trkpt><trkpt lat="42.6683817" lon="-8.5890283"><ele>420.2</ele><time>2026-04-17T13:13:51.915Z</time></trkpt><trkpt lat="42.6682817" lon="-8.5890617"><ele>419.0</ele><time>2026-04-17T13:13:52.915Z</time></trkpt><trkpt lat="42.6681633" lon="-8.5890817"><ele>419.0</ele><time>2026-04-17T13:13:53.914Z</time></trkpt><trkpt lat="42.6680333" lon="-8.5890883"><ele>419.0</ele><time>2026-04-17T13:13:54.914Z</time></trkpt><trkpt lat="42.6679383" lon="-8.5890633"><ele>419.0</ele><time>2026-04-17T13:13:55.915Z</time></trkpt><trkpt lat="42.66784" lon="-8.5890133"><ele>419.0</ele><time>2026-04-17T13:13:56.915Z</time></trkpt><trkpt lat="42.667765" lon="-8.588935"><ele>419.0</ele><time>2026-04-17T13:13:57.915Z</time></trkpt><trkpt lat="42.66769" lon="-8.5888367"><ele>416.25</ele><time>2026-04-17T13:13:58.915Z</time></trkpt><trkpt lat="42.6676083" lon="-8.5887183"><ele>413.5</ele><time>2026-04-17T13:13:59.914Z</time></trkpt><trkpt lat="42.6675167" lon="-8.5886017"><ele>410.75</ele><time>2026-04-17T13:14:00.914Z</time></trkpt><trkpt lat="42.667405" lon="-8.5884917"><ele>408.0</ele><time>2026-04-17T13:14:01.914Z</time></trkpt><trkpt lat="42.6672783" lon="-8.58839"><ele>412.66666666666663</ele><time>2026-04-17T13:14:02.915Z</time></trkpt><trkpt lat="42.6671283" lon="-8.5883283"><ele>417.3333333333333</ele><time>2026-04-17T13:14:03.915Z</time></trkpt><trkpt lat="42.66696" lon="-8.5882783"><ele>422.0</ele><time>2026-04-17T13:14:04.914Z</time></trkpt><trkpt lat="42.6667933" lon="-8.5882083"><ele>422.0</ele><time>2026-04-17T13:14:05.915Z</time></trkpt><trkpt lat="42.6666283" lon="-8.5881083"><ele>422.0</ele><time>2026-04-17T13:14:06.914Z</time></trkpt><trkpt lat="42.6664767" lon="-8.587985"><ele>422.0</ele><time>2026-04-17T13:14:07.914Z</time></trkpt><trkpt lat="42.6663383" lon="-8.5878367"><ele>429.3333333333333</ele><time>2026-04-17T13:14:08.914Z</time></trkpt><trkpt lat="42.6662083" lon="-8.5876583"><ele>436.66666666666663</ele><time>2026-04-17T13:14:09.915Z</time></trkpt><trkpt lat="42.6660783" lon="-8.5874483"><ele>444.0</ele><time>2026-04-17T13:14:10.914Z</time></trkpt><trkpt lat="42.6659533" lon="-8.5872133"><ele>449.66666666666663</ele><time>2026-04-17T13:14:11.915Z</time></trkpt><trkpt lat="42.6658267" lon="-8.5869717"><ele>455.3333333333333</ele><time>2026-04-17T13:14:12.915Z</time></trkpt><trkpt lat="42.6656883" lon="-8.5867333"><ele>461.0</ele><time>2026-04-17T13:14:13.914Z</time></trkpt><trkpt lat="42.6655433" lon="-8.586505"><ele>461.0</ele><time>2026-04-17T13:14:14.915Z</time></trkpt><trkpt lat="42.66541" lon="-8.58629"><ele>461.0</ele><time>2026-04-17T13:14:15.915Z</time></trkpt><trkpt lat="42.6653" lon="-8.5860983"><ele>461.0</ele><time>2026-04-17T13:14:16.914Z</time></trkpt><trkpt lat="42.6652317" lon="-8.5859233"><ele>459.5</ele><time>2026-04-17T13:14:17.914Z</time></trkpt><trkpt lat="42.6651983" lon="-8.585745"><ele>458.0</ele><time>2026-04-17T13:14:18.915Z</time></trkpt><trkpt lat="42.6651967" lon="-8.5855517"><ele>456.5</ele><time>2026-04-17T13:14:19.914Z</time></trkpt><trkpt lat="42.665215" lon="-8.5853333"><ele>455.0</ele><time>2026-04-17T13:14:20.914Z</time></trkpt><trkpt lat="42.6652483" lon="-8.5850917"><ele>462.3333333333333</ele><time>2026-04-17T13:14:21.914Z</time></trkpt><trkpt lat="42.665285" lon="-8.5848217"><ele>469.66666666666663</ele><time>2026-04-17T13:14:22.915Z</time></trkpt><trkpt lat="42.6653333" lon="-8.58454"><ele>477.0</ele><time>2026-04-17T13:14:23.915Z</time></trkpt><trkpt lat="42.6653933" lon="-8.5842633"><ele>477.0</ele><time>2026-04-17T13:14:24.915Z</time></trkpt><trkpt lat="42.665455" lon="-8.5839983"><ele>477.0</ele><time>2026-04-17T13:14:25.914Z</time></trkpt><trkpt lat="42.6654983" lon="-8.5837633"><ele>477.0</ele><time>2026-04-17T13:14:26.915Z</time></trkpt><trkpt lat="42.66552" lon="-8.5835517"><ele>476.25</ele><time>2026-04-17T13:14:27.915Z</time></trkpt><trkpt lat="42.6655183" lon="-8.5833467"><ele>475.5</ele><time>2026-04-17T13:14:28.914Z</time></trkpt><trkpt lat="42.665495" lon="-8.5831483"><ele>474.75</ele><time>2026-04-17T13:14:29.915Z</time></trkpt><trkpt lat="42.6654533" lon="-8.5829717"><ele>474.0</ele><time>2026-04-17T13:14:30.915Z</time></trkpt><trkpt lat="42.66542" lon="-8.5828167"><ele>473.0</ele><time>2026-04-17T13:14:31.915Z</time></trkpt><trkpt lat="42.6654067" lon="-8.5826817"><ele>472.0</ele><time>2026-04-17T13:14:32.915Z</time></trkpt><trkpt lat="42.6654317" lon="-8.5825833"><ele>471.0</ele><time>2026-04-17T13:14:33.914Z</time></trkpt><trkpt lat="42.6654867" lon="-8.582515"><ele>470.0</ele><time>2026-04-17T13:14:34.915Z</time></trkpt><trkpt lat="42.6655617" lon="-8.5824717"><ele>469.0</ele><time>2026-04-17T13:14:35.914Z</time></trkpt><trkpt lat="42.6656817" lon="-8.5824367"><ele>469.0</ele><time>2026-04-17T13:14:36.915Z</time></trkpt><trkpt lat="42.6658517" lon="-8.5824167"><ele>469.0</ele><time>2026-04-17T13:14:37.914Z</time></trkpt><trkpt lat="42.66601" lon="-8.5823917"><ele>469.0</ele><time>2026-04-17T13:14:38.914Z</time></trkpt><trkpt lat="42.6661667" lon="-8.5823933"><ele>471.5</ele><time>2026-04-17T13:14:39.914Z</time></trkpt><trkpt lat="42.66631" lon="-8.5824133"><ele>474.0</ele><time>2026-04-17T13:14:40.914Z</time></trkpt><trkpt lat="42.66643" lon="-8.5824317"><ele>476.5</ele><time>2026-04-17T13:14:41.914Z</time></trkpt><trkpt lat="42.666535" lon="-8.582425"><ele>479.0</ele><time>2026-04-17T13:14:42.914Z</time></trkpt><trkpt lat="42.666645" lon="-8.5823767"><ele>479.0</ele><time>2026-04-17T13:14:43.915Z</time></trkpt><trkpt lat="42.6667717" lon="-8.58229"><ele>479.0</ele><time>2026-04-17T13:14:44.914Z</time></trkpt><trkpt lat="42.6669183" lon="-8.5821733"><ele>479.0</ele><time>2026-04-17T13:14:45.915Z</time></trkpt><trkpt lat="42.6670767" lon="-8.5820417"><ele>476.0</ele><time>2026-04-17T13:14:46.914Z</time></trkpt><trkpt lat="42.66725" lon="-8.5818967"><ele>473.0</ele><time>2026-04-17T13:14:47.915Z</time></trkpt><trkpt lat="42.6674233" lon="-8.581755"><ele>470.0</ele><time>2026-04-17T13:14:48.914Z</time></trkpt><trkpt lat="42.6675733" lon="-8.5816433"><ele>470.0</ele><time>2026-04-17T13:14:49.914Z</time></trkpt><trkpt lat="42.6677183" lon="-8.58156"><ele>470.0</ele><time>2026-04-17T13:14:50.914Z</time></trkpt><trkpt lat="42.6678617" lon="-8.5815033"><ele>470.0</ele><time>2026-04-17T13:14:51.915Z</time></trkpt><trkpt lat="42.6680233" lon="-8.5814767"><ele>474.3333333333333</ele><time>2026-04-17T13:14:52.915Z</time></trkpt><trkpt lat="42.6682" lon="-8.58147"><ele>478.66666666666663</ele><time>2026-04-17T13:14:53.915Z</time></trkpt><trkpt lat="42.6683833" lon="-8.5814617"><ele>483.0</ele><time>2026-04-17T13:14:54.915Z</time></trkpt><trkpt lat="42.6685617" lon="-8.5814283"><ele>481.25</ele><time>2026-04-17T13:14:55.914Z</time></trkpt><trkpt lat="42.6687117" lon="-8.5813767"><ele>479.5</ele><time>2026-04-17T13:14:56.914Z</time></trkpt><trkpt lat="42.668835" lon="-8.5813183"><ele>477.75</ele><time>2026-04-17T13:14:57.915Z</time></trkpt><trkpt lat="42.6689433" lon="-8.5812283"><ele>476.0</ele><time>2026-04-17T13:14:58.914Z</time></trkpt><trkpt lat="42.6690517" lon="-8.5811233"><ele>476.0</ele><time>2026-04-17T13:14:59.915Z</time></trkpt><trkpt lat="42.66918" lon="-8.5810233"><ele>476.0</ele><time>2026-04-17T13:15:00.914Z</time></trkpt><trkpt lat="42.6693267" lon="-8.5809333"><ele>476.0</ele><time>2026-04-17T13:15:01.914Z</time></trkpt><trkpt lat="42.66949" lon="-8.58085"><ele>481.66666666666663</ele><time>2026-04-17T13:15:02.914Z</time></trkpt><trkpt lat="42.6696567" lon="-8.58078"><ele>487.33333333333337</ele><time>2026-04-17T13:15:03.915Z</time></trkpt><trkpt lat="42.66982" lon="-8.5807067"><ele>493.0</ele><time>2026-04-17T13:15:04.914Z</time></trkpt><trkpt lat="42.6699917" lon="-8.5806317"><ele>493.0</ele><time>2026-04-17T13:15:05.914Z</time></trkpt><trkpt lat="42.6701683" lon="-8.580565"><ele>493.0</ele><time>2026-04-17T13:15:06.915Z</time></trkpt><trkpt lat="42.6703467" lon="-8.580505"><ele>493.0</ele><time>2026-04-17T13:15:07.914Z</time></trkpt><trkpt lat="42.6705183" lon="-8.5804517"><ele>495.5</ele><time>2026-04-17T13:15:08.915Z</time></trkpt><trkpt lat="42.6706633" lon="-8.5804"><ele>498.0</ele><time>2026-04-17T13:15:09.914Z</time></trkpt><trkpt lat="42.6707833" lon="-8.5803533"><ele>500.5</ele><time>2026-04-17T13:15:10.914Z</time></trkpt><trkpt lat="42.67089" lon="-8.580295"><ele>503.0</ele><time>2026-04-17T13:15:11.914Z</time></trkpt><trkpt lat="42.6709883" lon="-8.58022"><ele>500.0</ele><time>2026-04-17T13:15:12.915Z</time></trkpt><trkpt lat="42.67109" lon="-8.5801417"><ele>497.0</ele><time>2026-04-17T13:15:13.915Z</time></trkpt><trkpt lat="42.6712067" lon="-8.5800683"><ele>494.0</ele><time>2026-04-17T13:15:14.914Z</time></trkpt><trkpt lat="42.6713367" lon="-8.5799867"><ele>491.0</ele><time>2026-04-17T13:15:15.915Z</time></trkpt><trkpt lat="42.6714717" lon="-8.5799"><ele>491.0</ele><time>2026-04-17T13:15:16.915Z</time></trkpt><trkpt lat="42.67161" lon="-8.57982"><ele>491.0</ele><time>2026-04-17T13:15:17.915Z</time></trkpt><trkpt lat="42.6717567" lon="-8.5797517"><ele>491.0</ele><time>2026-04-17T13:15:18.915Z</time></trkpt><trkpt lat="42.6719167" lon="-8.5796933"><ele>494.0</ele><time>2026-04-17T13:15:19.915Z</time></trkpt><trkpt lat="42.672075" lon="-8.5796483"><ele>497.0</ele><time>2026-04-17T13:15:20.914Z</time></trkpt><trkpt lat="42.6722217" lon="-8.5796233"><ele>500.0</ele><time>2026-04-17T13:15:21.915Z</time></trkpt><trkpt lat="42.67236" lon="-8.579625"><ele>503.0</ele><time>2026-04-17T13:15:22.914Z</time></trkpt><trkpt lat="42.672505" lon="-8.5796567"><ele>503.0</ele><time>2026-04-17T13:15:23.915Z</time></trkpt><trkpt lat="42.6726617" lon="-8.57969"><ele>503.0</ele><time>2026-04-17T13:15:24.915Z</time></trkpt><trkpt lat="42.6728283" lon="-8.57972"><ele>503.0</ele><time>2026-04-17T13:15:25.914Z</time></trkpt><trkpt lat="42.6729883" lon="-8.5797333"><ele>502.25</ele><time>2026-04-17T13:15:26.914Z</time></trkpt><trkpt lat="42.673125" lon="-8.5797483"><ele>501.5</ele><time>2026-04-17T13:15:27.915Z</time></trkpt><trkpt lat="42.673245" lon="-8.57977"><ele>500.75</ele><time>2026-04-17T13:15:28.915Z</time></trkpt><trkpt lat="42.67337" lon="-8.5798117"><ele>500.0</ele><time>2026-04-17T13:15:29.915Z</time></trkpt><trkpt lat="42.673495" lon="-8.5798483"><ele>502.5</ele><time>2026-04-17T13:15:30.914Z</time></trkpt><trkpt lat="42.6736217" lon="-8.57985"><ele>505.0</ele><time>2026-04-17T13:15:31.915Z</time></trkpt><trkpt lat="42.6737633" lon="-8.5798233"><ele>507.5</ele><time>2026-04-17T13:15:32.914Z</time></trkpt><trkpt lat="42.6739167" lon="-8.579785"><ele>510.0</ele><time>2026-04-17T13:15:33.914Z</time></trkpt><trkpt lat="42.6740717" lon="-8.579745"><ele>510.0</ele><time>2026-04-17T13:15:34.914Z</time></trkpt><trkpt lat="42.6742233" lon="-8.5796867"><ele>510.0</ele><time>2026-04-17T13:15:35.914Z</time></trkpt><trkpt lat="42.6743633" lon="-8.579595"><ele>510.0</ele><time>2026-04-17T13:15:36.915Z</time></trkpt><trkpt lat="42.6744833" lon="-8.5794833"><ele>509.75</ele><time>2026-04-17T13:15:37.915Z</time></trkpt><trkpt lat="42.67458" lon="-8.5793483"><ele>509.5</ele><time>2026-04-17T13:15:38.915Z</time></trkpt><trkpt lat="42.6746517" lon="-8.5791883"><ele>509.25</ele><time>2026-04-17T13:15:39.914Z</time></trkpt><trkpt lat="42.67471" lon="-8.57901"><ele>509.0</ele><time>2026-04-17T13:15:40.915Z</time></trkpt><trkpt lat="42.6747783" lon="-8.5788267"><ele>502.66666666666663</ele><time>2026-04-17T13:15:41.914Z</time></trkpt><trkpt lat="42.6748683" lon="-8.5786533"><ele>496.33333333333337</ele><time>2026-04-17T13:15:42.914Z</time></trkpt><trkpt lat="42.67499" lon="-8.578495"><ele>490.0</ele><time>2026-04-17T13:15:43.914Z</time></trkpt><trkpt lat="42.675135" lon="-8.5783467"><ele>493.6666666666667</ele><time>2026-04-17T13:15:44.914Z</time></trkpt><trkpt lat="42.675285" lon="-8.5782183"><ele>497.33333333333337</ele><time>2026-04-17T13:15:45.915Z</time></trkpt><trkpt lat="42.6754317" lon="-8.578125"><ele>501.0</ele><time>2026-04-17T13:15:46.914Z</time></trkpt><trkpt lat="42.6755783" lon="-8.5780633"><ele>501.0</ele><time>2026-04-17T13:15:47.915Z</time></trkpt><trkpt lat="42.67573" lon="-8.5780383"><ele>501.0</ele><time>2026-04-17T13:15:48.915Z</time></trkpt><trkpt lat="42.6758717" lon="-8.5780517"><ele>501.0</ele><time>2026-04-17T13:15:49.915Z</time></trkpt><trkpt lat="42.676005" lon="-8.5781067"><ele>501.0</ele><time>2026-04-17T13:15:50.915Z</time></trkpt><trkpt lat="42.67613" lon="-8.5781883"><ele>497.33333333333337</ele><time>2026-04-17T13:15:51.914Z</time></trkpt><trkpt lat="42.6762667" lon="-8.5782983"><ele>493.6666666666667</ele><time>2026-04-17T13:15:52.914Z</time></trkpt><trkpt lat="42.6764033" lon="-8.57842"><ele>490.0</ele><time>2026-04-17T13:15:53.914Z</time></trkpt><trkpt lat="42.6765367" lon="-8.5785267"><ele>490.0</ele><time>2026-04-17T13:15:54.914Z</time></trkpt><trkpt lat="42.6766733" lon="-8.578605"><ele>490.0</ele><time>2026-04-17T13:15:55.915Z</time></trkpt><trkpt lat="42.6768217" lon="-8.5786583"><ele>490.0</ele><time>2026-04-17T13:15:56.915Z</time></trkpt><trkpt lat="42.6769667" lon="-8.5786983"><ele>494.5</ele><time>2026-04-17T13:15:57.914Z</time></trkpt><trkpt lat="42.6770967" lon="-8.5787433"><ele>499.0</ele><time>2026-04-17T13:15:58.915Z</time></trkpt><trkpt lat="42.6772183" lon="-8.5788067"><ele>503.5</ele><time>2026-04-17T13:15:59.915Z</time></trkpt><trkpt lat="42.6773367" lon="-8.5788917"><ele>508.0</ele><time>2026-04-17T13:16:00.915Z</time></trkpt><trkpt lat="42.677465" lon="-8.5789883"><ele>508.0</ele><time>2026-04-17T13:16:01.915Z</time></trkpt><trkpt lat="42.6776083" lon="-8.5790783"><ele>508.0</ele><time>2026-04-17T13:16:02.914Z</time></trkpt><trkpt lat="42.677755" lon="-8.5791633"><ele>508.0</ele><time>2026-04-17T13:16:03.915Z</time></trkpt><trkpt lat="42.6779033" lon="-8.5792533"><ele>503.6666666666667</ele><time>2026-04-17T13:16:04.915Z</time></trkpt><trkpt lat="42.6780567" lon="-8.5793567"><ele>499.33333333333337</ele><time>2026-04-17T13:16:05.915Z</time></trkpt><trkpt lat="42.678205" lon="-8.5794633"><ele>495.0</ele><time>2026-04-17T13:16:06.915Z</time></trkpt><trkpt lat="42.6783467" lon="-8.5795667"><ele>502.0</ele><time>2026-04-17T13:16:07.915Z</time></trkpt><trkpt lat="42.678475" lon="-8.5796683"><ele>509.0</ele><time>2026-04-17T13:16:08.914Z</time></trkpt><trkpt lat="42.6785933" lon="-8.5797517"><ele>516.0</ele><time>2026-04-17T13:16:09.914Z</time></trkpt><trkpt lat="42.6786917" lon="-8.5798"><ele>523.0</ele><time>2026-04-17T13:16:10.914Z</time></trkpt><trkpt lat="42.678775" lon="-8.5798017"><ele>523.0</ele><time>2026-04-17T13:16:11.915Z</time></trkpt><trkpt lat="42.678855" lon="-8.57975"><ele>523.0</ele><time>2026-04-17T13:16:12.915Z</time></trkpt><trkpt lat="42.6789417" lon="-8.57965"><ele>523.0</ele><time>2026-04-17T13:16:13.914Z</time></trkpt><trkpt lat="42.6790183" lon="-8.5795217"><ele>523.0</ele><time>2026-04-17T13:16:14.914Z</time></trkpt><trkpt lat="42.67907" lon="-8.5793617"><ele>518.6666666666667</ele><time>2026-04-17T13:16:15.914Z</time></trkpt><trkpt lat="42.6790933" lon="-8.57916"><ele>514.3333333333334</ele><time>2026-04-17T13:16:16.915Z</time></trkpt><trkpt lat="42.6791067" lon="-8.5789233"><ele>510.0</ele><time>2026-04-17T13:16:17.914Z</time></trkpt><trkpt lat="42.6791267" lon="-8.5786517"><ele>508.0</ele><time>2026-04-17T13:16:18.915Z</time></trkpt><trkpt lat="42.6791517" lon="-8.5783733"><ele>506.0</ele><time>2026-04-17T13:16:19.915Z</time></trkpt><trkpt lat="42.67918" lon="-8.5781167"><ele>504.0</ele><time>2026-04-17T13:16:20.915Z</time></trkpt><trkpt lat="42.67921" lon="-8.5778717"><ele>501.0</ele><time>2026-04-17T13:16:21.914Z</time></trkpt><trkpt lat="42.67925" lon="-8.5776417"><ele>498.0</ele><time>2026-04-17T13:16:22.914Z</time></trkpt><trkpt lat="42.6793117" lon="-8.577425"><ele>495.0</ele><time>2026-04-17T13:16:23.914Z</time></trkpt><trkpt lat="42.6793767" lon="-8.57723"><ele>498.0</ele><time>2026-04-17T13:16:24.915Z</time></trkpt><trkpt lat="42.6794383" lon="-8.577075"><ele>501.0</ele><time>2026-04-17T13:16:25.914Z</time></trkpt><trkpt lat="42.67949" lon="-8.5769533"><ele>504.0</ele><time>2026-04-17T13:16:26.915Z</time></trkpt><trkpt lat="42.6795383" lon="-8.57683"><ele>507.0</ele><time>2026-04-17T13:16:27.915Z</time></trkpt><trkpt lat="42.6795867" lon="-8.5767033"><ele>510.0</ele><time>2026-04-17T13:16:28.915Z</time></trkpt><trkpt lat="42.6796367" lon="-8.576565"><ele>510.0</ele><time>2026-04-17T13:16:29.915Z</time></trkpt><trkpt lat="42.6796883" lon="-8.576415"><ele>510.0</ele><time>2026-04-17T13:16:30.914Z</time></trkpt><trkpt lat="42.6797367" lon="-8.5762583"><ele>510.0</ele><time>2026-04-17T13:16:31.915Z</time></trkpt><trkpt lat="42.67978" lon="-8.576095"><ele>510.0</ele><time>2026-04-17T13:16:32.915Z</time></trkpt><trkpt lat="42.6798117" lon="-8.5759417"><ele>507.5</ele><time>2026-04-17T13:16:33.915Z</time></trkpt><trkpt lat="42.679835" lon="-8.575785"><ele>505.0</ele><time>2026-04-17T13:16:34.914Z</time></trkpt><trkpt lat="42.6798533" lon="-8.5756067"><ele>502.5</ele><time>2026-04-17T13:16:35.914Z</time></trkpt><trkpt lat="42.6798533" lon="-8.5754117"><ele>500.0</ele><time>2026-04-17T13:16:36.914Z</time></trkpt><trkpt lat="42.679835" lon="-8.5752233"><ele>499.0</ele><time>2026-04-17T13:16:37.914Z</time></trkpt><trkpt lat="42.6798083" lon="-8.5750517"><ele>498.0</ele><time>2026-04-17T13:16:38.915Z</time></trkpt><trkpt lat="42.6797933" lon="-8.5748883"><ele>497.0</ele><time>2026-04-17T13:16:39.915Z</time></trkpt><trkpt lat="42.6798" lon="-8.5747233"><ele>496.0</ele><time>2026-04-17T13:16:40.914Z</time></trkpt><trkpt lat="42.6798333" lon="-8.574545"><ele>492.0</ele><time>2026-04-17T13:16:41.915Z</time></trkpt><trkpt lat="42.6798933" lon="-8.5743417"><ele>488.0</ele><time>2026-04-17T13:16:42.914Z</time></trkpt><trkpt lat="42.6799683" lon="-8.57414"><ele>484.0</ele><time>2026-04-17T13:16:43.914Z</time></trkpt><trkpt lat="42.6800417" lon="-8.5739717"><ele>484.0</ele><time>2026-04-17T13:16:44.914Z</time></trkpt><trkpt lat="42.680115" lon="-8.5738483"><ele>484.0</ele><time>2026-04-17T13:16:45.914Z</time></trkpt><trkpt lat="42.680205" lon="-8.573765"><ele>484.0</ele><time>2026-04-17T13:16:46.914Z</time></trkpt><trkpt lat="42.6803133" lon="-8.573695"><ele>484.0</ele><time>2026-04-17T13:16:47.914Z</time></trkpt><trkpt lat="42.6804283" lon="-8.57362"><ele>485.00000000000006</ele><time>2026-04-17T13:16:48.914Z</time></trkpt><trkpt lat="42.6805267" lon="-8.57354"><ele>486.0</ele><time>2026-04-17T13:16:49.914Z</time></trkpt><trkpt lat="42.6805917" lon="-8.5734583"><ele>487.0</ele><time>2026-04-17T13:16:50.915Z</time></trkpt><trkpt lat="42.6806267" lon="-8.57337"><ele>488.0</ele><time>2026-04-17T13:16:51.914Z</time></trkpt><trkpt lat="42.6806167" lon="-8.573225"><ele>489.00000000000006</ele><time>2026-04-17T13:16:53.914Z</time></trkpt><trkpt lat="42.680575" lon="-8.57316"><ele>490.0</ele><time>2026-04-17T13:16:54.914Z</time></trkpt><trkpt lat="42.6804967" lon="-8.5730933"><ele>490.0</ele><time>2026-04-17T13:16:55.914Z</time></trkpt><trkpt lat="42.6803717" lon="-8.5730233"><ele>490.0</ele><time>2026-04-17T13:16:56.914Z</time></trkpt><trkpt lat="42.6801867" lon="-8.5729533"><ele>490.0</ele><time>2026-04-17T13:16:57.914Z</time></trkpt><trkpt lat="42.68" lon="-8.5728617"><ele>487.33333333333337</ele><time>2026-04-17T13:16:58.914Z</time></trkpt><trkpt lat="42.6798417" lon="-8.5727333"><ele>484.66666666666663</ele><time>2026-04-17T13:16:59.915Z</time></trkpt><trkpt lat="42.679695" lon="-8.5726133"><ele>482.0</ele><time>2026-04-17T13:17:00.914Z</time></trkpt><trkpt lat="42.6796" lon="-8.5724983"><ele>482.0</ele><time>2026-04-17T13:17:01.914Z</time></trkpt><trkpt lat="42.6795317" lon="-8.57237"><ele>482.0</ele><time>2026-04-17T13:17:02.915Z</time></trkpt><trkpt lat="42.6794883" lon="-8.5722217"><ele>482.0</ele><time>2026-04-17T13:17:03.914Z</time></trkpt><trkpt lat="42.6794583" lon="-8.5720383"><ele>482.0</ele><time>2026-04-17T13:17:04.914Z</time></trkpt><trkpt lat="42.6794283" lon="-8.57182"><ele>475.0</ele><time>2026-04-17T13:17:05.915Z</time></trkpt><trkpt lat="42.6794017" lon="-8.5715767"><ele>468.0</ele><time>2026-04-17T13:17:06.914Z</time></trkpt><trkpt lat="42.679375" lon="-8.571315"><ele>461.0</ele><time>2026-04-17T13:17:07.914Z</time></trkpt><trkpt lat="42.6793483" lon="-8.571035"><ele>460.0</ele><time>2026-04-17T13:17:08.914Z</time></trkpt><trkpt lat="42.67932" lon="-8.570755"><ele>459.0</ele><time>2026-04-17T13:17:09.914Z</time></trkpt><trkpt lat="42.6792867" lon="-8.5704917"><ele>458.0</ele><time>2026-04-17T13:17:10.914Z</time></trkpt><trkpt lat="42.67926" lon="-8.5702567"><ele>458.0</ele><time>2026-04-17T13:17:11.914Z</time></trkpt><trkpt lat="42.679245" lon="-8.5700433"><ele>458.0</ele><time>2026-04-17T13:17:12.915Z</time></trkpt><trkpt lat="42.6792467" lon="-8.5698467"><ele>458.0</ele><time>2026-04-17T13:17:13.915Z</time></trkpt><trkpt lat="42.6792617" lon="-8.5696633"><ele>458.0</ele><time>2026-04-17T13:17:14.914Z</time></trkpt><trkpt lat="42.6792917" lon="-8.5695067"><ele>460.25</ele><time>2026-04-17T13:17:15.914Z</time></trkpt><trkpt lat="42.6793333" lon="-8.5693733"><ele>462.5</ele><time>2026-04-17T13:17:16.914Z</time></trkpt><trkpt lat="42.6793967" lon="-8.569255"><ele>464.75</ele><time>2026-04-17T13:17:17.914Z</time></trkpt><trkpt lat="42.6794833" lon="-8.569145"><ele>467.0</ele><time>2026-04-17T13:17:18.914Z</time></trkpt><trkpt lat="42.6795933" lon="-8.56903"><ele>467.0</ele><time>2026-04-17T13:17:19.915Z</time></trkpt><trkpt lat="42.6797083" lon="-8.5689117"><ele>467.0</ele><time>2026-04-17T13:17:20.914Z</time></trkpt><trkpt lat="42.679815" lon="-8.568795"><ele>467.0</ele><time>2026-04-17T13:17:21.914Z</time></trkpt><trkpt lat="42.6799183" lon="-8.5686767"><ele>467.0</ele><time>2026-04-17T13:17:22.915Z</time></trkpt><trkpt lat="42.6800233" lon="-8.5685617"><ele>465.25</ele><time>2026-04-17T13:17:23.914Z</time></trkpt><trkpt lat="42.6801383" lon="-8.5684467"><ele>463.5</ele><time>2026-04-17T13:17:24.914Z</time></trkpt><trkpt lat="42.68026" lon="-8.5683283"><ele>461.75</ele><time>2026-04-17T13:17:25.915Z</time></trkpt><trkpt lat="42.680385" lon="-8.5682083"><ele>460.0</ele><time>2026-04-17T13:17:26.915Z</time></trkpt><trkpt lat="42.6805067" lon="-8.568085"><ele>460.0</ele><time>2026-04-17T13:17:27.914Z</time></trkpt><trkpt lat="42.680625" lon="-8.5679583"><ele>460.0</ele><time>2026-04-17T13:17:28.914Z</time></trkpt><trkpt lat="42.6807317" lon="-8.5678333"><ele>460.0</ele><time>2026-04-17T13:17:29.915Z</time></trkpt><trkpt lat="42.6808267" lon="-8.5676967"><ele>460.0</ele><time>2026-04-17T13:17:30.915Z</time></trkpt><trkpt lat="42.6808967" lon="-8.567535"><ele>454.33333333333337</ele><time>2026-04-17T13:17:31.914Z</time></trkpt><trkpt lat="42.680955" lon="-8.5673467"><ele>448.66666666666663</ele><time>2026-04-17T13:17:32.914Z</time></trkpt><trkpt lat="42.6810067" lon="-8.567145"><ele>443.0</ele><time>2026-04-17T13:17:33.914Z</time></trkpt><trkpt lat="42.6810517" lon="-8.5669417"><ele>440.75</ele><time>2026-04-17T13:17:34.915Z</time></trkpt><trkpt lat="42.6810883" lon="-8.5667483"><ele>438.5</ele><time>2026-04-17T13:17:35.915Z</time></trkpt><trkpt lat="42.6811117" lon="-8.5665717"><ele>436.25</ele><time>2026-04-17T13:17:36.914Z</time></trkpt><trkpt lat="42.6811133" lon="-8.5664267"><ele>434.0</ele><time>2026-04-17T13:17:37.915Z</time></trkpt><trkpt lat="42.6810933" lon="-8.5663117"><ele>433.99999999999994</ele><time>2026-04-17T13:17:38.915Z</time></trkpt><trkpt lat="42.6810617" lon="-8.5662333"><ele>434.0</ele><time>2026-04-17T13:17:39.915Z</time></trkpt><trkpt lat="42.68099" lon="-8.5662567"><ele>434.0</ele><time>2026-04-17T13:17:41.914Z</time></trkpt><trkpt lat="42.68094" lon="-8.5663267"><ele>434.0</ele><time>2026-04-17T13:17:42.915Z</time></trkpt><trkpt lat="42.6808567" lon="-8.566395"><ele>433.99999999999994</ele><time>2026-04-17T13:17:43.915Z</time></trkpt><trkpt lat="42.6807533" lon="-8.5664667"><ele>434.0</ele><time>2026-04-17T13:17:44.914Z</time></trkpt><trkpt lat="42.680635" lon="-8.5665283"><ele>434.0</ele><time>2026-04-17T13:17:45.914Z</time></trkpt><trkpt lat="42.6804883" lon="-8.5665733"><ele>434.0</ele><time>2026-04-17T13:17:46.915Z</time></trkpt><trkpt lat="42.6803317" lon="-8.566615"><ele>434.0</ele><time>2026-04-17T13:17:47.915Z</time></trkpt><trkpt lat="42.6801933" lon="-8.56664"><ele>429.75</ele><time>2026-04-17T13:17:48.914Z</time></trkpt><trkpt lat="42.680075" lon="-8.5666417"><ele>425.5</ele><time>2026-04-17T13:17:49.914Z</time></trkpt><trkpt lat="42.6799617" lon="-8.56662"><ele>421.25</ele><time>2026-04-17T13:17:50.915Z</time></trkpt><trkpt lat="42.6798633" lon="-8.5665533"><ele>417.0</ele><time>2026-04-17T13:17:51.914Z</time></trkpt><trkpt lat="42.6797717" lon="-8.566445"><ele>417.0</ele><time>2026-04-17T13:17:52.915Z</time></trkpt><trkpt lat="42.6797" lon="-8.56632"><ele>417.0</ele><time>2026-04-17T13:17:53.915Z</time></trkpt><trkpt lat="42.67964" lon="-8.5662017"><ele>417.0</ele><time>2026-04-17T13:17:54.914Z</time></trkpt><trkpt lat="42.6796117" lon="-8.5660917"><ele>417.0</ele><time>2026-04-17T13:17:55.914Z</time></trkpt><trkpt lat="42.6796083" lon="-8.5659783"><ele>417.0</ele><time>2026-04-17T13:17:56.914Z</time></trkpt><trkpt lat="42.67963" lon="-8.5658533"><ele>417.5</ele><time>2026-04-17T13:17:57.914Z</time></trkpt><trkpt lat="42.67968" lon="-8.5657233"><ele>418.0</ele><time>2026-04-17T13:17:58.914Z</time></trkpt><trkpt lat="42.6797483" lon="-8.5655867"><ele>418.5</ele><time>2026-04-17T13:17:59.915Z</time></trkpt><trkpt lat="42.6798367" lon="-8.5654467"><ele>419.0</ele><time>2026-04-17T13:18:00.915Z</time></trkpt><trkpt lat="42.6799383" lon="-8.5652867"><ele>412.66666666666663</ele><time>2026-04-17T13:18:01.914Z</time></trkpt><trkpt lat="42.6800483" lon="-8.5651067"><ele>406.33333333333337</ele><time>2026-04-17T13:18:02.914Z</time></trkpt><trkpt lat="42.6801567" lon="-8.564905"><ele>400.0</ele><time>2026-04-17T13:18:03.915Z</time></trkpt><trkpt lat="42.6802617" lon="-8.5646967"><ele>403.0</ele><time>2026-04-17T13:18:04.915Z</time></trkpt><trkpt lat="42.6803567" lon="-8.56449"><ele>406.0</ele><time>2026-04-17T13:18:05.915Z</time></trkpt><trkpt lat="42.6804483" lon="-8.5642967"><ele>409.0</ele><time>2026-04-17T13:18:06.915Z</time></trkpt><trkpt lat="42.6805283" lon="-8.564115"><ele>409.0</ele><time>2026-04-17T13:18:07.914Z</time></trkpt><trkpt lat="42.6806017" lon="-8.563935"><ele>409.0</ele><time>2026-04-17T13:18:08.915Z</time></trkpt><trkpt lat="42.680665" lon="-8.5637617"><ele>409.0</ele><time>2026-04-17T13:18:09.915Z</time></trkpt><trkpt lat="42.68072" lon="-8.563625"><ele>409.0</ele><time>2026-04-17T13:18:10.915Z</time></trkpt><trkpt lat="42.6807517" lon="-8.563535"><ele>406.79999999999995</ele><time>2026-04-17T13:18:11.914Z</time></trkpt><trkpt lat="42.680735" lon="-8.5633667"><ele>404.59999999999997</ele><time>2026-04-17T13:18:13.915Z</time></trkpt><trkpt lat="42.6806767" lon="-8.563275"><ele>402.4</ele><time>2026-04-17T13:18:14.914Z</time></trkpt><trkpt lat="42.68062" lon="-8.56316"><ele>400.2</ele><time>2026-04-17T13:18:15.914Z</time></trkpt><trkpt lat="42.68056" lon="-8.5630167"><ele>398.0</ele><time>2026-04-17T13:18:16.915Z</time></trkpt><trkpt lat="42.68052" lon="-8.56284"><ele>397.25</ele><time>2026-04-17T13:18:17.915Z</time></trkpt><trkpt lat="42.6804983" lon="-8.5626517"><ele>396.5</ele><time>2026-04-17T13:18:18.914Z</time></trkpt><trkpt lat="42.6805017" lon="-8.5624717"><ele>395.75</ele><time>2026-04-17T13:18:19.914Z</time></trkpt><trkpt lat="42.680525" lon="-8.5623033"><ele>395.0</ele><time>2026-04-17T13:18:20.914Z</time></trkpt><trkpt lat="42.6805717" lon="-8.5621367"><ele>391.0</ele><time>2026-04-17T13:18:21.914Z</time></trkpt><trkpt lat="42.6806233" lon="-8.56198"><ele>387.0</ele><time>2026-04-17T13:18:22.914Z</time></trkpt><trkpt lat="42.6806883" lon="-8.5618417"><ele>383.0</ele><time>2026-04-17T13:18:23.914Z</time></trkpt><trkpt lat="42.680765" lon="-8.5617117"><ele>379.0</ele><time>2026-04-17T13:18:24.914Z</time></trkpt><trkpt lat="42.68086" lon="-8.561585"><ele>379.0</ele><time>2026-04-17T13:18:25.914Z</time></trkpt><trkpt lat="42.6809583" lon="-8.561445"><ele>379.0</ele><time>2026-04-17T13:18:26.914Z</time></trkpt><trkpt lat="42.6810517" lon="-8.5613017"><ele>379.0</ele><time>2026-04-17T13:18:27.914Z</time></trkpt><trkpt lat="42.68114" lon="-8.5611583"><ele>379.0</ele><time>2026-04-17T13:18:28.914Z</time></trkpt><trkpt lat="42.68123" lon="-8.56102"><ele>379.75</ele><time>2026-04-17T13:18:29.914Z</time></trkpt><trkpt lat="42.6813217" lon="-8.56087"><ele>380.5</ele><time>2026-04-17T13:18:30.914Z</time></trkpt><trkpt lat="42.6814117" lon="-8.560715"><ele>381.25</ele><time>2026-04-17T13:18:31.915Z</time></trkpt><trkpt lat="42.681495" lon="-8.5605517"><ele>382.0</ele><time>2026-04-17T13:18:32.915Z</time></trkpt><trkpt lat="42.6815833" lon="-8.5604017"><ele>377.75</ele><time>2026-04-17T13:18:33.915Z</time></trkpt><trkpt lat="42.6816667" lon="-8.560265"><ele>373.5</ele><time>2026-04-17T13:18:34.914Z</time></trkpt><trkpt lat="42.68174" lon="-8.5601433"><ele>369.25</ele><time>2026-04-17T13:18:35.914Z</time></trkpt><trkpt lat="42.681815" lon="-8.5600367"><ele>365.0</ele><time>2026-04-17T13:18:36.914Z</time></trkpt><trkpt lat="42.6818983" lon="-8.5599417"><ele>368.5</ele><time>2026-04-17T13:18:37.914Z</time></trkpt><trkpt lat="42.6819983" lon="-8.5598517"><ele>372.0</ele><time>2026-04-17T13:18:38.914Z</time></trkpt><trkpt lat="42.6821183" lon="-8.559765"><ele>375.5</ele><time>2026-04-17T13:18:39.914Z</time></trkpt><trkpt lat="42.6822433" lon="-8.559665"><ele>379.0</ele><time>2026-04-17T13:18:40.915Z</time></trkpt><trkpt lat="42.6823783" lon="-8.5595483"><ele>375.66666666666663</ele><time>2026-04-17T13:18:41.914Z</time></trkpt><trkpt lat="42.682535" lon="-8.55941"><ele>372.3333333333333</ele><time>2026-04-17T13:18:42.915Z</time></trkpt><trkpt lat="42.6826933" lon="-8.5592683"><ele>369.0</ele><time>2026-04-17T13:18:43.914Z</time></trkpt><trkpt lat="42.682845" lon="-8.55914"><ele>369.0</ele><time>2026-04-17T13:18:44.914Z</time></trkpt><trkpt lat="42.6830083" lon="-8.5590483"><ele>369.0</ele><time>2026-04-17T13:18:45.915Z</time></trkpt><trkpt lat="42.6831717" lon="-8.5589767"><ele>369.0</ele><time>2026-04-17T13:18:46.914Z</time></trkpt><trkpt lat="42.683325" lon="-8.5589233"><ele>369.0</ele><time>2026-04-17T13:18:47.915Z</time></trkpt><trkpt lat="42.6834833" lon="-8.5588883"><ele>369.0</ele><time>2026-04-17T13:18:48.914Z</time></trkpt><trkpt lat="42.6836383" lon="-8.55886"><ele>369.0</ele><time>2026-04-17T13:18:49.914Z</time></trkpt><trkpt lat="42.6837833" lon="-8.558835"><ele>370.2</ele><time>2026-04-17T13:18:50.915Z</time></trkpt><trkpt lat="42.6838967" lon="-8.558815"><ele>371.4</ele><time>2026-04-17T13:18:51.915Z</time></trkpt><trkpt lat="42.6839817" lon="-8.5587933"><ele>372.6</ele><time>2026-04-17T13:18:52.915Z</time></trkpt><trkpt lat="42.68407" lon="-8.5587583"><ele>373.8</ele><time>2026-04-17T13:18:54.914Z</time></trkpt><trkpt lat="42.6840133" lon="-8.5586767"><ele>375.0</ele><time>2026-04-17T13:18:57.915Z</time></trkpt><trkpt lat="42.6839267" lon="-8.55867"><ele>367.25</ele><time>2026-04-17T13:18:58.914Z</time></trkpt><trkpt lat="42.6838117" lon="-8.5586817"><ele>359.5</ele><time>2026-04-17T13:18:59.915Z</time></trkpt><trkpt lat="42.683695" lon="-8.5586867"><ele>351.75</ele><time>2026-04-17T13:19:00.914Z</time></trkpt><trkpt lat="42.6835517" lon="-8.5586917"><ele>344.0</ele><time>2026-04-17T13:19:01.915Z</time></trkpt><trkpt lat="42.6833833" lon="-8.5586967"><ele>343.33333333333337</ele><time>2026-04-17T13:19:02.915Z</time></trkpt><trkpt lat="42.6831783" lon="-8.5586933"><ele>342.6666666666667</ele><time>2026-04-17T13:19:03.914Z</time></trkpt><trkpt lat="42.68299" lon="-8.55869"><ele>342.0</ele><time>2026-04-17T13:19:04.914Z</time></trkpt><trkpt lat="42.6828167" lon="-8.5586867"><ele>347.0</ele><time>2026-04-17T13:19:05.915Z</time></trkpt><trkpt lat="42.68263" lon="-8.5587117"><ele>352.0</ele><time>2026-04-17T13:19:06.915Z</time></trkpt><trkpt lat="42.6824383" lon="-8.5587517"><ele>357.0</ele><time>2026-04-17T13:19:07.915Z</time></trkpt><trkpt lat="42.6822567" lon="-8.558815"><ele>357.0</ele><time>2026-04-17T13:19:08.915Z</time></trkpt><trkpt lat="42.682065" lon="-8.5589017"><ele>357.0</ele><time>2026-04-17T13:19:09.914Z</time></trkpt><trkpt lat="42.6818833" lon="-8.5589917"><ele>357.0</ele><time>2026-04-17T13:19:10.914Z</time></trkpt><trkpt lat="42.6817" lon="-8.5590717"><ele>353.0</ele><time>2026-04-17T13:19:11.914Z</time></trkpt><trkpt lat="42.6815267" lon="-8.5591467"><ele>349.0</ele><time>2026-04-17T13:19:12.915Z</time></trkpt><trkpt lat="42.681365" lon="-8.5592117"><ele>345.0</ele><time>2026-04-17T13:19:13.914Z</time></trkpt><trkpt lat="42.6812017" lon="-8.5592817"><ele>345.0</ele><time>2026-04-17T13:19:14.914Z</time></trkpt><trkpt lat="42.681055" lon="-8.55934"><ele>345.0</ele><time>2026-04-17T13:19:15.915Z</time></trkpt><trkpt lat="42.6809333" lon="-8.5594083"><ele>345.0</ele><time>2026-04-17T13:19:16.914Z</time></trkpt><trkpt lat="42.6808283" lon="-8.55948"><ele>345.0</ele><time>2026-04-17T13:19:17.915Z</time></trkpt><trkpt lat="42.680755" lon="-8.5595867"><ele>345.0</ele><time>2026-04-17T13:19:18.914Z</time></trkpt><trkpt lat="42.6806767" lon="-8.5597083"><ele>345.0</ele><time>2026-04-17T13:19:19.914Z</time></trkpt><trkpt lat="42.680605" lon="-8.55983"><ele>345.0</ele><time>2026-04-17T13:19:20.914Z</time></trkpt><trkpt lat="42.6805233" lon="-8.5599417"><ele>345.0</ele><time>2026-04-17T13:19:21.914Z</time></trkpt><trkpt lat="42.6804117" lon="-8.5600383"><ele>345.0</ele><time>2026-04-17T13:19:22.914Z</time></trkpt><trkpt lat="42.68027" lon="-8.5601"><ele>345.0</ele><time>2026-04-17T13:19:23.915Z</time></trkpt><trkpt lat="42.6801283" lon="-8.560145"><ele>345.0</ele><time>2026-04-17T13:19:24.914Z</time></trkpt><trkpt lat="42.679985" lon="-8.5602033"><ele>345.0</ele><time>2026-04-17T13:19:25.914Z</time></trkpt><trkpt lat="42.6798567" lon="-8.5602683"><ele>344.8</ele><time>2026-04-17T13:19:26.915Z</time></trkpt><trkpt lat="42.6797417" lon="-8.560345"><ele>344.6</ele><time>2026-04-17T13:19:27.914Z</time></trkpt><trkpt lat="42.679645" lon="-8.5604317"><ele>344.4</ele><time>2026-04-17T13:19:28.914Z</time></trkpt><trkpt lat="42.6795617" lon="-8.5605233"><ele>344.2</ele><time>2026-04-17T13:19:29.914Z</time></trkpt><trkpt lat="42.6795067" lon="-8.5606"><ele>344.0</ele><time>2026-04-17T13:19:30.914Z</time></trkpt><trkpt lat="42.6794533" lon="-8.5606767"><ele>344.0</ele><time>2026-04-17T13:19:32.915Z</time></trkpt><trkpt lat="42.6794667" lon="-8.560555"><ele>344.0</ele><time>2026-04-17T13:19:36.914Z</time></trkpt><trkpt lat="42.6795033" lon="-8.5604167"><ele>344.0</ele><time>2026-04-17T13:19:38.915Z</time></trkpt><trkpt lat="42.679545" lon="-8.56031"><ele>344.0</ele><time>2026-04-17T13:19:39.915Z</time></trkpt><trkpt lat="42.67959" lon="-8.5601883"><ele>344.0</ele><time>2026-04-17T13:19:40.914Z</time></trkpt><trkpt lat="42.6796583" lon="-8.56008"><ele>340.0</ele><time>2026-04-17T13:19:41.915Z</time></trkpt><trkpt lat="42.67974" lon="-8.5599917"><ele>336.0</ele><time>2026-04-17T13:19:42.914Z</time></trkpt><trkpt lat="42.6798267" lon="-8.55988"><ele>332.0</ele><time>2026-04-17T13:19:43.914Z</time></trkpt><trkpt lat="42.67992" lon="-8.5598"><ele>328.0</ele><time>2026-04-17T13:19:44.914Z</time></trkpt><trkpt lat="42.6800133" lon="-8.5597033"><ele>328.0</ele><time>2026-04-17T13:19:45.915Z</time></trkpt><trkpt lat="42.6800933" lon="-8.55962"><ele>328.0</ele><time>2026-04-17T13:19:46.914Z</time></trkpt><trkpt lat="42.680155" lon="-8.5595333"><ele>328.0</ele><time>2026-04-17T13:19:47.915Z</time></trkpt><trkpt lat="42.6801967" lon="-8.5594467"><ele>328.0</ele><time>2026-04-17T13:19:48.915Z</time></trkpt><trkpt lat="42.68022" lon="-8.559345"><ele>328.0</ele><time>2026-04-17T13:19:49.915Z</time></trkpt><trkpt lat="42.680235" lon="-8.5592267"><ele>328.0</ele><time>2026-04-17T13:19:50.914Z</time></trkpt><trkpt lat="42.6802633" lon="-8.5590833"><ele>328.3333333333333</ele><time>2026-04-17T13:19:51.915Z</time></trkpt><trkpt lat="42.6803183" lon="-8.5588833"><ele>328.6666666666667</ele><time>2026-04-17T13:19:52.915Z</time></trkpt><trkpt lat="42.6803933" lon="-8.5587067"><ele>329.0</ele><time>2026-04-17T13:19:53.915Z</time></trkpt><trkpt lat="42.6804967" lon="-8.558545"><ele>323.33333333333337</ele><time>2026-04-17T13:19:54.914Z</time></trkpt><trkpt lat="42.6806283" lon="-8.5584283"><ele>317.6666666666667</ele><time>2026-04-17T13:19:55.915Z</time></trkpt><trkpt lat="42.68079" lon="-8.55834"><ele>312.0</ele><time>2026-04-17T13:19:56.915Z</time></trkpt><trkpt lat="42.6809783" lon="-8.55827"><ele>316.0</ele><time>2026-04-17T13:19:57.914Z</time></trkpt><trkpt lat="42.681165" lon="-8.5582083"><ele>320.0</ele><time>2026-04-17T13:19:58.915Z</time></trkpt><trkpt lat="42.68132" lon="-8.5581433"><ele>324.0</ele><time>2026-04-17T13:19:59.915Z</time></trkpt><trkpt lat="42.6814533" lon="-8.558065"><ele>324.0</ele><time>2026-04-17T13:20:00.914Z</time></trkpt><trkpt lat="42.6815733" lon="-8.5579583"><ele>324.0</ele><time>2026-04-17T13:20:01.914Z</time></trkpt><trkpt lat="42.6816917" lon="-8.557855"><ele>324.0</ele><time>2026-04-17T13:20:02.915Z</time></trkpt><trkpt lat="42.6818183" lon="-8.5577833"><ele>324.0</ele><time>2026-04-17T13:20:03.914Z</time></trkpt><trkpt lat="42.68196" lon="-8.55775"><ele>320.0</ele><time>2026-04-17T13:20:04.914Z</time></trkpt><trkpt lat="42.6821133" lon="-8.5577333"><ele>316.0</ele><time>2026-04-17T13:20:05.915Z</time></trkpt><trkpt lat="42.6822667" lon="-8.5577033"><ele>312.0</ele><time>2026-04-17T13:20:06.915Z</time></trkpt><trkpt lat="42.68243" lon="-8.55766"><ele>312.0</ele><time>2026-04-17T13:20:07.915Z</time></trkpt><trkpt lat="42.682595" lon="-8.5576"><ele>312.0</ele><time>2026-04-17T13:20:08.914Z</time></trkpt><trkpt lat="42.682755" lon="-8.5575517"><ele>312.0</ele><time>2026-04-17T13:20:09.915Z</time></trkpt><trkpt lat="42.6829017" lon="-8.5575317"><ele>313.25</ele><time>2026-04-17T13:20:10.914Z</time></trkpt><trkpt lat="42.6830433" lon="-8.557555"><ele>314.5</ele><time>2026-04-17T13:20:11.915Z</time></trkpt><trkpt lat="42.683175" lon="-8.5576017"><ele>315.75</ele><time>2026-04-17T13:20:12.915Z</time></trkpt><trkpt lat="42.6832933" lon="-8.5576433"><ele>317.0</ele><time>2026-04-17T13:20:13.914Z</time></trkpt><trkpt lat="42.6834183" lon="-8.5576417"><ele>317.0</ele><time>2026-04-17T13:20:14.914Z</time></trkpt><trkpt lat="42.68355" lon="-8.5575967"><ele>317.0</ele><time>2026-04-17T13:20:15.915Z</time></trkpt><trkpt lat="42.6836883" lon="-8.55755"><ele>317.0</ele><time>2026-04-17T13:20:16.915Z</time></trkpt><trkpt lat="42.6838233" lon="-8.5575167"><ele>317.0</ele><time>2026-04-17T13:20:17.914Z</time></trkpt><trkpt lat="42.6839333" lon="-8.5575"><ele>318.0</ele><time>2026-04-17T13:20:18.914Z</time></trkpt><trkpt lat="42.6840383" lon="-8.5575383"><ele>319.0</ele><time>2026-04-17T13:20:20.914Z</time></trkpt><trkpt lat="42.6840867" lon="-8.5576033"><ele>320.0</ele><time>2026-04-17T13:20:21.914Z</time></trkpt><trkpt lat="42.6841333" lon="-8.557695"><ele>321.0</ele><time>2026-04-17T13:20:22.915Z</time></trkpt><trkpt lat="42.68419" lon="-8.557775"><ele>322.0</ele><time>2026-04-17T13:20:23.915Z</time></trkpt><trkpt lat="42.6842533" lon="-8.5578517"><ele>323.0</ele><time>2026-04-17T13:20:24.915Z</time></trkpt><trkpt lat="42.684355" lon="-8.55792"><ele>323.0</ele><time>2026-04-17T13:20:26.915Z</time></trkpt><trkpt lat="42.684395" lon="-8.5578383"><ele>323.0</ele><time>2026-04-17T13:20:28.914Z</time></trkpt><trkpt lat="42.6844233" lon="-8.557675"><ele>323.0</ele><time>2026-04-17T13:20:30.914Z</time></trkpt><trkpt lat="42.68446" lon="-8.55759"><ele>323.0</ele><time>2026-04-17T13:20:31.914Z</time></trkpt><trkpt lat="42.6845" lon="-8.557515"><ele>323.0</ele><time>2026-04-17T13:20:32.914Z</time></trkpt><trkpt lat="42.6845667" lon="-8.5574367"><ele>323.0</ele><time>2026-04-17T13:20:33.914Z</time></trkpt><trkpt lat="42.6846583" lon="-8.5573083"><ele>323.0</ele><time>2026-04-17T13:20:34.915Z</time></trkpt><trkpt lat="42.68474" lon="-8.5571833"><ele>323.0</ele><time>2026-04-17T13:20:35.914Z</time></trkpt><trkpt lat="42.6848083" lon="-8.5570983"><ele>323.0</ele><time>2026-04-17T13:20:36.914Z</time></trkpt><trkpt lat="42.6848933" lon="-8.557015"><ele>323.0</ele><time>2026-04-17T13:20:37.914Z</time></trkpt><trkpt lat="42.6849933" lon="-8.5569383"><ele>323.0</ele><time>2026-04-17T13:20:38.914Z</time></trkpt><trkpt lat="42.685125" lon="-8.55683"><ele>326.33333333333337</ele><time>2026-04-17T13:20:39.914Z</time></trkpt><trkpt lat="42.6852817" lon="-8.5567267"><ele>329.6666666666667</ele><time>2026-04-17T13:20:40.915Z</time></trkpt><trkpt lat="42.6854433" lon="-8.556615"><ele>333.0</ele><time>2026-04-17T13:20:41.915Z</time></trkpt><trkpt lat="42.685615" lon="-8.5564883"><ele>333.0</ele><time>2026-04-17T13:20:42.915Z</time></trkpt><trkpt lat="42.6857967" lon="-8.55634"><ele>333.0</ele><time>2026-04-17T13:20:43.914Z</time></trkpt><trkpt lat="42.6859683" lon="-8.556205"><ele>333.0</ele><time>2026-04-17T13:20:44.914Z</time></trkpt><trkpt lat="42.6861367" lon="-8.55608"><ele>328.3333333333333</ele><time>2026-04-17T13:20:45.914Z</time></trkpt><trkpt lat="42.6862867" lon="-8.555975"><ele>323.66666666666663</ele><time>2026-04-17T13:20:46.915Z</time></trkpt><trkpt lat="42.68647" lon="-8.555895"><ele>319.0</ele><time>2026-04-17T13:20:47.915Z</time></trkpt><trkpt lat="42.6865967" lon="-8.555835"><ele>319.0</ele><time>2026-04-17T13:20:48.914Z</time></trkpt><trkpt lat="42.68669" lon="-8.5557967"><ele>319.0</ele><time>2026-04-17T13:20:49.914Z</time></trkpt><trkpt lat="42.68678" lon="-8.55573"><ele>319.0</ele><time>2026-04-17T13:20:51.915Z</time></trkpt><trkpt lat="42.6867467" lon="-8.555635"><ele>319.0</ele><time>2026-04-17T13:20:55.915Z</time></trkpt><trkpt lat="42.68665" lon="-8.555585"><ele>319.0</ele><time>2026-04-17T13:20:57.914Z</time></trkpt><trkpt lat="42.6864317" lon="-8.5555283"><ele>319.0</ele><time>2026-04-17T13:20:58.914Z</time></trkpt><trkpt lat="42.6862883" lon="-8.555505"><ele>319.0</ele><time>2026-04-17T13:20:59.915Z</time></trkpt><trkpt lat="42.6861233" lon="-8.5554767"><ele>319.0</ele><time>2026-04-17T13:21:00.914Z</time></trkpt><trkpt lat="42.6859383" lon="-8.5554683"><ele>317.3333333333333</ele><time>2026-04-17T13:21:01.914Z</time></trkpt><trkpt lat="42.6857217" lon="-8.5554717"><ele>315.6666666666667</ele><time>2026-04-17T13:21:02.914Z</time></trkpt><trkpt lat="42.68549" lon="-8.555495"><ele>314.0</ele><time>2026-04-17T13:21:03.915Z</time></trkpt><trkpt lat="42.6852767" lon="-8.5555183"><ele>312.5</ele><time>2026-04-17T13:21:04.914Z</time></trkpt><trkpt lat="42.6850717" lon="-8.5555167"><ele>311.0</ele><time>2026-04-17T13:21:05.914Z</time></trkpt><trkpt lat="42.6847033" lon="-8.55549"><ele>311.0</ele><time>2026-04-17T13:21:06.914Z</time></trkpt><trkpt lat="42.68454" lon="-8.5555"><ele>311.0</ele><time>2026-04-17T13:21:07.915Z</time></trkpt><trkpt lat="42.6844067" lon="-8.5555017"><ele>311.0</ele><time>2026-04-17T13:21:08.914Z</time></trkpt><trkpt lat="42.684285" lon="-8.5555117"><ele>311.0</ele><time>2026-04-17T13:21:09.914Z</time></trkpt><trkpt lat="42.684175" lon="-8.55553"><ele>308.0</ele><time>2026-04-17T13:21:10.915Z</time></trkpt><trkpt lat="42.6840717" lon="-8.555565"><ele>305.0</ele><time>2026-04-17T13:21:11.915Z</time></trkpt><trkpt lat="42.683985" lon="-8.5555983"><ele>302.0</ele><time>2026-04-17T13:21:12.914Z</time></trkpt><trkpt lat="42.6838983" lon="-8.5556567"><ele>299.0</ele><time>2026-04-17T13:21:13.914Z</time></trkpt><trkpt lat="42.6837917" lon="-8.5556867"><ele>296.0</ele><time>2026-04-17T13:21:15.915Z</time></trkpt><trkpt lat="42.68374" lon="-8.5556067"><ele>296.0</ele><time>2026-04-17T13:21:18.914Z</time></trkpt><trkpt lat="42.6837217" lon="-8.55548"><ele>296.0</ele><time>2026-04-17T13:21:20.915Z</time></trkpt><trkpt lat="42.6836817" lon="-8.5552983"><ele>296.0</ele><time>2026-04-17T13:21:22.914Z</time></trkpt><trkpt lat="42.68357" lon="-8.5552233"><ele>296.0</ele><time>2026-04-17T13:21:24.914Z</time></trkpt><trkpt lat="42.6835083" lon="-8.5552017"><ele>296.0</ele><time>2026-04-17T13:21:25.915Z</time></trkpt><trkpt lat="42.683445" lon="-8.55517"><ele>289.0</ele><time>2026-04-17T13:21:26.914Z</time></trkpt><trkpt lat="42.683345" lon="-8.5550867"><ele>282.0</ele><time>2026-04-17T13:21:28.914Z</time></trkpt><trkpt lat="42.683325" lon="-8.5549333"><ele>275.0</ele><time>2026-04-17T13:21:30.914Z</time></trkpt><trkpt lat="42.6833083" lon="-8.5547717"><ele>268.0</ele><time>2026-04-17T13:21:32.914Z</time></trkpt><trkpt lat="42.683305" lon="-8.554635"><ele>269.16666666666663</ele><time>2026-04-17T13:21:34.915Z</time></trkpt><trkpt lat="42.683345" lon="-8.5545117"><ele>270.3333333333333</ele><time>2026-04-17T13:21:36.914Z</time></trkpt><trkpt lat="42.68338" lon="-8.5544383"><ele>271.5</ele><time>2026-04-17T13:21:37.915Z</time></trkpt><trkpt lat="42.6834233" lon="-8.5543617"><ele>272.6666666666667</ele><time>2026-04-17T13:21:38.914Z</time></trkpt><trkpt lat="42.6834683" lon="-8.55429"><ele>273.83333333333337</ele><time>2026-04-17T13:21:39.914Z</time></trkpt><trkpt lat="42.683555" lon="-8.55418"><ele>275.0</ele><time>2026-04-17T13:21:41.914Z</time></trkpt><trkpt lat="42.683655" lon="-8.554095"><ele>275.0</ele><time>2026-04-17T13:21:43.914Z</time></trkpt><trkpt lat="42.68377" lon="-8.55404"><ele>275.0</ele><time>2026-04-17T13:21:45.915Z</time></trkpt><trkpt lat="42.6838333" lon="-8.554005"><ele>275.0</ele><time>2026-04-17T13:21:46.914Z</time></trkpt><trkpt lat="42.683895" lon="-8.553965"><ele>275.0</ele><time>2026-04-17T13:21:47.914Z</time></trkpt><trkpt lat="42.6839783" lon="-8.55384"><ele>275.0</ele><time>2026-04-17T13:21:49.914Z</time></trkpt><trkpt lat="42.6839933" lon="-8.5537517"><ele>275.0</ele><time>2026-04-17T13:21:50.914Z</time></trkpt><trkpt lat="42.6839783" lon="-8.5536617"><ele>273.0</ele><time>2026-04-17T13:21:51.915Z</time></trkpt><trkpt lat="42.6839433" lon="-8.553575"><ele>271.0</ele><time>2026-04-17T13:21:52.914Z</time></trkpt><trkpt lat="42.6838767" lon="-8.553505"><ele>269.0</ele><time>2026-04-17T13:21:53.914Z</time></trkpt><trkpt lat="42.6837767" lon="-8.5534617"><ele>267.0</ele><time>2026-04-17T13:21:54.915Z</time></trkpt><trkpt lat="42.68367" lon="-8.5534367"><ele>265.0</ele><time>2026-04-17T13:21:55.914Z</time></trkpt><trkpt lat="42.683555" lon="-8.55343"><ele>262.2</ele><time>2026-04-17T13:21:56.914Z</time></trkpt><trkpt lat="42.6834467" lon="-8.5534267"><ele>259.4</ele><time>2026-04-17T13:21:57.915Z</time></trkpt><trkpt lat="42.6833383" lon="-8.5534167"><ele>256.6</ele><time>2026-04-17T13:21:58.915Z</time></trkpt><trkpt lat="42.6832317" lon="-8.5534067"><ele>253.8</ele><time>2026-04-17T13:21:59.915Z</time></trkpt><trkpt lat="42.6831233" lon="-8.5534"><ele>251.0</ele><time>2026-04-17T13:22:00.914Z</time></trkpt><trkpt lat="42.6830167" lon="-8.553395"><ele>251.0</ele><time>2026-04-17T13:22:01.914Z</time></trkpt><trkpt lat="42.68291" lon="-8.5533883"><ele>251.00000000000003</ele><time>2026-04-17T13:22:02.914Z</time></trkpt><trkpt lat="42.6828017" lon="-8.55338"><ele>251.00000000000003</ele><time>2026-04-17T13:22:03.914Z</time></trkpt><trkpt lat="42.68269" lon="-8.5533733"><ele>251.0</ele><time>2026-04-17T13:22:04.915Z</time></trkpt><trkpt lat="42.682575" lon="-8.553365"><ele>251.0</ele><time>2026-04-17T13:22:05.915Z</time></trkpt><trkpt lat="42.682465" lon="-8.55336"><ele>249.8</ele><time>2026-04-17T13:22:06.914Z</time></trkpt><trkpt lat="42.68236" lon="-8.5533583"><ele>248.60000000000002</ele><time>2026-04-17T13:22:07.914Z</time></trkpt><trkpt lat="42.6822583" lon="-8.55337"><ele>247.4</ele><time>2026-04-17T13:22:08.915Z</time></trkpt><trkpt lat="42.6821633" lon="-8.5534"><ele>246.2</ele><time>2026-04-17T13:22:09.915Z</time></trkpt><trkpt lat="42.6820717" lon="-8.55344"><ele>245.0</ele><time>2026-04-17T13:22:10.914Z</time></trkpt><trkpt lat="42.6819817" lon="-8.5534833"><ele>243.6</ele><time>2026-04-17T13:22:11.914Z</time></trkpt><trkpt lat="42.6819" lon="-8.5535283"><ele>242.2</ele><time>2026-04-17T13:22:12.914Z</time></trkpt><trkpt lat="42.68183" lon="-8.5535667"><ele>240.8</ele><time>2026-04-17T13:22:13.914Z</time></trkpt><trkpt lat="42.681745" lon="-8.5536133"><ele>239.4</ele><time>2026-04-17T13:22:15.914Z</time></trkpt><trkpt lat="42.68167" lon="-8.5536333"><ele>238.0</ele><time>2026-04-17T13:22:17.914Z</time></trkpt><trkpt lat="42.68154" lon="-8.5536733"><ele>237.49999999999997</ele><time>2026-04-17T13:22:19.915Z</time></trkpt><trkpt lat="42.6814617" lon="-8.5537217"><ele>237.0</ele><time>2026-04-17T13:22:20.914Z</time></trkpt><trkpt lat="42.6813833" lon="-8.5537733"><ele>236.5</ele><time>2026-04-17T13:22:21.914Z</time></trkpt><trkpt lat="42.6813067" lon="-8.55382"><ele>236.0</ele><time>2026-04-17T13:22:22.914Z</time></trkpt><trkpt lat="42.6812233" lon="-8.553855"><ele>235.49999999999997</ele><time>2026-04-17T13:22:23.914Z</time></trkpt><trkpt lat="42.681145" lon="-8.55387"><ele>235.0</ele><time>2026-04-17T13:22:24.914Z</time></trkpt><trkpt lat="42.681075" lon="-8.5538633"><ele>235.0</ele><time>2026-04-17T13:22:25.915Z</time></trkpt><trkpt lat="42.6809933" lon="-8.5538183"><ele>235.0</ele><time>2026-04-17T13:22:27.914Z</time></trkpt><trkpt lat="42.6809717" lon="-8.5537317"><ele>235.0</ele><time>2026-04-17T13:22:29.914Z</time></trkpt><trkpt lat="42.680975" lon="-8.5535467"><ele>235.0</ele><time>2026-04-17T13:22:31.915Z</time></trkpt><trkpt lat="42.68097" lon="-8.553425"><ele>235.0</ele><time>2026-04-17T13:22:32.914Z</time></trkpt><trkpt lat="42.6809533" lon="-8.5532917"><ele>234.5</ele><time>2026-04-17T13:22:33.915Z</time></trkpt><trkpt lat="42.68093" lon="-8.5531483"><ele>234.0</ele><time>2026-04-17T13:22:34.915Z</time></trkpt><trkpt lat="42.6809" lon="-8.5529983"><ele>233.5</ele><time>2026-04-17T13:22:35.916Z</time></trkpt><trkpt lat="42.6808633" lon="-8.55285"><ele>233.0</ele><time>2026-04-17T13:22:36.916Z</time></trkpt><trkpt lat="42.6808233" lon="-8.5527017"><ele>232.2</ele><time>2026-04-17T13:22:37.916Z</time></trkpt><trkpt lat="42.680785" lon="-8.552555"><ele>231.4</ele><time>2026-04-17T13:22:38.916Z</time></trkpt><trkpt lat="42.6807467" lon="-8.5524083"><ele>230.59999999999997</ele><time>2026-04-17T13:22:39.916Z</time></trkpt><trkpt lat="42.68071" lon="-8.5522667"><ele>229.79999999999998</ele><time>2026-04-17T13:22:40.916Z</time></trkpt><trkpt lat="42.6806733" lon="-8.5521317"><ele>229.0</ele><time>2026-04-17T13:22:41.916Z</time></trkpt><trkpt lat="42.6806383" lon="-8.5520033"><ele>228.2</ele><time>2026-04-17T13:22:42.916Z</time></trkpt><trkpt lat="42.6806" lon="-8.5518833"><ele>227.39999999999998</ele><time>2026-04-17T13:22:43.916Z</time></trkpt><trkpt lat="42.680555" lon="-8.551765"><ele>226.6</ele><time>2026-04-17T13:22:44.915Z</time></trkpt><trkpt lat="42.6805017" lon="-8.5516467"><ele>225.8</ele><time>2026-04-17T13:22:45.915Z</time></trkpt><trkpt lat="42.6804433" lon="-8.5515383"><ele>225.0</ele><time>2026-04-17T13:22:46.915Z</time></trkpt><trkpt lat="42.6803767" lon="-8.551445"><ele>225.0</ele><time>2026-04-17T13:22:47.916Z</time></trkpt><trkpt lat="42.6803017" lon="-8.55136"><ele>225.0</ele><time>2026-04-17T13:22:48.916Z</time></trkpt><trkpt lat="42.680225" lon="-8.5512783"><ele>225.0</ele><time>2026-04-17T13:22:49.916Z</time></trkpt><trkpt lat="42.6801433" lon="-8.551195"><ele>225.0</ele><time>2026-04-17T13:22:50.915Z</time></trkpt><trkpt lat="42.6800633" lon="-8.5511067"><ele>225.0</ele><time>2026-04-17T13:22:51.915Z</time></trkpt><trkpt lat="42.6799867" lon="-8.5510183"><ele>223.6</ele><time>2026-04-17T13:22:52.915Z</time></trkpt><trkpt lat="42.6799067" lon="-8.550935"><ele>222.2</ele><time>2026-04-17T13:22:53.915Z</time></trkpt><trkpt lat="42.679835" lon="-8.55086"><ele>220.8</ele><time>2026-04-17T13:22:54.915Z</time></trkpt><trkpt lat="42.6797767" lon="-8.550795"><ele>219.4</ele><time>2026-04-17T13:22:55.916Z</time></trkpt><trkpt lat="42.6797267" lon="-8.5506983"><ele>218.0</ele><time>2026-04-17T13:22:57.915Z</time></trkpt><trkpt lat="42.6797867" lon="-8.55059"><ele>218.0</ele><time>2026-04-17T13:22:59.916Z</time></trkpt><trkpt lat="42.679855" lon="-8.5505267"><ele>218.0</ele><time>2026-04-17T13:23:00.915Z</time></trkpt><trkpt lat="42.679935" lon="-8.5504567"><ele>218.0</ele><time>2026-04-17T13:23:01.915Z</time></trkpt><trkpt lat="42.68002" lon="-8.550375"><ele>218.0</ele><time>2026-04-17T13:23:02.915Z</time></trkpt><trkpt lat="42.6801" lon="-8.5502783"><ele>218.0</ele><time>2026-04-17T13:23:03.915Z</time></trkpt><trkpt lat="42.6801767" lon="-8.5501683"><ele>217.5</ele><time>2026-04-17T13:23:04.916Z</time></trkpt><trkpt lat="42.6802517" lon="-8.5500467"><ele>217.0</ele><time>2026-04-17T13:23:05.915Z</time></trkpt><trkpt lat="42.680325" lon="-8.5499183"><ele>216.5</ele><time>2026-04-17T13:23:06.916Z</time></trkpt><trkpt lat="42.6804017" lon="-8.5497883"><ele>216.0</ele><time>2026-04-17T13:23:07.916Z</time></trkpt><trkpt lat="42.6804783" lon="-8.5496567"><ele>218.5</ele><time>2026-04-17T13:23:08.915Z</time></trkpt><trkpt lat="42.6805533" lon="-8.5495267"><ele>221.0</ele><time>2026-04-17T13:23:09.915Z</time></trkpt><trkpt lat="42.680625" lon="-8.5494"><ele>223.5</ele><time>2026-04-17T13:23:10.915Z</time></trkpt><trkpt lat="42.6806983" lon="-8.549275"><ele>226.0</ele><time>2026-04-17T13:23:11.915Z</time></trkpt><trkpt lat="42.6807717" lon="-8.5491567"><ele>226.0</ele><time>2026-04-17T13:23:12.915Z</time></trkpt><trkpt lat="42.6808517" lon="-8.549045"><ele>226.00000000000003</ele><time>2026-04-17T13:23:13.916Z</time></trkpt><trkpt lat="42.680935" lon="-8.5489383"><ele>226.00000000000003</ele><time>2026-04-17T13:23:14.916Z</time></trkpt><trkpt lat="42.6810183" lon="-8.54884"><ele>226.0</ele><time>2026-04-17T13:23:15.915Z</time></trkpt><trkpt lat="42.6810983" lon="-8.5487433"><ele>226.0</ele><time>2026-04-17T13:23:16.915Z</time></trkpt><trkpt lat="42.681175" lon="-8.5486517"><ele>226.66666666666666</ele><time>2026-04-17T13:23:17.915Z</time></trkpt><trkpt lat="42.6812417" lon="-8.548565"><ele>227.33333333333331</ele><time>2026-04-17T13:23:18.916Z</time></trkpt><trkpt lat="42.6813067" lon="-8.5484933"><ele>228.0</ele><time>2026-04-17T13:23:19.916Z</time></trkpt><trkpt lat="42.68138" lon="-8.5484467"><ele>228.66666666666669</ele><time>2026-04-17T13:23:20.916Z</time></trkpt><trkpt lat="42.681465" lon="-8.54842"><ele>229.33333333333334</ele><time>2026-04-17T13:23:21.915Z</time></trkpt><trkpt lat="42.68156" lon="-8.5483967"><ele>230.0</ele><time>2026-04-17T13:23:22.916Z</time></trkpt><trkpt lat="42.681655" lon="-8.5483583"><ele>230.0</ele><time>2026-04-17T13:23:23.916Z</time></trkpt><trkpt lat="42.6817483" lon="-8.5482983"><ele>230.0</ele><time>2026-04-17T13:23:24.915Z</time></trkpt><trkpt lat="42.681845" lon="-8.5482233"><ele>230.0</ele><time>2026-04-17T13:23:25.916Z</time></trkpt><trkpt lat="42.6819467" lon="-8.54814"><ele>230.0</ele><time>2026-04-17T13:23:26.915Z</time></trkpt><trkpt lat="42.6820517" lon="-8.548055"><ele>230.25</ele><time>2026-04-17T13:23:27.915Z</time></trkpt><trkpt lat="42.68216" lon="-8.54797"><ele>230.5</ele><time>2026-04-17T13:23:28.916Z</time></trkpt><trkpt lat="42.68226" lon="-8.5478917"><ele>230.75</ele><time>2026-04-17T13:23:29.916Z</time></trkpt><trkpt lat="42.68236" lon="-8.5478167"><ele>231.0</ele><time>2026-04-17T13:23:30.916Z</time></trkpt><trkpt lat="42.6824533" lon="-8.5477433"><ele>231.0</ele><time>2026-04-17T13:23:31.916Z</time></trkpt><trkpt lat="42.682535" lon="-8.5476717"><ele>231.00000000000003</ele><time>2026-04-17T13:23:32.916Z</time></trkpt><trkpt lat="42.6826233" lon="-8.5476017"><ele>231.00000000000003</ele><time>2026-04-17T13:23:33.915Z</time></trkpt><trkpt lat="42.6827183" lon="-8.54753"><ele>231.0</ele><time>2026-04-17T13:23:34.915Z</time></trkpt><trkpt lat="42.6828183" lon="-8.5474583"><ele>231.0</ele><time>2026-04-17T13:23:35.916Z</time></trkpt><trkpt lat="42.6829183" lon="-8.5473833"><ele>232.25</ele><time>2026-04-17T13:23:36.915Z</time></trkpt><trkpt lat="42.6830217" lon="-8.54731"><ele>233.5</ele><time>2026-04-17T13:23:37.915Z</time></trkpt><trkpt lat="42.6831233" lon="-8.5472467"><ele>234.75</ele><time>2026-04-17T13:23:38.916Z</time></trkpt><trkpt lat="42.6832267" lon="-8.5471717"><ele>236.0</ele><time>2026-04-17T13:23:39.915Z</time></trkpt><trkpt lat="42.6833267" lon="-8.5471033"><ele>234.4</ele><time>2026-04-17T13:23:40.916Z</time></trkpt><trkpt lat="42.6834283" lon="-8.547035"><ele>232.8</ele><time>2026-04-17T13:23:41.916Z</time></trkpt><trkpt lat="42.68353" lon="-8.546965"><ele>231.20000000000002</ele><time>2026-04-17T13:23:42.916Z</time></trkpt><trkpt lat="42.6836283" lon="-8.5468967"><ele>229.60000000000002</ele><time>2026-04-17T13:23:43.915Z</time></trkpt><trkpt lat="42.6837267" lon="-8.54683"><ele>228.0</ele><time>2026-04-17T13:23:44.916Z</time></trkpt><trkpt lat="42.6838267" lon="-8.54677"><ele>227.8</ele><time>2026-04-17T13:23:45.915Z</time></trkpt><trkpt lat="42.6839217" lon="-8.5467217"><ele>227.60000000000002</ele><time>2026-04-17T13:23:46.916Z</time></trkpt><trkpt lat="42.684015" lon="-8.5466767"><ele>227.39999999999998</ele><time>2026-04-17T13:23:47.915Z</time></trkpt><trkpt lat="42.684115" lon="-8.54664"><ele>227.2</ele><time>2026-04-17T13:23:48.915Z</time></trkpt><trkpt lat="42.684215" lon="-8.5466183"><ele>227.0</ele><time>2026-04-17T13:23:49.915Z</time></trkpt><trkpt lat="42.6843167" lon="-8.5466167"><ele>227.0</ele><time>2026-04-17T13:23:50.916Z</time></trkpt><trkpt lat="42.6844233" lon="-8.5466317"><ele>227.0</ele><time>2026-04-17T13:23:51.915Z</time></trkpt><trkpt lat="42.6845267" lon="-8.5466667"><ele>227.0</ele><time>2026-04-17T13:23:52.916Z</time></trkpt><trkpt lat="42.6846233" lon="-8.54672"><ele>227.0</ele><time>2026-04-17T13:23:53.915Z</time></trkpt><trkpt lat="42.6847233" lon="-8.546805"><ele>227.0</ele><time>2026-04-17T13:23:54.915Z</time></trkpt><trkpt lat="42.6848217" lon="-8.5469133"><ele>227.0</ele><time>2026-04-17T13:23:55.915Z</time></trkpt><trkpt lat="42.6849067" lon="-8.5470233"><ele>227.0</ele><time>2026-04-17T13:23:56.915Z</time></trkpt><trkpt lat="42.6849883" lon="-8.54711"><ele>227.0</ele><time>2026-04-17T13:23:57.916Z</time></trkpt><trkpt lat="42.68508" lon="-8.54716"><ele>227.0</ele><time>2026-04-17T13:23:58.916Z</time></trkpt><trkpt lat="42.6851733" lon="-8.5471667"><ele>227.0</ele><time>2026-04-17T13:23:59.915Z</time></trkpt><trkpt lat="42.6852717" lon="-8.54712"><ele>223.25</ele><time>2026-04-17T13:24:00.916Z</time></trkpt><trkpt lat="42.6853767" lon="-8.547035"><ele>219.5</ele><time>2026-04-17T13:24:01.915Z</time></trkpt><trkpt lat="42.6854767" lon="-8.546935"><ele>215.75</ele><time>2026-04-17T13:24:02.916Z</time></trkpt><trkpt lat="42.68558" lon="-8.5468333"><ele>212.0</ele><time>2026-04-17T13:24:03.915Z</time></trkpt><trkpt lat="42.6856767" lon="-8.5467383"><ele>212.0</ele><time>2026-04-17T13:24:04.916Z</time></trkpt><trkpt lat="42.6857733" lon="-8.5466517"><ele>212.0</ele><time>2026-04-17T13:24:05.915Z</time></trkpt><trkpt lat="42.6858667" lon="-8.5465667"><ele>212.0</ele><time>2026-04-17T13:24:06.915Z</time></trkpt><trkpt lat="42.68596" lon="-8.5464817"><ele>212.0</ele><time>2026-04-17T13:24:07.915Z</time></trkpt><trkpt lat="42.68606" lon="-8.546395"><ele>213.25</ele><time>2026-04-17T13:24:08.916Z</time></trkpt><trkpt lat="42.68616" lon="-8.5463133"><ele>214.5</ele><time>2026-04-17T13:24:09.915Z</time></trkpt><trkpt lat="42.686265" lon="-8.5462467"><ele>215.75</ele><time>2026-04-17T13:24:10.916Z</time></trkpt><trkpt lat="42.6863733" lon="-8.5461883"><ele>217.0</ele><time>2026-04-17T13:24:11.915Z</time></trkpt><trkpt lat="42.6864867" lon="-8.5461383"><ele>213.0</ele><time>2026-04-17T13:24:12.915Z</time></trkpt><trkpt lat="42.6866" lon="-8.5461017"><ele>209.0</ele><time>2026-04-17T13:24:13.915Z</time></trkpt><trkpt lat="42.6867133" lon="-8.5460717"><ele>205.0</ele><time>2026-04-17T13:24:14.915Z</time></trkpt><trkpt lat="42.6868267" lon="-8.5460433"><ele>201.0</ele><time>2026-04-17T13:24:15.916Z</time></trkpt><trkpt lat="42.6869383" lon="-8.5460183"><ele>200.4</ele><time>2026-04-17T13:24:16.916Z</time></trkpt><trkpt lat="42.6870433" lon="-8.5460017"><ele>199.8</ele><time>2026-04-17T13:24:17.915Z</time></trkpt><trkpt lat="42.6871533" lon="-8.5459933"><ele>199.20000000000002</ele><time>2026-04-17T13:24:18.915Z</time></trkpt><trkpt lat="42.6872617" lon="-8.546"><ele>198.60000000000002</ele><time>2026-04-17T13:24:19.916Z</time></trkpt><trkpt lat="42.6873767" lon="-8.5460083"><ele>198.0</ele><time>2026-04-17T13:24:20.916Z</time></trkpt><trkpt lat="42.687495" lon="-8.5460133"><ele>198.0</ele><time>2026-04-17T13:24:21.916Z</time></trkpt><trkpt lat="42.6876117" lon="-8.5460033"><ele>198.0</ele><time>2026-04-17T13:24:22.916Z</time></trkpt><trkpt lat="42.6877283" lon="-8.545985"><ele>198.0</ele><time>2026-04-17T13:24:23.915Z</time></trkpt><trkpt lat="42.6878483" lon="-8.545965"><ele>198.0</ele><time>2026-04-17T13:24:24.915Z</time></trkpt><trkpt lat="42.68797" lon="-8.5459383"><ele>197.75</ele><time>2026-04-17T13:24:25.916Z</time></trkpt><trkpt lat="42.6880917" lon="-8.5459017"><ele>197.5</ele><time>2026-04-17T13:24:26.915Z</time></trkpt><trkpt lat="42.6882083" lon="-8.5458533"><ele>197.25</ele><time>2026-04-17T13:24:27.915Z</time></trkpt><trkpt lat="42.6883117" lon="-8.5457933"><ele>197.0</ele><time>2026-04-17T13:24:28.916Z</time></trkpt><trkpt lat="42.68842" lon="-8.54573"><ele>197.0</ele><time>2026-04-17T13:24:29.916Z</time></trkpt><trkpt lat="42.6885317" lon="-8.545665"><ele>197.0</ele><time>2026-04-17T13:24:30.916Z</time></trkpt><trkpt lat="42.6886417" lon="-8.54559"><ele>197.0</ele><time>2026-04-17T13:24:31.915Z</time></trkpt><trkpt lat="42.6887433" lon="-8.5455083"><ele>197.0</ele><time>2026-04-17T13:24:32.916Z</time></trkpt><trkpt lat="42.6888483" lon="-8.545435"><ele>192.25</ele><time>2026-04-17T13:24:33.916Z</time></trkpt><trkpt lat="42.6889517" lon="-8.5453733"><ele>187.5</ele><time>2026-04-17T13:24:34.915Z</time></trkpt><trkpt lat="42.68906" lon="-8.5453283"><ele>182.75</ele><time>2026-04-17T13:24:35.915Z</time></trkpt><trkpt lat="42.689175" lon="-8.54531"><ele>178.0</ele><time>2026-04-17T13:24:36.916Z</time></trkpt><trkpt lat="42.6892883" lon="-8.5453117"><ele>178.0</ele><time>2026-04-17T13:24:37.916Z</time></trkpt><trkpt lat="42.689405" lon="-8.545335"><ele>178.0</ele><time>2026-04-17T13:24:38.916Z</time></trkpt><trkpt lat="42.6895233" lon="-8.5453633"><ele>178.0</ele><time>2026-04-17T13:24:39.916Z</time></trkpt><trkpt lat="42.68964" lon="-8.545395"><ele>178.0</ele><time>2026-04-17T13:24:40.916Z</time></trkpt><trkpt lat="42.689755" lon="-8.54543"><ele>178.0</ele><time>2026-04-17T13:24:41.916Z</time></trkpt><trkpt lat="42.6898717" lon="-8.54548"><ele>178.0</ele><time>2026-04-17T13:24:42.915Z</time></trkpt><trkpt lat="42.68997" lon="-8.5455717"><ele>178.0</ele><time>2026-04-17T13:24:43.915Z</time></trkpt><trkpt lat="42.6900583" lon="-8.5456883"><ele>178.0</ele><time>2026-04-17T13:24:44.915Z</time></trkpt><trkpt lat="42.6901283" lon="-8.5458267"><ele>178.0</ele><time>2026-04-17T13:24:45.915Z</time></trkpt><trkpt lat="42.6901817" lon="-8.5459733"><ele>178.0</ele><time>2026-04-17T13:24:46.915Z</time></trkpt><trkpt lat="42.690225" lon="-8.5461267"><ele>178.0</ele><time>2026-04-17T13:24:47.915Z</time></trkpt><trkpt lat="42.690275" lon="-8.5462833"><ele>178.0</ele><time>2026-04-17T13:24:48.916Z</time></trkpt><trkpt lat="42.6903267" lon="-8.5464383"><ele>174.25</ele><time>2026-04-17T13:24:49.916Z</time></trkpt><trkpt lat="42.6903783" lon="-8.54659"><ele>170.5</ele><time>2026-04-17T13:24:50.915Z</time></trkpt><trkpt lat="42.6904333" lon="-8.54674"><ele>166.75</ele><time>2026-04-17T13:24:51.915Z</time></trkpt><trkpt lat="42.6904867" lon="-8.54689"><ele>163.0</ele><time>2026-04-17T13:24:52.916Z</time></trkpt><trkpt lat="42.69054" lon="-8.5470317"><ele>165.8</ele><time>2026-04-17T13:24:53.915Z</time></trkpt><trkpt lat="42.6906" lon="-8.547165"><ele>168.60000000000002</ele><time>2026-04-17T13:24:54.915Z</time></trkpt><trkpt lat="42.6906783" lon="-8.5472667"><ele>171.39999999999998</ele><time>2026-04-17T13:24:55.915Z</time></trkpt><trkpt lat="42.69077" lon="-8.5473417"><ele>174.2</ele><time>2026-04-17T13:24:56.916Z</time></trkpt><trkpt lat="42.6908667" lon="-8.5473917"><ele>177.0</ele><time>2026-04-17T13:24:57.916Z</time></trkpt><trkpt lat="42.6909717" lon="-8.5474167"><ele>177.0</ele><time>2026-04-17T13:24:58.916Z</time></trkpt><trkpt lat="42.6910833" lon="-8.5474033"><ele>177.0</ele><time>2026-04-17T13:24:59.916Z</time></trkpt><trkpt lat="42.6912017" lon="-8.5473667"><ele>177.0</ele><time>2026-04-17T13:25:00.916Z</time></trkpt><trkpt lat="42.6913233" lon="-8.54731"><ele>177.0</ele><time>2026-04-17T13:25:01.915Z</time></trkpt><trkpt lat="42.6914467" lon="-8.5472533"><ele>178.0</ele><time>2026-04-17T13:25:02.916Z</time></trkpt><trkpt lat="42.69157" lon="-8.5471967"><ele>179.0</ele><time>2026-04-17T13:25:03.915Z</time></trkpt><trkpt lat="42.6916883" lon="-8.54714"><ele>180.0</ele><time>2026-04-17T13:25:04.916Z</time></trkpt><trkpt lat="42.6917983" lon="-8.5470817"><ele>181.0</ele><time>2026-04-17T13:25:05.915Z</time></trkpt><trkpt lat="42.691905" lon="-8.547015"><ele>178.5</ele><time>2026-04-17T13:25:06.915Z</time></trkpt><trkpt lat="42.692005" lon="-8.5469183"><ele>176.0</ele><time>2026-04-17T13:25:07.915Z</time></trkpt><trkpt lat="42.6920967" lon="-8.5467733"><ele>173.5</ele><time>2026-04-17T13:25:08.916Z</time></trkpt><trkpt lat="42.6921783" lon="-8.5465767"><ele>171.0</ele><time>2026-04-17T13:25:09.915Z</time></trkpt><trkpt lat="42.692245" lon="-8.546345"><ele>168.66666666666666</ele><time>2026-04-17T13:25:10.915Z</time></trkpt><trkpt lat="42.69231" lon="-8.5461217"><ele>166.33333333333331</ele><time>2026-04-17T13:25:11.916Z</time></trkpt><trkpt lat="42.692365" lon="-8.5459133"><ele>164.0</ele><time>2026-04-17T13:25:12.916Z</time></trkpt><trkpt lat="42.69241" lon="-8.54574"><ele>164.0</ele><time>2026-04-17T13:25:13.916Z</time></trkpt><trkpt lat="42.6924367" lon="-8.5456317"><ele>164.0</ele><time>2026-04-17T13:25:14.915Z</time></trkpt><trkpt lat="42.6923067" lon="-8.5456267"><ele>164.0</ele><time>2026-04-17T13:25:19.916Z</time></trkpt><trkpt lat="42.6922217" lon="-8.5456833"><ele>164.0</ele><time>2026-04-17T13:25:20.916Z</time></trkpt><trkpt lat="42.6921033" lon="-8.5457683"><ele>164.0</ele><time>2026-04-17T13:25:21.915Z</time></trkpt><trkpt lat="42.6919617" lon="-8.545875"><ele>161.66666666666666</ele><time>2026-04-17T13:25:22.916Z</time></trkpt><trkpt lat="42.69179" lon="-8.5459967"><ele>159.33333333333334</ele><time>2026-04-17T13:25:23.916Z</time></trkpt><trkpt lat="42.691635" lon="-8.546105"><ele>157.0</ele><time>2026-04-17T13:25:24.915Z</time></trkpt><trkpt lat="42.6914933" lon="-8.546195"><ele>155.79999999999998</ele><time>2026-04-17T13:25:25.915Z</time></trkpt><trkpt lat="42.6913717" lon="-8.546255"><ele>154.6</ele><time>2026-04-17T13:25:26.916Z</time></trkpt><trkpt lat="42.6912867" lon="-8.5462783"><ele>153.39999999999998</ele><time>2026-04-17T13:25:27.915Z</time></trkpt><trkpt lat="42.691215" lon="-8.5462617"><ele>152.2</ele><time>2026-04-17T13:25:28.916Z</time></trkpt><trkpt lat="42.6911417" lon="-8.5462167"><ele>151.0</ele><time>2026-04-17T13:25:29.915Z</time></trkpt><trkpt lat="42.6910317" lon="-8.54614"><ele>151.0</ele><time>2026-04-17T13:25:30.915Z</time></trkpt><trkpt lat="42.6909167" lon="-8.546055"><ele>151.0</ele><time>2026-04-17T13:25:31.915Z</time></trkpt><trkpt lat="42.6908117" lon="-8.5459733"><ele>151.0</ele><time>2026-04-17T13:25:32.916Z</time></trkpt><trkpt lat="42.6907067" lon="-8.5458483"><ele>151.0</ele><time>2026-04-17T13:25:33.915Z</time></trkpt><trkpt lat="42.690645" lon="-8.54571"><ele>151.0</ele><time>2026-04-17T13:25:34.916Z</time></trkpt><trkpt lat="42.6906133" lon="-8.54556"><ele>151.0</ele><time>2026-04-17T13:25:35.915Z</time></trkpt><trkpt lat="42.6906017" lon="-8.54545"><ele>151.0</ele><time>2026-04-17T13:25:36.916Z</time></trkpt><trkpt lat="42.6905883" lon="-8.5453617"><ele>151.0</ele><time>2026-04-17T13:25:38.915Z</time></trkpt><trkpt lat="42.6906567" lon="-8.54528"><ele>151.0</ele><time>2026-04-17T13:25:41.916Z</time></trkpt><trkpt lat="42.6907167" lon="-8.54522"><ele>151.0</ele><time>2026-04-17T13:25:42.915Z</time></trkpt><trkpt lat="42.6908083" lon="-8.5451467"><ele>150.66666666666669</ele><time>2026-04-17T13:25:43.915Z</time></trkpt><trkpt lat="42.6909267" lon="-8.5450467"><ele>150.33333333333334</ele><time>2026-04-17T13:25:44.916Z</time></trkpt><trkpt lat="42.69109" lon="-8.5449117"><ele>150.0</ele><time>2026-04-17T13:25:45.916Z</time></trkpt><trkpt lat="42.6912917" lon="-8.544745"><ele>150.0</ele><time>2026-04-17T13:25:46.915Z</time></trkpt><trkpt lat="42.691525" lon="-8.54455"><ele>150.0</ele><time>2026-04-17T13:25:47.915Z</time></trkpt><trkpt lat="42.6917333" lon="-8.5444033"><ele>143.5</ele><time>2026-04-17T13:25:48.916Z</time></trkpt><trkpt lat="42.6920017" lon="-8.5442683"><ele>137.0</ele><time>2026-04-17T13:25:49.916Z</time></trkpt><trkpt lat="42.6922133" lon="-8.544195"><ele>137.0</ele><time>2026-04-17T13:25:50.916Z</time></trkpt><trkpt lat="42.6924033" lon="-8.5441317"><ele>137.0</ele><time>2026-04-17T13:25:51.915Z</time></trkpt><trkpt lat="42.69258" lon="-8.5440717"><ele>137.0</ele><time>2026-04-17T13:25:52.916Z</time></trkpt><trkpt lat="42.69273" lon="-8.5440033"><ele>138.0</ele><time>2026-04-17T13:25:53.915Z</time></trkpt><trkpt lat="42.6928317" lon="-8.543945"><ele>139.0</ele><time>2026-04-17T13:25:54.915Z</time></trkpt><trkpt lat="42.6929033" lon="-8.543895"><ele>140.0</ele><time>2026-04-17T13:25:55.915Z</time></trkpt><trkpt lat="42.69296" lon="-8.5438433"><ele>141.0</ele><time>2026-04-17T13:25:56.915Z</time></trkpt><trkpt lat="42.6929333" lon="-8.54375"><ele>142.0</ele><time>2026-04-17T13:25:59.916Z</time></trkpt><trkpt lat="42.6928367" lon="-8.5436417"><ele>140.83333333333334</ele><time>2026-04-17T13:26:01.915Z</time></trkpt><trkpt lat="42.6927633" lon="-8.5435983"><ele>139.66666666666669</ele><time>2026-04-17T13:26:02.916Z</time></trkpt><trkpt lat="42.69267" lon="-8.54356"><ele>138.5</ele><time>2026-04-17T13:26:03.916Z</time></trkpt><trkpt lat="42.6925833" lon="-8.5435517"><ele>137.33333333333334</ele><time>2026-04-17T13:26:04.915Z</time></trkpt><trkpt lat="42.6924933" lon="-8.5435517"><ele>136.16666666666666</ele><time>2026-04-17T13:26:05.916Z</time></trkpt><trkpt lat="42.6924233" lon="-8.54356"><ele>135.0</ele><time>2026-04-17T13:26:06.915Z</time></trkpt><trkpt lat="42.6923317" lon="-8.5435517"><ele>135.0</ele><time>2026-04-17T13:26:07.916Z</time></trkpt><trkpt lat="42.692245" lon="-8.5435133"><ele>135.0</ele><time>2026-04-17T13:26:08.915Z</time></trkpt><trkpt lat="42.692185" lon="-8.543455"><ele>135.0</ele><time>2026-04-17T13:26:09.915Z</time></trkpt><trkpt lat="42.6921333" lon="-8.543385"><ele>135.0</ele><time>2026-04-17T13:26:10.915Z</time></trkpt><trkpt lat="42.6920883" lon="-8.5433083"><ele>135.0</ele><time>2026-04-17T13:26:11.915Z</time></trkpt><trkpt lat="42.6920533" lon="-8.5431683"><ele>135.0</ele><time>2026-04-17T13:26:13.915Z</time></trkpt><trkpt lat="42.692045" lon="-8.5430583"><ele>135.0</ele><time>2026-04-17T13:26:14.916Z</time></trkpt><trkpt lat="42.6920033" lon="-8.5429917"><ele>135.0</ele><time>2026-04-17T13:26:15.916Z</time></trkpt><trkpt lat="42.6919433" lon="-8.5429317"><ele>135.0</ele><time>2026-04-17T13:26:16.915Z</time></trkpt><trkpt lat="42.6918733" lon="-8.5429117"><ele>135.0</ele><time>2026-04-17T13:26:17.916Z</time></trkpt><trkpt lat="42.6917683" lon="-8.542915"><ele>135.0</ele><time>2026-04-17T13:26:18.915Z</time></trkpt><trkpt lat="42.691625" lon="-8.542935"><ele>138.33333333333334</ele><time>2026-04-17T13:26:19.916Z</time></trkpt><trkpt lat="42.691415" lon="-8.54298"><ele>141.66666666666669</ele><time>2026-04-17T13:26:20.916Z</time></trkpt><trkpt lat="42.6912033" lon="-8.54301"><ele>145.0</ele><time>2026-04-17T13:26:21.915Z</time></trkpt><trkpt lat="42.691" lon="-8.5430117"><ele>149.0</ele><time>2026-04-17T13:26:22.915Z</time></trkpt><trkpt lat="42.6908" lon="-8.542985"><ele>153.0</ele><time>2026-04-17T13:26:23.915Z</time></trkpt><trkpt lat="42.6905933" lon="-8.54294"><ele>157.0</ele><time>2026-04-17T13:26:24.915Z</time></trkpt><trkpt lat="42.690385" lon="-8.54289"><ele>164.0</ele><time>2026-04-17T13:26:25.915Z</time></trkpt><trkpt lat="42.6902033" lon="-8.5428367"><ele>171.0</ele><time>2026-04-17T13:26:26.915Z</time></trkpt><trkpt lat="42.69006" lon="-8.5427917"><ele>178.0</ele><time>2026-04-17T13:26:27.915Z</time></trkpt><trkpt lat="42.6899867" lon="-8.5427517"><ele>185.0</ele><time>2026-04-17T13:26:28.916Z</time></trkpt><trkpt lat="42.6899917" lon="-8.5426633"><ele>185.0</ele><time>2026-04-17T13:26:32.916Z</time></trkpt><trkpt lat="42.690095" lon="-8.5426117"><ele>185.0</ele><time>2026-04-17T13:26:34.916Z</time></trkpt><trkpt lat="42.6901617" lon="-8.5425667"><ele>185.0</ele><time>2026-04-17T13:26:35.915Z</time></trkpt><trkpt lat="42.69023" lon="-8.542475"><ele>185.0</ele><time>2026-04-17T13:26:37.915Z</time></trkpt><trkpt lat="42.690245" lon="-8.5423833"><ele>185.0</ele><time>2026-04-17T13:26:39.916Z</time></trkpt><trkpt lat="42.69017" lon="-8.5422783"><ele>185.0</ele><time>2026-04-17T13:26:41.916Z</time></trkpt><trkpt lat="42.6900967" lon="-8.5422183"><ele>185.0</ele><time>2026-04-17T13:26:42.915Z</time></trkpt><trkpt lat="42.6899533" lon="-8.5421267"><ele>185.0</ele><time>2026-04-17T13:26:43.916Z</time></trkpt><trkpt lat="42.6898167" lon="-8.54203"><ele>185.0</ele><time>2026-04-17T13:26:44.915Z</time></trkpt><trkpt lat="42.6896917" lon="-8.54193"><ele>189.4</ele><time>2026-04-17T13:26:45.916Z</time></trkpt><trkpt lat="42.6895883" lon="-8.5418267"><ele>193.8</ele><time>2026-04-17T13:26:46.916Z</time></trkpt><trkpt lat="42.68954" lon="-8.5417517"><ele>198.2</ele><time>2026-04-17T13:26:47.915Z</time></trkpt><trkpt lat="42.689495" lon="-8.541635"><ele>202.6</ele><time>2026-04-17T13:26:49.915Z</time></trkpt><trkpt lat="42.6895083" lon="-8.541545"><ele>207.0</ele><time>2026-04-17T13:26:51.915Z</time></trkpt><trkpt lat="42.6896017" lon="-8.5414733"><ele>207.0</ele><time>2026-04-17T13:26:53.915Z</time></trkpt><trkpt lat="42.68969" lon="-8.5414433"><ele>207.0</ele><time>2026-04-17T13:26:54.916Z</time></trkpt><trkpt lat="42.6898133" lon="-8.5413917"><ele>207.0</ele><time>2026-04-17T13:26:55.916Z</time></trkpt><trkpt lat="42.6899383" lon="-8.5413067"><ele>207.0</ele><time>2026-04-17T13:26:56.915Z</time></trkpt><trkpt lat="42.6900467" lon="-8.5412167"><ele>209.0</ele><time>2026-04-17T13:26:57.915Z</time></trkpt><trkpt lat="42.6901217" lon="-8.541115"><ele>211.0</ele><time>2026-04-17T13:26:58.916Z</time></trkpt><trkpt lat="42.690195" lon="-8.5409717"><ele>213.0</ele><time>2026-04-17T13:26:59.915Z</time></trkpt><trkpt lat="42.690265" lon="-8.5408017"><ele>215.0</ele><time>2026-04-17T13:27:00.915Z</time></trkpt><trkpt lat="42.690335" lon="-8.5406083"><ele>215.0</ele><time>2026-04-17T13:27:01.915Z</time></trkpt><trkpt lat="42.6904117" lon="-8.540405"><ele>215.0</ele><time>2026-04-17T13:27:02.915Z</time></trkpt><trkpt lat="42.690485" lon="-8.54021"><ele>215.0</ele><time>2026-04-17T13:27:03.915Z</time></trkpt><trkpt lat="42.69054" lon="-8.540045"><ele>217.5</ele><time>2026-04-17T13:27:04.916Z</time></trkpt><trkpt lat="42.6905783" lon="-8.5399117"><ele>220.0</ele><time>2026-04-17T13:27:05.916Z</time></trkpt><trkpt lat="42.6906017" lon="-8.5398183"><ele>222.5</ele><time>2026-04-17T13:27:06.915Z</time></trkpt><trkpt lat="42.6906533" lon="-8.539685"><ele>225.0</ele><time>2026-04-17T13:27:08.916Z</time></trkpt><trkpt lat="42.6907467" lon="-8.5394883"><ele>226.83333333333334</ele><time>2026-04-17T13:27:10.915Z</time></trkpt><trkpt lat="42.6907933" lon="-8.5393667"><ele>228.66666666666669</ele><time>2026-04-17T13:27:11.915Z</time></trkpt><trkpt lat="42.6908433" lon="-8.5392567"><ele>230.5</ele><time>2026-04-17T13:27:12.916Z</time></trkpt><trkpt lat="42.69088" lon="-8.5391833"><ele>232.33333333333334</ele><time>2026-04-17T13:27:13.915Z</time></trkpt><trkpt lat="42.690975" lon="-8.5392233"><ele>234.16666666666669</ele><time>2026-04-17T13:27:17.916Z</time></trkpt><trkpt lat="42.6910333" lon="-8.5393033"><ele>236.0</ele><time>2026-04-17T13:27:18.916Z</time></trkpt><trkpt lat="42.6910983" lon="-8.53939"><ele>236.0</ele><time>2026-04-17T13:27:19.915Z</time></trkpt><trkpt lat="42.69118" lon="-8.5394583"><ele>236.00000000000003</ele><time>2026-04-17T13:27:20.916Z</time></trkpt><trkpt lat="42.6912717" lon="-8.539495"><ele>236.00000000000003</ele><time>2026-04-17T13:27:21.916Z</time></trkpt><trkpt lat="42.6913883" lon="-8.5395033"><ele>236.0</ele><time>2026-04-17T13:27:22.915Z</time></trkpt><trkpt lat="42.6915133" lon="-8.5394533"><ele>236.0</ele><time>2026-04-17T13:27:23.915Z</time></trkpt><trkpt lat="42.6916383" lon="-8.5393817"><ele>236.0</ele><time>2026-04-17T13:27:24.916Z</time></trkpt><trkpt lat="42.6917817" lon="-8.5392917"><ele>236.0</ele><time>2026-04-17T13:27:25.915Z</time></trkpt><trkpt lat="42.6919317" lon="-8.5391967"><ele>236.0</ele><time>2026-04-17T13:27:26.915Z</time></trkpt><trkpt lat="42.692085" lon="-8.539095"><ele>232.75</ele><time>2026-04-17T13:27:27.915Z</time></trkpt><trkpt lat="42.6922333" lon="-8.5389967"><ele>229.5</ele><time>2026-04-17T13:27:28.915Z</time></trkpt><trkpt lat="42.6923617" lon="-8.5389067"><ele>226.25</ele><time>2026-04-17T13:27:29.916Z</time></trkpt><trkpt lat="42.6924717" lon="-8.5388283"><ele>223.0</ele><time>2026-04-17T13:27:30.916Z</time></trkpt><trkpt lat="42.6925817" lon="-8.5387667"><ele>223.0</ele><time>2026-04-17T13:27:31.916Z</time></trkpt><trkpt lat="42.6926883" lon="-8.53872"><ele>223.0</ele><time>2026-04-17T13:27:32.916Z</time></trkpt><trkpt lat="42.69279" lon="-8.5386867"><ele>223.0</ele><time>2026-04-17T13:27:33.916Z</time></trkpt><trkpt lat="42.6928917" lon="-8.5386683"><ele>223.0</ele><time>2026-04-17T13:27:34.915Z</time></trkpt><trkpt lat="42.69299" lon="-8.5386533"><ele>223.0</ele><time>2026-04-17T13:27:35.916Z</time></trkpt><trkpt lat="42.6930783" lon="-8.5386417"><ele>222.2</ele><time>2026-04-17T13:27:36.915Z</time></trkpt><trkpt lat="42.6931567" lon="-8.5386383"><ele>221.4</ele><time>2026-04-17T13:27:37.915Z</time></trkpt><trkpt lat="42.69327" lon="-8.5386667"><ele>220.59999999999997</ele><time>2026-04-17T13:27:39.916Z</time></trkpt><trkpt lat="42.69338" lon="-8.53872"><ele>219.79999999999998</ele><time>2026-04-17T13:27:41.916Z</time></trkpt><trkpt lat="42.6935167" lon="-8.538755"><ele>219.0</ele><time>2026-04-17T13:27:43.915Z</time></trkpt><trkpt lat="42.6936" lon="-8.5387733"><ele>212.6</ele><time>2026-04-17T13:27:44.916Z</time></trkpt><trkpt lat="42.69369" lon="-8.5387917"><ele>206.2</ele><time>2026-04-17T13:27:45.915Z</time></trkpt><trkpt lat="42.6937783" lon="-8.5388033"><ele>199.79999999999998</ele><time>2026-04-17T13:27:46.915Z</time></trkpt><trkpt lat="42.6938717" lon="-8.53881"><ele>193.39999999999998</ele><time>2026-04-17T13:27:47.916Z</time></trkpt><trkpt lat="42.6939717" lon="-8.538815"><ele>187.0</ele><time>2026-04-17T13:27:48.915Z</time></trkpt><trkpt lat="42.694075" lon="-8.5388233"><ele>187.0</ele><time>2026-04-17T13:27:49.916Z</time></trkpt><trkpt lat="42.694165" lon="-8.5388333"><ele>187.0</ele><time>2026-04-17T13:27:50.916Z</time></trkpt><trkpt lat="42.6942383" lon="-8.5388433"><ele>187.0</ele><time>2026-04-17T13:27:51.915Z</time></trkpt><trkpt lat="42.6943517" lon="-8.5388433"><ele>187.0</ele><time>2026-04-17T13:27:53.915Z</time></trkpt><trkpt lat="42.6944217" lon="-8.5388467"><ele>187.0</ele><time>2026-04-17T13:27:54.916Z</time></trkpt><trkpt lat="42.6945083" lon="-8.5388433"><ele>187.0</ele><time>2026-04-17T13:27:55.915Z</time></trkpt><trkpt lat="42.6945933" lon="-8.538835"><ele>186.6</ele><time>2026-04-17T13:27:56.915Z</time></trkpt><trkpt lat="42.694685" lon="-8.53882"><ele>186.2</ele><time>2026-04-17T13:27:57.915Z</time></trkpt><trkpt lat="42.6947617" lon="-8.5387883"><ele>185.8</ele><time>2026-04-17T13:27:58.916Z</time></trkpt><trkpt lat="42.69484" lon="-8.53873"><ele>185.4</ele><time>2026-04-17T13:27:59.916Z</time></trkpt><trkpt lat="42.69492" lon="-8.5386"><ele>185.0</ele><time>2026-04-17T13:28:00.915Z</time></trkpt><trkpt lat="42.6949817" lon="-8.5384517"><ele>185.0</ele><time>2026-04-17T13:28:01.915Z</time></trkpt><trkpt lat="42.6950267" lon="-8.53832"><ele>185.0</ele><time>2026-04-17T13:28:02.915Z</time></trkpt><trkpt lat="42.69508" lon="-8.53821"><ele>185.0</ele><time>2026-04-17T13:28:03.915Z</time></trkpt><trkpt lat="42.69513" lon="-8.53808"><ele>185.0</ele><time>2026-04-17T13:28:04.916Z</time></trkpt><trkpt lat="42.69517" lon="-8.53792"><ele>185.0</ele><time>2026-04-17T13:28:05.916Z</time></trkpt><trkpt lat="42.6952167" lon="-8.5377483"><ele>187.0</ele><time>2026-04-17T13:28:06.915Z</time></trkpt><trkpt lat="42.6952633" lon="-8.5375633"><ele>189.0</ele><time>2026-04-17T13:28:07.915Z</time></trkpt><trkpt lat="42.695315" lon="-8.537365"><ele>191.0</ele><time>2026-04-17T13:28:08.915Z</time></trkpt><trkpt lat="42.695365" lon="-8.5371567"><ele>195.33333333333331</ele><time>2026-04-17T13:28:09.915Z</time></trkpt><trkpt lat="42.6953983" lon="-8.5369383"><ele>199.66666666666666</ele><time>2026-04-17T13:28:10.915Z</time></trkpt><trkpt lat="42.695415" lon="-8.5367283"><ele>204.0</ele><time>2026-04-17T13:28:11.916Z</time></trkpt><trkpt lat="42.6954267" lon="-8.53653"><ele>204.0</ele><time>2026-04-17T13:28:12.915Z</time></trkpt><trkpt lat="42.6954417" lon="-8.5363483"><ele>204.0</ele><time>2026-04-17T13:28:13.915Z</time></trkpt><trkpt lat="42.695465" lon="-8.5362033"><ele>204.0</ele><time>2026-04-17T13:28:14.916Z</time></trkpt><trkpt lat="42.6954817" lon="-8.5361067"><ele>204.0</ele><time>2026-04-17T13:28:15.916Z</time></trkpt><trkpt lat="42.69551" lon="-8.536195"><ele>204.0</ele><time>2026-04-17T13:28:20.916Z</time></trkpt><trkpt lat="42.6956" lon="-8.5362533"><ele>204.0</ele><time>2026-04-17T13:28:22.915Z</time></trkpt><trkpt lat="42.6956633" lon="-8.5363"><ele>204.0</ele><time>2026-04-17T13:28:23.916Z</time></trkpt><trkpt lat="42.6957483" lon="-8.5363617"><ele>204.0</ele><time>2026-04-17T13:28:24.915Z</time></trkpt><trkpt lat="42.6958433" lon="-8.53644"><ele>204.0</ele><time>2026-04-17T13:28:25.915Z</time></trkpt><trkpt lat="42.695985" lon="-8.53657"><ele>204.0</ele><time>2026-04-17T13:28:26.916Z</time></trkpt><trkpt lat="42.6961383" lon="-8.5367217"><ele>204.0</ele><time>2026-04-17T13:28:27.915Z</time></trkpt><trkpt lat="42.69631" lon="-8.536905"><ele>204.0</ele><time>2026-04-17T13:28:28.916Z</time></trkpt><trkpt lat="42.6965017" lon="-8.5370883"><ele>202.0</ele><time>2026-04-17T13:28:29.916Z</time></trkpt><trkpt lat="42.69673" lon="-8.5372883"><ele>200.0</ele><time>2026-04-17T13:28:30.915Z</time></trkpt><trkpt lat="42.6969217" lon="-8.5374567"><ele>200.0</ele><time>2026-04-17T13:28:31.916Z</time></trkpt><trkpt lat="42.69708" lon="-8.5375817"><ele>200.0</ele><time>2026-04-17T13:28:32.916Z</time></trkpt><trkpt lat="42.697225" lon="-8.5376833"><ele>200.0</ele><time>2026-04-17T13:28:33.916Z</time></trkpt><trkpt lat="42.6973783" lon="-8.5377683"><ele>200.0</ele><time>2026-04-17T13:28:34.916Z</time></trkpt><trkpt lat="42.69753" lon="-8.5378217"><ele>200.0</ele><time>2026-04-17T13:28:35.916Z</time></trkpt><trkpt lat="42.6976817" lon="-8.53783"><ele>200.0</ele><time>2026-04-17T13:28:36.915Z</time></trkpt><trkpt lat="42.69784" lon="-8.5378067"><ele>198.0</ele><time>2026-04-17T13:28:37.915Z</time></trkpt><trkpt lat="42.6980133" lon="-8.5377633"><ele>196.0</ele><time>2026-04-17T13:28:38.916Z</time></trkpt><trkpt lat="42.6982067" lon="-8.5377167"><ele>194.0</ele><time>2026-04-17T13:28:39.916Z</time></trkpt><trkpt lat="42.6984067" lon="-8.5376783"><ele>188.33333333333334</ele><time>2026-04-17T13:28:40.916Z</time></trkpt><trkpt lat="42.6986017" lon="-8.5376367"><ele>182.66666666666669</ele><time>2026-04-17T13:28:41.915Z</time></trkpt><trkpt lat="42.6987783" lon="-8.5375967"><ele>177.0</ele><time>2026-04-17T13:28:42.916Z</time></trkpt><trkpt lat="42.6989433" lon="-8.5375517"><ele>177.0</ele><time>2026-04-17T13:28:43.916Z</time></trkpt><trkpt lat="42.69908" lon="-8.5375183"><ele>177.0</ele><time>2026-04-17T13:28:44.916Z</time></trkpt><trkpt lat="42.6991867" lon="-8.5374983"><ele>177.0</ele><time>2026-04-17T13:28:45.915Z</time></trkpt><trkpt lat="42.69926" lon="-8.5374733"><ele>177.0</ele><time>2026-04-17T13:28:46.916Z</time></trkpt><trkpt lat="42.69933" lon="-8.5374"><ele>177.0</ele><time>2026-04-17T13:28:48.915Z</time></trkpt><trkpt lat="42.6993333" lon="-8.5372683"><ele>177.0</ele><time>2026-04-17T13:28:50.915Z</time></trkpt><trkpt lat="42.69928" lon="-8.5371283"><ele>177.0</ele><time>2026-04-17T13:28:52.916Z</time></trkpt><trkpt lat="42.699245" lon="-8.5370567"><ele>177.0</ele><time>2026-04-17T13:28:53.916Z</time></trkpt><trkpt lat="42.6991933" lon="-8.5369717"><ele>177.0</ele><time>2026-04-17T13:28:54.916Z</time></trkpt><trkpt lat="42.69913" lon="-8.5368867"><ele>177.0</ele><time>2026-04-17T13:28:55.915Z</time></trkpt><trkpt lat="42.6990567" lon="-8.5367967"><ele>177.0</ele><time>2026-04-17T13:28:56.916Z</time></trkpt><trkpt lat="42.6989667" lon="-8.536715"><ele>177.25</ele><time>2026-04-17T13:28:57.915Z</time></trkpt><trkpt lat="42.6988383" lon="-8.5366417"><ele>177.5</ele><time>2026-04-17T13:28:58.916Z</time></trkpt><trkpt lat="42.6987" lon="-8.53656"><ele>177.75</ele><time>2026-04-17T13:28:59.915Z</time></trkpt><trkpt lat="42.698565" lon="-8.5364667"><ele>178.0</ele><time>2026-04-17T13:29:00.916Z</time></trkpt><trkpt lat="42.6984283" lon="-8.5363683"><ele>182.0</ele><time>2026-04-17T13:29:01.916Z</time></trkpt><trkpt lat="42.6983033" lon="-8.5362467"><ele>186.0</ele><time>2026-04-17T13:29:02.916Z</time></trkpt><trkpt lat="42.69819" lon="-8.5361033"><ele>190.0</ele><time>2026-04-17T13:29:03.916Z</time></trkpt><trkpt lat="42.6980783" lon="-8.5359367"><ele>190.0</ele><time>2026-04-17T13:29:04.915Z</time></trkpt><trkpt lat="42.697965" lon="-8.53575"><ele>190.0</ele><time>2026-04-17T13:29:05.916Z</time></trkpt><trkpt lat="42.6978683" lon="-8.535575"><ele>190.0</ele><time>2026-04-17T13:29:06.915Z</time></trkpt><trkpt lat="42.69779" lon="-8.5354217"><ele>196.0</ele><time>2026-04-17T13:29:07.916Z</time></trkpt><trkpt lat="42.6977367" lon="-8.5352833"><ele>202.0</ele><time>2026-04-17T13:29:08.916Z</time></trkpt><trkpt lat="42.6977033" lon="-8.5351433"><ele>208.0</ele><time>2026-04-17T13:29:09.916Z</time></trkpt><trkpt lat="42.69769" lon="-8.5349733"><ele>214.0</ele><time>2026-04-17T13:29:10.916Z</time></trkpt><trkpt lat="42.697695" lon="-8.5347817"><ele>214.0</ele><time>2026-04-17T13:29:11.915Z</time></trkpt><trkpt lat="42.6977067" lon="-8.534575"><ele>214.0</ele><time>2026-04-17T13:29:12.916Z</time></trkpt><trkpt lat="42.69774" lon="-8.5343717"><ele>214.0</ele><time>2026-04-17T13:29:13.916Z</time></trkpt><trkpt lat="42.6978033" lon="-8.5341733"><ele>204.33333333333331</ele><time>2026-04-17T13:29:14.915Z</time></trkpt><trkpt lat="42.6978633" lon="-8.5339717"><ele>194.66666666666666</ele><time>2026-04-17T13:29:15.915Z</time></trkpt><trkpt lat="42.6979267" lon="-8.53378"><ele>185.0</ele><time>2026-04-17T13:29:16.915Z</time></trkpt><trkpt lat="42.697985" lon="-8.53359"><ele>185.0</ele><time>2026-04-17T13:29:17.916Z</time></trkpt><trkpt lat="42.6980367" lon="-8.5334117"><ele>185.0</ele><time>2026-04-17T13:29:18.916Z</time></trkpt><trkpt lat="42.698085" lon="-8.5332583"><ele>185.0</ele><time>2026-04-17T13:29:19.916Z</time></trkpt><trkpt lat="42.6981067" lon="-8.5331517"><ele>185.0</ele><time>2026-04-17T13:29:20.916Z</time></trkpt><trkpt lat="42.69808" lon="-8.5330733"><ele>185.0</ele><time>2026-04-17T13:29:21.915Z</time></trkpt><trkpt lat="42.6980383" lon="-8.5329767"><ele>185.0</ele><time>2026-04-17T13:29:22.916Z</time></trkpt><trkpt lat="42.6979817" lon="-8.5328783"><ele>185.0</ele><time>2026-04-17T13:29:23.916Z</time></trkpt><trkpt lat="42.6979083" lon="-8.5327533"><ele>185.0</ele><time>2026-04-17T13:29:24.916Z</time></trkpt><trkpt lat="42.6978533" lon="-8.532625"><ele>185.0</ele><time>2026-04-17T13:29:25.916Z</time></trkpt><trkpt lat="42.6978217" lon="-8.5324983"><ele>185.0</ele><time>2026-04-17T13:29:26.915Z</time></trkpt><trkpt lat="42.6978" lon="-8.5323617"><ele>185.0</ele><time>2026-04-17T13:29:27.915Z</time></trkpt><trkpt lat="42.697785" lon="-8.53222"><ele>185.0</ele><time>2026-04-17T13:29:28.916Z</time></trkpt><trkpt lat="42.6977817" lon="-8.5320983"><ele>185.0</ele><time>2026-04-17T13:29:29.915Z</time></trkpt><trkpt lat="42.6977883" lon="-8.5320083"><ele>185.0</ele><time>2026-04-17T13:29:30.915Z</time></trkpt><trkpt lat="42.697835" lon="-8.5319183"><ele>185.0</ele><time>2026-04-17T13:29:32.916Z</time></trkpt><trkpt lat="42.69796" lon="-8.53197"><ele>185.0</ele><time>2026-04-17T13:29:34.915Z</time></trkpt><trkpt lat="42.6980117" lon="-8.5320383"><ele>185.0</ele><time>2026-04-17T13:29:35.915Z</time></trkpt><trkpt lat="42.6980883" lon="-8.5321467"><ele>185.0</ele><time>2026-04-17T13:29:36.916Z</time></trkpt><trkpt lat="42.6982667" lon="-8.5323333"><ele>185.0</ele><time>2026-04-17T13:29:37.916Z</time></trkpt><trkpt lat="42.6983967" lon="-8.5324083"><ele>185.0</ele><time>2026-04-17T13:29:38.915Z</time></trkpt><trkpt lat="42.6985117" lon="-8.5325"><ele>185.0</ele><time>2026-04-17T13:29:39.916Z</time></trkpt><trkpt lat="42.6986333" lon="-8.5325967"><ele>185.0</ele><time>2026-04-17T13:29:40.915Z</time></trkpt><trkpt lat="42.698765" lon="-8.5326783"><ele>185.0</ele><time>2026-04-17T13:29:41.916Z</time></trkpt><trkpt lat="42.6989033" lon="-8.5327467"><ele>186.0</ele><time>2026-04-17T13:29:42.916Z</time></trkpt><trkpt lat="42.699045" lon="-8.5327933"><ele>187.0</ele><time>2026-04-17T13:29:43.916Z</time></trkpt><trkpt lat="42.6991767" lon="-8.5328133"><ele>188.0</ele><time>2026-04-17T13:29:44.915Z</time></trkpt><trkpt lat="42.699305" lon="-8.5328217"><ele>189.0</ele><time>2026-04-17T13:29:45.915Z</time></trkpt><trkpt lat="42.6994267" lon="-8.5327983"><ele>190.0</ele><time>2026-04-17T13:29:46.916Z</time></trkpt><trkpt lat="42.6995517" lon="-8.532765"><ele>191.0</ele><time>2026-04-17T13:29:47.915Z</time></trkpt><trkpt lat="42.6996883" lon="-8.5327283"><ele>192.0</ele><time>2026-04-17T13:29:48.916Z</time></trkpt><trkpt lat="42.699825" lon="-8.532695"><ele>193.0</ele><time>2026-04-17T13:29:49.915Z</time></trkpt><trkpt lat="42.699965" lon="-8.5326567"><ele>193.0</ele><time>2026-04-17T13:29:50.916Z</time></trkpt><trkpt lat="42.70009" lon="-8.53259"><ele>193.0</ele><time>2026-04-17T13:29:51.915Z</time></trkpt><trkpt lat="42.700145" lon="-8.5325317"><ele>193.0</ele><time>2026-04-17T13:29:52.915Z</time></trkpt><trkpt lat="42.7001567" lon="-8.532435"><ele>193.0</ele><time>2026-04-17T13:29:54.916Z</time></trkpt><trkpt lat="42.700165" lon="-8.5322883"><ele>193.0</ele><time>2026-04-17T13:29:56.915Z</time></trkpt><trkpt lat="42.7001317" lon="-8.5322067"><ele>192.99999999999997</ele><time>2026-04-17T13:29:57.916Z</time></trkpt><trkpt lat="42.7000567" lon="-8.5321217"><ele>193.0</ele><time>2026-04-17T13:29:58.916Z</time></trkpt><trkpt lat="42.6999933" lon="-8.53206"><ele>193.0</ele><time>2026-04-17T13:29:59.915Z</time></trkpt><trkpt lat="42.6999133" lon="-8.5319867"><ele>193.0</ele><time>2026-04-17T13:30:01.916Z</time></trkpt><trkpt lat="42.69985" lon="-8.531915"><ele>192.99999999999997</ele><time>2026-04-17T13:30:03.916Z</time></trkpt><trkpt lat="42.6997933" lon="-8.5318667"><ele>193.0</ele><time>2026-04-17T13:30:04.915Z</time></trkpt><trkpt lat="42.699735" lon="-8.5318017"><ele>195.60000000000002</ele><time>2026-04-17T13:30:05.915Z</time></trkpt><trkpt lat="42.6996583" lon="-8.5317217"><ele>198.20000000000002</ele><time>2026-04-17T13:30:06.915Z</time></trkpt><trkpt lat="42.6995733" lon="-8.5316233"><ele>200.8</ele><time>2026-04-17T13:30:07.915Z</time></trkpt><trkpt lat="42.6995017" lon="-8.5315283"><ele>203.4</ele><time>2026-04-17T13:30:08.916Z</time></trkpt><trkpt lat="42.6994483" lon="-8.5314433"><ele>206.0</ele><time>2026-04-17T13:30:09.916Z</time></trkpt><trkpt lat="42.6994167" lon="-8.5313533"><ele>208.16666666666669</ele><time>2026-04-17T13:30:10.916Z</time></trkpt><trkpt lat="42.6994033" lon="-8.5312167"><ele>210.33333333333334</ele><time>2026-04-17T13:30:12.916Z</time></trkpt><trkpt lat="42.699505" lon="-8.5311567"><ele>212.5</ele><time>2026-04-17T13:30:14.915Z</time></trkpt><trkpt lat="42.6995683" lon="-8.5311133"><ele>214.66666666666669</ele><time>2026-04-17T13:30:15.916Z</time></trkpt><trkpt lat="42.69963" lon="-8.5310683"><ele>216.83333333333334</ele><time>2026-04-17T13:30:16.915Z</time></trkpt><trkpt lat="42.6997" lon="-8.5310033"><ele>219.0</ele><time>2026-04-17T13:30:17.915Z</time></trkpt><trkpt lat="42.6997733" lon="-8.5309233"><ele>219.5</ele><time>2026-04-17T13:30:18.915Z</time></trkpt><trkpt lat="42.699835" lon="-8.5308383"><ele>220.0</ele><time>2026-04-17T13:30:19.916Z</time></trkpt><trkpt lat="42.6998917" lon="-8.5307567"><ele>220.5</ele><time>2026-04-17T13:30:20.916Z</time></trkpt><trkpt lat="42.6999367" lon="-8.53067"><ele>221.0</ele><time>2026-04-17T13:30:21.916Z</time></trkpt><trkpt lat="42.6999733" lon="-8.5305683"><ele>221.5</ele><time>2026-04-17T13:30:22.916Z</time></trkpt><trkpt lat="42.6999967" lon="-8.5304667"><ele>222.0</ele><time>2026-04-17T13:30:23.916Z</time></trkpt><trkpt lat="42.7000067" lon="-8.53034"><ele>223.66666666666666</ele><time>2026-04-17T13:30:24.916Z</time></trkpt><trkpt lat="42.7000033" lon="-8.53021"><ele>225.33333333333331</ele><time>2026-04-17T13:30:25.915Z</time></trkpt><trkpt lat="42.699995" lon="-8.530085"><ele>227.0</ele><time>2026-04-17T13:30:26.916Z</time></trkpt><trkpt lat="42.7" lon="-8.5299817"><ele>228.66666666666666</ele><time>2026-04-17T13:30:27.916Z</time></trkpt><trkpt lat="42.7000167" lon="-8.529895"><ele>230.33333333333331</ele><time>2026-04-17T13:30:28.916Z</time></trkpt><trkpt lat="42.7000133" lon="-8.529795"><ele>232.0</ele><time>2026-04-17T13:30:46.915Z</time></trkpt><trkpt lat="42.7000083" lon="-8.5296383"><ele>234.39999999999998</ele><time>2026-04-17T13:30:48.915Z</time></trkpt><trkpt lat="42.7" lon="-8.5295367"><ele>236.79999999999998</ele><time>2026-04-17T13:30:49.916Z</time></trkpt><trkpt lat="42.6999617" lon="-8.5294033"><ele>239.2</ele><time>2026-04-17T13:30:50.915Z</time></trkpt><trkpt lat="42.6999233" lon="-8.5292583"><ele>241.6</ele><time>2026-04-17T13:30:51.915Z</time></trkpt><trkpt lat="42.6998583" lon="-8.5291367"><ele>244.0</ele><time>2026-04-17T13:30:52.916Z</time></trkpt><trkpt lat="42.6998133" lon="-8.5290567"><ele>243.99999999999997</ele><time>2026-04-17T13:30:53.915Z</time></trkpt><trkpt lat="42.6997533" lon="-8.5289767"><ele>244.0</ele><time>2026-04-17T13:30:54.916Z</time></trkpt><trkpt lat="42.6997083" lon="-8.5288867"><ele>244.0</ele><time>2026-04-17T13:30:55.916Z</time></trkpt><trkpt lat="42.6996867" lon="-8.5287867"><ele>244.0</ele><time>2026-04-17T13:30:56.916Z</time></trkpt><trkpt lat="42.6996883" lon="-8.52869"><ele>243.99999999999997</ele><time>2026-04-17T13:30:57.915Z</time></trkpt><trkpt lat="42.699725" lon="-8.5285867"><ele>244.0</ele><time>2026-04-17T13:30:58.916Z</time></trkpt><trkpt lat="42.699775" lon="-8.52849"><ele>245.83333333333331</ele><time>2026-04-17T13:30:59.915Z</time></trkpt><trkpt lat="42.6998417" lon="-8.528425"><ele>247.66666666666666</ele><time>2026-04-17T13:31:00.915Z</time></trkpt><trkpt lat="42.6999067" lon="-8.528395"><ele>249.5</ele><time>2026-04-17T13:31:01.915Z</time></trkpt><trkpt lat="42.6999817" lon="-8.5283983"><ele>251.33333333333331</ele><time>2026-04-17T13:31:02.915Z</time></trkpt><trkpt lat="42.7000783" lon="-8.5284117"><ele>253.16666666666666</ele><time>2026-04-17T13:31:03.916Z</time></trkpt><trkpt lat="42.7001967" lon="-8.5284333"><ele>255.0</ele><time>2026-04-17T13:31:04.916Z</time></trkpt><trkpt lat="42.700385" lon="-8.528445"><ele>255.5</ele><time>2026-04-17T13:31:05.916Z</time></trkpt><trkpt lat="42.7005283" lon="-8.5284433"><ele>256.0</ele><time>2026-04-17T13:31:06.915Z</time></trkpt><trkpt lat="42.700645" lon="-8.528425"><ele>256.5</ele><time>2026-04-17T13:31:07.915Z</time></trkpt><trkpt lat="42.700765" lon="-8.5284"><ele>257.0</ele><time>2026-04-17T13:31:08.915Z</time></trkpt><trkpt lat="42.7008867" lon="-8.5283567"><ele>257.0</ele><time>2026-04-17T13:31:09.915Z</time></trkpt><trkpt lat="42.7010133" lon="-8.5283"><ele>257.0</ele><time>2026-04-17T13:31:10.916Z</time></trkpt><trkpt lat="42.7011517" lon="-8.5282033"><ele>257.0</ele><time>2026-04-17T13:31:11.916Z</time></trkpt><trkpt lat="42.7013017" lon="-8.5280733"><ele>256.33333333333337</ele><time>2026-04-17T13:31:12.916Z</time></trkpt><trkpt lat="42.7014633" lon="-8.52793"><ele>255.66666666666669</ele><time>2026-04-17T13:31:13.916Z</time></trkpt><trkpt lat="42.701635" lon="-8.52777"><ele>255.0</ele><time>2026-04-17T13:31:14.916Z</time></trkpt><trkpt lat="42.7018117" lon="-8.5275933"><ele>257.0</ele><time>2026-04-17T13:31:15.916Z</time></trkpt><trkpt lat="42.702" lon="-8.5274233"><ele>259.0</ele><time>2026-04-17T13:31:16.915Z</time></trkpt><trkpt lat="42.7021767" lon="-8.5271067"><ele>261.0</ele><time>2026-04-17T13:31:17.916Z</time></trkpt><trkpt lat="42.7025933" lon="-8.5266433"><ele>262.0</ele><time>2026-04-17T13:31:18.915Z</time></trkpt><trkpt lat="42.702775" lon="-8.5264633"><ele>263.0</ele><time>2026-04-17T13:31:19.915Z</time></trkpt><trkpt lat="42.7029583" lon="-8.52625"><ele>263.33333333333337</ele><time>2026-04-17T13:31:20.916Z</time></trkpt><trkpt lat="42.7031083" lon="-8.5260683"><ele>263.6666666666667</ele><time>2026-04-17T13:31:21.916Z</time></trkpt><trkpt lat="42.7032333" lon="-8.5258917"><ele>264.0</ele><time>2026-04-17T13:31:22.916Z</time></trkpt><trkpt lat="42.7033283" lon="-8.52576"><ele>264.0</ele><time>2026-04-17T13:31:23.915Z</time></trkpt><trkpt lat="42.7034017" lon="-8.5256583"><ele>264.0</ele><time>2026-04-17T13:31:24.916Z</time></trkpt><trkpt lat="42.7034333" lon="-8.52553"><ele>264.0</ele><time>2026-04-17T13:31:26.916Z</time></trkpt><trkpt lat="42.70341" lon="-8.52542"><ele>264.0</ele><time>2026-04-17T13:31:27.915Z</time></trkpt><trkpt lat="42.7033717" lon="-8.5252783"><ele>264.0</ele><time>2026-04-17T13:31:28.916Z</time></trkpt><trkpt lat="42.7033317" lon="-8.5251117"><ele>265.0</ele><time>2026-04-17T13:31:29.915Z</time></trkpt><trkpt lat="42.7032867" lon="-8.5249017"><ele>266.0</ele><time>2026-04-17T13:31:30.916Z</time></trkpt><trkpt lat="42.7032433" lon="-8.5246583"><ele>267.0</ele><time>2026-04-17T13:31:31.916Z</time></trkpt><trkpt lat="42.7031917" lon="-8.5243783"><ele>267.3333333333333</ele><time>2026-04-17T13:31:32.915Z</time></trkpt><trkpt lat="42.7031517" lon="-8.5240883"><ele>267.66666666666663</ele><time>2026-04-17T13:31:33.915Z</time></trkpt><trkpt lat="42.7031233" lon="-8.523815"><ele>268.0</ele><time>2026-04-17T13:31:34.916Z</time></trkpt><trkpt lat="42.7031" lon="-8.5235467"><ele>268.66666666666663</ele><time>2026-04-17T13:31:35.915Z</time></trkpt><trkpt lat="42.7030633" lon="-8.5232883"><ele>269.3333333333333</ele><time>2026-04-17T13:31:36.916Z</time></trkpt><trkpt lat="42.7030333" lon="-8.5230667"><ele>270.0</ele><time>2026-04-17T13:31:37.916Z</time></trkpt><trkpt lat="42.7030117" lon="-8.522885"><ele>270.3333333333333</ele><time>2026-04-17T13:31:38.915Z</time></trkpt><trkpt lat="42.702995" lon="-8.5227317"><ele>270.6666666666667</ele><time>2026-04-17T13:31:39.916Z</time></trkpt><trkpt lat="42.7029783" lon="-8.5226133"><ele>271.0</ele><time>2026-04-17T13:31:40.916Z</time></trkpt><trkpt lat="42.7029633" lon="-8.5225217"><ele>271.33333333333337</ele><time>2026-04-17T13:31:41.916Z</time></trkpt><trkpt lat="42.7029617" lon="-8.52238"><ele>271.6666666666667</ele><time>2026-04-17T13:32:49.915Z</time></trkpt><trkpt lat="42.7029467" lon="-8.5222833"><ele>272.0</ele><time>2026-04-17T13:32:50.916Z</time></trkpt><trkpt lat="42.70293" lon="-8.5221683"><ele>272.6</ele><time>2026-04-17T13:32:51.915Z</time></trkpt><trkpt lat="42.7029167" lon="-8.5220383"><ele>273.2</ele><time>2026-04-17T13:32:52.916Z</time></trkpt><trkpt lat="42.7028983" lon="-8.521895"><ele>273.8</ele><time>2026-04-17T13:32:53.915Z</time></trkpt><trkpt lat="42.70288" lon="-8.5217483"><ele>274.4</ele><time>2026-04-17T13:32:54.915Z</time></trkpt><trkpt lat="42.70286" lon="-8.5216"><ele>275.0</ele><time>2026-04-17T13:32:55.915Z</time></trkpt><trkpt lat="42.702835" lon="-8.5214517"><ele>275.0</ele><time>2026-04-17T13:32:56.915Z</time></trkpt><trkpt lat="42.702805" lon="-8.5212967"><ele>275.0</ele><time>2026-04-17T13:32:57.916Z</time></trkpt><trkpt lat="42.702775" lon="-8.5211383"><ele>275.0</ele><time>2026-04-17T13:32:58.916Z</time></trkpt><trkpt lat="42.7027433" lon="-8.5209833"><ele>275.0</ele><time>2026-04-17T13:32:59.915Z</time></trkpt><trkpt lat="42.7027117" lon="-8.5208317"><ele>276.0</ele><time>2026-04-17T13:33:00.916Z</time></trkpt><trkpt lat="42.702675" lon="-8.5206783"><ele>277.0</ele><time>2026-04-17T13:33:01.915Z</time></trkpt><trkpt lat="42.7026333" lon="-8.52053"><ele>278.0</ele><time>2026-04-17T13:33:02.915Z</time></trkpt><trkpt lat="42.702585" lon="-8.5203867"><ele>279.0</ele><time>2026-04-17T13:33:03.915Z</time></trkpt><trkpt lat="42.7025367" lon="-8.52024"><ele>279.5</ele><time>2026-04-17T13:33:04.915Z</time></trkpt><trkpt lat="42.7024883" lon="-8.5200917"><ele>280.0</ele><time>2026-04-17T13:33:05.916Z</time></trkpt><trkpt lat="42.7024367" lon="-8.51994"><ele>280.5</ele><time>2026-04-17T13:33:06.915Z</time></trkpt><trkpt lat="42.7023867" lon="-8.51979"><ele>281.0</ele><time>2026-04-17T13:33:07.915Z</time></trkpt><trkpt lat="42.7023317" lon="-8.5196467"><ele>280.40000000000003</ele><time>2026-04-17T13:33:08.916Z</time></trkpt><trkpt lat="42.7022867" lon="-8.5195017"><ele>279.8</ele><time>2026-04-17T13:33:09.915Z</time></trkpt><trkpt lat="42.7022433" lon="-8.51936"><ele>279.20000000000005</ele><time>2026-04-17T13:33:10.916Z</time></trkpt><trkpt lat="42.7022017" lon="-8.5192283"><ele>278.6</ele><time>2026-04-17T13:33:11.915Z</time></trkpt><trkpt lat="42.702165" lon="-8.51911"><ele>278.0</ele><time>2026-04-17T13:33:12.916Z</time></trkpt><trkpt lat="42.7021333" lon="-8.519015"><ele>278.0</ele><time>2026-04-17T13:33:13.915Z</time></trkpt><trkpt lat="42.7020883" lon="-8.5188883"><ele>278.0</ele><time>2026-04-17T13:33:15.916Z</time></trkpt><trkpt lat="42.70205" lon="-8.51874"><ele>278.0</ele><time>2026-04-17T13:33:17.916Z</time></trkpt><trkpt lat="42.7020283" lon="-8.518645"><ele>278.0</ele><time>2026-04-17T13:33:18.915Z</time></trkpt><trkpt lat="42.702" lon="-8.5185567"><ele>278.0</ele><time>2026-04-17T13:33:19.916Z</time></trkpt><trkpt lat="42.701965" lon="-8.518475"><ele>278.0</ele><time>2026-04-17T13:33:20.915Z</time></trkpt><trkpt lat="42.7019167" lon="-8.5183933"><ele>278.0</ele><time>2026-04-17T13:33:21.915Z</time></trkpt><trkpt lat="42.7018583" lon="-8.5183083"><ele>278.0</ele><time>2026-04-17T13:33:22.915Z</time></trkpt><trkpt lat="42.7017967" lon="-8.51822"><ele>278.0</ele><time>2026-04-17T13:33:23.915Z</time></trkpt><trkpt lat="42.70173" lon="-8.51814"><ele>278.0</ele><time>2026-04-17T13:33:24.916Z</time></trkpt><trkpt lat="42.70166" lon="-8.518065"><ele>278.0</ele><time>2026-04-17T13:33:25.915Z</time></trkpt><trkpt lat="42.7015733" lon="-8.51798"><ele>277.0</ele><time>2026-04-17T13:33:26.915Z</time></trkpt><trkpt lat="42.7015" lon="-8.51789"><ele>276.0</ele><time>2026-04-17T13:33:27.916Z</time></trkpt><trkpt lat="42.7014283" lon="-8.5177883"><ele>275.0</ele><time>2026-04-17T13:33:28.916Z</time></trkpt><trkpt lat="42.7013667" lon="-8.5176767"><ele>274.0</ele><time>2026-04-17T13:33:29.915Z</time></trkpt><trkpt lat="42.7013267" lon="-8.5175483"><ele>273.0</ele><time>2026-04-17T13:33:30.915Z</time></trkpt><trkpt lat="42.7013033" lon="-8.517425"><ele>273.0</ele><time>2026-04-17T13:33:31.915Z</time></trkpt><trkpt lat="42.7012933" lon="-8.5173033"><ele>273.0</ele><time>2026-04-17T13:33:32.915Z</time></trkpt><trkpt lat="42.70129" lon="-8.5171833"><ele>273.0</ele><time>2026-04-17T13:33:33.916Z</time></trkpt><trkpt lat="42.7012883" lon="-8.51707"><ele>273.0</ele><time>2026-04-17T13:33:34.915Z</time></trkpt><trkpt lat="42.701285" lon="-8.51695"><ele>273.0</ele><time>2026-04-17T13:33:35.915Z</time></trkpt><trkpt lat="42.7012783" lon="-8.5168167"><ele>273.0</ele><time>2026-04-17T13:33:36.916Z</time></trkpt><trkpt lat="42.7012717" lon="-8.51667"><ele>272.2</ele><time>2026-04-17T13:33:37.915Z</time></trkpt><trkpt lat="42.7012567" lon="-8.5165217"><ele>271.4</ele><time>2026-04-17T13:33:38.915Z</time></trkpt><trkpt lat="42.7012417" lon="-8.5163683"><ele>270.59999999999997</ele><time>2026-04-17T13:33:39.916Z</time></trkpt><trkpt lat="42.7012267" lon="-8.516225"><ele>269.8</ele><time>2026-04-17T13:33:40.916Z</time></trkpt><trkpt lat="42.70121" lon="-8.51607"><ele>269.0</ele><time>2026-04-17T13:33:41.916Z</time></trkpt><trkpt lat="42.7012017" lon="-8.515915"><ele>267.5</ele><time>2026-04-17T13:33:42.915Z</time></trkpt><trkpt lat="42.7012017" lon="-8.5157617"><ele>266.0</ele><time>2026-04-17T13:33:43.915Z</time></trkpt><trkpt lat="42.7011917" lon="-8.5156033"><ele>264.5</ele><time>2026-04-17T13:33:44.915Z</time></trkpt><trkpt lat="42.7011767" lon="-8.51545"><ele>263.0</ele><time>2026-04-17T13:33:45.915Z</time></trkpt><trkpt lat="42.7011533" lon="-8.5153033"><ele>262.8</ele><time>2026-04-17T13:33:46.916Z</time></trkpt><trkpt lat="42.7011083" lon="-8.5151717"><ele>262.6</ele><time>2026-04-17T13:33:47.915Z</time></trkpt><trkpt lat="42.7010517" lon="-8.515035"><ele>262.4</ele><time>2026-04-17T13:33:48.915Z</time></trkpt><trkpt lat="42.700985" lon="-8.5149183"><ele>262.2</ele><time>2026-04-17T13:33:49.916Z</time></trkpt><trkpt lat="42.7009183" lon="-8.5148033"><ele>262.0</ele><time>2026-04-17T13:33:50.915Z</time></trkpt><trkpt lat="42.7008667" lon="-8.5146733"><ele>263.4</ele><time>2026-04-17T13:33:51.915Z</time></trkpt><trkpt lat="42.7008333" lon="-8.5145383"><ele>264.79999999999995</ele><time>2026-04-17T13:33:52.916Z</time></trkpt><trkpt lat="42.70082" lon="-8.5143983"><ele>266.2</ele><time>2026-04-17T13:33:53.915Z</time></trkpt><trkpt lat="42.70082" lon="-8.5142567"><ele>267.59999999999997</ele><time>2026-04-17T13:33:54.916Z</time></trkpt><trkpt lat="42.7008233" lon="-8.5141117"><ele>269.0</ele><time>2026-04-17T13:33:55.916Z</time></trkpt><trkpt lat="42.7008267" lon="-8.5139683"><ele>269.0</ele><time>2026-04-17T13:33:56.916Z</time></trkpt><trkpt lat="42.7008333" lon="-8.5138267"><ele>269.0</ele><time>2026-04-17T13:33:57.915Z</time></trkpt><trkpt lat="42.7008217" lon="-8.51369"><ele>269.0</ele><time>2026-04-17T13:33:58.916Z</time></trkpt><trkpt lat="42.700815" lon="-8.5135467"><ele>269.0</ele><time>2026-04-17T13:33:59.916Z</time></trkpt><trkpt lat="42.7007967" lon="-8.5133983"><ele>269.0</ele><time>2026-04-17T13:34:00.915Z</time></trkpt><trkpt lat="42.7007633" lon="-8.513255"><ele>267.5</ele><time>2026-04-17T13:34:01.916Z</time></trkpt><trkpt lat="42.7007267" lon="-8.51311"><ele>266.0</ele><time>2026-04-17T13:34:02.916Z</time></trkpt><trkpt lat="42.700675" lon="-8.5129667"><ele>264.5</ele><time>2026-04-17T13:34:03.915Z</time></trkpt><trkpt lat="42.7006217" lon="-8.5128317"><ele>263.0</ele><time>2026-04-17T13:34:04.916Z</time></trkpt><trkpt lat="42.700565" lon="-8.5126917"><ele>261.5</ele><time>2026-04-17T13:34:05.916Z</time></trkpt><trkpt lat="42.7005133" lon="-8.51255"><ele>260.0</ele><time>2026-04-17T13:34:06.916Z</time></trkpt><trkpt lat="42.7004567" lon="-8.5124117"><ele>258.5</ele><time>2026-04-17T13:34:07.916Z</time></trkpt><trkpt lat="42.7003917" lon="-8.51227"><ele>257.0</ele><time>2026-04-17T13:34:08.915Z</time></trkpt><trkpt lat="42.7003217" lon="-8.51213"><ele>258.75</ele><time>2026-04-17T13:34:09.915Z</time></trkpt><trkpt lat="42.7002483" lon="-8.5119983"><ele>260.5</ele><time>2026-04-17T13:34:10.916Z</time></trkpt><trkpt lat="42.7001783" lon="-8.51187"><ele>262.25</ele><time>2026-04-17T13:34:11.915Z</time></trkpt><trkpt lat="42.70012" lon="-8.5117317"><ele>264.0</ele><time>2026-04-17T13:34:12.915Z</time></trkpt><trkpt lat="42.7000733" lon="-8.5115817"><ele>264.0</ele><time>2026-04-17T13:34:13.915Z</time></trkpt><trkpt lat="42.7000417" lon="-8.5114383"><ele>264.0</ele><time>2026-04-17T13:34:14.916Z</time></trkpt><trkpt lat="42.7000117" lon="-8.5113033"><ele>264.0</ele><time>2026-04-17T13:34:15.915Z</time></trkpt><trkpt lat="42.6999683" lon="-8.5111667"><ele>264.0</ele><time>2026-04-17T13:34:16.915Z</time></trkpt><trkpt lat="42.6999133" lon="-8.511045"><ele>264.0</ele><time>2026-04-17T13:34:17.916Z</time></trkpt><trkpt lat="42.6998433" lon="-8.5109367"><ele>263.4</ele><time>2026-04-17T13:34:18.916Z</time></trkpt><trkpt lat="42.6997733" lon="-8.5108317"><ele>262.79999999999995</ele><time>2026-04-17T13:34:19.915Z</time></trkpt><trkpt lat="42.699695" lon="-8.5107283"><ele>262.20000000000005</ele><time>2026-04-17T13:34:20.915Z</time></trkpt><trkpt lat="42.6996083" lon="-8.5106517"><ele>261.6</ele><time>2026-04-17T13:34:21.916Z</time></trkpt><trkpt lat="42.69951" lon="-8.5106117"><ele>261.0</ele><time>2026-04-17T13:34:22.915Z</time></trkpt><trkpt lat="42.6994033" lon="-8.5106167"><ele>262.5</ele><time>2026-04-17T13:34:23.915Z</time></trkpt><trkpt lat="42.69929" lon="-8.5106333"><ele>264.0</ele><time>2026-04-17T13:34:24.916Z</time></trkpt><trkpt lat="42.6991717" lon="-8.510635"><ele>265.5</ele><time>2026-04-17T13:34:25.916Z</time></trkpt><trkpt lat="42.69906" lon="-8.5106283"><ele>267.0</ele><time>2026-04-17T13:34:26.916Z</time></trkpt><trkpt lat="42.6989467" lon="-8.5106067"><ele>267.0</ele><time>2026-04-17T13:34:27.915Z</time></trkpt><trkpt lat="42.6988467" lon="-8.5105767"><ele>267.0</ele><time>2026-04-17T13:34:28.915Z</time></trkpt><trkpt lat="42.69875" lon="-8.5105383"><ele>267.0</ele><time>2026-04-17T13:34:29.915Z</time></trkpt><trkpt lat="42.698655" lon="-8.51048"><ele>267.0</ele><time>2026-04-17T13:34:30.916Z</time></trkpt><trkpt lat="42.698565" lon="-8.5104083"><ele>267.0</ele><time>2026-04-17T13:34:31.915Z</time></trkpt><trkpt lat="42.69847" lon="-8.5103267"><ele>266.4</ele><time>2026-04-17T13:34:32.915Z</time></trkpt><trkpt lat="42.6983767" lon="-8.510245"><ele>265.79999999999995</ele><time>2026-04-17T13:34:33.915Z</time></trkpt><trkpt lat="42.698295" lon="-8.5101433"><ele>265.2</ele><time>2026-04-17T13:34:34.915Z</time></trkpt><trkpt lat="42.69822" lon="-8.5100267"><ele>264.59999999999997</ele><time>2026-04-17T13:34:35.916Z</time></trkpt><trkpt lat="42.6981467" lon="-8.5099083"><ele>264.0</ele><time>2026-04-17T13:34:36.916Z</time></trkpt><trkpt lat="42.698075" lon="-8.50979"><ele>264.0</ele><time>2026-04-17T13:34:37.915Z</time></trkpt><trkpt lat="42.6980067" lon="-8.5096667"><ele>264.0</ele><time>2026-04-17T13:34:38.916Z</time></trkpt><trkpt lat="42.697945" lon="-8.509535"><ele>264.0</ele><time>2026-04-17T13:34:39.916Z</time></trkpt><trkpt lat="42.69789" lon="-8.5094067"><ele>264.0</ele><time>2026-04-17T13:34:40.915Z</time></trkpt><trkpt lat="42.69784" lon="-8.50928"><ele>264.0</ele><time>2026-04-17T13:34:41.915Z</time></trkpt><trkpt lat="42.6977917" lon="-8.5091533"><ele>265.0</ele><time>2026-04-17T13:34:42.915Z</time></trkpt><trkpt lat="42.6977517" lon="-8.5090283"><ele>266.0</ele><time>2026-04-17T13:34:43.916Z</time></trkpt><trkpt lat="42.697715" lon="-8.5088933"><ele>267.0</ele><time>2026-04-17T13:34:44.915Z</time></trkpt><trkpt lat="42.6976867" lon="-8.508755"><ele>268.0</ele><time>2026-04-17T13:34:45.916Z</time></trkpt><trkpt lat="42.6976583" lon="-8.5086167"><ele>269.0</ele><time>2026-04-17T13:34:46.916Z</time></trkpt><trkpt lat="42.6976333" lon="-8.5084783"><ele>269.0</ele><time>2026-04-17T13:34:47.915Z</time></trkpt><trkpt lat="42.697615" lon="-8.50834"><ele>269.0</ele><time>2026-04-17T13:34:48.916Z</time></trkpt><trkpt lat="42.6975983" lon="-8.50821"><ele>269.0</ele><time>2026-04-17T13:34:49.916Z</time></trkpt><trkpt lat="42.697585" lon="-8.5080783"><ele>269.0</ele><time>2026-04-17T13:34:50.915Z</time></trkpt><trkpt lat="42.697565" lon="-8.5079483"><ele>269.0</ele><time>2026-04-17T13:34:51.916Z</time></trkpt><trkpt lat="42.6975517" lon="-8.5078133"><ele>268.0</ele><time>2026-04-17T13:34:52.915Z</time></trkpt><trkpt lat="42.697535" lon="-8.5076767"><ele>267.0</ele><time>2026-04-17T13:34:53.915Z</time></trkpt><trkpt lat="42.697515" lon="-8.507535"><ele>266.0</ele><time>2026-04-17T13:34:54.915Z</time></trkpt><trkpt lat="42.6974933" lon="-8.507395"><ele>265.0</ele><time>2026-04-17T13:34:55.915Z</time></trkpt><trkpt lat="42.697475" lon="-8.5072567"><ele>264.0</ele><time>2026-04-17T13:34:56.915Z</time></trkpt><trkpt lat="42.6974483" lon="-8.5071217"><ele>263.2</ele><time>2026-04-17T13:34:57.915Z</time></trkpt><trkpt lat="42.69741" lon="-8.5069933"><ele>262.4</ele><time>2026-04-17T13:34:58.915Z</time></trkpt><trkpt lat="42.6973567" lon="-8.5068867"><ele>261.6</ele><time>2026-04-17T13:34:59.915Z</time></trkpt><trkpt lat="42.69731" lon="-8.5067983"><ele>260.8</ele><time>2026-04-17T13:35:00.915Z</time></trkpt><trkpt lat="42.6972333" lon="-8.5067467"><ele>260.0</ele><time>2026-04-17T13:35:01.915Z</time></trkpt><trkpt lat="42.69714" lon="-8.5067"><ele>260.0</ele><time>2026-04-17T13:35:02.915Z</time></trkpt><trkpt lat="42.6970217" lon="-8.5066733"><ele>260.0</ele><time>2026-04-17T13:35:03.915Z</time></trkpt><trkpt lat="42.6968733" lon="-8.5066517"><ele>260.0</ele><time>2026-04-17T13:35:04.916Z</time></trkpt><trkpt lat="42.69672" lon="-8.5066267"><ele>260.0</ele><time>2026-04-17T13:35:05.915Z</time></trkpt><trkpt lat="42.6965683" lon="-8.5065917"><ele>258.5</ele><time>2026-04-17T13:35:06.916Z</time></trkpt><trkpt lat="42.696435" lon="-8.5065533"><ele>257.0</ele><time>2026-04-17T13:35:07.916Z</time></trkpt><trkpt lat="42.6963117" lon="-8.5065117"><ele>255.5</ele><time>2026-04-17T13:35:08.916Z</time></trkpt><trkpt lat="42.6961933" lon="-8.506465"><ele>254.0</ele><time>2026-04-17T13:35:09.915Z</time></trkpt><trkpt lat="42.69608" lon="-8.5064167"><ele>252.75</ele><time>2026-04-17T13:35:10.915Z</time></trkpt><trkpt lat="42.6959733" lon="-8.5063717"><ele>251.5</ele><time>2026-04-17T13:35:11.915Z</time></trkpt><trkpt lat="42.69587" lon="-8.5063117"><ele>250.25</ele><time>2026-04-17T13:35:12.916Z</time></trkpt><trkpt lat="42.695765" lon="-8.506245"><ele>249.0</ele><time>2026-04-17T13:35:13.915Z</time></trkpt><trkpt lat="42.6956683" lon="-8.506165"><ele>248.25</ele><time>2026-04-17T13:35:14.915Z</time></trkpt><trkpt lat="42.6955717" lon="-8.506075"><ele>247.5</ele><time>2026-04-17T13:35:15.915Z</time></trkpt><trkpt lat="42.6954817" lon="-8.5059583"><ele>246.75</ele><time>2026-04-17T13:35:16.915Z</time></trkpt><trkpt lat="42.6954067" lon="-8.5058183"><ele>246.0</ele><time>2026-04-17T13:35:17.916Z</time></trkpt><trkpt lat="42.6953533" lon="-8.5056717"><ele>246.0</ele><time>2026-04-17T13:35:18.915Z</time></trkpt><trkpt lat="42.6953017" lon="-8.505525"><ele>246.0</ele><time>2026-04-17T13:35:19.915Z</time></trkpt><trkpt lat="42.6952467" lon="-8.505385"><ele>246.0</ele><time>2026-04-17T13:35:20.916Z</time></trkpt><trkpt lat="42.6951883" lon="-8.50525"><ele>246.0</ele><time>2026-04-17T13:35:21.915Z</time></trkpt><trkpt lat="42.695125" lon="-8.5051233"><ele>248.20000000000002</ele><time>2026-04-17T13:35:22.916Z</time></trkpt><trkpt lat="42.69506" lon="-8.505"><ele>250.40000000000003</ele><time>2026-04-17T13:35:23.915Z</time></trkpt><trkpt lat="42.695" lon="-8.50488"><ele>252.6</ele><time>2026-04-17T13:35:24.915Z</time></trkpt><trkpt lat="42.6949483" lon="-8.5047683"><ele>254.8</ele><time>2026-04-17T13:35:25.915Z</time></trkpt><trkpt lat="42.6948983" lon="-8.50467"><ele>257.0</ele><time>2026-04-17T13:35:26.916Z</time></trkpt><trkpt lat="42.6948533" lon="-8.50458"><ele>257.0</ele><time>2026-04-17T13:35:27.915Z</time></trkpt><trkpt lat="42.6947817" lon="-8.504465"><ele>257.0</ele><time>2026-04-17T13:35:29.916Z</time></trkpt><trkpt lat="42.6947117" lon="-8.5044267"><ele>257.0</ele><time>2026-04-17T13:35:31.915Z</time></trkpt><trkpt lat="42.69464" lon="-8.5045083"><ele>257.0</ele><time>2026-04-17T13:35:33.916Z</time></trkpt><trkpt lat="42.6945867" lon="-8.5045783"><ele>257.0</ele><time>2026-04-17T13:35:34.916Z</time></trkpt><trkpt lat="42.6945267" lon="-8.50465"><ele>257.0</ele><time>2026-04-17T13:35:35.916Z</time></trkpt><trkpt lat="42.694465" lon="-8.504715"><ele>257.1428571428571</ele><time>2026-04-17T13:35:36.915Z</time></trkpt><trkpt lat="42.6944067" lon="-8.5047767"><ele>257.2857142857143</ele><time>2026-04-17T13:35:37.916Z</time></trkpt><trkpt lat="42.6943467" lon="-8.504845"><ele>257.42857142857144</ele><time>2026-04-17T13:35:38.916Z</time></trkpt><trkpt lat="42.6942883" lon="-8.5049117"><ele>257.57142857142856</ele><time>2026-04-17T13:35:39.915Z</time></trkpt><trkpt lat="42.694225" lon="-8.50497"><ele>257.7142857142857</ele><time>2026-04-17T13:35:40.916Z</time></trkpt><trkpt lat="42.694165" lon="-8.5050233"><ele>257.85714285714283</ele><time>2026-04-17T13:35:41.916Z</time></trkpt><trkpt lat="42.69411" lon="-8.5050767"><ele>258.0</ele><time>2026-04-17T13:35:42.916Z</time></trkpt><trkpt lat="42.6940617" lon="-8.5051367"><ele>258.0</ele><time>2026-04-17T13:35:43.916Z</time></trkpt><trkpt lat="42.6939917" lon="-8.5052517"><ele>258.0</ele><time>2026-04-17T13:35:45.916Z</time></trkpt><trkpt lat="42.6939233" lon="-8.5053333"><ele>258.0</ele><time>2026-04-17T13:35:47.915Z</time></trkpt><trkpt lat="42.6938517" lon="-8.5053817"><ele>258.0</ele><time>2026-04-17T13:36:12.915Z</time></trkpt><trkpt lat="42.6938783" lon="-8.5052867"><ele>258.0</ele><time>2026-04-17T13:36:17.915Z</time></trkpt><trkpt lat="42.6939567" lon="-8.50523"><ele>258.0</ele><time>2026-04-17T13:36:19.916Z</time></trkpt><trkpt lat="42.6940433" lon="-8.50524"><ele>258.0</ele><time>2026-04-17T13:36:21.915Z</time></trkpt><trkpt lat="42.6941083" lon="-8.50531"><ele>258.0</ele><time>2026-04-17T13:36:23.916Z</time></trkpt><trkpt lat="42.6941317" lon="-8.5054017"><ele>258.0</ele><time>2026-04-17T13:36:26.916Z</time></trkpt><trkpt lat="42.69406" lon="-8.50549"><ele>257.0</ele><time>2026-04-17T14:35:18.919Z</time></trkpt></trkseg></trk></gpx>